<?xml version="1.0" encoding="UTF-8" standalone="no" ?>
<gpx xmlns="http://www.topografix.com/GPX/1/1" xmlns:xsi="http://www.w3.org/2001/XMLSchema-instance" xsi:schemaLocation="http://www.topografix.com/GPX/1/1 http://www.topografix.com/GPX/1/1/gpx.xsd" version="1.1" creator="VisuGPX - https://www.visugpx.com">
  <metadata>
    <name>Lances depuis Saint Pierre</name>
  </metadata>
  <trk>
    <name><![CDATA[Lances depuis Saint Pierre_1]]></name>
    <extensions>
      <line xmlns="http://www.topografix.com/GPX/gpx_style/0/2">
        <color>0000FF</color>
        <width>4</width>
      </line>
    </extensions>
    <trkseg>
      <trkpt lat="45.34492" lon="5.81676">
        <ele>932</ele>
        <time>2022-03-06T08:36:21Z</time>
      </trkpt>
      <trkpt lat="45.34492" lon="5.81676">
        <ele>932</ele>
        <time>2022-03-06T08:36:24Z</time>
      </trkpt>
      <trkpt lat="45.34492" lon="5.81676">
        <ele>931</ele>
        <time>2022-03-06T08:36:28Z</time>
      </trkpt>
      <trkpt lat="45.34492" lon="5.81676">
        <ele>931</ele>
        <time>2022-03-06T08:36:32Z</time>
      </trkpt>
      <trkpt lat="45.34492" lon="5.81676">
        <ele>931</ele>
        <time>2022-03-06T08:36:36Z</time>
      </trkpt>
      <trkpt lat="45.34492" lon="5.81676">
        <ele>931</ele>
        <time>2022-03-06T08:36:40Z</time>
      </trkpt>
      <trkpt lat="45.34492" lon="5.81676">
        <ele>931</ele>
        <time>2022-03-06T08:36:44Z</time>
      </trkpt>
      <trkpt lat="45.34492" lon="5.81676">
        <ele>931</ele>
        <time>2022-03-06T08:36:48Z</time>
      </trkpt>
      <trkpt lat="45.34492" lon="5.81676">
        <ele>931</ele>
        <time>2022-03-06T08:36:52Z</time>
      </trkpt>
      <trkpt lat="45.34492" lon="5.81676">
        <ele>931</ele>
        <time>2022-03-06T08:36:56Z</time>
      </trkpt>
      <trkpt lat="45.34492" lon="5.81676">
        <ele>931</ele>
        <time>2022-03-06T08:37:00Z</time>
      </trkpt>
      <trkpt lat="45.34492" lon="5.81676">
        <ele>931</ele>
        <time>2022-03-06T08:37:04Z</time>
      </trkpt>
      <trkpt lat="45.3449" lon="5.81676">
        <ele>931</ele>
        <time>2022-03-06T08:37:05Z</time>
      </trkpt>
      <trkpt lat="45.34489" lon="5.81679">
        <ele>932</ele>
        <time>2022-03-06T08:37:08Z</time>
      </trkpt>
      <trkpt lat="45.34487" lon="5.8168">
        <ele>931</ele>
        <time>2022-03-06T08:37:10Z</time>
      </trkpt>
      <trkpt lat="45.34484" lon="5.81681">
        <ele>931</ele>
        <time>2022-03-06T08:37:12Z</time>
      </trkpt>
      <trkpt lat="45.34481" lon="5.81682">
        <ele>931</ele>
        <time>2022-03-06T08:37:14Z</time>
      </trkpt>
      <trkpt lat="45.34479" lon="5.81683">
        <ele>931</ele>
        <time>2022-03-06T08:37:16Z</time>
      </trkpt>
      <trkpt lat="45.34476" lon="5.81684">
        <ele>931</ele>
        <time>2022-03-06T08:37:17Z</time>
      </trkpt>
      <trkpt lat="45.34475" lon="5.81685">
        <ele>931</ele>
        <time>2022-03-06T08:37:20Z</time>
      </trkpt>
      <trkpt lat="45.34473" lon="5.81687">
        <ele>931</ele>
        <time>2022-03-06T08:37:22Z</time>
      </trkpt>
      <trkpt lat="45.34471" lon="5.81688">
        <ele>931</ele>
        <time>2022-03-06T08:37:24Z</time>
      </trkpt>
      <trkpt lat="45.34469" lon="5.81689">
        <ele>931</ele>
        <time>2022-03-06T08:37:26Z</time>
      </trkpt>
      <trkpt lat="45.34467" lon="5.81692">
        <ele>931</ele>
        <time>2022-03-06T08:37:29Z</time>
      </trkpt>
      <trkpt lat="45.34467" lon="5.81692">
        <ele>931</ele>
        <time>2022-03-06T08:37:30Z</time>
      </trkpt>
      <trkpt lat="45.34467" lon="5.81695">
        <ele>932</ele>
        <time>2022-03-06T08:37:32Z</time>
      </trkpt>
      <trkpt lat="45.34468" lon="5.81698">
        <ele>933</ele>
        <time>2022-03-06T08:37:35Z</time>
      </trkpt>
      <trkpt lat="45.34468" lon="5.81698">
        <ele>933</ele>
        <time>2022-03-06T08:37:36Z</time>
      </trkpt>
      <trkpt lat="45.34469" lon="5.817">
        <ele>933</ele>
        <time>2022-03-06T08:37:39Z</time>
      </trkpt>
      <trkpt lat="45.34469" lon="5.817">
        <ele>933</ele>
        <time>2022-03-06T08:37:41Z</time>
      </trkpt>
      <trkpt lat="45.34471" lon="5.81701">
        <ele>933</ele>
        <time>2022-03-06T08:37:42Z</time>
      </trkpt>
      <trkpt lat="45.34471" lon="5.81701">
        <ele>933</ele>
        <time>2022-03-06T08:37:46Z</time>
      </trkpt>
      <trkpt lat="45.34473" lon="5.81702">
        <ele>933</ele>
        <time>2022-03-06T08:37:48Z</time>
      </trkpt>
      <trkpt lat="45.34473" lon="5.81702">
        <ele>933</ele>
        <time>2022-03-06T08:37:51Z</time>
      </trkpt>
      <trkpt lat="45.34473" lon="5.81702">
        <ele>933</ele>
        <time>2022-03-06T08:37:55Z</time>
      </trkpt>
      <trkpt lat="45.34473" lon="5.81702">
        <ele>933</ele>
        <time>2022-03-06T08:37:59Z</time>
      </trkpt>
      <trkpt lat="45.34473" lon="5.81702">
        <ele>933</ele>
        <time>2022-03-06T08:38:03Z</time>
      </trkpt>
      <trkpt lat="45.34473" lon="5.81702">
        <ele>933</ele>
        <time>2022-03-06T08:38:07Z</time>
      </trkpt>
      <trkpt lat="45.34473" lon="5.81702">
        <ele>933</ele>
        <time>2022-03-06T08:38:11Z</time>
      </trkpt>
      <trkpt lat="45.34473" lon="5.81702">
        <ele>933</ele>
        <time>2022-03-06T08:38:15Z</time>
      </trkpt>
      <trkpt lat="45.34473" lon="5.81702">
        <ele>933</ele>
        <time>2022-03-06T08:38:19Z</time>
      </trkpt>
      <trkpt lat="45.34473" lon="5.81702">
        <ele>932</ele>
        <time>2022-03-06T08:38:23Z</time>
      </trkpt>
      <trkpt lat="45.34473" lon="5.81702">
        <ele>933</ele>
        <time>2022-03-06T08:38:27Z</time>
      </trkpt>
      <trkpt lat="45.34475" lon="5.81704">
        <ele>933</ele>
        <time>2022-03-06T08:38:29Z</time>
      </trkpt>
      <trkpt lat="45.34475" lon="5.81704">
        <ele>933</ele>
        <time>2022-03-06T08:38:32Z</time>
      </trkpt>
      <trkpt lat="45.34475" lon="5.81704">
        <ele>933</ele>
        <time>2022-03-06T08:38:36Z</time>
      </trkpt>
      <trkpt lat="45.34477" lon="5.81706">
        <ele>933</ele>
        <time>2022-03-06T08:38:38Z</time>
      </trkpt>
      <trkpt lat="45.34479" lon="5.81708">
        <ele>934</ele>
        <time>2022-03-06T08:38:40Z</time>
      </trkpt>
      <trkpt lat="45.3448" lon="5.8171">
        <ele>934</ele>
        <time>2022-03-06T08:38:42Z</time>
      </trkpt>
      <trkpt lat="45.34482" lon="5.81712">
        <ele>934</ele>
        <time>2022-03-06T08:38:44Z</time>
      </trkpt>
      <trkpt lat="45.34484" lon="5.81714">
        <ele>935</ele>
        <time>2022-03-06T08:38:46Z</time>
      </trkpt>
      <trkpt lat="45.34486" lon="5.81717">
        <ele>936</ele>
        <time>2022-03-06T08:38:49Z</time>
      </trkpt>
      <trkpt lat="45.34486" lon="5.81717">
        <ele>936</ele>
        <time>2022-03-06T08:38:50Z</time>
      </trkpt>
      <trkpt lat="45.34487" lon="5.81719">
        <ele>936</ele>
        <time>2022-03-06T08:38:51Z</time>
      </trkpt>
      <trkpt lat="45.34488" lon="5.81722">
        <ele>936</ele>
        <time>2022-03-06T08:38:52Z</time>
      </trkpt>
      <trkpt lat="45.3449" lon="5.81724">
        <ele>937</ele>
        <time>2022-03-06T08:38:54Z</time>
      </trkpt>
      <trkpt lat="45.3449" lon="5.81727">
        <ele>938</ele>
        <time>2022-03-06T08:38:57Z</time>
      </trkpt>
      <trkpt lat="45.3449" lon="5.81727">
        <ele>938</ele>
        <time>2022-03-06T08:38:58Z</time>
      </trkpt>
      <trkpt lat="45.34491" lon="5.8173">
        <ele>938</ele>
        <time>2022-03-06T08:38:59Z</time>
      </trkpt>
      <trkpt lat="45.34492" lon="5.81733">
        <ele>938</ele>
        <time>2022-03-06T08:39:01Z</time>
      </trkpt>
      <trkpt lat="45.34492" lon="5.81736">
        <ele>939</ele>
        <time>2022-03-06T08:39:04Z</time>
      </trkpt>
      <trkpt lat="45.34492" lon="5.81736">
        <ele>939</ele>
        <time>2022-03-06T08:39:05Z</time>
      </trkpt>
      <trkpt lat="45.34493" lon="5.81739">
        <ele>939</ele>
        <time>2022-03-06T08:39:06Z</time>
      </trkpt>
      <trkpt lat="45.34493" lon="5.81742">
        <ele>939</ele>
        <time>2022-03-06T08:39:08Z</time>
      </trkpt>
      <trkpt lat="45.34493" lon="5.81744">
        <ele>940</ele>
        <time>2022-03-06T08:39:10Z</time>
      </trkpt>
      <trkpt lat="45.34493" lon="5.81747">
        <ele>940</ele>
        <time>2022-03-06T08:39:12Z</time>
      </trkpt>
      <trkpt lat="45.34493" lon="5.8175">
        <ele>940</ele>
        <time>2022-03-06T08:39:15Z</time>
      </trkpt>
      <trkpt lat="45.34493" lon="5.8175">
        <ele>940</ele>
        <time>2022-03-06T08:39:16Z</time>
      </trkpt>
      <trkpt lat="45.34493" lon="5.81753">
        <ele>941</ele>
        <time>2022-03-06T08:39:17Z</time>
      </trkpt>
      <trkpt lat="45.34494" lon="5.81756">
        <ele>941</ele>
        <time>2022-03-06T08:39:20Z</time>
      </trkpt>
      <trkpt lat="45.34496" lon="5.81758">
        <ele>942</ele>
        <time>2022-03-06T08:39:22Z</time>
      </trkpt>
      <trkpt lat="45.34496" lon="5.81761">
        <ele>942</ele>
        <time>2022-03-06T08:39:24Z</time>
      </trkpt>
      <trkpt lat="45.34496" lon="5.81761">
        <ele>942</ele>
        <time>2022-03-06T08:39:26Z</time>
      </trkpt>
      <trkpt lat="45.34497" lon="5.81765">
        <ele>943</ele>
        <time>2022-03-06T08:39:27Z</time>
      </trkpt>
      <trkpt lat="45.34498" lon="5.81768">
        <ele>943</ele>
        <time>2022-03-06T08:39:30Z</time>
      </trkpt>
      <trkpt lat="45.34498" lon="5.81771">
        <ele>943</ele>
        <time>2022-03-06T08:39:32Z</time>
      </trkpt>
      <trkpt lat="45.34499" lon="5.81775">
        <ele>944</ele>
        <time>2022-03-06T08:39:35Z</time>
      </trkpt>
      <trkpt lat="45.34499" lon="5.81775">
        <ele>945</ele>
        <time>2022-03-06T08:39:36Z</time>
      </trkpt>
      <trkpt lat="45.34499" lon="5.81778">
        <ele>946</ele>
        <time>2022-03-06T08:39:38Z</time>
      </trkpt>
      <trkpt lat="45.34499" lon="5.81782">
        <ele>946</ele>
        <time>2022-03-06T08:39:41Z</time>
      </trkpt>
      <trkpt lat="45.34499" lon="5.81782">
        <ele>946</ele>
        <time>2022-03-06T08:39:42Z</time>
      </trkpt>
      <trkpt lat="45.34498" lon="5.81784">
        <ele>947</ele>
        <time>2022-03-06T08:39:43Z</time>
      </trkpt>
      <trkpt lat="45.34498" lon="5.81788">
        <ele>947</ele>
        <time>2022-03-06T08:39:46Z</time>
      </trkpt>
      <trkpt lat="45.34498" lon="5.81788">
        <ele>947</ele>
        <time>2022-03-06T08:39:48Z</time>
      </trkpt>
      <trkpt lat="45.34499" lon="5.81792">
        <ele>947</ele>
        <time>2022-03-06T08:39:49Z</time>
      </trkpt>
      <trkpt lat="45.34499" lon="5.81795">
        <ele>949</ele>
        <time>2022-03-06T08:39:52Z</time>
      </trkpt>
      <trkpt lat="45.34499" lon="5.81795">
        <ele>949</ele>
        <time>2022-03-06T08:39:54Z</time>
      </trkpt>
      <trkpt lat="45.345" lon="5.81798">
        <ele>949</ele>
        <time>2022-03-06T08:39:55Z</time>
      </trkpt>
      <trkpt lat="45.345" lon="5.81802">
        <ele>949</ele>
        <time>2022-03-06T08:39:58Z</time>
      </trkpt>
      <trkpt lat="45.345" lon="5.81805">
        <ele>950</ele>
        <time>2022-03-06T08:40:00Z</time>
      </trkpt>
      <trkpt lat="45.34499" lon="5.81807">
        <ele>950</ele>
        <time>2022-03-06T08:40:02Z</time>
      </trkpt>
      <trkpt lat="45.34499" lon="5.81807">
        <ele>951</ele>
        <time>2022-03-06T08:40:04Z</time>
      </trkpt>
      <trkpt lat="45.34498" lon="5.8181">
        <ele>951</ele>
        <time>2022-03-06T08:40:05Z</time>
      </trkpt>
      <trkpt lat="45.34498" lon="5.81813">
        <ele>951</ele>
        <time>2022-03-06T08:40:08Z</time>
      </trkpt>
      <trkpt lat="45.34498" lon="5.81813">
        <ele>952</ele>
        <time>2022-03-06T08:40:10Z</time>
      </trkpt>
      <trkpt lat="45.34498" lon="5.81817">
        <ele>952</ele>
        <time>2022-03-06T08:40:11Z</time>
      </trkpt>
      <trkpt lat="45.34499" lon="5.81819">
        <ele>953</ele>
        <time>2022-03-06T08:40:13Z</time>
      </trkpt>
      <trkpt lat="45.34499" lon="5.81822">
        <ele>954</ele>
        <time>2022-03-06T08:40:15Z</time>
      </trkpt>
      <trkpt lat="45.345" lon="5.81825">
        <ele>954</ele>
        <time>2022-03-06T08:40:17Z</time>
      </trkpt>
      <trkpt lat="45.34501" lon="5.81828">
        <ele>955</ele>
        <time>2022-03-06T08:40:20Z</time>
      </trkpt>
      <trkpt lat="45.34501" lon="5.81828">
        <ele>955</ele>
        <time>2022-03-06T08:40:21Z</time>
      </trkpt>
      <trkpt lat="45.34501" lon="5.81831">
        <ele>956</ele>
        <time>2022-03-06T08:40:23Z</time>
      </trkpt>
      <trkpt lat="45.34501" lon="5.81834">
        <ele>957</ele>
        <time>2022-03-06T08:40:26Z</time>
      </trkpt>
      <trkpt lat="45.34501" lon="5.81834">
        <ele>957</ele>
        <time>2022-03-06T08:40:27Z</time>
      </trkpt>
      <trkpt lat="45.345" lon="5.81837">
        <ele>958</ele>
        <time>2022-03-06T08:40:29Z</time>
      </trkpt>
      <trkpt lat="45.34499" lon="5.8184">
        <ele>958</ele>
        <time>2022-03-06T08:40:32Z</time>
      </trkpt>
      <trkpt lat="45.34499" lon="5.8184">
        <ele>958</ele>
        <time>2022-03-06T08:40:33Z</time>
      </trkpt>
      <trkpt lat="45.34499" lon="5.81843">
        <ele>958</ele>
        <time>2022-03-06T08:40:35Z</time>
      </trkpt>
      <trkpt lat="45.34498" lon="5.81846">
        <ele>959</ele>
        <time>2022-03-06T08:40:38Z</time>
      </trkpt>
      <trkpt lat="45.34498" lon="5.81846">
        <ele>959</ele>
        <time>2022-03-06T08:40:39Z</time>
      </trkpt>
      <trkpt lat="45.34496" lon="5.81848">
        <ele>960</ele>
        <time>2022-03-06T08:40:41Z</time>
      </trkpt>
      <trkpt lat="45.34495" lon="5.81851">
        <ele>960</ele>
        <time>2022-03-06T08:40:44Z</time>
      </trkpt>
      <trkpt lat="45.34495" lon="5.81851">
        <ele>961</ele>
        <time>2022-03-06T08:40:45Z</time>
      </trkpt>
      <trkpt lat="45.34493" lon="5.81854">
        <ele>962</ele>
        <time>2022-03-06T08:40:47Z</time>
      </trkpt>
      <trkpt lat="45.34493" lon="5.81857">
        <ele>962</ele>
        <time>2022-03-06T08:40:50Z</time>
      </trkpt>
      <trkpt lat="45.34493" lon="5.81857">
        <ele>962</ele>
        <time>2022-03-06T08:40:51Z</time>
      </trkpt>
      <trkpt lat="45.34491" lon="5.81858">
        <ele>962</ele>
        <time>2022-03-06T08:40:52Z</time>
      </trkpt>
      <trkpt lat="45.3449" lon="5.81861">
        <ele>964</ele>
        <time>2022-03-06T08:40:55Z</time>
      </trkpt>
      <trkpt lat="45.3449" lon="5.81861">
        <ele>964</ele>
        <time>2022-03-06T08:40:57Z</time>
      </trkpt>
      <trkpt lat="45.3449" lon="5.81864">
        <ele>965</ele>
        <time>2022-03-06T08:40:58Z</time>
      </trkpt>
      <trkpt lat="45.3449" lon="5.81868">
        <ele>966</ele>
        <time>2022-03-06T08:41:01Z</time>
      </trkpt>
      <trkpt lat="45.3449" lon="5.81868">
        <ele>966</ele>
        <time>2022-03-06T08:41:03Z</time>
      </trkpt>
      <trkpt lat="45.34489" lon="5.8187">
        <ele>967</ele>
        <time>2022-03-06T08:41:04Z</time>
      </trkpt>
      <trkpt lat="45.34487" lon="5.81871">
        <ele>967</ele>
        <time>2022-03-06T08:41:06Z</time>
      </trkpt>
      <trkpt lat="45.34485" lon="5.81873">
        <ele>967</ele>
        <time>2022-03-06T08:41:09Z</time>
      </trkpt>
      <trkpt lat="45.34485" lon="5.81873">
        <ele>967</ele>
        <time>2022-03-06T08:41:10Z</time>
      </trkpt>
      <trkpt lat="45.34483" lon="5.81875">
        <ele>967</ele>
        <time>2022-03-06T08:41:12Z</time>
      </trkpt>
      <trkpt lat="45.34482" lon="5.81877">
        <ele>969</ele>
        <time>2022-03-06T08:41:15Z</time>
      </trkpt>
      <trkpt lat="45.34482" lon="5.81877">
        <ele>969</ele>
        <time>2022-03-06T08:41:16Z</time>
      </trkpt>
      <trkpt lat="45.3448" lon="5.81879">
        <ele>969</ele>
        <time>2022-03-06T08:41:18Z</time>
      </trkpt>
      <trkpt lat="45.34478" lon="5.8188">
        <ele>970</ele>
        <time>2022-03-06T08:41:20Z</time>
      </trkpt>
      <trkpt lat="45.34478" lon="5.8188">
        <ele>970</ele>
        <time>2022-03-06T08:41:22Z</time>
      </trkpt>
      <trkpt lat="45.34476" lon="5.81881">
        <ele>970</ele>
        <time>2022-03-06T08:41:23Z</time>
      </trkpt>
      <trkpt lat="45.34474" lon="5.81882">
        <ele>971</ele>
        <time>2022-03-06T08:41:26Z</time>
      </trkpt>
      <trkpt lat="45.34474" lon="5.81882">
        <ele>971</ele>
        <time>2022-03-06T08:41:28Z</time>
      </trkpt>
      <trkpt lat="45.34472" lon="5.81884">
        <ele>971</ele>
        <time>2022-03-06T08:41:29Z</time>
      </trkpt>
      <trkpt lat="45.34471" lon="5.81886">
        <ele>972</ele>
        <time>2022-03-06T08:41:32Z</time>
      </trkpt>
      <trkpt lat="45.34471" lon="5.81886">
        <ele>973</ele>
        <time>2022-03-06T08:41:34Z</time>
      </trkpt>
      <trkpt lat="45.3447" lon="5.81889">
        <ele>973</ele>
        <time>2022-03-06T08:41:35Z</time>
      </trkpt>
      <trkpt lat="45.3447" lon="5.81892">
        <ele>974</ele>
        <time>2022-03-06T08:41:37Z</time>
      </trkpt>
      <trkpt lat="45.3447" lon="5.81894">
        <ele>974</ele>
        <time>2022-03-06T08:41:40Z</time>
      </trkpt>
      <trkpt lat="45.3447" lon="5.81894">
        <ele>975</ele>
        <time>2022-03-06T08:41:41Z</time>
      </trkpt>
      <trkpt lat="45.34468" lon="5.81896">
        <ele>975</ele>
        <time>2022-03-06T08:41:43Z</time>
      </trkpt>
      <trkpt lat="45.34466" lon="5.81897">
        <ele>976</ele>
        <time>2022-03-06T08:41:46Z</time>
      </trkpt>
      <trkpt lat="45.34466" lon="5.81897">
        <ele>976</ele>
        <time>2022-03-06T08:41:47Z</time>
      </trkpt>
      <trkpt lat="45.34464" lon="5.81897">
        <ele>976</ele>
        <time>2022-03-06T08:41:49Z</time>
      </trkpt>
      <trkpt lat="45.34462" lon="5.81896">
        <ele>977</ele>
        <time>2022-03-06T08:41:52Z</time>
      </trkpt>
      <trkpt lat="45.34462" lon="5.81896">
        <ele>977</ele>
        <time>2022-03-06T08:41:53Z</time>
      </trkpt>
      <trkpt lat="45.34459" lon="5.81896">
        <ele>978</ele>
        <time>2022-03-06T08:41:55Z</time>
      </trkpt>
      <trkpt lat="45.34457" lon="5.81897">
        <ele>978</ele>
        <time>2022-03-06T08:41:58Z</time>
      </trkpt>
      <trkpt lat="45.34457" lon="5.81897">
        <ele>979</ele>
        <time>2022-03-06T08:41:59Z</time>
      </trkpt>
      <trkpt lat="45.34455" lon="5.81897">
        <ele>979</ele>
        <time>2022-03-06T08:42:01Z</time>
      </trkpt>
      <trkpt lat="45.34453" lon="5.81897">
        <ele>980</ele>
        <time>2022-03-06T08:42:04Z</time>
      </trkpt>
      <trkpt lat="45.34453" lon="5.81897">
        <ele>980</ele>
        <time>2022-03-06T08:42:05Z</time>
      </trkpt>
      <trkpt lat="45.34451" lon="5.81899">
        <ele>981</ele>
        <time>2022-03-06T08:42:09Z</time>
      </trkpt>
      <trkpt lat="45.34451" lon="5.81899">
        <ele>981</ele>
        <time>2022-03-06T08:42:10Z</time>
      </trkpt>
      <trkpt lat="45.34451" lon="5.81902">
        <ele>982</ele>
        <time>2022-03-06T08:42:12Z</time>
      </trkpt>
      <trkpt lat="45.3445" lon="5.81905">
        <ele>982</ele>
        <time>2022-03-06T08:42:15Z</time>
      </trkpt>
      <trkpt lat="45.3445" lon="5.81905">
        <ele>982</ele>
        <time>2022-03-06T08:42:16Z</time>
      </trkpt>
      <trkpt lat="45.34448" lon="5.81906">
        <ele>983</ele>
        <time>2022-03-06T08:42:18Z</time>
      </trkpt>
      <trkpt lat="45.34446" lon="5.81906">
        <ele>984</ele>
        <time>2022-03-06T08:42:21Z</time>
      </trkpt>
      <trkpt lat="45.34446" lon="5.81906">
        <ele>984</ele>
        <time>2022-03-06T08:42:22Z</time>
      </trkpt>
      <trkpt lat="45.34443" lon="5.81906">
        <ele>984</ele>
        <time>2022-03-06T08:42:24Z</time>
      </trkpt>
      <trkpt lat="45.34441" lon="5.81907">
        <ele>985</ele>
        <time>2022-03-06T08:42:27Z</time>
      </trkpt>
      <trkpt lat="45.34441" lon="5.81907">
        <ele>985</ele>
        <time>2022-03-06T08:42:28Z</time>
      </trkpt>
      <trkpt lat="45.34439" lon="5.81907">
        <ele>986</ele>
        <time>2022-03-06T08:42:30Z</time>
      </trkpt>
      <trkpt lat="45.34437" lon="5.81907">
        <ele>986</ele>
        <time>2022-03-06T08:42:33Z</time>
      </trkpt>
      <trkpt lat="45.34437" lon="5.81907">
        <ele>986</ele>
        <time>2022-03-06T08:42:34Z</time>
      </trkpt>
      <trkpt lat="45.34437" lon="5.81907">
        <ele>987</ele>
        <time>2022-03-06T08:42:38Z</time>
      </trkpt>
      <trkpt lat="45.34437" lon="5.81907">
        <ele>987</ele>
        <time>2022-03-06T08:42:42Z</time>
      </trkpt>
      <trkpt lat="45.34436" lon="5.8191">
        <ele>987</ele>
        <time>2022-03-06T08:42:43Z</time>
      </trkpt>
      <trkpt lat="45.34437" lon="5.81912">
        <ele>988</ele>
        <time>2022-03-06T08:42:45Z</time>
      </trkpt>
      <trkpt lat="45.34438" lon="5.81915">
        <ele>989</ele>
        <time>2022-03-06T08:42:48Z</time>
      </trkpt>
      <trkpt lat="45.34438" lon="5.81915">
        <ele>989</ele>
        <time>2022-03-06T08:42:49Z</time>
      </trkpt>
      <trkpt lat="45.34439" lon="5.81918">
        <ele>989</ele>
        <time>2022-03-06T08:42:51Z</time>
      </trkpt>
      <trkpt lat="45.34437" lon="5.8192">
        <ele>989</ele>
        <time>2022-03-06T08:42:54Z</time>
      </trkpt>
      <trkpt lat="45.34437" lon="5.8192">
        <ele>990</ele>
        <time>2022-03-06T08:42:55Z</time>
      </trkpt>
      <trkpt lat="45.34436" lon="5.81921">
        <ele>990</ele>
        <time>2022-03-06T08:42:56Z</time>
      </trkpt>
      <trkpt lat="45.34433" lon="5.81921">
        <ele>991</ele>
        <time>2022-03-06T08:42:59Z</time>
      </trkpt>
      <trkpt lat="45.34433" lon="5.81921">
        <ele>991</ele>
        <time>2022-03-06T08:43:01Z</time>
      </trkpt>
      <trkpt lat="45.34432" lon="5.81921">
        <ele>991</ele>
        <time>2022-03-06T08:43:03Z</time>
      </trkpt>
      <trkpt lat="45.34429" lon="5.81921">
        <ele>992</ele>
        <time>2022-03-06T08:43:06Z</time>
      </trkpt>
      <trkpt lat="45.34429" lon="5.81921">
        <ele>992</ele>
        <time>2022-03-06T08:43:07Z</time>
      </trkpt>
      <trkpt lat="45.34427" lon="5.81921">
        <ele>992</ele>
        <time>2022-03-06T08:43:09Z</time>
      </trkpt>
      <trkpt lat="45.34427" lon="5.81921">
        <ele>993</ele>
        <time>2022-03-06T08:43:12Z</time>
      </trkpt>
      <trkpt lat="45.34425" lon="5.81921">
        <ele>993</ele>
        <time>2022-03-06T08:43:13Z</time>
      </trkpt>
      <trkpt lat="45.34425" lon="5.81924">
        <ele>994</ele>
        <time>2022-03-06T08:43:17Z</time>
      </trkpt>
      <trkpt lat="45.34426" lon="5.81927">
        <ele>994</ele>
        <time>2022-03-06T08:43:18Z</time>
      </trkpt>
      <trkpt lat="45.34426" lon="5.81931">
        <ele>995</ele>
        <time>2022-03-06T08:43:22Z</time>
      </trkpt>
      <trkpt lat="45.34426" lon="5.81931">
        <ele>995</ele>
        <time>2022-03-06T08:43:23Z</time>
      </trkpt>
      <trkpt lat="45.34428" lon="5.81934">
        <ele>996</ele>
        <time>2022-03-06T08:43:25Z</time>
      </trkpt>
      <trkpt lat="45.34429" lon="5.81937">
        <ele>996</ele>
        <time>2022-03-06T08:43:28Z</time>
      </trkpt>
      <trkpt lat="45.34429" lon="5.81937">
        <ele>996</ele>
        <time>2022-03-06T08:43:29Z</time>
      </trkpt>
      <trkpt lat="45.3443" lon="5.8194">
        <ele>996</ele>
        <time>2022-03-06T08:43:31Z</time>
      </trkpt>
      <trkpt lat="45.3443" lon="5.8194">
        <ele>996</ele>
        <time>2022-03-06T08:43:34Z</time>
      </trkpt>
      <trkpt lat="45.34431" lon="5.81943">
        <ele>996</ele>
        <time>2022-03-06T08:43:35Z</time>
      </trkpt>
      <trkpt lat="45.34432" lon="5.81946">
        <ele>997</ele>
        <time>2022-03-06T08:43:37Z</time>
      </trkpt>
      <trkpt lat="45.34432" lon="5.81946">
        <ele>998</ele>
        <time>2022-03-06T08:43:40Z</time>
      </trkpt>
      <trkpt lat="45.34433" lon="5.81949">
        <ele>998</ele>
        <time>2022-03-06T08:43:41Z</time>
      </trkpt>
      <trkpt lat="45.34433" lon="5.81953">
        <ele>999</ele>
        <time>2022-03-06T08:43:44Z</time>
      </trkpt>
      <trkpt lat="45.34433" lon="5.81953">
        <ele>999</ele>
        <time>2022-03-06T08:43:46Z</time>
      </trkpt>
      <trkpt lat="45.34434" lon="5.81957">
        <ele>1000</ele>
        <time>2022-03-06T08:43:47Z</time>
      </trkpt>
      <trkpt lat="45.34432" lon="5.81959">
        <ele>1000</ele>
        <time>2022-03-06T08:43:50Z</time>
      </trkpt>
      <trkpt lat="45.3443" lon="5.8196">
        <ele>1001</ele>
        <time>2022-03-06T08:43:52Z</time>
      </trkpt>
      <trkpt lat="45.34428" lon="5.81959">
        <ele>1001</ele>
        <time>2022-03-06T08:43:54Z</time>
      </trkpt>
      <trkpt lat="45.34428" lon="5.81959">
        <ele>1002</ele>
        <time>2022-03-06T08:43:56Z</time>
      </trkpt>
      <trkpt lat="45.34426" lon="5.8196">
        <ele>1003</ele>
        <time>2022-03-06T08:43:58Z</time>
      </trkpt>
      <trkpt lat="45.34426" lon="5.8196">
        <ele>1003</ele>
        <time>2022-03-06T08:44:01Z</time>
      </trkpt>
      <trkpt lat="45.34426" lon="5.8196">
        <ele>1004</ele>
        <time>2022-03-06T08:44:05Z</time>
      </trkpt>
      <trkpt lat="45.34426" lon="5.81963">
        <ele>1004</ele>
        <time>2022-03-06T08:44:06Z</time>
      </trkpt>
      <trkpt lat="45.34426" lon="5.81965">
        <ele>1004</ele>
        <time>2022-03-06T08:44:09Z</time>
      </trkpt>
      <trkpt lat="45.34426" lon="5.81965">
        <ele>1005</ele>
        <time>2022-03-06T08:44:11Z</time>
      </trkpt>
      <trkpt lat="45.34426" lon="5.81968">
        <ele>1005</ele>
        <time>2022-03-06T08:44:12Z</time>
      </trkpt>
      <trkpt lat="45.34424" lon="5.81969">
        <ele>1006</ele>
        <time>2022-03-06T08:44:15Z</time>
      </trkpt>
      <trkpt lat="45.34424" lon="5.81969">
        <ele>1006</ele>
        <time>2022-03-06T08:44:17Z</time>
      </trkpt>
      <trkpt lat="45.34422" lon="5.81969">
        <ele>1006</ele>
        <time>2022-03-06T08:44:18Z</time>
      </trkpt>
      <trkpt lat="45.34419" lon="5.81969">
        <ele>1007</ele>
        <time>2022-03-06T08:44:21Z</time>
      </trkpt>
      <trkpt lat="45.34419" lon="5.81969">
        <ele>1007</ele>
        <time>2022-03-06T08:44:23Z</time>
      </trkpt>
      <trkpt lat="45.34417" lon="5.8197">
        <ele>1008</ele>
        <time>2022-03-06T08:44:24Z</time>
      </trkpt>
      <trkpt lat="45.34414" lon="5.8197">
        <ele>1009</ele>
        <time>2022-03-06T08:44:27Z</time>
      </trkpt>
      <trkpt lat="45.34414" lon="5.8197">
        <ele>1010</ele>
        <time>2022-03-06T08:44:29Z</time>
      </trkpt>
      <trkpt lat="45.34413" lon="5.81971">
        <ele>1010</ele>
        <time>2022-03-06T08:44:30Z</time>
      </trkpt>
      <trkpt lat="45.3441" lon="5.81971">
        <ele>1010</ele>
        <time>2022-03-06T08:44:34Z</time>
      </trkpt>
      <trkpt lat="45.3441" lon="5.81971">
        <ele>1010</ele>
        <time>2022-03-06T08:44:35Z</time>
      </trkpt>
      <trkpt lat="45.34408" lon="5.8197">
        <ele>1011</ele>
        <time>2022-03-06T08:44:37Z</time>
      </trkpt>
      <trkpt lat="45.34406" lon="5.81969">
        <ele>1011</ele>
        <time>2022-03-06T08:44:39Z</time>
      </trkpt>
      <trkpt lat="45.34404" lon="5.81968">
        <ele>1011</ele>
        <time>2022-03-06T08:44:41Z</time>
      </trkpt>
      <trkpt lat="45.34401" lon="5.81967">
        <ele>1012</ele>
        <time>2022-03-06T08:44:44Z</time>
      </trkpt>
      <trkpt lat="45.34401" lon="5.81967">
        <ele>1012</ele>
        <time>2022-03-06T08:44:45Z</time>
      </trkpt>
      <trkpt lat="45.34399" lon="5.81966">
        <ele>1012</ele>
        <time>2022-03-06T08:44:46Z</time>
      </trkpt>
      <trkpt lat="45.34397" lon="5.81964">
        <ele>1012</ele>
        <time>2022-03-06T08:44:48Z</time>
      </trkpt>
      <trkpt lat="45.34395" lon="5.81963">
        <ele>1014</ele>
        <time>2022-03-06T08:44:51Z</time>
      </trkpt>
      <trkpt lat="45.34395" lon="5.81963">
        <ele>1014</ele>
        <time>2022-03-06T08:44:52Z</time>
      </trkpt>
      <trkpt lat="45.34393" lon="5.81961">
        <ele>1014</ele>
        <time>2022-03-06T08:44:53Z</time>
      </trkpt>
      <trkpt lat="45.34393" lon="5.81961">
        <ele>1014</ele>
        <time>2022-03-06T08:44:57Z</time>
      </trkpt>
      <trkpt lat="45.34391" lon="5.81961">
        <ele>1014</ele>
        <time>2022-03-06T08:44:58Z</time>
      </trkpt>
      <trkpt lat="45.34389" lon="5.81961">
        <ele>1016</ele>
        <time>2022-03-06T08:45:01Z</time>
      </trkpt>
      <trkpt lat="45.34389" lon="5.81961">
        <ele>1016</ele>
        <time>2022-03-06T08:45:03Z</time>
      </trkpt>
      <trkpt lat="45.34388" lon="5.81964">
        <ele>1016</ele>
        <time>2022-03-06T08:45:05Z</time>
      </trkpt>
      <trkpt lat="45.34387" lon="5.81967">
        <ele>1016</ele>
        <time>2022-03-06T08:45:07Z</time>
      </trkpt>
      <trkpt lat="45.34387" lon="5.81967">
        <ele>1018</ele>
        <time>2022-03-06T08:45:09Z</time>
      </trkpt>
      <trkpt lat="45.34386" lon="5.8197">
        <ele>1018</ele>
        <time>2022-03-06T08:45:10Z</time>
      </trkpt>
      <trkpt lat="45.34386" lon="5.81973">
        <ele>1019</ele>
        <time>2022-03-06T08:45:12Z</time>
      </trkpt>
      <trkpt lat="45.34386" lon="5.81973">
        <ele>1019</ele>
        <time>2022-03-06T08:45:15Z</time>
      </trkpt>
      <trkpt lat="45.34384" lon="5.81976">
        <ele>1019</ele>
        <time>2022-03-06T08:45:16Z</time>
      </trkpt>
      <trkpt lat="45.34384" lon="5.81979">
        <ele>1019</ele>
        <time>2022-03-06T08:45:19Z</time>
      </trkpt>
      <trkpt lat="45.34384" lon="5.81979">
        <ele>1020</ele>
        <time>2022-03-06T08:45:21Z</time>
      </trkpt>
      <trkpt lat="45.34382" lon="5.81982">
        <ele>1020</ele>
        <time>2022-03-06T08:45:22Z</time>
      </trkpt>
      <trkpt lat="45.3438" lon="5.81982">
        <ele>1020</ele>
        <time>2022-03-06T08:45:24Z</time>
      </trkpt>
      <trkpt lat="45.34377" lon="5.81981">
        <ele>1022</ele>
        <time>2022-03-06T08:45:26Z</time>
      </trkpt>
      <trkpt lat="45.34377" lon="5.81981">
        <ele>1022</ele>
        <time>2022-03-06T08:45:28Z</time>
      </trkpt>
      <trkpt lat="45.34375" lon="5.81981">
        <ele>1023</ele>
        <time>2022-03-06T08:45:29Z</time>
      </trkpt>
      <trkpt lat="45.34373" lon="5.81981">
        <ele>1023</ele>
        <time>2022-03-06T08:45:31Z</time>
      </trkpt>
      <trkpt lat="45.34373" lon="5.81981">
        <ele>1024</ele>
        <time>2022-03-06T08:45:34Z</time>
      </trkpt>
      <trkpt lat="45.34371" lon="5.8198">
        <ele>1024</ele>
        <time>2022-03-06T08:45:35Z</time>
      </trkpt>
      <trkpt lat="45.34369" lon="5.81979">
        <ele>1024</ele>
        <time>2022-03-06T08:45:38Z</time>
      </trkpt>
      <trkpt lat="45.34369" lon="5.81979">
        <ele>1025</ele>
        <time>2022-03-06T08:45:40Z</time>
      </trkpt>
      <trkpt lat="45.34367" lon="5.81978">
        <ele>1025</ele>
        <time>2022-03-06T08:45:41Z</time>
      </trkpt>
      <trkpt lat="45.34365" lon="5.81977">
        <ele>1027</ele>
        <time>2022-03-06T08:45:44Z</time>
      </trkpt>
      <trkpt lat="45.34365" lon="5.81977">
        <ele>1027</ele>
        <time>2022-03-06T08:45:46Z</time>
      </trkpt>
      <trkpt lat="45.34364" lon="5.81979">
        <ele>1027</ele>
        <time>2022-03-06T08:45:48Z</time>
      </trkpt>
      <trkpt lat="45.34362" lon="5.81981">
        <ele>1027</ele>
        <time>2022-03-06T08:45:50Z</time>
      </trkpt>
      <trkpt lat="45.34362" lon="5.81981">
        <ele>1028</ele>
        <time>2022-03-06T08:45:52Z</time>
      </trkpt>
      <trkpt lat="45.34361" lon="5.81985">
        <ele>1028</ele>
        <time>2022-03-06T08:45:53Z</time>
      </trkpt>
      <trkpt lat="45.34359" lon="5.81987">
        <ele>1028</ele>
        <time>2022-03-06T08:45:55Z</time>
      </trkpt>
      <trkpt lat="45.34356" lon="5.81987">
        <ele>1029</ele>
        <time>2022-03-06T08:45:58Z</time>
      </trkpt>
      <trkpt lat="45.34356" lon="5.81987">
        <ele>1029</ele>
        <time>2022-03-06T08:45:59Z</time>
      </trkpt>
      <trkpt lat="45.34354" lon="5.81986">
        <ele>1029</ele>
        <time>2022-03-06T08:46:01Z</time>
      </trkpt>
      <trkpt lat="45.34352" lon="5.81986">
        <ele>1031</ele>
        <time>2022-03-06T08:46:04Z</time>
      </trkpt>
      <trkpt lat="45.34352" lon="5.81986">
        <ele>1031</ele>
        <time>2022-03-06T08:46:05Z</time>
      </trkpt>
      <trkpt lat="45.3435" lon="5.81986">
        <ele>1031</ele>
        <time>2022-03-06T08:46:06Z</time>
      </trkpt>
      <trkpt lat="45.34348" lon="5.81985">
        <ele>1032</ele>
        <time>2022-03-06T08:46:09Z</time>
      </trkpt>
      <trkpt lat="45.34348" lon="5.81985">
        <ele>1033</ele>
        <time>2022-03-06T08:46:11Z</time>
      </trkpt>
      <trkpt lat="45.34346" lon="5.81985">
        <ele>1033</ele>
        <time>2022-03-06T08:46:12Z</time>
      </trkpt>
      <trkpt lat="45.34344" lon="5.81987">
        <ele>1033</ele>
        <time>2022-03-06T08:46:15Z</time>
      </trkpt>
      <trkpt lat="45.34344" lon="5.81987">
        <ele>1034</ele>
        <time>2022-03-06T08:46:17Z</time>
      </trkpt>
      <trkpt lat="45.34342" lon="5.81991">
        <ele>1034</ele>
        <time>2022-03-06T08:46:18Z</time>
      </trkpt>
      <trkpt lat="45.34341" lon="5.81994">
        <ele>1035</ele>
        <time>2022-03-06T08:46:21Z</time>
      </trkpt>
      <trkpt lat="45.34341" lon="5.81994">
        <ele>1036</ele>
        <time>2022-03-06T08:46:23Z</time>
      </trkpt>
      <trkpt lat="45.3434" lon="5.81997">
        <ele>1036</ele>
        <time>2022-03-06T08:46:24Z</time>
      </trkpt>
      <trkpt lat="45.34339" lon="5.82">
        <ele>1037</ele>
        <time>2022-03-06T08:46:27Z</time>
      </trkpt>
      <trkpt lat="45.34339" lon="5.82">
        <ele>1037</ele>
        <time>2022-03-06T08:46:29Z</time>
      </trkpt>
      <trkpt lat="45.34339" lon="5.82003">
        <ele>1038</ele>
        <time>2022-03-06T08:46:30Z</time>
      </trkpt>
      <trkpt lat="45.34338" lon="5.82006">
        <ele>1039</ele>
        <time>2022-03-06T08:46:32Z</time>
      </trkpt>
      <trkpt lat="45.34337" lon="5.82009">
        <ele>1040</ele>
        <time>2022-03-06T08:46:35Z</time>
      </trkpt>
      <trkpt lat="45.34337" lon="5.82009">
        <ele>1040</ele>
        <time>2022-03-06T08:46:36Z</time>
      </trkpt>
      <trkpt lat="45.34335" lon="5.8201">
        <ele>1040</ele>
        <time>2022-03-06T08:46:39Z</time>
      </trkpt>
      <trkpt lat="45.34335" lon="5.8201">
        <ele>1041</ele>
        <time>2022-03-06T08:46:41Z</time>
      </trkpt>
      <trkpt lat="45.34334" lon="5.82013">
        <ele>1042</ele>
        <time>2022-03-06T08:46:43Z</time>
      </trkpt>
      <trkpt lat="45.34333" lon="5.82016">
        <ele>1043</ele>
        <time>2022-03-06T08:46:46Z</time>
      </trkpt>
      <trkpt lat="45.34333" lon="5.82016">
        <ele>1043</ele>
        <time>2022-03-06T08:46:47Z</time>
      </trkpt>
      <trkpt lat="45.34333" lon="5.82019">
        <ele>1043</ele>
        <time>2022-03-06T08:46:49Z</time>
      </trkpt>
      <trkpt lat="45.34334" lon="5.82022">
        <ele>1043</ele>
        <time>2022-03-06T08:46:51Z</time>
      </trkpt>
      <trkpt lat="45.34334" lon="5.82022">
        <ele>1043</ele>
        <time>2022-03-06T08:46:53Z</time>
      </trkpt>
      <trkpt lat="45.34336" lon="5.82025">
        <ele>1043</ele>
        <time>2022-03-06T08:46:54Z</time>
      </trkpt>
      <trkpt lat="45.34337" lon="5.82028">
        <ele>1043</ele>
        <time>2022-03-06T08:46:57Z</time>
      </trkpt>
      <trkpt lat="45.34339" lon="5.82029">
        <ele>1043</ele>
        <time>2022-03-06T08:46:59Z</time>
      </trkpt>
      <trkpt lat="45.34341" lon="5.82032">
        <ele>1043</ele>
        <time>2022-03-06T08:47:02Z</time>
      </trkpt>
      <trkpt lat="45.34341" lon="5.82032">
        <ele>1043</ele>
        <time>2022-03-06T08:47:03Z</time>
      </trkpt>
      <trkpt lat="45.34343" lon="5.82034">
        <ele>1044</ele>
        <time>2022-03-06T08:47:05Z</time>
      </trkpt>
      <trkpt lat="45.34345" lon="5.82035">
        <ele>1044</ele>
        <time>2022-03-06T08:47:06Z</time>
      </trkpt>
      <trkpt lat="45.34347" lon="5.82036">
        <ele>1044</ele>
        <time>2022-03-06T08:47:10Z</time>
      </trkpt>
      <trkpt lat="45.34347" lon="5.82036">
        <ele>1045</ele>
        <time>2022-03-06T08:47:11Z</time>
      </trkpt>
      <trkpt lat="45.3435" lon="5.82037">
        <ele>1045</ele>
        <time>2022-03-06T08:47:13Z</time>
      </trkpt>
      <trkpt lat="45.34352" lon="5.82036">
        <ele>1045</ele>
        <time>2022-03-06T08:47:15Z</time>
      </trkpt>
      <trkpt lat="45.34354" lon="5.82035">
        <ele>1045</ele>
        <time>2022-03-06T08:47:17Z</time>
      </trkpt>
      <trkpt lat="45.34355" lon="5.82035">
        <ele>1045</ele>
        <time>2022-03-06T08:47:19Z</time>
      </trkpt>
      <trkpt lat="45.34355" lon="5.82035">
        <ele>1045</ele>
        <time>2022-03-06T08:47:21Z</time>
      </trkpt>
      <trkpt lat="45.34358" lon="5.82034">
        <ele>1045</ele>
        <time>2022-03-06T08:47:22Z</time>
      </trkpt>
      <trkpt lat="45.34361" lon="5.82033">
        <ele>1046</ele>
        <time>2022-03-06T08:47:25Z</time>
      </trkpt>
      <trkpt lat="45.34363" lon="5.82033">
        <ele>1046</ele>
        <time>2022-03-06T08:47:27Z</time>
      </trkpt>
      <trkpt lat="45.34365" lon="5.82034">
        <ele>1046</ele>
        <time>2022-03-06T08:47:30Z</time>
      </trkpt>
      <trkpt lat="45.34365" lon="5.82034">
        <ele>1046</ele>
        <time>2022-03-06T08:47:31Z</time>
      </trkpt>
      <trkpt lat="45.34367" lon="5.82035">
        <ele>1046</ele>
        <time>2022-03-06T08:47:32Z</time>
      </trkpt>
      <trkpt lat="45.34369" lon="5.82036">
        <ele>1047</ele>
        <time>2022-03-06T08:47:34Z</time>
      </trkpt>
      <trkpt lat="45.34371" lon="5.82037">
        <ele>1047</ele>
        <time>2022-03-06T08:47:36Z</time>
      </trkpt>
      <trkpt lat="45.34372" lon="5.82039">
        <ele>1047</ele>
        <time>2022-03-06T08:47:38Z</time>
      </trkpt>
      <trkpt lat="45.34374" lon="5.8204">
        <ele>1048</ele>
        <time>2022-03-06T08:47:40Z</time>
      </trkpt>
      <trkpt lat="45.34376" lon="5.82042">
        <ele>1048</ele>
        <time>2022-03-06T08:47:42Z</time>
      </trkpt>
      <trkpt lat="45.34377" lon="5.82043">
        <ele>1048</ele>
        <time>2022-03-06T08:47:44Z</time>
      </trkpt>
      <trkpt lat="45.34379" lon="5.82045">
        <ele>1048</ele>
        <time>2022-03-06T08:47:46Z</time>
      </trkpt>
      <trkpt lat="45.34381" lon="5.82047">
        <ele>1048</ele>
        <time>2022-03-06T08:47:48Z</time>
      </trkpt>
      <trkpt lat="45.34382" lon="5.82049">
        <ele>1048</ele>
        <time>2022-03-06T08:47:50Z</time>
      </trkpt>
      <trkpt lat="45.34384" lon="5.8205">
        <ele>1049</ele>
        <time>2022-03-06T08:47:52Z</time>
      </trkpt>
      <trkpt lat="45.34386" lon="5.82051">
        <ele>1049</ele>
        <time>2022-03-06T08:47:54Z</time>
      </trkpt>
      <trkpt lat="45.34388" lon="5.82052">
        <ele>1049</ele>
        <time>2022-03-06T08:47:56Z</time>
      </trkpt>
      <trkpt lat="45.3439" lon="5.82053">
        <ele>1050</ele>
        <time>2022-03-06T08:47:58Z</time>
      </trkpt>
      <trkpt lat="45.34392" lon="5.82054">
        <ele>1050</ele>
        <time>2022-03-06T08:48:00Z</time>
      </trkpt>
      <trkpt lat="45.34394" lon="5.82055">
        <ele>1051</ele>
        <time>2022-03-06T08:48:02Z</time>
      </trkpt>
      <trkpt lat="45.34396" lon="5.82057">
        <ele>1051</ele>
        <time>2022-03-06T08:48:04Z</time>
      </trkpt>
      <trkpt lat="45.34397" lon="5.82058">
        <ele>1051</ele>
        <time>2022-03-06T08:48:06Z</time>
      </trkpt>
      <trkpt lat="45.34399" lon="5.8206">
        <ele>1051</ele>
        <time>2022-03-06T08:48:08Z</time>
      </trkpt>
      <trkpt lat="45.34401" lon="5.82062">
        <ele>1051</ele>
        <time>2022-03-06T08:48:09Z</time>
      </trkpt>
      <trkpt lat="45.34403" lon="5.82063">
        <ele>1052</ele>
        <time>2022-03-06T08:48:12Z</time>
      </trkpt>
      <trkpt lat="45.34405" lon="5.82064">
        <ele>1052</ele>
        <time>2022-03-06T08:48:14Z</time>
      </trkpt>
      <trkpt lat="45.34407" lon="5.82065">
        <ele>1052</ele>
        <time>2022-03-06T08:48:16Z</time>
      </trkpt>
      <trkpt lat="45.34408" lon="5.82067">
        <ele>1052</ele>
        <time>2022-03-06T08:48:18Z</time>
      </trkpt>
      <trkpt lat="45.34409" lon="5.82069">
        <ele>1053</ele>
        <time>2022-03-06T08:48:20Z</time>
      </trkpt>
      <trkpt lat="45.34411" lon="5.82072">
        <ele>1054</ele>
        <time>2022-03-06T08:48:22Z</time>
      </trkpt>
      <trkpt lat="45.34413" lon="5.82074">
        <ele>1054</ele>
        <time>2022-03-06T08:48:24Z</time>
      </trkpt>
      <trkpt lat="45.34414" lon="5.82076">
        <ele>1054</ele>
        <time>2022-03-06T08:48:26Z</time>
      </trkpt>
      <trkpt lat="45.34416" lon="5.82078">
        <ele>1054</ele>
        <time>2022-03-06T08:48:28Z</time>
      </trkpt>
      <trkpt lat="45.34417" lon="5.82079">
        <ele>1055</ele>
        <time>2022-03-06T08:48:30Z</time>
      </trkpt>
      <trkpt lat="45.34419" lon="5.82081">
        <ele>1055</ele>
        <time>2022-03-06T08:48:32Z</time>
      </trkpt>
      <trkpt lat="45.3442" lon="5.82083">
        <ele>1055</ele>
        <time>2022-03-06T08:48:34Z</time>
      </trkpt>
      <trkpt lat="45.34422" lon="5.82085">
        <ele>1055</ele>
        <time>2022-03-06T08:48:36Z</time>
      </trkpt>
      <trkpt lat="45.34424" lon="5.82086">
        <ele>1056</ele>
        <time>2022-03-06T08:48:38Z</time>
      </trkpt>
      <trkpt lat="45.34426" lon="5.82087">
        <ele>1057</ele>
        <time>2022-03-06T08:48:40Z</time>
      </trkpt>
      <trkpt lat="45.34426" lon="5.82087">
        <ele>1057</ele>
        <time>2022-03-06T08:48:42Z</time>
      </trkpt>
      <trkpt lat="45.34428" lon="5.82089">
        <ele>1057</ele>
        <time>2022-03-06T08:48:43Z</time>
      </trkpt>
      <trkpt lat="45.34429" lon="5.82091">
        <ele>1057</ele>
        <time>2022-03-06T08:48:45Z</time>
      </trkpt>
      <trkpt lat="45.34431" lon="5.82092">
        <ele>1057</ele>
        <time>2022-03-06T08:48:47Z</time>
      </trkpt>
      <trkpt lat="45.34433" lon="5.82094">
        <ele>1058</ele>
        <time>2022-03-06T08:48:49Z</time>
      </trkpt>
      <trkpt lat="45.34434" lon="5.82095">
        <ele>1059</ele>
        <time>2022-03-06T08:48:51Z</time>
      </trkpt>
      <trkpt lat="45.34434" lon="5.82095">
        <ele>1059</ele>
        <time>2022-03-06T08:48:53Z</time>
      </trkpt>
      <trkpt lat="45.34436" lon="5.82097">
        <ele>1059</ele>
        <time>2022-03-06T08:48:54Z</time>
      </trkpt>
      <trkpt lat="45.34439" lon="5.82099">
        <ele>1059</ele>
        <time>2022-03-06T08:48:57Z</time>
      </trkpt>
      <trkpt lat="45.3444" lon="5.821">
        <ele>1059</ele>
        <time>2022-03-06T08:48:59Z</time>
      </trkpt>
      <trkpt lat="45.34443" lon="5.82102">
        <ele>1059</ele>
        <time>2022-03-06T08:49:02Z</time>
      </trkpt>
      <trkpt lat="45.34443" lon="5.82102">
        <ele>1060</ele>
        <time>2022-03-06T08:49:03Z</time>
      </trkpt>
      <trkpt lat="45.34445" lon="5.82104">
        <ele>1060</ele>
        <time>2022-03-06T08:49:04Z</time>
      </trkpt>
      <trkpt lat="45.34446" lon="5.82105">
        <ele>1060</ele>
        <time>2022-03-06T08:49:06Z</time>
      </trkpt>
      <trkpt lat="45.34448" lon="5.82106">
        <ele>1061</ele>
        <time>2022-03-06T08:49:08Z</time>
      </trkpt>
      <trkpt lat="45.3445" lon="5.82108">
        <ele>1061</ele>
        <time>2022-03-06T08:49:10Z</time>
      </trkpt>
      <trkpt lat="45.34452" lon="5.8211">
        <ele>1061</ele>
        <time>2022-03-06T08:49:13Z</time>
      </trkpt>
      <trkpt lat="45.34452" lon="5.8211">
        <ele>1061</ele>
        <time>2022-03-06T08:49:14Z</time>
      </trkpt>
      <trkpt lat="45.34454" lon="5.82112">
        <ele>1062</ele>
        <time>2022-03-06T08:49:15Z</time>
      </trkpt>
      <trkpt lat="45.34455" lon="5.82113">
        <ele>1062</ele>
        <time>2022-03-06T08:49:17Z</time>
      </trkpt>
      <trkpt lat="45.34457" lon="5.82115">
        <ele>1062</ele>
        <time>2022-03-06T08:49:19Z</time>
      </trkpt>
      <trkpt lat="45.34459" lon="5.82116">
        <ele>1062</ele>
        <time>2022-03-06T08:49:21Z</time>
      </trkpt>
      <trkpt lat="45.3446" lon="5.82118">
        <ele>1063</ele>
        <time>2022-03-06T08:49:23Z</time>
      </trkpt>
      <trkpt lat="45.34462" lon="5.8212">
        <ele>1063</ele>
        <time>2022-03-06T08:49:25Z</time>
      </trkpt>
      <trkpt lat="45.34463" lon="5.82121">
        <ele>1063</ele>
        <time>2022-03-06T08:49:27Z</time>
      </trkpt>
      <trkpt lat="45.34465" lon="5.82123">
        <ele>1064</ele>
        <time>2022-03-06T08:49:29Z</time>
      </trkpt>
      <trkpt lat="45.34467" lon="5.82124">
        <ele>1064</ele>
        <time>2022-03-06T08:49:32Z</time>
      </trkpt>
      <trkpt lat="45.34469" lon="5.82126">
        <ele>1064</ele>
        <time>2022-03-06T08:49:34Z</time>
      </trkpt>
      <trkpt lat="45.34471" lon="5.82127">
        <ele>1064</ele>
        <time>2022-03-06T08:49:36Z</time>
      </trkpt>
      <trkpt lat="45.34472" lon="5.82129">
        <ele>1065</ele>
        <time>2022-03-06T08:49:38Z</time>
      </trkpt>
      <trkpt lat="45.34474" lon="5.82131">
        <ele>1065</ele>
        <time>2022-03-06T08:49:40Z</time>
      </trkpt>
      <trkpt lat="45.34476" lon="5.82133">
        <ele>1066</ele>
        <time>2022-03-06T08:49:42Z</time>
      </trkpt>
      <trkpt lat="45.34477" lon="5.82134">
        <ele>1066</ele>
        <time>2022-03-06T08:49:44Z</time>
      </trkpt>
      <trkpt lat="45.34479" lon="5.82136">
        <ele>1066</ele>
        <time>2022-03-06T08:49:46Z</time>
      </trkpt>
      <trkpt lat="45.34481" lon="5.82137">
        <ele>1066</ele>
        <time>2022-03-06T08:49:48Z</time>
      </trkpt>
      <trkpt lat="45.34482" lon="5.82139">
        <ele>1066</ele>
        <time>2022-03-06T08:49:50Z</time>
      </trkpt>
      <trkpt lat="45.34484" lon="5.82141">
        <ele>1066</ele>
        <time>2022-03-06T08:49:53Z</time>
      </trkpt>
      <trkpt lat="45.34484" lon="5.82141">
        <ele>1066</ele>
        <time>2022-03-06T08:49:54Z</time>
      </trkpt>
      <trkpt lat="45.34484" lon="5.82141">
        <ele>1066</ele>
        <time>2022-03-06T08:49:58Z</time>
      </trkpt>
      <trkpt lat="45.34484" lon="5.82141">
        <ele>1066</ele>
        <time>2022-03-06T08:50:02Z</time>
      </trkpt>
      <trkpt lat="45.34485" lon="5.82143">
        <ele>1067</ele>
        <time>2022-03-06T08:50:03Z</time>
      </trkpt>
      <trkpt lat="45.34486" lon="5.82144">
        <ele>1067</ele>
        <time>2022-03-06T08:50:05Z</time>
      </trkpt>
      <trkpt lat="45.34489" lon="5.82146">
        <ele>1067</ele>
        <time>2022-03-06T08:50:08Z</time>
      </trkpt>
      <trkpt lat="45.3449" lon="5.82148">
        <ele>1067</ele>
        <time>2022-03-06T08:50:10Z</time>
      </trkpt>
      <trkpt lat="45.34492" lon="5.82151">
        <ele>1068</ele>
        <time>2022-03-06T08:50:12Z</time>
      </trkpt>
      <trkpt lat="45.34493" lon="5.82153">
        <ele>1068</ele>
        <time>2022-03-06T08:50:14Z</time>
      </trkpt>
      <trkpt lat="45.34495" lon="5.82155">
        <ele>1068</ele>
        <time>2022-03-06T08:50:16Z</time>
      </trkpt>
      <trkpt lat="45.34497" lon="5.82156">
        <ele>1069</ele>
        <time>2022-03-06T08:50:18Z</time>
      </trkpt>
      <trkpt lat="45.34499" lon="5.82159">
        <ele>1070</ele>
        <time>2022-03-06T08:50:20Z</time>
      </trkpt>
      <trkpt lat="45.34499" lon="5.82159">
        <ele>1070</ele>
        <time>2022-03-06T08:50:23Z</time>
      </trkpt>
      <trkpt lat="45.34499" lon="5.82163">
        <ele>1071</ele>
        <time>2022-03-06T08:50:24Z</time>
      </trkpt>
      <trkpt lat="45.34497" lon="5.82165">
        <ele>1071</ele>
        <time>2022-03-06T08:50:26Z</time>
      </trkpt>
      <trkpt lat="45.34496" lon="5.82166">
        <ele>1072</ele>
        <time>2022-03-06T08:50:29Z</time>
      </trkpt>
      <trkpt lat="45.34496" lon="5.82166">
        <ele>1073</ele>
        <time>2022-03-06T08:50:30Z</time>
      </trkpt>
      <trkpt lat="45.34493" lon="5.82168">
        <ele>1073</ele>
        <time>2022-03-06T08:50:33Z</time>
      </trkpt>
      <trkpt lat="45.34493" lon="5.82168">
        <ele>1074</ele>
        <time>2022-03-06T08:50:35Z</time>
      </trkpt>
      <trkpt lat="45.34491" lon="5.82167">
        <ele>1074</ele>
        <time>2022-03-06T08:50:36Z</time>
      </trkpt>
      <trkpt lat="45.34491" lon="5.82167">
        <ele>1074</ele>
        <time>2022-03-06T08:50:40Z</time>
      </trkpt>
      <trkpt lat="45.34491" lon="5.82167">
        <ele>1074</ele>
        <time>2022-03-06T08:50:44Z</time>
      </trkpt>
      <trkpt lat="45.34493" lon="5.82169">
        <ele>1073</ele>
        <time>2022-03-06T08:50:45Z</time>
      </trkpt>
      <trkpt lat="45.34495" lon="5.8217">
        <ele>1074</ele>
        <time>2022-03-06T08:50:47Z</time>
      </trkpt>
      <trkpt lat="45.34496" lon="5.82172">
        <ele>1074</ele>
        <time>2022-03-06T08:50:50Z</time>
      </trkpt>
      <trkpt lat="45.34496" lon="5.82172">
        <ele>1074</ele>
        <time>2022-03-06T08:50:51Z</time>
      </trkpt>
      <trkpt lat="45.34498" lon="5.82174">
        <ele>1074</ele>
        <time>2022-03-06T08:50:53Z</time>
      </trkpt>
      <trkpt lat="45.34499" lon="5.82177">
        <ele>1074</ele>
        <time>2022-03-06T08:50:56Z</time>
      </trkpt>
      <trkpt lat="45.34499" lon="5.82177">
        <ele>1074</ele>
        <time>2022-03-06T08:50:57Z</time>
      </trkpt>
      <trkpt lat="45.34498" lon="5.82179">
        <ele>1075</ele>
        <time>2022-03-06T08:50:58Z</time>
      </trkpt>
      <trkpt lat="45.34496" lon="5.82181">
        <ele>1075</ele>
        <time>2022-03-06T08:51:01Z</time>
      </trkpt>
      <trkpt lat="45.34496" lon="5.82181">
        <ele>1077</ele>
        <time>2022-03-06T08:51:03Z</time>
      </trkpt>
      <trkpt lat="45.34497" lon="5.82183">
        <ele>1077</ele>
        <time>2022-03-06T08:51:04Z</time>
      </trkpt>
      <trkpt lat="45.34499" lon="5.82186">
        <ele>1077</ele>
        <time>2022-03-06T08:51:07Z</time>
      </trkpt>
      <trkpt lat="45.34499" lon="5.82186">
        <ele>1078</ele>
        <time>2022-03-06T08:51:09Z</time>
      </trkpt>
      <trkpt lat="45.345" lon="5.8219">
        <ele>1078</ele>
        <time>2022-03-06T08:51:10Z</time>
      </trkpt>
      <trkpt lat="45.345" lon="5.82193">
        <ele>1079</ele>
        <time>2022-03-06T08:51:13Z</time>
      </trkpt>
      <trkpt lat="45.345" lon="5.82195">
        <ele>1080</ele>
        <time>2022-03-06T08:51:15Z</time>
      </trkpt>
      <trkpt lat="45.34497" lon="5.82197">
        <ele>1081</ele>
        <time>2022-03-06T08:51:18Z</time>
      </trkpt>
      <trkpt lat="45.34497" lon="5.82197">
        <ele>1081</ele>
        <time>2022-03-06T08:51:19Z</time>
      </trkpt>
      <trkpt lat="45.34495" lon="5.82197">
        <ele>1081</ele>
        <time>2022-03-06T08:51:21Z</time>
      </trkpt>
      <trkpt lat="45.34493" lon="5.82196">
        <ele>1082</ele>
        <time>2022-03-06T08:51:24Z</time>
      </trkpt>
      <trkpt lat="45.34493" lon="5.82196">
        <ele>1083</ele>
        <time>2022-03-06T08:51:25Z</time>
      </trkpt>
      <trkpt lat="45.34491" lon="5.82196">
        <ele>1083</ele>
        <time>2022-03-06T08:51:26Z</time>
      </trkpt>
      <trkpt lat="45.34489" lon="5.82196">
        <ele>1084</ele>
        <time>2022-03-06T08:51:29Z</time>
      </trkpt>
      <trkpt lat="45.34489" lon="5.82196">
        <ele>1084</ele>
        <time>2022-03-06T08:51:31Z</time>
      </trkpt>
      <trkpt lat="45.34489" lon="5.82199">
        <ele>1084</ele>
        <time>2022-03-06T08:51:35Z</time>
      </trkpt>
      <trkpt lat="45.34489" lon="5.82199">
        <ele>1084</ele>
        <time>2022-03-06T08:51:36Z</time>
      </trkpt>
      <trkpt lat="45.3449" lon="5.82202">
        <ele>1085</ele>
        <time>2022-03-06T08:51:38Z</time>
      </trkpt>
      <trkpt lat="45.34492" lon="5.82204">
        <ele>1085</ele>
        <time>2022-03-06T08:51:40Z</time>
      </trkpt>
      <trkpt lat="45.34493" lon="5.82206">
        <ele>1085</ele>
        <time>2022-03-06T08:51:42Z</time>
      </trkpt>
      <trkpt lat="45.34495" lon="5.82208">
        <ele>1085</ele>
        <time>2022-03-06T08:51:45Z</time>
      </trkpt>
      <trkpt lat="45.34495" lon="5.82208">
        <ele>1085</ele>
        <time>2022-03-06T08:51:46Z</time>
      </trkpt>
      <trkpt lat="45.34497" lon="5.82211">
        <ele>1086</ele>
        <time>2022-03-06T08:51:48Z</time>
      </trkpt>
      <trkpt lat="45.34499" lon="5.82213">
        <ele>1087</ele>
        <time>2022-03-06T08:51:51Z</time>
      </trkpt>
      <trkpt lat="45.34499" lon="5.82213">
        <ele>1087</ele>
        <time>2022-03-06T08:51:52Z</time>
      </trkpt>
      <trkpt lat="45.345" lon="5.82216">
        <ele>1087</ele>
        <time>2022-03-06T08:51:54Z</time>
      </trkpt>
      <trkpt lat="45.34502" lon="5.82218">
        <ele>1087</ele>
        <time>2022-03-06T08:51:57Z</time>
      </trkpt>
      <trkpt lat="45.34502" lon="5.82218">
        <ele>1087</ele>
        <time>2022-03-06T08:51:58Z</time>
      </trkpt>
      <trkpt lat="45.34504" lon="5.8222">
        <ele>1088</ele>
        <time>2022-03-06T08:52:00Z</time>
      </trkpt>
      <trkpt lat="45.34506" lon="5.82222">
        <ele>1088</ele>
        <time>2022-03-06T08:52:03Z</time>
      </trkpt>
      <trkpt lat="45.34506" lon="5.82222">
        <ele>1088</ele>
        <time>2022-03-06T08:52:04Z</time>
      </trkpt>
      <trkpt lat="45.34508" lon="5.82224">
        <ele>1089</ele>
        <time>2022-03-06T08:52:06Z</time>
      </trkpt>
      <trkpt lat="45.3451" lon="5.82226">
        <ele>1089</ele>
        <time>2022-03-06T08:52:09Z</time>
      </trkpt>
      <trkpt lat="45.3451" lon="5.82226">
        <ele>1090</ele>
        <time>2022-03-06T08:52:10Z</time>
      </trkpt>
      <trkpt lat="45.34512" lon="5.82228">
        <ele>1090</ele>
        <time>2022-03-06T08:52:11Z</time>
      </trkpt>
      <trkpt lat="45.34512" lon="5.82231">
        <ele>1090</ele>
        <time>2022-03-06T08:52:13Z</time>
      </trkpt>
      <trkpt lat="45.34512" lon="5.82234">
        <ele>1090</ele>
        <time>2022-03-06T08:52:16Z</time>
      </trkpt>
      <trkpt lat="45.34512" lon="5.82234">
        <ele>1091</ele>
        <time>2022-03-06T08:52:17Z</time>
      </trkpt>
      <trkpt lat="45.34511" lon="5.82237">
        <ele>1091</ele>
        <time>2022-03-06T08:52:18Z</time>
      </trkpt>
      <trkpt lat="45.3451" lon="5.8224">
        <ele>1091</ele>
        <time>2022-03-06T08:52:20Z</time>
      </trkpt>
      <trkpt lat="45.34509" lon="5.82243">
        <ele>1091</ele>
        <time>2022-03-06T08:52:23Z</time>
      </trkpt>
      <trkpt lat="45.34509" lon="5.82243">
        <ele>1092</ele>
        <time>2022-03-06T08:52:24Z</time>
      </trkpt>
      <trkpt lat="45.34509" lon="5.82246">
        <ele>1092</ele>
        <time>2022-03-06T08:52:25Z</time>
      </trkpt>
      <trkpt lat="45.34509" lon="5.82249">
        <ele>1092</ele>
        <time>2022-03-06T08:52:27Z</time>
      </trkpt>
      <trkpt lat="45.34509" lon="5.82252">
        <ele>1093</ele>
        <time>2022-03-06T08:52:30Z</time>
      </trkpt>
      <trkpt lat="45.34509" lon="5.82252">
        <ele>1094</ele>
        <time>2022-03-06T08:52:31Z</time>
      </trkpt>
      <trkpt lat="45.34509" lon="5.82256">
        <ele>1094</ele>
        <time>2022-03-06T08:52:33Z</time>
      </trkpt>
      <trkpt lat="45.34508" lon="5.82259">
        <ele>1095</ele>
        <time>2022-03-06T08:52:36Z</time>
      </trkpt>
      <trkpt lat="45.34508" lon="5.82259">
        <ele>1095</ele>
        <time>2022-03-06T08:52:37Z</time>
      </trkpt>
      <trkpt lat="45.34507" lon="5.82262">
        <ele>1095</ele>
        <time>2022-03-06T08:52:39Z</time>
      </trkpt>
      <trkpt lat="45.34506" lon="5.82266">
        <ele>1096</ele>
        <time>2022-03-06T08:52:42Z</time>
      </trkpt>
      <trkpt lat="45.34506" lon="5.82266">
        <ele>1096</ele>
        <time>2022-03-06T08:52:43Z</time>
      </trkpt>
      <trkpt lat="45.34506" lon="5.82269">
        <ele>1096</ele>
        <time>2022-03-06T08:52:44Z</time>
      </trkpt>
      <trkpt lat="45.34505" lon="5.82271">
        <ele>1097</ele>
        <time>2022-03-06T08:52:46Z</time>
      </trkpt>
      <trkpt lat="45.34505" lon="5.82275">
        <ele>1097</ele>
        <time>2022-03-06T08:52:49Z</time>
      </trkpt>
      <trkpt lat="45.34505" lon="5.82275">
        <ele>1097</ele>
        <time>2022-03-06T08:52:50Z</time>
      </trkpt>
      <trkpt lat="45.34505" lon="5.82278">
        <ele>1097</ele>
        <time>2022-03-06T08:52:51Z</time>
      </trkpt>
      <trkpt lat="45.34504" lon="5.8228">
        <ele>1097</ele>
        <time>2022-03-06T08:52:53Z</time>
      </trkpt>
      <trkpt lat="45.34504" lon="5.82284">
        <ele>1099</ele>
        <time>2022-03-06T08:52:56Z</time>
      </trkpt>
      <trkpt lat="45.34504" lon="5.82284">
        <ele>1099</ele>
        <time>2022-03-06T08:52:57Z</time>
      </trkpt>
      <trkpt lat="45.34504" lon="5.82288">
        <ele>1099</ele>
        <time>2022-03-06T08:52:59Z</time>
      </trkpt>
      <trkpt lat="45.34504" lon="5.82291">
        <ele>1099</ele>
        <time>2022-03-06T08:53:01Z</time>
      </trkpt>
      <trkpt lat="45.34504" lon="5.82291">
        <ele>1100</ele>
        <time>2022-03-06T08:53:03Z</time>
      </trkpt>
      <trkpt lat="45.34503" lon="5.82294">
        <ele>1100</ele>
        <time>2022-03-06T08:53:04Z</time>
      </trkpt>
      <trkpt lat="45.34502" lon="5.82297">
        <ele>1101</ele>
        <time>2022-03-06T08:53:07Z</time>
      </trkpt>
      <trkpt lat="45.34502" lon="5.82297">
        <ele>1101</ele>
        <time>2022-03-06T08:53:09Z</time>
      </trkpt>
      <trkpt lat="45.34502" lon="5.823">
        <ele>1101</ele>
        <time>2022-03-06T08:53:10Z</time>
      </trkpt>
      <trkpt lat="45.34501" lon="5.82303">
        <ele>1102</ele>
        <time>2022-03-06T08:53:13Z</time>
      </trkpt>
      <trkpt lat="45.34501" lon="5.82303">
        <ele>1102</ele>
        <time>2022-03-06T08:53:15Z</time>
      </trkpt>
      <trkpt lat="45.34501" lon="5.82306">
        <ele>1103</ele>
        <time>2022-03-06T08:53:16Z</time>
      </trkpt>
      <trkpt lat="45.34502" lon="5.82308">
        <ele>1104</ele>
        <time>2022-03-06T08:53:19Z</time>
      </trkpt>
      <trkpt lat="45.34502" lon="5.82308">
        <ele>1104</ele>
        <time>2022-03-06T08:53:21Z</time>
      </trkpt>
      <trkpt lat="45.34505" lon="5.8231">
        <ele>1104</ele>
        <time>2022-03-06T08:53:22Z</time>
      </trkpt>
      <trkpt lat="45.34506" lon="5.82311">
        <ele>1104</ele>
        <time>2022-03-06T08:53:24Z</time>
      </trkpt>
      <trkpt lat="45.34508" lon="5.82314">
        <ele>1104</ele>
        <time>2022-03-06T08:53:27Z</time>
      </trkpt>
      <trkpt lat="45.34508" lon="5.82314">
        <ele>1104</ele>
        <time>2022-03-06T08:53:28Z</time>
      </trkpt>
      <trkpt lat="45.3451" lon="5.82315">
        <ele>1104</ele>
        <time>2022-03-06T08:53:30Z</time>
      </trkpt>
      <trkpt lat="45.34512" lon="5.82317">
        <ele>1104</ele>
        <time>2022-03-06T08:53:32Z</time>
      </trkpt>
      <trkpt lat="45.34512" lon="5.82317">
        <ele>1104</ele>
        <time>2022-03-06T08:53:34Z</time>
      </trkpt>
      <trkpt lat="45.34513" lon="5.82319">
        <ele>1104</ele>
        <time>2022-03-06T08:53:35Z</time>
      </trkpt>
      <trkpt lat="45.34514" lon="5.82323">
        <ele>1106</ele>
        <time>2022-03-06T08:53:38Z</time>
      </trkpt>
      <trkpt lat="45.34514" lon="5.82323">
        <ele>1106</ele>
        <time>2022-03-06T08:53:40Z</time>
      </trkpt>
      <trkpt lat="45.34514" lon="5.82326">
        <ele>1106</ele>
        <time>2022-03-06T08:53:41Z</time>
      </trkpt>
      <trkpt lat="45.34514" lon="5.82329">
        <ele>1106</ele>
        <time>2022-03-06T08:53:44Z</time>
      </trkpt>
      <trkpt lat="45.34515" lon="5.82333">
        <ele>1107</ele>
        <time>2022-03-06T08:53:46Z</time>
      </trkpt>
      <trkpt lat="45.34515" lon="5.82333">
        <ele>1107</ele>
        <time>2022-03-06T08:53:49Z</time>
      </trkpt>
      <trkpt lat="45.34515" lon="5.82337">
        <ele>1107</ele>
        <time>2022-03-06T08:53:50Z</time>
      </trkpt>
      <trkpt lat="45.34516" lon="5.82339">
        <ele>1107</ele>
        <time>2022-03-06T08:53:53Z</time>
      </trkpt>
      <trkpt lat="45.34517" lon="5.82342">
        <ele>1107</ele>
        <time>2022-03-06T08:53:55Z</time>
      </trkpt>
      <trkpt lat="45.34517" lon="5.82342">
        <ele>1109</ele>
        <time>2022-03-06T08:53:58Z</time>
      </trkpt>
      <trkpt lat="45.34518" lon="5.82345">
        <ele>1109</ele>
        <time>2022-03-06T08:53:59Z</time>
      </trkpt>
      <trkpt lat="45.34518" lon="5.82348">
        <ele>1109</ele>
        <time>2022-03-06T08:54:02Z</time>
      </trkpt>
      <trkpt lat="45.34518" lon="5.82348">
        <ele>1110</ele>
        <time>2022-03-06T08:54:04Z</time>
      </trkpt>
      <trkpt lat="45.34519" lon="5.82351">
        <ele>1110</ele>
        <time>2022-03-06T08:54:05Z</time>
      </trkpt>
      <trkpt lat="45.3452" lon="5.82353">
        <ele>1111</ele>
        <time>2022-03-06T08:54:08Z</time>
      </trkpt>
      <trkpt lat="45.3452" lon="5.82353">
        <ele>1111</ele>
        <time>2022-03-06T08:54:10Z</time>
      </trkpt>
      <trkpt lat="45.34521" lon="5.82356">
        <ele>1111</ele>
        <time>2022-03-06T08:54:11Z</time>
      </trkpt>
      <trkpt lat="45.34523" lon="5.82357">
        <ele>1111</ele>
        <time>2022-03-06T08:54:14Z</time>
      </trkpt>
      <trkpt lat="45.34523" lon="5.82357">
        <ele>1111</ele>
        <time>2022-03-06T08:54:16Z</time>
      </trkpt>
      <trkpt lat="45.34524" lon="5.8236">
        <ele>1112</ele>
        <time>2022-03-06T08:54:17Z</time>
      </trkpt>
      <trkpt lat="45.34526" lon="5.82362">
        <ele>1112</ele>
        <time>2022-03-06T08:54:20Z</time>
      </trkpt>
      <trkpt lat="45.34526" lon="5.82362">
        <ele>1112</ele>
        <time>2022-03-06T08:54:22Z</time>
      </trkpt>
      <trkpt lat="45.34528" lon="5.82363">
        <ele>1112</ele>
        <time>2022-03-06T08:54:24Z</time>
      </trkpt>
      <trkpt lat="45.3453" lon="5.82364">
        <ele>1113</ele>
        <time>2022-03-06T08:54:27Z</time>
      </trkpt>
      <trkpt lat="45.3453" lon="5.82364">
        <ele>1113</ele>
        <time>2022-03-06T08:54:28Z</time>
      </trkpt>
      <trkpt lat="45.34532" lon="5.82365">
        <ele>1113</ele>
        <time>2022-03-06T08:54:30Z</time>
      </trkpt>
      <trkpt lat="45.34532" lon="5.82365">
        <ele>1114</ele>
        <time>2022-03-06T08:54:33Z</time>
      </trkpt>
      <trkpt lat="45.34534" lon="5.82366">
        <ele>1114</ele>
        <time>2022-03-06T08:54:34Z</time>
      </trkpt>
      <trkpt lat="45.34536" lon="5.82367">
        <ele>1114</ele>
        <time>2022-03-06T08:54:37Z</time>
      </trkpt>
      <trkpt lat="45.34536" lon="5.82367">
        <ele>1114</ele>
        <time>2022-03-06T08:54:39Z</time>
      </trkpt>
      <trkpt lat="45.34538" lon="5.82368">
        <ele>1114</ele>
        <time>2022-03-06T08:54:40Z</time>
      </trkpt>
      <trkpt lat="45.34539" lon="5.82371">
        <ele>1116</ele>
        <time>2022-03-06T08:54:43Z</time>
      </trkpt>
      <trkpt lat="45.34539" lon="5.82371">
        <ele>1116</ele>
        <time>2022-03-06T08:54:45Z</time>
      </trkpt>
      <trkpt lat="45.34539" lon="5.82374">
        <ele>1116</ele>
        <time>2022-03-06T08:54:46Z</time>
      </trkpt>
      <trkpt lat="45.34539" lon="5.82374">
        <ele>1117</ele>
        <time>2022-03-06T08:54:50Z</time>
      </trkpt>
      <trkpt lat="45.34537" lon="5.82375">
        <ele>1117</ele>
        <time>2022-03-06T08:54:51Z</time>
      </trkpt>
      <trkpt lat="45.34536" lon="5.82377">
        <ele>1117</ele>
        <time>2022-03-06T08:54:55Z</time>
      </trkpt>
      <trkpt lat="45.34536" lon="5.82377">
        <ele>1117</ele>
        <time>2022-03-06T08:54:56Z</time>
      </trkpt>
      <trkpt lat="45.34535" lon="5.82379">
        <ele>1118</ele>
        <time>2022-03-06T08:54:59Z</time>
      </trkpt>
      <trkpt lat="45.34535" lon="5.82379">
        <ele>1119</ele>
        <time>2022-03-06T08:55:01Z</time>
      </trkpt>
      <trkpt lat="45.34534" lon="5.82382">
        <ele>1119</ele>
        <time>2022-03-06T08:55:02Z</time>
      </trkpt>
      <trkpt lat="45.34534" lon="5.82386">
        <ele>1120</ele>
        <time>2022-03-06T08:55:06Z</time>
      </trkpt>
      <trkpt lat="45.34534" lon="5.82386">
        <ele>1121</ele>
        <time>2022-03-06T08:55:07Z</time>
      </trkpt>
      <trkpt lat="45.34534" lon="5.82389">
        <ele>1121</ele>
        <time>2022-03-06T08:55:09Z</time>
      </trkpt>
      <trkpt lat="45.34532" lon="5.82391">
        <ele>1121</ele>
        <time>2022-03-06T08:55:12Z</time>
      </trkpt>
      <trkpt lat="45.34532" lon="5.82391">
        <ele>1121</ele>
        <time>2022-03-06T08:55:13Z</time>
      </trkpt>
      <trkpt lat="45.3453" lon="5.82393">
        <ele>1121</ele>
        <time>2022-03-06T08:55:15Z</time>
      </trkpt>
      <trkpt lat="45.34528" lon="5.82395">
        <ele>1122</ele>
        <time>2022-03-06T08:55:18Z</time>
      </trkpt>
      <trkpt lat="45.34528" lon="5.82395">
        <ele>1122</ele>
        <time>2022-03-06T08:55:19Z</time>
      </trkpt>
      <trkpt lat="45.34527" lon="5.82397">
        <ele>1123</ele>
        <time>2022-03-06T08:55:21Z</time>
      </trkpt>
      <trkpt lat="45.34527" lon="5.82397">
        <ele>1124</ele>
        <time>2022-03-06T08:55:24Z</time>
      </trkpt>
      <trkpt lat="45.34526" lon="5.82399">
        <ele>1124</ele>
        <time>2022-03-06T08:55:27Z</time>
      </trkpt>
      <trkpt lat="45.34526" lon="5.82399">
        <ele>1124</ele>
        <time>2022-03-06T08:55:29Z</time>
      </trkpt>
      <trkpt lat="45.34524" lon="5.82401">
        <ele>1126</ele>
        <time>2022-03-06T08:55:33Z</time>
      </trkpt>
      <trkpt lat="45.34524" lon="5.82401">
        <ele>1126</ele>
        <time>2022-03-06T08:55:34Z</time>
      </trkpt>
      <trkpt lat="45.34522" lon="5.82401">
        <ele>1126</ele>
        <time>2022-03-06T08:55:35Z</time>
      </trkpt>
      <trkpt lat="45.3452" lon="5.82402">
        <ele>1127</ele>
        <time>2022-03-06T08:55:39Z</time>
      </trkpt>
      <trkpt lat="45.3452" lon="5.82402">
        <ele>1127</ele>
        <time>2022-03-06T08:55:40Z</time>
      </trkpt>
      <trkpt lat="45.3452" lon="5.82402">
        <ele>1128</ele>
        <time>2022-03-06T08:55:44Z</time>
      </trkpt>
      <trkpt lat="45.34518" lon="5.82403">
        <ele>1128</ele>
        <time>2022-03-06T08:55:46Z</time>
      </trkpt>
      <trkpt lat="45.34516" lon="5.82402">
        <ele>1129</ele>
        <time>2022-03-06T08:55:49Z</time>
      </trkpt>
      <trkpt lat="45.34516" lon="5.82402">
        <ele>1129</ele>
        <time>2022-03-06T08:55:50Z</time>
      </trkpt>
      <trkpt lat="45.34514" lon="5.82402">
        <ele>1129</ele>
        <time>2022-03-06T08:55:52Z</time>
      </trkpt>
      <trkpt lat="45.34514" lon="5.82402">
        <ele>1130</ele>
        <time>2022-03-06T08:55:55Z</time>
      </trkpt>
      <trkpt lat="45.34512" lon="5.82402">
        <ele>1130</ele>
        <time>2022-03-06T08:55:56Z</time>
      </trkpt>
      <trkpt lat="45.34512" lon="5.82402">
        <ele>1131</ele>
        <time>2022-03-06T08:56:00Z</time>
      </trkpt>
      <trkpt lat="45.3451" lon="5.82403">
        <ele>1131</ele>
        <time>2022-03-06T08:56:01Z</time>
      </trkpt>
      <trkpt lat="45.3451" lon="5.82403">
        <ele>1132</ele>
        <time>2022-03-06T08:56:05Z</time>
      </trkpt>
      <trkpt lat="45.3451" lon="5.82403">
        <ele>1131</ele>
        <time>2022-03-06T08:56:09Z</time>
      </trkpt>
      <trkpt lat="45.3451" lon="5.82403">
        <ele>1131</ele>
        <time>2022-03-06T08:56:13Z</time>
      </trkpt>
      <trkpt lat="45.34511" lon="5.82405">
        <ele>1132</ele>
        <time>2022-03-06T08:56:16Z</time>
      </trkpt>
      <trkpt lat="45.34512" lon="5.82409">
        <ele>1132</ele>
        <time>2022-03-06T08:56:18Z</time>
      </trkpt>
      <trkpt lat="45.34512" lon="5.82409">
        <ele>1132</ele>
        <time>2022-03-06T08:56:21Z</time>
      </trkpt>
      <trkpt lat="45.34513" lon="5.82411">
        <ele>1132</ele>
        <time>2022-03-06T08:56:22Z</time>
      </trkpt>
      <trkpt lat="45.34513" lon="5.82411">
        <ele>1133</ele>
        <time>2022-03-06T08:56:26Z</time>
      </trkpt>
      <trkpt lat="45.3451" lon="5.8241">
        <ele>1134</ele>
        <time>2022-03-06T08:56:29Z</time>
      </trkpt>
      <trkpt lat="45.3451" lon="5.8241">
        <ele>1134</ele>
        <time>2022-03-06T08:56:31Z</time>
      </trkpt>
      <trkpt lat="45.34508" lon="5.8241">
        <ele>1134</ele>
        <time>2022-03-06T08:56:33Z</time>
      </trkpt>
      <trkpt lat="45.34508" lon="5.8241">
        <ele>1135</ele>
        <time>2022-03-06T08:56:36Z</time>
      </trkpt>
      <trkpt lat="45.34506" lon="5.82411">
        <ele>1135</ele>
        <time>2022-03-06T08:56:37Z</time>
      </trkpt>
      <trkpt lat="45.34504" lon="5.82411">
        <ele>1136</ele>
        <time>2022-03-06T08:56:40Z</time>
      </trkpt>
      <trkpt lat="45.34504" lon="5.82411">
        <ele>1136</ele>
        <time>2022-03-06T08:56:42Z</time>
      </trkpt>
      <trkpt lat="45.34504" lon="5.82411">
        <ele>1135</ele>
        <time>2022-03-06T08:56:46Z</time>
      </trkpt>
      <trkpt lat="45.34506" lon="5.82414">
        <ele>1136</ele>
        <time>2022-03-06T08:56:49Z</time>
      </trkpt>
      <trkpt lat="45.34506" lon="5.82414">
        <ele>1136</ele>
        <time>2022-03-06T08:56:51Z</time>
      </trkpt>
      <trkpt lat="45.34507" lon="5.82417">
        <ele>1136</ele>
        <time>2022-03-06T08:56:52Z</time>
      </trkpt>
      <trkpt lat="45.34508" lon="5.82419">
        <ele>1137</ele>
        <time>2022-03-06T08:56:56Z</time>
      </trkpt>
      <trkpt lat="45.34508" lon="5.82419">
        <ele>1137</ele>
        <time>2022-03-06T08:56:57Z</time>
      </trkpt>
      <trkpt lat="45.34508" lon="5.82419">
        <ele>1137</ele>
        <time>2022-03-06T08:57:01Z</time>
      </trkpt>
      <trkpt lat="45.34508" lon="5.82419">
        <ele>1137</ele>
        <time>2022-03-06T08:57:05Z</time>
      </trkpt>
      <trkpt lat="45.34507" lon="5.82421">
        <ele>1137</ele>
        <time>2022-03-06T08:57:08Z</time>
      </trkpt>
      <trkpt lat="45.34507" lon="5.82421">
        <ele>1137</ele>
        <time>2022-03-06T08:57:10Z</time>
      </trkpt>
      <trkpt lat="45.34505" lon="5.82423">
        <ele>1138</ele>
        <time>2022-03-06T08:57:14Z</time>
      </trkpt>
      <trkpt lat="45.34505" lon="5.82423">
        <ele>1138</ele>
        <time>2022-03-06T08:57:15Z</time>
      </trkpt>
      <trkpt lat="45.34506" lon="5.82426">
        <ele>1138</ele>
        <time>2022-03-06T08:57:19Z</time>
      </trkpt>
      <trkpt lat="45.34506" lon="5.82426">
        <ele>1138</ele>
        <time>2022-03-06T08:57:20Z</time>
      </trkpt>
      <trkpt lat="45.34506" lon="5.82429">
        <ele>1140</ele>
        <time>2022-03-06T08:57:22Z</time>
      </trkpt>
      <trkpt lat="45.34506" lon="5.82432">
        <ele>1140</ele>
        <time>2022-03-06T08:57:25Z</time>
      </trkpt>
      <trkpt lat="45.34506" lon="5.82432">
        <ele>1140</ele>
        <time>2022-03-06T08:57:26Z</time>
      </trkpt>
      <trkpt lat="45.34505" lon="5.82436">
        <ele>1141</ele>
        <time>2022-03-06T08:57:28Z</time>
      </trkpt>
      <trkpt lat="45.34505" lon="5.82439">
        <ele>1142</ele>
        <time>2022-03-06T08:57:31Z</time>
      </trkpt>
      <trkpt lat="45.34505" lon="5.82439">
        <ele>1142</ele>
        <time>2022-03-06T08:57:32Z</time>
      </trkpt>
      <trkpt lat="45.34504" lon="5.82441">
        <ele>1142</ele>
        <time>2022-03-06T08:57:34Z</time>
      </trkpt>
      <trkpt lat="45.34502" lon="5.82443">
        <ele>1143</ele>
        <time>2022-03-06T08:57:37Z</time>
      </trkpt>
      <trkpt lat="45.34502" lon="5.82443">
        <ele>1143</ele>
        <time>2022-03-06T08:57:38Z</time>
      </trkpt>
      <trkpt lat="45.34501" lon="5.82445">
        <ele>1144</ele>
        <time>2022-03-06T08:57:41Z</time>
      </trkpt>
      <trkpt lat="45.34501" lon="5.82445">
        <ele>1145</ele>
        <time>2022-03-06T08:57:43Z</time>
      </trkpt>
      <trkpt lat="45.34501" lon="5.82448">
        <ele>1145</ele>
        <time>2022-03-06T08:57:45Z</time>
      </trkpt>
      <trkpt lat="45.34501" lon="5.82448">
        <ele>1146</ele>
        <time>2022-03-06T08:57:48Z</time>
      </trkpt>
      <trkpt lat="45.34502" lon="5.82451">
        <ele>1146</ele>
        <time>2022-03-06T08:57:49Z</time>
      </trkpt>
      <trkpt lat="45.345" lon="5.82453">
        <ele>1147</ele>
        <time>2022-03-06T08:57:52Z</time>
      </trkpt>
      <trkpt lat="45.34498" lon="5.82453">
        <ele>1147</ele>
        <time>2022-03-06T08:57:53Z</time>
      </trkpt>
      <trkpt lat="45.34497" lon="5.82455">
        <ele>1148</ele>
        <time>2022-03-06T08:57:57Z</time>
      </trkpt>
      <trkpt lat="45.34497" lon="5.82455">
        <ele>1148</ele>
        <time>2022-03-06T08:57:58Z</time>
      </trkpt>
      <trkpt lat="45.34496" lon="5.82458">
        <ele>1148</ele>
        <time>2022-03-06T08:58:01Z</time>
      </trkpt>
      <trkpt lat="45.34496" lon="5.82458">
        <ele>1148</ele>
        <time>2022-03-06T08:58:03Z</time>
      </trkpt>
      <trkpt lat="45.34497" lon="5.82462">
        <ele>1149</ele>
        <time>2022-03-06T08:58:05Z</time>
      </trkpt>
      <trkpt lat="45.34497" lon="5.82462">
        <ele>1149</ele>
        <time>2022-03-06T08:58:08Z</time>
      </trkpt>
      <trkpt lat="45.34498" lon="5.82464">
        <ele>1150</ele>
        <time>2022-03-06T08:58:09Z</time>
      </trkpt>
      <trkpt lat="45.345" lon="5.82465">
        <ele>1151</ele>
        <time>2022-03-06T08:58:12Z</time>
      </trkpt>
      <trkpt lat="45.345" lon="5.82465">
        <ele>1151</ele>
        <time>2022-03-06T08:58:14Z</time>
      </trkpt>
      <trkpt lat="45.34501" lon="5.82467">
        <ele>1151</ele>
        <time>2022-03-06T08:58:17Z</time>
      </trkpt>
      <trkpt lat="45.34501" lon="5.82467">
        <ele>1152</ele>
        <time>2022-03-06T08:58:19Z</time>
      </trkpt>
      <trkpt lat="45.34503" lon="5.8247">
        <ele>1152</ele>
        <time>2022-03-06T08:58:21Z</time>
      </trkpt>
      <trkpt lat="45.34505" lon="5.82471">
        <ele>1153</ele>
        <time>2022-03-06T08:58:24Z</time>
      </trkpt>
      <trkpt lat="45.34505" lon="5.82471">
        <ele>1153</ele>
        <time>2022-03-06T08:58:25Z</time>
      </trkpt>
      <trkpt lat="45.34505" lon="5.82471">
        <ele>1153</ele>
        <time>2022-03-06T08:58:29Z</time>
      </trkpt>
      <trkpt lat="45.34503" lon="5.82472">
        <ele>1153</ele>
        <time>2022-03-06T08:58:33Z</time>
      </trkpt>
      <trkpt lat="45.34503" lon="5.82472">
        <ele>1153</ele>
        <time>2022-03-06T08:58:34Z</time>
      </trkpt>
      <trkpt lat="45.345" lon="5.82473">
        <ele>1153</ele>
        <time>2022-03-06T08:58:36Z</time>
      </trkpt>
      <trkpt lat="45.34498" lon="5.82474">
        <ele>1153</ele>
        <time>2022-03-06T08:58:39Z</time>
      </trkpt>
      <trkpt lat="45.34498" lon="5.82474">
        <ele>1153</ele>
        <time>2022-03-06T08:58:40Z</time>
      </trkpt>
      <trkpt lat="45.34496" lon="5.82474">
        <ele>1154</ele>
        <time>2022-03-06T08:58:42Z</time>
      </trkpt>
      <trkpt lat="45.34496" lon="5.82474">
        <ele>1154</ele>
        <time>2022-03-06T08:58:45Z</time>
      </trkpt>
      <trkpt lat="45.34494" lon="5.82476">
        <ele>1154</ele>
        <time>2022-03-06T08:58:46Z</time>
      </trkpt>
      <trkpt lat="45.34492" lon="5.82478">
        <ele>1155</ele>
        <time>2022-03-06T08:58:49Z</time>
      </trkpt>
      <trkpt lat="45.34492" lon="5.82478">
        <ele>1155</ele>
        <time>2022-03-06T08:58:51Z</time>
      </trkpt>
      <trkpt lat="45.34493" lon="5.82481">
        <ele>1155</ele>
        <time>2022-03-06T08:58:54Z</time>
      </trkpt>
      <trkpt lat="45.34493" lon="5.82481">
        <ele>1156</ele>
        <time>2022-03-06T08:58:56Z</time>
      </trkpt>
      <trkpt lat="45.34494" lon="5.82483">
        <ele>1157</ele>
        <time>2022-03-06T08:58:57Z</time>
      </trkpt>
      <trkpt lat="45.34496" lon="5.82482">
        <ele>1158</ele>
        <time>2022-03-06T08:59:00Z</time>
      </trkpt>
      <trkpt lat="45.34496" lon="5.82482">
        <ele>1158</ele>
        <time>2022-03-06T08:59:02Z</time>
      </trkpt>
      <trkpt lat="45.34498" lon="5.82483">
        <ele>1159</ele>
        <time>2022-03-06T08:59:04Z</time>
      </trkpt>
      <trkpt lat="45.34498" lon="5.82483">
        <ele>1159</ele>
        <time>2022-03-06T08:59:07Z</time>
      </trkpt>
      <trkpt lat="45.34498" lon="5.82483">
        <ele>1159</ele>
        <time>2022-03-06T08:59:11Z</time>
      </trkpt>
      <trkpt lat="45.34497" lon="5.82486">
        <ele>1160</ele>
        <time>2022-03-06T08:59:13Z</time>
      </trkpt>
      <trkpt lat="45.34497" lon="5.82486">
        <ele>1160</ele>
        <time>2022-03-06T08:59:16Z</time>
      </trkpt>
      <trkpt lat="45.34496" lon="5.82488">
        <ele>1160</ele>
        <time>2022-03-06T08:59:18Z</time>
      </trkpt>
      <trkpt lat="45.34496" lon="5.82488">
        <ele>1161</ele>
        <time>2022-03-06T08:59:21Z</time>
      </trkpt>
      <trkpt lat="45.34496" lon="5.82488">
        <ele>1161</ele>
        <time>2022-03-06T08:59:25Z</time>
      </trkpt>
      <trkpt lat="45.34498" lon="5.82489">
        <ele>1161</ele>
        <time>2022-03-06T08:59:26Z</time>
      </trkpt>
      <trkpt lat="45.34499" lon="5.82491">
        <ele>1161</ele>
        <time>2022-03-06T08:59:28Z</time>
      </trkpt>
      <trkpt lat="45.34499" lon="5.82491">
        <ele>1162</ele>
        <time>2022-03-06T08:59:31Z</time>
      </trkpt>
      <trkpt lat="45.34501" lon="5.82493">
        <ele>1163</ele>
        <time>2022-03-06T08:59:34Z</time>
      </trkpt>
      <trkpt lat="45.34501" lon="5.82493">
        <ele>1164</ele>
        <time>2022-03-06T08:59:36Z</time>
      </trkpt>
      <trkpt lat="45.34502" lon="5.82496">
        <ele>1164</ele>
        <time>2022-03-06T08:59:37Z</time>
      </trkpt>
      <trkpt lat="45.34503" lon="5.82499">
        <ele>1164</ele>
        <time>2022-03-06T08:59:39Z</time>
      </trkpt>
      <trkpt lat="45.34504" lon="5.82503">
        <ele>1165</ele>
        <time>2022-03-06T08:59:42Z</time>
      </trkpt>
      <trkpt lat="45.34504" lon="5.82503">
        <ele>1165</ele>
        <time>2022-03-06T08:59:43Z</time>
      </trkpt>
      <trkpt lat="45.34504" lon="5.82506">
        <ele>1166</ele>
        <time>2022-03-06T08:59:45Z</time>
      </trkpt>
      <trkpt lat="45.34504" lon="5.82506">
        <ele>1166</ele>
        <time>2022-03-06T08:59:48Z</time>
      </trkpt>
      <trkpt lat="45.34503" lon="5.82509">
        <ele>1166</ele>
        <time>2022-03-06T08:59:49Z</time>
      </trkpt>
      <trkpt lat="45.34503" lon="5.82509">
        <ele>1166</ele>
        <time>2022-03-06T08:59:53Z</time>
      </trkpt>
      <trkpt lat="45.34503" lon="5.82509">
        <ele>1166</ele>
        <time>2022-03-06T08:59:57Z</time>
      </trkpt>
      <trkpt lat="45.34505" lon="5.82511">
        <ele>1167</ele>
        <time>2022-03-06T08:59:58Z</time>
      </trkpt>
      <trkpt lat="45.34506" lon="5.82513">
        <ele>1168</ele>
        <time>2022-03-06T09:00:00Z</time>
      </trkpt>
      <trkpt lat="45.34507" lon="5.82515">
        <ele>1168</ele>
        <time>2022-03-06T09:00:03Z</time>
      </trkpt>
      <trkpt lat="45.34507" lon="5.82515">
        <ele>1168</ele>
        <time>2022-03-06T09:00:04Z</time>
      </trkpt>
      <trkpt lat="45.34507" lon="5.82518">
        <ele>1169</ele>
        <time>2022-03-06T09:00:06Z</time>
      </trkpt>
      <trkpt lat="45.34506" lon="5.8252">
        <ele>1169</ele>
        <time>2022-03-06T09:00:09Z</time>
      </trkpt>
      <trkpt lat="45.34506" lon="5.8252">
        <ele>1169</ele>
        <time>2022-03-06T09:00:10Z</time>
      </trkpt>
      <trkpt lat="45.34505" lon="5.82522">
        <ele>1170</ele>
        <time>2022-03-06T09:00:12Z</time>
      </trkpt>
      <trkpt lat="45.34505" lon="5.82522">
        <ele>1170</ele>
        <time>2022-03-06T09:00:15Z</time>
      </trkpt>
      <trkpt lat="45.34505" lon="5.82526">
        <ele>1170</ele>
        <time>2022-03-06T09:00:16Z</time>
      </trkpt>
      <trkpt lat="45.34506" lon="5.82529">
        <ele>1171</ele>
        <time>2022-03-06T09:00:18Z</time>
      </trkpt>
      <trkpt lat="45.34507" lon="5.82532">
        <ele>1172</ele>
        <time>2022-03-06T09:00:21Z</time>
      </trkpt>
      <trkpt lat="45.34507" lon="5.82532">
        <ele>1172</ele>
        <time>2022-03-06T09:00:22Z</time>
      </trkpt>
      <trkpt lat="45.34508" lon="5.82535">
        <ele>1172</ele>
        <time>2022-03-06T09:00:24Z</time>
      </trkpt>
      <trkpt lat="45.3451" lon="5.82537">
        <ele>1173</ele>
        <time>2022-03-06T09:00:27Z</time>
      </trkpt>
      <trkpt lat="45.3451" lon="5.82537">
        <ele>1173</ele>
        <time>2022-03-06T09:00:28Z</time>
      </trkpt>
      <trkpt lat="45.34511" lon="5.82539">
        <ele>1174</ele>
        <time>2022-03-06T09:00:30Z</time>
      </trkpt>
      <trkpt lat="45.34512" lon="5.82542">
        <ele>1174</ele>
        <time>2022-03-06T09:00:33Z</time>
      </trkpt>
      <trkpt lat="45.34512" lon="5.82542">
        <ele>1174</ele>
        <time>2022-03-06T09:00:34Z</time>
      </trkpt>
      <trkpt lat="45.34513" lon="5.82545">
        <ele>1175</ele>
        <time>2022-03-06T09:00:35Z</time>
      </trkpt>
      <trkpt lat="45.34514" lon="5.82547">
        <ele>1175</ele>
        <time>2022-03-06T09:00:38Z</time>
      </trkpt>
      <trkpt lat="45.34514" lon="5.82547">
        <ele>1175</ele>
        <time>2022-03-06T09:00:40Z</time>
      </trkpt>
      <trkpt lat="45.34514" lon="5.8255">
        <ele>1176</ele>
        <time>2022-03-06T09:00:41Z</time>
      </trkpt>
      <trkpt lat="45.34513" lon="5.82553">
        <ele>1176</ele>
        <time>2022-03-06T09:00:44Z</time>
      </trkpt>
      <trkpt lat="45.34513" lon="5.82553">
        <ele>1177</ele>
        <time>2022-03-06T09:00:46Z</time>
      </trkpt>
      <trkpt lat="45.34514" lon="5.82555">
        <ele>1178</ele>
        <time>2022-03-06T09:00:47Z</time>
      </trkpt>
      <trkpt lat="45.34514" lon="5.82558">
        <ele>1178</ele>
        <time>2022-03-06T09:00:50Z</time>
      </trkpt>
      <trkpt lat="45.34514" lon="5.82558">
        <ele>1179</ele>
        <time>2022-03-06T09:00:52Z</time>
      </trkpt>
      <trkpt lat="45.34516" lon="5.8256">
        <ele>1179</ele>
        <time>2022-03-06T09:00:53Z</time>
      </trkpt>
      <trkpt lat="45.34518" lon="5.82561">
        <ele>1180</ele>
        <time>2022-03-06T09:00:56Z</time>
      </trkpt>
      <trkpt lat="45.34518" lon="5.82561">
        <ele>1181</ele>
        <time>2022-03-06T09:00:58Z</time>
      </trkpt>
      <trkpt lat="45.3452" lon="5.82562">
        <ele>1181</ele>
        <time>2022-03-06T09:01:00Z</time>
      </trkpt>
      <trkpt lat="45.3452" lon="5.82565">
        <ele>1182</ele>
        <time>2022-03-06T09:01:03Z</time>
      </trkpt>
      <trkpt lat="45.3452" lon="5.82565">
        <ele>1182</ele>
        <time>2022-03-06T09:01:04Z</time>
      </trkpt>
      <trkpt lat="45.3452" lon="5.82569">
        <ele>1182</ele>
        <time>2022-03-06T09:01:07Z</time>
      </trkpt>
      <trkpt lat="45.3452" lon="5.82569">
        <ele>1183</ele>
        <time>2022-03-06T09:01:09Z</time>
      </trkpt>
      <trkpt lat="45.3452" lon="5.82572">
        <ele>1183</ele>
        <time>2022-03-06T09:01:10Z</time>
      </trkpt>
      <trkpt lat="45.34521" lon="5.82575">
        <ele>1184</ele>
        <time>2022-03-06T09:01:13Z</time>
      </trkpt>
      <trkpt lat="45.34523" lon="5.82577">
        <ele>1184</ele>
        <time>2022-03-06T09:01:15Z</time>
      </trkpt>
      <trkpt lat="45.34522" lon="5.8258">
        <ele>1184</ele>
        <time>2022-03-06T09:01:17Z</time>
      </trkpt>
      <trkpt lat="45.34522" lon="5.8258">
        <ele>1184</ele>
        <time>2022-03-06T09:01:19Z</time>
      </trkpt>
      <trkpt lat="45.34521" lon="5.82583">
        <ele>1185</ele>
        <time>2022-03-06T09:01:20Z</time>
      </trkpt>
      <trkpt lat="45.34521" lon="5.82586">
        <ele>1186</ele>
        <time>2022-03-06T09:01:23Z</time>
      </trkpt>
      <trkpt lat="45.34521" lon="5.82586">
        <ele>1186</ele>
        <time>2022-03-06T09:01:25Z</time>
      </trkpt>
      <trkpt lat="45.34522" lon="5.82589">
        <ele>1187</ele>
        <time>2022-03-06T09:01:26Z</time>
      </trkpt>
      <trkpt lat="45.34522" lon="5.82591">
        <ele>1187</ele>
        <time>2022-03-06T09:01:29Z</time>
      </trkpt>
      <trkpt lat="45.34522" lon="5.82591">
        <ele>1187</ele>
        <time>2022-03-06T09:01:31Z</time>
      </trkpt>
      <trkpt lat="45.34525" lon="5.82592">
        <ele>1188</ele>
        <time>2022-03-06T09:01:34Z</time>
      </trkpt>
      <trkpt lat="45.34525" lon="5.82592">
        <ele>1188</ele>
        <time>2022-03-06T09:01:36Z</time>
      </trkpt>
      <trkpt lat="45.34527" lon="5.82593">
        <ele>1188</ele>
        <time>2022-03-06T09:01:37Z</time>
      </trkpt>
      <trkpt lat="45.34529" lon="5.82592">
        <ele>1189</ele>
        <time>2022-03-06T09:01:41Z</time>
      </trkpt>
      <trkpt lat="45.34529" lon="5.82592">
        <ele>1189</ele>
        <time>2022-03-06T09:01:42Z</time>
      </trkpt>
      <trkpt lat="45.34531" lon="5.82594">
        <ele>1190</ele>
        <time>2022-03-06T09:01:45Z</time>
      </trkpt>
      <trkpt lat="45.34531" lon="5.82594">
        <ele>1191</ele>
        <time>2022-03-06T09:01:47Z</time>
      </trkpt>
      <trkpt lat="45.34533" lon="5.82596">
        <ele>1192</ele>
        <time>2022-03-06T09:01:48Z</time>
      </trkpt>
      <trkpt lat="45.34535" lon="5.82597">
        <ele>1192</ele>
        <time>2022-03-06T09:01:51Z</time>
      </trkpt>
      <trkpt lat="45.34535" lon="5.82597">
        <ele>1193</ele>
        <time>2022-03-06T09:01:53Z</time>
      </trkpt>
      <trkpt lat="45.34536" lon="5.826">
        <ele>1193</ele>
        <time>2022-03-06T09:01:54Z</time>
      </trkpt>
      <trkpt lat="45.34536" lon="5.82604">
        <ele>1194</ele>
        <time>2022-03-06T09:01:57Z</time>
      </trkpt>
      <trkpt lat="45.34536" lon="5.82604">
        <ele>1194</ele>
        <time>2022-03-06T09:01:59Z</time>
      </trkpt>
      <trkpt lat="45.34536" lon="5.82607">
        <ele>1194</ele>
        <time>2022-03-06T09:02:00Z</time>
      </trkpt>
      <trkpt lat="45.34536" lon="5.82611">
        <ele>1195</ele>
        <time>2022-03-06T09:02:03Z</time>
      </trkpt>
      <trkpt lat="45.34536" lon="5.82611">
        <ele>1195</ele>
        <time>2022-03-06T09:02:05Z</time>
      </trkpt>
      <trkpt lat="45.34536" lon="5.82614">
        <ele>1195</ele>
        <time>2022-03-06T09:02:06Z</time>
      </trkpt>
      <trkpt lat="45.34537" lon="5.82617">
        <ele>1196</ele>
        <time>2022-03-06T09:02:09Z</time>
      </trkpt>
      <trkpt lat="45.34537" lon="5.82617">
        <ele>1196</ele>
        <time>2022-03-06T09:02:11Z</time>
      </trkpt>
      <trkpt lat="45.34537" lon="5.8262">
        <ele>1196</ele>
        <time>2022-03-06T09:02:12Z</time>
      </trkpt>
      <trkpt lat="45.34537" lon="5.82623">
        <ele>1198</ele>
        <time>2022-03-06T09:02:15Z</time>
      </trkpt>
      <trkpt lat="45.34537" lon="5.82623">
        <ele>1198</ele>
        <time>2022-03-06T09:02:17Z</time>
      </trkpt>
      <trkpt lat="45.34538" lon="5.82626">
        <ele>1198</ele>
        <time>2022-03-06T09:02:18Z</time>
      </trkpt>
      <trkpt lat="45.34539" lon="5.8263">
        <ele>1198</ele>
        <time>2022-03-06T09:02:22Z</time>
      </trkpt>
      <trkpt lat="45.34539" lon="5.8263">
        <ele>1199</ele>
        <time>2022-03-06T09:02:23Z</time>
      </trkpt>
      <trkpt lat="45.3454" lon="5.82633">
        <ele>1200</ele>
        <time>2022-03-06T09:02:25Z</time>
      </trkpt>
      <trkpt lat="45.34541" lon="5.82637">
        <ele>1200</ele>
        <time>2022-03-06T09:02:28Z</time>
      </trkpt>
      <trkpt lat="45.34541" lon="5.82637">
        <ele>1200</ele>
        <time>2022-03-06T09:02:29Z</time>
      </trkpt>
      <trkpt lat="45.3454" lon="5.82641">
        <ele>1200</ele>
        <time>2022-03-06T09:02:31Z</time>
      </trkpt>
      <trkpt lat="45.3454" lon="5.82645">
        <ele>1200</ele>
        <time>2022-03-06T09:02:34Z</time>
      </trkpt>
      <trkpt lat="45.3454" lon="5.82645">
        <ele>1201</ele>
        <time>2022-03-06T09:02:35Z</time>
      </trkpt>
      <trkpt lat="45.34541" lon="5.82648">
        <ele>1202</ele>
        <time>2022-03-06T09:02:37Z</time>
      </trkpt>
      <trkpt lat="45.34542" lon="5.82651">
        <ele>1203</ele>
        <time>2022-03-06T09:02:40Z</time>
      </trkpt>
      <trkpt lat="45.34542" lon="5.82651">
        <ele>1203</ele>
        <time>2022-03-06T09:02:41Z</time>
      </trkpt>
      <trkpt lat="45.34544" lon="5.82654">
        <ele>1203</ele>
        <time>2022-03-06T09:02:43Z</time>
      </trkpt>
      <trkpt lat="45.34545" lon="5.82657">
        <ele>1203</ele>
        <time>2022-03-06T09:02:46Z</time>
      </trkpt>
      <trkpt lat="45.34545" lon="5.82657">
        <ele>1204</ele>
        <time>2022-03-06T09:02:47Z</time>
      </trkpt>
      <trkpt lat="45.34546" lon="5.8266">
        <ele>1204</ele>
        <time>2022-03-06T09:02:49Z</time>
      </trkpt>
      <trkpt lat="45.34548" lon="5.82663">
        <ele>1205</ele>
        <time>2022-03-06T09:02:52Z</time>
      </trkpt>
      <trkpt lat="45.34548" lon="5.82663">
        <ele>1205</ele>
        <time>2022-03-06T09:02:53Z</time>
      </trkpt>
      <trkpt lat="45.34548" lon="5.82666">
        <ele>1205</ele>
        <time>2022-03-06T09:02:55Z</time>
      </trkpt>
      <trkpt lat="45.34549" lon="5.82668">
        <ele>1206</ele>
        <time>2022-03-06T09:02:57Z</time>
      </trkpt>
      <trkpt lat="45.34549" lon="5.82668">
        <ele>1206</ele>
        <time>2022-03-06T09:02:59Z</time>
      </trkpt>
      <trkpt lat="45.34551" lon="5.82671">
        <ele>1206</ele>
        <time>2022-03-06T09:03:01Z</time>
      </trkpt>
      <trkpt lat="45.34551" lon="5.82674">
        <ele>1207</ele>
        <time>2022-03-06T09:03:03Z</time>
      </trkpt>
      <trkpt lat="45.34551" lon="5.82674">
        <ele>1207</ele>
        <time>2022-03-06T09:03:05Z</time>
      </trkpt>
      <trkpt lat="45.34551" lon="5.82676">
        <ele>1208</ele>
        <time>2022-03-06T09:03:06Z</time>
      </trkpt>
      <trkpt lat="45.34551" lon="5.82679">
        <ele>1208</ele>
        <time>2022-03-06T09:03:10Z</time>
      </trkpt>
      <trkpt lat="45.34551" lon="5.82679">
        <ele>1209</ele>
        <time>2022-03-06T09:03:11Z</time>
      </trkpt>
      <trkpt lat="45.34552" lon="5.82682">
        <ele>1209</ele>
        <time>2022-03-06T09:03:13Z</time>
      </trkpt>
      <trkpt lat="45.34553" lon="5.82684">
        <ele>1211</ele>
        <time>2022-03-06T09:03:16Z</time>
      </trkpt>
      <trkpt lat="45.34553" lon="5.82684">
        <ele>1211</ele>
        <time>2022-03-06T09:03:17Z</time>
      </trkpt>
      <trkpt lat="45.34555" lon="5.82686">
        <ele>1211</ele>
        <time>2022-03-06T09:03:19Z</time>
      </trkpt>
      <trkpt lat="45.34556" lon="5.82688">
        <ele>1212</ele>
        <time>2022-03-06T09:03:22Z</time>
      </trkpt>
      <trkpt lat="45.34556" lon="5.82688">
        <ele>1212</ele>
        <time>2022-03-06T09:03:23Z</time>
      </trkpt>
      <trkpt lat="45.34558" lon="5.82691">
        <ele>1212</ele>
        <time>2022-03-06T09:03:25Z</time>
      </trkpt>
      <trkpt lat="45.34558" lon="5.82694">
        <ele>1212</ele>
        <time>2022-03-06T09:03:28Z</time>
      </trkpt>
      <trkpt lat="45.34558" lon="5.82694">
        <ele>1213</ele>
        <time>2022-03-06T09:03:29Z</time>
      </trkpt>
      <trkpt lat="45.34558" lon="5.82697">
        <ele>1213</ele>
        <time>2022-03-06T09:03:31Z</time>
      </trkpt>
      <trkpt lat="45.34558" lon="5.827">
        <ele>1214</ele>
        <time>2022-03-06T09:03:34Z</time>
      </trkpt>
      <trkpt lat="45.34558" lon="5.827">
        <ele>1214</ele>
        <time>2022-03-06T09:03:35Z</time>
      </trkpt>
      <trkpt lat="45.34557" lon="5.82703">
        <ele>1214</ele>
        <time>2022-03-06T09:03:37Z</time>
      </trkpt>
      <trkpt lat="45.34555" lon="5.82706">
        <ele>1215</ele>
        <time>2022-03-06T09:03:40Z</time>
      </trkpt>
      <trkpt lat="45.34555" lon="5.82706">
        <ele>1215</ele>
        <time>2022-03-06T09:03:41Z</time>
      </trkpt>
      <trkpt lat="45.34555" lon="5.82709">
        <ele>1215</ele>
        <time>2022-03-06T09:03:43Z</time>
      </trkpt>
      <trkpt lat="45.34555" lon="5.82709">
        <ele>1216</ele>
        <time>2022-03-06T09:03:46Z</time>
      </trkpt>
      <trkpt lat="45.34555" lon="5.82712">
        <ele>1216</ele>
        <time>2022-03-06T09:03:47Z</time>
      </trkpt>
      <trkpt lat="45.34557" lon="5.82715">
        <ele>1217</ele>
        <time>2022-03-06T09:03:50Z</time>
      </trkpt>
      <trkpt lat="45.34557" lon="5.82715">
        <ele>1217</ele>
        <time>2022-03-06T09:03:52Z</time>
      </trkpt>
      <trkpt lat="45.34558" lon="5.82717">
        <ele>1217</ele>
        <time>2022-03-06T09:03:53Z</time>
      </trkpt>
      <trkpt lat="45.34559" lon="5.8272">
        <ele>1218</ele>
        <time>2022-03-06T09:03:56Z</time>
      </trkpt>
      <trkpt lat="45.34559" lon="5.8272">
        <ele>1218</ele>
        <time>2022-03-06T09:03:58Z</time>
      </trkpt>
      <trkpt lat="45.3456" lon="5.82723">
        <ele>1219</ele>
        <time>2022-03-06T09:04:00Z</time>
      </trkpt>
      <trkpt lat="45.3456" lon="5.82723">
        <ele>1220</ele>
        <time>2022-03-06T09:04:03Z</time>
      </trkpt>
      <trkpt lat="45.34561" lon="5.82726">
        <ele>1220</ele>
        <time>2022-03-06T09:04:04Z</time>
      </trkpt>
      <trkpt lat="45.34561" lon="5.82729">
        <ele>1221</ele>
        <time>2022-03-06T09:04:07Z</time>
      </trkpt>
      <trkpt lat="45.34561" lon="5.82729">
        <ele>1221</ele>
        <time>2022-03-06T09:04:09Z</time>
      </trkpt>
      <trkpt lat="45.3456" lon="5.82731">
        <ele>1222</ele>
        <time>2022-03-06T09:04:10Z</time>
      </trkpt>
      <trkpt lat="45.34561" lon="5.82734">
        <ele>1223</ele>
        <time>2022-03-06T09:04:13Z</time>
      </trkpt>
      <trkpt lat="45.34561" lon="5.82734">
        <ele>1223</ele>
        <time>2022-03-06T09:04:15Z</time>
      </trkpt>
      <trkpt lat="45.34563" lon="5.82736">
        <ele>1223</ele>
        <time>2022-03-06T09:04:17Z</time>
      </trkpt>
      <trkpt lat="45.34564" lon="5.82738">
        <ele>1224</ele>
        <time>2022-03-06T09:04:20Z</time>
      </trkpt>
      <trkpt lat="45.34564" lon="5.82738">
        <ele>1224</ele>
        <time>2022-03-06T09:04:21Z</time>
      </trkpt>
      <trkpt lat="45.34565" lon="5.82741">
        <ele>1225</ele>
        <time>2022-03-06T09:04:23Z</time>
      </trkpt>
      <trkpt lat="45.34564" lon="5.82744">
        <ele>1225</ele>
        <time>2022-03-06T09:04:26Z</time>
      </trkpt>
      <trkpt lat="45.34564" lon="5.82744">
        <ele>1226</ele>
        <time>2022-03-06T09:04:27Z</time>
      </trkpt>
      <trkpt lat="45.34564" lon="5.82747">
        <ele>1226</ele>
        <time>2022-03-06T09:04:30Z</time>
      </trkpt>
      <trkpt lat="45.34566" lon="5.82749">
        <ele>1227</ele>
        <time>2022-03-06T09:04:32Z</time>
      </trkpt>
      <trkpt lat="45.34566" lon="5.82749">
        <ele>1227</ele>
        <time>2022-03-06T09:04:35Z</time>
      </trkpt>
      <trkpt lat="45.34566" lon="5.82753">
        <ele>1228</ele>
        <time>2022-03-06T09:04:36Z</time>
      </trkpt>
      <trkpt lat="45.34566" lon="5.82756">
        <ele>1228</ele>
        <time>2022-03-06T09:04:39Z</time>
      </trkpt>
      <trkpt lat="45.34566" lon="5.82756">
        <ele>1229</ele>
        <time>2022-03-06T09:04:41Z</time>
      </trkpt>
      <trkpt lat="45.34566" lon="5.82759">
        <ele>1229</ele>
        <time>2022-03-06T09:04:42Z</time>
      </trkpt>
      <trkpt lat="45.34567" lon="5.82761">
        <ele>1229</ele>
        <time>2022-03-06T09:04:45Z</time>
      </trkpt>
      <trkpt lat="45.34567" lon="5.82761">
        <ele>1230</ele>
        <time>2022-03-06T09:04:47Z</time>
      </trkpt>
      <trkpt lat="45.34569" lon="5.82762">
        <ele>1230</ele>
        <time>2022-03-06T09:04:48Z</time>
      </trkpt>
      <trkpt lat="45.34571" lon="5.82764">
        <ele>1231</ele>
        <time>2022-03-06T09:04:51Z</time>
      </trkpt>
      <trkpt lat="45.34571" lon="5.82764">
        <ele>1231</ele>
        <time>2022-03-06T09:04:53Z</time>
      </trkpt>
      <trkpt lat="45.34573" lon="5.82765">
        <ele>1231</ele>
        <time>2022-03-06T09:04:54Z</time>
      </trkpt>
      <trkpt lat="45.34573" lon="5.82768">
        <ele>1231</ele>
        <time>2022-03-06T09:04:56Z</time>
      </trkpt>
      <trkpt lat="45.34571" lon="5.82771">
        <ele>1231</ele>
        <time>2022-03-06T09:04:59Z</time>
      </trkpt>
      <trkpt lat="45.34571" lon="5.82771">
        <ele>1231</ele>
        <time>2022-03-06T09:05:00Z</time>
      </trkpt>
      <trkpt lat="45.34569" lon="5.82774">
        <ele>1231</ele>
        <time>2022-03-06T09:05:02Z</time>
      </trkpt>
      <trkpt lat="45.34567" lon="5.82775">
        <ele>1232</ele>
        <time>2022-03-06T09:05:05Z</time>
      </trkpt>
      <trkpt lat="45.34567" lon="5.82775">
        <ele>1232</ele>
        <time>2022-03-06T09:05:06Z</time>
      </trkpt>
      <trkpt lat="45.34566" lon="5.82777">
        <ele>1232</ele>
        <time>2022-03-06T09:05:08Z</time>
      </trkpt>
      <trkpt lat="45.34566" lon="5.82777">
        <ele>1233</ele>
        <time>2022-03-06T09:05:11Z</time>
      </trkpt>
      <trkpt lat="45.34564" lon="5.82779">
        <ele>1233</ele>
        <time>2022-03-06T09:05:12Z</time>
      </trkpt>
      <trkpt lat="45.34563" lon="5.82781">
        <ele>1234</ele>
        <time>2022-03-06T09:05:15Z</time>
      </trkpt>
      <trkpt lat="45.34563" lon="5.82781">
        <ele>1234</ele>
        <time>2022-03-06T09:05:17Z</time>
      </trkpt>
      <trkpt lat="45.34564" lon="5.82785">
        <ele>1235</ele>
        <time>2022-03-06T09:05:20Z</time>
      </trkpt>
      <trkpt lat="45.34564" lon="5.82785">
        <ele>1236</ele>
        <time>2022-03-06T09:05:22Z</time>
      </trkpt>
      <trkpt lat="45.34565" lon="5.82788">
        <ele>1236</ele>
        <time>2022-03-06T09:05:23Z</time>
      </trkpt>
      <trkpt lat="45.34566" lon="5.8279">
        <ele>1236</ele>
        <time>2022-03-06T09:05:26Z</time>
      </trkpt>
      <trkpt lat="45.34566" lon="5.8279">
        <ele>1236</ele>
        <time>2022-03-06T09:05:28Z</time>
      </trkpt>
      <trkpt lat="45.34568" lon="5.82792">
        <ele>1236</ele>
        <time>2022-03-06T09:05:29Z</time>
      </trkpt>
      <trkpt lat="45.34569" lon="5.82794">
        <ele>1237</ele>
        <time>2022-03-06T09:05:32Z</time>
      </trkpt>
      <trkpt lat="45.34569" lon="5.82794">
        <ele>1237</ele>
        <time>2022-03-06T09:05:34Z</time>
      </trkpt>
      <trkpt lat="45.34571" lon="5.82796">
        <ele>1238</ele>
        <time>2022-03-06T09:05:36Z</time>
      </trkpt>
      <trkpt lat="45.34571" lon="5.82796">
        <ele>1238</ele>
        <time>2022-03-06T09:05:39Z</time>
      </trkpt>
      <trkpt lat="45.34573" lon="5.82797">
        <ele>1239</ele>
        <time>2022-03-06T09:05:40Z</time>
      </trkpt>
      <trkpt lat="45.34574" lon="5.828">
        <ele>1239</ele>
        <time>2022-03-06T09:05:43Z</time>
      </trkpt>
      <trkpt lat="45.34573" lon="5.82802">
        <ele>1240</ele>
        <time>2022-03-06T09:05:45Z</time>
      </trkpt>
      <trkpt lat="45.34571" lon="5.82803">
        <ele>1240</ele>
        <time>2022-03-06T09:05:48Z</time>
      </trkpt>
      <trkpt lat="45.34571" lon="5.82803">
        <ele>1240</ele>
        <time>2022-03-06T09:05:49Z</time>
      </trkpt>
      <trkpt lat="45.34569" lon="5.82804">
        <ele>1241</ele>
        <time>2022-03-06T09:05:51Z</time>
      </trkpt>
      <trkpt lat="45.34567" lon="5.82806">
        <ele>1241</ele>
        <time>2022-03-06T09:05:54Z</time>
      </trkpt>
      <trkpt lat="45.34567" lon="5.82806">
        <ele>1241</ele>
        <time>2022-03-06T09:05:55Z</time>
      </trkpt>
      <trkpt lat="45.34566" lon="5.82807">
        <ele>1242</ele>
        <time>2022-03-06T09:05:57Z</time>
      </trkpt>
      <trkpt lat="45.34566" lon="5.82807">
        <ele>1242</ele>
        <time>2022-03-06T09:06:00Z</time>
      </trkpt>
      <trkpt lat="45.34566" lon="5.82807">
        <ele>1242</ele>
        <time>2022-03-06T09:06:04Z</time>
      </trkpt>
      <trkpt lat="45.34567" lon="5.82809">
        <ele>1242</ele>
        <time>2022-03-06T09:06:06Z</time>
      </trkpt>
      <trkpt lat="45.34569" lon="5.82811">
        <ele>1243</ele>
        <time>2022-03-06T09:06:09Z</time>
      </trkpt>
      <trkpt lat="45.34569" lon="5.82811">
        <ele>1244</ele>
        <time>2022-03-06T09:06:10Z</time>
      </trkpt>
      <trkpt lat="45.34571" lon="5.82812">
        <ele>1245</ele>
        <time>2022-03-06T09:06:12Z</time>
      </trkpt>
      <trkpt lat="45.34573" lon="5.82814">
        <ele>1245</ele>
        <time>2022-03-06T09:06:15Z</time>
      </trkpt>
      <trkpt lat="45.34573" lon="5.82814">
        <ele>1245</ele>
        <time>2022-03-06T09:06:16Z</time>
      </trkpt>
      <trkpt lat="45.34574" lon="5.82816">
        <ele>1246</ele>
        <time>2022-03-06T09:06:20Z</time>
      </trkpt>
      <trkpt lat="45.34574" lon="5.82816">
        <ele>1246</ele>
        <time>2022-03-06T09:06:21Z</time>
      </trkpt>
      <trkpt lat="45.34576" lon="5.82818">
        <ele>1246</ele>
        <time>2022-03-06T09:06:23Z</time>
      </trkpt>
      <trkpt lat="45.34578" lon="5.82819">
        <ele>1246</ele>
        <time>2022-03-06T09:06:26Z</time>
      </trkpt>
      <trkpt lat="45.34578" lon="5.82819">
        <ele>1246</ele>
        <time>2022-03-06T09:06:27Z</time>
      </trkpt>
      <trkpt lat="45.34578" lon="5.82823">
        <ele>1247</ele>
        <time>2022-03-06T09:06:29Z</time>
      </trkpt>
      <trkpt lat="45.34576" lon="5.82824">
        <ele>1248</ele>
        <time>2022-03-06T09:06:32Z</time>
      </trkpt>
      <trkpt lat="45.34576" lon="5.82824">
        <ele>1248</ele>
        <time>2022-03-06T09:06:33Z</time>
      </trkpt>
      <trkpt lat="45.34574" lon="5.82826">
        <ele>1248</ele>
        <time>2022-03-06T09:06:35Z</time>
      </trkpt>
      <trkpt lat="45.34574" lon="5.82826">
        <ele>1248</ele>
        <time>2022-03-06T09:06:38Z</time>
      </trkpt>
      <trkpt lat="45.34574" lon="5.82826">
        <ele>1248</ele>
        <time>2022-03-06T09:06:42Z</time>
      </trkpt>
      <trkpt lat="45.34576" lon="5.82826">
        <ele>1248</ele>
        <time>2022-03-06T09:06:43Z</time>
      </trkpt>
      <trkpt lat="45.34578" lon="5.82827">
        <ele>1249</ele>
        <time>2022-03-06T09:06:45Z</time>
      </trkpt>
      <trkpt lat="45.34578" lon="5.82827">
        <ele>1249</ele>
        <time>2022-03-06T09:06:48Z</time>
      </trkpt>
      <trkpt lat="45.3458" lon="5.82829">
        <ele>1250</ele>
        <time>2022-03-06T09:06:49Z</time>
      </trkpt>
      <trkpt lat="45.34579" lon="5.82832">
        <ele>1251</ele>
        <time>2022-03-06T09:06:52Z</time>
      </trkpt>
      <trkpt lat="45.34578" lon="5.82834">
        <ele>1252</ele>
        <time>2022-03-06T09:06:54Z</time>
      </trkpt>
      <trkpt lat="45.34576" lon="5.82836">
        <ele>1252</ele>
        <time>2022-03-06T09:06:57Z</time>
      </trkpt>
      <trkpt lat="45.34576" lon="5.82836">
        <ele>1252</ele>
        <time>2022-03-06T09:06:58Z</time>
      </trkpt>
      <trkpt lat="45.34575" lon="5.82838">
        <ele>1253</ele>
        <time>2022-03-06T09:07:00Z</time>
      </trkpt>
      <trkpt lat="45.34573" lon="5.82839">
        <ele>1254</ele>
        <time>2022-03-06T09:07:03Z</time>
      </trkpt>
      <trkpt lat="45.34573" lon="5.82839">
        <ele>1254</ele>
        <time>2022-03-06T09:07:04Z</time>
      </trkpt>
      <trkpt lat="45.34571" lon="5.82841">
        <ele>1254</ele>
        <time>2022-03-06T09:07:07Z</time>
      </trkpt>
      <trkpt lat="45.34571" lon="5.82841">
        <ele>1254</ele>
        <time>2022-03-06T09:07:09Z</time>
      </trkpt>
      <trkpt lat="45.34569" lon="5.82842">
        <ele>1255</ele>
        <time>2022-03-06T09:07:10Z</time>
      </trkpt>
      <trkpt lat="45.34567" lon="5.82844">
        <ele>1256</ele>
        <time>2022-03-06T09:07:14Z</time>
      </trkpt>
      <trkpt lat="45.34567" lon="5.82844">
        <ele>1256</ele>
        <time>2022-03-06T09:07:15Z</time>
      </trkpt>
      <trkpt lat="45.34568" lon="5.82847">
        <ele>1256</ele>
        <time>2022-03-06T09:07:19Z</time>
      </trkpt>
      <trkpt lat="45.34568" lon="5.82847">
        <ele>1257</ele>
        <time>2022-03-06T09:07:20Z</time>
      </trkpt>
      <trkpt lat="45.3457" lon="5.82849">
        <ele>1258</ele>
        <time>2022-03-06T09:07:23Z</time>
      </trkpt>
      <trkpt lat="45.3457" lon="5.82849">
        <ele>1258</ele>
        <time>2022-03-06T09:07:25Z</time>
      </trkpt>
      <trkpt lat="45.34571" lon="5.82851">
        <ele>1258</ele>
        <time>2022-03-06T09:07:26Z</time>
      </trkpt>
      <trkpt lat="45.34573" lon="5.82853">
        <ele>1259</ele>
        <time>2022-03-06T09:07:29Z</time>
      </trkpt>
      <trkpt lat="45.34573" lon="5.82853">
        <ele>1260</ele>
        <time>2022-03-06T09:07:31Z</time>
      </trkpt>
      <trkpt lat="45.34574" lon="5.82856">
        <ele>1260</ele>
        <time>2022-03-06T09:07:32Z</time>
      </trkpt>
      <trkpt lat="45.34575" lon="5.82859">
        <ele>1260</ele>
        <time>2022-03-06T09:07:35Z</time>
      </trkpt>
      <trkpt lat="45.34575" lon="5.82859">
        <ele>1260</ele>
        <time>2022-03-06T09:07:37Z</time>
      </trkpt>
      <trkpt lat="45.34576" lon="5.82862">
        <ele>1261</ele>
        <time>2022-03-06T09:07:38Z</time>
      </trkpt>
      <trkpt lat="45.34577" lon="5.82864">
        <ele>1261</ele>
        <time>2022-03-06T09:07:41Z</time>
      </trkpt>
      <trkpt lat="45.34578" lon="5.82866">
        <ele>1261</ele>
        <time>2022-03-06T09:07:43Z</time>
      </trkpt>
      <trkpt lat="45.3458" lon="5.82869">
        <ele>1262</ele>
        <time>2022-03-06T09:07:46Z</time>
      </trkpt>
      <trkpt lat="45.3458" lon="5.82869">
        <ele>1262</ele>
        <time>2022-03-06T09:07:47Z</time>
      </trkpt>
      <trkpt lat="45.34582" lon="5.82872">
        <ele>1262</ele>
        <time>2022-03-06T09:07:49Z</time>
      </trkpt>
      <trkpt lat="45.34583" lon="5.82875">
        <ele>1263</ele>
        <time>2022-03-06T09:07:52Z</time>
      </trkpt>
      <trkpt lat="45.34583" lon="5.82875">
        <ele>1264</ele>
        <time>2022-03-06T09:07:53Z</time>
      </trkpt>
      <trkpt lat="45.34584" lon="5.82877">
        <ele>1264</ele>
        <time>2022-03-06T09:07:55Z</time>
      </trkpt>
      <trkpt lat="45.34585" lon="5.8288">
        <ele>1264</ele>
        <time>2022-03-06T09:07:58Z</time>
      </trkpt>
      <trkpt lat="45.34585" lon="5.8288">
        <ele>1264</ele>
        <time>2022-03-06T09:07:59Z</time>
      </trkpt>
      <trkpt lat="45.34584" lon="5.82883">
        <ele>1265</ele>
        <time>2022-03-06T09:08:01Z</time>
      </trkpt>
      <trkpt lat="45.34583" lon="5.82886">
        <ele>1266</ele>
        <time>2022-03-06T09:08:04Z</time>
      </trkpt>
      <trkpt lat="45.34583" lon="5.82886">
        <ele>1266</ele>
        <time>2022-03-06T09:08:05Z</time>
      </trkpt>
      <trkpt lat="45.34582" lon="5.82889">
        <ele>1267</ele>
        <time>2022-03-06T09:08:07Z</time>
      </trkpt>
      <trkpt lat="45.34582" lon="5.82893">
        <ele>1267</ele>
        <time>2022-03-06T09:08:10Z</time>
      </trkpt>
      <trkpt lat="45.34582" lon="5.82893">
        <ele>1267</ele>
        <time>2022-03-06T09:08:11Z</time>
      </trkpt>
      <trkpt lat="45.34581" lon="5.82895">
        <ele>1268</ele>
        <time>2022-03-06T09:08:13Z</time>
      </trkpt>
      <trkpt lat="45.3458" lon="5.82898">
        <ele>1268</ele>
        <time>2022-03-06T09:08:16Z</time>
      </trkpt>
      <trkpt lat="45.3458" lon="5.82898">
        <ele>1269</ele>
        <time>2022-03-06T09:08:17Z</time>
      </trkpt>
      <trkpt lat="45.3458" lon="5.82902">
        <ele>1269</ele>
        <time>2022-03-06T09:08:19Z</time>
      </trkpt>
      <trkpt lat="45.34581" lon="5.82905">
        <ele>1269</ele>
        <time>2022-03-06T09:08:22Z</time>
      </trkpt>
      <trkpt lat="45.34581" lon="5.82905">
        <ele>1269</ele>
        <time>2022-03-06T09:08:23Z</time>
      </trkpt>
      <trkpt lat="45.34581" lon="5.82907">
        <ele>1270</ele>
        <time>2022-03-06T09:08:25Z</time>
      </trkpt>
      <trkpt lat="45.34582" lon="5.8291">
        <ele>1270</ele>
        <time>2022-03-06T09:08:28Z</time>
      </trkpt>
      <trkpt lat="45.34582" lon="5.8291">
        <ele>1270</ele>
        <time>2022-03-06T09:08:29Z</time>
      </trkpt>
      <trkpt lat="45.34582" lon="5.82914">
        <ele>1271</ele>
        <time>2022-03-06T09:08:31Z</time>
      </trkpt>
      <trkpt lat="45.34581" lon="5.82917">
        <ele>1272</ele>
        <time>2022-03-06T09:08:34Z</time>
      </trkpt>
      <trkpt lat="45.34581" lon="5.82917">
        <ele>1272</ele>
        <time>2022-03-06T09:08:35Z</time>
      </trkpt>
      <trkpt lat="45.34581" lon="5.82917">
        <ele>1272</ele>
        <time>2022-03-06T09:08:39Z</time>
      </trkpt>
      <trkpt lat="45.34581" lon="5.82917">
        <ele>1272</ele>
        <time>2022-03-06T09:08:43Z</time>
      </trkpt>
      <trkpt lat="45.34581" lon="5.82917">
        <ele>1273</ele>
        <time>2022-03-06T09:08:47Z</time>
      </trkpt>
      <trkpt lat="45.34581" lon="5.82917">
        <ele>1273</ele>
        <time>2022-03-06T09:08:51Z</time>
      </trkpt>
      <trkpt lat="45.34581" lon="5.82917">
        <ele>1273</ele>
        <time>2022-03-06T09:08:55Z</time>
      </trkpt>
      <trkpt lat="45.34581" lon="5.82917">
        <ele>1273</ele>
        <time>2022-03-06T09:08:59Z</time>
      </trkpt>
      <trkpt lat="45.34581" lon="5.82917">
        <ele>1273</ele>
        <time>2022-03-06T09:09:03Z</time>
      </trkpt>
      <trkpt lat="45.34581" lon="5.8292">
        <ele>1273</ele>
        <time>2022-03-06T09:09:05Z</time>
      </trkpt>
      <trkpt lat="45.3458" lon="5.82922">
        <ele>1274</ele>
        <time>2022-03-06T09:09:07Z</time>
      </trkpt>
      <trkpt lat="45.3458" lon="5.82922">
        <ele>1274</ele>
        <time>2022-03-06T09:09:09Z</time>
      </trkpt>
      <trkpt lat="45.34578" lon="5.82925">
        <ele>1274</ele>
        <time>2022-03-06T09:09:10Z</time>
      </trkpt>
      <trkpt lat="45.34577" lon="5.82928">
        <ele>1274</ele>
        <time>2022-03-06T09:09:13Z</time>
      </trkpt>
      <trkpt lat="45.34577" lon="5.82928">
        <ele>1275</ele>
        <time>2022-03-06T09:09:15Z</time>
      </trkpt>
      <trkpt lat="45.34575" lon="5.8293">
        <ele>1275</ele>
        <time>2022-03-06T09:09:16Z</time>
      </trkpt>
      <trkpt lat="45.34573" lon="5.82932">
        <ele>1275</ele>
        <time>2022-03-06T09:09:19Z</time>
      </trkpt>
      <trkpt lat="45.34573" lon="5.82932">
        <ele>1276</ele>
        <time>2022-03-06T09:09:21Z</time>
      </trkpt>
      <trkpt lat="45.34573" lon="5.82935">
        <ele>1277</ele>
        <time>2022-03-06T09:09:22Z</time>
      </trkpt>
      <trkpt lat="45.34573" lon="5.82938">
        <ele>1277</ele>
        <time>2022-03-06T09:09:25Z</time>
      </trkpt>
      <trkpt lat="45.34573" lon="5.82938">
        <ele>1278</ele>
        <time>2022-03-06T09:09:27Z</time>
      </trkpt>
      <trkpt lat="45.34572" lon="5.82941">
        <ele>1278</ele>
        <time>2022-03-06T09:09:28Z</time>
      </trkpt>
      <trkpt lat="45.34571" lon="5.82943">
        <ele>1278</ele>
        <time>2022-03-06T09:09:31Z</time>
      </trkpt>
      <trkpt lat="45.34571" lon="5.82943">
        <ele>1278</ele>
        <time>2022-03-06T09:09:33Z</time>
      </trkpt>
      <trkpt lat="45.34569" lon="5.82945">
        <ele>1278</ele>
        <time>2022-03-06T09:09:34Z</time>
      </trkpt>
      <trkpt lat="45.34568" lon="5.82947">
        <ele>1278</ele>
        <time>2022-03-06T09:09:36Z</time>
      </trkpt>
      <trkpt lat="45.34568" lon="5.82947">
        <ele>1279</ele>
        <time>2022-03-06T09:09:39Z</time>
      </trkpt>
      <trkpt lat="45.34567" lon="5.8295">
        <ele>1279</ele>
        <time>2022-03-06T09:09:41Z</time>
      </trkpt>
      <trkpt lat="45.34566" lon="5.82953">
        <ele>1280</ele>
        <time>2022-03-06T09:09:44Z</time>
      </trkpt>
      <trkpt lat="45.34566" lon="5.82953">
        <ele>1280</ele>
        <time>2022-03-06T09:09:45Z</time>
      </trkpt>
      <trkpt lat="45.34566" lon="5.82956">
        <ele>1281</ele>
        <time>2022-03-06T09:09:47Z</time>
      </trkpt>
      <trkpt lat="45.34566" lon="5.82959">
        <ele>1282</ele>
        <time>2022-03-06T09:09:50Z</time>
      </trkpt>
      <trkpt lat="45.34566" lon="5.82959">
        <ele>1282</ele>
        <time>2022-03-06T09:09:51Z</time>
      </trkpt>
      <trkpt lat="45.34566" lon="5.82962">
        <ele>1282</ele>
        <time>2022-03-06T09:09:53Z</time>
      </trkpt>
      <trkpt lat="45.34568" lon="5.82965">
        <ele>1283</ele>
        <time>2022-03-06T09:09:55Z</time>
      </trkpt>
      <trkpt lat="45.34568" lon="5.82965">
        <ele>1283</ele>
        <time>2022-03-06T09:09:57Z</time>
      </trkpt>
      <trkpt lat="45.34568" lon="5.82968">
        <ele>1283</ele>
        <time>2022-03-06T09:09:58Z</time>
      </trkpt>
      <trkpt lat="45.34567" lon="5.8297">
        <ele>1284</ele>
        <time>2022-03-06T09:10:01Z</time>
      </trkpt>
      <trkpt lat="45.34567" lon="5.8297">
        <ele>1285</ele>
        <time>2022-03-06T09:10:03Z</time>
      </trkpt>
      <trkpt lat="45.34566" lon="5.82973">
        <ele>1285</ele>
        <time>2022-03-06T09:10:04Z</time>
      </trkpt>
      <trkpt lat="45.34566" lon="5.82976">
        <ele>1286</ele>
        <time>2022-03-06T09:10:08Z</time>
      </trkpt>
      <trkpt lat="45.34566" lon="5.82976">
        <ele>1286</ele>
        <time>2022-03-06T09:10:09Z</time>
      </trkpt>
      <trkpt lat="45.34566" lon="5.82979">
        <ele>1287</ele>
        <time>2022-03-06T09:10:11Z</time>
      </trkpt>
      <trkpt lat="45.34565" lon="5.82982">
        <ele>1288</ele>
        <time>2022-03-06T09:10:14Z</time>
      </trkpt>
      <trkpt lat="45.34565" lon="5.82982">
        <ele>1288</ele>
        <time>2022-03-06T09:10:15Z</time>
      </trkpt>
      <trkpt lat="45.34564" lon="5.82986">
        <ele>1288</ele>
        <time>2022-03-06T09:10:17Z</time>
      </trkpt>
      <trkpt lat="45.34562" lon="5.82987">
        <ele>1289</ele>
        <time>2022-03-06T09:10:19Z</time>
      </trkpt>
      <trkpt lat="45.34562" lon="5.82987">
        <ele>1290</ele>
        <time>2022-03-06T09:10:21Z</time>
      </trkpt>
      <trkpt lat="45.3456" lon="5.82987">
        <ele>1290</ele>
        <time>2022-03-06T09:10:22Z</time>
      </trkpt>
      <trkpt lat="45.34558" lon="5.82987">
        <ele>1291</ele>
        <time>2022-03-06T09:10:24Z</time>
      </trkpt>
      <trkpt lat="45.34556" lon="5.82986">
        <ele>1291</ele>
        <time>2022-03-06T09:10:27Z</time>
      </trkpt>
      <trkpt lat="45.34556" lon="5.82986">
        <ele>1291</ele>
        <time>2022-03-06T09:10:28Z</time>
      </trkpt>
      <trkpt lat="45.34555" lon="5.82989">
        <ele>1291</ele>
        <time>2022-03-06T09:10:31Z</time>
      </trkpt>
      <trkpt lat="45.34555" lon="5.82989">
        <ele>1291</ele>
        <time>2022-03-06T09:10:33Z</time>
      </trkpt>
      <trkpt lat="45.34556" lon="5.82993">
        <ele>1292</ele>
        <time>2022-03-06T09:10:34Z</time>
      </trkpt>
      <trkpt lat="45.34556" lon="5.82996">
        <ele>1292</ele>
        <time>2022-03-06T09:10:37Z</time>
      </trkpt>
      <trkpt lat="45.34556" lon="5.82996">
        <ele>1292</ele>
        <time>2022-03-06T09:10:39Z</time>
      </trkpt>
      <trkpt lat="45.34556" lon="5.82999">
        <ele>1292</ele>
        <time>2022-03-06T09:10:40Z</time>
      </trkpt>
      <trkpt lat="45.34555" lon="5.83002">
        <ele>1293</ele>
        <time>2022-03-06T09:10:43Z</time>
      </trkpt>
      <trkpt lat="45.34555" lon="5.83002">
        <ele>1294</ele>
        <time>2022-03-06T09:10:45Z</time>
      </trkpt>
      <trkpt lat="45.34553" lon="5.83004">
        <ele>1294</ele>
        <time>2022-03-06T09:10:46Z</time>
      </trkpt>
      <trkpt lat="45.34551" lon="5.83006">
        <ele>1294</ele>
        <time>2022-03-06T09:10:49Z</time>
      </trkpt>
      <trkpt lat="45.34551" lon="5.83006">
        <ele>1294</ele>
        <time>2022-03-06T09:10:51Z</time>
      </trkpt>
      <trkpt lat="45.3455" lon="5.83007">
        <ele>1294</ele>
        <time>2022-03-06T09:10:52Z</time>
      </trkpt>
      <trkpt lat="45.3455" lon="5.83007">
        <ele>1295</ele>
        <time>2022-03-06T09:10:56Z</time>
      </trkpt>
      <trkpt lat="45.34549" lon="5.8301">
        <ele>1295</ele>
        <time>2022-03-06T09:10:57Z</time>
      </trkpt>
      <trkpt lat="45.3455" lon="5.83013">
        <ele>1296</ele>
        <time>2022-03-06T09:11:00Z</time>
      </trkpt>
      <trkpt lat="45.3455" lon="5.83013">
        <ele>1296</ele>
        <time>2022-03-06T09:11:02Z</time>
      </trkpt>
      <trkpt lat="45.34552" lon="5.83015">
        <ele>1296</ele>
        <time>2022-03-06T09:11:06Z</time>
      </trkpt>
      <trkpt lat="45.34552" lon="5.83015">
        <ele>1297</ele>
        <time>2022-03-06T09:11:07Z</time>
      </trkpt>
      <trkpt lat="45.3455" lon="5.83017">
        <ele>1298</ele>
        <time>2022-03-06T09:11:11Z</time>
      </trkpt>
      <trkpt lat="45.3455" lon="5.83017">
        <ele>1298</ele>
        <time>2022-03-06T09:11:12Z</time>
      </trkpt>
      <trkpt lat="45.34548" lon="5.83018">
        <ele>1298</ele>
        <time>2022-03-06T09:11:14Z</time>
      </trkpt>
      <trkpt lat="45.34546" lon="5.83019">
        <ele>1299</ele>
        <time>2022-03-06T09:11:17Z</time>
      </trkpt>
      <trkpt lat="45.34546" lon="5.83019">
        <ele>1299</ele>
        <time>2022-03-06T09:11:18Z</time>
      </trkpt>
      <trkpt lat="45.34544" lon="5.8302">
        <ele>1301</ele>
        <time>2022-03-06T09:11:20Z</time>
      </trkpt>
      <trkpt lat="45.34542" lon="5.83021">
        <ele>1301</ele>
        <time>2022-03-06T09:11:23Z</time>
      </trkpt>
      <trkpt lat="45.34542" lon="5.83021">
        <ele>1301</ele>
        <time>2022-03-06T09:11:24Z</time>
      </trkpt>
      <trkpt lat="45.3454" lon="5.83022">
        <ele>1301</ele>
        <time>2022-03-06T09:11:26Z</time>
      </trkpt>
      <trkpt lat="45.34537" lon="5.83022">
        <ele>1301</ele>
        <time>2022-03-06T09:11:29Z</time>
      </trkpt>
      <trkpt lat="45.34537" lon="5.83022">
        <ele>1301</ele>
        <time>2022-03-06T09:11:30Z</time>
      </trkpt>
      <trkpt lat="45.34535" lon="5.83023">
        <ele>1301</ele>
        <time>2022-03-06T09:11:31Z</time>
      </trkpt>
      <trkpt lat="45.34533" lon="5.83023">
        <ele>1303</ele>
        <time>2022-03-06T09:11:35Z</time>
      </trkpt>
      <trkpt lat="45.34533" lon="5.83023">
        <ele>1303</ele>
        <time>2022-03-06T09:11:36Z</time>
      </trkpt>
      <trkpt lat="45.34531" lon="5.83025">
        <ele>1303</ele>
        <time>2022-03-06T09:11:39Z</time>
      </trkpt>
      <trkpt lat="45.34531" lon="5.83025">
        <ele>1303</ele>
        <time>2022-03-06T09:11:41Z</time>
      </trkpt>
      <trkpt lat="45.34531" lon="5.83028">
        <ele>1303</ele>
        <time>2022-03-06T09:11:42Z</time>
      </trkpt>
      <trkpt lat="45.34531" lon="5.83032">
        <ele>1304</ele>
        <time>2022-03-06T09:11:45Z</time>
      </trkpt>
      <trkpt lat="45.34531" lon="5.83032">
        <ele>1305</ele>
        <time>2022-03-06T09:11:47Z</time>
      </trkpt>
      <trkpt lat="45.34532" lon="5.83035">
        <ele>1305</ele>
        <time>2022-03-06T09:11:48Z</time>
      </trkpt>
      <trkpt lat="45.34533" lon="5.83037">
        <ele>1306</ele>
        <time>2022-03-06T09:11:51Z</time>
      </trkpt>
      <trkpt lat="45.34533" lon="5.83037">
        <ele>1306</ele>
        <time>2022-03-06T09:11:53Z</time>
      </trkpt>
      <trkpt lat="45.34533" lon="5.8304">
        <ele>1306</ele>
        <time>2022-03-06T09:11:54Z</time>
      </trkpt>
      <trkpt lat="45.34534" lon="5.83044">
        <ele>1306</ele>
        <time>2022-03-06T09:11:57Z</time>
      </trkpt>
      <trkpt lat="45.34534" lon="5.83044">
        <ele>1306</ele>
        <time>2022-03-06T09:11:59Z</time>
      </trkpt>
      <trkpt lat="45.34535" lon="5.83047">
        <ele>1307</ele>
        <time>2022-03-06T09:12:00Z</time>
      </trkpt>
      <trkpt lat="45.34535" lon="5.8305">
        <ele>1309</ele>
        <time>2022-03-06T09:12:03Z</time>
      </trkpt>
      <trkpt lat="45.34535" lon="5.8305">
        <ele>1309</ele>
        <time>2022-03-06T09:12:05Z</time>
      </trkpt>
      <trkpt lat="45.34536" lon="5.83054">
        <ele>1309</ele>
        <time>2022-03-06T09:12:06Z</time>
      </trkpt>
      <trkpt lat="45.34536" lon="5.83057">
        <ele>1309</ele>
        <time>2022-03-06T09:12:09Z</time>
      </trkpt>
      <trkpt lat="45.34536" lon="5.83057">
        <ele>1309</ele>
        <time>2022-03-06T09:12:11Z</time>
      </trkpt>
      <trkpt lat="45.34536" lon="5.8306">
        <ele>1309</ele>
        <time>2022-03-06T09:12:12Z</time>
      </trkpt>
      <trkpt lat="45.34537" lon="5.83063">
        <ele>1309</ele>
        <time>2022-03-06T09:12:15Z</time>
      </trkpt>
      <trkpt lat="45.34537" lon="5.83066">
        <ele>1310</ele>
        <time>2022-03-06T09:12:17Z</time>
      </trkpt>
      <trkpt lat="45.34538" lon="5.83069">
        <ele>1311</ele>
        <time>2022-03-06T09:12:20Z</time>
      </trkpt>
      <trkpt lat="45.34538" lon="5.83069">
        <ele>1311</ele>
        <time>2022-03-06T09:12:21Z</time>
      </trkpt>
      <trkpt lat="45.34539" lon="5.83072">
        <ele>1311</ele>
        <time>2022-03-06T09:12:23Z</time>
      </trkpt>
      <trkpt lat="45.34539" lon="5.83076">
        <ele>1312</ele>
        <time>2022-03-06T09:12:26Z</time>
      </trkpt>
      <trkpt lat="45.34539" lon="5.83076">
        <ele>1312</ele>
        <time>2022-03-06T09:12:27Z</time>
      </trkpt>
      <trkpt lat="45.34539" lon="5.83079">
        <ele>1312</ele>
        <time>2022-03-06T09:12:29Z</time>
      </trkpt>
      <trkpt lat="45.3454" lon="5.83082">
        <ele>1312</ele>
        <time>2022-03-06T09:12:32Z</time>
      </trkpt>
      <trkpt lat="45.3454" lon="5.83082">
        <ele>1312</ele>
        <time>2022-03-06T09:12:33Z</time>
      </trkpt>
      <trkpt lat="45.3454" lon="5.83086">
        <ele>1313</ele>
        <time>2022-03-06T09:12:35Z</time>
      </trkpt>
      <trkpt lat="45.34541" lon="5.83089">
        <ele>1313</ele>
        <time>2022-03-06T09:12:37Z</time>
      </trkpt>
      <trkpt lat="45.34541" lon="5.83089">
        <ele>1313</ele>
        <time>2022-03-06T09:12:39Z</time>
      </trkpt>
      <trkpt lat="45.34541" lon="5.83092">
        <ele>1313</ele>
        <time>2022-03-06T09:12:40Z</time>
      </trkpt>
      <trkpt lat="45.34541" lon="5.83096">
        <ele>1314</ele>
        <time>2022-03-06T09:12:43Z</time>
      </trkpt>
      <trkpt lat="45.34541" lon="5.83096">
        <ele>1315</ele>
        <time>2022-03-06T09:12:45Z</time>
      </trkpt>
      <trkpt lat="45.3454" lon="5.83098">
        <ele>1316</ele>
        <time>2022-03-06T09:12:46Z</time>
      </trkpt>
      <trkpt lat="45.3454" lon="5.83101">
        <ele>1316</ele>
        <time>2022-03-06T09:12:49Z</time>
      </trkpt>
      <trkpt lat="45.3454" lon="5.83104">
        <ele>1316</ele>
        <time>2022-03-06T09:12:51Z</time>
      </trkpt>
      <trkpt lat="45.34539" lon="5.83107">
        <ele>1317</ele>
        <time>2022-03-06T09:12:54Z</time>
      </trkpt>
      <trkpt lat="45.34539" lon="5.83107">
        <ele>1317</ele>
        <time>2022-03-06T09:12:55Z</time>
      </trkpt>
      <trkpt lat="45.34538" lon="5.83109">
        <ele>1317</ele>
        <time>2022-03-06T09:12:56Z</time>
      </trkpt>
      <trkpt lat="45.34537" lon="5.83111">
        <ele>1318</ele>
        <time>2022-03-06T09:12:59Z</time>
      </trkpt>
      <trkpt lat="45.34537" lon="5.83111">
        <ele>1318</ele>
        <time>2022-03-06T09:13:01Z</time>
      </trkpt>
      <trkpt lat="45.34536" lon="5.83113">
        <ele>1318</ele>
        <time>2022-03-06T09:13:02Z</time>
      </trkpt>
      <trkpt lat="45.34536" lon="5.83116">
        <ele>1319</ele>
        <time>2022-03-06T09:13:05Z</time>
      </trkpt>
      <trkpt lat="45.34536" lon="5.83116">
        <ele>1319</ele>
        <time>2022-03-06T09:13:07Z</time>
      </trkpt>
      <trkpt lat="45.34537" lon="5.83119">
        <ele>1319</ele>
        <time>2022-03-06T09:13:08Z</time>
      </trkpt>
      <trkpt lat="45.34538" lon="5.83122">
        <ele>1320</ele>
        <time>2022-03-06T09:13:11Z</time>
      </trkpt>
      <trkpt lat="45.34539" lon="5.83125">
        <ele>1321</ele>
        <time>2022-03-06T09:13:13Z</time>
      </trkpt>
      <trkpt lat="45.34539" lon="5.83128">
        <ele>1322</ele>
        <time>2022-03-06T09:13:16Z</time>
      </trkpt>
      <trkpt lat="45.34539" lon="5.83128">
        <ele>1322</ele>
        <time>2022-03-06T09:13:17Z</time>
      </trkpt>
      <trkpt lat="45.34538" lon="5.83131">
        <ele>1323</ele>
        <time>2022-03-06T09:13:19Z</time>
      </trkpt>
      <trkpt lat="45.34537" lon="5.83134">
        <ele>1323</ele>
        <time>2022-03-06T09:13:22Z</time>
      </trkpt>
      <trkpt lat="45.34537" lon="5.83134">
        <ele>1323</ele>
        <time>2022-03-06T09:13:23Z</time>
      </trkpt>
      <trkpt lat="45.34536" lon="5.83136">
        <ele>1324</ele>
        <time>2022-03-06T09:13:25Z</time>
      </trkpt>
      <trkpt lat="45.34536" lon="5.83136">
        <ele>1324</ele>
        <time>2022-03-06T09:13:28Z</time>
      </trkpt>
      <trkpt lat="45.34535" lon="5.83139">
        <ele>1324</ele>
        <time>2022-03-06T09:13:29Z</time>
      </trkpt>
      <trkpt lat="45.34536" lon="5.83142">
        <ele>1325</ele>
        <time>2022-03-06T09:13:32Z</time>
      </trkpt>
      <trkpt lat="45.34536" lon="5.83145">
        <ele>1325</ele>
        <time>2022-03-06T09:13:34Z</time>
      </trkpt>
      <trkpt lat="45.34536" lon="5.83147">
        <ele>1325</ele>
        <time>2022-03-06T09:13:36Z</time>
      </trkpt>
      <trkpt lat="45.34536" lon="5.83147">
        <ele>1325</ele>
        <time>2022-03-06T09:13:38Z</time>
      </trkpt>
      <trkpt lat="45.34536" lon="5.8315">
        <ele>1325</ele>
        <time>2022-03-06T09:13:39Z</time>
      </trkpt>
      <trkpt lat="45.34538" lon="5.83153">
        <ele>1326</ele>
        <time>2022-03-06T09:13:42Z</time>
      </trkpt>
      <trkpt lat="45.34538" lon="5.83153">
        <ele>1326</ele>
        <time>2022-03-06T09:13:44Z</time>
      </trkpt>
      <trkpt lat="45.3454" lon="5.83155">
        <ele>1326</ele>
        <time>2022-03-06T09:13:45Z</time>
      </trkpt>
      <trkpt lat="45.34542" lon="5.83157">
        <ele>1327</ele>
        <time>2022-03-06T09:13:48Z</time>
      </trkpt>
      <trkpt lat="45.34543" lon="5.8316">
        <ele>1327</ele>
        <time>2022-03-06T09:13:50Z</time>
      </trkpt>
      <trkpt lat="45.34544" lon="5.83162">
        <ele>1329</ele>
        <time>2022-03-06T09:13:53Z</time>
      </trkpt>
      <trkpt lat="45.34544" lon="5.83162">
        <ele>1329</ele>
        <time>2022-03-06T09:13:54Z</time>
      </trkpt>
      <trkpt lat="45.34545" lon="5.83164">
        <ele>1329</ele>
        <time>2022-03-06T09:13:56Z</time>
      </trkpt>
      <trkpt lat="45.34546" lon="5.83166">
        <ele>1330</ele>
        <time>2022-03-06T09:13:59Z</time>
      </trkpt>
      <trkpt lat="45.34546" lon="5.83166">
        <ele>1330</ele>
        <time>2022-03-06T09:14:00Z</time>
      </trkpt>
      <trkpt lat="45.34548" lon="5.83169">
        <ele>1331</ele>
        <time>2022-03-06T09:14:02Z</time>
      </trkpt>
      <trkpt lat="45.34549" lon="5.83171">
        <ele>1331</ele>
        <time>2022-03-06T09:14:05Z</time>
      </trkpt>
      <trkpt lat="45.34549" lon="5.83171">
        <ele>1332</ele>
        <time>2022-03-06T09:14:06Z</time>
      </trkpt>
      <trkpt lat="45.34551" lon="5.83174">
        <ele>1333</ele>
        <time>2022-03-06T09:14:08Z</time>
      </trkpt>
      <trkpt lat="45.34552" lon="5.83176">
        <ele>1334</ele>
        <time>2022-03-06T09:14:11Z</time>
      </trkpt>
      <trkpt lat="45.34552" lon="5.83176">
        <ele>1334</ele>
        <time>2022-03-06T09:14:12Z</time>
      </trkpt>
      <trkpt lat="45.34553" lon="5.83179">
        <ele>1335</ele>
        <time>2022-03-06T09:14:14Z</time>
      </trkpt>
      <trkpt lat="45.34553" lon="5.83179">
        <ele>1335</ele>
        <time>2022-03-06T09:14:17Z</time>
      </trkpt>
      <trkpt lat="45.34554" lon="5.83182">
        <ele>1335</ele>
        <time>2022-03-06T09:14:18Z</time>
      </trkpt>
      <trkpt lat="45.34555" lon="5.83185">
        <ele>1336</ele>
        <time>2022-03-06T09:14:21Z</time>
      </trkpt>
      <trkpt lat="45.34555" lon="5.83185">
        <ele>1336</ele>
        <time>2022-03-06T09:14:23Z</time>
      </trkpt>
      <trkpt lat="45.34557" lon="5.83186">
        <ele>1337</ele>
        <time>2022-03-06T09:14:24Z</time>
      </trkpt>
      <trkpt lat="45.34558" lon="5.83189">
        <ele>1338</ele>
        <time>2022-03-06T09:14:27Z</time>
      </trkpt>
      <trkpt lat="45.34559" lon="5.83192">
        <ele>1338</ele>
        <time>2022-03-06T09:14:29Z</time>
      </trkpt>
      <trkpt lat="45.34559" lon="5.83195">
        <ele>1339</ele>
        <time>2022-03-06T09:14:32Z</time>
      </trkpt>
      <trkpt lat="45.34559" lon="5.83195">
        <ele>1339</ele>
        <time>2022-03-06T09:14:33Z</time>
      </trkpt>
      <trkpt lat="45.3456" lon="5.83198">
        <ele>1340</ele>
        <time>2022-03-06T09:14:35Z</time>
      </trkpt>
      <trkpt lat="45.34561" lon="5.832">
        <ele>1340</ele>
        <time>2022-03-06T09:14:38Z</time>
      </trkpt>
      <trkpt lat="45.34561" lon="5.832">
        <ele>1340</ele>
        <time>2022-03-06T09:14:39Z</time>
      </trkpt>
      <trkpt lat="45.34562" lon="5.83203">
        <ele>1341</ele>
        <time>2022-03-06T09:14:41Z</time>
      </trkpt>
      <trkpt lat="45.34563" lon="5.83207">
        <ele>1341</ele>
        <time>2022-03-06T09:14:44Z</time>
      </trkpt>
      <trkpt lat="45.34563" lon="5.83207">
        <ele>1341</ele>
        <time>2022-03-06T09:14:45Z</time>
      </trkpt>
      <trkpt lat="45.34563" lon="5.8321">
        <ele>1341</ele>
        <time>2022-03-06T09:14:47Z</time>
      </trkpt>
      <trkpt lat="45.34563" lon="5.83214">
        <ele>1342</ele>
        <time>2022-03-06T09:14:50Z</time>
      </trkpt>
      <trkpt lat="45.34563" lon="5.83214">
        <ele>1342</ele>
        <time>2022-03-06T09:14:51Z</time>
      </trkpt>
      <trkpt lat="45.34563" lon="5.83218">
        <ele>1343</ele>
        <time>2022-03-06T09:14:53Z</time>
      </trkpt>
      <trkpt lat="45.34563" lon="5.83221">
        <ele>1343</ele>
        <time>2022-03-06T09:14:56Z</time>
      </trkpt>
      <trkpt lat="45.34563" lon="5.83221">
        <ele>1343</ele>
        <time>2022-03-06T09:14:57Z</time>
      </trkpt>
      <trkpt lat="45.34563" lon="5.83224">
        <ele>1345</ele>
        <time>2022-03-06T09:14:59Z</time>
      </trkpt>
      <trkpt lat="45.34562" lon="5.83227">
        <ele>1346</ele>
        <time>2022-03-06T09:15:02Z</time>
      </trkpt>
      <trkpt lat="45.34562" lon="5.83227">
        <ele>1346</ele>
        <time>2022-03-06T09:15:03Z</time>
      </trkpt>
      <trkpt lat="45.34562" lon="5.8323">
        <ele>1347</ele>
        <time>2022-03-06T09:15:05Z</time>
      </trkpt>
      <trkpt lat="45.34562" lon="5.83234">
        <ele>1347</ele>
        <time>2022-03-06T09:15:08Z</time>
      </trkpt>
      <trkpt lat="45.34562" lon="5.83234">
        <ele>1347</ele>
        <time>2022-03-06T09:15:09Z</time>
      </trkpt>
      <trkpt lat="45.34562" lon="5.83237">
        <ele>1348</ele>
        <time>2022-03-06T09:15:11Z</time>
      </trkpt>
      <trkpt lat="45.34561" lon="5.8324">
        <ele>1349</ele>
        <time>2022-03-06T09:15:14Z</time>
      </trkpt>
      <trkpt lat="45.34561" lon="5.8324">
        <ele>1349</ele>
        <time>2022-03-06T09:15:15Z</time>
      </trkpt>
      <trkpt lat="45.3456" lon="5.83243">
        <ele>1349</ele>
        <time>2022-03-06T09:15:17Z</time>
      </trkpt>
      <trkpt lat="45.3456" lon="5.83243">
        <ele>1350</ele>
        <time>2022-03-06T09:15:20Z</time>
      </trkpt>
      <trkpt lat="45.34561" lon="5.83247">
        <ele>1350</ele>
        <time>2022-03-06T09:15:21Z</time>
      </trkpt>
      <trkpt lat="45.34561" lon="5.8325">
        <ele>1352</ele>
        <time>2022-03-06T09:15:24Z</time>
      </trkpt>
      <trkpt lat="45.34561" lon="5.8325">
        <ele>1353</ele>
        <time>2022-03-06T09:15:26Z</time>
      </trkpt>
      <trkpt lat="45.34561" lon="5.83253">
        <ele>1353</ele>
        <time>2022-03-06T09:15:27Z</time>
      </trkpt>
      <trkpt lat="45.34561" lon="5.83256">
        <ele>1353</ele>
        <time>2022-03-06T09:15:29Z</time>
      </trkpt>
      <trkpt lat="45.3456" lon="5.83259">
        <ele>1353</ele>
        <time>2022-03-06T09:15:31Z</time>
      </trkpt>
      <trkpt lat="45.3456" lon="5.83259">
        <ele>1353</ele>
        <time>2022-03-06T09:15:33Z</time>
      </trkpt>
      <trkpt lat="45.3456" lon="5.83263">
        <ele>1353</ele>
        <time>2022-03-06T09:15:34Z</time>
      </trkpt>
      <trkpt lat="45.34559" lon="5.83267">
        <ele>1354</ele>
        <time>2022-03-06T09:15:37Z</time>
      </trkpt>
      <trkpt lat="45.34559" lon="5.83267">
        <ele>1354</ele>
        <time>2022-03-06T09:15:39Z</time>
      </trkpt>
      <trkpt lat="45.34559" lon="5.83271">
        <ele>1354</ele>
        <time>2022-03-06T09:15:40Z</time>
      </trkpt>
      <trkpt lat="45.34557" lon="5.83274">
        <ele>1355</ele>
        <time>2022-03-06T09:15:43Z</time>
      </trkpt>
      <trkpt lat="45.34556" lon="5.83276">
        <ele>1355</ele>
        <time>2022-03-06T09:15:45Z</time>
      </trkpt>
      <trkpt lat="45.34555" lon="5.83279">
        <ele>1355</ele>
        <time>2022-03-06T09:15:47Z</time>
      </trkpt>
      <trkpt lat="45.34555" lon="5.83281">
        <ele>1355</ele>
        <time>2022-03-06T09:15:49Z</time>
      </trkpt>
      <trkpt lat="45.34554" lon="5.83284">
        <ele>1355</ele>
        <time>2022-03-06T09:15:51Z</time>
      </trkpt>
      <trkpt lat="45.34553" lon="5.83287">
        <ele>1356</ele>
        <time>2022-03-06T09:15:53Z</time>
      </trkpt>
      <trkpt lat="45.34552" lon="5.83289">
        <ele>1356</ele>
        <time>2022-03-06T09:15:55Z</time>
      </trkpt>
      <trkpt lat="45.34551" lon="5.83291">
        <ele>1357</ele>
        <time>2022-03-06T09:15:57Z</time>
      </trkpt>
      <trkpt lat="45.3455" lon="5.83294">
        <ele>1357</ele>
        <time>2022-03-06T09:16:00Z</time>
      </trkpt>
      <trkpt lat="45.3455" lon="5.83294">
        <ele>1357</ele>
        <time>2022-03-06T09:16:01Z</time>
      </trkpt>
      <trkpt lat="45.34549" lon="5.83297">
        <ele>1357</ele>
        <time>2022-03-06T09:16:03Z</time>
      </trkpt>
      <trkpt lat="45.34548" lon="5.833">
        <ele>1358</ele>
        <time>2022-03-06T09:16:06Z</time>
      </trkpt>
      <trkpt lat="45.34548" lon="5.833">
        <ele>1359</ele>
        <time>2022-03-06T09:16:07Z</time>
      </trkpt>
      <trkpt lat="45.34546" lon="5.83303">
        <ele>1359</ele>
        <time>2022-03-06T09:16:09Z</time>
      </trkpt>
      <trkpt lat="45.34544" lon="5.83306">
        <ele>1360</ele>
        <time>2022-03-06T09:16:12Z</time>
      </trkpt>
      <trkpt lat="45.34544" lon="5.83306">
        <ele>1360</ele>
        <time>2022-03-06T09:16:13Z</time>
      </trkpt>
      <trkpt lat="45.34543" lon="5.83309">
        <ele>1361</ele>
        <time>2022-03-06T09:16:15Z</time>
      </trkpt>
      <trkpt lat="45.34542" lon="5.83312">
        <ele>1361</ele>
        <time>2022-03-06T09:16:18Z</time>
      </trkpt>
      <trkpt lat="45.34542" lon="5.83312">
        <ele>1361</ele>
        <time>2022-03-06T09:16:19Z</time>
      </trkpt>
      <trkpt lat="45.3454" lon="5.83315">
        <ele>1361</ele>
        <time>2022-03-06T09:16:21Z</time>
      </trkpt>
      <trkpt lat="45.34539" lon="5.83318">
        <ele>1362</ele>
        <time>2022-03-06T09:16:24Z</time>
      </trkpt>
      <trkpt lat="45.34539" lon="5.83318">
        <ele>1363</ele>
        <time>2022-03-06T09:16:25Z</time>
      </trkpt>
      <trkpt lat="45.34538" lon="5.83322">
        <ele>1363</ele>
        <time>2022-03-06T09:16:26Z</time>
      </trkpt>
      <trkpt lat="45.34538" lon="5.83326">
        <ele>1363</ele>
        <time>2022-03-06T09:16:30Z</time>
      </trkpt>
      <trkpt lat="45.34538" lon="5.83326">
        <ele>1363</ele>
        <time>2022-03-06T09:16:31Z</time>
      </trkpt>
      <trkpt lat="45.34536" lon="5.83329">
        <ele>1363</ele>
        <time>2022-03-06T09:16:33Z</time>
      </trkpt>
      <trkpt lat="45.34535" lon="5.83333">
        <ele>1364</ele>
        <time>2022-03-06T09:16:36Z</time>
      </trkpt>
      <trkpt lat="45.34535" lon="5.83333">
        <ele>1365</ele>
        <time>2022-03-06T09:16:37Z</time>
      </trkpt>
      <trkpt lat="45.34534" lon="5.83336">
        <ele>1365</ele>
        <time>2022-03-06T09:16:39Z</time>
      </trkpt>
      <trkpt lat="45.34533" lon="5.83339">
        <ele>1366</ele>
        <time>2022-03-06T09:16:42Z</time>
      </trkpt>
      <trkpt lat="45.34533" lon="5.83339">
        <ele>1366</ele>
        <time>2022-03-06T09:16:43Z</time>
      </trkpt>
      <trkpt lat="45.34532" lon="5.83342">
        <ele>1367</ele>
        <time>2022-03-06T09:16:45Z</time>
      </trkpt>
      <trkpt lat="45.34532" lon="5.83345">
        <ele>1367</ele>
        <time>2022-03-06T09:16:48Z</time>
      </trkpt>
      <trkpt lat="45.34532" lon="5.83345">
        <ele>1367</ele>
        <time>2022-03-06T09:16:49Z</time>
      </trkpt>
      <trkpt lat="45.34531" lon="5.83349">
        <ele>1368</ele>
        <time>2022-03-06T09:16:51Z</time>
      </trkpt>
      <trkpt lat="45.3453" lon="5.83352">
        <ele>1368</ele>
        <time>2022-03-06T09:16:54Z</time>
      </trkpt>
      <trkpt lat="45.3453" lon="5.83352">
        <ele>1368</ele>
        <time>2022-03-06T09:16:55Z</time>
      </trkpt>
      <trkpt lat="45.34529" lon="5.83355">
        <ele>1369</ele>
        <time>2022-03-06T09:16:57Z</time>
      </trkpt>
      <trkpt lat="45.34528" lon="5.83358">
        <ele>1370</ele>
        <time>2022-03-06T09:17:00Z</time>
      </trkpt>
      <trkpt lat="45.34528" lon="5.83358">
        <ele>1370</ele>
        <time>2022-03-06T09:17:01Z</time>
      </trkpt>
      <trkpt lat="45.34528" lon="5.83362">
        <ele>1370</ele>
        <time>2022-03-06T09:17:03Z</time>
      </trkpt>
      <trkpt lat="45.34528" lon="5.83366">
        <ele>1371</ele>
        <time>2022-03-06T09:17:06Z</time>
      </trkpt>
      <trkpt lat="45.34528" lon="5.83366">
        <ele>1371</ele>
        <time>2022-03-06T09:17:07Z</time>
      </trkpt>
      <trkpt lat="45.34528" lon="5.83368">
        <ele>1371</ele>
        <time>2022-03-06T09:17:08Z</time>
      </trkpt>
      <trkpt lat="45.34527" lon="5.83371">
        <ele>1372</ele>
        <time>2022-03-06T09:17:11Z</time>
      </trkpt>
      <trkpt lat="45.34525" lon="5.83374">
        <ele>1372</ele>
        <time>2022-03-06T09:17:13Z</time>
      </trkpt>
      <trkpt lat="45.34525" lon="5.83374">
        <ele>1372</ele>
        <time>2022-03-06T09:17:16Z</time>
      </trkpt>
      <trkpt lat="45.34524" lon="5.83377">
        <ele>1372</ele>
        <time>2022-03-06T09:17:17Z</time>
      </trkpt>
      <trkpt lat="45.34523" lon="5.8338">
        <ele>1372</ele>
        <time>2022-03-06T09:17:20Z</time>
      </trkpt>
      <trkpt lat="45.34523" lon="5.8338">
        <ele>1373</ele>
        <time>2022-03-06T09:17:22Z</time>
      </trkpt>
      <trkpt lat="45.34521" lon="5.83383">
        <ele>1374</ele>
        <time>2022-03-06T09:17:23Z</time>
      </trkpt>
      <trkpt lat="45.3452" lon="5.83386">
        <ele>1374</ele>
        <time>2022-03-06T09:17:26Z</time>
      </trkpt>
      <trkpt lat="45.3452" lon="5.83386">
        <ele>1375</ele>
        <time>2022-03-06T09:17:28Z</time>
      </trkpt>
      <trkpt lat="45.34519" lon="5.83389">
        <ele>1375</ele>
        <time>2022-03-06T09:17:29Z</time>
      </trkpt>
      <trkpt lat="45.34518" lon="5.83392">
        <ele>1375</ele>
        <time>2022-03-06T09:17:32Z</time>
      </trkpt>
      <trkpt lat="45.34518" lon="5.83392">
        <ele>1376</ele>
        <time>2022-03-06T09:17:34Z</time>
      </trkpt>
      <trkpt lat="45.34517" lon="5.83394">
        <ele>1377</ele>
        <time>2022-03-06T09:17:35Z</time>
      </trkpt>
      <trkpt lat="45.34518" lon="5.83397">
        <ele>1377</ele>
        <time>2022-03-06T09:17:38Z</time>
      </trkpt>
      <trkpt lat="45.34518" lon="5.83397">
        <ele>1378</ele>
        <time>2022-03-06T09:17:40Z</time>
      </trkpt>
      <trkpt lat="45.34516" lon="5.834">
        <ele>1378</ele>
        <time>2022-03-06T09:17:41Z</time>
      </trkpt>
      <trkpt lat="45.34515" lon="5.83402">
        <ele>1379</ele>
        <time>2022-03-06T09:17:44Z</time>
      </trkpt>
      <trkpt lat="45.34515" lon="5.83402">
        <ele>1379</ele>
        <time>2022-03-06T09:17:46Z</time>
      </trkpt>
      <trkpt lat="45.34513" lon="5.83404">
        <ele>1379</ele>
        <time>2022-03-06T09:17:47Z</time>
      </trkpt>
      <trkpt lat="45.34512" lon="5.83406">
        <ele>1380</ele>
        <time>2022-03-06T09:17:50Z</time>
      </trkpt>
      <trkpt lat="45.34512" lon="5.83406">
        <ele>1380</ele>
        <time>2022-03-06T09:17:52Z</time>
      </trkpt>
      <trkpt lat="45.34512" lon="5.83409">
        <ele>1381</ele>
        <time>2022-03-06T09:17:55Z</time>
      </trkpt>
      <trkpt lat="45.34514" lon="5.8341">
        <ele>1381</ele>
        <time>2022-03-06T09:17:57Z</time>
      </trkpt>
      <trkpt lat="45.34516" lon="5.83411">
        <ele>1382</ele>
        <time>2022-03-06T09:18:00Z</time>
      </trkpt>
      <trkpt lat="45.34516" lon="5.83411">
        <ele>1382</ele>
        <time>2022-03-06T09:18:01Z</time>
      </trkpt>
      <trkpt lat="45.34518" lon="5.83413">
        <ele>1383</ele>
        <time>2022-03-06T09:18:03Z</time>
      </trkpt>
      <trkpt lat="45.3452" lon="5.83415">
        <ele>1383</ele>
        <time>2022-03-06T09:18:06Z</time>
      </trkpt>
      <trkpt lat="45.3452" lon="5.83415">
        <ele>1383</ele>
        <time>2022-03-06T09:18:07Z</time>
      </trkpt>
      <trkpt lat="45.34521" lon="5.83418">
        <ele>1385</ele>
        <time>2022-03-06T09:18:09Z</time>
      </trkpt>
      <trkpt lat="45.34521" lon="5.83421">
        <ele>1385</ele>
        <time>2022-03-06T09:18:12Z</time>
      </trkpt>
      <trkpt lat="45.34521" lon="5.83421">
        <ele>1385</ele>
        <time>2022-03-06T09:18:13Z</time>
      </trkpt>
      <trkpt lat="45.34521" lon="5.83424">
        <ele>1385</ele>
        <time>2022-03-06T09:18:15Z</time>
      </trkpt>
      <trkpt lat="45.34521" lon="5.83428">
        <ele>1386</ele>
        <time>2022-03-06T09:18:18Z</time>
      </trkpt>
      <trkpt lat="45.34521" lon="5.83428">
        <ele>1387</ele>
        <time>2022-03-06T09:18:19Z</time>
      </trkpt>
      <trkpt lat="45.34521" lon="5.83431">
        <ele>1387</ele>
        <time>2022-03-06T09:18:21Z</time>
      </trkpt>
      <trkpt lat="45.34519" lon="5.83433">
        <ele>1387</ele>
        <time>2022-03-06T09:18:24Z</time>
      </trkpt>
      <trkpt lat="45.34519" lon="5.83433">
        <ele>1388</ele>
        <time>2022-03-06T09:18:25Z</time>
      </trkpt>
      <trkpt lat="45.34518" lon="5.83435">
        <ele>1388</ele>
        <time>2022-03-06T09:18:27Z</time>
      </trkpt>
      <trkpt lat="45.34517" lon="5.83438">
        <ele>1388</ele>
        <time>2022-03-06T09:18:29Z</time>
      </trkpt>
      <trkpt lat="45.34517" lon="5.83438">
        <ele>1388</ele>
        <time>2022-03-06T09:18:31Z</time>
      </trkpt>
      <trkpt lat="45.34516" lon="5.83441">
        <ele>1389</ele>
        <time>2022-03-06T09:18:33Z</time>
      </trkpt>
      <trkpt lat="45.34516" lon="5.83443">
        <ele>1390</ele>
        <time>2022-03-06T09:18:36Z</time>
      </trkpt>
      <trkpt lat="45.34516" lon="5.83443">
        <ele>1390</ele>
        <time>2022-03-06T09:18:37Z</time>
      </trkpt>
      <trkpt lat="45.34516" lon="5.83446">
        <ele>1390</ele>
        <time>2022-03-06T09:18:39Z</time>
      </trkpt>
      <trkpt lat="45.34516" lon="5.83446">
        <ele>1391</ele>
        <time>2022-03-06T09:18:42Z</time>
      </trkpt>
      <trkpt lat="45.34516" lon="5.83449">
        <ele>1391</ele>
        <time>2022-03-06T09:18:43Z</time>
      </trkpt>
      <trkpt lat="45.34516" lon="5.83452">
        <ele>1391</ele>
        <time>2022-03-06T09:18:46Z</time>
      </trkpt>
      <trkpt lat="45.34516" lon="5.83456">
        <ele>1392</ele>
        <time>2022-03-06T09:18:48Z</time>
      </trkpt>
      <trkpt lat="45.34516" lon="5.83456">
        <ele>1393</ele>
        <time>2022-03-06T09:18:51Z</time>
      </trkpt>
      <trkpt lat="45.34517" lon="5.83459">
        <ele>1393</ele>
        <time>2022-03-06T09:18:52Z</time>
      </trkpt>
      <trkpt lat="45.34517" lon="5.83463">
        <ele>1393</ele>
        <time>2022-03-06T09:18:55Z</time>
      </trkpt>
      <trkpt lat="45.34517" lon="5.83463">
        <ele>1394</ele>
        <time>2022-03-06T09:18:57Z</time>
      </trkpt>
      <trkpt lat="45.34517" lon="5.83467">
        <ele>1395</ele>
        <time>2022-03-06T09:18:58Z</time>
      </trkpt>
      <trkpt lat="45.34518" lon="5.8347">
        <ele>1395</ele>
        <time>2022-03-06T09:19:01Z</time>
      </trkpt>
      <trkpt lat="45.34518" lon="5.8347">
        <ele>1395</ele>
        <time>2022-03-06T09:19:03Z</time>
      </trkpt>
      <trkpt lat="45.34518" lon="5.83474">
        <ele>1395</ele>
        <time>2022-03-06T09:19:04Z</time>
      </trkpt>
      <trkpt lat="45.34518" lon="5.83477">
        <ele>1396</ele>
        <time>2022-03-06T09:19:07Z</time>
      </trkpt>
      <trkpt lat="45.34518" lon="5.83477">
        <ele>1396</ele>
        <time>2022-03-06T09:19:09Z</time>
      </trkpt>
      <trkpt lat="45.34518" lon="5.83481">
        <ele>1397</ele>
        <time>2022-03-06T09:19:10Z</time>
      </trkpt>
      <trkpt lat="45.34519" lon="5.83484">
        <ele>1397</ele>
        <time>2022-03-06T09:19:13Z</time>
      </trkpt>
      <trkpt lat="45.34519" lon="5.83484">
        <ele>1397</ele>
        <time>2022-03-06T09:19:15Z</time>
      </trkpt>
      <trkpt lat="45.34519" lon="5.83488">
        <ele>1398</ele>
        <time>2022-03-06T09:19:16Z</time>
      </trkpt>
      <trkpt lat="45.34519" lon="5.83491">
        <ele>1398</ele>
        <time>2022-03-06T09:19:19Z</time>
      </trkpt>
      <trkpt lat="45.34519" lon="5.83491">
        <ele>1399</ele>
        <time>2022-03-06T09:19:21Z</time>
      </trkpt>
      <trkpt lat="45.34519" lon="5.83495">
        <ele>1399</ele>
        <time>2022-03-06T09:19:22Z</time>
      </trkpt>
      <trkpt lat="45.34518" lon="5.83499">
        <ele>1400</ele>
        <time>2022-03-06T09:19:25Z</time>
      </trkpt>
      <trkpt lat="45.34518" lon="5.83499">
        <ele>1400</ele>
        <time>2022-03-06T09:19:27Z</time>
      </trkpt>
      <trkpt lat="45.34518" lon="5.83502">
        <ele>1400</ele>
        <time>2022-03-06T09:19:28Z</time>
      </trkpt>
      <trkpt lat="45.34518" lon="5.83506">
        <ele>1400</ele>
        <time>2022-03-06T09:19:31Z</time>
      </trkpt>
      <trkpt lat="45.34518" lon="5.83506">
        <ele>1401</ele>
        <time>2022-03-06T09:19:33Z</time>
      </trkpt>
      <trkpt lat="45.34517" lon="5.83509">
        <ele>1401</ele>
        <time>2022-03-06T09:19:34Z</time>
      </trkpt>
      <trkpt lat="45.34517" lon="5.83512">
        <ele>1401</ele>
        <time>2022-03-06T09:19:37Z</time>
      </trkpt>
      <trkpt lat="45.34517" lon="5.83512">
        <ele>1402</ele>
        <time>2022-03-06T09:19:39Z</time>
      </trkpt>
      <trkpt lat="45.34517" lon="5.83516">
        <ele>1402</ele>
        <time>2022-03-06T09:19:40Z</time>
      </trkpt>
      <trkpt lat="45.34517" lon="5.8352">
        <ele>1402</ele>
        <time>2022-03-06T09:19:43Z</time>
      </trkpt>
      <trkpt lat="45.34517" lon="5.8352">
        <ele>1403</ele>
        <time>2022-03-06T09:19:45Z</time>
      </trkpt>
      <trkpt lat="45.34518" lon="5.83523">
        <ele>1403</ele>
        <time>2022-03-06T09:19:46Z</time>
      </trkpt>
      <trkpt lat="45.34518" lon="5.83527">
        <ele>1403</ele>
        <time>2022-03-06T09:19:49Z</time>
      </trkpt>
      <trkpt lat="45.34518" lon="5.83527">
        <ele>1404</ele>
        <time>2022-03-06T09:19:51Z</time>
      </trkpt>
      <trkpt lat="45.34519" lon="5.83531">
        <ele>1404</ele>
        <time>2022-03-06T09:19:52Z</time>
      </trkpt>
      <trkpt lat="45.34519" lon="5.83534">
        <ele>1405</ele>
        <time>2022-03-06T09:19:54Z</time>
      </trkpt>
      <trkpt lat="45.3452" lon="5.83537">
        <ele>1405</ele>
        <time>2022-03-06T09:19:56Z</time>
      </trkpt>
      <trkpt lat="45.34521" lon="5.83539">
        <ele>1405</ele>
        <time>2022-03-06T09:19:58Z</time>
      </trkpt>
      <trkpt lat="45.34521" lon="5.83543">
        <ele>1405</ele>
        <time>2022-03-06T09:20:00Z</time>
      </trkpt>
      <trkpt lat="45.34521" lon="5.83543">
        <ele>1406</ele>
        <time>2022-03-06T09:20:02Z</time>
      </trkpt>
      <trkpt lat="45.34522" lon="5.83546">
        <ele>1406</ele>
        <time>2022-03-06T09:20:03Z</time>
      </trkpt>
      <trkpt lat="45.34522" lon="5.8355">
        <ele>1406</ele>
        <time>2022-03-06T09:20:04Z</time>
      </trkpt>
      <trkpt lat="45.34523" lon="5.83553">
        <ele>1407</ele>
        <time>2022-03-06T09:20:07Z</time>
      </trkpt>
      <trkpt lat="45.34523" lon="5.83553">
        <ele>1407</ele>
        <time>2022-03-06T09:20:09Z</time>
      </trkpt>
      <trkpt lat="45.34524" lon="5.83556">
        <ele>1407</ele>
        <time>2022-03-06T09:20:10Z</time>
      </trkpt>
      <trkpt lat="45.34524" lon="5.83559">
        <ele>1407</ele>
        <time>2022-03-06T09:20:12Z</time>
      </trkpt>
      <trkpt lat="45.34524" lon="5.83563">
        <ele>1408</ele>
        <time>2022-03-06T09:20:15Z</time>
      </trkpt>
      <trkpt lat="45.34524" lon="5.83563">
        <ele>1408</ele>
        <time>2022-03-06T09:20:16Z</time>
      </trkpt>
      <trkpt lat="45.34525" lon="5.83566">
        <ele>1409</ele>
        <time>2022-03-06T09:20:18Z</time>
      </trkpt>
      <trkpt lat="45.34524" lon="5.83569">
        <ele>1410</ele>
        <time>2022-03-06T09:20:21Z</time>
      </trkpt>
      <trkpt lat="45.34524" lon="5.83569">
        <ele>1410</ele>
        <time>2022-03-06T09:20:22Z</time>
      </trkpt>
      <trkpt lat="45.34525" lon="5.83573">
        <ele>1410</ele>
        <time>2022-03-06T09:20:23Z</time>
      </trkpt>
      <trkpt lat="45.34525" lon="5.83576">
        <ele>1410</ele>
        <time>2022-03-06T09:20:26Z</time>
      </trkpt>
      <trkpt lat="45.34525" lon="5.83576">
        <ele>1411</ele>
        <time>2022-03-06T09:20:28Z</time>
      </trkpt>
      <trkpt lat="45.34525" lon="5.83579">
        <ele>1411</ele>
        <time>2022-03-06T09:20:29Z</time>
      </trkpt>
      <trkpt lat="45.34525" lon="5.83582">
        <ele>1411</ele>
        <time>2022-03-06T09:20:31Z</time>
      </trkpt>
      <trkpt lat="45.34525" lon="5.83585">
        <ele>1412</ele>
        <time>2022-03-06T09:20:34Z</time>
      </trkpt>
      <trkpt lat="45.34525" lon="5.83585">
        <ele>1412</ele>
        <time>2022-03-06T09:20:35Z</time>
      </trkpt>
      <trkpt lat="45.34523" lon="5.83587">
        <ele>1413</ele>
        <time>2022-03-06T09:20:38Z</time>
      </trkpt>
      <trkpt lat="45.34523" lon="5.83587">
        <ele>1413</ele>
        <time>2022-03-06T09:20:40Z</time>
      </trkpt>
      <trkpt lat="45.34522" lon="5.83589">
        <ele>1414</ele>
        <time>2022-03-06T09:20:41Z</time>
      </trkpt>
      <trkpt lat="45.3452" lon="5.83592">
        <ele>1415</ele>
        <time>2022-03-06T09:20:44Z</time>
      </trkpt>
      <trkpt lat="45.3452" lon="5.83592">
        <ele>1415</ele>
        <time>2022-03-06T09:20:46Z</time>
      </trkpt>
      <trkpt lat="45.34519" lon="5.83594">
        <ele>1415</ele>
        <time>2022-03-06T09:20:47Z</time>
      </trkpt>
      <trkpt lat="45.34518" lon="5.83597">
        <ele>1416</ele>
        <time>2022-03-06T09:20:50Z</time>
      </trkpt>
      <trkpt lat="45.34518" lon="5.83597">
        <ele>1417</ele>
        <time>2022-03-06T09:20:52Z</time>
      </trkpt>
      <trkpt lat="45.34517" lon="5.836">
        <ele>1417</ele>
        <time>2022-03-06T09:20:53Z</time>
      </trkpt>
      <trkpt lat="45.34516" lon="5.83603">
        <ele>1417</ele>
        <time>2022-03-06T09:20:55Z</time>
      </trkpt>
      <trkpt lat="45.34515" lon="5.83606">
        <ele>1417</ele>
        <time>2022-03-06T09:20:58Z</time>
      </trkpt>
      <trkpt lat="45.34515" lon="5.83606">
        <ele>1417</ele>
        <time>2022-03-06T09:20:59Z</time>
      </trkpt>
      <trkpt lat="45.34514" lon="5.83609">
        <ele>1417</ele>
        <time>2022-03-06T09:21:01Z</time>
      </trkpt>
      <trkpt lat="45.34512" lon="5.83612">
        <ele>1418</ele>
        <time>2022-03-06T09:21:04Z</time>
      </trkpt>
      <trkpt lat="45.34512" lon="5.83612">
        <ele>1419</ele>
        <time>2022-03-06T09:21:05Z</time>
      </trkpt>
      <trkpt lat="45.3451" lon="5.83614">
        <ele>1419</ele>
        <time>2022-03-06T09:21:07Z</time>
      </trkpt>
      <trkpt lat="45.34509" lon="5.83617">
        <ele>1419</ele>
        <time>2022-03-06T09:21:10Z</time>
      </trkpt>
      <trkpt lat="45.34509" lon="5.83617">
        <ele>1419</ele>
        <time>2022-03-06T09:21:11Z</time>
      </trkpt>
      <trkpt lat="45.34508" lon="5.8362">
        <ele>1419</ele>
        <time>2022-03-06T09:21:13Z</time>
      </trkpt>
      <trkpt lat="45.34508" lon="5.83623">
        <ele>1420</ele>
        <time>2022-03-06T09:21:16Z</time>
      </trkpt>
      <trkpt lat="45.34508" lon="5.83623">
        <ele>1420</ele>
        <time>2022-03-06T09:21:17Z</time>
      </trkpt>
      <trkpt lat="45.34506" lon="5.83625">
        <ele>1421</ele>
        <time>2022-03-06T09:21:19Z</time>
      </trkpt>
      <trkpt lat="45.34505" lon="5.83628">
        <ele>1421</ele>
        <time>2022-03-06T09:21:22Z</time>
      </trkpt>
      <trkpt lat="45.34505" lon="5.83628">
        <ele>1422</ele>
        <time>2022-03-06T09:21:23Z</time>
      </trkpt>
      <trkpt lat="45.34503" lon="5.8363">
        <ele>1422</ele>
        <time>2022-03-06T09:21:25Z</time>
      </trkpt>
      <trkpt lat="45.34503" lon="5.83632">
        <ele>1423</ele>
        <time>2022-03-06T09:21:28Z</time>
      </trkpt>
      <trkpt lat="45.34503" lon="5.83632">
        <ele>1423</ele>
        <time>2022-03-06T09:21:29Z</time>
      </trkpt>
      <trkpt lat="45.34503" lon="5.83635">
        <ele>1423</ele>
        <time>2022-03-06T09:21:31Z</time>
      </trkpt>
      <trkpt lat="45.34504" lon="5.83638">
        <ele>1424</ele>
        <time>2022-03-06T09:21:34Z</time>
      </trkpt>
      <trkpt lat="45.34504" lon="5.83638">
        <ele>1424</ele>
        <time>2022-03-06T09:21:35Z</time>
      </trkpt>
      <trkpt lat="45.34505" lon="5.83641">
        <ele>1425</ele>
        <time>2022-03-06T09:21:37Z</time>
      </trkpt>
      <trkpt lat="45.34506" lon="5.83644">
        <ele>1425</ele>
        <time>2022-03-06T09:21:39Z</time>
      </trkpt>
      <trkpt lat="45.34506" lon="5.83644">
        <ele>1426</ele>
        <time>2022-03-06T09:21:41Z</time>
      </trkpt>
      <trkpt lat="45.34507" lon="5.83646">
        <ele>1426</ele>
        <time>2022-03-06T09:21:43Z</time>
      </trkpt>
      <trkpt lat="45.34509" lon="5.83649">
        <ele>1427</ele>
        <time>2022-03-06T09:21:46Z</time>
      </trkpt>
      <trkpt lat="45.34509" lon="5.83649">
        <ele>1427</ele>
        <time>2022-03-06T09:21:47Z</time>
      </trkpt>
      <trkpt lat="45.34509" lon="5.83651">
        <ele>1428</ele>
        <time>2022-03-06T09:21:49Z</time>
      </trkpt>
      <trkpt lat="45.3451" lon="5.83654">
        <ele>1428</ele>
        <time>2022-03-06T09:21:52Z</time>
      </trkpt>
      <trkpt lat="45.3451" lon="5.83654">
        <ele>1429</ele>
        <time>2022-03-06T09:21:53Z</time>
      </trkpt>
      <trkpt lat="45.34511" lon="5.83657">
        <ele>1429</ele>
        <time>2022-03-06T09:21:55Z</time>
      </trkpt>
      <trkpt lat="45.34511" lon="5.8366">
        <ele>1429</ele>
        <time>2022-03-06T09:21:58Z</time>
      </trkpt>
      <trkpt lat="45.34511" lon="5.8366">
        <ele>1429</ele>
        <time>2022-03-06T09:21:59Z</time>
      </trkpt>
      <trkpt lat="45.34511" lon="5.83663">
        <ele>1430</ele>
        <time>2022-03-06T09:22:02Z</time>
      </trkpt>
      <trkpt lat="45.34511" lon="5.83663">
        <ele>1431</ele>
        <time>2022-03-06T09:22:04Z</time>
      </trkpt>
      <trkpt lat="45.34512" lon="5.83666">
        <ele>1431</ele>
        <time>2022-03-06T09:22:05Z</time>
      </trkpt>
      <trkpt lat="45.34513" lon="5.83669">
        <ele>1431</ele>
        <time>2022-03-06T09:22:08Z</time>
      </trkpt>
      <trkpt lat="45.34513" lon="5.83669">
        <ele>1432</ele>
        <time>2022-03-06T09:22:10Z</time>
      </trkpt>
      <trkpt lat="45.34513" lon="5.83672">
        <ele>1432</ele>
        <time>2022-03-06T09:22:11Z</time>
      </trkpt>
      <trkpt lat="45.34514" lon="5.83675">
        <ele>1433</ele>
        <time>2022-03-06T09:22:14Z</time>
      </trkpt>
      <trkpt lat="45.34514" lon="5.83675">
        <ele>1434</ele>
        <time>2022-03-06T09:22:16Z</time>
      </trkpt>
      <trkpt lat="45.34515" lon="5.83678">
        <ele>1434</ele>
        <time>2022-03-06T09:22:17Z</time>
      </trkpt>
      <trkpt lat="45.34515" lon="5.83681">
        <ele>1434</ele>
        <time>2022-03-06T09:22:20Z</time>
      </trkpt>
      <trkpt lat="45.34515" lon="5.83681">
        <ele>1435</ele>
        <time>2022-03-06T09:22:22Z</time>
      </trkpt>
      <trkpt lat="45.34514" lon="5.83684">
        <ele>1435</ele>
        <time>2022-03-06T09:22:23Z</time>
      </trkpt>
      <trkpt lat="45.34512" lon="5.83684">
        <ele>1435</ele>
        <time>2022-03-06T09:22:26Z</time>
      </trkpt>
      <trkpt lat="45.34512" lon="5.83684">
        <ele>1435</ele>
        <time>2022-03-06T09:22:28Z</time>
      </trkpt>
      <trkpt lat="45.34509" lon="5.83684">
        <ele>1435</ele>
        <time>2022-03-06T09:22:29Z</time>
      </trkpt>
      <trkpt lat="45.34507" lon="5.83684">
        <ele>1436</ele>
        <time>2022-03-06T09:22:32Z</time>
      </trkpt>
      <trkpt lat="45.34507" lon="5.83684">
        <ele>1436</ele>
        <time>2022-03-06T09:22:34Z</time>
      </trkpt>
      <trkpt lat="45.34504" lon="5.83684">
        <ele>1437</ele>
        <time>2022-03-06T09:22:35Z</time>
      </trkpt>
      <trkpt lat="45.34502" lon="5.83684">
        <ele>1437</ele>
        <time>2022-03-06T09:22:38Z</time>
      </trkpt>
      <trkpt lat="45.34502" lon="5.83684">
        <ele>1437</ele>
        <time>2022-03-06T09:22:40Z</time>
      </trkpt>
      <trkpt lat="45.345" lon="5.83684">
        <ele>1437</ele>
        <time>2022-03-06T09:22:41Z</time>
      </trkpt>
      <trkpt lat="45.34498" lon="5.83684">
        <ele>1438</ele>
        <time>2022-03-06T09:22:44Z</time>
      </trkpt>
      <trkpt lat="45.34498" lon="5.83684">
        <ele>1439</ele>
        <time>2022-03-06T09:22:46Z</time>
      </trkpt>
      <trkpt lat="45.34496" lon="5.83684">
        <ele>1439</ele>
        <time>2022-03-06T09:22:47Z</time>
      </trkpt>
      <trkpt lat="45.34493" lon="5.83685">
        <ele>1439</ele>
        <time>2022-03-06T09:22:50Z</time>
      </trkpt>
      <trkpt lat="45.34493" lon="5.83685">
        <ele>1440</ele>
        <time>2022-03-06T09:22:52Z</time>
      </trkpt>
      <trkpt lat="45.34491" lon="5.83685">
        <ele>1440</ele>
        <time>2022-03-06T09:22:53Z</time>
      </trkpt>
      <trkpt lat="45.34489" lon="5.83685">
        <ele>1441</ele>
        <time>2022-03-06T09:22:55Z</time>
      </trkpt>
      <trkpt lat="45.34489" lon="5.83685">
        <ele>1442</ele>
        <time>2022-03-06T09:22:58Z</time>
      </trkpt>
      <trkpt lat="45.34487" lon="5.83685">
        <ele>1442</ele>
        <time>2022-03-06T09:22:59Z</time>
      </trkpt>
      <trkpt lat="45.34485" lon="5.83686">
        <ele>1442</ele>
        <time>2022-03-06T09:23:02Z</time>
      </trkpt>
      <trkpt lat="45.34485" lon="5.83686">
        <ele>1443</ele>
        <time>2022-03-06T09:23:04Z</time>
      </trkpt>
      <trkpt lat="45.34483" lon="5.83686">
        <ele>1443</ele>
        <time>2022-03-06T09:23:05Z</time>
      </trkpt>
      <trkpt lat="45.34483" lon="5.83686">
        <ele>1443</ele>
        <time>2022-03-06T09:23:09Z</time>
      </trkpt>
      <trkpt lat="45.34483" lon="5.83686">
        <ele>1443</ele>
        <time>2022-03-06T09:23:13Z</time>
      </trkpt>
      <trkpt lat="45.34484" lon="5.83689">
        <ele>1443</ele>
        <time>2022-03-06T09:23:14Z</time>
      </trkpt>
      <trkpt lat="45.34485" lon="5.83691">
        <ele>1444</ele>
        <time>2022-03-06T09:23:16Z</time>
      </trkpt>
      <trkpt lat="45.34487" lon="5.83694">
        <ele>1444</ele>
        <time>2022-03-06T09:23:19Z</time>
      </trkpt>
      <trkpt lat="45.34487" lon="5.83694">
        <ele>1445</ele>
        <time>2022-03-06T09:23:20Z</time>
      </trkpt>
      <trkpt lat="45.34489" lon="5.83696">
        <ele>1445</ele>
        <time>2022-03-06T09:23:22Z</time>
      </trkpt>
      <trkpt lat="45.34491" lon="5.83698">
        <ele>1446</ele>
        <time>2022-03-06T09:23:25Z</time>
      </trkpt>
      <trkpt lat="45.34491" lon="5.83698">
        <ele>1446</ele>
        <time>2022-03-06T09:23:26Z</time>
      </trkpt>
      <trkpt lat="45.34492" lon="5.837">
        <ele>1446</ele>
        <time>2022-03-06T09:23:28Z</time>
      </trkpt>
      <trkpt lat="45.34494" lon="5.83702">
        <ele>1447</ele>
        <time>2022-03-06T09:23:31Z</time>
      </trkpt>
      <trkpt lat="45.34494" lon="5.83702">
        <ele>1447</ele>
        <time>2022-03-06T09:23:32Z</time>
      </trkpt>
      <trkpt lat="45.34495" lon="5.83704">
        <ele>1447</ele>
        <time>2022-03-06T09:23:34Z</time>
      </trkpt>
      <trkpt lat="45.34496" lon="5.83707">
        <ele>1448</ele>
        <time>2022-03-06T09:23:37Z</time>
      </trkpt>
      <trkpt lat="45.34496" lon="5.83707">
        <ele>1448</ele>
        <time>2022-03-06T09:23:38Z</time>
      </trkpt>
      <trkpt lat="45.34497" lon="5.8371">
        <ele>1448</ele>
        <time>2022-03-06T09:23:40Z</time>
      </trkpt>
      <trkpt lat="45.34497" lon="5.8371">
        <ele>1448</ele>
        <time>2022-03-06T09:23:43Z</time>
      </trkpt>
      <trkpt lat="45.34498" lon="5.83713">
        <ele>1449</ele>
        <time>2022-03-06T09:23:44Z</time>
      </trkpt>
      <trkpt lat="45.345" lon="5.83715">
        <ele>1449</ele>
        <time>2022-03-06T09:23:47Z</time>
      </trkpt>
      <trkpt lat="45.345" lon="5.83715">
        <ele>1450</ele>
        <time>2022-03-06T09:23:49Z</time>
      </trkpt>
      <trkpt lat="45.34501" lon="5.83717">
        <ele>1450</ele>
        <time>2022-03-06T09:23:50Z</time>
      </trkpt>
      <trkpt lat="45.34502" lon="5.83719">
        <ele>1450</ele>
        <time>2022-03-06T09:23:54Z</time>
      </trkpt>
      <trkpt lat="45.34502" lon="5.83719">
        <ele>1450</ele>
        <time>2022-03-06T09:23:55Z</time>
      </trkpt>
      <trkpt lat="45.345" lon="5.83719">
        <ele>1451</ele>
        <time>2022-03-06T09:23:59Z</time>
      </trkpt>
      <trkpt lat="45.345" lon="5.83719">
        <ele>1451</ele>
        <time>2022-03-06T09:24:00Z</time>
      </trkpt>
      <trkpt lat="45.34497" lon="5.83719">
        <ele>1452</ele>
        <time>2022-03-06T09:24:02Z</time>
      </trkpt>
      <trkpt lat="45.34495" lon="5.83719">
        <ele>1452</ele>
        <time>2022-03-06T09:24:05Z</time>
      </trkpt>
      <trkpt lat="45.34495" lon="5.83719">
        <ele>1452</ele>
        <time>2022-03-06T09:24:06Z</time>
      </trkpt>
      <trkpt lat="45.34493" lon="5.83719">
        <ele>1453</ele>
        <time>2022-03-06T09:24:08Z</time>
      </trkpt>
      <trkpt lat="45.3449" lon="5.83719">
        <ele>1453</ele>
        <time>2022-03-06T09:24:11Z</time>
      </trkpt>
      <trkpt lat="45.3449" lon="5.83719">
        <ele>1453</ele>
        <time>2022-03-06T09:24:12Z</time>
      </trkpt>
      <trkpt lat="45.34488" lon="5.8372">
        <ele>1453</ele>
        <time>2022-03-06T09:24:14Z</time>
      </trkpt>
      <trkpt lat="45.34486" lon="5.83719">
        <ele>1454</ele>
        <time>2022-03-06T09:24:17Z</time>
      </trkpt>
      <trkpt lat="45.34486" lon="5.83719">
        <ele>1454</ele>
        <time>2022-03-06T09:24:18Z</time>
      </trkpt>
      <trkpt lat="45.34484" lon="5.83719">
        <ele>1454</ele>
        <time>2022-03-06T09:24:20Z</time>
      </trkpt>
      <trkpt lat="45.34482" lon="5.83719">
        <ele>1454</ele>
        <time>2022-03-06T09:24:23Z</time>
      </trkpt>
      <trkpt lat="45.34482" lon="5.83719">
        <ele>1454</ele>
        <time>2022-03-06T09:24:24Z</time>
      </trkpt>
      <trkpt lat="45.3448" lon="5.8372">
        <ele>1455</ele>
        <time>2022-03-06T09:24:26Z</time>
      </trkpt>
      <trkpt lat="45.34477" lon="5.8372">
        <ele>1455</ele>
        <time>2022-03-06T09:24:29Z</time>
      </trkpt>
      <trkpt lat="45.34477" lon="5.8372">
        <ele>1456</ele>
        <time>2022-03-06T09:24:30Z</time>
      </trkpt>
      <trkpt lat="45.34475" lon="5.8372">
        <ele>1456</ele>
        <time>2022-03-06T09:24:32Z</time>
      </trkpt>
      <trkpt lat="45.34473" lon="5.83721">
        <ele>1457</ele>
        <time>2022-03-06T09:24:35Z</time>
      </trkpt>
      <trkpt lat="45.34473" lon="5.83721">
        <ele>1457</ele>
        <time>2022-03-06T09:24:36Z</time>
      </trkpt>
      <trkpt lat="45.34471" lon="5.83721">
        <ele>1457</ele>
        <time>2022-03-06T09:24:38Z</time>
      </trkpt>
      <trkpt lat="45.34469" lon="5.83722">
        <ele>1457</ele>
        <time>2022-03-06T09:24:41Z</time>
      </trkpt>
      <trkpt lat="45.34469" lon="5.83722">
        <ele>1457</ele>
        <time>2022-03-06T09:24:42Z</time>
      </trkpt>
      <trkpt lat="45.34468" lon="5.83723">
        <ele>1458</ele>
        <time>2022-03-06T09:24:44Z</time>
      </trkpt>
      <trkpt lat="45.34468" lon="5.83723">
        <ele>1458</ele>
        <time>2022-03-06T09:24:47Z</time>
      </trkpt>
      <trkpt lat="45.34469" lon="5.83724">
        <ele>1458</ele>
        <time>2022-03-06T09:24:51Z</time>
      </trkpt>
      <trkpt lat="45.34469" lon="5.83724">
        <ele>1458</ele>
        <time>2022-03-06T09:24:52Z</time>
      </trkpt>
      <trkpt lat="45.34471" lon="5.83727">
        <ele>1458</ele>
        <time>2022-03-06T09:24:54Z</time>
      </trkpt>
      <trkpt lat="45.34472" lon="5.83729">
        <ele>1459</ele>
        <time>2022-03-06T09:24:57Z</time>
      </trkpt>
      <trkpt lat="45.34472" lon="5.83729">
        <ele>1459</ele>
        <time>2022-03-06T09:24:58Z</time>
      </trkpt>
      <trkpt lat="45.34474" lon="5.83731">
        <ele>1460</ele>
        <time>2022-03-06T09:25:00Z</time>
      </trkpt>
      <trkpt lat="45.34476" lon="5.83733">
        <ele>1460</ele>
        <time>2022-03-06T09:25:03Z</time>
      </trkpt>
      <trkpt lat="45.34476" lon="5.83733">
        <ele>1460</ele>
        <time>2022-03-06T09:25:04Z</time>
      </trkpt>
      <trkpt lat="45.34477" lon="5.83735">
        <ele>1461</ele>
        <time>2022-03-06T09:25:06Z</time>
      </trkpt>
      <trkpt lat="45.34478" lon="5.83738">
        <ele>1461</ele>
        <time>2022-03-06T09:25:09Z</time>
      </trkpt>
      <trkpt lat="45.34478" lon="5.83738">
        <ele>1462</ele>
        <time>2022-03-06T09:25:10Z</time>
      </trkpt>
      <trkpt lat="45.3448" lon="5.8374">
        <ele>1462</ele>
        <time>2022-03-06T09:25:12Z</time>
      </trkpt>
      <trkpt lat="45.34482" lon="5.83742">
        <ele>1462</ele>
        <time>2022-03-06T09:25:15Z</time>
      </trkpt>
      <trkpt lat="45.34482" lon="5.83742">
        <ele>1462</ele>
        <time>2022-03-06T09:25:16Z</time>
      </trkpt>
      <trkpt lat="45.34483" lon="5.83744">
        <ele>1462</ele>
        <time>2022-03-06T09:25:18Z</time>
      </trkpt>
      <trkpt lat="45.34484" lon="5.83746">
        <ele>1463</ele>
        <time>2022-03-06T09:25:21Z</time>
      </trkpt>
      <trkpt lat="45.34484" lon="5.83746">
        <ele>1463</ele>
        <time>2022-03-06T09:25:23Z</time>
      </trkpt>
      <trkpt lat="45.34486" lon="5.83748">
        <ele>1464</ele>
        <time>2022-03-06T09:25:24Z</time>
      </trkpt>
      <trkpt lat="45.34487" lon="5.8375">
        <ele>1464</ele>
        <time>2022-03-06T09:25:27Z</time>
      </trkpt>
      <trkpt lat="45.34487" lon="5.8375">
        <ele>1465</ele>
        <time>2022-03-06T09:25:29Z</time>
      </trkpt>
      <trkpt lat="45.34489" lon="5.83752">
        <ele>1465</ele>
        <time>2022-03-06T09:25:30Z</time>
      </trkpt>
      <trkpt lat="45.3449" lon="5.83754">
        <ele>1467</ele>
        <time>2022-03-06T09:25:33Z</time>
      </trkpt>
      <trkpt lat="45.3449" lon="5.83754">
        <ele>1467</ele>
        <time>2022-03-06T09:25:35Z</time>
      </trkpt>
      <trkpt lat="45.34491" lon="5.83756">
        <ele>1467</ele>
        <time>2022-03-06T09:25:36Z</time>
      </trkpt>
      <trkpt lat="45.34493" lon="5.83758">
        <ele>1467</ele>
        <time>2022-03-06T09:25:39Z</time>
      </trkpt>
      <trkpt lat="45.34493" lon="5.83758">
        <ele>1467</ele>
        <time>2022-03-06T09:25:41Z</time>
      </trkpt>
      <trkpt lat="45.34495" lon="5.8376">
        <ele>1467</ele>
        <time>2022-03-06T09:25:42Z</time>
      </trkpt>
      <trkpt lat="45.34496" lon="5.83762">
        <ele>1468</ele>
        <time>2022-03-06T09:25:45Z</time>
      </trkpt>
      <trkpt lat="45.34496" lon="5.83762">
        <ele>1469</ele>
        <time>2022-03-06T09:25:47Z</time>
      </trkpt>
      <trkpt lat="45.34498" lon="5.83764">
        <ele>1469</ele>
        <time>2022-03-06T09:25:48Z</time>
      </trkpt>
      <trkpt lat="45.34499" lon="5.83766">
        <ele>1470</ele>
        <time>2022-03-06T09:25:51Z</time>
      </trkpt>
      <trkpt lat="45.34499" lon="5.83766">
        <ele>1470</ele>
        <time>2022-03-06T09:25:53Z</time>
      </trkpt>
      <trkpt lat="45.34501" lon="5.83768">
        <ele>1471</ele>
        <time>2022-03-06T09:25:55Z</time>
      </trkpt>
      <trkpt lat="45.34502" lon="5.8377">
        <ele>1471</ele>
        <time>2022-03-06T09:25:58Z</time>
      </trkpt>
      <trkpt lat="45.34502" lon="5.8377">
        <ele>1471</ele>
        <time>2022-03-06T09:25:59Z</time>
      </trkpt>
      <trkpt lat="45.34504" lon="5.83773">
        <ele>1472</ele>
        <time>2022-03-06T09:26:01Z</time>
      </trkpt>
      <trkpt lat="45.34505" lon="5.83774">
        <ele>1472</ele>
        <time>2022-03-06T09:26:04Z</time>
      </trkpt>
      <trkpt lat="45.34505" lon="5.83774">
        <ele>1472</ele>
        <time>2022-03-06T09:26:05Z</time>
      </trkpt>
      <trkpt lat="45.34507" lon="5.83776">
        <ele>1473</ele>
        <time>2022-03-06T09:26:08Z</time>
      </trkpt>
      <trkpt lat="45.34507" lon="5.83776">
        <ele>1474</ele>
        <time>2022-03-06T09:26:10Z</time>
      </trkpt>
      <trkpt lat="45.34508" lon="5.83778">
        <ele>1475</ele>
        <time>2022-03-06T09:26:11Z</time>
      </trkpt>
      <trkpt lat="45.3451" lon="5.8378">
        <ele>1475</ele>
        <time>2022-03-06T09:26:14Z</time>
      </trkpt>
      <trkpt lat="45.3451" lon="5.8378">
        <ele>1475</ele>
        <time>2022-03-06T09:26:16Z</time>
      </trkpt>
      <trkpt lat="45.34512" lon="5.83782">
        <ele>1475</ele>
        <time>2022-03-06T09:26:17Z</time>
      </trkpt>
      <trkpt lat="45.34513" lon="5.83784">
        <ele>1476</ele>
        <time>2022-03-06T09:26:20Z</time>
      </trkpt>
      <trkpt lat="45.34513" lon="5.83784">
        <ele>1476</ele>
        <time>2022-03-06T09:26:22Z</time>
      </trkpt>
      <trkpt lat="45.34514" lon="5.83787">
        <ele>1476</ele>
        <time>2022-03-06T09:26:24Z</time>
      </trkpt>
      <trkpt lat="45.34515" lon="5.83789">
        <ele>1477</ele>
        <time>2022-03-06T09:26:27Z</time>
      </trkpt>
      <trkpt lat="45.34515" lon="5.83789">
        <ele>1477</ele>
        <time>2022-03-06T09:26:28Z</time>
      </trkpt>
      <trkpt lat="45.34516" lon="5.83791">
        <ele>1478</ele>
        <time>2022-03-06T09:26:30Z</time>
      </trkpt>
      <trkpt lat="45.34518" lon="5.83794">
        <ele>1479</ele>
        <time>2022-03-06T09:26:33Z</time>
      </trkpt>
      <trkpt lat="45.34518" lon="5.83794">
        <ele>1479</ele>
        <time>2022-03-06T09:26:34Z</time>
      </trkpt>
      <trkpt lat="45.34519" lon="5.83797">
        <ele>1480</ele>
        <time>2022-03-06T09:26:36Z</time>
      </trkpt>
      <trkpt lat="45.34519" lon="5.838">
        <ele>1480</ele>
        <time>2022-03-06T09:26:39Z</time>
      </trkpt>
      <trkpt lat="45.34519" lon="5.838">
        <ele>1480</ele>
        <time>2022-03-06T09:26:40Z</time>
      </trkpt>
      <trkpt lat="45.3452" lon="5.83803">
        <ele>1480</ele>
        <time>2022-03-06T09:26:42Z</time>
      </trkpt>
      <trkpt lat="45.3452" lon="5.83803">
        <ele>1481</ele>
        <time>2022-03-06T09:26:45Z</time>
      </trkpt>
      <trkpt lat="45.34518" lon="5.83804">
        <ele>1482</ele>
        <time>2022-03-06T09:26:46Z</time>
      </trkpt>
      <trkpt lat="45.34515" lon="5.83805">
        <ele>1483</ele>
        <time>2022-03-06T09:26:49Z</time>
      </trkpt>
      <trkpt lat="45.34515" lon="5.83805">
        <ele>1483</ele>
        <time>2022-03-06T09:26:51Z</time>
      </trkpt>
      <trkpt lat="45.34513" lon="5.83807">
        <ele>1483</ele>
        <time>2022-03-06T09:26:52Z</time>
      </trkpt>
      <trkpt lat="45.34511" lon="5.83808">
        <ele>1483</ele>
        <time>2022-03-06T09:26:55Z</time>
      </trkpt>
      <trkpt lat="45.34511" lon="5.83808">
        <ele>1483</ele>
        <time>2022-03-06T09:26:57Z</time>
      </trkpt>
      <trkpt lat="45.34509" lon="5.83809">
        <ele>1483</ele>
        <time>2022-03-06T09:26:58Z</time>
      </trkpt>
      <trkpt lat="45.34507" lon="5.8381">
        <ele>1484</ele>
        <time>2022-03-06T09:27:01Z</time>
      </trkpt>
      <trkpt lat="45.34507" lon="5.8381">
        <ele>1484</ele>
        <time>2022-03-06T09:27:03Z</time>
      </trkpt>
      <trkpt lat="45.34505" lon="5.83812">
        <ele>1484</ele>
        <time>2022-03-06T09:27:05Z</time>
      </trkpt>
      <trkpt lat="45.34505" lon="5.83812">
        <ele>1485</ele>
        <time>2022-03-06T09:27:08Z</time>
      </trkpt>
      <trkpt lat="45.34505" lon="5.83815">
        <ele>1485</ele>
        <time>2022-03-06T09:27:09Z</time>
      </trkpt>
      <trkpt lat="45.34507" lon="5.83818">
        <ele>1486</ele>
        <time>2022-03-06T09:27:12Z</time>
      </trkpt>
      <trkpt lat="45.34507" lon="5.83818">
        <ele>1486</ele>
        <time>2022-03-06T09:27:14Z</time>
      </trkpt>
      <trkpt lat="45.34508" lon="5.8382">
        <ele>1486</ele>
        <time>2022-03-06T09:27:15Z</time>
      </trkpt>
      <trkpt lat="45.34509" lon="5.83823">
        <ele>1487</ele>
        <time>2022-03-06T09:27:18Z</time>
      </trkpt>
      <trkpt lat="45.34509" lon="5.83823">
        <ele>1487</ele>
        <time>2022-03-06T09:27:20Z</time>
      </trkpt>
      <trkpt lat="45.3451" lon="5.83826">
        <ele>1487</ele>
        <time>2022-03-06T09:27:21Z</time>
      </trkpt>
      <trkpt lat="45.34511" lon="5.83829">
        <ele>1487</ele>
        <time>2022-03-06T09:27:24Z</time>
      </trkpt>
      <trkpt lat="45.34511" lon="5.83829">
        <ele>1488</ele>
        <time>2022-03-06T09:27:26Z</time>
      </trkpt>
      <trkpt lat="45.34513" lon="5.83831">
        <ele>1488</ele>
        <time>2022-03-06T09:27:27Z</time>
      </trkpt>
      <trkpt lat="45.34514" lon="5.83834">
        <ele>1489</ele>
        <time>2022-03-06T09:27:30Z</time>
      </trkpt>
      <trkpt lat="45.34514" lon="5.83834">
        <ele>1490</ele>
        <time>2022-03-06T09:27:32Z</time>
      </trkpt>
      <trkpt lat="45.34515" lon="5.83837">
        <ele>1490</ele>
        <time>2022-03-06T09:27:33Z</time>
      </trkpt>
      <trkpt lat="45.34516" lon="5.83839">
        <ele>1491</ele>
        <time>2022-03-06T09:27:35Z</time>
      </trkpt>
      <trkpt lat="45.34518" lon="5.83841">
        <ele>1491</ele>
        <time>2022-03-06T09:27:38Z</time>
      </trkpt>
      <trkpt lat="45.34518" lon="5.83841">
        <ele>1491</ele>
        <time>2022-03-06T09:27:39Z</time>
      </trkpt>
      <trkpt lat="45.34519" lon="5.83843">
        <ele>1492</ele>
        <time>2022-03-06T09:27:41Z</time>
      </trkpt>
      <trkpt lat="45.34519" lon="5.83843">
        <ele>1492</ele>
        <time>2022-03-06T09:27:44Z</time>
      </trkpt>
      <trkpt lat="45.3452" lon="5.83845">
        <ele>1493</ele>
        <time>2022-03-06T09:27:45Z</time>
      </trkpt>
      <trkpt lat="45.34522" lon="5.83847">
        <ele>1493</ele>
        <time>2022-03-06T09:27:48Z</time>
      </trkpt>
      <trkpt lat="45.34522" lon="5.83847">
        <ele>1494</ele>
        <time>2022-03-06T09:27:50Z</time>
      </trkpt>
      <trkpt lat="45.34523" lon="5.83849">
        <ele>1494</ele>
        <time>2022-03-06T09:27:51Z</time>
      </trkpt>
      <trkpt lat="45.34525" lon="5.8385">
        <ele>1494</ele>
        <time>2022-03-06T09:27:53Z</time>
      </trkpt>
      <trkpt lat="45.34526" lon="5.83852">
        <ele>1496</ele>
        <time>2022-03-06T09:27:56Z</time>
      </trkpt>
      <trkpt lat="45.34526" lon="5.83852">
        <ele>1496</ele>
        <time>2022-03-06T09:27:57Z</time>
      </trkpt>
      <trkpt lat="45.34528" lon="5.83854">
        <ele>1496</ele>
        <time>2022-03-06T09:27:59Z</time>
      </trkpt>
      <trkpt lat="45.34529" lon="5.83857">
        <ele>1496</ele>
        <time>2022-03-06T09:28:02Z</time>
      </trkpt>
      <trkpt lat="45.34529" lon="5.83857">
        <ele>1497</ele>
        <time>2022-03-06T09:28:03Z</time>
      </trkpt>
      <trkpt lat="45.34531" lon="5.8386">
        <ele>1497</ele>
        <time>2022-03-06T09:28:06Z</time>
      </trkpt>
      <trkpt lat="45.34531" lon="5.8386">
        <ele>1498</ele>
        <time>2022-03-06T09:28:08Z</time>
      </trkpt>
      <trkpt lat="45.34532" lon="5.83862">
        <ele>1498</ele>
        <time>2022-03-06T09:28:09Z</time>
      </trkpt>
      <trkpt lat="45.34533" lon="5.83865">
        <ele>1498</ele>
        <time>2022-03-06T09:28:12Z</time>
      </trkpt>
      <trkpt lat="45.34533" lon="5.83865">
        <ele>1500</ele>
        <time>2022-03-06T09:28:14Z</time>
      </trkpt>
      <trkpt lat="45.34532" lon="5.83867">
        <ele>1500</ele>
        <time>2022-03-06T09:28:15Z</time>
      </trkpt>
      <trkpt lat="45.3453" lon="5.83869">
        <ele>1501</ele>
        <time>2022-03-06T09:28:18Z</time>
      </trkpt>
      <trkpt lat="45.3453" lon="5.83869">
        <ele>1501</ele>
        <time>2022-03-06T09:28:20Z</time>
      </trkpt>
      <trkpt lat="45.34528" lon="5.83871">
        <ele>1501</ele>
        <time>2022-03-06T09:28:22Z</time>
      </trkpt>
      <trkpt lat="45.34526" lon="5.83872">
        <ele>1503</ele>
        <time>2022-03-06T09:28:25Z</time>
      </trkpt>
      <trkpt lat="45.34526" lon="5.83872">
        <ele>1503</ele>
        <time>2022-03-06T09:28:26Z</time>
      </trkpt>
      <trkpt lat="45.34525" lon="5.83874">
        <ele>1503</ele>
        <time>2022-03-06T09:28:29Z</time>
      </trkpt>
      <trkpt lat="45.34525" lon="5.83874">
        <ele>1504</ele>
        <time>2022-03-06T09:28:31Z</time>
      </trkpt>
      <trkpt lat="45.34525" lon="5.83876">
        <ele>1504</ele>
        <time>2022-03-06T09:28:35Z</time>
      </trkpt>
      <trkpt lat="45.34525" lon="5.83876">
        <ele>1504</ele>
        <time>2022-03-06T09:28:36Z</time>
      </trkpt>
      <trkpt lat="45.34526" lon="5.83879">
        <ele>1505</ele>
        <time>2022-03-06T09:28:37Z</time>
      </trkpt>
      <trkpt lat="45.34527" lon="5.83881">
        <ele>1506</ele>
        <time>2022-03-06T09:28:41Z</time>
      </trkpt>
      <trkpt lat="45.34527" lon="5.83881">
        <ele>1506</ele>
        <time>2022-03-06T09:28:42Z</time>
      </trkpt>
      <trkpt lat="45.34527" lon="5.83884">
        <ele>1506</ele>
        <time>2022-03-06T09:28:44Z</time>
      </trkpt>
      <trkpt lat="45.34526" lon="5.83887">
        <ele>1508</ele>
        <time>2022-03-06T09:28:47Z</time>
      </trkpt>
      <trkpt lat="45.34526" lon="5.83887">
        <ele>1508</ele>
        <time>2022-03-06T09:28:48Z</time>
      </trkpt>
      <trkpt lat="45.34524" lon="5.83888">
        <ele>1508</ele>
        <time>2022-03-06T09:28:50Z</time>
      </trkpt>
      <trkpt lat="45.34524" lon="5.83888">
        <ele>1509</ele>
        <time>2022-03-06T09:28:53Z</time>
      </trkpt>
      <trkpt lat="45.34523" lon="5.8389">
        <ele>1509</ele>
        <time>2022-03-06T09:28:54Z</time>
      </trkpt>
      <trkpt lat="45.34524" lon="5.83892">
        <ele>1509</ele>
        <time>2022-03-06T09:28:56Z</time>
      </trkpt>
      <trkpt lat="45.34524" lon="5.83892">
        <ele>1509</ele>
        <time>2022-03-06T09:28:59Z</time>
      </trkpt>
      <trkpt lat="45.34526" lon="5.83894">
        <ele>1510</ele>
        <time>2022-03-06T09:29:00Z</time>
      </trkpt>
      <trkpt lat="45.34527" lon="5.83897">
        <ele>1510</ele>
        <time>2022-03-06T09:29:03Z</time>
      </trkpt>
      <trkpt lat="45.34527" lon="5.83897">
        <ele>1511</ele>
        <time>2022-03-06T09:29:05Z</time>
      </trkpt>
      <trkpt lat="45.34529" lon="5.83899">
        <ele>1511</ele>
        <time>2022-03-06T09:29:06Z</time>
      </trkpt>
      <trkpt lat="45.3453" lon="5.83902">
        <ele>1511</ele>
        <time>2022-03-06T09:29:09Z</time>
      </trkpt>
      <trkpt lat="45.3453" lon="5.83902">
        <ele>1512</ele>
        <time>2022-03-06T09:29:11Z</time>
      </trkpt>
      <trkpt lat="45.34532" lon="5.83904">
        <ele>1512</ele>
        <time>2022-03-06T09:29:12Z</time>
      </trkpt>
      <trkpt lat="45.34533" lon="5.83906">
        <ele>1513</ele>
        <time>2022-03-06T09:29:15Z</time>
      </trkpt>
      <trkpt lat="45.34533" lon="5.83906">
        <ele>1513</ele>
        <time>2022-03-06T09:29:17Z</time>
      </trkpt>
      <trkpt lat="45.34535" lon="5.83909">
        <ele>1513</ele>
        <time>2022-03-06T09:29:18Z</time>
      </trkpt>
      <trkpt lat="45.34537" lon="5.83911">
        <ele>1514</ele>
        <time>2022-03-06T09:29:21Z</time>
      </trkpt>
      <trkpt lat="45.34537" lon="5.83911">
        <ele>1515</ele>
        <time>2022-03-06T09:29:23Z</time>
      </trkpt>
      <trkpt lat="45.34538" lon="5.83913">
        <ele>1515</ele>
        <time>2022-03-06T09:29:24Z</time>
      </trkpt>
      <trkpt lat="45.3454" lon="5.83915">
        <ele>1516</ele>
        <time>2022-03-06T09:29:27Z</time>
      </trkpt>
      <trkpt lat="45.3454" lon="5.83915">
        <ele>1516</ele>
        <time>2022-03-06T09:29:29Z</time>
      </trkpt>
      <trkpt lat="45.34541" lon="5.83917">
        <ele>1516</ele>
        <time>2022-03-06T09:29:30Z</time>
      </trkpt>
      <trkpt lat="45.34543" lon="5.83918">
        <ele>1517</ele>
        <time>2022-03-06T09:29:33Z</time>
      </trkpt>
      <trkpt lat="45.34543" lon="5.83918">
        <ele>1518</ele>
        <time>2022-03-06T09:29:35Z</time>
      </trkpt>
      <trkpt lat="45.34545" lon="5.8392">
        <ele>1518</ele>
        <time>2022-03-06T09:29:36Z</time>
      </trkpt>
      <trkpt lat="45.34546" lon="5.83923">
        <ele>1518</ele>
        <time>2022-03-06T09:29:39Z</time>
      </trkpt>
      <trkpt lat="45.34546" lon="5.83923">
        <ele>1518</ele>
        <time>2022-03-06T09:29:41Z</time>
      </trkpt>
      <trkpt lat="45.34547" lon="5.83925">
        <ele>1518</ele>
        <time>2022-03-06T09:29:42Z</time>
      </trkpt>
      <trkpt lat="45.34547" lon="5.83928">
        <ele>1519</ele>
        <time>2022-03-06T09:29:45Z</time>
      </trkpt>
      <trkpt lat="45.34547" lon="5.83928">
        <ele>1520</ele>
        <time>2022-03-06T09:29:47Z</time>
      </trkpt>
      <trkpt lat="45.34548" lon="5.83931">
        <ele>1520</ele>
        <time>2022-03-06T09:29:48Z</time>
      </trkpt>
      <trkpt lat="45.34549" lon="5.83933">
        <ele>1521</ele>
        <time>2022-03-06T09:29:50Z</time>
      </trkpt>
      <trkpt lat="45.34551" lon="5.83936">
        <ele>1521</ele>
        <time>2022-03-06T09:29:53Z</time>
      </trkpt>
      <trkpt lat="45.34551" lon="5.83936">
        <ele>1521</ele>
        <time>2022-03-06T09:29:54Z</time>
      </trkpt>
      <trkpt lat="45.34552" lon="5.83939">
        <ele>1521</ele>
        <time>2022-03-06T09:29:56Z</time>
      </trkpt>
      <trkpt lat="45.34553" lon="5.83941">
        <ele>1521</ele>
        <time>2022-03-06T09:29:59Z</time>
      </trkpt>
      <trkpt lat="45.34553" lon="5.83941">
        <ele>1522</ele>
        <time>2022-03-06T09:30:00Z</time>
      </trkpt>
      <trkpt lat="45.34554" lon="5.83944">
        <ele>1523</ele>
        <time>2022-03-06T09:30:02Z</time>
      </trkpt>
      <trkpt lat="45.34555" lon="5.83947">
        <ele>1523</ele>
        <time>2022-03-06T09:30:05Z</time>
      </trkpt>
      <trkpt lat="45.34555" lon="5.83947">
        <ele>1524</ele>
        <time>2022-03-06T09:30:06Z</time>
      </trkpt>
      <trkpt lat="45.34555" lon="5.8395">
        <ele>1525</ele>
        <time>2022-03-06T09:30:08Z</time>
      </trkpt>
      <trkpt lat="45.34554" lon="5.83953">
        <ele>1525</ele>
        <time>2022-03-06T09:30:11Z</time>
      </trkpt>
      <trkpt lat="45.34554" lon="5.83953">
        <ele>1525</ele>
        <time>2022-03-06T09:30:12Z</time>
      </trkpt>
      <trkpt lat="45.34552" lon="5.83956">
        <ele>1525</ele>
        <time>2022-03-06T09:30:14Z</time>
      </trkpt>
      <trkpt lat="45.3455" lon="5.83958">
        <ele>1526</ele>
        <time>2022-03-06T09:30:17Z</time>
      </trkpt>
      <trkpt lat="45.3455" lon="5.83958">
        <ele>1526</ele>
        <time>2022-03-06T09:30:18Z</time>
      </trkpt>
      <trkpt lat="45.34548" lon="5.8396">
        <ele>1526</ele>
        <time>2022-03-06T09:30:20Z</time>
      </trkpt>
      <trkpt lat="45.34546" lon="5.83961">
        <ele>1527</ele>
        <time>2022-03-06T09:30:23Z</time>
      </trkpt>
      <trkpt lat="45.34546" lon="5.83961">
        <ele>1527</ele>
        <time>2022-03-06T09:30:24Z</time>
      </trkpt>
      <trkpt lat="45.34544" lon="5.83962">
        <ele>1528</ele>
        <time>2022-03-06T09:30:26Z</time>
      </trkpt>
      <trkpt lat="45.34542" lon="5.83964">
        <ele>1528</ele>
        <time>2022-03-06T09:30:29Z</time>
      </trkpt>
      <trkpt lat="45.34542" lon="5.83964">
        <ele>1528</ele>
        <time>2022-03-06T09:30:30Z</time>
      </trkpt>
      <trkpt lat="45.34539" lon="5.83965">
        <ele>1528</ele>
        <time>2022-03-06T09:30:31Z</time>
      </trkpt>
      <trkpt lat="45.34537" lon="5.83966">
        <ele>1529</ele>
        <time>2022-03-06T09:30:35Z</time>
      </trkpt>
      <trkpt lat="45.34537" lon="5.83966">
        <ele>1529</ele>
        <time>2022-03-06T09:30:36Z</time>
      </trkpt>
      <trkpt lat="45.34535" lon="5.83967">
        <ele>1530</ele>
        <time>2022-03-06T09:30:38Z</time>
      </trkpt>
      <trkpt lat="45.34533" lon="5.83968">
        <ele>1531</ele>
        <time>2022-03-06T09:30:40Z</time>
      </trkpt>
      <trkpt lat="45.34533" lon="5.83968">
        <ele>1531</ele>
        <time>2022-03-06T09:30:42Z</time>
      </trkpt>
      <trkpt lat="45.34531" lon="5.83969">
        <ele>1531</ele>
        <time>2022-03-06T09:30:43Z</time>
      </trkpt>
      <trkpt lat="45.34529" lon="5.8397">
        <ele>1532</ele>
        <time>2022-03-06T09:30:46Z</time>
      </trkpt>
      <trkpt lat="45.34529" lon="5.8397">
        <ele>1532</ele>
        <time>2022-03-06T09:30:48Z</time>
      </trkpt>
      <trkpt lat="45.34527" lon="5.83971">
        <ele>1532</ele>
        <time>2022-03-06T09:30:49Z</time>
      </trkpt>
      <trkpt lat="45.34524" lon="5.83971">
        <ele>1532</ele>
        <time>2022-03-06T09:30:52Z</time>
      </trkpt>
      <trkpt lat="45.34524" lon="5.83971">
        <ele>1532</ele>
        <time>2022-03-06T09:30:54Z</time>
      </trkpt>
      <trkpt lat="45.34522" lon="5.83972">
        <ele>1532</ele>
        <time>2022-03-06T09:30:55Z</time>
      </trkpt>
      <trkpt lat="45.3452" lon="5.83973">
        <ele>1532</ele>
        <time>2022-03-06T09:30:58Z</time>
      </trkpt>
      <trkpt lat="45.3452" lon="5.83973">
        <ele>1534</ele>
        <time>2022-03-06T09:31:00Z</time>
      </trkpt>
      <trkpt lat="45.34518" lon="5.83974">
        <ele>1534</ele>
        <time>2022-03-06T09:31:01Z</time>
      </trkpt>
      <trkpt lat="45.34516" lon="5.83976">
        <ele>1534</ele>
        <time>2022-03-06T09:31:04Z</time>
      </trkpt>
      <trkpt lat="45.34516" lon="5.83976">
        <ele>1535</ele>
        <time>2022-03-06T09:31:06Z</time>
      </trkpt>
      <trkpt lat="45.34514" lon="5.83976">
        <ele>1535</ele>
        <time>2022-03-06T09:31:07Z</time>
      </trkpt>
      <trkpt lat="45.34512" lon="5.83977">
        <ele>1535</ele>
        <time>2022-03-06T09:31:10Z</time>
      </trkpt>
      <trkpt lat="45.34512" lon="5.83977">
        <ele>1536</ele>
        <time>2022-03-06T09:31:12Z</time>
      </trkpt>
      <trkpt lat="45.3451" lon="5.83978">
        <ele>1536</ele>
        <time>2022-03-06T09:31:13Z</time>
      </trkpt>
      <trkpt lat="45.34508" lon="5.83979">
        <ele>1536</ele>
        <time>2022-03-06T09:31:16Z</time>
      </trkpt>
      <trkpt lat="45.34508" lon="5.83979">
        <ele>1537</ele>
        <time>2022-03-06T09:31:18Z</time>
      </trkpt>
      <trkpt lat="45.34506" lon="5.8398">
        <ele>1537</ele>
        <time>2022-03-06T09:31:19Z</time>
      </trkpt>
      <trkpt lat="45.34504" lon="5.83982">
        <ele>1538</ele>
        <time>2022-03-06T09:31:22Z</time>
      </trkpt>
      <trkpt lat="45.34504" lon="5.83982">
        <ele>1538</ele>
        <time>2022-03-06T09:31:24Z</time>
      </trkpt>
      <trkpt lat="45.34502" lon="5.83983">
        <ele>1538</ele>
        <time>2022-03-06T09:31:25Z</time>
      </trkpt>
      <trkpt lat="45.345" lon="5.83985">
        <ele>1538</ele>
        <time>2022-03-06T09:31:29Z</time>
      </trkpt>
      <trkpt lat="45.345" lon="5.83985">
        <ele>1539</ele>
        <time>2022-03-06T09:31:30Z</time>
      </trkpt>
      <trkpt lat="45.34501" lon="5.83987">
        <ele>1540</ele>
        <time>2022-03-06T09:31:32Z</time>
      </trkpt>
      <trkpt lat="45.34503" lon="5.83989">
        <ele>1540</ele>
        <time>2022-03-06T09:31:34Z</time>
      </trkpt>
      <trkpt lat="45.34503" lon="5.83989">
        <ele>1540</ele>
        <time>2022-03-06T09:31:36Z</time>
      </trkpt>
      <trkpt lat="45.34505" lon="5.83991">
        <ele>1540</ele>
        <time>2022-03-06T09:31:37Z</time>
      </trkpt>
      <trkpt lat="45.34506" lon="5.83994">
        <ele>1541</ele>
        <time>2022-03-06T09:31:40Z</time>
      </trkpt>
      <trkpt lat="45.34506" lon="5.83994">
        <ele>1541</ele>
        <time>2022-03-06T09:31:42Z</time>
      </trkpt>
      <trkpt lat="45.34508" lon="5.83995">
        <ele>1541</ele>
        <time>2022-03-06T09:31:43Z</time>
      </trkpt>
      <trkpt lat="45.3451" lon="5.83998">
        <ele>1542</ele>
        <time>2022-03-06T09:31:47Z</time>
      </trkpt>
      <trkpt lat="45.3451" lon="5.83998">
        <ele>1543</ele>
        <time>2022-03-06T09:31:48Z</time>
      </trkpt>
      <trkpt lat="45.34512" lon="5.84">
        <ele>1543</ele>
        <time>2022-03-06T09:31:50Z</time>
      </trkpt>
      <trkpt lat="45.34513" lon="5.84002">
        <ele>1544</ele>
        <time>2022-03-06T09:31:53Z</time>
      </trkpt>
      <trkpt lat="45.34513" lon="5.84002">
        <ele>1544</ele>
        <time>2022-03-06T09:31:54Z</time>
      </trkpt>
      <trkpt lat="45.34515" lon="5.84004">
        <ele>1544</ele>
        <time>2022-03-06T09:31:56Z</time>
      </trkpt>
      <trkpt lat="45.34516" lon="5.84006">
        <ele>1545</ele>
        <time>2022-03-06T09:31:59Z</time>
      </trkpt>
      <trkpt lat="45.34516" lon="5.84006">
        <ele>1546</ele>
        <time>2022-03-06T09:32:00Z</time>
      </trkpt>
      <trkpt lat="45.34518" lon="5.84009">
        <ele>1546</ele>
        <time>2022-03-06T09:32:02Z</time>
      </trkpt>
      <trkpt lat="45.34519" lon="5.84011">
        <ele>1546</ele>
        <time>2022-03-06T09:32:05Z</time>
      </trkpt>
      <trkpt lat="45.34519" lon="5.84011">
        <ele>1547</ele>
        <time>2022-03-06T09:32:06Z</time>
      </trkpt>
      <trkpt lat="45.34521" lon="5.84013">
        <ele>1547</ele>
        <time>2022-03-06T09:32:08Z</time>
      </trkpt>
      <trkpt lat="45.34523" lon="5.84015">
        <ele>1548</ele>
        <time>2022-03-06T09:32:11Z</time>
      </trkpt>
      <trkpt lat="45.34523" lon="5.84015">
        <ele>1548</ele>
        <time>2022-03-06T09:32:12Z</time>
      </trkpt>
      <trkpt lat="45.34524" lon="5.84018">
        <ele>1548</ele>
        <time>2022-03-06T09:32:14Z</time>
      </trkpt>
      <trkpt lat="45.34526" lon="5.84019">
        <ele>1549</ele>
        <time>2022-03-06T09:32:17Z</time>
      </trkpt>
      <trkpt lat="45.34526" lon="5.84019">
        <ele>1550</ele>
        <time>2022-03-06T09:32:18Z</time>
      </trkpt>
      <trkpt lat="45.34527" lon="5.84021">
        <ele>1550</ele>
        <time>2022-03-06T09:32:20Z</time>
      </trkpt>
      <trkpt lat="45.34529" lon="5.84022">
        <ele>1550</ele>
        <time>2022-03-06T09:32:23Z</time>
      </trkpt>
      <trkpt lat="45.34529" lon="5.84022">
        <ele>1550</ele>
        <time>2022-03-06T09:32:24Z</time>
      </trkpt>
      <trkpt lat="45.3453" lon="5.84024">
        <ele>1550</ele>
        <time>2022-03-06T09:32:25Z</time>
      </trkpt>
      <trkpt lat="45.3453" lon="5.84024">
        <ele>1551</ele>
        <time>2022-03-06T09:32:29Z</time>
      </trkpt>
      <trkpt lat="45.34532" lon="5.84026">
        <ele>1551</ele>
        <time>2022-03-06T09:32:30Z</time>
      </trkpt>
      <trkpt lat="45.34533" lon="5.84028">
        <ele>1552</ele>
        <time>2022-03-06T09:32:33Z</time>
      </trkpt>
      <trkpt lat="45.34533" lon="5.84028">
        <ele>1553</ele>
        <time>2022-03-06T09:32:35Z</time>
      </trkpt>
      <trkpt lat="45.34532" lon="5.8403">
        <ele>1553</ele>
        <time>2022-03-06T09:32:36Z</time>
      </trkpt>
      <trkpt lat="45.3453" lon="5.84032">
        <ele>1555</ele>
        <time>2022-03-06T09:32:39Z</time>
      </trkpt>
      <trkpt lat="45.3453" lon="5.84032">
        <ele>1555</ele>
        <time>2022-03-06T09:32:41Z</time>
      </trkpt>
      <trkpt lat="45.34528" lon="5.84033">
        <ele>1555</ele>
        <time>2022-03-06T09:32:42Z</time>
      </trkpt>
      <trkpt lat="45.34526" lon="5.84034">
        <ele>1555</ele>
        <time>2022-03-06T09:32:44Z</time>
      </trkpt>
      <trkpt lat="45.34526" lon="5.84034">
        <ele>1556</ele>
        <time>2022-03-06T09:32:47Z</time>
      </trkpt>
      <trkpt lat="45.34524" lon="5.84036">
        <ele>1556</ele>
        <time>2022-03-06T09:32:49Z</time>
      </trkpt>
      <trkpt lat="45.34522" lon="5.84038">
        <ele>1557</ele>
        <time>2022-03-06T09:32:52Z</time>
      </trkpt>
      <trkpt lat="45.34522" lon="5.84038">
        <ele>1558</ele>
        <time>2022-03-06T09:32:53Z</time>
      </trkpt>
      <trkpt lat="45.3452" lon="5.84039">
        <ele>1558</ele>
        <time>2022-03-06T09:32:55Z</time>
      </trkpt>
      <trkpt lat="45.34519" lon="5.8404">
        <ele>1558</ele>
        <time>2022-03-06T09:32:58Z</time>
      </trkpt>
      <trkpt lat="45.34519" lon="5.8404">
        <ele>1558</ele>
        <time>2022-03-06T09:32:59Z</time>
      </trkpt>
      <trkpt lat="45.34517" lon="5.84042">
        <ele>1559</ele>
        <time>2022-03-06T09:33:02Z</time>
      </trkpt>
      <trkpt lat="45.34517" lon="5.84042">
        <ele>1559</ele>
        <time>2022-03-06T09:33:04Z</time>
      </trkpt>
      <trkpt lat="45.34515" lon="5.84044">
        <ele>1561</ele>
        <time>2022-03-06T09:33:06Z</time>
      </trkpt>
      <trkpt lat="45.34514" lon="5.84045">
        <ele>1561</ele>
        <time>2022-03-06T09:33:09Z</time>
      </trkpt>
      <trkpt lat="45.34514" lon="5.84045">
        <ele>1561</ele>
        <time>2022-03-06T09:33:10Z</time>
      </trkpt>
      <trkpt lat="45.34512" lon="5.84046">
        <ele>1561</ele>
        <time>2022-03-06T09:33:12Z</time>
      </trkpt>
      <trkpt lat="45.3451" lon="5.84047">
        <ele>1562</ele>
        <time>2022-03-06T09:33:15Z</time>
      </trkpt>
      <trkpt lat="45.3451" lon="5.84047">
        <ele>1562</ele>
        <time>2022-03-06T09:33:16Z</time>
      </trkpt>
      <trkpt lat="45.34508" lon="5.84048">
        <ele>1562</ele>
        <time>2022-03-06T09:33:18Z</time>
      </trkpt>
      <trkpt lat="45.34508" lon="5.84048">
        <ele>1563</ele>
        <time>2022-03-06T09:33:21Z</time>
      </trkpt>
      <trkpt lat="45.34506" lon="5.84049">
        <ele>1563</ele>
        <time>2022-03-06T09:33:22Z</time>
      </trkpt>
      <trkpt lat="45.34504" lon="5.8405">
        <ele>1563</ele>
        <time>2022-03-06T09:33:25Z</time>
      </trkpt>
      <trkpt lat="45.34504" lon="5.8405">
        <ele>1564</ele>
        <time>2022-03-06T09:33:27Z</time>
      </trkpt>
      <trkpt lat="45.34502" lon="5.84051">
        <ele>1564</ele>
        <time>2022-03-06T09:33:28Z</time>
      </trkpt>
      <trkpt lat="45.345" lon="5.84052">
        <ele>1565</ele>
        <time>2022-03-06T09:33:31Z</time>
      </trkpt>
      <trkpt lat="45.345" lon="5.84052">
        <ele>1566</ele>
        <time>2022-03-06T09:33:33Z</time>
      </trkpt>
      <trkpt lat="45.34498" lon="5.84053">
        <ele>1566</ele>
        <time>2022-03-06T09:33:35Z</time>
      </trkpt>
      <trkpt lat="45.34498" lon="5.84053">
        <ele>1566</ele>
        <time>2022-03-06T09:33:38Z</time>
      </trkpt>
      <trkpt lat="45.34497" lon="5.84055">
        <ele>1566</ele>
        <time>2022-03-06T09:33:39Z</time>
      </trkpt>
      <trkpt lat="45.34497" lon="5.84058">
        <ele>1567</ele>
        <time>2022-03-06T09:33:43Z</time>
      </trkpt>
      <trkpt lat="45.34497" lon="5.84058">
        <ele>1567</ele>
        <time>2022-03-06T09:33:44Z</time>
      </trkpt>
      <trkpt lat="45.34498" lon="5.84061">
        <ele>1568</ele>
        <time>2022-03-06T09:33:46Z</time>
      </trkpt>
      <trkpt lat="45.34499" lon="5.84063">
        <ele>1568</ele>
        <time>2022-03-06T09:33:49Z</time>
      </trkpt>
      <trkpt lat="45.34499" lon="5.84063">
        <ele>1569</ele>
        <time>2022-03-06T09:33:50Z</time>
      </trkpt>
      <trkpt lat="45.345" lon="5.84066">
        <ele>1569</ele>
        <time>2022-03-06T09:33:52Z</time>
      </trkpt>
      <trkpt lat="45.34502" lon="5.84068">
        <ele>1570</ele>
        <time>2022-03-06T09:33:55Z</time>
      </trkpt>
      <trkpt lat="45.34502" lon="5.84068">
        <ele>1570</ele>
        <time>2022-03-06T09:33:56Z</time>
      </trkpt>
      <trkpt lat="45.34504" lon="5.8407">
        <ele>1570</ele>
        <time>2022-03-06T09:33:58Z</time>
      </trkpt>
      <trkpt lat="45.34504" lon="5.8407">
        <ele>1570</ele>
        <time>2022-03-06T09:34:01Z</time>
      </trkpt>
      <trkpt lat="45.34505" lon="5.84074">
        <ele>1571</ele>
        <time>2022-03-06T09:34:03Z</time>
      </trkpt>
      <trkpt lat="45.34505" lon="5.84074">
        <ele>1572</ele>
        <time>2022-03-06T09:34:06Z</time>
      </trkpt>
      <trkpt lat="45.34507" lon="5.84077">
        <ele>1572</ele>
        <time>2022-03-06T09:34:08Z</time>
      </trkpt>
      <trkpt lat="45.34508" lon="5.8408">
        <ele>1573</ele>
        <time>2022-03-06T09:34:11Z</time>
      </trkpt>
      <trkpt lat="45.34508" lon="5.8408">
        <ele>1573</ele>
        <time>2022-03-06T09:34:12Z</time>
      </trkpt>
      <trkpt lat="45.34509" lon="5.84082">
        <ele>1573</ele>
        <time>2022-03-06T09:34:14Z</time>
      </trkpt>
      <trkpt lat="45.3451" lon="5.84084">
        <ele>1574</ele>
        <time>2022-03-06T09:34:16Z</time>
      </trkpt>
      <trkpt lat="45.3451" lon="5.84084">
        <ele>1575</ele>
        <time>2022-03-06T09:34:18Z</time>
      </trkpt>
      <trkpt lat="45.34512" lon="5.84087">
        <ele>1575</ele>
        <time>2022-03-06T09:34:19Z</time>
      </trkpt>
      <trkpt lat="45.34513" lon="5.8409">
        <ele>1575</ele>
        <time>2022-03-06T09:34:22Z</time>
      </trkpt>
      <trkpt lat="45.34513" lon="5.8409">
        <ele>1575</ele>
        <time>2022-03-06T09:34:24Z</time>
      </trkpt>
      <trkpt lat="45.34514" lon="5.84092">
        <ele>1575</ele>
        <time>2022-03-06T09:34:25Z</time>
      </trkpt>
      <trkpt lat="45.34516" lon="5.84095">
        <ele>1576</ele>
        <time>2022-03-06T09:34:28Z</time>
      </trkpt>
      <trkpt lat="45.34516" lon="5.84095">
        <ele>1577</ele>
        <time>2022-03-06T09:34:30Z</time>
      </trkpt>
      <trkpt lat="45.34517" lon="5.84097">
        <ele>1577</ele>
        <time>2022-03-06T09:34:31Z</time>
      </trkpt>
      <trkpt lat="45.34518" lon="5.841">
        <ele>1578</ele>
        <time>2022-03-06T09:34:34Z</time>
      </trkpt>
      <trkpt lat="45.34518" lon="5.841">
        <ele>1578</ele>
        <time>2022-03-06T09:34:36Z</time>
      </trkpt>
      <trkpt lat="45.34519" lon="5.84102">
        <ele>1578</ele>
        <time>2022-03-06T09:34:37Z</time>
      </trkpt>
      <trkpt lat="45.3452" lon="5.84105">
        <ele>1579</ele>
        <time>2022-03-06T09:34:40Z</time>
      </trkpt>
      <trkpt lat="45.3452" lon="5.84105">
        <ele>1579</ele>
        <time>2022-03-06T09:34:42Z</time>
      </trkpt>
      <trkpt lat="45.34521" lon="5.84107">
        <ele>1580</ele>
        <time>2022-03-06T09:34:43Z</time>
      </trkpt>
      <trkpt lat="45.34522" lon="5.8411">
        <ele>1580</ele>
        <time>2022-03-06T09:34:46Z</time>
      </trkpt>
      <trkpt lat="45.34522" lon="5.8411">
        <ele>1580</ele>
        <time>2022-03-06T09:34:48Z</time>
      </trkpt>
      <trkpt lat="45.34523" lon="5.84112">
        <ele>1580</ele>
        <time>2022-03-06T09:34:49Z</time>
      </trkpt>
      <trkpt lat="45.34524" lon="5.84115">
        <ele>1581</ele>
        <time>2022-03-06T09:34:52Z</time>
      </trkpt>
      <trkpt lat="45.34524" lon="5.84115">
        <ele>1581</ele>
        <time>2022-03-06T09:34:54Z</time>
      </trkpt>
      <trkpt lat="45.34525" lon="5.84118">
        <ele>1581</ele>
        <time>2022-03-06T09:34:55Z</time>
      </trkpt>
      <trkpt lat="45.34526" lon="5.84121">
        <ele>1581</ele>
        <time>2022-03-06T09:34:57Z</time>
      </trkpt>
      <trkpt lat="45.34526" lon="5.84121">
        <ele>1581</ele>
        <time>2022-03-06T09:35:00Z</time>
      </trkpt>
      <trkpt lat="45.34527" lon="5.84123">
        <ele>1582</ele>
        <time>2022-03-06T09:35:01Z</time>
      </trkpt>
      <trkpt lat="45.34528" lon="5.84126">
        <ele>1582</ele>
        <time>2022-03-06T09:35:04Z</time>
      </trkpt>
      <trkpt lat="45.34528" lon="5.84126">
        <ele>1583</ele>
        <time>2022-03-06T09:35:06Z</time>
      </trkpt>
      <trkpt lat="45.3453" lon="5.84129">
        <ele>1583</ele>
        <time>2022-03-06T09:35:07Z</time>
      </trkpt>
      <trkpt lat="45.34531" lon="5.84132">
        <ele>1583</ele>
        <time>2022-03-06T09:35:10Z</time>
      </trkpt>
      <trkpt lat="45.34531" lon="5.84132">
        <ele>1584</ele>
        <time>2022-03-06T09:35:12Z</time>
      </trkpt>
      <trkpt lat="45.34532" lon="5.84135">
        <ele>1584</ele>
        <time>2022-03-06T09:35:13Z</time>
      </trkpt>
      <trkpt lat="45.34532" lon="5.84138">
        <ele>1584</ele>
        <time>2022-03-06T09:35:16Z</time>
      </trkpt>
      <trkpt lat="45.34532" lon="5.84138">
        <ele>1584</ele>
        <time>2022-03-06T09:35:18Z</time>
      </trkpt>
      <trkpt lat="45.34532" lon="5.84141">
        <ele>1585</ele>
        <time>2022-03-06T09:35:19Z</time>
      </trkpt>
      <trkpt lat="45.34532" lon="5.84144">
        <ele>1585</ele>
        <time>2022-03-06T09:35:22Z</time>
      </trkpt>
      <trkpt lat="45.34532" lon="5.84144">
        <ele>1586</ele>
        <time>2022-03-06T09:35:24Z</time>
      </trkpt>
      <trkpt lat="45.34533" lon="5.84146">
        <ele>1586</ele>
        <time>2022-03-06T09:35:25Z</time>
      </trkpt>
      <trkpt lat="45.34534" lon="5.84149">
        <ele>1587</ele>
        <time>2022-03-06T09:35:28Z</time>
      </trkpt>
      <trkpt lat="45.34534" lon="5.84149">
        <ele>1588</ele>
        <time>2022-03-06T09:35:30Z</time>
      </trkpt>
      <trkpt lat="45.34536" lon="5.84151">
        <ele>1588</ele>
        <time>2022-03-06T09:35:31Z</time>
      </trkpt>
      <trkpt lat="45.34537" lon="5.84154">
        <ele>1589</ele>
        <time>2022-03-06T09:35:34Z</time>
      </trkpt>
      <trkpt lat="45.34537" lon="5.84154">
        <ele>1589</ele>
        <time>2022-03-06T09:35:36Z</time>
      </trkpt>
      <trkpt lat="45.34538" lon="5.84157">
        <ele>1589</ele>
        <time>2022-03-06T09:35:37Z</time>
      </trkpt>
      <trkpt lat="45.3454" lon="5.84159">
        <ele>1590</ele>
        <time>2022-03-06T09:35:40Z</time>
      </trkpt>
      <trkpt lat="45.3454" lon="5.84159">
        <ele>1590</ele>
        <time>2022-03-06T09:35:42Z</time>
      </trkpt>
      <trkpt lat="45.34541" lon="5.84162">
        <ele>1590</ele>
        <time>2022-03-06T09:35:43Z</time>
      </trkpt>
      <trkpt lat="45.34542" lon="5.84164">
        <ele>1590</ele>
        <time>2022-03-06T09:35:45Z</time>
      </trkpt>
      <trkpt lat="45.34543" lon="5.84167">
        <ele>1590</ele>
        <time>2022-03-06T09:35:47Z</time>
      </trkpt>
      <trkpt lat="45.34543" lon="5.84167">
        <ele>1591</ele>
        <time>2022-03-06T09:35:49Z</time>
      </trkpt>
      <trkpt lat="45.34542" lon="5.8417">
        <ele>1591</ele>
        <time>2022-03-06T09:35:50Z</time>
      </trkpt>
      <trkpt lat="45.3454" lon="5.84173">
        <ele>1592</ele>
        <time>2022-03-06T09:35:53Z</time>
      </trkpt>
      <trkpt lat="45.3454" lon="5.84173">
        <ele>1592</ele>
        <time>2022-03-06T09:35:55Z</time>
      </trkpt>
      <trkpt lat="45.34539" lon="5.84175">
        <ele>1593</ele>
        <time>2022-03-06T09:35:56Z</time>
      </trkpt>
      <trkpt lat="45.34537" lon="5.84177">
        <ele>1594</ele>
        <time>2022-03-06T09:35:59Z</time>
      </trkpt>
      <trkpt lat="45.34537" lon="5.84177">
        <ele>1594</ele>
        <time>2022-03-06T09:36:01Z</time>
      </trkpt>
      <trkpt lat="45.34536" lon="5.84178">
        <ele>1595</ele>
        <time>2022-03-06T09:36:02Z</time>
      </trkpt>
      <trkpt lat="45.34535" lon="5.8418">
        <ele>1595</ele>
        <time>2022-03-06T09:36:05Z</time>
      </trkpt>
      <trkpt lat="45.34535" lon="5.8418">
        <ele>1595</ele>
        <time>2022-03-06T09:36:07Z</time>
      </trkpt>
      <trkpt lat="45.34534" lon="5.84183">
        <ele>1596</ele>
        <time>2022-03-06T09:36:09Z</time>
      </trkpt>
      <trkpt lat="45.34535" lon="5.84186">
        <ele>1596</ele>
        <time>2022-03-06T09:36:12Z</time>
      </trkpt>
      <trkpt lat="45.34535" lon="5.84186">
        <ele>1597</ele>
        <time>2022-03-06T09:36:13Z</time>
      </trkpt>
      <trkpt lat="45.34536" lon="5.84188">
        <ele>1597</ele>
        <time>2022-03-06T09:36:15Z</time>
      </trkpt>
      <trkpt lat="45.34538" lon="5.8419">
        <ele>1598</ele>
        <time>2022-03-06T09:36:18Z</time>
      </trkpt>
      <trkpt lat="45.34538" lon="5.8419">
        <ele>1598</ele>
        <time>2022-03-06T09:36:19Z</time>
      </trkpt>
      <trkpt lat="45.34539" lon="5.84193">
        <ele>1598</ele>
        <time>2022-03-06T09:36:21Z</time>
      </trkpt>
      <trkpt lat="45.34541" lon="5.84194">
        <ele>1599</ele>
        <time>2022-03-06T09:36:24Z</time>
      </trkpt>
      <trkpt lat="45.34541" lon="5.84194">
        <ele>1599</ele>
        <time>2022-03-06T09:36:25Z</time>
      </trkpt>
      <trkpt lat="45.34543" lon="5.84196">
        <ele>1599</ele>
        <time>2022-03-06T09:36:27Z</time>
      </trkpt>
      <trkpt lat="45.34544" lon="5.84198">
        <ele>1600</ele>
        <time>2022-03-06T09:36:30Z</time>
      </trkpt>
      <trkpt lat="45.34544" lon="5.84198">
        <ele>1600</ele>
        <time>2022-03-06T09:36:31Z</time>
      </trkpt>
      <trkpt lat="45.34545" lon="5.842">
        <ele>1600</ele>
        <time>2022-03-06T09:36:33Z</time>
      </trkpt>
      <trkpt lat="45.34547" lon="5.84203">
        <ele>1600</ele>
        <time>2022-03-06T09:36:36Z</time>
      </trkpt>
      <trkpt lat="45.34547" lon="5.84203">
        <ele>1600</ele>
        <time>2022-03-06T09:36:37Z</time>
      </trkpt>
      <trkpt lat="45.34547" lon="5.84206">
        <ele>1602</ele>
        <time>2022-03-06T09:36:39Z</time>
      </trkpt>
      <trkpt lat="45.34546" lon="5.84208">
        <ele>1603</ele>
        <time>2022-03-06T09:36:42Z</time>
      </trkpt>
      <trkpt lat="45.34546" lon="5.84208">
        <ele>1603</ele>
        <time>2022-03-06T09:36:43Z</time>
      </trkpt>
      <trkpt lat="45.34544" lon="5.84209">
        <ele>1603</ele>
        <time>2022-03-06T09:36:45Z</time>
      </trkpt>
      <trkpt lat="45.34544" lon="5.84209">
        <ele>1604</ele>
        <time>2022-03-06T09:36:48Z</time>
      </trkpt>
      <trkpt lat="45.34542" lon="5.84211">
        <ele>1604</ele>
        <time>2022-03-06T09:36:49Z</time>
      </trkpt>
      <trkpt lat="45.34541" lon="5.84214">
        <ele>1605</ele>
        <time>2022-03-06T09:36:52Z</time>
      </trkpt>
      <trkpt lat="45.34541" lon="5.84214">
        <ele>1605</ele>
        <time>2022-03-06T09:36:54Z</time>
      </trkpt>
      <trkpt lat="45.34541" lon="5.84217">
        <ele>1605</ele>
        <time>2022-03-06T09:36:56Z</time>
      </trkpt>
      <trkpt lat="45.34543" lon="5.84219">
        <ele>1605</ele>
        <time>2022-03-06T09:36:59Z</time>
      </trkpt>
      <trkpt lat="45.34543" lon="5.84219">
        <ele>1606</ele>
        <time>2022-03-06T09:37:00Z</time>
      </trkpt>
      <trkpt lat="45.34545" lon="5.84221">
        <ele>1606</ele>
        <time>2022-03-06T09:37:02Z</time>
      </trkpt>
      <trkpt lat="45.34545" lon="5.84224">
        <ele>1607</ele>
        <time>2022-03-06T09:37:05Z</time>
      </trkpt>
      <trkpt lat="45.34545" lon="5.84224">
        <ele>1607</ele>
        <time>2022-03-06T09:37:06Z</time>
      </trkpt>
      <trkpt lat="45.34544" lon="5.84227">
        <ele>1607</ele>
        <time>2022-03-06T09:37:08Z</time>
      </trkpt>
      <trkpt lat="45.34543" lon="5.84229">
        <ele>1608</ele>
        <time>2022-03-06T09:37:11Z</time>
      </trkpt>
      <trkpt lat="45.34543" lon="5.84229">
        <ele>1608</ele>
        <time>2022-03-06T09:37:12Z</time>
      </trkpt>
      <trkpt lat="45.34543" lon="5.84232">
        <ele>1609</ele>
        <time>2022-03-06T09:37:14Z</time>
      </trkpt>
      <trkpt lat="45.34543" lon="5.84235">
        <ele>1610</ele>
        <time>2022-03-06T09:37:17Z</time>
      </trkpt>
      <trkpt lat="45.34543" lon="5.84235">
        <ele>1610</ele>
        <time>2022-03-06T09:37:18Z</time>
      </trkpt>
      <trkpt lat="45.34544" lon="5.84238">
        <ele>1610</ele>
        <time>2022-03-06T09:37:20Z</time>
      </trkpt>
      <trkpt lat="45.34545" lon="5.84241">
        <ele>1611</ele>
        <time>2022-03-06T09:37:23Z</time>
      </trkpt>
      <trkpt lat="45.34545" lon="5.84241">
        <ele>1611</ele>
        <time>2022-03-06T09:37:24Z</time>
      </trkpt>
      <trkpt lat="45.34546" lon="5.84244">
        <ele>1611</ele>
        <time>2022-03-06T09:37:26Z</time>
      </trkpt>
      <trkpt lat="45.34546" lon="5.84248">
        <ele>1612</ele>
        <time>2022-03-06T09:37:29Z</time>
      </trkpt>
      <trkpt lat="45.34546" lon="5.84248">
        <ele>1612</ele>
        <time>2022-03-06T09:37:30Z</time>
      </trkpt>
      <trkpt lat="45.34547" lon="5.8425">
        <ele>1613</ele>
        <time>2022-03-06T09:37:32Z</time>
      </trkpt>
      <trkpt lat="45.34547" lon="5.84254">
        <ele>1613</ele>
        <time>2022-03-06T09:37:35Z</time>
      </trkpt>
      <trkpt lat="45.34547" lon="5.84254">
        <ele>1614</ele>
        <time>2022-03-06T09:37:36Z</time>
      </trkpt>
      <trkpt lat="45.34546" lon="5.84256">
        <ele>1614</ele>
        <time>2022-03-06T09:37:38Z</time>
      </trkpt>
      <trkpt lat="45.34546" lon="5.8426">
        <ele>1615</ele>
        <time>2022-03-06T09:37:41Z</time>
      </trkpt>
      <trkpt lat="45.34546" lon="5.8426">
        <ele>1615</ele>
        <time>2022-03-06T09:37:42Z</time>
      </trkpt>
      <trkpt lat="45.34546" lon="5.84262">
        <ele>1615</ele>
        <time>2022-03-06T09:37:44Z</time>
      </trkpt>
      <trkpt lat="45.34546" lon="5.84265">
        <ele>1615</ele>
        <time>2022-03-06T09:37:47Z</time>
      </trkpt>
      <trkpt lat="45.34546" lon="5.84265">
        <ele>1615</ele>
        <time>2022-03-06T09:37:48Z</time>
      </trkpt>
      <trkpt lat="45.34546" lon="5.84269">
        <ele>1616</ele>
        <time>2022-03-06T09:37:50Z</time>
      </trkpt>
      <trkpt lat="45.34546" lon="5.84272">
        <ele>1617</ele>
        <time>2022-03-06T09:37:53Z</time>
      </trkpt>
      <trkpt lat="45.34546" lon="5.84272">
        <ele>1617</ele>
        <time>2022-03-06T09:37:54Z</time>
      </trkpt>
      <trkpt lat="45.34545" lon="5.84275">
        <ele>1617</ele>
        <time>2022-03-06T09:37:56Z</time>
      </trkpt>
      <trkpt lat="45.34545" lon="5.84278">
        <ele>1618</ele>
        <time>2022-03-06T09:37:59Z</time>
      </trkpt>
      <trkpt lat="45.34545" lon="5.84278">
        <ele>1618</ele>
        <time>2022-03-06T09:38:00Z</time>
      </trkpt>
      <trkpt lat="45.34545" lon="5.84281">
        <ele>1619</ele>
        <time>2022-03-06T09:38:02Z</time>
      </trkpt>
      <trkpt lat="45.34545" lon="5.84285">
        <ele>1620</ele>
        <time>2022-03-06T09:38:05Z</time>
      </trkpt>
      <trkpt lat="45.34545" lon="5.84285">
        <ele>1620</ele>
        <time>2022-03-06T09:38:06Z</time>
      </trkpt>
      <trkpt lat="45.34545" lon="5.84287">
        <ele>1620</ele>
        <time>2022-03-06T09:38:09Z</time>
      </trkpt>
      <trkpt lat="45.34545" lon="5.84287">
        <ele>1621</ele>
        <time>2022-03-06T09:38:11Z</time>
      </trkpt>
      <trkpt lat="45.34545" lon="5.8429">
        <ele>1621</ele>
        <time>2022-03-06T09:38:12Z</time>
      </trkpt>
      <trkpt lat="45.34543" lon="5.84292">
        <ele>1622</ele>
        <time>2022-03-06T09:38:15Z</time>
      </trkpt>
      <trkpt lat="45.34543" lon="5.84292">
        <ele>1623</ele>
        <time>2022-03-06T09:38:17Z</time>
      </trkpt>
      <trkpt lat="45.34543" lon="5.84296">
        <ele>1623</ele>
        <time>2022-03-06T09:38:18Z</time>
      </trkpt>
      <trkpt lat="45.34544" lon="5.84299">
        <ele>1624</ele>
        <time>2022-03-06T09:38:21Z</time>
      </trkpt>
      <trkpt lat="45.34544" lon="5.84299">
        <ele>1624</ele>
        <time>2022-03-06T09:38:23Z</time>
      </trkpt>
      <trkpt lat="45.34544" lon="5.84302">
        <ele>1624</ele>
        <time>2022-03-06T09:38:24Z</time>
      </trkpt>
      <trkpt lat="45.34544" lon="5.84305">
        <ele>1624</ele>
        <time>2022-03-06T09:38:26Z</time>
      </trkpt>
      <trkpt lat="45.34544" lon="5.84305">
        <ele>1625</ele>
        <time>2022-03-06T09:38:29Z</time>
      </trkpt>
      <trkpt lat="45.34544" lon="5.84308">
        <ele>1625</ele>
        <time>2022-03-06T09:38:30Z</time>
      </trkpt>
      <trkpt lat="45.34544" lon="5.84311">
        <ele>1626</ele>
        <time>2022-03-06T09:38:33Z</time>
      </trkpt>
      <trkpt lat="45.34544" lon="5.84311">
        <ele>1627</ele>
        <time>2022-03-06T09:38:35Z</time>
      </trkpt>
      <trkpt lat="45.34545" lon="5.84314">
        <ele>1627</ele>
        <time>2022-03-06T09:38:36Z</time>
      </trkpt>
      <trkpt lat="45.34545" lon="5.84317">
        <ele>1628</ele>
        <time>2022-03-06T09:38:39Z</time>
      </trkpt>
      <trkpt lat="45.34545" lon="5.84317">
        <ele>1628</ele>
        <time>2022-03-06T09:38:41Z</time>
      </trkpt>
      <trkpt lat="45.34545" lon="5.84319">
        <ele>1629</ele>
        <time>2022-03-06T09:38:42Z</time>
      </trkpt>
      <trkpt lat="45.34545" lon="5.84323">
        <ele>1630</ele>
        <time>2022-03-06T09:38:45Z</time>
      </trkpt>
      <trkpt lat="45.34545" lon="5.84323">
        <ele>1630</ele>
        <time>2022-03-06T09:38:47Z</time>
      </trkpt>
      <trkpt lat="45.34545" lon="5.84325">
        <ele>1630</ele>
        <time>2022-03-06T09:38:48Z</time>
      </trkpt>
      <trkpt lat="45.34545" lon="5.84328">
        <ele>1631</ele>
        <time>2022-03-06T09:38:51Z</time>
      </trkpt>
      <trkpt lat="45.34545" lon="5.84331">
        <ele>1631</ele>
        <time>2022-03-06T09:38:53Z</time>
      </trkpt>
      <trkpt lat="45.34546" lon="5.84333">
        <ele>1632</ele>
        <time>2022-03-06T09:38:56Z</time>
      </trkpt>
      <trkpt lat="45.34546" lon="5.84333">
        <ele>1633</ele>
        <time>2022-03-06T09:38:57Z</time>
      </trkpt>
      <trkpt lat="45.34546" lon="5.84337">
        <ele>1633</ele>
        <time>2022-03-06T09:39:00Z</time>
      </trkpt>
      <trkpt lat="45.34546" lon="5.84337">
        <ele>1634</ele>
        <time>2022-03-06T09:39:02Z</time>
      </trkpt>
      <trkpt lat="45.34546" lon="5.8434">
        <ele>1635</ele>
        <time>2022-03-06T09:39:04Z</time>
      </trkpt>
      <trkpt lat="45.34546" lon="5.8434">
        <ele>1635</ele>
        <time>2022-03-06T09:39:07Z</time>
      </trkpt>
      <trkpt lat="45.34548" lon="5.84343">
        <ele>1636</ele>
        <time>2022-03-06T09:39:09Z</time>
      </trkpt>
      <trkpt lat="45.34549" lon="5.84345">
        <ele>1637</ele>
        <time>2022-03-06T09:39:12Z</time>
      </trkpt>
      <trkpt lat="45.34549" lon="5.84345">
        <ele>1637</ele>
        <time>2022-03-06T09:39:13Z</time>
      </trkpt>
      <trkpt lat="45.3455" lon="5.84348">
        <ele>1638</ele>
        <time>2022-03-06T09:39:16Z</time>
      </trkpt>
      <trkpt lat="45.3455" lon="5.84348">
        <ele>1639</ele>
        <time>2022-03-06T09:39:18Z</time>
      </trkpt>
      <trkpt lat="45.3455" lon="5.84351">
        <ele>1640</ele>
        <time>2022-03-06T09:39:20Z</time>
      </trkpt>
      <trkpt lat="45.3455" lon="5.84351">
        <ele>1640</ele>
        <time>2022-03-06T09:39:23Z</time>
      </trkpt>
      <trkpt lat="45.34549" lon="5.84354">
        <ele>1641</ele>
        <time>2022-03-06T09:39:25Z</time>
      </trkpt>
      <trkpt lat="45.34549" lon="5.84354">
        <ele>1642</ele>
        <time>2022-03-06T09:39:28Z</time>
      </trkpt>
      <trkpt lat="45.3455" lon="5.84357">
        <ele>1642</ele>
        <time>2022-03-06T09:39:29Z</time>
      </trkpt>
      <trkpt lat="45.3455" lon="5.8436">
        <ele>1643</ele>
        <time>2022-03-06T09:39:33Z</time>
      </trkpt>
      <trkpt lat="45.3455" lon="5.8436">
        <ele>1643</ele>
        <time>2022-03-06T09:39:34Z</time>
      </trkpt>
      <trkpt lat="45.34551" lon="5.84362">
        <ele>1643</ele>
        <time>2022-03-06T09:39:36Z</time>
      </trkpt>
      <trkpt lat="45.34552" lon="5.84365">
        <ele>1644</ele>
        <time>2022-03-06T09:39:39Z</time>
      </trkpt>
      <trkpt lat="45.34552" lon="5.84365">
        <ele>1644</ele>
        <time>2022-03-06T09:39:40Z</time>
      </trkpt>
      <trkpt lat="45.34552" lon="5.84368">
        <ele>1644</ele>
        <time>2022-03-06T09:39:42Z</time>
      </trkpt>
      <trkpt lat="45.34552" lon="5.84368">
        <ele>1645</ele>
        <time>2022-03-06T09:39:45Z</time>
      </trkpt>
      <trkpt lat="45.34553" lon="5.84371">
        <ele>1646</ele>
        <time>2022-03-06T09:39:47Z</time>
      </trkpt>
      <trkpt lat="45.34553" lon="5.84371">
        <ele>1647</ele>
        <time>2022-03-06T09:39:50Z</time>
      </trkpt>
      <trkpt lat="45.34553" lon="5.84374">
        <ele>1647</ele>
        <time>2022-03-06T09:39:51Z</time>
      </trkpt>
      <trkpt lat="45.34554" lon="5.84377">
        <ele>1648</ele>
        <time>2022-03-06T09:39:55Z</time>
      </trkpt>
      <trkpt lat="45.34554" lon="5.84377">
        <ele>1648</ele>
        <time>2022-03-06T09:39:56Z</time>
      </trkpt>
      <trkpt lat="45.34555" lon="5.84379">
        <ele>1649</ele>
        <time>2022-03-06T09:39:59Z</time>
      </trkpt>
      <trkpt lat="45.34555" lon="5.84379">
        <ele>1649</ele>
        <time>2022-03-06T09:40:01Z</time>
      </trkpt>
      <trkpt lat="45.34555" lon="5.84382">
        <ele>1650</ele>
        <time>2022-03-06T09:40:03Z</time>
      </trkpt>
      <trkpt lat="45.34555" lon="5.84382">
        <ele>1651</ele>
        <time>2022-03-06T09:40:06Z</time>
      </trkpt>
      <trkpt lat="45.34556" lon="5.84385">
        <ele>1651</ele>
        <time>2022-03-06T09:40:07Z</time>
      </trkpt>
      <trkpt lat="45.34557" lon="5.84388">
        <ele>1651</ele>
        <time>2022-03-06T09:40:10Z</time>
      </trkpt>
      <trkpt lat="45.34557" lon="5.84388">
        <ele>1652</ele>
        <time>2022-03-06T09:40:12Z</time>
      </trkpt>
      <trkpt lat="45.34557" lon="5.8439">
        <ele>1652</ele>
        <time>2022-03-06T09:40:13Z</time>
      </trkpt>
      <trkpt lat="45.34558" lon="5.84393">
        <ele>1653</ele>
        <time>2022-03-06T09:40:16Z</time>
      </trkpt>
      <trkpt lat="45.34558" lon="5.84393">
        <ele>1653</ele>
        <time>2022-03-06T09:40:18Z</time>
      </trkpt>
      <trkpt lat="45.3456" lon="5.84395">
        <ele>1654</ele>
        <time>2022-03-06T09:40:19Z</time>
      </trkpt>
      <trkpt lat="45.34561" lon="5.84398">
        <ele>1654</ele>
        <time>2022-03-06T09:40:22Z</time>
      </trkpt>
      <trkpt lat="45.34561" lon="5.84398">
        <ele>1655</ele>
        <time>2022-03-06T09:40:24Z</time>
      </trkpt>
      <trkpt lat="45.34562" lon="5.84401">
        <ele>1655</ele>
        <time>2022-03-06T09:40:25Z</time>
      </trkpt>
      <trkpt lat="45.34562" lon="5.84404">
        <ele>1656</ele>
        <time>2022-03-06T09:40:28Z</time>
      </trkpt>
      <trkpt lat="45.34562" lon="5.84404">
        <ele>1656</ele>
        <time>2022-03-06T09:40:30Z</time>
      </trkpt>
      <trkpt lat="45.34563" lon="5.84406">
        <ele>1657</ele>
        <time>2022-03-06T09:40:31Z</time>
      </trkpt>
      <trkpt lat="45.34564" lon="5.8441">
        <ele>1657</ele>
        <time>2022-03-06T09:40:35Z</time>
      </trkpt>
      <trkpt lat="45.34564" lon="5.8441">
        <ele>1657</ele>
        <time>2022-03-06T09:40:36Z</time>
      </trkpt>
      <trkpt lat="45.34564" lon="5.84413">
        <ele>1658</ele>
        <time>2022-03-06T09:40:38Z</time>
      </trkpt>
      <trkpt lat="45.34565" lon="5.84415">
        <ele>1658</ele>
        <time>2022-03-06T09:40:41Z</time>
      </trkpt>
      <trkpt lat="45.34565" lon="5.84415">
        <ele>1658</ele>
        <time>2022-03-06T09:40:42Z</time>
      </trkpt>
      <trkpt lat="45.34565" lon="5.84418">
        <ele>1658</ele>
        <time>2022-03-06T09:40:44Z</time>
      </trkpt>
      <trkpt lat="45.34566" lon="5.84421">
        <ele>1659</ele>
        <time>2022-03-06T09:40:47Z</time>
      </trkpt>
      <trkpt lat="45.34566" lon="5.84421">
        <ele>1659</ele>
        <time>2022-03-06T09:40:48Z</time>
      </trkpt>
      <trkpt lat="45.34567" lon="5.84424">
        <ele>1659</ele>
        <time>2022-03-06T09:40:50Z</time>
      </trkpt>
      <trkpt lat="45.34568" lon="5.84427">
        <ele>1660</ele>
        <time>2022-03-06T09:40:53Z</time>
      </trkpt>
      <trkpt lat="45.34568" lon="5.84427">
        <ele>1661</ele>
        <time>2022-03-06T09:40:54Z</time>
      </trkpt>
      <trkpt lat="45.34568" lon="5.84431">
        <ele>1661</ele>
        <time>2022-03-06T09:40:56Z</time>
      </trkpt>
      <trkpt lat="45.34568" lon="5.84433">
        <ele>1662</ele>
        <time>2022-03-06T09:40:59Z</time>
      </trkpt>
      <trkpt lat="45.34568" lon="5.84433">
        <ele>1662</ele>
        <time>2022-03-06T09:41:00Z</time>
      </trkpt>
      <trkpt lat="45.34567" lon="5.84436">
        <ele>1663</ele>
        <time>2022-03-06T09:41:02Z</time>
      </trkpt>
      <trkpt lat="45.34567" lon="5.84436">
        <ele>1663</ele>
        <time>2022-03-06T09:41:05Z</time>
      </trkpt>
      <trkpt lat="45.34567" lon="5.84439">
        <ele>1663</ele>
        <time>2022-03-06T09:41:06Z</time>
      </trkpt>
      <trkpt lat="45.34566" lon="5.84441">
        <ele>1664</ele>
        <time>2022-03-06T09:41:09Z</time>
      </trkpt>
      <trkpt lat="45.34566" lon="5.84441">
        <ele>1665</ele>
        <time>2022-03-06T09:41:11Z</time>
      </trkpt>
      <trkpt lat="45.34565" lon="5.84444">
        <ele>1665</ele>
        <time>2022-03-06T09:41:12Z</time>
      </trkpt>
      <trkpt lat="45.34564" lon="5.84447">
        <ele>1665</ele>
        <time>2022-03-06T09:41:14Z</time>
      </trkpt>
      <trkpt lat="45.34564" lon="5.84447">
        <ele>1666</ele>
        <time>2022-03-06T09:41:17Z</time>
      </trkpt>
      <trkpt lat="45.34564" lon="5.84451">
        <ele>1667</ele>
        <time>2022-03-06T09:41:19Z</time>
      </trkpt>
      <trkpt lat="45.34565" lon="5.84454">
        <ele>1667</ele>
        <time>2022-03-06T09:41:22Z</time>
      </trkpt>
      <trkpt lat="45.34565" lon="5.84454">
        <ele>1668</ele>
        <time>2022-03-06T09:41:23Z</time>
      </trkpt>
      <trkpt lat="45.34565" lon="5.84457">
        <ele>1668</ele>
        <time>2022-03-06T09:41:25Z</time>
      </trkpt>
      <trkpt lat="45.34565" lon="5.8446">
        <ele>1668</ele>
        <time>2022-03-06T09:41:28Z</time>
      </trkpt>
      <trkpt lat="45.34565" lon="5.8446">
        <ele>1668</ele>
        <time>2022-03-06T09:41:29Z</time>
      </trkpt>
      <trkpt lat="45.34565" lon="5.84463">
        <ele>1668</ele>
        <time>2022-03-06T09:41:31Z</time>
      </trkpt>
      <trkpt lat="45.34565" lon="5.84466">
        <ele>1669</ele>
        <time>2022-03-06T09:41:34Z</time>
      </trkpt>
      <trkpt lat="45.34565" lon="5.84466">
        <ele>1669</ele>
        <time>2022-03-06T09:41:35Z</time>
      </trkpt>
      <trkpt lat="45.34564" lon="5.84469">
        <ele>1669</ele>
        <time>2022-03-06T09:41:36Z</time>
      </trkpt>
      <trkpt lat="45.34563" lon="5.84472">
        <ele>1670</ele>
        <time>2022-03-06T09:41:40Z</time>
      </trkpt>
      <trkpt lat="45.34563" lon="5.84472">
        <ele>1671</ele>
        <time>2022-03-06T09:41:41Z</time>
      </trkpt>
      <trkpt lat="45.34562" lon="5.84474">
        <ele>1671</ele>
        <time>2022-03-06T09:41:43Z</time>
      </trkpt>
      <trkpt lat="45.34562" lon="5.84474">
        <ele>1672</ele>
        <time>2022-03-06T09:41:46Z</time>
      </trkpt>
      <trkpt lat="45.34562" lon="5.84477">
        <ele>1672</ele>
        <time>2022-03-06T09:41:47Z</time>
      </trkpt>
      <trkpt lat="45.34561" lon="5.84481">
        <ele>1673</ele>
        <time>2022-03-06T09:41:51Z</time>
      </trkpt>
      <trkpt lat="45.34561" lon="5.84481">
        <ele>1673</ele>
        <time>2022-03-06T09:41:52Z</time>
      </trkpt>
      <trkpt lat="45.34561" lon="5.84484">
        <ele>1674</ele>
        <time>2022-03-06T09:41:54Z</time>
      </trkpt>
      <trkpt lat="45.34561" lon="5.84486">
        <ele>1675</ele>
        <time>2022-03-06T09:41:57Z</time>
      </trkpt>
      <trkpt lat="45.34561" lon="5.84486">
        <ele>1675</ele>
        <time>2022-03-06T09:41:58Z</time>
      </trkpt>
      <trkpt lat="45.34559" lon="5.84489">
        <ele>1675</ele>
        <time>2022-03-06T09:42:00Z</time>
      </trkpt>
      <trkpt lat="45.34558" lon="5.84491">
        <ele>1675</ele>
        <time>2022-03-06T09:42:03Z</time>
      </trkpt>
      <trkpt lat="45.34558" lon="5.84491">
        <ele>1676</ele>
        <time>2022-03-06T09:42:04Z</time>
      </trkpt>
      <trkpt lat="45.34556" lon="5.84493">
        <ele>1676</ele>
        <time>2022-03-06T09:42:06Z</time>
      </trkpt>
      <trkpt lat="45.34556" lon="5.84495">
        <ele>1677</ele>
        <time>2022-03-06T09:42:09Z</time>
      </trkpt>
      <trkpt lat="45.34556" lon="5.84495">
        <ele>1678</ele>
        <time>2022-03-06T09:42:10Z</time>
      </trkpt>
      <trkpt lat="45.34555" lon="5.84498">
        <ele>1678</ele>
        <time>2022-03-06T09:42:12Z</time>
      </trkpt>
      <trkpt lat="45.34555" lon="5.84501">
        <ele>1678</ele>
        <time>2022-03-06T09:42:15Z</time>
      </trkpt>
      <trkpt lat="45.34555" lon="5.84501">
        <ele>1678</ele>
        <time>2022-03-06T09:42:16Z</time>
      </trkpt>
      <trkpt lat="45.34554" lon="5.84503">
        <ele>1679</ele>
        <time>2022-03-06T09:42:18Z</time>
      </trkpt>
      <trkpt lat="45.34553" lon="5.84506">
        <ele>1679</ele>
        <time>2022-03-06T09:42:21Z</time>
      </trkpt>
      <trkpt lat="45.34553" lon="5.84506">
        <ele>1679</ele>
        <time>2022-03-06T09:42:22Z</time>
      </trkpt>
      <trkpt lat="45.34552" lon="5.84509">
        <ele>1679</ele>
        <time>2022-03-06T09:42:25Z</time>
      </trkpt>
      <trkpt lat="45.34552" lon="5.84509">
        <ele>1680</ele>
        <time>2022-03-06T09:42:27Z</time>
      </trkpt>
      <trkpt lat="45.34552" lon="5.84512">
        <ele>1680</ele>
        <time>2022-03-06T09:42:28Z</time>
      </trkpt>
      <trkpt lat="45.34552" lon="5.84515">
        <ele>1681</ele>
        <time>2022-03-06T09:42:32Z</time>
      </trkpt>
      <trkpt lat="45.34552" lon="5.84515">
        <ele>1681</ele>
        <time>2022-03-06T09:42:33Z</time>
      </trkpt>
      <trkpt lat="45.34552" lon="5.84518">
        <ele>1681</ele>
        <time>2022-03-06T09:42:36Z</time>
      </trkpt>
      <trkpt lat="45.34552" lon="5.84518">
        <ele>1682</ele>
        <time>2022-03-06T09:42:38Z</time>
      </trkpt>
      <trkpt lat="45.34551" lon="5.8452">
        <ele>1682</ele>
        <time>2022-03-06T09:42:39Z</time>
      </trkpt>
      <trkpt lat="45.34551" lon="5.84524">
        <ele>1683</ele>
        <time>2022-03-06T09:42:43Z</time>
      </trkpt>
      <trkpt lat="45.34551" lon="5.84524">
        <ele>1684</ele>
        <time>2022-03-06T09:42:44Z</time>
      </trkpt>
      <trkpt lat="45.34551" lon="5.84526">
        <ele>1685</ele>
        <time>2022-03-06T09:42:46Z</time>
      </trkpt>
      <trkpt lat="45.3455" lon="5.84529">
        <ele>1685</ele>
        <time>2022-03-06T09:42:49Z</time>
      </trkpt>
      <trkpt lat="45.3455" lon="5.84529">
        <ele>1685</ele>
        <time>2022-03-06T09:42:50Z</time>
      </trkpt>
      <trkpt lat="45.3455" lon="5.84532">
        <ele>1686</ele>
        <time>2022-03-06T09:42:52Z</time>
      </trkpt>
      <trkpt lat="45.34549" lon="5.84534">
        <ele>1687</ele>
        <time>2022-03-06T09:42:55Z</time>
      </trkpt>
      <trkpt lat="45.34549" lon="5.84534">
        <ele>1687</ele>
        <time>2022-03-06T09:42:56Z</time>
      </trkpt>
      <trkpt lat="45.34549" lon="5.84537">
        <ele>1687</ele>
        <time>2022-03-06T09:42:58Z</time>
      </trkpt>
      <trkpt lat="45.34547" lon="5.8454">
        <ele>1688</ele>
        <time>2022-03-06T09:43:01Z</time>
      </trkpt>
      <trkpt lat="45.34547" lon="5.8454">
        <ele>1688</ele>
        <time>2022-03-06T09:43:02Z</time>
      </trkpt>
      <trkpt lat="45.34546" lon="5.84543">
        <ele>1688</ele>
        <time>2022-03-06T09:43:04Z</time>
      </trkpt>
      <trkpt lat="45.34545" lon="5.84545">
        <ele>1689</ele>
        <time>2022-03-06T09:43:07Z</time>
      </trkpt>
      <trkpt lat="45.34545" lon="5.84545">
        <ele>1689</ele>
        <time>2022-03-06T09:43:08Z</time>
      </trkpt>
      <trkpt lat="45.34545" lon="5.84548">
        <ele>1689</ele>
        <time>2022-03-06T09:43:10Z</time>
      </trkpt>
      <trkpt lat="45.34544" lon="5.84552">
        <ele>1690</ele>
        <time>2022-03-06T09:43:13Z</time>
      </trkpt>
      <trkpt lat="45.34544" lon="5.84552">
        <ele>1690</ele>
        <time>2022-03-06T09:43:14Z</time>
      </trkpt>
      <trkpt lat="45.34543" lon="5.84554">
        <ele>1691</ele>
        <time>2022-03-06T09:43:16Z</time>
      </trkpt>
      <trkpt lat="45.34542" lon="5.84557">
        <ele>1691</ele>
        <time>2022-03-06T09:43:19Z</time>
      </trkpt>
      <trkpt lat="45.34542" lon="5.84557">
        <ele>1691</ele>
        <time>2022-03-06T09:43:20Z</time>
      </trkpt>
      <trkpt lat="45.34541" lon="5.84559">
        <ele>1692</ele>
        <time>2022-03-06T09:43:22Z</time>
      </trkpt>
      <trkpt lat="45.3454" lon="5.84561">
        <ele>1693</ele>
        <time>2022-03-06T09:43:25Z</time>
      </trkpt>
      <trkpt lat="45.3454" lon="5.84561">
        <ele>1694</ele>
        <time>2022-03-06T09:43:26Z</time>
      </trkpt>
      <trkpt lat="45.3454" lon="5.84565">
        <ele>1694</ele>
        <time>2022-03-06T09:43:29Z</time>
      </trkpt>
      <trkpt lat="45.3454" lon="5.84565">
        <ele>1694</ele>
        <time>2022-03-06T09:43:31Z</time>
      </trkpt>
      <trkpt lat="45.34538" lon="5.84568">
        <ele>1694</ele>
        <time>2022-03-06T09:43:32Z</time>
      </trkpt>
      <trkpt lat="45.34538" lon="5.84571">
        <ele>1695</ele>
        <time>2022-03-06T09:43:35Z</time>
      </trkpt>
      <trkpt lat="45.34538" lon="5.84571">
        <ele>1696</ele>
        <time>2022-03-06T09:43:37Z</time>
      </trkpt>
      <trkpt lat="45.34537" lon="5.84574">
        <ele>1696</ele>
        <time>2022-03-06T09:43:38Z</time>
      </trkpt>
      <trkpt lat="45.34536" lon="5.84576">
        <ele>1697</ele>
        <time>2022-03-06T09:43:41Z</time>
      </trkpt>
      <trkpt lat="45.34536" lon="5.84576">
        <ele>1697</ele>
        <time>2022-03-06T09:43:43Z</time>
      </trkpt>
      <trkpt lat="45.34535" lon="5.84579">
        <ele>1698</ele>
        <time>2022-03-06T09:43:45Z</time>
      </trkpt>
      <trkpt lat="45.34535" lon="5.84583">
        <ele>1698</ele>
        <time>2022-03-06T09:43:48Z</time>
      </trkpt>
      <trkpt lat="45.34535" lon="5.84583">
        <ele>1698</ele>
        <time>2022-03-06T09:43:49Z</time>
      </trkpt>
      <trkpt lat="45.34534" lon="5.84586">
        <ele>1699</ele>
        <time>2022-03-06T09:43:51Z</time>
      </trkpt>
      <trkpt lat="45.34533" lon="5.84588">
        <ele>1699</ele>
        <time>2022-03-06T09:43:54Z</time>
      </trkpt>
      <trkpt lat="45.34533" lon="5.84588">
        <ele>1700</ele>
        <time>2022-03-06T09:43:55Z</time>
      </trkpt>
      <trkpt lat="45.34533" lon="5.84591">
        <ele>1700</ele>
        <time>2022-03-06T09:43:57Z</time>
      </trkpt>
      <trkpt lat="45.34532" lon="5.84594">
        <ele>1701</ele>
        <time>2022-03-06T09:44:00Z</time>
      </trkpt>
      <trkpt lat="45.34532" lon="5.84594">
        <ele>1701</ele>
        <time>2022-03-06T09:44:01Z</time>
      </trkpt>
      <trkpt lat="45.3453" lon="5.84596">
        <ele>1702</ele>
        <time>2022-03-06T09:44:03Z</time>
      </trkpt>
      <trkpt lat="45.34528" lon="5.84599">
        <ele>1702</ele>
        <time>2022-03-06T09:44:06Z</time>
      </trkpt>
      <trkpt lat="45.34528" lon="5.84599">
        <ele>1703</ele>
        <time>2022-03-06T09:44:07Z</time>
      </trkpt>
      <trkpt lat="45.34527" lon="5.84601">
        <ele>1704</ele>
        <time>2022-03-06T09:44:10Z</time>
      </trkpt>
      <trkpt lat="45.34527" lon="5.84601">
        <ele>1704</ele>
        <time>2022-03-06T09:44:12Z</time>
      </trkpt>
      <trkpt lat="45.34525" lon="5.84603">
        <ele>1704</ele>
        <time>2022-03-06T09:44:13Z</time>
      </trkpt>
      <trkpt lat="45.34524" lon="5.84605">
        <ele>1705</ele>
        <time>2022-03-06T09:44:16Z</time>
      </trkpt>
      <trkpt lat="45.34524" lon="5.84605">
        <ele>1705</ele>
        <time>2022-03-06T09:44:18Z</time>
      </trkpt>
      <trkpt lat="45.34523" lon="5.84608">
        <ele>1705</ele>
        <time>2022-03-06T09:44:19Z</time>
      </trkpt>
      <trkpt lat="45.34522" lon="5.8461">
        <ele>1707</ele>
        <time>2022-03-06T09:44:22Z</time>
      </trkpt>
      <trkpt lat="45.34522" lon="5.8461">
        <ele>1707</ele>
        <time>2022-03-06T09:44:24Z</time>
      </trkpt>
      <trkpt lat="45.34521" lon="5.84612">
        <ele>1707</ele>
        <time>2022-03-06T09:44:25Z</time>
      </trkpt>
      <trkpt lat="45.34519" lon="5.84614">
        <ele>1707</ele>
        <time>2022-03-06T09:44:27Z</time>
      </trkpt>
      <trkpt lat="45.34517" lon="5.84617">
        <ele>1707</ele>
        <time>2022-03-06T09:44:30Z</time>
      </trkpt>
      <trkpt lat="45.34517" lon="5.84617">
        <ele>1708</ele>
        <time>2022-03-06T09:44:31Z</time>
      </trkpt>
      <trkpt lat="45.34516" lon="5.84618">
        <ele>1708</ele>
        <time>2022-03-06T09:44:32Z</time>
      </trkpt>
      <trkpt lat="45.34514" lon="5.8462">
        <ele>1708</ele>
        <time>2022-03-06T09:44:34Z</time>
      </trkpt>
      <trkpt lat="45.34512" lon="5.84623">
        <ele>1709</ele>
        <time>2022-03-06T09:44:37Z</time>
      </trkpt>
      <trkpt lat="45.34512" lon="5.84623">
        <ele>1709</ele>
        <time>2022-03-06T09:44:38Z</time>
      </trkpt>
      <trkpt lat="45.3451" lon="5.84625">
        <ele>1710</ele>
        <time>2022-03-06T09:44:40Z</time>
      </trkpt>
      <trkpt lat="45.34509" lon="5.84627">
        <ele>1710</ele>
        <time>2022-03-06T09:44:43Z</time>
      </trkpt>
      <trkpt lat="45.34509" lon="5.84627">
        <ele>1710</ele>
        <time>2022-03-06T09:44:44Z</time>
      </trkpt>
      <trkpt lat="45.34508" lon="5.84629">
        <ele>1711</ele>
        <time>2022-03-06T09:44:46Z</time>
      </trkpt>
      <trkpt lat="45.34507" lon="5.84631">
        <ele>1711</ele>
        <time>2022-03-06T09:44:49Z</time>
      </trkpt>
      <trkpt lat="45.34507" lon="5.84631">
        <ele>1712</ele>
        <time>2022-03-06T09:44:50Z</time>
      </trkpt>
      <trkpt lat="45.34506" lon="5.84634">
        <ele>1713</ele>
        <time>2022-03-06T09:44:52Z</time>
      </trkpt>
      <trkpt lat="45.34505" lon="5.84637">
        <ele>1713</ele>
        <time>2022-03-06T09:44:55Z</time>
      </trkpt>
      <trkpt lat="45.34505" lon="5.84637">
        <ele>1713</ele>
        <time>2022-03-06T09:44:56Z</time>
      </trkpt>
      <trkpt lat="45.34504" lon="5.8464">
        <ele>1713</ele>
        <time>2022-03-06T09:44:58Z</time>
      </trkpt>
      <trkpt lat="45.34504" lon="5.84642">
        <ele>1715</ele>
        <time>2022-03-06T09:45:01Z</time>
      </trkpt>
      <trkpt lat="45.34504" lon="5.84642">
        <ele>1715</ele>
        <time>2022-03-06T09:45:02Z</time>
      </trkpt>
      <trkpt lat="45.34502" lon="5.84645">
        <ele>1715</ele>
        <time>2022-03-06T09:45:04Z</time>
      </trkpt>
      <trkpt lat="45.34502" lon="5.84648">
        <ele>1716</ele>
        <time>2022-03-06T09:45:07Z</time>
      </trkpt>
      <trkpt lat="45.34502" lon="5.84648">
        <ele>1716</ele>
        <time>2022-03-06T09:45:08Z</time>
      </trkpt>
      <trkpt lat="45.345" lon="5.8465">
        <ele>1716</ele>
        <time>2022-03-06T09:45:10Z</time>
      </trkpt>
      <trkpt lat="45.34498" lon="5.84653">
        <ele>1716</ele>
        <time>2022-03-06T09:45:13Z</time>
      </trkpt>
      <trkpt lat="45.34498" lon="5.84653">
        <ele>1716</ele>
        <time>2022-03-06T09:45:14Z</time>
      </trkpt>
      <trkpt lat="45.34497" lon="5.84655">
        <ele>1717</ele>
        <time>2022-03-06T09:45:16Z</time>
      </trkpt>
      <trkpt lat="45.34495" lon="5.84656">
        <ele>1717</ele>
        <time>2022-03-06T09:45:18Z</time>
      </trkpt>
      <trkpt lat="45.34495" lon="5.84656">
        <ele>1718</ele>
        <time>2022-03-06T09:45:20Z</time>
      </trkpt>
      <trkpt lat="45.34493" lon="5.84657">
        <ele>1718</ele>
        <time>2022-03-06T09:45:21Z</time>
      </trkpt>
      <trkpt lat="45.34491" lon="5.8466">
        <ele>1718</ele>
        <time>2022-03-06T09:45:24Z</time>
      </trkpt>
      <trkpt lat="45.34491" lon="5.8466">
        <ele>1719</ele>
        <time>2022-03-06T09:45:26Z</time>
      </trkpt>
      <trkpt lat="45.34489" lon="5.84662">
        <ele>1719</ele>
        <time>2022-03-06T09:45:27Z</time>
      </trkpt>
      <trkpt lat="45.34488" lon="5.84664">
        <ele>1720</ele>
        <time>2022-03-06T09:45:30Z</time>
      </trkpt>
      <trkpt lat="45.34488" lon="5.84664">
        <ele>1721</ele>
        <time>2022-03-06T09:45:32Z</time>
      </trkpt>
      <trkpt lat="45.34486" lon="5.84666">
        <ele>1721</ele>
        <time>2022-03-06T09:45:34Z</time>
      </trkpt>
      <trkpt lat="45.34485" lon="5.84668">
        <ele>1722</ele>
        <time>2022-03-06T09:45:36Z</time>
      </trkpt>
      <trkpt lat="45.34485" lon="5.84668">
        <ele>1722</ele>
        <time>2022-03-06T09:45:38Z</time>
      </trkpt>
      <trkpt lat="45.34484" lon="5.8467">
        <ele>1722</ele>
        <time>2022-03-06T09:45:40Z</time>
      </trkpt>
      <trkpt lat="45.34483" lon="5.84673">
        <ele>1723</ele>
        <time>2022-03-06T09:45:43Z</time>
      </trkpt>
      <trkpt lat="45.34483" lon="5.84673">
        <ele>1723</ele>
        <time>2022-03-06T09:45:44Z</time>
      </trkpt>
      <trkpt lat="45.34483" lon="5.84676">
        <ele>1724</ele>
        <time>2022-03-06T09:45:47Z</time>
      </trkpt>
      <trkpt lat="45.34483" lon="5.84676">
        <ele>1724</ele>
        <time>2022-03-06T09:45:49Z</time>
      </trkpt>
      <trkpt lat="45.34482" lon="5.84678">
        <ele>1724</ele>
        <time>2022-03-06T09:45:51Z</time>
      </trkpt>
      <trkpt lat="45.34482" lon="5.84678">
        <ele>1725</ele>
        <time>2022-03-06T09:45:54Z</time>
      </trkpt>
      <trkpt lat="45.34482" lon="5.84681">
        <ele>1725</ele>
        <time>2022-03-06T09:45:55Z</time>
      </trkpt>
      <trkpt lat="45.34483" lon="5.84684">
        <ele>1725</ele>
        <time>2022-03-06T09:45:58Z</time>
      </trkpt>
      <trkpt lat="45.34483" lon="5.84684">
        <ele>1726</ele>
        <time>2022-03-06T09:46:00Z</time>
      </trkpt>
      <trkpt lat="45.34485" lon="5.84686">
        <ele>1727</ele>
        <time>2022-03-06T09:46:03Z</time>
      </trkpt>
      <trkpt lat="45.34485" lon="5.84686">
        <ele>1727</ele>
        <time>2022-03-06T09:46:05Z</time>
      </trkpt>
      <trkpt lat="45.34485" lon="5.84686">
        <ele>1727</ele>
        <time>2022-03-06T09:46:09Z</time>
      </trkpt>
      <trkpt lat="45.34485" lon="5.84686">
        <ele>1727</ele>
        <time>2022-03-06T09:46:13Z</time>
      </trkpt>
      <trkpt lat="45.34485" lon="5.84686">
        <ele>1726</ele>
        <time>2022-03-06T09:46:17Z</time>
      </trkpt>
      <trkpt lat="45.34485" lon="5.84686">
        <ele>1726</ele>
        <time>2022-03-06T09:46:21Z</time>
      </trkpt>
      <trkpt lat="45.34485" lon="5.84686">
        <ele>1726</ele>
        <time>2022-03-06T09:46:25Z</time>
      </trkpt>
      <trkpt lat="45.34485" lon="5.84686">
        <ele>1726</ele>
        <time>2022-03-06T09:46:29Z</time>
      </trkpt>
      <trkpt lat="45.34485" lon="5.84686">
        <ele>1727</ele>
        <time>2022-03-06T09:46:33Z</time>
      </trkpt>
      <trkpt lat="45.34485" lon="5.84686">
        <ele>1727</ele>
        <time>2022-03-06T09:46:37Z</time>
      </trkpt>
      <trkpt lat="45.34485" lon="5.84686">
        <ele>1727</ele>
        <time>2022-03-06T09:46:41Z</time>
      </trkpt>
      <trkpt lat="45.34485" lon="5.84686">
        <ele>1727</ele>
        <time>2022-03-06T09:46:45Z</time>
      </trkpt>
      <trkpt lat="45.34485" lon="5.84686">
        <ele>1727</ele>
        <time>2022-03-06T09:46:49Z</time>
      </trkpt>
      <trkpt lat="45.34485" lon="5.84686">
        <ele>1727</ele>
        <time>2022-03-06T09:46:53Z</time>
      </trkpt>
      <trkpt lat="45.34485" lon="5.84686">
        <ele>1727</ele>
        <time>2022-03-06T09:46:57Z</time>
      </trkpt>
      <trkpt lat="45.34485" lon="5.84686">
        <ele>1726</ele>
        <time>2022-03-06T09:47:01Z</time>
      </trkpt>
      <trkpt lat="45.34485" lon="5.84686">
        <ele>1726</ele>
        <time>2022-03-06T09:47:05Z</time>
      </trkpt>
      <trkpt lat="45.34485" lon="5.84686">
        <ele>1726</ele>
        <time>2022-03-06T09:47:09Z</time>
      </trkpt>
      <trkpt lat="45.34485" lon="5.84686">
        <ele>1727</ele>
        <time>2022-03-06T09:47:13Z</time>
      </trkpt>
      <trkpt lat="45.34485" lon="5.84686">
        <ele>1727</ele>
        <time>2022-03-06T09:47:17Z</time>
      </trkpt>
      <trkpt lat="45.34485" lon="5.84686">
        <ele>1726</ele>
        <time>2022-03-06T09:47:21Z</time>
      </trkpt>
      <trkpt lat="45.34485" lon="5.84686">
        <ele>1726</ele>
        <time>2022-03-06T09:47:25Z</time>
      </trkpt>
      <trkpt lat="45.34485" lon="5.84686">
        <ele>1726</ele>
        <time>2022-03-06T09:47:29Z</time>
      </trkpt>
      <trkpt lat="45.34485" lon="5.84686">
        <ele>1726</ele>
        <time>2022-03-06T09:47:33Z</time>
      </trkpt>
      <trkpt lat="45.34485" lon="5.84686">
        <ele>1726</ele>
        <time>2022-03-06T09:47:37Z</time>
      </trkpt>
      <trkpt lat="45.34485" lon="5.84686">
        <ele>1726</ele>
        <time>2022-03-06T09:47:41Z</time>
      </trkpt>
      <trkpt lat="45.34485" lon="5.84686">
        <ele>1726</ele>
        <time>2022-03-06T09:47:45Z</time>
      </trkpt>
      <trkpt lat="45.34485" lon="5.84686">
        <ele>1727</ele>
        <time>2022-03-06T09:47:49Z</time>
      </trkpt>
      <trkpt lat="45.34485" lon="5.84686">
        <ele>1727</ele>
        <time>2022-03-06T09:47:53Z</time>
      </trkpt>
      <trkpt lat="45.34485" lon="5.84686">
        <ele>1726</ele>
        <time>2022-03-06T09:47:57Z</time>
      </trkpt>
      <trkpt lat="45.34485" lon="5.84686">
        <ele>1726</ele>
        <time>2022-03-06T09:48:01Z</time>
      </trkpt>
      <trkpt lat="45.34485" lon="5.84686">
        <ele>1726</ele>
        <time>2022-03-06T09:48:05Z</time>
      </trkpt>
      <trkpt lat="45.34485" lon="5.84686">
        <ele>1726</ele>
        <time>2022-03-06T09:48:09Z</time>
      </trkpt>
      <trkpt lat="45.34485" lon="5.84686">
        <ele>1727</ele>
        <time>2022-03-06T09:48:13Z</time>
      </trkpt>
      <trkpt lat="45.34485" lon="5.84686">
        <ele>1726</ele>
        <time>2022-03-06T09:48:17Z</time>
      </trkpt>
      <trkpt lat="45.34485" lon="5.84686">
        <ele>1726</ele>
        <time>2022-03-06T09:48:21Z</time>
      </trkpt>
      <trkpt lat="45.34485" lon="5.84686">
        <ele>1725</ele>
        <time>2022-03-06T09:48:25Z</time>
      </trkpt>
      <trkpt lat="45.34485" lon="5.84686">
        <ele>1725</ele>
        <time>2022-03-06T09:48:29Z</time>
      </trkpt>
      <trkpt lat="45.34485" lon="5.84686">
        <ele>1726</ele>
        <time>2022-03-06T09:48:33Z</time>
      </trkpt>
      <trkpt lat="45.34485" lon="5.84686">
        <ele>1726</ele>
        <time>2022-03-06T09:48:37Z</time>
      </trkpt>
      <trkpt lat="45.34485" lon="5.84686">
        <ele>1726</ele>
        <time>2022-03-06T09:48:41Z</time>
      </trkpt>
      <trkpt lat="45.34485" lon="5.84686">
        <ele>1725</ele>
        <time>2022-03-06T09:48:45Z</time>
      </trkpt>
      <trkpt lat="45.34485" lon="5.84688">
        <ele>1725</ele>
        <time>2022-03-06T09:48:48Z</time>
      </trkpt>
      <trkpt lat="45.34485" lon="5.84688">
        <ele>1725</ele>
        <time>2022-03-06T09:48:50Z</time>
      </trkpt>
      <trkpt lat="45.34485" lon="5.84688">
        <ele>1727</ele>
        <time>2022-03-06T09:48:54Z</time>
      </trkpt>
      <trkpt lat="45.34485" lon="5.84692">
        <ele>1727</ele>
        <time>2022-03-06T09:48:58Z</time>
      </trkpt>
      <trkpt lat="45.34485" lon="5.84692">
        <ele>1727</ele>
        <time>2022-03-06T09:48:59Z</time>
      </trkpt>
      <trkpt lat="45.34485" lon="5.84696">
        <ele>1726</ele>
        <time>2022-03-06T09:49:00Z</time>
      </trkpt>
      <trkpt lat="45.34486" lon="5.847">
        <ele>1726</ele>
        <time>2022-03-06T09:49:01Z</time>
      </trkpt>
      <trkpt lat="45.34484" lon="5.84703">
        <ele>1726</ele>
        <time>2022-03-06T09:49:02Z</time>
      </trkpt>
      <trkpt lat="45.34482" lon="5.84703">
        <ele>1724</ele>
        <time>2022-03-06T09:49:04Z</time>
      </trkpt>
      <trkpt lat="45.34479" lon="5.847">
        <ele>1724</ele>
        <time>2022-03-06T09:49:06Z</time>
      </trkpt>
      <trkpt lat="45.34477" lon="5.84699">
        <ele>1724</ele>
        <time>2022-03-06T09:49:07Z</time>
      </trkpt>
      <trkpt lat="45.34475" lon="5.84696">
        <ele>1724</ele>
        <time>2022-03-06T09:49:08Z</time>
      </trkpt>
      <trkpt lat="45.34472" lon="5.84693">
        <ele>1723</ele>
        <time>2022-03-06T09:49:09Z</time>
      </trkpt>
      <trkpt lat="45.3447" lon="5.84689">
        <ele>1723</ele>
        <time>2022-03-06T09:49:10Z</time>
      </trkpt>
      <trkpt lat="45.34469" lon="5.84683">
        <ele>1723</ele>
        <time>2022-03-06T09:49:11Z</time>
      </trkpt>
      <trkpt lat="45.34469" lon="5.84678">
        <ele>1723</ele>
        <time>2022-03-06T09:49:12Z</time>
      </trkpt>
      <trkpt lat="45.34469" lon="5.84673">
        <ele>1723</ele>
        <time>2022-03-06T09:49:13Z</time>
      </trkpt>
      <trkpt lat="45.34469" lon="5.84667">
        <ele>1722</ele>
        <time>2022-03-06T09:49:14Z</time>
      </trkpt>
      <trkpt lat="45.3447" lon="5.8466">
        <ele>1720</ele>
        <time>2022-03-06T09:49:15Z</time>
      </trkpt>
      <trkpt lat="45.34472" lon="5.84654">
        <ele>1719</ele>
        <time>2022-03-06T09:49:16Z</time>
      </trkpt>
      <trkpt lat="45.34476" lon="5.84648">
        <ele>1719</ele>
        <time>2022-03-06T09:49:17Z</time>
      </trkpt>
      <trkpt lat="45.34479" lon="5.8464">
        <ele>1718</ele>
        <time>2022-03-06T09:49:18Z</time>
      </trkpt>
      <trkpt lat="45.34482" lon="5.84632">
        <ele>1717</ele>
        <time>2022-03-06T09:49:19Z</time>
      </trkpt>
      <trkpt lat="45.34486" lon="5.84626">
        <ele>1716</ele>
        <time>2022-03-06T09:49:20Z</time>
      </trkpt>
      <trkpt lat="45.34492" lon="5.84623">
        <ele>1716</ele>
        <time>2022-03-06T09:49:21Z</time>
      </trkpt>
      <trkpt lat="45.34498" lon="5.8462">
        <ele>1715</ele>
        <time>2022-03-06T09:49:22Z</time>
      </trkpt>
      <trkpt lat="45.34502" lon="5.84616">
        <ele>1714</ele>
        <time>2022-03-06T09:49:23Z</time>
      </trkpt>
      <trkpt lat="45.34506" lon="5.84611">
        <ele>1713</ele>
        <time>2022-03-06T09:49:24Z</time>
      </trkpt>
      <trkpt lat="45.34508" lon="5.84604">
        <ele>1712</ele>
        <time>2022-03-06T09:49:25Z</time>
      </trkpt>
      <trkpt lat="45.34512" lon="5.84598">
        <ele>1711</ele>
        <time>2022-03-06T09:49:26Z</time>
      </trkpt>
      <trkpt lat="45.34517" lon="5.84594">
        <ele>1709</ele>
        <time>2022-03-06T09:49:27Z</time>
      </trkpt>
      <trkpt lat="45.34524" lon="5.84586">
        <ele>1707</ele>
        <time>2022-03-06T09:49:28Z</time>
      </trkpt>
      <trkpt lat="45.34526" lon="5.84582">
        <ele>1706</ele>
        <time>2022-03-06T09:49:29Z</time>
      </trkpt>
      <trkpt lat="45.34526" lon="5.84572">
        <ele>1704</ele>
        <time>2022-03-06T09:49:30Z</time>
      </trkpt>
      <trkpt lat="45.34526" lon="5.84562">
        <ele>1703</ele>
        <time>2022-03-06T09:49:31Z</time>
      </trkpt>
      <trkpt lat="45.34527" lon="5.84551">
        <ele>1699</ele>
        <time>2022-03-06T09:49:32Z</time>
      </trkpt>
      <trkpt lat="45.34531" lon="5.84543">
        <ele>1696</ele>
        <time>2022-03-06T09:49:33Z</time>
      </trkpt>
      <trkpt lat="45.34536" lon="5.84533">
        <ele>1695</ele>
        <time>2022-03-06T09:49:34Z</time>
      </trkpt>
      <trkpt lat="45.34537" lon="5.84521">
        <ele>1692</ele>
        <time>2022-03-06T09:49:35Z</time>
      </trkpt>
      <trkpt lat="45.34536" lon="5.8451">
        <ele>1690</ele>
        <time>2022-03-06T09:49:36Z</time>
      </trkpt>
      <trkpt lat="45.34536" lon="5.84498">
        <ele>1686</ele>
        <time>2022-03-06T09:49:37Z</time>
      </trkpt>
      <trkpt lat="45.34539" lon="5.84489">
        <ele>1682</ele>
        <time>2022-03-06T09:49:38Z</time>
      </trkpt>
      <trkpt lat="45.34544" lon="5.84481">
        <ele>1681</ele>
        <time>2022-03-06T09:49:39Z</time>
      </trkpt>
      <trkpt lat="45.34547" lon="5.84471">
        <ele>1679</ele>
        <time>2022-03-06T09:49:40Z</time>
      </trkpt>
      <trkpt lat="45.34544" lon="5.84454">
        <ele>1677</ele>
        <time>2022-03-06T09:49:41Z</time>
      </trkpt>
      <trkpt lat="45.34542" lon="5.84448">
        <ele>1675</ele>
        <time>2022-03-06T09:49:42Z</time>
      </trkpt>
      <trkpt lat="45.3454" lon="5.84436">
        <ele>1672</ele>
        <time>2022-03-06T09:49:43Z</time>
      </trkpt>
      <trkpt lat="45.34542" lon="5.84426">
        <ele>1668</ele>
        <time>2022-03-06T09:49:44Z</time>
      </trkpt>
      <trkpt lat="45.34546" lon="5.84418">
        <ele>1664</ele>
        <time>2022-03-06T09:49:45Z</time>
      </trkpt>
      <trkpt lat="45.3455" lon="5.84411">
        <ele>1663</ele>
        <time>2022-03-06T09:49:46Z</time>
      </trkpt>
      <trkpt lat="45.34552" lon="5.84401">
        <ele>1662</ele>
        <time>2022-03-06T09:49:47Z</time>
      </trkpt>
      <trkpt lat="45.3455" lon="5.84393">
        <ele>1659</ele>
        <time>2022-03-06T09:49:48Z</time>
      </trkpt>
      <trkpt lat="45.34546" lon="5.84387">
        <ele>1657</ele>
        <time>2022-03-06T09:49:49Z</time>
      </trkpt>
      <trkpt lat="45.34542" lon="5.84382">
        <ele>1655</ele>
        <time>2022-03-06T09:49:50Z</time>
      </trkpt>
      <trkpt lat="45.34539" lon="5.84376">
        <ele>1652</ele>
        <time>2022-03-06T09:49:51Z</time>
      </trkpt>
      <trkpt lat="45.34539" lon="5.84369">
        <ele>1650</ele>
        <time>2022-03-06T09:49:52Z</time>
      </trkpt>
      <trkpt lat="45.3454" lon="5.84362">
        <ele>1648</ele>
        <time>2022-03-06T09:49:53Z</time>
      </trkpt>
      <trkpt lat="45.34541" lon="5.84358">
        <ele>1646</ele>
        <time>2022-03-06T09:49:54Z</time>
      </trkpt>
      <trkpt lat="45.34543" lon="5.84354">
        <ele>1644</ele>
        <time>2022-03-06T09:49:55Z</time>
      </trkpt>
      <trkpt lat="45.34545" lon="5.84351">
        <ele>1643</ele>
        <time>2022-03-06T09:49:56Z</time>
      </trkpt>
      <trkpt lat="45.34546" lon="5.84349">
        <ele>1642</ele>
        <time>2022-03-06T09:49:57Z</time>
      </trkpt>
      <trkpt lat="45.34548" lon="5.84347">
        <ele>1641</ele>
        <time>2022-03-06T09:49:58Z</time>
      </trkpt>
      <trkpt lat="45.34548" lon="5.84347">
        <ele>1639</ele>
        <time>2022-03-06T09:50:02Z</time>
      </trkpt>
      <trkpt lat="45.34548" lon="5.84347">
        <ele>1639</ele>
        <time>2022-03-06T09:50:06Z</time>
      </trkpt>
      <trkpt lat="45.34548" lon="5.84347">
        <ele>1639</ele>
        <time>2022-03-06T09:50:10Z</time>
      </trkpt>
      <trkpt lat="45.34548" lon="5.84347">
        <ele>1639</ele>
        <time>2022-03-06T09:50:14Z</time>
      </trkpt>
      <trkpt lat="45.34548" lon="5.84347">
        <ele>1639</ele>
        <time>2022-03-06T09:50:18Z</time>
      </trkpt>
      <trkpt lat="45.34548" lon="5.84347">
        <ele>1639</ele>
        <time>2022-03-06T09:50:22Z</time>
      </trkpt>
      <trkpt lat="45.34548" lon="5.84347">
        <ele>1639</ele>
        <time>2022-03-06T09:50:26Z</time>
      </trkpt>
      <trkpt lat="45.34548" lon="5.84347">
        <ele>1639</ele>
        <time>2022-03-06T09:50:30Z</time>
      </trkpt>
      <trkpt lat="45.34548" lon="5.84347">
        <ele>1639</ele>
        <time>2022-03-06T09:50:34Z</time>
      </trkpt>
      <trkpt lat="45.34549" lon="5.84349">
        <ele>1639</ele>
        <time>2022-03-06T09:50:37Z</time>
      </trkpt>
      <trkpt lat="45.34549" lon="5.84349">
        <ele>1639</ele>
        <time>2022-03-06T09:50:39Z</time>
      </trkpt>
      <trkpt lat="45.3455" lon="5.84351">
        <ele>1639</ele>
        <time>2022-03-06T09:50:40Z</time>
      </trkpt>
      <trkpt lat="45.3455" lon="5.84354">
        <ele>1640</ele>
        <time>2022-03-06T09:50:43Z</time>
      </trkpt>
      <trkpt lat="45.3455" lon="5.84354">
        <ele>1641</ele>
        <time>2022-03-06T09:50:45Z</time>
      </trkpt>
      <trkpt lat="45.34551" lon="5.84357">
        <ele>1641</ele>
        <time>2022-03-06T09:50:47Z</time>
      </trkpt>
      <trkpt lat="45.34551" lon="5.84357">
        <ele>1642</ele>
        <time>2022-03-06T09:50:50Z</time>
      </trkpt>
      <trkpt lat="45.34551" lon="5.8436">
        <ele>1642</ele>
        <time>2022-03-06T09:50:51Z</time>
      </trkpt>
      <trkpt lat="45.34552" lon="5.84363">
        <ele>1643</ele>
        <time>2022-03-06T09:50:54Z</time>
      </trkpt>
      <trkpt lat="45.34552" lon="5.84363">
        <ele>1643</ele>
        <time>2022-03-06T09:50:56Z</time>
      </trkpt>
      <trkpt lat="45.34553" lon="5.84366">
        <ele>1644</ele>
        <time>2022-03-06T09:50:58Z</time>
      </trkpt>
      <trkpt lat="45.34553" lon="5.84366">
        <ele>1645</ele>
        <time>2022-03-06T09:51:01Z</time>
      </trkpt>
      <trkpt lat="45.34553" lon="5.84369">
        <ele>1645</ele>
        <time>2022-03-06T09:51:02Z</time>
      </trkpt>
      <trkpt lat="45.34554" lon="5.84372">
        <ele>1647</ele>
        <time>2022-03-06T09:51:05Z</time>
      </trkpt>
      <trkpt lat="45.34554" lon="5.84372">
        <ele>1647</ele>
        <time>2022-03-06T09:51:07Z</time>
      </trkpt>
      <trkpt lat="45.34554" lon="5.84375">
        <ele>1647</ele>
        <time>2022-03-06T09:51:09Z</time>
      </trkpt>
      <trkpt lat="45.34554" lon="5.84375">
        <ele>1648</ele>
        <time>2022-03-06T09:51:12Z</time>
      </trkpt>
      <trkpt lat="45.34555" lon="5.84378">
        <ele>1648</ele>
        <time>2022-03-06T09:51:13Z</time>
      </trkpt>
      <trkpt lat="45.34555" lon="5.8438">
        <ele>1648</ele>
        <time>2022-03-06T09:51:17Z</time>
      </trkpt>
      <trkpt lat="45.34555" lon="5.8438">
        <ele>1649</ele>
        <time>2022-03-06T09:51:18Z</time>
      </trkpt>
      <trkpt lat="45.34557" lon="5.84382">
        <ele>1649</ele>
        <time>2022-03-06T09:51:20Z</time>
      </trkpt>
      <trkpt lat="45.34557" lon="5.84382">
        <ele>1650</ele>
        <time>2022-03-06T09:51:23Z</time>
      </trkpt>
      <trkpt lat="45.34558" lon="5.84384">
        <ele>1650</ele>
        <time>2022-03-06T09:51:24Z</time>
      </trkpt>
      <trkpt lat="45.34558" lon="5.84384">
        <ele>1650</ele>
        <time>2022-03-06T09:51:28Z</time>
      </trkpt>
      <trkpt lat="45.34558" lon="5.84384">
        <ele>1650</ele>
        <time>2022-03-06T09:51:32Z</time>
      </trkpt>
      <trkpt lat="45.34558" lon="5.84384">
        <ele>1650</ele>
        <time>2022-03-06T09:51:36Z</time>
      </trkpt>
      <trkpt lat="45.34558" lon="5.84384">
        <ele>1649</ele>
        <time>2022-03-06T09:51:40Z</time>
      </trkpt>
      <trkpt lat="45.34558" lon="5.84384">
        <ele>1650</ele>
        <time>2022-03-06T09:51:44Z</time>
      </trkpt>
      <trkpt lat="45.34558" lon="5.84384">
        <ele>1650</ele>
        <time>2022-03-06T09:51:48Z</time>
      </trkpt>
      <trkpt lat="45.34558" lon="5.84384">
        <ele>1650</ele>
        <time>2022-03-06T09:51:52Z</time>
      </trkpt>
      <trkpt lat="45.34558" lon="5.84384">
        <ele>1650</ele>
        <time>2022-03-06T09:51:56Z</time>
      </trkpt>
      <trkpt lat="45.34558" lon="5.84384">
        <ele>1650</ele>
        <time>2022-03-06T09:52:00Z</time>
      </trkpt>
      <trkpt lat="45.34558" lon="5.84384">
        <ele>1650</ele>
        <time>2022-03-06T09:52:04Z</time>
      </trkpt>
      <trkpt lat="45.34558" lon="5.84384">
        <ele>1650</ele>
        <time>2022-03-06T09:52:08Z</time>
      </trkpt>
      <trkpt lat="45.34558" lon="5.84384">
        <ele>1650</ele>
        <time>2022-03-06T09:52:12Z</time>
      </trkpt>
      <trkpt lat="45.34558" lon="5.84384">
        <ele>1650</ele>
        <time>2022-03-06T09:52:16Z</time>
      </trkpt>
      <trkpt lat="45.34558" lon="5.84384">
        <ele>1650</ele>
        <time>2022-03-06T09:52:20Z</time>
      </trkpt>
      <trkpt lat="45.34558" lon="5.84384">
        <ele>1649</ele>
        <time>2022-03-06T09:52:24Z</time>
      </trkpt>
      <trkpt lat="45.34558" lon="5.84384">
        <ele>1649</ele>
        <time>2022-03-06T09:52:28Z</time>
      </trkpt>
      <trkpt lat="45.34558" lon="5.84384">
        <ele>1649</ele>
        <time>2022-03-06T09:52:32Z</time>
      </trkpt>
      <trkpt lat="45.34558" lon="5.84384">
        <ele>1650</ele>
        <time>2022-03-06T09:52:36Z</time>
      </trkpt>
      <trkpt lat="45.34558" lon="5.84384">
        <ele>1650</ele>
        <time>2022-03-06T09:52:40Z</time>
      </trkpt>
      <trkpt lat="45.34558" lon="5.84384">
        <ele>1650</ele>
        <time>2022-03-06T09:52:44Z</time>
      </trkpt>
      <trkpt lat="45.34558" lon="5.84384">
        <ele>1651</ele>
        <time>2022-03-06T09:52:48Z</time>
      </trkpt>
      <trkpt lat="45.34558" lon="5.84384">
        <ele>1650</ele>
        <time>2022-03-06T09:52:52Z</time>
      </trkpt>
      <trkpt lat="45.34556" lon="5.84385">
        <ele>1650</ele>
        <time>2022-03-06T09:52:53Z</time>
      </trkpt>
      <trkpt lat="45.34556" lon="5.84385">
        <ele>1650</ele>
        <time>2022-03-06T09:52:57Z</time>
      </trkpt>
      <trkpt lat="45.34556" lon="5.84385">
        <ele>1650</ele>
        <time>2022-03-06T09:53:01Z</time>
      </trkpt>
      <trkpt lat="45.34556" lon="5.84385">
        <ele>1650</ele>
        <time>2022-03-06T09:53:05Z</time>
      </trkpt>
      <trkpt lat="45.34556" lon="5.84385">
        <ele>1650</ele>
        <time>2022-03-06T09:53:09Z</time>
      </trkpt>
      <trkpt lat="45.34556" lon="5.84385">
        <ele>1649</ele>
        <time>2022-03-06T09:53:13Z</time>
      </trkpt>
      <trkpt lat="45.34556" lon="5.84385">
        <ele>1648</ele>
        <time>2022-03-06T09:53:17Z</time>
      </trkpt>
      <trkpt lat="45.34556" lon="5.84385">
        <ele>1648</ele>
        <time>2022-03-06T09:53:21Z</time>
      </trkpt>
      <trkpt lat="45.34556" lon="5.84385">
        <ele>1648</ele>
        <time>2022-03-06T09:53:25Z</time>
      </trkpt>
      <trkpt lat="45.34556" lon="5.84385">
        <ele>1649</ele>
        <time>2022-03-06T09:53:29Z</time>
      </trkpt>
      <trkpt lat="45.34556" lon="5.84385">
        <ele>1649</ele>
        <time>2022-03-06T09:53:33Z</time>
      </trkpt>
      <trkpt lat="45.34556" lon="5.84385">
        <ele>1649</ele>
        <time>2022-03-06T09:53:37Z</time>
      </trkpt>
      <trkpt lat="45.34556" lon="5.84385">
        <ele>1649</ele>
        <time>2022-03-06T09:53:41Z</time>
      </trkpt>
      <trkpt lat="45.34556" lon="5.84385">
        <ele>1649</ele>
        <time>2022-03-06T09:53:45Z</time>
      </trkpt>
      <trkpt lat="45.34556" lon="5.84385">
        <ele>1649</ele>
        <time>2022-03-06T09:53:49Z</time>
      </trkpt>
      <trkpt lat="45.34556" lon="5.84385">
        <ele>1648</ele>
        <time>2022-03-06T09:53:53Z</time>
      </trkpt>
      <trkpt lat="45.34556" lon="5.84385">
        <ele>1648</ele>
        <time>2022-03-06T09:53:57Z</time>
      </trkpt>
      <trkpt lat="45.34556" lon="5.84385">
        <ele>1648</ele>
        <time>2022-03-06T09:54:01Z</time>
      </trkpt>
      <trkpt lat="45.34556" lon="5.84385">
        <ele>1648</ele>
        <time>2022-03-06T09:54:05Z</time>
      </trkpt>
      <trkpt lat="45.34556" lon="5.84385">
        <ele>1648</ele>
        <time>2022-03-06T09:54:09Z</time>
      </trkpt>
      <trkpt lat="45.34558" lon="5.84384">
        <ele>1648</ele>
        <time>2022-03-06T09:54:10Z</time>
      </trkpt>
      <trkpt lat="45.34558" lon="5.84384">
        <ele>1648</ele>
        <time>2022-03-06T09:54:14Z</time>
      </trkpt>
      <trkpt lat="45.34558" lon="5.84384">
        <ele>1649</ele>
        <time>2022-03-06T09:54:18Z</time>
      </trkpt>
      <trkpt lat="45.34558" lon="5.84384">
        <ele>1649</ele>
        <time>2022-03-06T09:54:22Z</time>
      </trkpt>
      <trkpt lat="45.34558" lon="5.84384">
        <ele>1649</ele>
        <time>2022-03-06T09:54:26Z</time>
      </trkpt>
      <trkpt lat="45.34558" lon="5.84384">
        <ele>1649</ele>
        <time>2022-03-06T09:54:30Z</time>
      </trkpt>
      <trkpt lat="45.34559" lon="5.84386">
        <ele>1649</ele>
        <time>2022-03-06T09:54:32Z</time>
      </trkpt>
      <trkpt lat="45.34559" lon="5.8439">
        <ele>1650</ele>
        <time>2022-03-06T09:54:35Z</time>
      </trkpt>
      <trkpt lat="45.34559" lon="5.8439">
        <ele>1651</ele>
        <time>2022-03-06T09:54:36Z</time>
      </trkpt>
      <trkpt lat="45.34558" lon="5.84393">
        <ele>1652</ele>
        <time>2022-03-06T09:54:38Z</time>
      </trkpt>
      <trkpt lat="45.34558" lon="5.84393">
        <ele>1653</ele>
        <time>2022-03-06T09:54:41Z</time>
      </trkpt>
      <trkpt lat="45.34558" lon="5.84395">
        <ele>1653</ele>
        <time>2022-03-06T09:54:42Z</time>
      </trkpt>
      <trkpt lat="45.34557" lon="5.84399">
        <ele>1654</ele>
        <time>2022-03-06T09:54:45Z</time>
      </trkpt>
      <trkpt lat="45.34557" lon="5.84399">
        <ele>1654</ele>
        <time>2022-03-06T09:54:47Z</time>
      </trkpt>
      <trkpt lat="45.34557" lon="5.84401">
        <ele>1654</ele>
        <time>2022-03-06T09:54:48Z</time>
      </trkpt>
      <trkpt lat="45.34556" lon="5.84404">
        <ele>1655</ele>
        <time>2022-03-06T09:54:51Z</time>
      </trkpt>
      <trkpt lat="45.34556" lon="5.84404">
        <ele>1656</ele>
        <time>2022-03-06T09:54:53Z</time>
      </trkpt>
      <trkpt lat="45.34556" lon="5.84408">
        <ele>1656</ele>
        <time>2022-03-06T09:54:54Z</time>
      </trkpt>
      <trkpt lat="45.34556" lon="5.84411">
        <ele>1657</ele>
        <time>2022-03-06T09:54:57Z</time>
      </trkpt>
      <trkpt lat="45.34556" lon="5.84411">
        <ele>1658</ele>
        <time>2022-03-06T09:54:59Z</time>
      </trkpt>
      <trkpt lat="45.34556" lon="5.84414">
        <ele>1658</ele>
        <time>2022-03-06T09:55:00Z</time>
      </trkpt>
      <trkpt lat="45.34556" lon="5.84417">
        <ele>1658</ele>
        <time>2022-03-06T09:55:03Z</time>
      </trkpt>
      <trkpt lat="45.34556" lon="5.84417">
        <ele>1659</ele>
        <time>2022-03-06T09:55:05Z</time>
      </trkpt>
      <trkpt lat="45.34556" lon="5.8442">
        <ele>1659</ele>
        <time>2022-03-06T09:55:06Z</time>
      </trkpt>
      <trkpt lat="45.34556" lon="5.84423">
        <ele>1660</ele>
        <time>2022-03-06T09:55:09Z</time>
      </trkpt>
      <trkpt lat="45.34556" lon="5.84423">
        <ele>1660</ele>
        <time>2022-03-06T09:55:11Z</time>
      </trkpt>
      <trkpt lat="45.34556" lon="5.84427">
        <ele>1661</ele>
        <time>2022-03-06T09:55:12Z</time>
      </trkpt>
      <trkpt lat="45.34556" lon="5.8443">
        <ele>1661</ele>
        <time>2022-03-06T09:55:15Z</time>
      </trkpt>
      <trkpt lat="45.34556" lon="5.8443">
        <ele>1662</ele>
        <time>2022-03-06T09:55:17Z</time>
      </trkpt>
      <trkpt lat="45.34556" lon="5.84433">
        <ele>1662</ele>
        <time>2022-03-06T09:55:18Z</time>
      </trkpt>
      <trkpt lat="45.34556" lon="5.84436">
        <ele>1662</ele>
        <time>2022-03-06T09:55:21Z</time>
      </trkpt>
      <trkpt lat="45.34556" lon="5.84436">
        <ele>1662</ele>
        <time>2022-03-06T09:55:23Z</time>
      </trkpt>
      <trkpt lat="45.34557" lon="5.84439">
        <ele>1663</ele>
        <time>2022-03-06T09:55:24Z</time>
      </trkpt>
      <trkpt lat="45.34557" lon="5.84442">
        <ele>1664</ele>
        <time>2022-03-06T09:55:27Z</time>
      </trkpt>
      <trkpt lat="45.34557" lon="5.84442">
        <ele>1664</ele>
        <time>2022-03-06T09:55:29Z</time>
      </trkpt>
      <trkpt lat="45.34557" lon="5.84445">
        <ele>1665</ele>
        <time>2022-03-06T09:55:30Z</time>
      </trkpt>
      <trkpt lat="45.34557" lon="5.84448">
        <ele>1665</ele>
        <time>2022-03-06T09:55:33Z</time>
      </trkpt>
      <trkpt lat="45.34557" lon="5.84448">
        <ele>1666</ele>
        <time>2022-03-06T09:55:35Z</time>
      </trkpt>
      <trkpt lat="45.34557" lon="5.84451">
        <ele>1666</ele>
        <time>2022-03-06T09:55:36Z</time>
      </trkpt>
      <trkpt lat="45.34557" lon="5.84454">
        <ele>1667</ele>
        <time>2022-03-06T09:55:39Z</time>
      </trkpt>
      <trkpt lat="45.34557" lon="5.84454">
        <ele>1667</ele>
        <time>2022-03-06T09:55:41Z</time>
      </trkpt>
      <trkpt lat="45.34557" lon="5.84457">
        <ele>1667</ele>
        <time>2022-03-06T09:55:42Z</time>
      </trkpt>
      <trkpt lat="45.34557" lon="5.84461">
        <ele>1668</ele>
        <time>2022-03-06T09:55:45Z</time>
      </trkpt>
      <trkpt lat="45.34557" lon="5.84461">
        <ele>1669</ele>
        <time>2022-03-06T09:55:47Z</time>
      </trkpt>
      <trkpt lat="45.34556" lon="5.84464">
        <ele>1669</ele>
        <time>2022-03-06T09:55:48Z</time>
      </trkpt>
      <trkpt lat="45.34556" lon="5.84467">
        <ele>1669</ele>
        <time>2022-03-06T09:55:51Z</time>
      </trkpt>
      <trkpt lat="45.34556" lon="5.84467">
        <ele>1670</ele>
        <time>2022-03-06T09:55:53Z</time>
      </trkpt>
      <trkpt lat="45.34556" lon="5.84469">
        <ele>1670</ele>
        <time>2022-03-06T09:55:54Z</time>
      </trkpt>
      <trkpt lat="45.34556" lon="5.84472">
        <ele>1671</ele>
        <time>2022-03-06T09:55:57Z</time>
      </trkpt>
      <trkpt lat="45.34556" lon="5.84472">
        <ele>1671</ele>
        <time>2022-03-06T09:55:59Z</time>
      </trkpt>
      <trkpt lat="45.34556" lon="5.84475">
        <ele>1672</ele>
        <time>2022-03-06T09:56:00Z</time>
      </trkpt>
      <trkpt lat="45.34556" lon="5.84478">
        <ele>1672</ele>
        <time>2022-03-06T09:56:03Z</time>
      </trkpt>
      <trkpt lat="45.34556" lon="5.84478">
        <ele>1673</ele>
        <time>2022-03-06T09:56:05Z</time>
      </trkpt>
      <trkpt lat="45.34556" lon="5.84481">
        <ele>1673</ele>
        <time>2022-03-06T09:56:06Z</time>
      </trkpt>
      <trkpt lat="45.34555" lon="5.84484">
        <ele>1673</ele>
        <time>2022-03-06T09:56:09Z</time>
      </trkpt>
      <trkpt lat="45.34555" lon="5.84487">
        <ele>1674</ele>
        <time>2022-03-06T09:56:12Z</time>
      </trkpt>
      <trkpt lat="45.34555" lon="5.8449">
        <ele>1675</ele>
        <time>2022-03-06T09:56:15Z</time>
      </trkpt>
      <trkpt lat="45.34555" lon="5.8449">
        <ele>1675</ele>
        <time>2022-03-06T09:56:16Z</time>
      </trkpt>
      <trkpt lat="45.34555" lon="5.84493">
        <ele>1676</ele>
        <time>2022-03-06T09:56:18Z</time>
      </trkpt>
      <trkpt lat="45.34554" lon="5.84496">
        <ele>1677</ele>
        <time>2022-03-06T09:56:21Z</time>
      </trkpt>
      <trkpt lat="45.34554" lon="5.84496">
        <ele>1677</ele>
        <time>2022-03-06T09:56:22Z</time>
      </trkpt>
      <trkpt lat="45.34554" lon="5.84499">
        <ele>1677</ele>
        <time>2022-03-06T09:56:24Z</time>
      </trkpt>
      <trkpt lat="45.34553" lon="5.84502">
        <ele>1678</ele>
        <time>2022-03-06T09:56:27Z</time>
      </trkpt>
      <trkpt lat="45.34553" lon="5.84502">
        <ele>1678</ele>
        <time>2022-03-06T09:56:28Z</time>
      </trkpt>
      <trkpt lat="45.34553" lon="5.84505">
        <ele>1678</ele>
        <time>2022-03-06T09:56:30Z</time>
      </trkpt>
      <trkpt lat="45.34553" lon="5.84508">
        <ele>1679</ele>
        <time>2022-03-06T09:56:33Z</time>
      </trkpt>
      <trkpt lat="45.34553" lon="5.84508">
        <ele>1679</ele>
        <time>2022-03-06T09:56:34Z</time>
      </trkpt>
      <trkpt lat="45.34552" lon="5.84511">
        <ele>1679</ele>
        <time>2022-03-06T09:56:36Z</time>
      </trkpt>
      <trkpt lat="45.34552" lon="5.84514">
        <ele>1680</ele>
        <time>2022-03-06T09:56:39Z</time>
      </trkpt>
      <trkpt lat="45.34552" lon="5.84514">
        <ele>1680</ele>
        <time>2022-03-06T09:56:40Z</time>
      </trkpt>
      <trkpt lat="45.34552" lon="5.84516">
        <ele>1680</ele>
        <time>2022-03-06T09:56:42Z</time>
      </trkpt>
      <trkpt lat="45.34551" lon="5.84519">
        <ele>1681</ele>
        <time>2022-03-06T09:56:45Z</time>
      </trkpt>
      <trkpt lat="45.34551" lon="5.84519">
        <ele>1681</ele>
        <time>2022-03-06T09:56:46Z</time>
      </trkpt>
      <trkpt lat="45.34551" lon="5.84522">
        <ele>1681</ele>
        <time>2022-03-06T09:56:48Z</time>
      </trkpt>
      <trkpt lat="45.3455" lon="5.84525">
        <ele>1683</ele>
        <time>2022-03-06T09:56:51Z</time>
      </trkpt>
      <trkpt lat="45.3455" lon="5.84525">
        <ele>1683</ele>
        <time>2022-03-06T09:56:52Z</time>
      </trkpt>
      <trkpt lat="45.3455" lon="5.84527">
        <ele>1683</ele>
        <time>2022-03-06T09:56:54Z</time>
      </trkpt>
      <trkpt lat="45.3455" lon="5.8453">
        <ele>1684</ele>
        <time>2022-03-06T09:56:57Z</time>
      </trkpt>
      <trkpt lat="45.3455" lon="5.8453">
        <ele>1684</ele>
        <time>2022-03-06T09:56:58Z</time>
      </trkpt>
      <trkpt lat="45.3455" lon="5.84532">
        <ele>1684</ele>
        <time>2022-03-06T09:57:00Z</time>
      </trkpt>
      <trkpt lat="45.34549" lon="5.84535">
        <ele>1685</ele>
        <time>2022-03-06T09:57:03Z</time>
      </trkpt>
      <trkpt lat="45.34549" lon="5.84535">
        <ele>1685</ele>
        <time>2022-03-06T09:57:04Z</time>
      </trkpt>
      <trkpt lat="45.34549" lon="5.84538">
        <ele>1686</ele>
        <time>2022-03-06T09:57:06Z</time>
      </trkpt>
      <trkpt lat="45.34548" lon="5.84541">
        <ele>1687</ele>
        <time>2022-03-06T09:57:09Z</time>
      </trkpt>
      <trkpt lat="45.34548" lon="5.84541">
        <ele>1687</ele>
        <time>2022-03-06T09:57:10Z</time>
      </trkpt>
      <trkpt lat="45.34547" lon="5.84544">
        <ele>1687</ele>
        <time>2022-03-06T09:57:12Z</time>
      </trkpt>
      <trkpt lat="45.34546" lon="5.84546">
        <ele>1688</ele>
        <time>2022-03-06T09:57:15Z</time>
      </trkpt>
      <trkpt lat="45.34546" lon="5.84546">
        <ele>1688</ele>
        <time>2022-03-06T09:57:16Z</time>
      </trkpt>
      <trkpt lat="45.34545" lon="5.84549">
        <ele>1688</ele>
        <time>2022-03-06T09:57:18Z</time>
      </trkpt>
      <trkpt lat="45.34544" lon="5.84552">
        <ele>1689</ele>
        <time>2022-03-06T09:57:21Z</time>
      </trkpt>
      <trkpt lat="45.34544" lon="5.84552">
        <ele>1689</ele>
        <time>2022-03-06T09:57:22Z</time>
      </trkpt>
      <trkpt lat="45.34543" lon="5.84555">
        <ele>1690</ele>
        <time>2022-03-06T09:57:24Z</time>
      </trkpt>
      <trkpt lat="45.34542" lon="5.84557">
        <ele>1690</ele>
        <time>2022-03-06T09:57:27Z</time>
      </trkpt>
      <trkpt lat="45.34542" lon="5.84557">
        <ele>1690</ele>
        <time>2022-03-06T09:57:28Z</time>
      </trkpt>
      <trkpt lat="45.34541" lon="5.8456">
        <ele>1691</ele>
        <time>2022-03-06T09:57:30Z</time>
      </trkpt>
      <trkpt lat="45.3454" lon="5.84563">
        <ele>1692</ele>
        <time>2022-03-06T09:57:33Z</time>
      </trkpt>
      <trkpt lat="45.3454" lon="5.84563">
        <ele>1692</ele>
        <time>2022-03-06T09:57:34Z</time>
      </trkpt>
      <trkpt lat="45.34539" lon="5.84566">
        <ele>1692</ele>
        <time>2022-03-06T09:57:36Z</time>
      </trkpt>
      <trkpt lat="45.34539" lon="5.84568">
        <ele>1693</ele>
        <time>2022-03-06T09:57:39Z</time>
      </trkpt>
      <trkpt lat="45.34539" lon="5.84568">
        <ele>1693</ele>
        <time>2022-03-06T09:57:40Z</time>
      </trkpt>
      <trkpt lat="45.34538" lon="5.84571">
        <ele>1694</ele>
        <time>2022-03-06T09:57:42Z</time>
      </trkpt>
      <trkpt lat="45.34537" lon="5.84574">
        <ele>1694</ele>
        <time>2022-03-06T09:57:45Z</time>
      </trkpt>
      <trkpt lat="45.34537" lon="5.84574">
        <ele>1695</ele>
        <time>2022-03-06T09:57:46Z</time>
      </trkpt>
      <trkpt lat="45.34537" lon="5.84576">
        <ele>1695</ele>
        <time>2022-03-06T09:57:48Z</time>
      </trkpt>
      <trkpt lat="45.34536" lon="5.84579">
        <ele>1696</ele>
        <time>2022-03-06T09:57:51Z</time>
      </trkpt>
      <trkpt lat="45.34536" lon="5.84579">
        <ele>1697</ele>
        <time>2022-03-06T09:57:52Z</time>
      </trkpt>
      <trkpt lat="45.34536" lon="5.84582">
        <ele>1697</ele>
        <time>2022-03-06T09:57:54Z</time>
      </trkpt>
      <trkpt lat="45.34535" lon="5.84585">
        <ele>1697</ele>
        <time>2022-03-06T09:57:57Z</time>
      </trkpt>
      <trkpt lat="45.34535" lon="5.84585">
        <ele>1698</ele>
        <time>2022-03-06T09:57:58Z</time>
      </trkpt>
      <trkpt lat="45.34534" lon="5.84587">
        <ele>1698</ele>
        <time>2022-03-06T09:58:00Z</time>
      </trkpt>
      <trkpt lat="45.34533" lon="5.8459">
        <ele>1699</ele>
        <time>2022-03-06T09:58:03Z</time>
      </trkpt>
      <trkpt lat="45.34533" lon="5.8459">
        <ele>1699</ele>
        <time>2022-03-06T09:58:04Z</time>
      </trkpt>
      <trkpt lat="45.34532" lon="5.84593">
        <ele>1700</ele>
        <time>2022-03-06T09:58:06Z</time>
      </trkpt>
      <trkpt lat="45.34532" lon="5.84596">
        <ele>1701</ele>
        <time>2022-03-06T09:58:09Z</time>
      </trkpt>
      <trkpt lat="45.34532" lon="5.84596">
        <ele>1700</ele>
        <time>2022-03-06T09:58:10Z</time>
      </trkpt>
      <trkpt lat="45.34532" lon="5.84599">
        <ele>1701</ele>
        <time>2022-03-06T09:58:12Z</time>
      </trkpt>
      <trkpt lat="45.34531" lon="5.84601">
        <ele>1702</ele>
        <time>2022-03-06T09:58:15Z</time>
      </trkpt>
      <trkpt lat="45.34531" lon="5.84601">
        <ele>1702</ele>
        <time>2022-03-06T09:58:16Z</time>
      </trkpt>
      <trkpt lat="45.34529" lon="5.84603">
        <ele>1703</ele>
        <time>2022-03-06T09:58:18Z</time>
      </trkpt>
      <trkpt lat="45.34528" lon="5.84605">
        <ele>1703</ele>
        <time>2022-03-06T09:58:21Z</time>
      </trkpt>
      <trkpt lat="45.34528" lon="5.84605">
        <ele>1703</ele>
        <time>2022-03-06T09:58:22Z</time>
      </trkpt>
      <trkpt lat="45.34526" lon="5.84607">
        <ele>1704</ele>
        <time>2022-03-06T09:58:24Z</time>
      </trkpt>
      <trkpt lat="45.34523" lon="5.84609">
        <ele>1704</ele>
        <time>2022-03-06T09:58:27Z</time>
      </trkpt>
      <trkpt lat="45.34523" lon="5.84609">
        <ele>1705</ele>
        <time>2022-03-06T09:58:28Z</time>
      </trkpt>
      <trkpt lat="45.34522" lon="5.8461">
        <ele>1705</ele>
        <time>2022-03-06T09:58:29Z</time>
      </trkpt>
      <trkpt lat="45.3452" lon="5.84612">
        <ele>1705</ele>
        <time>2022-03-06T09:58:31Z</time>
      </trkpt>
      <trkpt lat="45.34519" lon="5.84614">
        <ele>1706</ele>
        <time>2022-03-06T09:58:33Z</time>
      </trkpt>
      <trkpt lat="45.34517" lon="5.84616">
        <ele>1706</ele>
        <time>2022-03-06T09:58:35Z</time>
      </trkpt>
      <trkpt lat="45.34515" lon="5.84617">
        <ele>1707</ele>
        <time>2022-03-06T09:58:38Z</time>
      </trkpt>
      <trkpt lat="45.34515" lon="5.84617">
        <ele>1707</ele>
        <time>2022-03-06T09:58:39Z</time>
      </trkpt>
      <trkpt lat="45.34513" lon="5.84619">
        <ele>1707</ele>
        <time>2022-03-06T09:58:40Z</time>
      </trkpt>
      <trkpt lat="45.34511" lon="5.8462">
        <ele>1708</ele>
        <time>2022-03-06T09:58:43Z</time>
      </trkpt>
      <trkpt lat="45.34509" lon="5.84621">
        <ele>1708</ele>
        <time>2022-03-06T09:58:45Z</time>
      </trkpt>
      <trkpt lat="45.34507" lon="5.84622">
        <ele>1708</ele>
        <time>2022-03-06T09:58:47Z</time>
      </trkpt>
      <trkpt lat="45.34506" lon="5.84624">
        <ele>1708</ele>
        <time>2022-03-06T09:58:49Z</time>
      </trkpt>
      <trkpt lat="45.34503" lon="5.84625">
        <ele>1709</ele>
        <time>2022-03-06T09:58:52Z</time>
      </trkpt>
      <trkpt lat="45.34503" lon="5.84625">
        <ele>1709</ele>
        <time>2022-03-06T09:58:53Z</time>
      </trkpt>
      <trkpt lat="45.34501" lon="5.84626">
        <ele>1710</ele>
        <time>2022-03-06T09:58:55Z</time>
      </trkpt>
      <trkpt lat="45.34499" lon="5.84627">
        <ele>1710</ele>
        <time>2022-03-06T09:58:57Z</time>
      </trkpt>
      <trkpt lat="45.34498" lon="5.84628">
        <ele>1710</ele>
        <time>2022-03-06T09:58:59Z</time>
      </trkpt>
      <trkpt lat="45.34496" lon="5.8463">
        <ele>1710</ele>
        <time>2022-03-06T09:59:01Z</time>
      </trkpt>
      <trkpt lat="45.34494" lon="5.84631">
        <ele>1710</ele>
        <time>2022-03-06T09:59:03Z</time>
      </trkpt>
      <trkpt lat="45.34492" lon="5.84632">
        <ele>1711</ele>
        <time>2022-03-06T09:59:06Z</time>
      </trkpt>
      <trkpt lat="45.34492" lon="5.84632">
        <ele>1711</ele>
        <time>2022-03-06T09:59:07Z</time>
      </trkpt>
      <trkpt lat="45.3449" lon="5.84633">
        <ele>1711</ele>
        <time>2022-03-06T09:59:08Z</time>
      </trkpt>
      <trkpt lat="45.34488" lon="5.84634">
        <ele>1712</ele>
        <time>2022-03-06T09:59:10Z</time>
      </trkpt>
      <trkpt lat="45.34486" lon="5.84636">
        <ele>1712</ele>
        <time>2022-03-06T09:59:13Z</time>
      </trkpt>
      <trkpt lat="45.34486" lon="5.84636">
        <ele>1712</ele>
        <time>2022-03-06T09:59:14Z</time>
      </trkpt>
      <trkpt lat="45.34484" lon="5.84638">
        <ele>1712</ele>
        <time>2022-03-06T09:59:16Z</time>
      </trkpt>
      <trkpt lat="45.34483" lon="5.8464">
        <ele>1713</ele>
        <time>2022-03-06T09:59:19Z</time>
      </trkpt>
      <trkpt lat="45.34483" lon="5.8464">
        <ele>1713</ele>
        <time>2022-03-06T09:59:20Z</time>
      </trkpt>
      <trkpt lat="45.34481" lon="5.84642">
        <ele>1714</ele>
        <time>2022-03-06T09:59:23Z</time>
      </trkpt>
      <trkpt lat="45.34481" lon="5.84642">
        <ele>1714</ele>
        <time>2022-03-06T09:59:25Z</time>
      </trkpt>
      <trkpt lat="45.3448" lon="5.84644">
        <ele>1714</ele>
        <time>2022-03-06T09:59:26Z</time>
      </trkpt>
      <trkpt lat="45.34479" lon="5.84647">
        <ele>1715</ele>
        <time>2022-03-06T09:59:29Z</time>
      </trkpt>
      <trkpt lat="45.34479" lon="5.84647">
        <ele>1714</ele>
        <time>2022-03-06T09:59:31Z</time>
      </trkpt>
      <trkpt lat="45.34477" lon="5.8465">
        <ele>1714</ele>
        <time>2022-03-06T09:59:32Z</time>
      </trkpt>
      <trkpt lat="45.34476" lon="5.84653">
        <ele>1715</ele>
        <time>2022-03-06T09:59:35Z</time>
      </trkpt>
      <trkpt lat="45.34476" lon="5.84653">
        <ele>1715</ele>
        <time>2022-03-06T09:59:37Z</time>
      </trkpt>
      <trkpt lat="45.34474" lon="5.84655">
        <ele>1715</ele>
        <time>2022-03-06T09:59:38Z</time>
      </trkpt>
      <trkpt lat="45.34473" lon="5.84658">
        <ele>1716</ele>
        <time>2022-03-06T09:59:41Z</time>
      </trkpt>
      <trkpt lat="45.34471" lon="5.84661">
        <ele>1716</ele>
        <time>2022-03-06T09:59:43Z</time>
      </trkpt>
      <trkpt lat="45.3447" lon="5.84663">
        <ele>1716</ele>
        <time>2022-03-06T09:59:45Z</time>
      </trkpt>
      <trkpt lat="45.3447" lon="5.84663">
        <ele>1717</ele>
        <time>2022-03-06T09:59:47Z</time>
      </trkpt>
      <trkpt lat="45.34469" lon="5.84666">
        <ele>1717</ele>
        <time>2022-03-06T09:59:48Z</time>
      </trkpt>
      <trkpt lat="45.34468" lon="5.84669">
        <ele>1717</ele>
        <time>2022-03-06T09:59:51Z</time>
      </trkpt>
      <trkpt lat="45.34468" lon="5.84669">
        <ele>1718</ele>
        <time>2022-03-06T09:59:53Z</time>
      </trkpt>
      <trkpt lat="45.34468" lon="5.84672">
        <ele>1718</ele>
        <time>2022-03-06T09:59:54Z</time>
      </trkpt>
      <trkpt lat="45.34468" lon="5.84676">
        <ele>1719</ele>
        <time>2022-03-06T09:59:57Z</time>
      </trkpt>
      <trkpt lat="45.34468" lon="5.84676">
        <ele>1719</ele>
        <time>2022-03-06T09:59:59Z</time>
      </trkpt>
      <trkpt lat="45.34469" lon="5.84679">
        <ele>1719</ele>
        <time>2022-03-06T10:00:00Z</time>
      </trkpt>
      <trkpt lat="45.34469" lon="5.84683">
        <ele>1720</ele>
        <time>2022-03-06T10:00:03Z</time>
      </trkpt>
      <trkpt lat="45.3447" lon="5.84686">
        <ele>1720</ele>
        <time>2022-03-06T10:00:05Z</time>
      </trkpt>
      <trkpt lat="45.3447" lon="5.84688">
        <ele>1721</ele>
        <time>2022-03-06T10:00:07Z</time>
      </trkpt>
      <trkpt lat="45.3447" lon="5.84688">
        <ele>1721</ele>
        <time>2022-03-06T10:00:09Z</time>
      </trkpt>
      <trkpt lat="45.34472" lon="5.84691">
        <ele>1721</ele>
        <time>2022-03-06T10:00:10Z</time>
      </trkpt>
      <trkpt lat="45.34473" lon="5.84695">
        <ele>1721</ele>
        <time>2022-03-06T10:00:13Z</time>
      </trkpt>
      <trkpt lat="45.34473" lon="5.84695">
        <ele>1721</ele>
        <time>2022-03-06T10:00:15Z</time>
      </trkpt>
      <trkpt lat="45.34474" lon="5.84698">
        <ele>1722</ele>
        <time>2022-03-06T10:00:16Z</time>
      </trkpt>
      <trkpt lat="45.34475" lon="5.84702">
        <ele>1722</ele>
        <time>2022-03-06T10:00:19Z</time>
      </trkpt>
      <trkpt lat="45.34475" lon="5.84702">
        <ele>1722</ele>
        <time>2022-03-06T10:00:21Z</time>
      </trkpt>
      <trkpt lat="45.34476" lon="5.84705">
        <ele>1722</ele>
        <time>2022-03-06T10:00:22Z</time>
      </trkpt>
      <trkpt lat="45.34476" lon="5.84709">
        <ele>1723</ele>
        <time>2022-03-06T10:00:25Z</time>
      </trkpt>
      <trkpt lat="45.34476" lon="5.84709">
        <ele>1723</ele>
        <time>2022-03-06T10:00:27Z</time>
      </trkpt>
      <trkpt lat="45.34477" lon="5.84711">
        <ele>1723</ele>
        <time>2022-03-06T10:00:28Z</time>
      </trkpt>
      <trkpt lat="45.34478" lon="5.84714">
        <ele>1724</ele>
        <time>2022-03-06T10:00:32Z</time>
      </trkpt>
      <trkpt lat="45.34478" lon="5.84714">
        <ele>1724</ele>
        <time>2022-03-06T10:00:33Z</time>
      </trkpt>
      <trkpt lat="45.34479" lon="5.84717">
        <ele>1725</ele>
        <time>2022-03-06T10:00:37Z</time>
      </trkpt>
      <trkpt lat="45.34479" lon="5.84717">
        <ele>1725</ele>
        <time>2022-03-06T10:00:38Z</time>
      </trkpt>
      <trkpt lat="45.34479" lon="5.84717">
        <ele>1726</ele>
        <time>2022-03-06T10:00:42Z</time>
      </trkpt>
      <trkpt lat="45.34479" lon="5.84717">
        <ele>1726</ele>
        <time>2022-03-06T10:00:46Z</time>
      </trkpt>
      <trkpt lat="45.34479" lon="5.84717">
        <ele>1725</ele>
        <time>2022-03-06T10:00:50Z</time>
      </trkpt>
      <trkpt lat="45.34479" lon="5.84717">
        <ele>1725</ele>
        <time>2022-03-06T10:00:54Z</time>
      </trkpt>
      <trkpt lat="45.34479" lon="5.84717">
        <ele>1725</ele>
        <time>2022-03-06T10:00:58Z</time>
      </trkpt>
      <trkpt lat="45.34481" lon="5.84715">
        <ele>1725</ele>
        <time>2022-03-06T10:00:59Z</time>
      </trkpt>
      <trkpt lat="45.34481" lon="5.84715">
        <ele>1725</ele>
        <time>2022-03-06T10:01:03Z</time>
      </trkpt>
      <trkpt lat="45.34483" lon="5.84717">
        <ele>1725</ele>
        <time>2022-03-06T10:01:04Z</time>
      </trkpt>
      <trkpt lat="45.34485" lon="5.8472">
        <ele>1725</ele>
        <time>2022-03-06T10:01:07Z</time>
      </trkpt>
      <trkpt lat="45.34485" lon="5.8472">
        <ele>1725</ele>
        <time>2022-03-06T10:01:09Z</time>
      </trkpt>
      <trkpt lat="45.34486" lon="5.84722">
        <ele>1725</ele>
        <time>2022-03-06T10:01:10Z</time>
      </trkpt>
      <trkpt lat="45.34487" lon="5.84725">
        <ele>1725</ele>
        <time>2022-03-06T10:01:13Z</time>
      </trkpt>
      <trkpt lat="45.34487" lon="5.84725">
        <ele>1725</ele>
        <time>2022-03-06T10:01:15Z</time>
      </trkpt>
      <trkpt lat="45.34488" lon="5.84729">
        <ele>1725</ele>
        <time>2022-03-06T10:01:16Z</time>
      </trkpt>
      <trkpt lat="45.34489" lon="5.84732">
        <ele>1726</ele>
        <time>2022-03-06T10:01:19Z</time>
      </trkpt>
      <trkpt lat="45.34489" lon="5.84732">
        <ele>1726</ele>
        <time>2022-03-06T10:01:21Z</time>
      </trkpt>
      <trkpt lat="45.34489" lon="5.84735">
        <ele>1726</ele>
        <time>2022-03-06T10:01:22Z</time>
      </trkpt>
      <trkpt lat="45.3449" lon="5.84738">
        <ele>1726</ele>
        <time>2022-03-06T10:01:25Z</time>
      </trkpt>
      <trkpt lat="45.3449" lon="5.84738">
        <ele>1727</ele>
        <time>2022-03-06T10:01:27Z</time>
      </trkpt>
      <trkpt lat="45.3449" lon="5.8474">
        <ele>1727</ele>
        <time>2022-03-06T10:01:28Z</time>
      </trkpt>
      <trkpt lat="45.34491" lon="5.84743">
        <ele>1728</ele>
        <time>2022-03-06T10:01:31Z</time>
      </trkpt>
      <trkpt lat="45.34491" lon="5.84743">
        <ele>1728</ele>
        <time>2022-03-06T10:01:33Z</time>
      </trkpt>
      <trkpt lat="45.34491" lon="5.84746">
        <ele>1728</ele>
        <time>2022-03-06T10:01:34Z</time>
      </trkpt>
      <trkpt lat="45.34492" lon="5.84748">
        <ele>1728</ele>
        <time>2022-03-06T10:01:37Z</time>
      </trkpt>
      <trkpt lat="45.34492" lon="5.84748">
        <ele>1728</ele>
        <time>2022-03-06T10:01:39Z</time>
      </trkpt>
      <trkpt lat="45.34492" lon="5.84752">
        <ele>1728</ele>
        <time>2022-03-06T10:01:41Z</time>
      </trkpt>
      <trkpt lat="45.34492" lon="5.84755">
        <ele>1728</ele>
        <time>2022-03-06T10:01:44Z</time>
      </trkpt>
      <trkpt lat="45.34492" lon="5.84755">
        <ele>1728</ele>
        <time>2022-03-06T10:01:45Z</time>
      </trkpt>
      <trkpt lat="45.34493" lon="5.84757">
        <ele>1729</ele>
        <time>2022-03-06T10:01:47Z</time>
      </trkpt>
      <trkpt lat="45.34491" lon="5.84759">
        <ele>1730</ele>
        <time>2022-03-06T10:01:50Z</time>
      </trkpt>
      <trkpt lat="45.34491" lon="5.84759">
        <ele>1730</ele>
        <time>2022-03-06T10:01:51Z</time>
      </trkpt>
      <trkpt lat="45.34489" lon="5.84759">
        <ele>1732</ele>
        <time>2022-03-06T10:01:54Z</time>
      </trkpt>
      <trkpt lat="45.34489" lon="5.84759">
        <ele>1732</ele>
        <time>2022-03-06T10:01:56Z</time>
      </trkpt>
      <trkpt lat="45.34487" lon="5.84757">
        <ele>1732</ele>
        <time>2022-03-06T10:01:58Z</time>
      </trkpt>
      <trkpt lat="45.34487" lon="5.84757">
        <ele>1732</ele>
        <time>2022-03-06T10:02:01Z</time>
      </trkpt>
      <trkpt lat="45.34485" lon="5.84759">
        <ele>1733</ele>
        <time>2022-03-06T10:02:04Z</time>
      </trkpt>
      <trkpt lat="45.34485" lon="5.84759">
        <ele>1733</ele>
        <time>2022-03-06T10:02:06Z</time>
      </trkpt>
      <trkpt lat="45.34486" lon="5.84762">
        <ele>1733</ele>
        <time>2022-03-06T10:02:07Z</time>
      </trkpt>
      <trkpt lat="45.34486" lon="5.84764">
        <ele>1733</ele>
        <time>2022-03-06T10:02:10Z</time>
      </trkpt>
      <trkpt lat="45.34486" lon="5.84764">
        <ele>1734</ele>
        <time>2022-03-06T10:02:12Z</time>
      </trkpt>
      <trkpt lat="45.34487" lon="5.84767">
        <ele>1734</ele>
        <time>2022-03-06T10:02:14Z</time>
      </trkpt>
      <trkpt lat="45.34488" lon="5.84769">
        <ele>1735</ele>
        <time>2022-03-06T10:02:17Z</time>
      </trkpt>
      <trkpt lat="45.34488" lon="5.84769">
        <ele>1735</ele>
        <time>2022-03-06T10:02:18Z</time>
      </trkpt>
      <trkpt lat="45.34489" lon="5.84772">
        <ele>1736</ele>
        <time>2022-03-06T10:02:21Z</time>
      </trkpt>
      <trkpt lat="45.34489" lon="5.84772">
        <ele>1736</ele>
        <time>2022-03-06T10:02:23Z</time>
      </trkpt>
      <trkpt lat="45.3449" lon="5.84774">
        <ele>1736</ele>
        <time>2022-03-06T10:02:24Z</time>
      </trkpt>
      <trkpt lat="45.34491" lon="5.84776">
        <ele>1736</ele>
        <time>2022-03-06T10:02:28Z</time>
      </trkpt>
      <trkpt lat="45.34491" lon="5.84776">
        <ele>1736</ele>
        <time>2022-03-06T10:02:29Z</time>
      </trkpt>
      <trkpt lat="45.34493" lon="5.84778">
        <ele>1737</ele>
        <time>2022-03-06T10:02:31Z</time>
      </trkpt>
      <trkpt lat="45.34493" lon="5.84778">
        <ele>1738</ele>
        <time>2022-03-06T10:02:34Z</time>
      </trkpt>
      <trkpt lat="45.34494" lon="5.8478">
        <ele>1738</ele>
        <time>2022-03-06T10:02:35Z</time>
      </trkpt>
      <trkpt lat="45.34496" lon="5.84782">
        <ele>1738</ele>
        <time>2022-03-06T10:02:38Z</time>
      </trkpt>
      <trkpt lat="45.34496" lon="5.84782">
        <ele>1739</ele>
        <time>2022-03-06T10:02:40Z</time>
      </trkpt>
      <trkpt lat="45.34497" lon="5.84784">
        <ele>1739</ele>
        <time>2022-03-06T10:02:42Z</time>
      </trkpt>
      <trkpt lat="45.34498" lon="5.84787">
        <ele>1740</ele>
        <time>2022-03-06T10:02:45Z</time>
      </trkpt>
      <trkpt lat="45.34498" lon="5.84787">
        <ele>1740</ele>
        <time>2022-03-06T10:02:46Z</time>
      </trkpt>
      <trkpt lat="45.34499" lon="5.8479">
        <ele>1740</ele>
        <time>2022-03-06T10:02:48Z</time>
      </trkpt>
      <trkpt lat="45.345" lon="5.84792">
        <ele>1741</ele>
        <time>2022-03-06T10:02:51Z</time>
      </trkpt>
      <trkpt lat="45.345" lon="5.84792">
        <ele>1741</ele>
        <time>2022-03-06T10:02:52Z</time>
      </trkpt>
      <trkpt lat="45.34501" lon="5.84795">
        <ele>1741</ele>
        <time>2022-03-06T10:02:54Z</time>
      </trkpt>
      <trkpt lat="45.34501" lon="5.84798">
        <ele>1742</ele>
        <time>2022-03-06T10:02:57Z</time>
      </trkpt>
      <trkpt lat="45.34501" lon="5.84798">
        <ele>1742</ele>
        <time>2022-03-06T10:02:58Z</time>
      </trkpt>
      <trkpt lat="45.34502" lon="5.848">
        <ele>1743</ele>
        <time>2022-03-06T10:03:02Z</time>
      </trkpt>
      <trkpt lat="45.34502" lon="5.848">
        <ele>1743</ele>
        <time>2022-03-06T10:03:03Z</time>
      </trkpt>
      <trkpt lat="45.34504" lon="5.84803">
        <ele>1743</ele>
        <time>2022-03-06T10:03:05Z</time>
      </trkpt>
      <trkpt lat="45.34505" lon="5.84805">
        <ele>1743</ele>
        <time>2022-03-06T10:03:08Z</time>
      </trkpt>
      <trkpt lat="45.34505" lon="5.84805">
        <ele>1743</ele>
        <time>2022-03-06T10:03:09Z</time>
      </trkpt>
      <trkpt lat="45.34505" lon="5.84808">
        <ele>1744</ele>
        <time>2022-03-06T10:03:12Z</time>
      </trkpt>
      <trkpt lat="45.34505" lon="5.84808">
        <ele>1744</ele>
        <time>2022-03-06T10:03:14Z</time>
      </trkpt>
      <trkpt lat="45.34507" lon="5.84811">
        <ele>1744</ele>
        <time>2022-03-06T10:03:16Z</time>
      </trkpt>
      <trkpt lat="45.34508" lon="5.84813">
        <ele>1745</ele>
        <time>2022-03-06T10:03:19Z</time>
      </trkpt>
      <trkpt lat="45.34508" lon="5.84813">
        <ele>1745</ele>
        <time>2022-03-06T10:03:20Z</time>
      </trkpt>
      <trkpt lat="45.34508" lon="5.84816">
        <ele>1745</ele>
        <time>2022-03-06T10:03:22Z</time>
      </trkpt>
      <trkpt lat="45.34508" lon="5.84816">
        <ele>1746</ele>
        <time>2022-03-06T10:03:25Z</time>
      </trkpt>
      <trkpt lat="45.34508" lon="5.84819">
        <ele>1746</ele>
        <time>2022-03-06T10:03:26Z</time>
      </trkpt>
      <trkpt lat="45.3451" lon="5.8482">
        <ele>1747</ele>
        <time>2022-03-06T10:03:29Z</time>
      </trkpt>
      <trkpt lat="45.3451" lon="5.8482">
        <ele>1747</ele>
        <time>2022-03-06T10:03:31Z</time>
      </trkpt>
      <trkpt lat="45.34512" lon="5.84822">
        <ele>1748</ele>
        <time>2022-03-06T10:03:33Z</time>
      </trkpt>
      <trkpt lat="45.34512" lon="5.84822">
        <ele>1748</ele>
        <time>2022-03-06T10:03:36Z</time>
      </trkpt>
      <trkpt lat="45.34513" lon="5.84824">
        <ele>1748</ele>
        <time>2022-03-06T10:03:37Z</time>
      </trkpt>
      <trkpt lat="45.34515" lon="5.84826">
        <ele>1749</ele>
        <time>2022-03-06T10:03:40Z</time>
      </trkpt>
      <trkpt lat="45.34515" lon="5.84826">
        <ele>1749</ele>
        <time>2022-03-06T10:03:42Z</time>
      </trkpt>
      <trkpt lat="45.34517" lon="5.84826">
        <ele>1749</ele>
        <time>2022-03-06T10:03:44Z</time>
      </trkpt>
      <trkpt lat="45.34517" lon="5.84826">
        <ele>1750</ele>
        <time>2022-03-06T10:03:47Z</time>
      </trkpt>
      <trkpt lat="45.34519" lon="5.84829">
        <ele>1750</ele>
        <time>2022-03-06T10:03:48Z</time>
      </trkpt>
      <trkpt lat="45.3452" lon="5.84831">
        <ele>1751</ele>
        <time>2022-03-06T10:03:52Z</time>
      </trkpt>
      <trkpt lat="45.3452" lon="5.84831">
        <ele>1751</ele>
        <time>2022-03-06T10:03:53Z</time>
      </trkpt>
      <trkpt lat="45.3452" lon="5.84835">
        <ele>1752</ele>
        <time>2022-03-06T10:03:56Z</time>
      </trkpt>
      <trkpt lat="45.3452" lon="5.84835">
        <ele>1752</ele>
        <time>2022-03-06T10:03:58Z</time>
      </trkpt>
      <trkpt lat="45.34521" lon="5.84837">
        <ele>1752</ele>
        <time>2022-03-06T10:04:00Z</time>
      </trkpt>
      <trkpt lat="45.34521" lon="5.84837">
        <ele>1753</ele>
        <time>2022-03-06T10:04:03Z</time>
      </trkpt>
      <trkpt lat="45.34522" lon="5.84839">
        <ele>1753</ele>
        <time>2022-03-06T10:04:04Z</time>
      </trkpt>
      <trkpt lat="45.34522" lon="5.84839">
        <ele>1754</ele>
        <time>2022-03-06T10:04:08Z</time>
      </trkpt>
      <trkpt lat="45.34524" lon="5.8484">
        <ele>1754</ele>
        <time>2022-03-06T10:04:09Z</time>
      </trkpt>
      <trkpt lat="45.34525" lon="5.84842">
        <ele>1754</ele>
        <time>2022-03-06T10:04:13Z</time>
      </trkpt>
      <trkpt lat="45.34525" lon="5.84842">
        <ele>1754</ele>
        <time>2022-03-06T10:04:14Z</time>
      </trkpt>
      <trkpt lat="45.34526" lon="5.84845">
        <ele>1754</ele>
        <time>2022-03-06T10:04:16Z</time>
      </trkpt>
      <trkpt lat="45.34526" lon="5.84845">
        <ele>1755</ele>
        <time>2022-03-06T10:04:19Z</time>
      </trkpt>
      <trkpt lat="45.34524" lon="5.84847">
        <ele>1755</ele>
        <time>2022-03-06T10:04:20Z</time>
      </trkpt>
      <trkpt lat="45.34524" lon="5.84847">
        <ele>1756</ele>
        <time>2022-03-06T10:04:24Z</time>
      </trkpt>
      <trkpt lat="45.34523" lon="5.84849">
        <ele>1756</ele>
        <time>2022-03-06T10:04:26Z</time>
      </trkpt>
      <trkpt lat="45.34523" lon="5.84849">
        <ele>1756</ele>
        <time>2022-03-06T10:04:29Z</time>
      </trkpt>
      <trkpt lat="45.34523" lon="5.84852">
        <ele>1757</ele>
        <time>2022-03-06T10:04:30Z</time>
      </trkpt>
      <trkpt lat="45.34524" lon="5.84855">
        <ele>1757</ele>
        <time>2022-03-06T10:04:34Z</time>
      </trkpt>
      <trkpt lat="45.34524" lon="5.84855">
        <ele>1757</ele>
        <time>2022-03-06T10:04:35Z</time>
      </trkpt>
      <trkpt lat="45.34525" lon="5.84858">
        <ele>1758</ele>
        <time>2022-03-06T10:04:37Z</time>
      </trkpt>
      <trkpt lat="45.34525" lon="5.84858">
        <ele>1758</ele>
        <time>2022-03-06T10:04:40Z</time>
      </trkpt>
      <trkpt lat="45.34525" lon="5.84861">
        <ele>1759</ele>
        <time>2022-03-06T10:04:41Z</time>
      </trkpt>
      <trkpt lat="45.34526" lon="5.84864">
        <ele>1760</ele>
        <time>2022-03-06T10:04:44Z</time>
      </trkpt>
      <trkpt lat="45.34526" lon="5.84864">
        <ele>1760</ele>
        <time>2022-03-06T10:04:46Z</time>
      </trkpt>
      <trkpt lat="45.34526" lon="5.84866">
        <ele>1760</ele>
        <time>2022-03-06T10:04:47Z</time>
      </trkpt>
      <trkpt lat="45.34527" lon="5.8487">
        <ele>1761</ele>
        <time>2022-03-06T10:04:51Z</time>
      </trkpt>
      <trkpt lat="45.34527" lon="5.8487">
        <ele>1761</ele>
        <time>2022-03-06T10:04:52Z</time>
      </trkpt>
      <trkpt lat="45.34528" lon="5.84873">
        <ele>1762</ele>
        <time>2022-03-06T10:04:55Z</time>
      </trkpt>
      <trkpt lat="45.34528" lon="5.84873">
        <ele>1762</ele>
        <time>2022-03-06T10:04:57Z</time>
      </trkpt>
      <trkpt lat="45.34528" lon="5.84875">
        <ele>1762</ele>
        <time>2022-03-06T10:04:58Z</time>
      </trkpt>
      <trkpt lat="45.34529" lon="5.84878">
        <ele>1763</ele>
        <time>2022-03-06T10:05:02Z</time>
      </trkpt>
      <trkpt lat="45.34529" lon="5.84878">
        <ele>1763</ele>
        <time>2022-03-06T10:05:03Z</time>
      </trkpt>
      <trkpt lat="45.3453" lon="5.84881">
        <ele>1764</ele>
        <time>2022-03-06T10:05:06Z</time>
      </trkpt>
      <trkpt lat="45.3453" lon="5.84881">
        <ele>1764</ele>
        <time>2022-03-06T10:05:08Z</time>
      </trkpt>
      <trkpt lat="45.3453" lon="5.84884">
        <ele>1765</ele>
        <time>2022-03-06T10:05:09Z</time>
      </trkpt>
      <trkpt lat="45.34529" lon="5.84886">
        <ele>1765</ele>
        <time>2022-03-06T10:05:13Z</time>
      </trkpt>
      <trkpt lat="45.34529" lon="5.84886">
        <ele>1765</ele>
        <time>2022-03-06T10:05:14Z</time>
      </trkpt>
      <trkpt lat="45.34529" lon="5.84886">
        <ele>1765</ele>
        <time>2022-03-06T10:05:18Z</time>
      </trkpt>
      <trkpt lat="45.3453" lon="5.8489">
        <ele>1766</ele>
        <time>2022-03-06T10:05:19Z</time>
      </trkpt>
      <trkpt lat="45.34531" lon="5.84892">
        <ele>1767</ele>
        <time>2022-03-06T10:05:23Z</time>
      </trkpt>
      <trkpt lat="45.34531" lon="5.84892">
        <ele>1767</ele>
        <time>2022-03-06T10:05:24Z</time>
      </trkpt>
      <trkpt lat="45.34533" lon="5.84894">
        <ele>1768</ele>
        <time>2022-03-06T10:05:27Z</time>
      </trkpt>
      <trkpt lat="45.34533" lon="5.84894">
        <ele>1768</ele>
        <time>2022-03-06T10:05:29Z</time>
      </trkpt>
      <trkpt lat="45.34534" lon="5.84896">
        <ele>1768</ele>
        <time>2022-03-06T10:05:30Z</time>
      </trkpt>
      <trkpt lat="45.34535" lon="5.84899">
        <ele>1769</ele>
        <time>2022-03-06T10:05:34Z</time>
      </trkpt>
      <trkpt lat="45.34535" lon="5.84899">
        <ele>1769</ele>
        <time>2022-03-06T10:05:35Z</time>
      </trkpt>
      <trkpt lat="45.34535" lon="5.84899">
        <ele>1770</ele>
        <time>2022-03-06T10:05:39Z</time>
      </trkpt>
      <trkpt lat="45.34535" lon="5.84899">
        <ele>1770</ele>
        <time>2022-03-06T10:05:43Z</time>
      </trkpt>
      <trkpt lat="45.34535" lon="5.84899">
        <ele>1770</ele>
        <time>2022-03-06T10:05:47Z</time>
      </trkpt>
      <trkpt lat="45.34535" lon="5.84901">
        <ele>1770</ele>
        <time>2022-03-06T10:05:48Z</time>
      </trkpt>
      <trkpt lat="45.34537" lon="5.84903">
        <ele>1771</ele>
        <time>2022-03-06T10:05:52Z</time>
      </trkpt>
      <trkpt lat="45.34537" lon="5.84903">
        <ele>1771</ele>
        <time>2022-03-06T10:05:53Z</time>
      </trkpt>
      <trkpt lat="45.34539" lon="5.84904">
        <ele>1771</ele>
        <time>2022-03-06T10:05:56Z</time>
      </trkpt>
      <trkpt lat="45.34539" lon="5.84904">
        <ele>1772</ele>
        <time>2022-03-06T10:05:58Z</time>
      </trkpt>
      <trkpt lat="45.34539" lon="5.84904">
        <ele>1772</ele>
        <time>2022-03-06T10:06:02Z</time>
      </trkpt>
      <trkpt lat="45.34539" lon="5.84904">
        <ele>1771</ele>
        <time>2022-03-06T10:06:06Z</time>
      </trkpt>
      <trkpt lat="45.34539" lon="5.84904">
        <ele>1771</ele>
        <time>2022-03-06T10:06:10Z</time>
      </trkpt>
      <trkpt lat="45.34539" lon="5.84904">
        <ele>1771</ele>
        <time>2022-03-06T10:06:14Z</time>
      </trkpt>
      <trkpt lat="45.34539" lon="5.84904">
        <ele>1771</ele>
        <time>2022-03-06T10:06:18Z</time>
      </trkpt>
      <trkpt lat="45.34539" lon="5.84904">
        <ele>1771</ele>
        <time>2022-03-06T10:06:22Z</time>
      </trkpt>
      <trkpt lat="45.34539" lon="5.84904">
        <ele>1771</ele>
        <time>2022-03-06T10:06:26Z</time>
      </trkpt>
      <trkpt lat="45.34539" lon="5.84904">
        <ele>1771</ele>
        <time>2022-03-06T10:06:30Z</time>
      </trkpt>
      <trkpt lat="45.34539" lon="5.84904">
        <ele>1771</ele>
        <time>2022-03-06T10:06:34Z</time>
      </trkpt>
      <trkpt lat="45.34539" lon="5.84904">
        <ele>1771</ele>
        <time>2022-03-06T10:06:38Z</time>
      </trkpt>
      <trkpt lat="45.34539" lon="5.84904">
        <ele>1770</ele>
        <time>2022-03-06T10:06:42Z</time>
      </trkpt>
      <trkpt lat="45.34539" lon="5.84904">
        <ele>1770</ele>
        <time>2022-03-06T10:06:46Z</time>
      </trkpt>
      <trkpt lat="45.34539" lon="5.84904">
        <ele>1770</ele>
        <time>2022-03-06T10:06:50Z</time>
      </trkpt>
      <trkpt lat="45.34539" lon="5.84904">
        <ele>1770</ele>
        <time>2022-03-06T10:06:54Z</time>
      </trkpt>
      <trkpt lat="45.34539" lon="5.84904">
        <ele>1770</ele>
        <time>2022-03-06T10:06:58Z</time>
      </trkpt>
      <trkpt lat="45.34539" lon="5.84904">
        <ele>1770</ele>
        <time>2022-03-06T10:07:02Z</time>
      </trkpt>
      <trkpt lat="45.34539" lon="5.84904">
        <ele>1771</ele>
        <time>2022-03-06T10:07:06Z</time>
      </trkpt>
      <trkpt lat="45.34539" lon="5.84904">
        <ele>1771</ele>
        <time>2022-03-06T10:07:10Z</time>
      </trkpt>
      <trkpt lat="45.34539" lon="5.84904">
        <ele>1772</ele>
        <time>2022-03-06T10:07:14Z</time>
      </trkpt>
      <trkpt lat="45.34539" lon="5.84904">
        <ele>1771</ele>
        <time>2022-03-06T10:07:18Z</time>
      </trkpt>
      <trkpt lat="45.34539" lon="5.84904">
        <ele>1772</ele>
        <time>2022-03-06T10:07:22Z</time>
      </trkpt>
      <trkpt lat="45.34538" lon="5.84907">
        <ele>1772</ele>
        <time>2022-03-06T10:07:24Z</time>
      </trkpt>
      <trkpt lat="45.34538" lon="5.84907">
        <ele>1773</ele>
        <time>2022-03-06T10:07:27Z</time>
      </trkpt>
      <trkpt lat="45.34536" lon="5.84908">
        <ele>1773</ele>
        <time>2022-03-06T10:07:28Z</time>
      </trkpt>
      <trkpt lat="45.34536" lon="5.84908">
        <ele>1773</ele>
        <time>2022-03-06T10:07:32Z</time>
      </trkpt>
      <trkpt lat="45.34536" lon="5.84908">
        <ele>1774</ele>
        <time>2022-03-06T10:07:36Z</time>
      </trkpt>
      <trkpt lat="45.34536" lon="5.84908">
        <ele>1774</ele>
        <time>2022-03-06T10:07:40Z</time>
      </trkpt>
      <trkpt lat="45.34536" lon="5.84908">
        <ele>1774</ele>
        <time>2022-03-06T10:07:44Z</time>
      </trkpt>
      <trkpt lat="45.34536" lon="5.84908">
        <ele>1774</ele>
        <time>2022-03-06T10:07:48Z</time>
      </trkpt>
      <trkpt lat="45.34537" lon="5.84911">
        <ele>1774</ele>
        <time>2022-03-06T10:07:49Z</time>
      </trkpt>
      <trkpt lat="45.34537" lon="5.84911">
        <ele>1775</ele>
        <time>2022-03-06T10:07:53Z</time>
      </trkpt>
      <trkpt lat="45.34537" lon="5.84911">
        <ele>1776</ele>
        <time>2022-03-06T10:07:57Z</time>
      </trkpt>
      <trkpt lat="45.34538" lon="5.84914">
        <ele>1776</ele>
        <time>2022-03-06T10:07:59Z</time>
      </trkpt>
      <trkpt lat="45.34538" lon="5.84914">
        <ele>1777</ele>
        <time>2022-03-06T10:08:02Z</time>
      </trkpt>
      <trkpt lat="45.34538" lon="5.84914">
        <ele>1777</ele>
        <time>2022-03-06T10:08:06Z</time>
      </trkpt>
      <trkpt lat="45.34538" lon="5.84917">
        <ele>1777</ele>
        <time>2022-03-06T10:08:07Z</time>
      </trkpt>
      <trkpt lat="45.34538" lon="5.84917">
        <ele>1778</ele>
        <time>2022-03-06T10:08:11Z</time>
      </trkpt>
      <trkpt lat="45.34538" lon="5.84919">
        <ele>1778</ele>
        <time>2022-03-06T10:08:12Z</time>
      </trkpt>
      <trkpt lat="45.34538" lon="5.84919">
        <ele>1779</ele>
        <time>2022-03-06T10:08:16Z</time>
      </trkpt>
      <trkpt lat="45.34539" lon="5.84922">
        <ele>1779</ele>
        <time>2022-03-06T10:08:20Z</time>
      </trkpt>
      <trkpt lat="45.34539" lon="5.84922">
        <ele>1779</ele>
        <time>2022-03-06T10:08:21Z</time>
      </trkpt>
      <trkpt lat="45.34539" lon="5.84922">
        <ele>1780</ele>
        <time>2022-03-06T10:08:25Z</time>
      </trkpt>
      <trkpt lat="45.34541" lon="5.84924">
        <ele>1780</ele>
        <time>2022-03-06T10:08:26Z</time>
      </trkpt>
      <trkpt lat="45.34541" lon="5.84924">
        <ele>1781</ele>
        <time>2022-03-06T10:08:30Z</time>
      </trkpt>
      <trkpt lat="45.34543" lon="5.84925">
        <ele>1781</ele>
        <time>2022-03-06T10:08:31Z</time>
      </trkpt>
      <trkpt lat="45.34543" lon="5.84925">
        <ele>1782</ele>
        <time>2022-03-06T10:08:35Z</time>
      </trkpt>
      <trkpt lat="45.34544" lon="5.84927">
        <ele>1783</ele>
        <time>2022-03-06T10:08:37Z</time>
      </trkpt>
      <trkpt lat="45.34544" lon="5.84927">
        <ele>1784</ele>
        <time>2022-03-06T10:08:40Z</time>
      </trkpt>
      <trkpt lat="45.34545" lon="5.8493">
        <ele>1784</ele>
        <time>2022-03-06T10:08:41Z</time>
      </trkpt>
      <trkpt lat="45.34545" lon="5.8493">
        <ele>1783</ele>
        <time>2022-03-06T10:08:45Z</time>
      </trkpt>
      <trkpt lat="45.34547" lon="5.84931">
        <ele>1783</ele>
        <time>2022-03-06T10:08:47Z</time>
      </trkpt>
      <trkpt lat="45.34547" lon="5.84931">
        <ele>1783</ele>
        <time>2022-03-06T10:08:50Z</time>
      </trkpt>
      <trkpt lat="45.34547" lon="5.84931">
        <ele>1783</ele>
        <time>2022-03-06T10:08:54Z</time>
      </trkpt>
      <trkpt lat="45.34547" lon="5.84931">
        <ele>1783</ele>
        <time>2022-03-06T10:08:58Z</time>
      </trkpt>
      <trkpt lat="45.34547" lon="5.84931">
        <ele>1783</ele>
        <time>2022-03-06T10:09:02Z</time>
      </trkpt>
      <trkpt lat="45.34547" lon="5.84931">
        <ele>1785</ele>
        <time>2022-03-06T10:09:06Z</time>
      </trkpt>
      <trkpt lat="45.34547" lon="5.84931">
        <ele>1785</ele>
        <time>2022-03-06T10:09:10Z</time>
      </trkpt>
      <trkpt lat="45.34547" lon="5.84931">
        <ele>1785</ele>
        <time>2022-03-06T10:09:14Z</time>
      </trkpt>
      <trkpt lat="45.34547" lon="5.84931">
        <ele>1785</ele>
        <time>2022-03-06T10:09:18Z</time>
      </trkpt>
      <trkpt lat="45.34546" lon="5.84933">
        <ele>1785</ele>
        <time>2022-03-06T10:09:22Z</time>
      </trkpt>
      <trkpt lat="45.34546" lon="5.84933">
        <ele>1785</ele>
        <time>2022-03-06T10:09:23Z</time>
      </trkpt>
      <trkpt lat="45.34546" lon="5.84936">
        <ele>1786</ele>
        <time>2022-03-06T10:09:26Z</time>
      </trkpt>
      <trkpt lat="45.34546" lon="5.84936">
        <ele>1787</ele>
        <time>2022-03-06T10:09:28Z</time>
      </trkpt>
      <trkpt lat="45.34546" lon="5.84936">
        <ele>1788</ele>
        <time>2022-03-06T10:09:32Z</time>
      </trkpt>
      <trkpt lat="45.34547" lon="5.84938">
        <ele>1788</ele>
        <time>2022-03-06T10:09:34Z</time>
      </trkpt>
      <trkpt lat="45.34547" lon="5.84938">
        <ele>1789</ele>
        <time>2022-03-06T10:09:37Z</time>
      </trkpt>
      <trkpt lat="45.34547" lon="5.84941">
        <ele>1789</ele>
        <time>2022-03-06T10:09:39Z</time>
      </trkpt>
      <trkpt lat="45.34547" lon="5.84941">
        <ele>1790</ele>
        <time>2022-03-06T10:09:42Z</time>
      </trkpt>
      <trkpt lat="45.34547" lon="5.84941">
        <ele>1790</ele>
        <time>2022-03-06T10:09:46Z</time>
      </trkpt>
      <trkpt lat="45.34547" lon="5.84944">
        <ele>1790</ele>
        <time>2022-03-06T10:09:47Z</time>
      </trkpt>
      <trkpt lat="45.34547" lon="5.84944">
        <ele>1791</ele>
        <time>2022-03-06T10:09:51Z</time>
      </trkpt>
      <trkpt lat="45.34548" lon="5.84946">
        <ele>1791</ele>
        <time>2022-03-06T10:09:52Z</time>
      </trkpt>
      <trkpt lat="45.34548" lon="5.84946">
        <ele>1792</ele>
        <time>2022-03-06T10:09:56Z</time>
      </trkpt>
      <trkpt lat="45.3455" lon="5.84948">
        <ele>1792</ele>
        <time>2022-03-06T10:09:58Z</time>
      </trkpt>
      <trkpt lat="45.3455" lon="5.84948">
        <ele>1794</ele>
        <time>2022-03-06T10:10:01Z</time>
      </trkpt>
      <trkpt lat="45.3455" lon="5.84948">
        <ele>1794</ele>
        <time>2022-03-06T10:10:05Z</time>
      </trkpt>
      <trkpt lat="45.34551" lon="5.8495">
        <ele>1794</ele>
        <time>2022-03-06T10:10:06Z</time>
      </trkpt>
      <trkpt lat="45.34551" lon="5.8495">
        <ele>1794</ele>
        <time>2022-03-06T10:10:10Z</time>
      </trkpt>
      <trkpt lat="45.34552" lon="5.84952">
        <ele>1795</ele>
        <time>2022-03-06T10:10:14Z</time>
      </trkpt>
      <trkpt lat="45.34552" lon="5.84952">
        <ele>1795</ele>
        <time>2022-03-06T10:10:15Z</time>
      </trkpt>
      <trkpt lat="45.34552" lon="5.84952">
        <ele>1796</ele>
        <time>2022-03-06T10:10:19Z</time>
      </trkpt>
      <trkpt lat="45.34553" lon="5.84955">
        <ele>1796</ele>
        <time>2022-03-06T10:10:20Z</time>
      </trkpt>
      <trkpt lat="45.34553" lon="5.84955">
        <ele>1797</ele>
        <time>2022-03-06T10:10:24Z</time>
      </trkpt>
      <trkpt lat="45.34554" lon="5.84957">
        <ele>1797</ele>
        <time>2022-03-06T10:10:25Z</time>
      </trkpt>
      <trkpt lat="45.34556" lon="5.84958">
        <ele>1798</ele>
        <time>2022-03-06T10:10:29Z</time>
      </trkpt>
      <trkpt lat="45.34556" lon="5.84958">
        <ele>1798</ele>
        <time>2022-03-06T10:10:30Z</time>
      </trkpt>
      <trkpt lat="45.34556" lon="5.84958">
        <ele>1799</ele>
        <time>2022-03-06T10:10:34Z</time>
      </trkpt>
      <trkpt lat="45.34558" lon="5.84959">
        <ele>1799</ele>
        <time>2022-03-06T10:10:35Z</time>
      </trkpt>
      <trkpt lat="45.34558" lon="5.84959">
        <ele>1799</ele>
        <time>2022-03-06T10:10:40Z</time>
      </trkpt>
      <trkpt lat="45.34558" lon="5.84959">
        <ele>1800</ele>
        <time>2022-03-06T10:10:44Z</time>
      </trkpt>
      <trkpt lat="45.3456" lon="5.84961">
        <ele>1800</ele>
        <time>2022-03-06T10:10:45Z</time>
      </trkpt>
      <trkpt lat="45.3456" lon="5.84961">
        <ele>1801</ele>
        <time>2022-03-06T10:10:49Z</time>
      </trkpt>
      <trkpt lat="45.3456" lon="5.84963">
        <ele>1801</ele>
        <time>2022-03-06T10:10:50Z</time>
      </trkpt>
      <trkpt lat="45.3456" lon="5.84963">
        <ele>1802</ele>
        <time>2022-03-06T10:10:54Z</time>
      </trkpt>
      <trkpt lat="45.3456" lon="5.84967">
        <ele>1803</ele>
        <time>2022-03-06T10:10:56Z</time>
      </trkpt>
      <trkpt lat="45.3456" lon="5.84967">
        <ele>1803</ele>
        <time>2022-03-06T10:10:59Z</time>
      </trkpt>
      <trkpt lat="45.3456" lon="5.84967">
        <ele>1804</ele>
        <time>2022-03-06T10:11:03Z</time>
      </trkpt>
      <trkpt lat="45.34561" lon="5.84969">
        <ele>1804</ele>
        <time>2022-03-06T10:11:04Z</time>
      </trkpt>
      <trkpt lat="45.34561" lon="5.84969">
        <ele>1804</ele>
        <time>2022-03-06T10:11:08Z</time>
      </trkpt>
      <trkpt lat="45.34561" lon="5.84969">
        <ele>1805</ele>
        <time>2022-03-06T10:11:12Z</time>
      </trkpt>
      <trkpt lat="45.34561" lon="5.84972">
        <ele>1805</ele>
        <time>2022-03-06T10:11:15Z</time>
      </trkpt>
      <trkpt lat="45.34561" lon="5.84972">
        <ele>1806</ele>
        <time>2022-03-06T10:11:17Z</time>
      </trkpt>
      <trkpt lat="45.3456" lon="5.84974">
        <ele>1807</ele>
        <time>2022-03-06T10:11:20Z</time>
      </trkpt>
      <trkpt lat="45.3456" lon="5.84974">
        <ele>1807</ele>
        <time>2022-03-06T10:11:22Z</time>
      </trkpt>
      <trkpt lat="45.3456" lon="5.84974">
        <ele>1808</ele>
        <time>2022-03-06T10:11:26Z</time>
      </trkpt>
      <trkpt lat="45.34559" lon="5.84977">
        <ele>1808</ele>
        <time>2022-03-06T10:11:29Z</time>
      </trkpt>
      <trkpt lat="45.34559" lon="5.84977">
        <ele>1809</ele>
        <time>2022-03-06T10:11:31Z</time>
      </trkpt>
      <trkpt lat="45.34559" lon="5.84977">
        <ele>1809</ele>
        <time>2022-03-06T10:11:35Z</time>
      </trkpt>
      <trkpt lat="45.34558" lon="5.84979">
        <ele>1809</ele>
        <time>2022-03-06T10:11:37Z</time>
      </trkpt>
      <trkpt lat="45.34558" lon="5.84979">
        <ele>1810</ele>
        <time>2022-03-06T10:11:40Z</time>
      </trkpt>
      <trkpt lat="45.34558" lon="5.84979">
        <ele>1811</ele>
        <time>2022-03-06T10:11:44Z</time>
      </trkpt>
      <trkpt lat="45.34557" lon="5.84982">
        <ele>1811</ele>
        <time>2022-03-06T10:11:45Z</time>
      </trkpt>
      <trkpt lat="45.34557" lon="5.84982">
        <ele>1812</ele>
        <time>2022-03-06T10:11:49Z</time>
      </trkpt>
      <trkpt lat="45.34557" lon="5.84982">
        <ele>1812</ele>
        <time>2022-03-06T10:11:53Z</time>
      </trkpt>
      <trkpt lat="45.34557" lon="5.84982">
        <ele>1813</ele>
        <time>2022-03-06T10:11:57Z</time>
      </trkpt>
      <trkpt lat="45.34557" lon="5.84984">
        <ele>1813</ele>
        <time>2022-03-06T10:12:01Z</time>
      </trkpt>
      <trkpt lat="45.34557" lon="5.84984">
        <ele>1813</ele>
        <time>2022-03-06T10:12:02Z</time>
      </trkpt>
      <trkpt lat="45.34556" lon="5.84987">
        <ele>1814</ele>
        <time>2022-03-06T10:12:06Z</time>
      </trkpt>
      <trkpt lat="45.34556" lon="5.84987">
        <ele>1814</ele>
        <time>2022-03-06T10:12:07Z</time>
      </trkpt>
      <trkpt lat="45.34556" lon="5.84987">
        <ele>1815</ele>
        <time>2022-03-06T10:12:11Z</time>
      </trkpt>
      <trkpt lat="45.34556" lon="5.84987">
        <ele>1815</ele>
        <time>2022-03-06T10:12:15Z</time>
      </trkpt>
      <trkpt lat="45.34557" lon="5.8499">
        <ele>1816</ele>
        <time>2022-03-06T10:12:18Z</time>
      </trkpt>
      <trkpt lat="45.34557" lon="5.8499">
        <ele>1816</ele>
        <time>2022-03-06T10:12:20Z</time>
      </trkpt>
      <trkpt lat="45.34557" lon="5.8499">
        <ele>1817</ele>
        <time>2022-03-06T10:12:24Z</time>
      </trkpt>
      <trkpt lat="45.34557" lon="5.84993">
        <ele>1817</ele>
        <time>2022-03-06T10:12:26Z</time>
      </trkpt>
      <trkpt lat="45.34557" lon="5.84993">
        <ele>1818</ele>
        <time>2022-03-06T10:12:29Z</time>
      </trkpt>
      <trkpt lat="45.34557" lon="5.84995">
        <ele>1818</ele>
        <time>2022-03-06T10:12:31Z</time>
      </trkpt>
      <trkpt lat="45.34557" lon="5.84995">
        <ele>1819</ele>
        <time>2022-03-06T10:12:34Z</time>
      </trkpt>
      <trkpt lat="45.34558" lon="5.84998">
        <ele>1819</ele>
        <time>2022-03-06T10:12:36Z</time>
      </trkpt>
      <trkpt lat="45.34558" lon="5.84998">
        <ele>1820</ele>
        <time>2022-03-06T10:12:39Z</time>
      </trkpt>
      <trkpt lat="45.34559" lon="5.85">
        <ele>1820</ele>
        <time>2022-03-06T10:12:40Z</time>
      </trkpt>
      <trkpt lat="45.3456" lon="5.85003">
        <ele>1821</ele>
        <time>2022-03-06T10:12:44Z</time>
      </trkpt>
      <trkpt lat="45.3456" lon="5.85003">
        <ele>1821</ele>
        <time>2022-03-06T10:12:45Z</time>
      </trkpt>
      <trkpt lat="45.34559" lon="5.85005">
        <ele>1823</ele>
        <time>2022-03-06T10:12:49Z</time>
      </trkpt>
      <trkpt lat="45.34559" lon="5.85005">
        <ele>1823</ele>
        <time>2022-03-06T10:12:50Z</time>
      </trkpt>
      <trkpt lat="45.34559" lon="5.85005">
        <ele>1824</ele>
        <time>2022-03-06T10:12:54Z</time>
      </trkpt>
      <trkpt lat="45.34559" lon="5.85005">
        <ele>1824</ele>
        <time>2022-03-06T10:12:58Z</time>
      </trkpt>
      <trkpt lat="45.34559" lon="5.85005">
        <ele>1824</ele>
        <time>2022-03-06T10:13:02Z</time>
      </trkpt>
      <trkpt lat="45.34559" lon="5.85005">
        <ele>1824</ele>
        <time>2022-03-06T10:13:06Z</time>
      </trkpt>
      <trkpt lat="45.34559" lon="5.85005">
        <ele>1824</ele>
        <time>2022-03-06T10:13:10Z</time>
      </trkpt>
      <trkpt lat="45.34559" lon="5.85005">
        <ele>1824</ele>
        <time>2022-03-06T10:13:14Z</time>
      </trkpt>
      <trkpt lat="45.34559" lon="5.85005">
        <ele>1824</ele>
        <time>2022-03-06T10:13:18Z</time>
      </trkpt>
      <trkpt lat="45.34559" lon="5.85005">
        <ele>1824</ele>
        <time>2022-03-06T10:13:22Z</time>
      </trkpt>
      <trkpt lat="45.34559" lon="5.85005">
        <ele>1824</ele>
        <time>2022-03-06T10:13:26Z</time>
      </trkpt>
      <trkpt lat="45.34559" lon="5.85005">
        <ele>1824</ele>
        <time>2022-03-06T10:13:30Z</time>
      </trkpt>
      <trkpt lat="45.34559" lon="5.85005">
        <ele>1824</ele>
        <time>2022-03-06T10:13:34Z</time>
      </trkpt>
      <trkpt lat="45.34559" lon="5.85005">
        <ele>1824</ele>
        <time>2022-03-06T10:13:38Z</time>
      </trkpt>
      <trkpt lat="45.34559" lon="5.85005">
        <ele>1824</ele>
        <time>2022-03-06T10:13:42Z</time>
      </trkpt>
      <trkpt lat="45.3456" lon="5.85007">
        <ele>1824</ele>
        <time>2022-03-06T10:13:44Z</time>
      </trkpt>
      <trkpt lat="45.34562" lon="5.85008">
        <ele>1824</ele>
        <time>2022-03-06T10:13:47Z</time>
      </trkpt>
      <trkpt lat="45.34562" lon="5.85008">
        <ele>1824</ele>
        <time>2022-03-06T10:13:48Z</time>
      </trkpt>
      <trkpt lat="45.34564" lon="5.8501">
        <ele>1824</ele>
        <time>2022-03-06T10:13:50Z</time>
      </trkpt>
      <trkpt lat="45.34566" lon="5.85011">
        <ele>1824</ele>
        <time>2022-03-06T10:13:53Z</time>
      </trkpt>
      <trkpt lat="45.34566" lon="5.85011">
        <ele>1824</ele>
        <time>2022-03-06T10:13:54Z</time>
      </trkpt>
      <trkpt lat="45.34566" lon="5.85011">
        <ele>1824</ele>
        <time>2022-03-06T10:13:58Z</time>
      </trkpt>
      <trkpt lat="45.34566" lon="5.85011">
        <ele>1824</ele>
        <time>2022-03-06T10:14:02Z</time>
      </trkpt>
      <trkpt lat="45.34566" lon="5.85011">
        <ele>1824</ele>
        <time>2022-03-06T10:14:06Z</time>
      </trkpt>
      <trkpt lat="45.34566" lon="5.85011">
        <ele>1824</ele>
        <time>2022-03-06T10:14:10Z</time>
      </trkpt>
      <trkpt lat="45.34566" lon="5.85011">
        <ele>1825</ele>
        <time>2022-03-06T10:14:14Z</time>
      </trkpt>
      <trkpt lat="45.34566" lon="5.85011">
        <ele>1825</ele>
        <time>2022-03-06T10:14:18Z</time>
      </trkpt>
      <trkpt lat="45.34566" lon="5.85011">
        <ele>1825</ele>
        <time>2022-03-06T10:14:22Z</time>
      </trkpt>
      <trkpt lat="45.34567" lon="5.85012">
        <ele>1824</ele>
        <time>2022-03-06T10:14:25Z</time>
      </trkpt>
      <trkpt lat="45.34569" lon="5.85013">
        <ele>1824</ele>
        <time>2022-03-06T10:14:27Z</time>
      </trkpt>
      <trkpt lat="45.34571" lon="5.85014">
        <ele>1824</ele>
        <time>2022-03-06T10:14:30Z</time>
      </trkpt>
      <trkpt lat="45.34571" lon="5.85014">
        <ele>1824</ele>
        <time>2022-03-06T10:14:31Z</time>
      </trkpt>
      <trkpt lat="45.34571" lon="5.85014">
        <ele>1823</ele>
        <time>2022-03-06T10:14:35Z</time>
      </trkpt>
      <trkpt lat="45.34572" lon="5.85016">
        <ele>1823</ele>
        <time>2022-03-06T10:14:37Z</time>
      </trkpt>
      <trkpt lat="45.34572" lon="5.85016">
        <ele>1822</ele>
        <time>2022-03-06T10:14:40Z</time>
      </trkpt>
      <trkpt lat="45.34572" lon="5.85016">
        <ele>1822</ele>
        <time>2022-03-06T10:14:44Z</time>
      </trkpt>
      <trkpt lat="45.34574" lon="5.85017">
        <ele>1822</ele>
        <time>2022-03-06T10:14:47Z</time>
      </trkpt>
      <trkpt lat="45.34574" lon="5.85017">
        <ele>1822</ele>
        <time>2022-03-06T10:14:49Z</time>
      </trkpt>
      <trkpt lat="45.34576" lon="5.85019">
        <ele>1822</ele>
        <time>2022-03-06T10:14:51Z</time>
      </trkpt>
      <trkpt lat="45.34577" lon="5.85021">
        <ele>1822</ele>
        <time>2022-03-06T10:14:54Z</time>
      </trkpt>
      <trkpt lat="45.34577" lon="5.85021">
        <ele>1822</ele>
        <time>2022-03-06T10:14:55Z</time>
      </trkpt>
      <trkpt lat="45.34579" lon="5.85022">
        <ele>1822</ele>
        <time>2022-03-06T10:14:58Z</time>
      </trkpt>
      <trkpt lat="45.34579" lon="5.85022">
        <ele>1823</ele>
        <time>2022-03-06T10:15:00Z</time>
      </trkpt>
      <trkpt lat="45.34579" lon="5.85022">
        <ele>1823</ele>
        <time>2022-03-06T10:15:04Z</time>
      </trkpt>
      <trkpt lat="45.3458" lon="5.85023">
        <ele>1823</ele>
        <time>2022-03-06T10:15:06Z</time>
      </trkpt>
      <trkpt lat="45.3458" lon="5.85023">
        <ele>1823</ele>
        <time>2022-03-06T10:15:09Z</time>
      </trkpt>
      <trkpt lat="45.3458" lon="5.85023">
        <ele>1823</ele>
        <time>2022-03-06T10:15:13Z</time>
      </trkpt>
      <trkpt lat="45.3458" lon="5.85023">
        <ele>1822</ele>
        <time>2022-03-06T10:15:17Z</time>
      </trkpt>
      <trkpt lat="45.3458" lon="5.85023">
        <ele>1823</ele>
        <time>2022-03-06T10:15:21Z</time>
      </trkpt>
      <trkpt lat="45.3458" lon="5.85023">
        <ele>1823</ele>
        <time>2022-03-06T10:15:25Z</time>
      </trkpt>
      <trkpt lat="45.3458" lon="5.85023">
        <ele>1823</ele>
        <time>2022-03-06T10:15:29Z</time>
      </trkpt>
      <trkpt lat="45.3458" lon="5.85023">
        <ele>1822</ele>
        <time>2022-03-06T10:15:33Z</time>
      </trkpt>
      <trkpt lat="45.3458" lon="5.85023">
        <ele>1822</ele>
        <time>2022-03-06T10:15:37Z</time>
      </trkpt>
      <trkpt lat="45.3458" lon="5.85023">
        <ele>1822</ele>
        <time>2022-03-06T10:15:41Z</time>
      </trkpt>
      <trkpt lat="45.3458" lon="5.85023">
        <ele>1823</ele>
        <time>2022-03-06T10:15:45Z</time>
      </trkpt>
      <trkpt lat="45.3458" lon="5.85023">
        <ele>1822</ele>
        <time>2022-03-06T10:15:49Z</time>
      </trkpt>
      <trkpt lat="45.3458" lon="5.85023">
        <ele>1822</ele>
        <time>2022-03-06T10:15:53Z</time>
      </trkpt>
      <trkpt lat="45.3458" lon="5.85023">
        <ele>1823</ele>
        <time>2022-03-06T10:15:57Z</time>
      </trkpt>
      <trkpt lat="45.34582" lon="5.85025">
        <ele>1822</ele>
        <time>2022-03-06T10:16:01Z</time>
      </trkpt>
      <trkpt lat="45.34582" lon="5.85025">
        <ele>1822</ele>
        <time>2022-03-06T10:16:02Z</time>
      </trkpt>
      <trkpt lat="45.34584" lon="5.85025">
        <ele>1822</ele>
        <time>2022-03-06T10:16:04Z</time>
      </trkpt>
      <trkpt lat="45.34584" lon="5.85025">
        <ele>1822</ele>
        <time>2022-03-06T10:16:07Z</time>
      </trkpt>
      <trkpt lat="45.34586" lon="5.85026">
        <ele>1822</ele>
        <time>2022-03-06T10:16:08Z</time>
      </trkpt>
      <trkpt lat="45.34589" lon="5.85026">
        <ele>1822</ele>
        <time>2022-03-06T10:16:11Z</time>
      </trkpt>
      <trkpt lat="45.34589" lon="5.85026">
        <ele>1822</ele>
        <time>2022-03-06T10:16:13Z</time>
      </trkpt>
      <trkpt lat="45.34591" lon="5.85028">
        <ele>1822</ele>
        <time>2022-03-06T10:16:14Z</time>
      </trkpt>
      <trkpt lat="45.34592" lon="5.85029">
        <ele>1822</ele>
        <time>2022-03-06T10:16:18Z</time>
      </trkpt>
      <trkpt lat="45.34592" lon="5.85029">
        <ele>1822</ele>
        <time>2022-03-06T10:16:19Z</time>
      </trkpt>
      <trkpt lat="45.34594" lon="5.85031">
        <ele>1822</ele>
        <time>2022-03-06T10:16:22Z</time>
      </trkpt>
      <trkpt lat="45.34594" lon="5.85031">
        <ele>1822</ele>
        <time>2022-03-06T10:16:24Z</time>
      </trkpt>
      <trkpt lat="45.34596" lon="5.85033">
        <ele>1822</ele>
        <time>2022-03-06T10:16:26Z</time>
      </trkpt>
      <trkpt lat="45.34596" lon="5.85033">
        <ele>1821</ele>
        <time>2022-03-06T10:16:29Z</time>
      </trkpt>
      <trkpt lat="45.34598" lon="5.85034">
        <ele>1821</ele>
        <time>2022-03-06T10:16:30Z</time>
      </trkpt>
      <trkpt lat="45.34598" lon="5.85034">
        <ele>1821</ele>
        <time>2022-03-06T10:16:34Z</time>
      </trkpt>
      <trkpt lat="45.346" lon="5.85033">
        <ele>1820</ele>
        <time>2022-03-06T10:16:38Z</time>
      </trkpt>
      <trkpt lat="45.346" lon="5.85033">
        <ele>1820</ele>
        <time>2022-03-06T10:16:39Z</time>
      </trkpt>
      <trkpt lat="45.34602" lon="5.85034">
        <ele>1820</ele>
        <time>2022-03-06T10:16:41Z</time>
      </trkpt>
      <trkpt lat="45.34604" lon="5.85034">
        <ele>1820</ele>
        <time>2022-03-06T10:16:44Z</time>
      </trkpt>
      <trkpt lat="45.34604" lon="5.85034">
        <ele>1820</ele>
        <time>2022-03-06T10:16:45Z</time>
      </trkpt>
      <trkpt lat="45.34604" lon="5.85034">
        <ele>1820</ele>
        <time>2022-03-06T10:16:49Z</time>
      </trkpt>
      <trkpt lat="45.34606" lon="5.85035">
        <ele>1820</ele>
        <time>2022-03-06T10:16:50Z</time>
      </trkpt>
      <trkpt lat="45.34608" lon="5.85035">
        <ele>1820</ele>
        <time>2022-03-06T10:16:53Z</time>
      </trkpt>
      <trkpt lat="45.34608" lon="5.85035">
        <ele>1820</ele>
        <time>2022-03-06T10:16:55Z</time>
      </trkpt>
      <trkpt lat="45.3461" lon="5.85036">
        <ele>1820</ele>
        <time>2022-03-06T10:16:56Z</time>
      </trkpt>
      <trkpt lat="45.34612" lon="5.85037">
        <ele>1820</ele>
        <time>2022-03-06T10:16:59Z</time>
      </trkpt>
      <trkpt lat="45.34612" lon="5.85037">
        <ele>1820</ele>
        <time>2022-03-06T10:17:01Z</time>
      </trkpt>
      <trkpt lat="45.34612" lon="5.85037">
        <ele>1820</ele>
        <time>2022-03-06T10:17:05Z</time>
      </trkpt>
      <trkpt lat="45.34612" lon="5.85037">
        <ele>1819</ele>
        <time>2022-03-06T10:17:09Z</time>
      </trkpt>
      <trkpt lat="45.34612" lon="5.85037">
        <ele>1819</ele>
        <time>2022-03-06T10:17:13Z</time>
      </trkpt>
      <trkpt lat="45.34612" lon="5.85037">
        <ele>1819</ele>
        <time>2022-03-06T10:17:17Z</time>
      </trkpt>
      <trkpt lat="45.34613" lon="5.85039">
        <ele>1819</ele>
        <time>2022-03-06T10:17:20Z</time>
      </trkpt>
      <trkpt lat="45.34613" lon="5.85039">
        <ele>1819</ele>
        <time>2022-03-06T10:17:22Z</time>
      </trkpt>
      <trkpt lat="45.34615" lon="5.8504">
        <ele>1818</ele>
        <time>2022-03-06T10:17:23Z</time>
      </trkpt>
      <trkpt lat="45.34615" lon="5.8504">
        <ele>1819</ele>
        <time>2022-03-06T10:17:27Z</time>
      </trkpt>
      <trkpt lat="45.34616" lon="5.85042">
        <ele>1819</ele>
        <time>2022-03-06T10:17:28Z</time>
      </trkpt>
      <trkpt lat="45.34616" lon="5.85042">
        <ele>1821</ele>
        <time>2022-03-06T10:17:32Z</time>
      </trkpt>
      <trkpt lat="45.34616" lon="5.85042">
        <ele>1820</ele>
        <time>2022-03-06T10:17:36Z</time>
      </trkpt>
      <trkpt lat="45.34616" lon="5.85042">
        <ele>1821</ele>
        <time>2022-03-06T10:17:40Z</time>
      </trkpt>
      <trkpt lat="45.34615" lon="5.85045">
        <ele>1821</ele>
        <time>2022-03-06T10:17:41Z</time>
      </trkpt>
      <trkpt lat="45.34615" lon="5.85045">
        <ele>1822</ele>
        <time>2022-03-06T10:17:45Z</time>
      </trkpt>
      <trkpt lat="45.34615" lon="5.85045">
        <ele>1821</ele>
        <time>2022-03-06T10:17:49Z</time>
      </trkpt>
      <trkpt lat="45.34617" lon="5.85049">
        <ele>1821</ele>
        <time>2022-03-06T10:17:50Z</time>
      </trkpt>
      <trkpt lat="45.34617" lon="5.85049">
        <ele>1821</ele>
        <time>2022-03-06T10:17:54Z</time>
      </trkpt>
      <trkpt lat="45.34619" lon="5.85051">
        <ele>1821</ele>
        <time>2022-03-06T10:17:57Z</time>
      </trkpt>
      <trkpt lat="45.34619" lon="5.85051">
        <ele>1822</ele>
        <time>2022-03-06T10:17:59Z</time>
      </trkpt>
      <trkpt lat="45.34619" lon="5.85051">
        <ele>1822</ele>
        <time>2022-03-06T10:18:03Z</time>
      </trkpt>
      <trkpt lat="45.34619" lon="5.85051">
        <ele>1822</ele>
        <time>2022-03-06T10:18:07Z</time>
      </trkpt>
      <trkpt lat="45.34619" lon="5.85051">
        <ele>1822</ele>
        <time>2022-03-06T10:18:11Z</time>
      </trkpt>
      <trkpt lat="45.34619" lon="5.85051">
        <ele>1822</ele>
        <time>2022-03-06T10:18:15Z</time>
      </trkpt>
      <trkpt lat="45.34619" lon="5.85051">
        <ele>1822</ele>
        <time>2022-03-06T10:18:19Z</time>
      </trkpt>
      <trkpt lat="45.34619" lon="5.85051">
        <ele>1823</ele>
        <time>2022-03-06T10:18:23Z</time>
      </trkpt>
      <trkpt lat="45.34619" lon="5.85051">
        <ele>1822</ele>
        <time>2022-03-06T10:18:27Z</time>
      </trkpt>
      <trkpt lat="45.34619" lon="5.85051">
        <ele>1822</ele>
        <time>2022-03-06T10:18:31Z</time>
      </trkpt>
      <trkpt lat="45.34619" lon="5.85051">
        <ele>1822</ele>
        <time>2022-03-06T10:18:35Z</time>
      </trkpt>
      <trkpt lat="45.34619" lon="5.85051">
        <ele>1822</ele>
        <time>2022-03-06T10:18:39Z</time>
      </trkpt>
      <trkpt lat="45.34619" lon="5.85051">
        <ele>1823</ele>
        <time>2022-03-06T10:18:43Z</time>
      </trkpt>
      <trkpt lat="45.3462" lon="5.85051">
        <ele>1822</ele>
        <time>2022-03-06T10:18:46Z</time>
      </trkpt>
      <trkpt lat="45.3462" lon="5.85051">
        <ele>1823</ele>
        <time>2022-03-06T10:18:48Z</time>
      </trkpt>
      <trkpt lat="45.34622" lon="5.85052">
        <ele>1823</ele>
        <time>2022-03-06T10:18:49Z</time>
      </trkpt>
      <trkpt lat="45.34625" lon="5.85052">
        <ele>1823</ele>
        <time>2022-03-06T10:18:52Z</time>
      </trkpt>
      <trkpt lat="45.34625" lon="5.85052">
        <ele>1824</ele>
        <time>2022-03-06T10:18:54Z</time>
      </trkpt>
      <trkpt lat="45.34627" lon="5.85053">
        <ele>1824</ele>
        <time>2022-03-06T10:18:55Z</time>
      </trkpt>
      <trkpt lat="45.34629" lon="5.85053">
        <ele>1823</ele>
        <time>2022-03-06T10:18:58Z</time>
      </trkpt>
      <trkpt lat="45.34631" lon="5.85054">
        <ele>1823</ele>
        <time>2022-03-06T10:19:00Z</time>
      </trkpt>
      <trkpt lat="45.34633" lon="5.85054">
        <ele>1823</ele>
        <time>2022-03-06T10:19:02Z</time>
      </trkpt>
      <trkpt lat="45.34633" lon="5.85054">
        <ele>1823</ele>
        <time>2022-03-06T10:19:04Z</time>
      </trkpt>
      <trkpt lat="45.34635" lon="5.85054">
        <ele>1823</ele>
        <time>2022-03-06T10:19:08Z</time>
      </trkpt>
      <trkpt lat="45.34635" lon="5.85054">
        <ele>1824</ele>
        <time>2022-03-06T10:19:09Z</time>
      </trkpt>
      <trkpt lat="45.34638" lon="5.85056">
        <ele>1823</ele>
        <time>2022-03-06T10:19:11Z</time>
      </trkpt>
      <trkpt lat="45.34639" lon="5.85057">
        <ele>1822</ele>
        <time>2022-03-06T10:19:13Z</time>
      </trkpt>
      <trkpt lat="45.34641" lon="5.85058">
        <ele>1822</ele>
        <time>2022-03-06T10:19:15Z</time>
      </trkpt>
      <trkpt lat="45.34643" lon="5.85061">
        <ele>1822</ele>
        <time>2022-03-06T10:19:18Z</time>
      </trkpt>
      <trkpt lat="45.34643" lon="5.85061">
        <ele>1822</ele>
        <time>2022-03-06T10:19:19Z</time>
      </trkpt>
      <trkpt lat="45.34645" lon="5.85063">
        <ele>1821</ele>
        <time>2022-03-06T10:19:21Z</time>
      </trkpt>
      <trkpt lat="45.34647" lon="5.85064">
        <ele>1821</ele>
        <time>2022-03-06T10:19:23Z</time>
      </trkpt>
      <trkpt lat="45.34647" lon="5.85064">
        <ele>1821</ele>
        <time>2022-03-06T10:19:25Z</time>
      </trkpt>
      <trkpt lat="45.34649" lon="5.85064">
        <ele>1822</ele>
        <time>2022-03-06T10:19:27Z</time>
      </trkpt>
      <trkpt lat="45.34649" lon="5.85064">
        <ele>1822</ele>
        <time>2022-03-06T10:19:30Z</time>
      </trkpt>
      <trkpt lat="45.34651" lon="5.85063">
        <ele>1822</ele>
        <time>2022-03-06T10:19:31Z</time>
      </trkpt>
      <trkpt lat="45.34653" lon="5.85063">
        <ele>1823</ele>
        <time>2022-03-06T10:19:34Z</time>
      </trkpt>
      <trkpt lat="45.34653" lon="5.85063">
        <ele>1824</ele>
        <time>2022-03-06T10:19:36Z</time>
      </trkpt>
      <trkpt lat="45.34655" lon="5.85063">
        <ele>1824</ele>
        <time>2022-03-06T10:19:37Z</time>
      </trkpt>
      <trkpt lat="45.34658" lon="5.85063">
        <ele>1824</ele>
        <time>2022-03-06T10:19:40Z</time>
      </trkpt>
      <trkpt lat="45.34658" lon="5.85063">
        <ele>1824</ele>
        <time>2022-03-06T10:19:42Z</time>
      </trkpt>
      <trkpt lat="45.3466" lon="5.85062">
        <ele>1824</ele>
        <time>2022-03-06T10:19:43Z</time>
      </trkpt>
      <trkpt lat="45.34662" lon="5.85062">
        <ele>1824</ele>
        <time>2022-03-06T10:19:46Z</time>
      </trkpt>
      <trkpt lat="45.34664" lon="5.85062">
        <ele>1824</ele>
        <time>2022-03-06T10:19:48Z</time>
      </trkpt>
      <trkpt lat="45.34666" lon="5.85062">
        <ele>1824</ele>
        <time>2022-03-06T10:19:50Z</time>
      </trkpt>
      <trkpt lat="45.34666" lon="5.85062">
        <ele>1824</ele>
        <time>2022-03-06T10:19:52Z</time>
      </trkpt>
      <trkpt lat="45.34669" lon="5.85062">
        <ele>1824</ele>
        <time>2022-03-06T10:19:53Z</time>
      </trkpt>
      <trkpt lat="45.34671" lon="5.85062">
        <ele>1824</ele>
        <time>2022-03-06T10:19:55Z</time>
      </trkpt>
      <trkpt lat="45.34673" lon="5.85062">
        <ele>1824</ele>
        <time>2022-03-06T10:19:57Z</time>
      </trkpt>
      <trkpt lat="45.34675" lon="5.85063">
        <ele>1824</ele>
        <time>2022-03-06T10:19:59Z</time>
      </trkpt>
      <trkpt lat="45.34675" lon="5.85063">
        <ele>1824</ele>
        <time>2022-03-06T10:20:02Z</time>
      </trkpt>
      <trkpt lat="45.34677" lon="5.85064">
        <ele>1825</ele>
        <time>2022-03-06T10:20:03Z</time>
      </trkpt>
      <trkpt lat="45.34679" lon="5.85065">
        <ele>1825</ele>
        <time>2022-03-06T10:20:07Z</time>
      </trkpt>
      <trkpt lat="45.34679" lon="5.85065">
        <ele>1825</ele>
        <time>2022-03-06T10:20:08Z</time>
      </trkpt>
      <trkpt lat="45.34681" lon="5.85065">
        <ele>1825</ele>
        <time>2022-03-06T10:20:11Z</time>
      </trkpt>
      <trkpt lat="45.34683" lon="5.85065">
        <ele>1823</ele>
        <time>2022-03-06T10:20:13Z</time>
      </trkpt>
      <trkpt lat="45.34685" lon="5.85066">
        <ele>1822</ele>
        <time>2022-03-06T10:20:17Z</time>
      </trkpt>
      <trkpt lat="45.34685" lon="5.85066">
        <ele>1822</ele>
        <time>2022-03-06T10:20:18Z</time>
      </trkpt>
      <trkpt lat="45.34688" lon="5.85065">
        <ele>1822</ele>
        <time>2022-03-06T10:20:22Z</time>
      </trkpt>
      <trkpt lat="45.34688" lon="5.85065">
        <ele>1822</ele>
        <time>2022-03-06T10:20:23Z</time>
      </trkpt>
      <trkpt lat="45.34688" lon="5.85065">
        <ele>1823</ele>
        <time>2022-03-06T10:20:27Z</time>
      </trkpt>
      <trkpt lat="45.34689" lon="5.85066">
        <ele>1824</ele>
        <time>2022-03-06T10:20:28Z</time>
      </trkpt>
      <trkpt lat="45.34691" lon="5.85065">
        <ele>1824</ele>
        <time>2022-03-06T10:20:32Z</time>
      </trkpt>
      <trkpt lat="45.34691" lon="5.85065">
        <ele>1825</ele>
        <time>2022-03-06T10:20:33Z</time>
      </trkpt>
      <trkpt lat="45.34691" lon="5.85065">
        <ele>1825</ele>
        <time>2022-03-06T10:20:37Z</time>
      </trkpt>
      <trkpt lat="45.34694" lon="5.85065">
        <ele>1825</ele>
        <time>2022-03-06T10:20:38Z</time>
      </trkpt>
      <trkpt lat="45.34694" lon="5.85065">
        <ele>1825</ele>
        <time>2022-03-06T10:20:42Z</time>
      </trkpt>
      <trkpt lat="45.34696" lon="5.85066">
        <ele>1826</ele>
        <time>2022-03-06T10:20:43Z</time>
      </trkpt>
      <trkpt lat="45.34696" lon="5.85066">
        <ele>1826</ele>
        <time>2022-03-06T10:20:47Z</time>
      </trkpt>
      <trkpt lat="45.34697" lon="5.85069">
        <ele>1826</ele>
        <time>2022-03-06T10:20:48Z</time>
      </trkpt>
      <trkpt lat="45.34699" lon="5.8507">
        <ele>1826</ele>
        <time>2022-03-06T10:20:50Z</time>
      </trkpt>
      <trkpt lat="45.34701" lon="5.85072">
        <ele>1825</ele>
        <time>2022-03-06T10:20:53Z</time>
      </trkpt>
      <trkpt lat="45.34701" lon="5.85072">
        <ele>1825</ele>
        <time>2022-03-06T10:20:54Z</time>
      </trkpt>
      <trkpt lat="45.34703" lon="5.85072">
        <ele>1825</ele>
        <time>2022-03-06T10:20:56Z</time>
      </trkpt>
      <trkpt lat="45.34706" lon="5.85071">
        <ele>1825</ele>
        <time>2022-03-06T10:20:59Z</time>
      </trkpt>
      <trkpt lat="45.34706" lon="5.85071">
        <ele>1825</ele>
        <time>2022-03-06T10:21:00Z</time>
      </trkpt>
      <trkpt lat="45.34708" lon="5.8507">
        <ele>1825</ele>
        <time>2022-03-06T10:21:02Z</time>
      </trkpt>
      <trkpt lat="45.34708" lon="5.8507">
        <ele>1825</ele>
        <time>2022-03-06T10:21:05Z</time>
      </trkpt>
      <trkpt lat="45.3471" lon="5.85071">
        <ele>1825</ele>
        <time>2022-03-06T10:21:06Z</time>
      </trkpt>
      <trkpt lat="45.34712" lon="5.85071">
        <ele>1824</ele>
        <time>2022-03-06T10:21:08Z</time>
      </trkpt>
      <trkpt lat="45.34714" lon="5.85071">
        <ele>1823</ele>
        <time>2022-03-06T10:21:11Z</time>
      </trkpt>
      <trkpt lat="45.34714" lon="5.85071">
        <ele>1823</ele>
        <time>2022-03-06T10:21:12Z</time>
      </trkpt>
      <trkpt lat="45.34716" lon="5.85072">
        <ele>1824</ele>
        <time>2022-03-06T10:21:14Z</time>
      </trkpt>
      <trkpt lat="45.34716" lon="5.85072">
        <ele>1825</ele>
        <time>2022-03-06T10:21:17Z</time>
      </trkpt>
      <trkpt lat="45.34718" lon="5.85073">
        <ele>1825</ele>
        <time>2022-03-06T10:21:18Z</time>
      </trkpt>
      <trkpt lat="45.3472" lon="5.85073">
        <ele>1825</ele>
        <time>2022-03-06T10:21:22Z</time>
      </trkpt>
      <trkpt lat="45.3472" lon="5.85073">
        <ele>1825</ele>
        <time>2022-03-06T10:21:23Z</time>
      </trkpt>
      <trkpt lat="45.34723" lon="5.85074">
        <ele>1823</ele>
        <time>2022-03-06T10:21:26Z</time>
      </trkpt>
      <trkpt lat="45.34724" lon="5.85075">
        <ele>1823</ele>
        <time>2022-03-06T10:21:28Z</time>
      </trkpt>
      <trkpt lat="45.34726" lon="5.85077">
        <ele>1822</ele>
        <time>2022-03-06T10:21:30Z</time>
      </trkpt>
      <trkpt lat="45.34726" lon="5.85077">
        <ele>1822</ele>
        <time>2022-03-06T10:21:32Z</time>
      </trkpt>
      <trkpt lat="45.34728" lon="5.85078">
        <ele>1822</ele>
        <time>2022-03-06T10:21:33Z</time>
      </trkpt>
      <trkpt lat="45.3473" lon="5.8508">
        <ele>1822</ele>
        <time>2022-03-06T10:21:36Z</time>
      </trkpt>
      <trkpt lat="45.3473" lon="5.8508">
        <ele>1821</ele>
        <time>2022-03-06T10:21:38Z</time>
      </trkpt>
      <trkpt lat="45.34732" lon="5.85081">
        <ele>1821</ele>
        <time>2022-03-06T10:21:39Z</time>
      </trkpt>
      <trkpt lat="45.34734" lon="5.85082">
        <ele>1822</ele>
        <time>2022-03-06T10:21:43Z</time>
      </trkpt>
      <trkpt lat="45.34734" lon="5.85082">
        <ele>1822</ele>
        <time>2022-03-06T10:21:44Z</time>
      </trkpt>
      <trkpt lat="45.34737" lon="5.85084">
        <ele>1822</ele>
        <time>2022-03-06T10:21:46Z</time>
      </trkpt>
      <trkpt lat="45.34739" lon="5.85083">
        <ele>1822</ele>
        <time>2022-03-06T10:21:48Z</time>
      </trkpt>
      <trkpt lat="45.34741" lon="5.85083">
        <ele>1822</ele>
        <time>2022-03-06T10:21:50Z</time>
      </trkpt>
      <trkpt lat="45.34743" lon="5.85083">
        <ele>1822</ele>
        <time>2022-03-06T10:21:52Z</time>
      </trkpt>
      <trkpt lat="45.34745" lon="5.85083">
        <ele>1822</ele>
        <time>2022-03-06T10:21:54Z</time>
      </trkpt>
      <trkpt lat="45.34747" lon="5.85084">
        <ele>1821</ele>
        <time>2022-03-06T10:21:56Z</time>
      </trkpt>
      <trkpt lat="45.34747" lon="5.85084">
        <ele>1820</ele>
        <time>2022-03-06T10:21:58Z</time>
      </trkpt>
      <trkpt lat="45.34749" lon="5.85083">
        <ele>1820</ele>
        <time>2022-03-06T10:21:59Z</time>
      </trkpt>
      <trkpt lat="45.34751" lon="5.85082">
        <ele>1820</ele>
        <time>2022-03-06T10:22:01Z</time>
      </trkpt>
      <trkpt lat="45.34753" lon="5.85083">
        <ele>1821</ele>
        <time>2022-03-06T10:22:04Z</time>
      </trkpt>
      <trkpt lat="45.34753" lon="5.85083">
        <ele>1821</ele>
        <time>2022-03-06T10:22:05Z</time>
      </trkpt>
      <trkpt lat="45.34756" lon="5.85082">
        <ele>1822</ele>
        <time>2022-03-06T10:22:08Z</time>
      </trkpt>
      <trkpt lat="45.34756" lon="5.85082">
        <ele>1822</ele>
        <time>2022-03-06T10:22:10Z</time>
      </trkpt>
      <trkpt lat="45.34756" lon="5.85082">
        <ele>1823</ele>
        <time>2022-03-06T10:22:14Z</time>
      </trkpt>
      <trkpt lat="45.34757" lon="5.85084">
        <ele>1823</ele>
        <time>2022-03-06T10:22:16Z</time>
      </trkpt>
      <trkpt lat="45.34759" lon="5.85085">
        <ele>1824</ele>
        <time>2022-03-06T10:22:19Z</time>
      </trkpt>
      <trkpt lat="45.34759" lon="5.85085">
        <ele>1824</ele>
        <time>2022-03-06T10:22:20Z</time>
      </trkpt>
      <trkpt lat="45.34761" lon="5.85084">
        <ele>1824</ele>
        <time>2022-03-06T10:22:22Z</time>
      </trkpt>
      <trkpt lat="45.34762" lon="5.85082">
        <ele>1825</ele>
        <time>2022-03-06T10:22:25Z</time>
      </trkpt>
      <trkpt lat="45.34762" lon="5.85082">
        <ele>1825</ele>
        <time>2022-03-06T10:22:26Z</time>
      </trkpt>
      <trkpt lat="45.34764" lon="5.85081">
        <ele>1826</ele>
        <time>2022-03-06T10:22:27Z</time>
      </trkpt>
      <trkpt lat="45.34766" lon="5.8508">
        <ele>1826</ele>
        <time>2022-03-06T10:22:29Z</time>
      </trkpt>
      <trkpt lat="45.34768" lon="5.85079">
        <ele>1826</ele>
        <time>2022-03-06T10:22:31Z</time>
      </trkpt>
      <trkpt lat="45.34768" lon="5.85079">
        <ele>1826</ele>
        <time>2022-03-06T10:22:33Z</time>
      </trkpt>
      <trkpt lat="45.34771" lon="5.85079">
        <ele>1826</ele>
        <time>2022-03-06T10:22:34Z</time>
      </trkpt>
      <trkpt lat="45.34773" lon="5.85079">
        <ele>1826</ele>
        <time>2022-03-06T10:22:37Z</time>
      </trkpt>
      <trkpt lat="45.34773" lon="5.85079">
        <ele>1826</ele>
        <time>2022-03-06T10:22:39Z</time>
      </trkpt>
      <trkpt lat="45.34775" lon="5.85079">
        <ele>1826</ele>
        <time>2022-03-06T10:22:40Z</time>
      </trkpt>
      <trkpt lat="45.34775" lon="5.85079">
        <ele>1826</ele>
        <time>2022-03-06T10:22:44Z</time>
      </trkpt>
      <trkpt lat="45.34776" lon="5.85077">
        <ele>1826</ele>
        <time>2022-03-06T10:22:47Z</time>
      </trkpt>
      <trkpt lat="45.34776" lon="5.85077">
        <ele>1826</ele>
        <time>2022-03-06T10:22:49Z</time>
      </trkpt>
      <trkpt lat="45.34777" lon="5.85074">
        <ele>1826</ele>
        <time>2022-03-06T10:22:51Z</time>
      </trkpt>
      <trkpt lat="45.34777" lon="5.85074">
        <ele>1826</ele>
        <time>2022-03-06T10:22:54Z</time>
      </trkpt>
      <trkpt lat="45.34777" lon="5.85071">
        <ele>1826</ele>
        <time>2022-03-06T10:22:57Z</time>
      </trkpt>
      <trkpt lat="45.34777" lon="5.85071">
        <ele>1827</ele>
        <time>2022-03-06T10:22:59Z</time>
      </trkpt>
      <trkpt lat="45.34777" lon="5.85071">
        <ele>1827</ele>
        <time>2022-03-06T10:23:03Z</time>
      </trkpt>
      <trkpt lat="45.34777" lon="5.85071">
        <ele>1827</ele>
        <time>2022-03-06T10:23:07Z</time>
      </trkpt>
      <trkpt lat="45.34777" lon="5.85071">
        <ele>1828</ele>
        <time>2022-03-06T10:23:11Z</time>
      </trkpt>
      <trkpt lat="45.34779" lon="5.8507">
        <ele>1827</ele>
        <time>2022-03-06T10:23:15Z</time>
      </trkpt>
      <trkpt lat="45.34779" lon="5.8507">
        <ele>1827</ele>
        <time>2022-03-06T10:23:16Z</time>
      </trkpt>
      <trkpt lat="45.34779" lon="5.8507">
        <ele>1827</ele>
        <time>2022-03-06T10:23:20Z</time>
      </trkpt>
      <trkpt lat="45.34779" lon="5.8507">
        <ele>1827</ele>
        <time>2022-03-06T10:23:24Z</time>
      </trkpt>
      <trkpt lat="45.34779" lon="5.8507">
        <ele>1827</ele>
        <time>2022-03-06T10:23:28Z</time>
      </trkpt>
      <trkpt lat="45.34779" lon="5.8507">
        <ele>1827</ele>
        <time>2022-03-06T10:23:32Z</time>
      </trkpt>
      <trkpt lat="45.34779" lon="5.8507">
        <ele>1827</ele>
        <time>2022-03-06T10:23:36Z</time>
      </trkpt>
      <trkpt lat="45.34779" lon="5.8507">
        <ele>1826</ele>
        <time>2022-03-06T10:23:40Z</time>
      </trkpt>
      <trkpt lat="45.34779" lon="5.8507">
        <ele>1827</ele>
        <time>2022-03-06T10:23:44Z</time>
      </trkpt>
      <trkpt lat="45.34779" lon="5.8507">
        <ele>1827</ele>
        <time>2022-03-06T10:23:48Z</time>
      </trkpt>
      <trkpt lat="45.34779" lon="5.8507">
        <ele>1827</ele>
        <time>2022-03-06T10:23:52Z</time>
      </trkpt>
      <trkpt lat="45.34779" lon="5.8507">
        <ele>1826</ele>
        <time>2022-03-06T10:23:56Z</time>
      </trkpt>
      <trkpt lat="45.34779" lon="5.8507">
        <ele>1826</ele>
        <time>2022-03-06T10:24:00Z</time>
      </trkpt>
      <trkpt lat="45.34779" lon="5.8507">
        <ele>1826</ele>
        <time>2022-03-06T10:24:04Z</time>
      </trkpt>
      <trkpt lat="45.34779" lon="5.8507">
        <ele>1827</ele>
        <time>2022-03-06T10:24:08Z</time>
      </trkpt>
      <trkpt lat="45.34779" lon="5.8507">
        <ele>1827</ele>
        <time>2022-03-06T10:24:12Z</time>
      </trkpt>
      <trkpt lat="45.34779" lon="5.8507">
        <ele>1826</ele>
        <time>2022-03-06T10:24:16Z</time>
      </trkpt>
      <trkpt lat="45.34779" lon="5.8507">
        <ele>1827</ele>
        <time>2022-03-06T10:24:20Z</time>
      </trkpt>
      <trkpt lat="45.34779" lon="5.8507">
        <ele>1827</ele>
        <time>2022-03-06T10:24:24Z</time>
      </trkpt>
      <trkpt lat="45.34779" lon="5.8507">
        <ele>1826</ele>
        <time>2022-03-06T10:24:28Z</time>
      </trkpt>
      <trkpt lat="45.34779" lon="5.8507">
        <ele>1826</ele>
        <time>2022-03-06T10:24:32Z</time>
      </trkpt>
      <trkpt lat="45.34779" lon="5.8507">
        <ele>1826</ele>
        <time>2022-03-06T10:24:36Z</time>
      </trkpt>
      <trkpt lat="45.34779" lon="5.8507">
        <ele>1828</ele>
        <time>2022-03-06T10:24:40Z</time>
      </trkpt>
      <trkpt lat="45.34779" lon="5.8507">
        <ele>1826</ele>
        <time>2022-03-06T10:24:44Z</time>
      </trkpt>
      <trkpt lat="45.34779" lon="5.8507">
        <ele>1826</ele>
        <time>2022-03-06T10:24:48Z</time>
      </trkpt>
      <trkpt lat="45.34779" lon="5.8507">
        <ele>1826</ele>
        <time>2022-03-06T10:24:52Z</time>
      </trkpt>
      <trkpt lat="45.34779" lon="5.8507">
        <ele>1826</ele>
        <time>2022-03-06T10:24:56Z</time>
      </trkpt>
      <trkpt lat="45.34779" lon="5.8507">
        <ele>1826</ele>
        <time>2022-03-06T10:25:00Z</time>
      </trkpt>
      <trkpt lat="45.34779" lon="5.8507">
        <ele>1826</ele>
        <time>2022-03-06T10:25:04Z</time>
      </trkpt>
      <trkpt lat="45.34779" lon="5.8507">
        <ele>1826</ele>
        <time>2022-03-06T10:25:08Z</time>
      </trkpt>
      <trkpt lat="45.34779" lon="5.8507">
        <ele>1826</ele>
        <time>2022-03-06T10:25:12Z</time>
      </trkpt>
      <trkpt lat="45.34779" lon="5.8507">
        <ele>1826</ele>
        <time>2022-03-06T10:25:16Z</time>
      </trkpt>
      <trkpt lat="45.34779" lon="5.8507">
        <ele>1826</ele>
        <time>2022-03-06T10:25:20Z</time>
      </trkpt>
      <trkpt lat="45.34779" lon="5.8507">
        <ele>1826</ele>
        <time>2022-03-06T10:25:24Z</time>
      </trkpt>
      <trkpt lat="45.34779" lon="5.8507">
        <ele>1826</ele>
        <time>2022-03-06T10:25:28Z</time>
      </trkpt>
      <trkpt lat="45.34779" lon="5.8507">
        <ele>1826</ele>
        <time>2022-03-06T10:25:32Z</time>
      </trkpt>
      <trkpt lat="45.34779" lon="5.8507">
        <ele>1826</ele>
        <time>2022-03-06T10:25:36Z</time>
      </trkpt>
      <trkpt lat="45.34779" lon="5.8507">
        <ele>1826</ele>
        <time>2022-03-06T10:25:40Z</time>
      </trkpt>
      <trkpt lat="45.34779" lon="5.8507">
        <ele>1826</ele>
        <time>2022-03-06T10:25:44Z</time>
      </trkpt>
      <trkpt lat="45.34779" lon="5.8507">
        <ele>1826</ele>
        <time>2022-03-06T10:25:48Z</time>
      </trkpt>
      <trkpt lat="45.34779" lon="5.8507">
        <ele>1826</ele>
        <time>2022-03-06T10:25:52Z</time>
      </trkpt>
      <trkpt lat="45.34779" lon="5.8507">
        <ele>1826</ele>
        <time>2022-03-06T10:25:56Z</time>
      </trkpt>
      <trkpt lat="45.34779" lon="5.8507">
        <ele>1826</ele>
        <time>2022-03-06T10:26:00Z</time>
      </trkpt>
      <trkpt lat="45.34779" lon="5.8507">
        <ele>1826</ele>
        <time>2022-03-06T10:26:04Z</time>
      </trkpt>
      <trkpt lat="45.34779" lon="5.8507">
        <ele>1826</ele>
        <time>2022-03-06T10:26:08Z</time>
      </trkpt>
      <trkpt lat="45.34779" lon="5.8507">
        <ele>1826</ele>
        <time>2022-03-06T10:26:12Z</time>
      </trkpt>
      <trkpt lat="45.34779" lon="5.8507">
        <ele>1826</ele>
        <time>2022-03-06T10:26:16Z</time>
      </trkpt>
      <trkpt lat="45.34779" lon="5.8507">
        <ele>1826</ele>
        <time>2022-03-06T10:26:20Z</time>
      </trkpt>
      <trkpt lat="45.34779" lon="5.8507">
        <ele>1826</ele>
        <time>2022-03-06T10:26:24Z</time>
      </trkpt>
      <trkpt lat="45.34779" lon="5.8507">
        <ele>1826</ele>
        <time>2022-03-06T10:26:28Z</time>
      </trkpt>
      <trkpt lat="45.34779" lon="5.8507">
        <ele>1827</ele>
        <time>2022-03-06T10:26:32Z</time>
      </trkpt>
      <trkpt lat="45.34779" lon="5.8507">
        <ele>1826</ele>
        <time>2022-03-06T10:26:36Z</time>
      </trkpt>
      <trkpt lat="45.34779" lon="5.8507">
        <ele>1826</ele>
        <time>2022-03-06T10:26:40Z</time>
      </trkpt>
      <trkpt lat="45.34779" lon="5.8507">
        <ele>1826</ele>
        <time>2022-03-06T10:26:44Z</time>
      </trkpt>
      <trkpt lat="45.34779" lon="5.8507">
        <ele>1826</ele>
        <time>2022-03-06T10:26:48Z</time>
      </trkpt>
      <trkpt lat="45.34779" lon="5.8507">
        <ele>1827</ele>
        <time>2022-03-06T10:26:52Z</time>
      </trkpt>
      <trkpt lat="45.34779" lon="5.8507">
        <ele>1827</ele>
        <time>2022-03-06T10:26:56Z</time>
      </trkpt>
      <trkpt lat="45.34779" lon="5.8507">
        <ele>1826</ele>
        <time>2022-03-06T10:27:00Z</time>
      </trkpt>
      <trkpt lat="45.34779" lon="5.8507">
        <ele>1826</ele>
        <time>2022-03-06T10:27:04Z</time>
      </trkpt>
      <trkpt lat="45.34779" lon="5.8507">
        <ele>1826</ele>
        <time>2022-03-06T10:27:08Z</time>
      </trkpt>
      <trkpt lat="45.34779" lon="5.85072">
        <ele>1826</ele>
        <time>2022-03-06T10:27:12Z</time>
      </trkpt>
      <trkpt lat="45.34779" lon="5.85072">
        <ele>1826</ele>
        <time>2022-03-06T10:27:13Z</time>
      </trkpt>
      <trkpt lat="45.34779" lon="5.85072">
        <ele>1826</ele>
        <time>2022-03-06T10:27:17Z</time>
      </trkpt>
      <trkpt lat="45.34779" lon="5.85072">
        <ele>1826</ele>
        <time>2022-03-06T10:27:21Z</time>
      </trkpt>
      <trkpt lat="45.34779" lon="5.85072">
        <ele>1826</ele>
        <time>2022-03-06T10:27:25Z</time>
      </trkpt>
      <trkpt lat="45.34779" lon="5.85072">
        <ele>1826</ele>
        <time>2022-03-06T10:27:29Z</time>
      </trkpt>
      <trkpt lat="45.34779" lon="5.85072">
        <ele>1826</ele>
        <time>2022-03-06T10:27:33Z</time>
      </trkpt>
      <trkpt lat="45.34779" lon="5.85072">
        <ele>1826</ele>
        <time>2022-03-06T10:27:37Z</time>
      </trkpt>
      <trkpt lat="45.34779" lon="5.85072">
        <ele>1826</ele>
        <time>2022-03-06T10:27:41Z</time>
      </trkpt>
      <trkpt lat="45.34779" lon="5.85072">
        <ele>1826</ele>
        <time>2022-03-06T10:27:45Z</time>
      </trkpt>
      <trkpt lat="45.34779" lon="5.85072">
        <ele>1826</ele>
        <time>2022-03-06T10:27:49Z</time>
      </trkpt>
      <trkpt lat="45.34779" lon="5.85072">
        <ele>1826</ele>
        <time>2022-03-06T10:27:53Z</time>
      </trkpt>
      <trkpt lat="45.34782" lon="5.85074">
        <ele>1826</ele>
        <time>2022-03-06T10:27:55Z</time>
      </trkpt>
      <trkpt lat="45.34783" lon="5.85076">
        <ele>1826</ele>
        <time>2022-03-06T10:27:56Z</time>
      </trkpt>
      <trkpt lat="45.34786" lon="5.85078">
        <ele>1826</ele>
        <time>2022-03-06T10:27:58Z</time>
      </trkpt>
      <trkpt lat="45.34788" lon="5.85079">
        <ele>1826</ele>
        <time>2022-03-06T10:27:59Z</time>
      </trkpt>
      <trkpt lat="45.34791" lon="5.85081">
        <ele>1825</ele>
        <time>2022-03-06T10:28:00Z</time>
      </trkpt>
      <trkpt lat="45.34794" lon="5.85083">
        <ele>1825</ele>
        <time>2022-03-06T10:28:01Z</time>
      </trkpt>
      <trkpt lat="45.34798" lon="5.85085">
        <ele>1825</ele>
        <time>2022-03-06T10:28:02Z</time>
      </trkpt>
      <trkpt lat="45.34801" lon="5.85087">
        <ele>1825</ele>
        <time>2022-03-06T10:28:03Z</time>
      </trkpt>
      <trkpt lat="45.34805" lon="5.8509">
        <ele>1824</ele>
        <time>2022-03-06T10:28:04Z</time>
      </trkpt>
      <trkpt lat="45.34811" lon="5.85095">
        <ele>1824</ele>
        <time>2022-03-06T10:28:05Z</time>
      </trkpt>
      <trkpt lat="45.34812" lon="5.85096">
        <ele>1823</ele>
        <time>2022-03-06T10:28:06Z</time>
      </trkpt>
      <trkpt lat="45.34815" lon="5.85099">
        <ele>1822</ele>
        <time>2022-03-06T10:28:07Z</time>
      </trkpt>
      <trkpt lat="45.34817" lon="5.85102">
        <ele>1821</ele>
        <time>2022-03-06T10:28:08Z</time>
      </trkpt>
      <trkpt lat="45.34819" lon="5.85104">
        <ele>1821</ele>
        <time>2022-03-06T10:28:09Z</time>
      </trkpt>
      <trkpt lat="45.34822" lon="5.85106">
        <ele>1820</ele>
        <time>2022-03-06T10:28:10Z</time>
      </trkpt>
      <trkpt lat="45.34824" lon="5.85108">
        <ele>1820</ele>
        <time>2022-03-06T10:28:11Z</time>
      </trkpt>
      <trkpt lat="45.34826" lon="5.85109">
        <ele>1819</ele>
        <time>2022-03-06T10:28:12Z</time>
      </trkpt>
      <trkpt lat="45.34829" lon="5.85111">
        <ele>1819</ele>
        <time>2022-03-06T10:28:14Z</time>
      </trkpt>
      <trkpt lat="45.34832" lon="5.85114">
        <ele>1818</ele>
        <time>2022-03-06T10:28:16Z</time>
      </trkpt>
      <trkpt lat="45.34831" lon="5.85118">
        <ele>1817</ele>
        <time>2022-03-06T10:28:18Z</time>
      </trkpt>
      <trkpt lat="45.3483" lon="5.85121">
        <ele>1816</ele>
        <time>2022-03-06T10:28:19Z</time>
      </trkpt>
      <trkpt lat="45.34828" lon="5.85123">
        <ele>1815</ele>
        <time>2022-03-06T10:28:20Z</time>
      </trkpt>
      <trkpt lat="45.34827" lon="5.85125">
        <ele>1815</ele>
        <time>2022-03-06T10:28:21Z</time>
      </trkpt>
      <trkpt lat="45.34826" lon="5.85127">
        <ele>1814</ele>
        <time>2022-03-06T10:28:22Z</time>
      </trkpt>
      <trkpt lat="45.34827" lon="5.8513">
        <ele>1814</ele>
        <time>2022-03-06T10:28:23Z</time>
      </trkpt>
      <trkpt lat="45.34828" lon="5.85132">
        <ele>1814</ele>
        <time>2022-03-06T10:28:24Z</time>
      </trkpt>
      <trkpt lat="45.34827" lon="5.85135">
        <ele>1812</ele>
        <time>2022-03-06T10:28:25Z</time>
      </trkpt>
      <trkpt lat="45.34825" lon="5.85139">
        <ele>1811</ele>
        <time>2022-03-06T10:28:26Z</time>
      </trkpt>
      <trkpt lat="45.34824" lon="5.85143">
        <ele>1809</ele>
        <time>2022-03-06T10:28:27Z</time>
      </trkpt>
      <trkpt lat="45.34824" lon="5.85147">
        <ele>1808</ele>
        <time>2022-03-06T10:28:28Z</time>
      </trkpt>
      <trkpt lat="45.34823" lon="5.8515">
        <ele>1805</ele>
        <time>2022-03-06T10:28:29Z</time>
      </trkpt>
      <trkpt lat="45.34821" lon="5.85153">
        <ele>1803</ele>
        <time>2022-03-06T10:28:30Z</time>
      </trkpt>
      <trkpt lat="45.34821" lon="5.85158">
        <ele>1803</ele>
        <time>2022-03-06T10:28:32Z</time>
      </trkpt>
      <trkpt lat="45.34823" lon="5.85161">
        <ele>1801</ele>
        <time>2022-03-06T10:28:33Z</time>
      </trkpt>
      <trkpt lat="45.34824" lon="5.85163">
        <ele>1800</ele>
        <time>2022-03-06T10:28:34Z</time>
      </trkpt>
      <trkpt lat="45.34826" lon="5.85164">
        <ele>1799</ele>
        <time>2022-03-06T10:28:35Z</time>
      </trkpt>
      <trkpt lat="45.34829" lon="5.85167">
        <ele>1798</ele>
        <time>2022-03-06T10:28:36Z</time>
      </trkpt>
      <trkpt lat="45.3483" lon="5.85168">
        <ele>1797</ele>
        <time>2022-03-06T10:28:37Z</time>
      </trkpt>
      <trkpt lat="45.34832" lon="5.8517">
        <ele>1797</ele>
        <time>2022-03-06T10:28:38Z</time>
      </trkpt>
      <trkpt lat="45.34834" lon="5.85171">
        <ele>1796</ele>
        <time>2022-03-06T10:28:39Z</time>
      </trkpt>
      <trkpt lat="45.34836" lon="5.85173">
        <ele>1795</ele>
        <time>2022-03-06T10:28:40Z</time>
      </trkpt>
      <trkpt lat="45.34839" lon="5.85176">
        <ele>1795</ele>
        <time>2022-03-06T10:28:41Z</time>
      </trkpt>
      <trkpt lat="45.3484" lon="5.85178">
        <ele>1794</ele>
        <time>2022-03-06T10:28:42Z</time>
      </trkpt>
      <trkpt lat="45.34843" lon="5.85179">
        <ele>1792</ele>
        <time>2022-03-06T10:28:44Z</time>
      </trkpt>
      <trkpt lat="45.34845" lon="5.85181">
        <ele>1792</ele>
        <time>2022-03-06T10:28:45Z</time>
      </trkpt>
      <trkpt lat="45.34847" lon="5.85183">
        <ele>1792</ele>
        <time>2022-03-06T10:28:46Z</time>
      </trkpt>
      <trkpt lat="45.34847" lon="5.85183">
        <ele>1791</ele>
        <time>2022-03-06T10:28:50Z</time>
      </trkpt>
      <trkpt lat="45.34847" lon="5.85183">
        <ele>1791</ele>
        <time>2022-03-06T10:28:54Z</time>
      </trkpt>
      <trkpt lat="45.34846" lon="5.85186">
        <ele>1791</ele>
        <time>2022-03-06T10:28:57Z</time>
      </trkpt>
      <trkpt lat="45.34848" lon="5.85188">
        <ele>1790</ele>
        <time>2022-03-06T10:28:59Z</time>
      </trkpt>
      <trkpt lat="45.34851" lon="5.85189">
        <ele>1790</ele>
        <time>2022-03-06T10:29:00Z</time>
      </trkpt>
      <trkpt lat="45.34853" lon="5.85191">
        <ele>1790</ele>
        <time>2022-03-06T10:29:01Z</time>
      </trkpt>
      <trkpt lat="45.34856" lon="5.85193">
        <ele>1789</ele>
        <time>2022-03-06T10:29:02Z</time>
      </trkpt>
      <trkpt lat="45.34857" lon="5.85196">
        <ele>1788</ele>
        <time>2022-03-06T10:29:03Z</time>
      </trkpt>
      <trkpt lat="45.34855" lon="5.85198">
        <ele>1786</ele>
        <time>2022-03-06T10:29:04Z</time>
      </trkpt>
      <trkpt lat="45.34853" lon="5.852">
        <ele>1785</ele>
        <time>2022-03-06T10:29:05Z</time>
      </trkpt>
      <trkpt lat="45.34852" lon="5.85205">
        <ele>1784</ele>
        <time>2022-03-06T10:29:06Z</time>
      </trkpt>
      <trkpt lat="45.34853" lon="5.8521">
        <ele>1782</ele>
        <time>2022-03-06T10:29:07Z</time>
      </trkpt>
      <trkpt lat="45.34856" lon="5.85214">
        <ele>1780</ele>
        <time>2022-03-06T10:29:08Z</time>
      </trkpt>
      <trkpt lat="45.34859" lon="5.85217">
        <ele>1779</ele>
        <time>2022-03-06T10:29:09Z</time>
      </trkpt>
      <trkpt lat="45.34862" lon="5.8522">
        <ele>1777</ele>
        <time>2022-03-06T10:29:10Z</time>
      </trkpt>
      <trkpt lat="45.34863" lon="5.85223">
        <ele>1776</ele>
        <time>2022-03-06T10:29:11Z</time>
      </trkpt>
      <trkpt lat="45.34863" lon="5.85225">
        <ele>1774</ele>
        <time>2022-03-06T10:29:12Z</time>
      </trkpt>
      <trkpt lat="45.34861" lon="5.85228">
        <ele>1773</ele>
        <time>2022-03-06T10:29:13Z</time>
      </trkpt>
      <trkpt lat="45.34862" lon="5.85234">
        <ele>1772</ele>
        <time>2022-03-06T10:29:14Z</time>
      </trkpt>
      <trkpt lat="45.34859" lon="5.85241">
        <ele>1769</ele>
        <time>2022-03-06T10:29:15Z</time>
      </trkpt>
      <trkpt lat="45.34855" lon="5.85246">
        <ele>1767</ele>
        <time>2022-03-06T10:29:16Z</time>
      </trkpt>
      <trkpt lat="45.34854" lon="5.85253">
        <ele>1765</ele>
        <time>2022-03-06T10:29:17Z</time>
      </trkpt>
      <trkpt lat="45.34849" lon="5.85266">
        <ele>1759</ele>
        <time>2022-03-06T10:29:19Z</time>
      </trkpt>
      <trkpt lat="45.34851" lon="5.85272">
        <ele>1755</ele>
        <time>2022-03-06T10:29:21Z</time>
      </trkpt>
      <trkpt lat="45.34853" lon="5.85279">
        <ele>1753</ele>
        <time>2022-03-06T10:29:22Z</time>
      </trkpt>
      <trkpt lat="45.34856" lon="5.85282">
        <ele>1752</ele>
        <time>2022-03-06T10:29:23Z</time>
      </trkpt>
      <trkpt lat="45.34857" lon="5.85286">
        <ele>1751</ele>
        <time>2022-03-06T10:29:24Z</time>
      </trkpt>
      <trkpt lat="45.34858" lon="5.85286">
        <ele>1750</ele>
        <time>2022-03-06T10:29:25Z</time>
      </trkpt>
      <trkpt lat="45.34855" lon="5.85288">
        <ele>1747</ele>
        <time>2022-03-06T10:29:26Z</time>
      </trkpt>
      <trkpt lat="45.34853" lon="5.85288">
        <ele>1745</ele>
        <time>2022-03-06T10:29:27Z</time>
      </trkpt>
      <trkpt lat="45.34849" lon="5.8529">
        <ele>1744</ele>
        <time>2022-03-06T10:29:28Z</time>
      </trkpt>
      <trkpt lat="45.3485" lon="5.85292">
        <ele>1743</ele>
        <time>2022-03-06T10:29:29Z</time>
      </trkpt>
      <trkpt lat="45.34851" lon="5.85294">
        <ele>1742</ele>
        <time>2022-03-06T10:29:30Z</time>
      </trkpt>
      <trkpt lat="45.34851" lon="5.85296">
        <ele>1741</ele>
        <time>2022-03-06T10:29:31Z</time>
      </trkpt>
      <trkpt lat="45.34852" lon="5.85297">
        <ele>1739</ele>
        <time>2022-03-06T10:29:32Z</time>
      </trkpt>
      <trkpt lat="45.34855" lon="5.85306">
        <ele>1738</ele>
        <time>2022-03-06T10:29:33Z</time>
      </trkpt>
      <trkpt lat="45.34855" lon="5.85307">
        <ele>1737</ele>
        <time>2022-03-06T10:29:34Z</time>
      </trkpt>
      <trkpt lat="45.34855" lon="5.85308">
        <ele>1736</ele>
        <time>2022-03-06T10:29:35Z</time>
      </trkpt>
      <trkpt lat="45.34855" lon="5.85309">
        <ele>1736</ele>
        <time>2022-03-06T10:29:36Z</time>
      </trkpt>
      <trkpt lat="45.34855" lon="5.8531">
        <ele>1735</ele>
        <time>2022-03-06T10:29:37Z</time>
      </trkpt>
      <trkpt lat="45.34855" lon="5.85311">
        <ele>1734</ele>
        <time>2022-03-06T10:29:38Z</time>
      </trkpt>
      <trkpt lat="45.34858" lon="5.85312">
        <ele>1733</ele>
        <time>2022-03-06T10:29:40Z</time>
      </trkpt>
      <trkpt lat="45.34858" lon="5.85315">
        <ele>1732</ele>
        <time>2022-03-06T10:29:42Z</time>
      </trkpt>
      <trkpt lat="45.34859" lon="5.85319">
        <ele>1731</ele>
        <time>2022-03-06T10:29:44Z</time>
      </trkpt>
      <trkpt lat="45.34858" lon="5.85323">
        <ele>1727</ele>
        <time>2022-03-06T10:29:46Z</time>
      </trkpt>
      <trkpt lat="45.34855" lon="5.85325">
        <ele>1726</ele>
        <time>2022-03-06T10:29:47Z</time>
      </trkpt>
      <trkpt lat="45.34851" lon="5.85327">
        <ele>1725</ele>
        <time>2022-03-06T10:29:48Z</time>
      </trkpt>
      <trkpt lat="45.34849" lon="5.85331">
        <ele>1725</ele>
        <time>2022-03-06T10:29:49Z</time>
      </trkpt>
      <trkpt lat="45.34846" lon="5.85333">
        <ele>1720</ele>
        <time>2022-03-06T10:29:51Z</time>
      </trkpt>
      <trkpt lat="45.34844" lon="5.85336">
        <ele>1719</ele>
        <time>2022-03-06T10:29:52Z</time>
      </trkpt>
      <trkpt lat="45.34841" lon="5.85339">
        <ele>1718</ele>
        <time>2022-03-06T10:29:53Z</time>
      </trkpt>
      <trkpt lat="45.34842" lon="5.85343">
        <ele>1717</ele>
        <time>2022-03-06T10:29:54Z</time>
      </trkpt>
      <trkpt lat="45.34842" lon="5.85348">
        <ele>1714</ele>
        <time>2022-03-06T10:29:55Z</time>
      </trkpt>
      <trkpt lat="45.34843" lon="5.85352">
        <ele>1710</ele>
        <time>2022-03-06T10:29:56Z</time>
      </trkpt>
      <trkpt lat="45.34841" lon="5.85357">
        <ele>1709</ele>
        <time>2022-03-06T10:29:57Z</time>
      </trkpt>
      <trkpt lat="45.34839" lon="5.85361">
        <ele>1708</ele>
        <time>2022-03-06T10:29:58Z</time>
      </trkpt>
      <trkpt lat="45.34836" lon="5.85365">
        <ele>1706</ele>
        <time>2022-03-06T10:29:59Z</time>
      </trkpt>
      <trkpt lat="45.34838" lon="5.85372">
        <ele>1706</ele>
        <time>2022-03-06T10:30:00Z</time>
      </trkpt>
      <trkpt lat="45.3484" lon="5.85378">
        <ele>1700</ele>
        <time>2022-03-06T10:30:01Z</time>
      </trkpt>
      <trkpt lat="45.34837" lon="5.8538">
        <ele>1697</ele>
        <time>2022-03-06T10:30:02Z</time>
      </trkpt>
      <trkpt lat="45.34836" lon="5.85382">
        <ele>1697</ele>
        <time>2022-03-06T10:30:03Z</time>
      </trkpt>
      <trkpt lat="45.34839" lon="5.85384">
        <ele>1696</ele>
        <time>2022-03-06T10:30:04Z</time>
      </trkpt>
      <trkpt lat="45.34842" lon="5.85387">
        <ele>1695</ele>
        <time>2022-03-06T10:30:05Z</time>
      </trkpt>
      <trkpt lat="45.34845" lon="5.85389">
        <ele>1693</ele>
        <time>2022-03-06T10:30:06Z</time>
      </trkpt>
      <trkpt lat="45.34848" lon="5.85391">
        <ele>1692</ele>
        <time>2022-03-06T10:30:07Z</time>
      </trkpt>
      <trkpt lat="45.34851" lon="5.85392">
        <ele>1691</ele>
        <time>2022-03-06T10:30:08Z</time>
      </trkpt>
      <trkpt lat="45.34854" lon="5.85394">
        <ele>1690</ele>
        <time>2022-03-06T10:30:09Z</time>
      </trkpt>
      <trkpt lat="45.34856" lon="5.85396">
        <ele>1690</ele>
        <time>2022-03-06T10:30:10Z</time>
      </trkpt>
      <trkpt lat="45.34856" lon="5.85399">
        <ele>1689</ele>
        <time>2022-03-06T10:30:11Z</time>
      </trkpt>
      <trkpt lat="45.34857" lon="5.85401">
        <ele>1688</ele>
        <time>2022-03-06T10:30:12Z</time>
      </trkpt>
      <trkpt lat="45.34858" lon="5.85404">
        <ele>1687</ele>
        <time>2022-03-06T10:30:13Z</time>
      </trkpt>
      <trkpt lat="45.3486" lon="5.85406">
        <ele>1686</ele>
        <time>2022-03-06T10:30:14Z</time>
      </trkpt>
      <trkpt lat="45.34864" lon="5.85408">
        <ele>1686</ele>
        <time>2022-03-06T10:30:15Z</time>
      </trkpt>
      <trkpt lat="45.34864" lon="5.85411">
        <ele>1684</ele>
        <time>2022-03-06T10:30:16Z</time>
      </trkpt>
      <trkpt lat="45.34861" lon="5.85415">
        <ele>1682</ele>
        <time>2022-03-06T10:30:17Z</time>
      </trkpt>
      <trkpt lat="45.3486" lon="5.85416">
        <ele>1681</ele>
        <time>2022-03-06T10:30:18Z</time>
      </trkpt>
      <trkpt lat="45.34858" lon="5.85419">
        <ele>1680</ele>
        <time>2022-03-06T10:30:19Z</time>
      </trkpt>
      <trkpt lat="45.3486" lon="5.85422">
        <ele>1680</ele>
        <time>2022-03-06T10:30:20Z</time>
      </trkpt>
      <trkpt lat="45.34862" lon="5.85425">
        <ele>1679</ele>
        <time>2022-03-06T10:30:21Z</time>
      </trkpt>
      <trkpt lat="45.3486" lon="5.85428">
        <ele>1677</ele>
        <time>2022-03-06T10:30:22Z</time>
      </trkpt>
      <trkpt lat="45.34853" lon="5.8543">
        <ele>1677</ele>
        <time>2022-03-06T10:30:23Z</time>
      </trkpt>
      <trkpt lat="45.34851" lon="5.85431">
        <ele>1675</ele>
        <time>2022-03-06T10:30:24Z</time>
      </trkpt>
      <trkpt lat="45.34847" lon="5.85431">
        <ele>1673</ele>
        <time>2022-03-06T10:30:25Z</time>
      </trkpt>
      <trkpt lat="45.34842" lon="5.85432">
        <ele>1671</ele>
        <time>2022-03-06T10:30:26Z</time>
      </trkpt>
      <trkpt lat="45.34839" lon="5.85433">
        <ele>1670</ele>
        <time>2022-03-06T10:30:27Z</time>
      </trkpt>
      <trkpt lat="45.34839" lon="5.85436">
        <ele>1669</ele>
        <time>2022-03-06T10:30:28Z</time>
      </trkpt>
      <trkpt lat="45.34838" lon="5.85441">
        <ele>1667</ele>
        <time>2022-03-06T10:30:29Z</time>
      </trkpt>
      <trkpt lat="45.34836" lon="5.85444">
        <ele>1665</ele>
        <time>2022-03-06T10:30:30Z</time>
      </trkpt>
      <trkpt lat="45.34835" lon="5.8545">
        <ele>1663</ele>
        <time>2022-03-06T10:30:31Z</time>
      </trkpt>
      <trkpt lat="45.34839" lon="5.85455">
        <ele>1661</ele>
        <time>2022-03-06T10:30:32Z</time>
      </trkpt>
      <trkpt lat="45.34842" lon="5.8546">
        <ele>1659</ele>
        <time>2022-03-06T10:30:33Z</time>
      </trkpt>
      <trkpt lat="45.34845" lon="5.85463">
        <ele>1657</ele>
        <time>2022-03-06T10:30:34Z</time>
      </trkpt>
      <trkpt lat="45.34848" lon="5.85466">
        <ele>1656</ele>
        <time>2022-03-06T10:30:35Z</time>
      </trkpt>
      <trkpt lat="45.3485" lon="5.85468">
        <ele>1655</ele>
        <time>2022-03-06T10:30:36Z</time>
      </trkpt>
      <trkpt lat="45.34853" lon="5.8547">
        <ele>1655</ele>
        <time>2022-03-06T10:30:37Z</time>
      </trkpt>
      <trkpt lat="45.34856" lon="5.8547">
        <ele>1655</ele>
        <time>2022-03-06T10:30:38Z</time>
      </trkpt>
      <trkpt lat="45.34858" lon="5.85472">
        <ele>1654</ele>
        <time>2022-03-06T10:30:39Z</time>
      </trkpt>
      <trkpt lat="45.34861" lon="5.85473">
        <ele>1654</ele>
        <time>2022-03-06T10:30:40Z</time>
      </trkpt>
      <trkpt lat="45.34864" lon="5.85473">
        <ele>1653</ele>
        <time>2022-03-06T10:30:41Z</time>
      </trkpt>
      <trkpt lat="45.34867" lon="5.85474">
        <ele>1652</ele>
        <time>2022-03-06T10:30:42Z</time>
      </trkpt>
      <trkpt lat="45.3487" lon="5.85474">
        <ele>1652</ele>
        <time>2022-03-06T10:30:43Z</time>
      </trkpt>
      <trkpt lat="45.34873" lon="5.85474">
        <ele>1651</ele>
        <time>2022-03-06T10:30:44Z</time>
      </trkpt>
      <trkpt lat="45.34876" lon="5.85474">
        <ele>1651</ele>
        <time>2022-03-06T10:30:45Z</time>
      </trkpt>
      <trkpt lat="45.34878" lon="5.85474">
        <ele>1651</ele>
        <time>2022-03-06T10:30:46Z</time>
      </trkpt>
      <trkpt lat="45.3488" lon="5.85474">
        <ele>1651</ele>
        <time>2022-03-06T10:30:47Z</time>
      </trkpt>
      <trkpt lat="45.34882" lon="5.85473">
        <ele>1651</ele>
        <time>2022-03-06T10:30:48Z</time>
      </trkpt>
      <trkpt lat="45.34884" lon="5.85474">
        <ele>1650</ele>
        <time>2022-03-06T10:30:50Z</time>
      </trkpt>
      <trkpt lat="45.34886" lon="5.85474">
        <ele>1650</ele>
        <time>2022-03-06T10:30:51Z</time>
      </trkpt>
      <trkpt lat="45.34888" lon="5.85474">
        <ele>1649</ele>
        <time>2022-03-06T10:30:52Z</time>
      </trkpt>
      <trkpt lat="45.3489" lon="5.85475">
        <ele>1649</ele>
        <time>2022-03-06T10:30:53Z</time>
      </trkpt>
      <trkpt lat="45.34891" lon="5.85475">
        <ele>1649</ele>
        <time>2022-03-06T10:30:54Z</time>
      </trkpt>
      <trkpt lat="45.34893" lon="5.85475">
        <ele>1648</ele>
        <time>2022-03-06T10:30:55Z</time>
      </trkpt>
      <trkpt lat="45.34895" lon="5.85478">
        <ele>1648</ele>
        <time>2022-03-06T10:30:56Z</time>
      </trkpt>
      <trkpt lat="45.34897" lon="5.8548">
        <ele>1648</ele>
        <time>2022-03-06T10:30:57Z</time>
      </trkpt>
      <trkpt lat="45.34898" lon="5.85482">
        <ele>1646</ele>
        <time>2022-03-06T10:30:58Z</time>
      </trkpt>
      <trkpt lat="45.34898" lon="5.85486">
        <ele>1644</ele>
        <time>2022-03-06T10:30:59Z</time>
      </trkpt>
      <trkpt lat="45.34897" lon="5.85489">
        <ele>1642</ele>
        <time>2022-03-06T10:31:00Z</time>
      </trkpt>
      <trkpt lat="45.34896" lon="5.85493">
        <ele>1641</ele>
        <time>2022-03-06T10:31:01Z</time>
      </trkpt>
      <trkpt lat="45.34895" lon="5.85497">
        <ele>1640</ele>
        <time>2022-03-06T10:31:02Z</time>
      </trkpt>
      <trkpt lat="45.34894" lon="5.85499">
        <ele>1638</ele>
        <time>2022-03-06T10:31:03Z</time>
      </trkpt>
      <trkpt lat="45.34892" lon="5.855">
        <ele>1637</ele>
        <time>2022-03-06T10:31:04Z</time>
      </trkpt>
      <trkpt lat="45.3489" lon="5.85502">
        <ele>1636</ele>
        <time>2022-03-06T10:31:05Z</time>
      </trkpt>
      <trkpt lat="45.34888" lon="5.85504">
        <ele>1635</ele>
        <time>2022-03-06T10:31:06Z</time>
      </trkpt>
      <trkpt lat="45.34885" lon="5.85505">
        <ele>1634</ele>
        <time>2022-03-06T10:31:07Z</time>
      </trkpt>
      <trkpt lat="45.34883" lon="5.85507">
        <ele>1633</ele>
        <time>2022-03-06T10:31:09Z</time>
      </trkpt>
      <trkpt lat="45.34884" lon="5.8551">
        <ele>1632</ele>
        <time>2022-03-06T10:31:11Z</time>
      </trkpt>
      <trkpt lat="45.34885" lon="5.85515">
        <ele>1630</ele>
        <time>2022-03-06T10:31:13Z</time>
      </trkpt>
      <trkpt lat="45.34884" lon="5.85518">
        <ele>1629</ele>
        <time>2022-03-06T10:31:14Z</time>
      </trkpt>
      <trkpt lat="45.34881" lon="5.85521">
        <ele>1628</ele>
        <time>2022-03-06T10:31:15Z</time>
      </trkpt>
      <trkpt lat="45.34878" lon="5.85522">
        <ele>1627</ele>
        <time>2022-03-06T10:31:16Z</time>
      </trkpt>
      <trkpt lat="45.34875" lon="5.85524">
        <ele>1626</ele>
        <time>2022-03-06T10:31:17Z</time>
      </trkpt>
      <trkpt lat="45.34872" lon="5.85525">
        <ele>1626</ele>
        <time>2022-03-06T10:31:18Z</time>
      </trkpt>
      <trkpt lat="45.34871" lon="5.85526">
        <ele>1625</ele>
        <time>2022-03-06T10:31:19Z</time>
      </trkpt>
      <trkpt lat="45.3487" lon="5.85527">
        <ele>1624</ele>
        <time>2022-03-06T10:31:20Z</time>
      </trkpt>
      <trkpt lat="45.34869" lon="5.85527">
        <ele>1623</ele>
        <time>2022-03-06T10:31:21Z</time>
      </trkpt>
      <trkpt lat="45.34867" lon="5.85528">
        <ele>1623</ele>
        <time>2022-03-06T10:31:22Z</time>
      </trkpt>
      <trkpt lat="45.3486" lon="5.85533">
        <ele>1622</ele>
        <time>2022-03-06T10:31:23Z</time>
      </trkpt>
      <trkpt lat="45.34858" lon="5.85534">
        <ele>1622</ele>
        <time>2022-03-06T10:31:24Z</time>
      </trkpt>
      <trkpt lat="45.34856" lon="5.85536">
        <ele>1622</ele>
        <time>2022-03-06T10:31:25Z</time>
      </trkpt>
      <trkpt lat="45.34854" lon="5.85537">
        <ele>1621</ele>
        <time>2022-03-06T10:31:26Z</time>
      </trkpt>
      <trkpt lat="45.34853" lon="5.85539">
        <ele>1621</ele>
        <time>2022-03-06T10:31:27Z</time>
      </trkpt>
      <trkpt lat="45.34853" lon="5.85541">
        <ele>1619</ele>
        <time>2022-03-06T10:31:28Z</time>
      </trkpt>
      <trkpt lat="45.34852" lon="5.85542">
        <ele>1617</ele>
        <time>2022-03-06T10:31:29Z</time>
      </trkpt>
      <trkpt lat="45.34852" lon="5.85544">
        <ele>1615</ele>
        <time>2022-03-06T10:31:30Z</time>
      </trkpt>
      <trkpt lat="45.34847" lon="5.85551">
        <ele>1614</ele>
        <time>2022-03-06T10:31:31Z</time>
      </trkpt>
      <trkpt lat="45.34844" lon="5.85551">
        <ele>1613</ele>
        <time>2022-03-06T10:31:32Z</time>
      </trkpt>
      <trkpt lat="45.34841" lon="5.85551">
        <ele>1613</ele>
        <time>2022-03-06T10:31:33Z</time>
      </trkpt>
      <trkpt lat="45.34839" lon="5.85551">
        <ele>1612</ele>
        <time>2022-03-06T10:31:34Z</time>
      </trkpt>
      <trkpt lat="45.34839" lon="5.85553">
        <ele>1611</ele>
        <time>2022-03-06T10:31:35Z</time>
      </trkpt>
      <trkpt lat="45.34839" lon="5.85555">
        <ele>1611</ele>
        <time>2022-03-06T10:31:36Z</time>
      </trkpt>
      <trkpt lat="45.34839" lon="5.85557">
        <ele>1610</ele>
        <time>2022-03-06T10:31:37Z</time>
      </trkpt>
      <trkpt lat="45.3484" lon="5.85559">
        <ele>1609</ele>
        <time>2022-03-06T10:31:38Z</time>
      </trkpt>
      <trkpt lat="45.3484" lon="5.85561">
        <ele>1609</ele>
        <time>2022-03-06T10:31:39Z</time>
      </trkpt>
      <trkpt lat="45.3484" lon="5.85563">
        <ele>1608</ele>
        <time>2022-03-06T10:31:40Z</time>
      </trkpt>
      <trkpt lat="45.3484" lon="5.85565">
        <ele>1607</ele>
        <time>2022-03-06T10:31:41Z</time>
      </trkpt>
      <trkpt lat="45.34842" lon="5.85567">
        <ele>1607</ele>
        <time>2022-03-06T10:31:42Z</time>
      </trkpt>
      <trkpt lat="45.34843" lon="5.85569">
        <ele>1606</ele>
        <time>2022-03-06T10:31:43Z</time>
      </trkpt>
      <trkpt lat="45.34845" lon="5.85571">
        <ele>1605</ele>
        <time>2022-03-06T10:31:44Z</time>
      </trkpt>
      <trkpt lat="45.34846" lon="5.85573">
        <ele>1604</ele>
        <time>2022-03-06T10:31:45Z</time>
      </trkpt>
      <trkpt lat="45.34847" lon="5.85575">
        <ele>1603</ele>
        <time>2022-03-06T10:31:46Z</time>
      </trkpt>
      <trkpt lat="45.34845" lon="5.85578">
        <ele>1601</ele>
        <time>2022-03-06T10:31:47Z</time>
      </trkpt>
      <trkpt lat="45.34842" lon="5.85581">
        <ele>1600</ele>
        <time>2022-03-06T10:31:48Z</time>
      </trkpt>
      <trkpt lat="45.3484" lon="5.85585">
        <ele>1599</ele>
        <time>2022-03-06T10:31:49Z</time>
      </trkpt>
      <trkpt lat="45.3484" lon="5.85585">
        <ele>1596</ele>
        <time>2022-03-06T10:31:53Z</time>
      </trkpt>
      <trkpt lat="45.34833" lon="5.85594">
        <ele>1594</ele>
        <time>2022-03-06T10:31:56Z</time>
      </trkpt>
      <trkpt lat="45.3482" lon="5.85596">
        <ele>1593</ele>
        <time>2022-03-06T10:31:59Z</time>
      </trkpt>
      <trkpt lat="45.34818" lon="5.85593">
        <ele>1591</ele>
        <time>2022-03-06T10:32:01Z</time>
      </trkpt>
      <trkpt lat="45.34816" lon="5.8559">
        <ele>1591</ele>
        <time>2022-03-06T10:32:02Z</time>
      </trkpt>
      <trkpt lat="45.34813" lon="5.85588">
        <ele>1591</ele>
        <time>2022-03-06T10:32:03Z</time>
      </trkpt>
      <trkpt lat="45.34813" lon="5.85587">
        <ele>1591</ele>
        <time>2022-03-06T10:32:04Z</time>
      </trkpt>
      <trkpt lat="45.34813" lon="5.85586">
        <ele>1591</ele>
        <time>2022-03-06T10:32:05Z</time>
      </trkpt>
      <trkpt lat="45.34813" lon="5.85585">
        <ele>1591</ele>
        <time>2022-03-06T10:32:06Z</time>
      </trkpt>
      <trkpt lat="45.34813" lon="5.85584">
        <ele>1591</ele>
        <time>2022-03-06T10:32:07Z</time>
      </trkpt>
      <trkpt lat="45.34813" lon="5.85583">
        <ele>1591</ele>
        <time>2022-03-06T10:32:08Z</time>
      </trkpt>
      <trkpt lat="45.34813" lon="5.85582">
        <ele>1591</ele>
        <time>2022-03-06T10:32:09Z</time>
      </trkpt>
      <trkpt lat="45.34812" lon="5.85581">
        <ele>1590</ele>
        <time>2022-03-06T10:32:10Z</time>
      </trkpt>
      <trkpt lat="45.34811" lon="5.85581">
        <ele>1590</ele>
        <time>2022-03-06T10:32:11Z</time>
      </trkpt>
      <trkpt lat="45.3481" lon="5.85581">
        <ele>1589</ele>
        <time>2022-03-06T10:32:13Z</time>
      </trkpt>
      <trkpt lat="45.34809" lon="5.8558">
        <ele>1589</ele>
        <time>2022-03-06T10:32:14Z</time>
      </trkpt>
      <trkpt lat="45.34808" lon="5.8558">
        <ele>1589</ele>
        <time>2022-03-06T10:32:15Z</time>
      </trkpt>
      <trkpt lat="45.34801" lon="5.85579">
        <ele>1589</ele>
        <time>2022-03-06T10:32:16Z</time>
      </trkpt>
      <trkpt lat="45.348" lon="5.85579">
        <ele>1587</ele>
        <time>2022-03-06T10:32:17Z</time>
      </trkpt>
      <trkpt lat="45.34798" lon="5.85579">
        <ele>1586</ele>
        <time>2022-03-06T10:32:18Z</time>
      </trkpt>
      <trkpt lat="45.34797" lon="5.85579">
        <ele>1585</ele>
        <time>2022-03-06T10:32:19Z</time>
      </trkpt>
      <trkpt lat="45.34796" lon="5.85579">
        <ele>1585</ele>
        <time>2022-03-06T10:32:20Z</time>
      </trkpt>
      <trkpt lat="45.34795" lon="5.85579">
        <ele>1585</ele>
        <time>2022-03-06T10:32:21Z</time>
      </trkpt>
      <trkpt lat="45.34793" lon="5.85579">
        <ele>1585</ele>
        <time>2022-03-06T10:32:22Z</time>
      </trkpt>
      <trkpt lat="45.34792" lon="5.85579">
        <ele>1585</ele>
        <time>2022-03-06T10:32:23Z</time>
      </trkpt>
      <trkpt lat="45.34791" lon="5.8558">
        <ele>1584</ele>
        <time>2022-03-06T10:32:24Z</time>
      </trkpt>
      <trkpt lat="45.3479" lon="5.85581">
        <ele>1584</ele>
        <time>2022-03-06T10:32:26Z</time>
      </trkpt>
      <trkpt lat="45.34789" lon="5.85582">
        <ele>1584</ele>
        <time>2022-03-06T10:32:27Z</time>
      </trkpt>
      <trkpt lat="45.34788" lon="5.85583">
        <ele>1583</ele>
        <time>2022-03-06T10:32:28Z</time>
      </trkpt>
      <trkpt lat="45.34788" lon="5.85584">
        <ele>1582</ele>
        <time>2022-03-06T10:32:29Z</time>
      </trkpt>
      <trkpt lat="45.34787" lon="5.85585">
        <ele>1581</ele>
        <time>2022-03-06T10:32:30Z</time>
      </trkpt>
      <trkpt lat="45.34786" lon="5.85585">
        <ele>1581</ele>
        <time>2022-03-06T10:32:31Z</time>
      </trkpt>
      <trkpt lat="45.34785" lon="5.85586">
        <ele>1581</ele>
        <time>2022-03-06T10:32:32Z</time>
      </trkpt>
      <trkpt lat="45.34785" lon="5.85587">
        <ele>1579</ele>
        <time>2022-03-06T10:32:33Z</time>
      </trkpt>
      <trkpt lat="45.34784" lon="5.85588">
        <ele>1578</ele>
        <time>2022-03-06T10:32:34Z</time>
      </trkpt>
      <trkpt lat="45.34783" lon="5.85589">
        <ele>1577</ele>
        <time>2022-03-06T10:32:35Z</time>
      </trkpt>
      <trkpt lat="45.34782" lon="5.85592">
        <ele>1577</ele>
        <time>2022-03-06T10:32:36Z</time>
      </trkpt>
      <trkpt lat="45.3478" lon="5.85594">
        <ele>1576</ele>
        <time>2022-03-06T10:32:37Z</time>
      </trkpt>
      <trkpt lat="45.34779" lon="5.85597">
        <ele>1576</ele>
        <time>2022-03-06T10:32:38Z</time>
      </trkpt>
      <trkpt lat="45.34777" lon="5.856">
        <ele>1574</ele>
        <time>2022-03-06T10:32:39Z</time>
      </trkpt>
      <trkpt lat="45.34773" lon="5.85603">
        <ele>1573</ele>
        <time>2022-03-06T10:32:40Z</time>
      </trkpt>
      <trkpt lat="45.34769" lon="5.85606">
        <ele>1572</ele>
        <time>2022-03-06T10:32:41Z</time>
      </trkpt>
      <trkpt lat="45.34768" lon="5.85606">
        <ele>1571</ele>
        <time>2022-03-06T10:32:42Z</time>
      </trkpt>
      <trkpt lat="45.34767" lon="5.85607">
        <ele>1571</ele>
        <time>2022-03-06T10:32:43Z</time>
      </trkpt>
      <trkpt lat="45.34766" lon="5.85607">
        <ele>1571</ele>
        <time>2022-03-06T10:32:44Z</time>
      </trkpt>
      <trkpt lat="45.34765" lon="5.85608">
        <ele>1570</ele>
        <time>2022-03-06T10:32:45Z</time>
      </trkpt>
      <trkpt lat="45.34764" lon="5.85608">
        <ele>1568</ele>
        <time>2022-03-06T10:32:46Z</time>
      </trkpt>
      <trkpt lat="45.34762" lon="5.85609">
        <ele>1567</ele>
        <time>2022-03-06T10:32:47Z</time>
      </trkpt>
      <trkpt lat="45.34756" lon="5.85613">
        <ele>1566</ele>
        <time>2022-03-06T10:32:48Z</time>
      </trkpt>
      <trkpt lat="45.34757" lon="5.85614">
        <ele>1565</ele>
        <time>2022-03-06T10:32:49Z</time>
      </trkpt>
      <trkpt lat="45.34758" lon="5.85614">
        <ele>1563</ele>
        <time>2022-03-06T10:32:50Z</time>
      </trkpt>
      <trkpt lat="45.34759" lon="5.85615">
        <ele>1562</ele>
        <time>2022-03-06T10:32:51Z</time>
      </trkpt>
      <trkpt lat="45.3476" lon="5.85616">
        <ele>1561</ele>
        <time>2022-03-06T10:32:52Z</time>
      </trkpt>
      <trkpt lat="45.34765" lon="5.85623">
        <ele>1559</ele>
        <time>2022-03-06T10:32:53Z</time>
      </trkpt>
      <trkpt lat="45.34765" lon="5.85624">
        <ele>1558</ele>
        <time>2022-03-06T10:32:54Z</time>
      </trkpt>
      <trkpt lat="45.34765" lon="5.85626">
        <ele>1557</ele>
        <time>2022-03-06T10:32:55Z</time>
      </trkpt>
      <trkpt lat="45.34765" lon="5.85628">
        <ele>1556</ele>
        <time>2022-03-06T10:32:56Z</time>
      </trkpt>
      <trkpt lat="45.34764" lon="5.85638">
        <ele>1555</ele>
        <time>2022-03-06T10:32:57Z</time>
      </trkpt>
      <trkpt lat="45.34763" lon="5.85642">
        <ele>1555</ele>
        <time>2022-03-06T10:32:58Z</time>
      </trkpt>
      <trkpt lat="45.34763" lon="5.85645">
        <ele>1554</ele>
        <time>2022-03-06T10:32:59Z</time>
      </trkpt>
      <trkpt lat="45.34763" lon="5.85648">
        <ele>1552</ele>
        <time>2022-03-06T10:33:00Z</time>
      </trkpt>
      <trkpt lat="45.34763" lon="5.8565">
        <ele>1552</ele>
        <time>2022-03-06T10:33:01Z</time>
      </trkpt>
      <trkpt lat="45.34764" lon="5.85652">
        <ele>1551</ele>
        <time>2022-03-06T10:33:02Z</time>
      </trkpt>
      <trkpt lat="45.34764" lon="5.85654">
        <ele>1550</ele>
        <time>2022-03-06T10:33:03Z</time>
      </trkpt>
      <trkpt lat="45.34764" lon="5.85656">
        <ele>1549</ele>
        <time>2022-03-06T10:33:04Z</time>
      </trkpt>
      <trkpt lat="45.34766" lon="5.85665">
        <ele>1547</ele>
        <time>2022-03-06T10:33:05Z</time>
      </trkpt>
      <trkpt lat="45.34766" lon="5.85667">
        <ele>1546</ele>
        <time>2022-03-06T10:33:06Z</time>
      </trkpt>
      <trkpt lat="45.34766" lon="5.85669">
        <ele>1545</ele>
        <time>2022-03-06T10:33:07Z</time>
      </trkpt>
      <trkpt lat="45.34765" lon="5.85671">
        <ele>1544</ele>
        <time>2022-03-06T10:33:08Z</time>
      </trkpt>
      <trkpt lat="45.34765" lon="5.8568">
        <ele>1542</ele>
        <time>2022-03-06T10:33:09Z</time>
      </trkpt>
      <trkpt lat="45.34765" lon="5.85682">
        <ele>1541</ele>
        <time>2022-03-06T10:33:10Z</time>
      </trkpt>
      <trkpt lat="45.34765" lon="5.85683">
        <ele>1540</ele>
        <time>2022-03-06T10:33:11Z</time>
      </trkpt>
      <trkpt lat="45.34765" lon="5.85685">
        <ele>1539</ele>
        <time>2022-03-06T10:33:12Z</time>
      </trkpt>
      <trkpt lat="45.34765" lon="5.85686">
        <ele>1537</ele>
        <time>2022-03-06T10:33:13Z</time>
      </trkpt>
      <trkpt lat="45.34764" lon="5.85697">
        <ele>1536</ele>
        <time>2022-03-06T10:33:14Z</time>
      </trkpt>
      <trkpt lat="45.34764" lon="5.857">
        <ele>1535</ele>
        <time>2022-03-06T10:33:15Z</time>
      </trkpt>
      <trkpt lat="45.34764" lon="5.85703">
        <ele>1534</ele>
        <time>2022-03-06T10:33:16Z</time>
      </trkpt>
      <trkpt lat="45.34764" lon="5.85706">
        <ele>1533</ele>
        <time>2022-03-06T10:33:17Z</time>
      </trkpt>
      <trkpt lat="45.34764" lon="5.85709">
        <ele>1532</ele>
        <time>2022-03-06T10:33:18Z</time>
      </trkpt>
      <trkpt lat="45.34763" lon="5.85714">
        <ele>1532</ele>
        <time>2022-03-06T10:33:19Z</time>
      </trkpt>
      <trkpt lat="45.34762" lon="5.85718">
        <ele>1531</ele>
        <time>2022-03-06T10:33:20Z</time>
      </trkpt>
      <trkpt lat="45.34762" lon="5.85723">
        <ele>1531</ele>
        <time>2022-03-06T10:33:21Z</time>
      </trkpt>
      <trkpt lat="45.34756" lon="5.85734">
        <ele>1529</ele>
        <time>2022-03-06T10:33:22Z</time>
      </trkpt>
      <trkpt lat="45.34746" lon="5.8574">
        <ele>1527</ele>
        <time>2022-03-06T10:33:24Z</time>
      </trkpt>
      <trkpt lat="45.34748" lon="5.85742">
        <ele>1525</ele>
        <time>2022-03-06T10:33:26Z</time>
      </trkpt>
      <trkpt lat="45.34749" lon="5.85744">
        <ele>1524</ele>
        <time>2022-03-06T10:33:27Z</time>
      </trkpt>
      <trkpt lat="45.3475" lon="5.85746">
        <ele>1524</ele>
        <time>2022-03-06T10:33:28Z</time>
      </trkpt>
      <trkpt lat="45.34752" lon="5.85748">
        <ele>1523</ele>
        <time>2022-03-06T10:33:29Z</time>
      </trkpt>
      <trkpt lat="45.34753" lon="5.8575">
        <ele>1522</ele>
        <time>2022-03-06T10:33:30Z</time>
      </trkpt>
      <trkpt lat="45.34754" lon="5.85751">
        <ele>1521</ele>
        <time>2022-03-06T10:33:31Z</time>
      </trkpt>
      <trkpt lat="45.34755" lon="5.85752">
        <ele>1520</ele>
        <time>2022-03-06T10:33:32Z</time>
      </trkpt>
      <trkpt lat="45.34756" lon="5.85754">
        <ele>1520</ele>
        <time>2022-03-06T10:33:33Z</time>
      </trkpt>
      <trkpt lat="45.34757" lon="5.85755">
        <ele>1519</ele>
        <time>2022-03-06T10:33:34Z</time>
      </trkpt>
      <trkpt lat="45.34758" lon="5.85765">
        <ele>1519</ele>
        <time>2022-03-06T10:33:35Z</time>
      </trkpt>
      <trkpt lat="45.34754" lon="5.8577">
        <ele>1518</ele>
        <time>2022-03-06T10:33:36Z</time>
      </trkpt>
      <trkpt lat="45.34752" lon="5.85772">
        <ele>1516</ele>
        <time>2022-03-06T10:33:37Z</time>
      </trkpt>
      <trkpt lat="45.34749" lon="5.85773">
        <ele>1515</ele>
        <time>2022-03-06T10:33:38Z</time>
      </trkpt>
      <trkpt lat="45.34743" lon="5.85778">
        <ele>1514</ele>
        <time>2022-03-06T10:33:39Z</time>
      </trkpt>
      <trkpt lat="45.34743" lon="5.85779">
        <ele>1514</ele>
        <time>2022-03-06T10:33:40Z</time>
      </trkpt>
      <trkpt lat="45.34742" lon="5.8578">
        <ele>1513</ele>
        <time>2022-03-06T10:33:41Z</time>
      </trkpt>
      <trkpt lat="45.34742" lon="5.85781">
        <ele>1512</ele>
        <time>2022-03-06T10:33:42Z</time>
      </trkpt>
      <trkpt lat="45.34741" lon="5.85782">
        <ele>1511</ele>
        <time>2022-03-06T10:33:43Z</time>
      </trkpt>
      <trkpt lat="45.34741" lon="5.85783">
        <ele>1510</ele>
        <time>2022-03-06T10:33:44Z</time>
      </trkpt>
      <trkpt lat="45.34741" lon="5.85784">
        <ele>1508</ele>
        <time>2022-03-06T10:33:45Z</time>
      </trkpt>
      <trkpt lat="45.34738" lon="5.85795">
        <ele>1507</ele>
        <time>2022-03-06T10:33:46Z</time>
      </trkpt>
      <trkpt lat="45.34738" lon="5.85798">
        <ele>1506</ele>
        <time>2022-03-06T10:33:47Z</time>
      </trkpt>
      <trkpt lat="45.34738" lon="5.85801">
        <ele>1505</ele>
        <time>2022-03-06T10:33:48Z</time>
      </trkpt>
      <trkpt lat="45.34737" lon="5.85804">
        <ele>1504</ele>
        <time>2022-03-06T10:33:49Z</time>
      </trkpt>
      <trkpt lat="45.34737" lon="5.85806">
        <ele>1503</ele>
        <time>2022-03-06T10:33:50Z</time>
      </trkpt>
      <trkpt lat="45.34737" lon="5.85809">
        <ele>1501</ele>
        <time>2022-03-06T10:33:51Z</time>
      </trkpt>
      <trkpt lat="45.34738" lon="5.8581">
        <ele>1501</ele>
        <time>2022-03-06T10:33:52Z</time>
      </trkpt>
      <trkpt lat="45.34739" lon="5.8581">
        <ele>1500</ele>
        <time>2022-03-06T10:33:53Z</time>
      </trkpt>
      <trkpt lat="45.34739" lon="5.85811">
        <ele>1499</ele>
        <time>2022-03-06T10:33:54Z</time>
      </trkpt>
      <trkpt lat="45.3474" lon="5.85812">
        <ele>1499</ele>
        <time>2022-03-06T10:33:55Z</time>
      </trkpt>
      <trkpt lat="45.34741" lon="5.85812">
        <ele>1499</ele>
        <time>2022-03-06T10:33:56Z</time>
      </trkpt>
      <trkpt lat="45.34742" lon="5.85813">
        <ele>1499</ele>
        <time>2022-03-06T10:33:57Z</time>
      </trkpt>
      <trkpt lat="45.34743" lon="5.85814">
        <ele>1499</ele>
        <time>2022-03-06T10:33:59Z</time>
      </trkpt>
      <trkpt lat="45.34744" lon="5.85814">
        <ele>1498</ele>
        <time>2022-03-06T10:34:00Z</time>
      </trkpt>
      <trkpt lat="45.34745" lon="5.85815">
        <ele>1498</ele>
        <time>2022-03-06T10:34:01Z</time>
      </trkpt>
      <trkpt lat="45.34745" lon="5.85816">
        <ele>1498</ele>
        <time>2022-03-06T10:34:02Z</time>
      </trkpt>
      <trkpt lat="45.34746" lon="5.85816">
        <ele>1498</ele>
        <time>2022-03-06T10:34:03Z</time>
      </trkpt>
      <trkpt lat="45.34742" lon="5.85818">
        <ele>1498</ele>
        <time>2022-03-06T10:34:04Z</time>
      </trkpt>
      <trkpt lat="45.34739" lon="5.85819">
        <ele>1498</ele>
        <time>2022-03-06T10:34:05Z</time>
      </trkpt>
      <trkpt lat="45.34735" lon="5.85821">
        <ele>1497</ele>
        <time>2022-03-06T10:34:06Z</time>
      </trkpt>
      <trkpt lat="45.34731" lon="5.85822">
        <ele>1496</ele>
        <time>2022-03-06T10:34:07Z</time>
      </trkpt>
      <trkpt lat="45.34728" lon="5.85824">
        <ele>1496</ele>
        <time>2022-03-06T10:34:08Z</time>
      </trkpt>
      <trkpt lat="45.34723" lon="5.85824">
        <ele>1496</ele>
        <time>2022-03-06T10:34:09Z</time>
      </trkpt>
      <trkpt lat="45.34711" lon="5.85823">
        <ele>1494</ele>
        <time>2022-03-06T10:34:12Z</time>
      </trkpt>
      <trkpt lat="45.34707" lon="5.85821">
        <ele>1492</ele>
        <time>2022-03-06T10:34:14Z</time>
      </trkpt>
      <trkpt lat="45.34704" lon="5.8582">
        <ele>1491</ele>
        <time>2022-03-06T10:34:15Z</time>
      </trkpt>
      <trkpt lat="45.34701" lon="5.85819">
        <ele>1490</ele>
        <time>2022-03-06T10:34:16Z</time>
      </trkpt>
      <trkpt lat="45.34697" lon="5.85819">
        <ele>1490</ele>
        <time>2022-03-06T10:34:17Z</time>
      </trkpt>
      <trkpt lat="45.34694" lon="5.85819">
        <ele>1489</ele>
        <time>2022-03-06T10:34:18Z</time>
      </trkpt>
      <trkpt lat="45.34691" lon="5.8582">
        <ele>1488</ele>
        <time>2022-03-06T10:34:19Z</time>
      </trkpt>
      <trkpt lat="45.34687" lon="5.85819">
        <ele>1487</ele>
        <time>2022-03-06T10:34:20Z</time>
      </trkpt>
      <trkpt lat="45.34683" lon="5.85818">
        <ele>1486</ele>
        <time>2022-03-06T10:34:21Z</time>
      </trkpt>
      <trkpt lat="45.3468" lon="5.85817">
        <ele>1485</ele>
        <time>2022-03-06T10:34:22Z</time>
      </trkpt>
      <trkpt lat="45.34677" lon="5.85817">
        <ele>1485</ele>
        <time>2022-03-06T10:34:23Z</time>
      </trkpt>
      <trkpt lat="45.34673" lon="5.85817">
        <ele>1485</ele>
        <time>2022-03-06T10:34:24Z</time>
      </trkpt>
      <trkpt lat="45.3467" lon="5.85818">
        <ele>1484</ele>
        <time>2022-03-06T10:34:25Z</time>
      </trkpt>
      <trkpt lat="45.34667" lon="5.85819">
        <ele>1483</ele>
        <time>2022-03-06T10:34:26Z</time>
      </trkpt>
      <trkpt lat="45.34664" lon="5.8582">
        <ele>1483</ele>
        <time>2022-03-06T10:34:27Z</time>
      </trkpt>
      <trkpt lat="45.34653" lon="5.85824">
        <ele>1482</ele>
        <time>2022-03-06T10:34:28Z</time>
      </trkpt>
      <trkpt lat="45.34649" lon="5.85826">
        <ele>1481</ele>
        <time>2022-03-06T10:34:29Z</time>
      </trkpt>
      <trkpt lat="45.34647" lon="5.85827">
        <ele>1480</ele>
        <time>2022-03-06T10:34:30Z</time>
      </trkpt>
      <trkpt lat="45.34646" lon="5.85827">
        <ele>1479</ele>
        <time>2022-03-06T10:34:31Z</time>
      </trkpt>
      <trkpt lat="45.34645" lon="5.85827">
        <ele>1479</ele>
        <time>2022-03-06T10:34:32Z</time>
      </trkpt>
      <trkpt lat="45.34644" lon="5.85828">
        <ele>1478</ele>
        <time>2022-03-06T10:34:33Z</time>
      </trkpt>
      <trkpt lat="45.34637" lon="5.85829">
        <ele>1477</ele>
        <time>2022-03-06T10:34:34Z</time>
      </trkpt>
      <trkpt lat="45.34635" lon="5.85829">
        <ele>1476</ele>
        <time>2022-03-06T10:34:35Z</time>
      </trkpt>
      <trkpt lat="45.34633" lon="5.85828">
        <ele>1476</ele>
        <time>2022-03-06T10:34:36Z</time>
      </trkpt>
      <trkpt lat="45.34632" lon="5.85828">
        <ele>1476</ele>
        <time>2022-03-06T10:34:37Z</time>
      </trkpt>
      <trkpt lat="45.3463" lon="5.85827">
        <ele>1476</ele>
        <time>2022-03-06T10:34:38Z</time>
      </trkpt>
      <trkpt lat="45.34628" lon="5.85827">
        <ele>1475</ele>
        <time>2022-03-06T10:34:39Z</time>
      </trkpt>
      <trkpt lat="45.34626" lon="5.85827">
        <ele>1475</ele>
        <time>2022-03-06T10:34:40Z</time>
      </trkpt>
      <trkpt lat="45.34624" lon="5.85827">
        <ele>1474</ele>
        <time>2022-03-06T10:34:41Z</time>
      </trkpt>
      <trkpt lat="45.34623" lon="5.85826">
        <ele>1473</ele>
        <time>2022-03-06T10:34:42Z</time>
      </trkpt>
      <trkpt lat="45.34615" lon="5.85824">
        <ele>1472</ele>
        <time>2022-03-06T10:34:43Z</time>
      </trkpt>
      <trkpt lat="45.34612" lon="5.85823">
        <ele>1472</ele>
        <time>2022-03-06T10:34:44Z</time>
      </trkpt>
      <trkpt lat="45.3461" lon="5.85821">
        <ele>1472</ele>
        <time>2022-03-06T10:34:45Z</time>
      </trkpt>
      <trkpt lat="45.34608" lon="5.8582">
        <ele>1472</ele>
        <time>2022-03-06T10:34:46Z</time>
      </trkpt>
      <trkpt lat="45.34604" lon="5.8582">
        <ele>1472</ele>
        <time>2022-03-06T10:34:47Z</time>
      </trkpt>
      <trkpt lat="45.34601" lon="5.85819">
        <ele>1472</ele>
        <time>2022-03-06T10:34:48Z</time>
      </trkpt>
      <trkpt lat="45.34598" lon="5.85819">
        <ele>1472</ele>
        <time>2022-03-06T10:34:49Z</time>
      </trkpt>
      <trkpt lat="45.34596" lon="5.85821">
        <ele>1471</ele>
        <time>2022-03-06T10:34:50Z</time>
      </trkpt>
      <trkpt lat="45.34594" lon="5.85823">
        <ele>1470</ele>
        <time>2022-03-06T10:34:51Z</time>
      </trkpt>
      <trkpt lat="45.34592" lon="5.85824">
        <ele>1469</ele>
        <time>2022-03-06T10:34:52Z</time>
      </trkpt>
      <trkpt lat="45.34591" lon="5.85826">
        <ele>1469</ele>
        <time>2022-03-06T10:34:53Z</time>
      </trkpt>
      <trkpt lat="45.34589" lon="5.85827">
        <ele>1467</ele>
        <time>2022-03-06T10:34:54Z</time>
      </trkpt>
      <trkpt lat="45.34587" lon="5.85828">
        <ele>1466</ele>
        <time>2022-03-06T10:34:55Z</time>
      </trkpt>
      <trkpt lat="45.34585" lon="5.85828">
        <ele>1465</ele>
        <time>2022-03-06T10:34:56Z</time>
      </trkpt>
      <trkpt lat="45.34583" lon="5.85828">
        <ele>1464</ele>
        <time>2022-03-06T10:34:57Z</time>
      </trkpt>
      <trkpt lat="45.34581" lon="5.85828">
        <ele>1463</ele>
        <time>2022-03-06T10:34:58Z</time>
      </trkpt>
      <trkpt lat="45.34579" lon="5.85829">
        <ele>1462</ele>
        <time>2022-03-06T10:34:59Z</time>
      </trkpt>
      <trkpt lat="45.34577" lon="5.8583">
        <ele>1460</ele>
        <time>2022-03-06T10:35:00Z</time>
      </trkpt>
      <trkpt lat="45.34575" lon="5.85832">
        <ele>1460</ele>
        <time>2022-03-06T10:35:01Z</time>
      </trkpt>
      <trkpt lat="45.34572" lon="5.85833">
        <ele>1458</ele>
        <time>2022-03-06T10:35:02Z</time>
      </trkpt>
      <trkpt lat="45.3457" lon="5.85834">
        <ele>1456</ele>
        <time>2022-03-06T10:35:03Z</time>
      </trkpt>
      <trkpt lat="45.34567" lon="5.85836">
        <ele>1455</ele>
        <time>2022-03-06T10:35:04Z</time>
      </trkpt>
      <trkpt lat="45.34564" lon="5.85838">
        <ele>1454</ele>
        <time>2022-03-06T10:35:05Z</time>
      </trkpt>
      <trkpt lat="45.34555" lon="5.85843">
        <ele>1453</ele>
        <time>2022-03-06T10:35:06Z</time>
      </trkpt>
      <trkpt lat="45.34552" lon="5.85844">
        <ele>1452</ele>
        <time>2022-03-06T10:35:07Z</time>
      </trkpt>
      <trkpt lat="45.34549" lon="5.85845">
        <ele>1451</ele>
        <time>2022-03-06T10:35:08Z</time>
      </trkpt>
      <trkpt lat="45.34546" lon="5.85847">
        <ele>1450</ele>
        <time>2022-03-06T10:35:09Z</time>
      </trkpt>
      <trkpt lat="45.34543" lon="5.85849">
        <ele>1450</ele>
        <time>2022-03-06T10:35:10Z</time>
      </trkpt>
      <trkpt lat="45.3454" lon="5.85851">
        <ele>1448</ele>
        <time>2022-03-06T10:35:11Z</time>
      </trkpt>
      <trkpt lat="45.34536" lon="5.85852">
        <ele>1447</ele>
        <time>2022-03-06T10:35:12Z</time>
      </trkpt>
      <trkpt lat="45.34531" lon="5.85852">
        <ele>1446</ele>
        <time>2022-03-06T10:35:13Z</time>
      </trkpt>
      <trkpt lat="45.34529" lon="5.85852">
        <ele>1445</ele>
        <time>2022-03-06T10:35:14Z</time>
      </trkpt>
      <trkpt lat="45.34527" lon="5.85852">
        <ele>1444</ele>
        <time>2022-03-06T10:35:15Z</time>
      </trkpt>
      <trkpt lat="45.34525" lon="5.85852">
        <ele>1443</ele>
        <time>2022-03-06T10:35:16Z</time>
      </trkpt>
      <trkpt lat="45.34523" lon="5.85852">
        <ele>1442</ele>
        <time>2022-03-06T10:35:17Z</time>
      </trkpt>
      <trkpt lat="45.34521" lon="5.85852">
        <ele>1441</ele>
        <time>2022-03-06T10:35:18Z</time>
      </trkpt>
      <trkpt lat="45.34518" lon="5.85853">
        <ele>1440</ele>
        <time>2022-03-06T10:35:19Z</time>
      </trkpt>
      <trkpt lat="45.34515" lon="5.85853">
        <ele>1439</ele>
        <time>2022-03-06T10:35:20Z</time>
      </trkpt>
      <trkpt lat="45.34512" lon="5.85854">
        <ele>1438</ele>
        <time>2022-03-06T10:35:21Z</time>
      </trkpt>
      <trkpt lat="45.34503" lon="5.85859">
        <ele>1437</ele>
        <time>2022-03-06T10:35:22Z</time>
      </trkpt>
      <trkpt lat="45.34495" lon="5.85865">
        <ele>1436</ele>
        <time>2022-03-06T10:35:24Z</time>
      </trkpt>
      <trkpt lat="45.34492" lon="5.85866">
        <ele>1434</ele>
        <time>2022-03-06T10:35:26Z</time>
      </trkpt>
      <trkpt lat="45.3449" lon="5.85867">
        <ele>1434</ele>
        <time>2022-03-06T10:35:27Z</time>
      </trkpt>
      <trkpt lat="45.34487" lon="5.85869">
        <ele>1433</ele>
        <time>2022-03-06T10:35:28Z</time>
      </trkpt>
      <trkpt lat="45.34484" lon="5.8587">
        <ele>1432</ele>
        <time>2022-03-06T10:35:29Z</time>
      </trkpt>
      <trkpt lat="45.34481" lon="5.85872">
        <ele>1431</ele>
        <time>2022-03-06T10:35:30Z</time>
      </trkpt>
      <trkpt lat="45.34478" lon="5.85873">
        <ele>1430</ele>
        <time>2022-03-06T10:35:31Z</time>
      </trkpt>
      <trkpt lat="45.34476" lon="5.85875">
        <ele>1429</ele>
        <time>2022-03-06T10:35:32Z</time>
      </trkpt>
      <trkpt lat="45.34474" lon="5.85876">
        <ele>1428</ele>
        <time>2022-03-06T10:35:33Z</time>
      </trkpt>
      <trkpt lat="45.34472" lon="5.85877">
        <ele>1427</ele>
        <time>2022-03-06T10:35:34Z</time>
      </trkpt>
      <trkpt lat="45.3447" lon="5.85878">
        <ele>1426</ele>
        <time>2022-03-06T10:35:35Z</time>
      </trkpt>
      <trkpt lat="45.34464" lon="5.85883">
        <ele>1425</ele>
        <time>2022-03-06T10:35:36Z</time>
      </trkpt>
      <trkpt lat="45.34464" lon="5.85884">
        <ele>1424</ele>
        <time>2022-03-06T10:35:38Z</time>
      </trkpt>
      <trkpt lat="45.34463" lon="5.85884">
        <ele>1424</ele>
        <time>2022-03-06T10:35:39Z</time>
      </trkpt>
      <trkpt lat="45.34463" lon="5.85885">
        <ele>1424</ele>
        <time>2022-03-06T10:35:40Z</time>
      </trkpt>
      <trkpt lat="45.34463" lon="5.85886">
        <ele>1423</ele>
        <time>2022-03-06T10:35:42Z</time>
      </trkpt>
      <trkpt lat="45.34463" lon="5.85887">
        <ele>1421</ele>
        <time>2022-03-06T10:35:44Z</time>
      </trkpt>
      <trkpt lat="45.34462" lon="5.85887">
        <ele>1420</ele>
        <time>2022-03-06T10:35:45Z</time>
      </trkpt>
      <trkpt lat="45.34462" lon="5.85888">
        <ele>1419</ele>
        <time>2022-03-06T10:35:46Z</time>
      </trkpt>
      <trkpt lat="45.34462" lon="5.85889">
        <ele>1419</ele>
        <time>2022-03-06T10:35:48Z</time>
      </trkpt>
      <trkpt lat="45.34458" lon="5.85896">
        <ele>1419</ele>
        <time>2022-03-06T10:35:49Z</time>
      </trkpt>
      <trkpt lat="45.34457" lon="5.85896">
        <ele>1419</ele>
        <time>2022-03-06T10:35:51Z</time>
      </trkpt>
      <trkpt lat="45.34456" lon="5.85896">
        <ele>1419</ele>
        <time>2022-03-06T10:35:52Z</time>
      </trkpt>
      <trkpt lat="45.34455" lon="5.85896">
        <ele>1419</ele>
        <time>2022-03-06T10:35:53Z</time>
      </trkpt>
      <trkpt lat="45.34454" lon="5.85896">
        <ele>1419</ele>
        <time>2022-03-06T10:35:54Z</time>
      </trkpt>
      <trkpt lat="45.34453" lon="5.85896">
        <ele>1419</ele>
        <time>2022-03-06T10:35:55Z</time>
      </trkpt>
      <trkpt lat="45.34452" lon="5.85896">
        <ele>1419</ele>
        <time>2022-03-06T10:35:57Z</time>
      </trkpt>
      <trkpt lat="45.34451" lon="5.85896">
        <ele>1419</ele>
        <time>2022-03-06T10:35:58Z</time>
      </trkpt>
      <trkpt lat="45.3445" lon="5.85896">
        <ele>1418</ele>
        <time>2022-03-06T10:35:59Z</time>
      </trkpt>
      <trkpt lat="45.34449" lon="5.85896">
        <ele>1416</ele>
        <time>2022-03-06T10:36:00Z</time>
      </trkpt>
      <trkpt lat="45.34449" lon="5.85897">
        <ele>1416</ele>
        <time>2022-03-06T10:36:02Z</time>
      </trkpt>
      <trkpt lat="45.34448" lon="5.85897">
        <ele>1415</ele>
        <time>2022-03-06T10:36:04Z</time>
      </trkpt>
      <trkpt lat="45.34448" lon="5.85898">
        <ele>1415</ele>
        <time>2022-03-06T10:36:05Z</time>
      </trkpt>
      <trkpt lat="45.34448" lon="5.85899">
        <ele>1413</ele>
        <time>2022-03-06T10:36:08Z</time>
      </trkpt>
      <trkpt lat="45.34447" lon="5.85899">
        <ele>1413</ele>
        <time>2022-03-06T10:36:09Z</time>
      </trkpt>
      <trkpt lat="45.34447" lon="5.859">
        <ele>1412</ele>
        <time>2022-03-06T10:36:10Z</time>
      </trkpt>
      <trkpt lat="45.34447" lon="5.85901">
        <ele>1410</ele>
        <time>2022-03-06T10:36:13Z</time>
      </trkpt>
      <trkpt lat="45.34446" lon="5.85901">
        <ele>1409</ele>
        <time>2022-03-06T10:36:14Z</time>
      </trkpt>
      <trkpt lat="45.34446" lon="5.85902">
        <ele>1408</ele>
        <time>2022-03-06T10:36:16Z</time>
      </trkpt>
      <trkpt lat="45.34443" lon="5.85909">
        <ele>1408</ele>
        <time>2022-03-06T10:36:17Z</time>
      </trkpt>
      <trkpt lat="45.34443" lon="5.8591">
        <ele>1408</ele>
        <time>2022-03-06T10:36:18Z</time>
      </trkpt>
      <trkpt lat="45.34444" lon="5.85911">
        <ele>1408</ele>
        <time>2022-03-06T10:36:19Z</time>
      </trkpt>
      <trkpt lat="45.34444" lon="5.85912">
        <ele>1408</ele>
        <time>2022-03-06T10:36:20Z</time>
      </trkpt>
      <trkpt lat="45.34444" lon="5.85913">
        <ele>1408</ele>
        <time>2022-03-06T10:36:21Z</time>
      </trkpt>
      <trkpt lat="45.34445" lon="5.85914">
        <ele>1408</ele>
        <time>2022-03-06T10:36:22Z</time>
      </trkpt>
      <trkpt lat="45.34445" lon="5.85915">
        <ele>1407</ele>
        <time>2022-03-06T10:36:23Z</time>
      </trkpt>
      <trkpt lat="45.34445" lon="5.85917">
        <ele>1406</ele>
        <time>2022-03-06T10:36:24Z</time>
      </trkpt>
      <trkpt lat="45.34446" lon="5.85918">
        <ele>1405</ele>
        <time>2022-03-06T10:36:25Z</time>
      </trkpt>
      <trkpt lat="45.34446" lon="5.85919">
        <ele>1405</ele>
        <time>2022-03-06T10:36:26Z</time>
      </trkpt>
      <trkpt lat="45.34446" lon="5.8592">
        <ele>1405</ele>
        <time>2022-03-06T10:36:27Z</time>
      </trkpt>
      <trkpt lat="45.34447" lon="5.85921">
        <ele>1404</ele>
        <time>2022-03-06T10:36:28Z</time>
      </trkpt>
      <trkpt lat="45.34446" lon="5.85921">
        <ele>1403</ele>
        <time>2022-03-06T10:36:29Z</time>
      </trkpt>
      <trkpt lat="45.34445" lon="5.85922">
        <ele>1403</ele>
        <time>2022-03-06T10:36:30Z</time>
      </trkpt>
      <trkpt lat="45.34444" lon="5.85922">
        <ele>1403</ele>
        <time>2022-03-06T10:36:31Z</time>
      </trkpt>
      <trkpt lat="45.34443" lon="5.85922">
        <ele>1403</ele>
        <time>2022-03-06T10:36:32Z</time>
      </trkpt>
      <trkpt lat="45.34442" lon="5.85922">
        <ele>1403</ele>
        <time>2022-03-06T10:36:33Z</time>
      </trkpt>
      <trkpt lat="45.34441" lon="5.85923">
        <ele>1403</ele>
        <time>2022-03-06T10:36:34Z</time>
      </trkpt>
      <trkpt lat="45.3444" lon="5.85923">
        <ele>1403</ele>
        <time>2022-03-06T10:36:36Z</time>
      </trkpt>
      <trkpt lat="45.34439" lon="5.85924">
        <ele>1403</ele>
        <time>2022-03-06T10:36:37Z</time>
      </trkpt>
      <trkpt lat="45.34438" lon="5.85924">
        <ele>1403</ele>
        <time>2022-03-06T10:36:38Z</time>
      </trkpt>
      <trkpt lat="45.34437" lon="5.85924">
        <ele>1403</ele>
        <time>2022-03-06T10:36:39Z</time>
      </trkpt>
      <trkpt lat="45.34436" lon="5.85925">
        <ele>1403</ele>
        <time>2022-03-06T10:36:40Z</time>
      </trkpt>
      <trkpt lat="45.34436" lon="5.85924">
        <ele>1402</ele>
        <time>2022-03-06T10:36:41Z</time>
      </trkpt>
      <trkpt lat="45.34435" lon="5.85924">
        <ele>1402</ele>
        <time>2022-03-06T10:36:43Z</time>
      </trkpt>
      <trkpt lat="45.34435" lon="5.85923">
        <ele>1401</ele>
        <time>2022-03-06T10:36:44Z</time>
      </trkpt>
      <trkpt lat="45.34435" lon="5.85922">
        <ele>1400</ele>
        <time>2022-03-06T10:36:46Z</time>
      </trkpt>
      <trkpt lat="45.34434" lon="5.85922">
        <ele>1400</ele>
        <time>2022-03-06T10:36:47Z</time>
      </trkpt>
      <trkpt lat="45.34434" lon="5.85921">
        <ele>1400</ele>
        <time>2022-03-06T10:36:49Z</time>
      </trkpt>
      <trkpt lat="45.34433" lon="5.85921">
        <ele>1400</ele>
        <time>2022-03-06T10:36:51Z</time>
      </trkpt>
      <trkpt lat="45.34433" lon="5.8592">
        <ele>1400</ele>
        <time>2022-03-06T10:36:52Z</time>
      </trkpt>
      <trkpt lat="45.34432" lon="5.85919">
        <ele>1400</ele>
        <time>2022-03-06T10:36:55Z</time>
      </trkpt>
      <trkpt lat="45.34432" lon="5.85918">
        <ele>1400</ele>
        <time>2022-03-06T10:36:57Z</time>
      </trkpt>
      <trkpt lat="45.34431" lon="5.85918">
        <ele>1400</ele>
        <time>2022-03-06T10:36:59Z</time>
      </trkpt>
      <trkpt lat="45.34431" lon="5.85917">
        <ele>1400</ele>
        <time>2022-03-06T10:37:00Z</time>
      </trkpt>
      <trkpt lat="45.3443" lon="5.85916">
        <ele>1400</ele>
        <time>2022-03-06T10:37:03Z</time>
      </trkpt>
      <trkpt lat="45.3443" lon="5.85916">
        <ele>1398</ele>
        <time>2022-03-06T10:37:05Z</time>
      </trkpt>
      <trkpt lat="45.34429" lon="5.85913">
        <ele>1398</ele>
        <time>2022-03-06T10:37:06Z</time>
      </trkpt>
      <trkpt lat="45.34429" lon="5.85911">
        <ele>1397</ele>
        <time>2022-03-06T10:37:07Z</time>
      </trkpt>
      <trkpt lat="45.34429" lon="5.85909">
        <ele>1396</ele>
        <time>2022-03-06T10:37:08Z</time>
      </trkpt>
      <trkpt lat="45.34428" lon="5.85907">
        <ele>1396</ele>
        <time>2022-03-06T10:37:09Z</time>
      </trkpt>
      <trkpt lat="45.34428" lon="5.85905">
        <ele>1396</ele>
        <time>2022-03-06T10:37:10Z</time>
      </trkpt>
      <trkpt lat="45.34427" lon="5.85903">
        <ele>1396</ele>
        <time>2022-03-06T10:37:11Z</time>
      </trkpt>
      <trkpt lat="45.34427" lon="5.85902">
        <ele>1396</ele>
        <time>2022-03-06T10:37:13Z</time>
      </trkpt>
      <trkpt lat="45.34427" lon="5.85901">
        <ele>1396</ele>
        <time>2022-03-06T10:37:14Z</time>
      </trkpt>
      <trkpt lat="45.34426" lon="5.85901">
        <ele>1396</ele>
        <time>2022-03-06T10:37:15Z</time>
      </trkpt>
      <trkpt lat="45.34426" lon="5.859">
        <ele>1396</ele>
        <time>2022-03-06T10:37:16Z</time>
      </trkpt>
      <trkpt lat="45.34426" lon="5.85899">
        <ele>1396</ele>
        <time>2022-03-06T10:37:18Z</time>
      </trkpt>
      <trkpt lat="45.34425" lon="5.85898">
        <ele>1396</ele>
        <time>2022-03-06T10:37:20Z</time>
      </trkpt>
      <trkpt lat="45.34425" lon="5.85897">
        <ele>1396</ele>
        <time>2022-03-06T10:37:21Z</time>
      </trkpt>
      <trkpt lat="45.34425" lon="5.85896">
        <ele>1396</ele>
        <time>2022-03-06T10:37:23Z</time>
      </trkpt>
      <trkpt lat="45.34425" lon="5.85895">
        <ele>1396</ele>
        <time>2022-03-06T10:37:25Z</time>
      </trkpt>
      <trkpt lat="45.34424" lon="5.85895">
        <ele>1396</ele>
        <time>2022-03-06T10:37:26Z</time>
      </trkpt>
      <trkpt lat="45.34424" lon="5.85894">
        <ele>1396</ele>
        <time>2022-03-06T10:37:27Z</time>
      </trkpt>
      <trkpt lat="45.34424" lon="5.85893">
        <ele>1396</ele>
        <time>2022-03-06T10:37:28Z</time>
      </trkpt>
      <trkpt lat="45.34424" lon="5.85892">
        <ele>1396</ele>
        <time>2022-03-06T10:37:30Z</time>
      </trkpt>
      <trkpt lat="45.34423" lon="5.85892">
        <ele>1396</ele>
        <time>2022-03-06T10:37:31Z</time>
      </trkpt>
      <trkpt lat="45.34423" lon="5.85891">
        <ele>1395</ele>
        <time>2022-03-06T10:37:32Z</time>
      </trkpt>
      <trkpt lat="45.34422" lon="5.85891">
        <ele>1395</ele>
        <time>2022-03-06T10:37:34Z</time>
      </trkpt>
      <trkpt lat="45.34421" lon="5.85891">
        <ele>1394</ele>
        <time>2022-03-06T10:37:37Z</time>
      </trkpt>
      <trkpt lat="45.34421" lon="5.85891">
        <ele>1394</ele>
        <time>2022-03-06T10:37:38Z</time>
      </trkpt>
      <trkpt lat="45.3442" lon="5.85891">
        <ele>1394</ele>
        <time>2022-03-06T10:37:40Z</time>
      </trkpt>
      <trkpt lat="45.3442" lon="5.85892">
        <ele>1394</ele>
        <time>2022-03-06T10:37:41Z</time>
      </trkpt>
      <trkpt lat="45.34419" lon="5.85892">
        <ele>1394</ele>
        <time>2022-03-06T10:37:43Z</time>
      </trkpt>
      <trkpt lat="45.34418" lon="5.85892">
        <ele>1394</ele>
        <time>2022-03-06T10:37:46Z</time>
      </trkpt>
      <trkpt lat="45.34418" lon="5.85892">
        <ele>1394</ele>
        <time>2022-03-06T10:37:47Z</time>
      </trkpt>
      <trkpt lat="45.34417" lon="5.85892">
        <ele>1394</ele>
        <time>2022-03-06T10:37:48Z</time>
      </trkpt>
      <trkpt lat="45.34416" lon="5.85892">
        <ele>1394</ele>
        <time>2022-03-06T10:37:51Z</time>
      </trkpt>
      <trkpt lat="45.34416" lon="5.85892">
        <ele>1394</ele>
        <time>2022-03-06T10:37:53Z</time>
      </trkpt>
      <trkpt lat="45.34415" lon="5.85892">
        <ele>1393</ele>
        <time>2022-03-06T10:37:54Z</time>
      </trkpt>
      <trkpt lat="45.34414" lon="5.85892">
        <ele>1392</ele>
        <time>2022-03-06T10:37:57Z</time>
      </trkpt>
      <trkpt lat="45.34414" lon="5.85893">
        <ele>1391</ele>
        <time>2022-03-06T10:37:59Z</time>
      </trkpt>
      <trkpt lat="45.34413" lon="5.85894">
        <ele>1391</ele>
        <time>2022-03-06T10:38:01Z</time>
      </trkpt>
      <trkpt lat="45.34413" lon="5.85895">
        <ele>1391</ele>
        <time>2022-03-06T10:38:02Z</time>
      </trkpt>
      <trkpt lat="45.34413" lon="5.85896">
        <ele>1390</ele>
        <time>2022-03-06T10:38:04Z</time>
      </trkpt>
      <trkpt lat="45.34412" lon="5.85897">
        <ele>1390</ele>
        <time>2022-03-06T10:38:06Z</time>
      </trkpt>
      <trkpt lat="45.34412" lon="5.85898">
        <ele>1390</ele>
        <time>2022-03-06T10:38:07Z</time>
      </trkpt>
      <trkpt lat="45.34412" lon="5.85899">
        <ele>1389</ele>
        <time>2022-03-06T10:38:09Z</time>
      </trkpt>
      <trkpt lat="45.34412" lon="5.859">
        <ele>1388</ele>
        <time>2022-03-06T10:38:11Z</time>
      </trkpt>
      <trkpt lat="45.34411" lon="5.85901">
        <ele>1388</ele>
        <time>2022-03-06T10:38:12Z</time>
      </trkpt>
      <trkpt lat="45.34411" lon="5.85902">
        <ele>1388</ele>
        <time>2022-03-06T10:38:14Z</time>
      </trkpt>
      <trkpt lat="45.34411" lon="5.85903">
        <ele>1387</ele>
        <time>2022-03-06T10:38:16Z</time>
      </trkpt>
      <trkpt lat="45.3441" lon="5.85904">
        <ele>1387</ele>
        <time>2022-03-06T10:38:17Z</time>
      </trkpt>
      <trkpt lat="45.3441" lon="5.85905">
        <ele>1386</ele>
        <time>2022-03-06T10:38:19Z</time>
      </trkpt>
      <trkpt lat="45.34409" lon="5.85909">
        <ele>1385</ele>
        <time>2022-03-06T10:38:20Z</time>
      </trkpt>
      <trkpt lat="45.34408" lon="5.85914">
        <ele>1384</ele>
        <time>2022-03-06T10:38:21Z</time>
      </trkpt>
      <trkpt lat="45.34407" lon="5.85918">
        <ele>1383</ele>
        <time>2022-03-06T10:38:22Z</time>
      </trkpt>
      <trkpt lat="45.34407" lon="5.8592">
        <ele>1383</ele>
        <time>2022-03-06T10:38:23Z</time>
      </trkpt>
      <trkpt lat="45.34406" lon="5.85922">
        <ele>1383</ele>
        <time>2022-03-06T10:38:24Z</time>
      </trkpt>
      <trkpt lat="45.34406" lon="5.85924">
        <ele>1382</ele>
        <time>2022-03-06T10:38:25Z</time>
      </trkpt>
      <trkpt lat="45.34406" lon="5.85927">
        <ele>1382</ele>
        <time>2022-03-06T10:38:26Z</time>
      </trkpt>
      <trkpt lat="45.34406" lon="5.85929">
        <ele>1382</ele>
        <time>2022-03-06T10:38:27Z</time>
      </trkpt>
      <trkpt lat="45.34405" lon="5.85931">
        <ele>1382</ele>
        <time>2022-03-06T10:38:28Z</time>
      </trkpt>
      <trkpt lat="45.34404" lon="5.85933">
        <ele>1382</ele>
        <time>2022-03-06T10:38:29Z</time>
      </trkpt>
      <trkpt lat="45.34403" lon="5.85936">
        <ele>1382</ele>
        <time>2022-03-06T10:38:30Z</time>
      </trkpt>
      <trkpt lat="45.34402" lon="5.85938">
        <ele>1382</ele>
        <time>2022-03-06T10:38:31Z</time>
      </trkpt>
      <trkpt lat="45.34401" lon="5.8594">
        <ele>1381</ele>
        <time>2022-03-06T10:38:32Z</time>
      </trkpt>
      <trkpt lat="45.344" lon="5.85942">
        <ele>1380</ele>
        <time>2022-03-06T10:38:33Z</time>
      </trkpt>
      <trkpt lat="45.34399" lon="5.85945">
        <ele>1381</ele>
        <time>2022-03-06T10:38:34Z</time>
      </trkpt>
      <trkpt lat="45.34398" lon="5.85947">
        <ele>1381</ele>
        <time>2022-03-06T10:38:35Z</time>
      </trkpt>
      <trkpt lat="45.34397" lon="5.85949">
        <ele>1381</ele>
        <time>2022-03-06T10:38:36Z</time>
      </trkpt>
      <trkpt lat="45.34396" lon="5.85952">
        <ele>1381</ele>
        <time>2022-03-06T10:38:37Z</time>
      </trkpt>
      <trkpt lat="45.34395" lon="5.85954">
        <ele>1381</ele>
        <time>2022-03-06T10:38:38Z</time>
      </trkpt>
      <trkpt lat="45.34395" lon="5.85955">
        <ele>1380</ele>
        <time>2022-03-06T10:38:39Z</time>
      </trkpt>
      <trkpt lat="45.34395" lon="5.85956">
        <ele>1380</ele>
        <time>2022-03-06T10:38:40Z</time>
      </trkpt>
      <trkpt lat="45.34395" lon="5.85958">
        <ele>1380</ele>
        <time>2022-03-06T10:38:41Z</time>
      </trkpt>
      <trkpt lat="45.34395" lon="5.85959">
        <ele>1380</ele>
        <time>2022-03-06T10:38:42Z</time>
      </trkpt>
      <trkpt lat="45.34395" lon="5.8596">
        <ele>1380</ele>
        <time>2022-03-06T10:38:43Z</time>
      </trkpt>
      <trkpt lat="45.34395" lon="5.85961">
        <ele>1380</ele>
        <time>2022-03-06T10:38:44Z</time>
      </trkpt>
      <trkpt lat="45.34394" lon="5.85962">
        <ele>1379</ele>
        <time>2022-03-06T10:38:45Z</time>
      </trkpt>
      <trkpt lat="45.34394" lon="5.85963">
        <ele>1378</ele>
        <time>2022-03-06T10:38:46Z</time>
      </trkpt>
      <trkpt lat="45.34394" lon="5.85965">
        <ele>1378</ele>
        <time>2022-03-06T10:38:47Z</time>
      </trkpt>
      <trkpt lat="45.34394" lon="5.85966">
        <ele>1378</ele>
        <time>2022-03-06T10:38:48Z</time>
      </trkpt>
      <trkpt lat="45.34394" lon="5.85967">
        <ele>1377</ele>
        <time>2022-03-06T10:38:49Z</time>
      </trkpt>
      <trkpt lat="45.34394" lon="5.85969">
        <ele>1377</ele>
        <time>2022-03-06T10:38:50Z</time>
      </trkpt>
      <trkpt lat="45.34394" lon="5.85971">
        <ele>1377</ele>
        <time>2022-03-06T10:38:51Z</time>
      </trkpt>
      <trkpt lat="45.34395" lon="5.85973">
        <ele>1377</ele>
        <time>2022-03-06T10:38:52Z</time>
      </trkpt>
      <trkpt lat="45.34395" lon="5.85975">
        <ele>1377</ele>
        <time>2022-03-06T10:38:53Z</time>
      </trkpt>
      <trkpt lat="45.34396" lon="5.85985">
        <ele>1376</ele>
        <time>2022-03-06T10:38:54Z</time>
      </trkpt>
      <trkpt lat="45.34396" lon="5.85987">
        <ele>1376</ele>
        <time>2022-03-06T10:38:55Z</time>
      </trkpt>
      <trkpt lat="45.34396" lon="5.85989">
        <ele>1376</ele>
        <time>2022-03-06T10:38:56Z</time>
      </trkpt>
      <trkpt lat="45.34396" lon="5.85991">
        <ele>1375</ele>
        <time>2022-03-06T10:38:57Z</time>
      </trkpt>
      <trkpt lat="45.34396" lon="5.85999">
        <ele>1375</ele>
        <time>2022-03-06T10:38:58Z</time>
      </trkpt>
      <trkpt lat="45.34396" lon="5.86">
        <ele>1375</ele>
        <time>2022-03-06T10:39:01Z</time>
      </trkpt>
      <trkpt lat="45.34395" lon="5.86">
        <ele>1375</ele>
        <time>2022-03-06T10:39:03Z</time>
      </trkpt>
      <trkpt lat="45.34395" lon="5.86001">
        <ele>1375</ele>
        <time>2022-03-06T10:39:04Z</time>
      </trkpt>
      <trkpt lat="45.34395" lon="5.86002">
        <ele>1374</ele>
        <time>2022-03-06T10:39:07Z</time>
      </trkpt>
      <trkpt lat="45.34395" lon="5.86002">
        <ele>1374</ele>
        <time>2022-03-06T10:39:09Z</time>
      </trkpt>
      <trkpt lat="45.34395" lon="5.86003">
        <ele>1374</ele>
        <time>2022-03-06T10:39:10Z</time>
      </trkpt>
      <trkpt lat="45.34394" lon="5.86003">
        <ele>1374</ele>
        <time>2022-03-06T10:39:11Z</time>
      </trkpt>
      <trkpt lat="45.34394" lon="5.86004">
        <ele>1375</ele>
        <time>2022-03-06T10:39:13Z</time>
      </trkpt>
      <trkpt lat="45.34394" lon="5.86005">
        <ele>1375</ele>
        <time>2022-03-06T10:39:15Z</time>
      </trkpt>
      <trkpt lat="45.34394" lon="5.86005">
        <ele>1375</ele>
        <time>2022-03-06T10:39:17Z</time>
      </trkpt>
      <trkpt lat="45.34393" lon="5.86006">
        <ele>1375</ele>
        <time>2022-03-06T10:39:18Z</time>
      </trkpt>
      <trkpt lat="45.34393" lon="5.86007">
        <ele>1374</ele>
        <time>2022-03-06T10:39:21Z</time>
      </trkpt>
      <trkpt lat="45.34393" lon="5.86007">
        <ele>1375</ele>
        <time>2022-03-06T10:39:23Z</time>
      </trkpt>
      <trkpt lat="45.34393" lon="5.86008">
        <ele>1375</ele>
        <time>2022-03-06T10:39:24Z</time>
      </trkpt>
      <trkpt lat="45.34392" lon="5.86008">
        <ele>1374</ele>
        <time>2022-03-06T10:39:26Z</time>
      </trkpt>
      <trkpt lat="45.34392" lon="5.86009">
        <ele>1374</ele>
        <time>2022-03-06T10:39:27Z</time>
      </trkpt>
      <trkpt lat="45.34392" lon="5.8601">
        <ele>1374</ele>
        <time>2022-03-06T10:39:30Z</time>
      </trkpt>
      <trkpt lat="45.34392" lon="5.8601">
        <ele>1375</ele>
        <time>2022-03-06T10:39:32Z</time>
      </trkpt>
      <trkpt lat="45.34391" lon="5.86011">
        <ele>1375</ele>
        <time>2022-03-06T10:39:33Z</time>
      </trkpt>
      <trkpt lat="45.34392" lon="5.86011">
        <ele>1375</ele>
        <time>2022-03-06T10:39:35Z</time>
      </trkpt>
      <trkpt lat="45.34393" lon="5.86011">
        <ele>1375</ele>
        <time>2022-03-06T10:39:38Z</time>
      </trkpt>
      <trkpt lat="45.34393" lon="5.86011">
        <ele>1374</ele>
        <time>2022-03-06T10:39:39Z</time>
      </trkpt>
      <trkpt lat="45.34394" lon="5.86011">
        <ele>1374</ele>
        <time>2022-03-06T10:39:42Z</time>
      </trkpt>
      <trkpt lat="45.34394" lon="5.86011">
        <ele>1375</ele>
        <time>2022-03-06T10:39:44Z</time>
      </trkpt>
      <trkpt lat="45.34395" lon="5.86011">
        <ele>1375</ele>
        <time>2022-03-06T10:39:45Z</time>
      </trkpt>
      <trkpt lat="45.34396" lon="5.86011">
        <ele>1375</ele>
        <time>2022-03-06T10:39:48Z</time>
      </trkpt>
      <trkpt lat="45.34396" lon="5.86011">
        <ele>1376</ele>
        <time>2022-03-06T10:39:50Z</time>
      </trkpt>
      <trkpt lat="45.34397" lon="5.86011">
        <ele>1376</ele>
        <time>2022-03-06T10:39:51Z</time>
      </trkpt>
      <trkpt lat="45.34398" lon="5.86011">
        <ele>1375</ele>
        <time>2022-03-06T10:39:55Z</time>
      </trkpt>
      <trkpt lat="45.34398" lon="5.86011">
        <ele>1375</ele>
        <time>2022-03-06T10:39:56Z</time>
      </trkpt>
      <trkpt lat="45.34399" lon="5.86011">
        <ele>1375</ele>
        <time>2022-03-06T10:39:58Z</time>
      </trkpt>
      <trkpt lat="45.344" lon="5.8601">
        <ele>1375</ele>
        <time>2022-03-06T10:40:01Z</time>
      </trkpt>
      <trkpt lat="45.344" lon="5.8601">
        <ele>1375</ele>
        <time>2022-03-06T10:40:02Z</time>
      </trkpt>
      <trkpt lat="45.34401" lon="5.8601">
        <ele>1375</ele>
        <time>2022-03-06T10:40:05Z</time>
      </trkpt>
      <trkpt lat="45.34401" lon="5.8601">
        <ele>1375</ele>
        <time>2022-03-06T10:40:07Z</time>
      </trkpt>
      <trkpt lat="45.344" lon="5.8601">
        <ele>1376</ele>
        <time>2022-03-06T10:40:10Z</time>
      </trkpt>
      <trkpt lat="45.344" lon="5.8601">
        <ele>1376</ele>
        <time>2022-03-06T10:40:12Z</time>
      </trkpt>
      <trkpt lat="45.34399" lon="5.8601">
        <ele>1376</ele>
        <time>2022-03-06T10:40:16Z</time>
      </trkpt>
      <trkpt lat="45.34399" lon="5.8601">
        <ele>1376</ele>
        <time>2022-03-06T10:40:17Z</time>
      </trkpt>
      <trkpt lat="45.34399" lon="5.8601">
        <ele>1376</ele>
        <time>2022-03-06T10:40:21Z</time>
      </trkpt>
      <trkpt lat="45.34398" lon="5.8601">
        <ele>1376</ele>
        <time>2022-03-06T10:40:22Z</time>
      </trkpt>
      <trkpt lat="45.34398" lon="5.8601">
        <ele>1376</ele>
        <time>2022-03-06T10:40:26Z</time>
      </trkpt>
      <trkpt lat="45.34397" lon="5.8601">
        <ele>1375</ele>
        <time>2022-03-06T10:40:28Z</time>
      </trkpt>
      <trkpt lat="45.34397" lon="5.8601">
        <ele>1375</ele>
        <time>2022-03-06T10:40:31Z</time>
      </trkpt>
      <trkpt lat="45.34396" lon="5.8601">
        <ele>1375</ele>
        <time>2022-03-06T10:40:33Z</time>
      </trkpt>
      <trkpt lat="45.34396" lon="5.8601">
        <ele>1375</ele>
        <time>2022-03-06T10:40:36Z</time>
      </trkpt>
      <trkpt lat="45.34395" lon="5.8601">
        <ele>1376</ele>
        <time>2022-03-06T10:40:39Z</time>
      </trkpt>
      <trkpt lat="45.34395" lon="5.8601">
        <ele>1376</ele>
        <time>2022-03-06T10:40:41Z</time>
      </trkpt>
      <trkpt lat="45.34394" lon="5.8601">
        <ele>1375</ele>
        <time>2022-03-06T10:40:45Z</time>
      </trkpt>
      <trkpt lat="45.34394" lon="5.8601">
        <ele>1375</ele>
        <time>2022-03-06T10:40:46Z</time>
      </trkpt>
      <trkpt lat="45.34394" lon="5.8601">
        <ele>1375</ele>
        <time>2022-03-06T10:40:50Z</time>
      </trkpt>
      <trkpt lat="45.34393" lon="5.8601">
        <ele>1375</ele>
        <time>2022-03-06T10:40:51Z</time>
      </trkpt>
      <trkpt lat="45.34393" lon="5.8601">
        <ele>1375</ele>
        <time>2022-03-06T10:40:55Z</time>
      </trkpt>
      <trkpt lat="45.34392" lon="5.8601">
        <ele>1375</ele>
        <time>2022-03-06T10:40:57Z</time>
      </trkpt>
      <trkpt lat="45.34392" lon="5.8601">
        <ele>1375</ele>
        <time>2022-03-06T10:41:00Z</time>
      </trkpt>
      <trkpt lat="45.34391" lon="5.8601">
        <ele>1374</ele>
        <time>2022-03-06T10:41:03Z</time>
      </trkpt>
      <trkpt lat="45.34392" lon="5.8601">
        <ele>1374</ele>
        <time>2022-03-06T10:41:06Z</time>
      </trkpt>
      <trkpt lat="45.34393" lon="5.8601">
        <ele>1374</ele>
        <time>2022-03-06T10:41:07Z</time>
      </trkpt>
      <trkpt lat="45.34393" lon="5.86009">
        <ele>1374</ele>
        <time>2022-03-06T10:41:09Z</time>
      </trkpt>
      <trkpt lat="45.34394" lon="5.86009">
        <ele>1374</ele>
        <time>2022-03-06T10:41:11Z</time>
      </trkpt>
      <trkpt lat="45.34394" lon="5.86009">
        <ele>1374</ele>
        <time>2022-03-06T10:41:13Z</time>
      </trkpt>
      <trkpt lat="45.34395" lon="5.86009">
        <ele>1374</ele>
        <time>2022-03-06T10:41:14Z</time>
      </trkpt>
      <trkpt lat="45.34395" lon="5.86008">
        <ele>1375</ele>
        <time>2022-03-06T10:41:16Z</time>
      </trkpt>
      <trkpt lat="45.34396" lon="5.86008">
        <ele>1376</ele>
        <time>2022-03-06T10:41:17Z</time>
      </trkpt>
      <trkpt lat="45.34397" lon="5.86008">
        <ele>1376</ele>
        <time>2022-03-06T10:41:20Z</time>
      </trkpt>
      <trkpt lat="45.34402" lon="5.86005">
        <ele>1376</ele>
        <time>2022-03-06T10:41:22Z</time>
      </trkpt>
      <trkpt lat="45.34402" lon="5.86006">
        <ele>1376</ele>
        <time>2022-03-06T10:41:23Z</time>
      </trkpt>
      <trkpt lat="45.34401" lon="5.86006">
        <ele>1376</ele>
        <time>2022-03-06T10:41:25Z</time>
      </trkpt>
      <trkpt lat="45.34401" lon="5.86006">
        <ele>1376</ele>
        <time>2022-03-06T10:41:28Z</time>
      </trkpt>
      <trkpt lat="45.344" lon="5.86007">
        <ele>1376</ele>
        <time>2022-03-06T10:41:29Z</time>
      </trkpt>
      <trkpt lat="45.34399" lon="5.86007">
        <ele>1376</ele>
        <time>2022-03-06T10:41:32Z</time>
      </trkpt>
      <trkpt lat="45.34399" lon="5.86007">
        <ele>1376</ele>
        <time>2022-03-06T10:41:34Z</time>
      </trkpt>
      <trkpt lat="45.34399" lon="5.86008">
        <ele>1376</ele>
        <time>2022-03-06T10:41:35Z</time>
      </trkpt>
      <trkpt lat="45.34398" lon="5.86008">
        <ele>1376</ele>
        <time>2022-03-06T10:41:36Z</time>
      </trkpt>
      <trkpt lat="45.34397" lon="5.86008">
        <ele>1375</ele>
        <time>2022-03-06T10:41:40Z</time>
      </trkpt>
      <trkpt lat="45.34397" lon="5.86009">
        <ele>1375</ele>
        <time>2022-03-06T10:41:41Z</time>
      </trkpt>
      <trkpt lat="45.34396" lon="5.86009">
        <ele>1375</ele>
        <time>2022-03-06T10:41:44Z</time>
      </trkpt>
      <trkpt lat="45.34396" lon="5.86009">
        <ele>1375</ele>
        <time>2022-03-06T10:41:46Z</time>
      </trkpt>
      <trkpt lat="45.34395" lon="5.8601">
        <ele>1375</ele>
        <time>2022-03-06T10:41:47Z</time>
      </trkpt>
      <trkpt lat="45.34394" lon="5.8601">
        <ele>1375</ele>
        <time>2022-03-06T10:41:51Z</time>
      </trkpt>
      <trkpt lat="45.34394" lon="5.8601">
        <ele>1375</ele>
        <time>2022-03-06T10:41:52Z</time>
      </trkpt>
      <trkpt lat="45.34394" lon="5.86011">
        <ele>1375</ele>
        <time>2022-03-06T10:41:53Z</time>
      </trkpt>
      <trkpt lat="45.34394" lon="5.8601">
        <ele>1374</ele>
        <time>2022-03-06T10:41:55Z</time>
      </trkpt>
      <trkpt lat="45.34394" lon="5.86009">
        <ele>1374</ele>
        <time>2022-03-06T10:41:58Z</time>
      </trkpt>
      <trkpt lat="45.34395" lon="5.86009">
        <ele>1374</ele>
        <time>2022-03-06T10:41:59Z</time>
      </trkpt>
      <trkpt lat="45.34395" lon="5.86008">
        <ele>1374</ele>
        <time>2022-03-06T10:42:00Z</time>
      </trkpt>
      <trkpt lat="45.34396" lon="5.86007">
        <ele>1375</ele>
        <time>2022-03-06T10:42:03Z</time>
      </trkpt>
      <trkpt lat="45.34396" lon="5.86007">
        <ele>1375</ele>
        <time>2022-03-06T10:42:05Z</time>
      </trkpt>
      <trkpt lat="45.34396" lon="5.86006">
        <ele>1375</ele>
        <time>2022-03-06T10:42:06Z</time>
      </trkpt>
      <trkpt lat="45.34397" lon="5.86005">
        <ele>1375</ele>
        <time>2022-03-06T10:42:08Z</time>
      </trkpt>
      <trkpt lat="45.34397" lon="5.86004">
        <ele>1375</ele>
        <time>2022-03-06T10:42:11Z</time>
      </trkpt>
      <trkpt lat="45.34397" lon="5.86004">
        <ele>1375</ele>
        <time>2022-03-06T10:42:12Z</time>
      </trkpt>
      <trkpt lat="45.34398" lon="5.86003">
        <ele>1375</ele>
        <time>2022-03-06T10:42:13Z</time>
      </trkpt>
      <trkpt lat="45.34398" lon="5.86002">
        <ele>1375</ele>
        <time>2022-03-06T10:42:16Z</time>
      </trkpt>
      <trkpt lat="45.34399" lon="5.86002">
        <ele>1375</ele>
        <time>2022-03-06T10:42:18Z</time>
      </trkpt>
      <trkpt lat="45.34399" lon="5.86001">
        <ele>1375</ele>
        <time>2022-03-06T10:42:19Z</time>
      </trkpt>
      <trkpt lat="45.34399" lon="5.86">
        <ele>1375</ele>
        <time>2022-03-06T10:42:21Z</time>
      </trkpt>
      <trkpt lat="45.344" lon="5.86001">
        <ele>1375</ele>
        <time>2022-03-06T10:42:22Z</time>
      </trkpt>
      <trkpt lat="45.34401" lon="5.86001">
        <ele>1374</ele>
        <time>2022-03-06T10:42:26Z</time>
      </trkpt>
      <trkpt lat="45.34401" lon="5.86001">
        <ele>1374</ele>
        <time>2022-03-06T10:42:27Z</time>
      </trkpt>
      <trkpt lat="45.34402" lon="5.86001">
        <ele>1374</ele>
        <time>2022-03-06T10:42:29Z</time>
      </trkpt>
      <trkpt lat="45.34402" lon="5.86002">
        <ele>1374</ele>
        <time>2022-03-06T10:42:32Z</time>
      </trkpt>
      <trkpt lat="45.34403" lon="5.86002">
        <ele>1374</ele>
        <time>2022-03-06T10:42:33Z</time>
      </trkpt>
      <trkpt lat="45.34404" lon="5.86002">
        <ele>1374</ele>
        <time>2022-03-06T10:42:36Z</time>
      </trkpt>
      <trkpt lat="45.34404" lon="5.86002">
        <ele>1374</ele>
        <time>2022-03-06T10:42:38Z</time>
      </trkpt>
      <trkpt lat="45.34405" lon="5.86002">
        <ele>1376</ele>
        <time>2022-03-06T10:42:40Z</time>
      </trkpt>
      <trkpt lat="45.34405" lon="5.86003">
        <ele>1376</ele>
        <time>2022-03-06T10:42:41Z</time>
      </trkpt>
      <trkpt lat="45.34406" lon="5.86003">
        <ele>1375</ele>
        <time>2022-03-06T10:42:43Z</time>
      </trkpt>
      <trkpt lat="45.34407" lon="5.86003">
        <ele>1375</ele>
        <time>2022-03-06T10:42:46Z</time>
      </trkpt>
      <trkpt lat="45.34407" lon="5.86003">
        <ele>1376</ele>
        <time>2022-03-06T10:42:47Z</time>
      </trkpt>
      <trkpt lat="45.34408" lon="5.86004">
        <ele>1377</ele>
        <time>2022-03-06T10:42:50Z</time>
      </trkpt>
      <trkpt lat="45.34409" lon="5.86004">
        <ele>1377</ele>
        <time>2022-03-06T10:42:52Z</time>
      </trkpt>
      <trkpt lat="45.34409" lon="5.86005">
        <ele>1377</ele>
        <time>2022-03-06T10:42:53Z</time>
      </trkpt>
      <trkpt lat="45.3441" lon="5.86006">
        <ele>1377</ele>
        <time>2022-03-06T10:42:54Z</time>
      </trkpt>
      <trkpt lat="45.34411" lon="5.86006">
        <ele>1377</ele>
        <time>2022-03-06T10:42:55Z</time>
      </trkpt>
      <trkpt lat="45.34412" lon="5.86007">
        <ele>1378</ele>
        <time>2022-03-06T10:42:56Z</time>
      </trkpt>
      <trkpt lat="45.34413" lon="5.86008">
        <ele>1378</ele>
        <time>2022-03-06T10:42:58Z</time>
      </trkpt>
      <trkpt lat="45.34414" lon="5.86009">
        <ele>1378</ele>
        <time>2022-03-06T10:42:59Z</time>
      </trkpt>
      <trkpt lat="45.34415" lon="5.86009">
        <ele>1378</ele>
        <time>2022-03-06T10:43:00Z</time>
      </trkpt>
      <trkpt lat="45.34415" lon="5.8601">
        <ele>1379</ele>
        <time>2022-03-06T10:43:01Z</time>
      </trkpt>
      <trkpt lat="45.34416" lon="5.8601">
        <ele>1379</ele>
        <time>2022-03-06T10:43:02Z</time>
      </trkpt>
      <trkpt lat="45.34416" lon="5.86011">
        <ele>1379</ele>
        <time>2022-03-06T10:43:03Z</time>
      </trkpt>
      <trkpt lat="45.34416" lon="5.86012">
        <ele>1380</ele>
        <time>2022-03-06T10:43:04Z</time>
      </trkpt>
      <trkpt lat="45.34417" lon="5.86013">
        <ele>1380</ele>
        <time>2022-03-06T10:43:05Z</time>
      </trkpt>
      <trkpt lat="45.34417" lon="5.86014">
        <ele>1380</ele>
        <time>2022-03-06T10:43:06Z</time>
      </trkpt>
      <trkpt lat="45.34417" lon="5.86015">
        <ele>1381</ele>
        <time>2022-03-06T10:43:07Z</time>
      </trkpt>
      <trkpt lat="45.34417" lon="5.86016">
        <ele>1381</ele>
        <time>2022-03-06T10:43:08Z</time>
      </trkpt>
      <trkpt lat="45.34417" lon="5.86017">
        <ele>1381</ele>
        <time>2022-03-06T10:43:09Z</time>
      </trkpt>
      <trkpt lat="45.34417" lon="5.86018">
        <ele>1381</ele>
        <time>2022-03-06T10:43:10Z</time>
      </trkpt>
      <trkpt lat="45.34418" lon="5.86019">
        <ele>1381</ele>
        <time>2022-03-06T10:43:11Z</time>
      </trkpt>
      <trkpt lat="45.34418" lon="5.8602">
        <ele>1381</ele>
        <time>2022-03-06T10:43:12Z</time>
      </trkpt>
      <trkpt lat="45.34418" lon="5.86021">
        <ele>1381</ele>
        <time>2022-03-06T10:43:13Z</time>
      </trkpt>
      <trkpt lat="45.34418" lon="5.86022">
        <ele>1381</ele>
        <time>2022-03-06T10:43:14Z</time>
      </trkpt>
      <trkpt lat="45.34418" lon="5.86023">
        <ele>1382</ele>
        <time>2022-03-06T10:43:15Z</time>
      </trkpt>
      <trkpt lat="45.34418" lon="5.86024">
        <ele>1382</ele>
        <time>2022-03-06T10:43:16Z</time>
      </trkpt>
      <trkpt lat="45.34418" lon="5.86025">
        <ele>1382</ele>
        <time>2022-03-06T10:43:18Z</time>
      </trkpt>
      <trkpt lat="45.34418" lon="5.86026">
        <ele>1382</ele>
        <time>2022-03-06T10:43:20Z</time>
      </trkpt>
      <trkpt lat="45.34418" lon="5.86027">
        <ele>1383</ele>
        <time>2022-03-06T10:43:22Z</time>
      </trkpt>
      <trkpt lat="45.34418" lon="5.86028">
        <ele>1383</ele>
        <time>2022-03-06T10:43:24Z</time>
      </trkpt>
      <trkpt lat="45.34418" lon="5.86029">
        <ele>1384</ele>
        <time>2022-03-06T10:43:26Z</time>
      </trkpt>
      <trkpt lat="45.34418" lon="5.8603">
        <ele>1384</ele>
        <time>2022-03-06T10:43:28Z</time>
      </trkpt>
      <trkpt lat="45.34418" lon="5.86031">
        <ele>1385</ele>
        <time>2022-03-06T10:43:30Z</time>
      </trkpt>
      <trkpt lat="45.34418" lon="5.86032">
        <ele>1386</ele>
        <time>2022-03-06T10:43:32Z</time>
      </trkpt>
      <trkpt lat="45.34418" lon="5.86033">
        <ele>1386</ele>
        <time>2022-03-06T10:43:34Z</time>
      </trkpt>
      <trkpt lat="45.34418" lon="5.86034">
        <ele>1386</ele>
        <time>2022-03-06T10:43:36Z</time>
      </trkpt>
      <trkpt lat="45.34418" lon="5.86035">
        <ele>1386</ele>
        <time>2022-03-06T10:43:38Z</time>
      </trkpt>
      <trkpt lat="45.34418" lon="5.86036">
        <ele>1386</ele>
        <time>2022-03-06T10:43:40Z</time>
      </trkpt>
      <trkpt lat="45.34418" lon="5.86037">
        <ele>1386</ele>
        <time>2022-03-06T10:43:42Z</time>
      </trkpt>
      <trkpt lat="45.34419" lon="5.86037">
        <ele>1387</ele>
        <time>2022-03-06T10:43:43Z</time>
      </trkpt>
      <trkpt lat="45.34419" lon="5.86038">
        <ele>1387</ele>
        <time>2022-03-06T10:43:44Z</time>
      </trkpt>
      <trkpt lat="45.3442" lon="5.86039">
        <ele>1387</ele>
        <time>2022-03-06T10:43:45Z</time>
      </trkpt>
      <trkpt lat="45.34421" lon="5.8604">
        <ele>1388</ele>
        <time>2022-03-06T10:43:46Z</time>
      </trkpt>
      <trkpt lat="45.34422" lon="5.86041">
        <ele>1388</ele>
        <time>2022-03-06T10:43:47Z</time>
      </trkpt>
      <trkpt lat="45.34423" lon="5.86042">
        <ele>1388</ele>
        <time>2022-03-06T10:43:48Z</time>
      </trkpt>
      <trkpt lat="45.34423" lon="5.86043">
        <ele>1388</ele>
        <time>2022-03-06T10:43:49Z</time>
      </trkpt>
      <trkpt lat="45.34424" lon="5.86044">
        <ele>1388</ele>
        <time>2022-03-06T10:43:50Z</time>
      </trkpt>
      <trkpt lat="45.34425" lon="5.86045">
        <ele>1388</ele>
        <time>2022-03-06T10:43:51Z</time>
      </trkpt>
      <trkpt lat="45.34426" lon="5.86046">
        <ele>1388</ele>
        <time>2022-03-06T10:43:52Z</time>
      </trkpt>
      <trkpt lat="45.34426" lon="5.86047">
        <ele>1388</ele>
        <time>2022-03-06T10:43:54Z</time>
      </trkpt>
      <trkpt lat="45.34426" lon="5.86048">
        <ele>1388</ele>
        <time>2022-03-06T10:43:55Z</time>
      </trkpt>
      <trkpt lat="45.34426" lon="5.86049">
        <ele>1388</ele>
        <time>2022-03-06T10:43:57Z</time>
      </trkpt>
      <trkpt lat="45.34427" lon="5.86049">
        <ele>1388</ele>
        <time>2022-03-06T10:43:58Z</time>
      </trkpt>
      <trkpt lat="45.34427" lon="5.8605">
        <ele>1388</ele>
        <time>2022-03-06T10:43:59Z</time>
      </trkpt>
      <trkpt lat="45.34427" lon="5.86051">
        <ele>1388</ele>
        <time>2022-03-06T10:44:00Z</time>
      </trkpt>
      <trkpt lat="45.34427" lon="5.86052">
        <ele>1389</ele>
        <time>2022-03-06T10:44:02Z</time>
      </trkpt>
      <trkpt lat="45.34428" lon="5.86053">
        <ele>1390</ele>
        <time>2022-03-06T10:44:04Z</time>
      </trkpt>
      <trkpt lat="45.34428" lon="5.86054">
        <ele>1390</ele>
        <time>2022-03-06T10:44:05Z</time>
      </trkpt>
      <trkpt lat="45.34428" lon="5.86055">
        <ele>1390</ele>
        <time>2022-03-06T10:44:07Z</time>
      </trkpt>
      <trkpt lat="45.34429" lon="5.86056">
        <ele>1390</ele>
        <time>2022-03-06T10:44:09Z</time>
      </trkpt>
      <trkpt lat="45.34429" lon="5.86057">
        <ele>1390</ele>
        <time>2022-03-06T10:44:10Z</time>
      </trkpt>
      <trkpt lat="45.34429" lon="5.86058">
        <ele>1390</ele>
        <time>2022-03-06T10:44:12Z</time>
      </trkpt>
      <trkpt lat="45.3443" lon="5.86058">
        <ele>1390</ele>
        <time>2022-03-06T10:44:13Z</time>
      </trkpt>
      <trkpt lat="45.34431" lon="5.86059">
        <ele>1390</ele>
        <time>2022-03-06T10:44:14Z</time>
      </trkpt>
      <trkpt lat="45.34432" lon="5.86059">
        <ele>1391</ele>
        <time>2022-03-06T10:44:15Z</time>
      </trkpt>
      <trkpt lat="45.34433" lon="5.8606">
        <ele>1391</ele>
        <time>2022-03-06T10:44:16Z</time>
      </trkpt>
      <trkpt lat="45.34434" lon="5.8606">
        <ele>1391</ele>
        <time>2022-03-06T10:44:17Z</time>
      </trkpt>
      <trkpt lat="45.34435" lon="5.86061">
        <ele>1391</ele>
        <time>2022-03-06T10:44:18Z</time>
      </trkpt>
      <trkpt lat="45.34436" lon="5.86061">
        <ele>1391</ele>
        <time>2022-03-06T10:44:19Z</time>
      </trkpt>
      <trkpt lat="45.34437" lon="5.86062">
        <ele>1391</ele>
        <time>2022-03-06T10:44:20Z</time>
      </trkpt>
      <trkpt lat="45.34438" lon="5.86062">
        <ele>1391</ele>
        <time>2022-03-06T10:44:21Z</time>
      </trkpt>
      <trkpt lat="45.34439" lon="5.86063">
        <ele>1392</ele>
        <time>2022-03-06T10:44:22Z</time>
      </trkpt>
      <trkpt lat="45.34439" lon="5.86064">
        <ele>1393</ele>
        <time>2022-03-06T10:44:24Z</time>
      </trkpt>
      <trkpt lat="45.34439" lon="5.86065">
        <ele>1393</ele>
        <time>2022-03-06T10:44:25Z</time>
      </trkpt>
      <trkpt lat="45.34439" lon="5.86066">
        <ele>1393</ele>
        <time>2022-03-06T10:44:26Z</time>
      </trkpt>
      <trkpt lat="45.34439" lon="5.86067">
        <ele>1393</ele>
        <time>2022-03-06T10:44:28Z</time>
      </trkpt>
      <trkpt lat="45.3444" lon="5.86068">
        <ele>1393</ele>
        <time>2022-03-06T10:44:29Z</time>
      </trkpt>
      <trkpt lat="45.3444" lon="5.86069">
        <ele>1393</ele>
        <time>2022-03-06T10:44:30Z</time>
      </trkpt>
      <trkpt lat="45.3444" lon="5.8607">
        <ele>1393</ele>
        <time>2022-03-06T10:44:31Z</time>
      </trkpt>
      <trkpt lat="45.3444" lon="5.86071">
        <ele>1393</ele>
        <time>2022-03-06T10:44:33Z</time>
      </trkpt>
      <trkpt lat="45.3444" lon="5.86072">
        <ele>1393</ele>
        <time>2022-03-06T10:44:34Z</time>
      </trkpt>
      <trkpt lat="45.3444" lon="5.86073">
        <ele>1393</ele>
        <time>2022-03-06T10:44:35Z</time>
      </trkpt>
      <trkpt lat="45.34441" lon="5.86074">
        <ele>1393</ele>
        <time>2022-03-06T10:44:36Z</time>
      </trkpt>
      <trkpt lat="45.34441" lon="5.86075">
        <ele>1394</ele>
        <time>2022-03-06T10:44:38Z</time>
      </trkpt>
      <trkpt lat="45.34441" lon="5.86076">
        <ele>1394</ele>
        <time>2022-03-06T10:44:39Z</time>
      </trkpt>
      <trkpt lat="45.34441" lon="5.86077">
        <ele>1394</ele>
        <time>2022-03-06T10:44:40Z</time>
      </trkpt>
      <trkpt lat="45.34442" lon="5.86077">
        <ele>1395</ele>
        <time>2022-03-06T10:44:41Z</time>
      </trkpt>
      <trkpt lat="45.34442" lon="5.86078">
        <ele>1395</ele>
        <time>2022-03-06T10:44:42Z</time>
      </trkpt>
      <trkpt lat="45.34442" lon="5.86079">
        <ele>1395</ele>
        <time>2022-03-06T10:44:44Z</time>
      </trkpt>
      <trkpt lat="45.34443" lon="5.8608">
        <ele>1395</ele>
        <time>2022-03-06T10:44:45Z</time>
      </trkpt>
      <trkpt lat="45.34443" lon="5.86081">
        <ele>1396</ele>
        <time>2022-03-06T10:44:47Z</time>
      </trkpt>
      <trkpt lat="45.34443" lon="5.86082">
        <ele>1396</ele>
        <time>2022-03-06T10:44:48Z</time>
      </trkpt>
      <trkpt lat="45.34444" lon="5.86082">
        <ele>1396</ele>
        <time>2022-03-06T10:44:49Z</time>
      </trkpt>
      <trkpt lat="45.34444" lon="5.86083">
        <ele>1396</ele>
        <time>2022-03-06T10:44:50Z</time>
      </trkpt>
      <trkpt lat="45.34444" lon="5.86084">
        <ele>1396</ele>
        <time>2022-03-06T10:44:51Z</time>
      </trkpt>
      <trkpt lat="45.34445" lon="5.86084">
        <ele>1396</ele>
        <time>2022-03-06T10:44:52Z</time>
      </trkpt>
      <trkpt lat="45.34445" lon="5.86085">
        <ele>1396</ele>
        <time>2022-03-06T10:44:53Z</time>
      </trkpt>
      <trkpt lat="45.34445" lon="5.86086">
        <ele>1396</ele>
        <time>2022-03-06T10:44:55Z</time>
      </trkpt>
      <trkpt lat="45.34446" lon="5.86087">
        <ele>1397</ele>
        <time>2022-03-06T10:44:56Z</time>
      </trkpt>
      <trkpt lat="45.34446" lon="5.86088">
        <ele>1397</ele>
        <time>2022-03-06T10:44:58Z</time>
      </trkpt>
      <trkpt lat="45.34446" lon="5.86089">
        <ele>1397</ele>
        <time>2022-03-06T10:44:59Z</time>
      </trkpt>
      <trkpt lat="45.34446" lon="5.8609">
        <ele>1398</ele>
        <time>2022-03-06T10:45:01Z</time>
      </trkpt>
      <trkpt lat="45.34446" lon="5.86091">
        <ele>1398</ele>
        <time>2022-03-06T10:45:02Z</time>
      </trkpt>
      <trkpt lat="45.34447" lon="5.86091">
        <ele>1398</ele>
        <time>2022-03-06T10:45:03Z</time>
      </trkpt>
      <trkpt lat="45.34447" lon="5.86092">
        <ele>1397</ele>
        <time>2022-03-06T10:45:04Z</time>
      </trkpt>
      <trkpt lat="45.34447" lon="5.86093">
        <ele>1397</ele>
        <time>2022-03-06T10:45:05Z</time>
      </trkpt>
      <trkpt lat="45.34447" lon="5.86094">
        <ele>1397</ele>
        <time>2022-03-06T10:45:07Z</time>
      </trkpt>
      <trkpt lat="45.34447" lon="5.86095">
        <ele>1397</ele>
        <time>2022-03-06T10:45:08Z</time>
      </trkpt>
      <trkpt lat="45.34447" lon="5.86096">
        <ele>1397</ele>
        <time>2022-03-06T10:45:10Z</time>
      </trkpt>
      <trkpt lat="45.34447" lon="5.86097">
        <ele>1397</ele>
        <time>2022-03-06T10:45:11Z</time>
      </trkpt>
      <trkpt lat="45.34448" lon="5.86098">
        <ele>1397</ele>
        <time>2022-03-06T10:45:13Z</time>
      </trkpt>
      <trkpt lat="45.34448" lon="5.86099">
        <ele>1397</ele>
        <time>2022-03-06T10:45:14Z</time>
      </trkpt>
      <trkpt lat="45.34448" lon="5.861">
        <ele>1398</ele>
        <time>2022-03-06T10:45:16Z</time>
      </trkpt>
      <trkpt lat="45.34448" lon="5.86101">
        <ele>1398</ele>
        <time>2022-03-06T10:45:17Z</time>
      </trkpt>
      <trkpt lat="45.34449" lon="5.86102">
        <ele>1399</ele>
        <time>2022-03-06T10:45:19Z</time>
      </trkpt>
      <trkpt lat="45.34449" lon="5.86103">
        <ele>1399</ele>
        <time>2022-03-06T10:45:21Z</time>
      </trkpt>
      <trkpt lat="45.3445" lon="5.86103">
        <ele>1399</ele>
        <time>2022-03-06T10:45:22Z</time>
      </trkpt>
      <trkpt lat="45.3445" lon="5.86104">
        <ele>1400</ele>
        <time>2022-03-06T10:45:23Z</time>
      </trkpt>
      <trkpt lat="45.34451" lon="5.86104">
        <ele>1400</ele>
        <time>2022-03-06T10:45:24Z</time>
      </trkpt>
      <trkpt lat="45.34451" lon="5.86105">
        <ele>1400</ele>
        <time>2022-03-06T10:45:25Z</time>
      </trkpt>
      <trkpt lat="45.34452" lon="5.86106">
        <ele>1400</ele>
        <time>2022-03-06T10:45:27Z</time>
      </trkpt>
      <trkpt lat="45.34453" lon="5.86106">
        <ele>1401</ele>
        <time>2022-03-06T10:45:29Z</time>
      </trkpt>
      <trkpt lat="45.34453" lon="5.86107">
        <ele>1401</ele>
        <time>2022-03-06T10:45:30Z</time>
      </trkpt>
      <trkpt lat="45.34454" lon="5.86108">
        <ele>1401</ele>
        <time>2022-03-06T10:45:32Z</time>
      </trkpt>
      <trkpt lat="45.34454" lon="5.86109">
        <ele>1402</ele>
        <time>2022-03-06T10:45:34Z</time>
      </trkpt>
      <trkpt lat="45.34455" lon="5.86109">
        <ele>1402</ele>
        <time>2022-03-06T10:45:35Z</time>
      </trkpt>
      <trkpt lat="45.34455" lon="5.8611">
        <ele>1403</ele>
        <time>2022-03-06T10:45:36Z</time>
      </trkpt>
      <trkpt lat="45.34456" lon="5.8611">
        <ele>1403</ele>
        <time>2022-03-06T10:45:37Z</time>
      </trkpt>
      <trkpt lat="45.34457" lon="5.8611">
        <ele>1403</ele>
        <time>2022-03-06T10:45:40Z</time>
      </trkpt>
      <trkpt lat="45.34457" lon="5.86111">
        <ele>1403</ele>
        <time>2022-03-06T10:45:41Z</time>
      </trkpt>
      <trkpt lat="45.34458" lon="5.86111">
        <ele>1403</ele>
        <time>2022-03-06T10:45:42Z</time>
      </trkpt>
      <trkpt lat="45.34459" lon="5.86111">
        <ele>1403</ele>
        <time>2022-03-06T10:45:45Z</time>
      </trkpt>
      <trkpt lat="45.3446" lon="5.86112">
        <ele>1403</ele>
        <time>2022-03-06T10:45:47Z</time>
      </trkpt>
      <trkpt lat="45.34461" lon="5.86112">
        <ele>1403</ele>
        <time>2022-03-06T10:45:50Z</time>
      </trkpt>
      <trkpt lat="45.34461" lon="5.86112">
        <ele>1403</ele>
        <time>2022-03-06T10:45:51Z</time>
      </trkpt>
      <trkpt lat="45.34462" lon="5.86112">
        <ele>1403</ele>
        <time>2022-03-06T10:45:52Z</time>
      </trkpt>
      <trkpt lat="45.34462" lon="5.86113">
        <ele>1403</ele>
        <time>2022-03-06T10:45:53Z</time>
      </trkpt>
      <trkpt lat="45.34463" lon="5.86113">
        <ele>1403</ele>
        <time>2022-03-06T10:45:54Z</time>
      </trkpt>
      <trkpt lat="45.34464" lon="5.86113">
        <ele>1404</ele>
        <time>2022-03-06T10:45:57Z</time>
      </trkpt>
      <trkpt lat="45.34465" lon="5.86114">
        <ele>1404</ele>
        <time>2022-03-06T10:45:59Z</time>
      </trkpt>
      <trkpt lat="45.34466" lon="5.86114">
        <ele>1404</ele>
        <time>2022-03-06T10:46:02Z</time>
      </trkpt>
      <trkpt lat="45.34466" lon="5.86114">
        <ele>1405</ele>
        <time>2022-03-06T10:46:03Z</time>
      </trkpt>
      <trkpt lat="45.34467" lon="5.86115">
        <ele>1405</ele>
        <time>2022-03-06T10:46:04Z</time>
      </trkpt>
      <trkpt lat="45.34468" lon="5.86115">
        <ele>1405</ele>
        <time>2022-03-06T10:46:07Z</time>
      </trkpt>
      <trkpt lat="45.34468" lon="5.86116">
        <ele>1406</ele>
        <time>2022-03-06T10:46:08Z</time>
      </trkpt>
      <trkpt lat="45.34469" lon="5.86116">
        <ele>1406</ele>
        <time>2022-03-06T10:46:09Z</time>
      </trkpt>
      <trkpt lat="45.3447" lon="5.86116">
        <ele>1406</ele>
        <time>2022-03-06T10:46:11Z</time>
      </trkpt>
      <trkpt lat="45.3447" lon="5.86117">
        <ele>1407</ele>
        <time>2022-03-06T10:46:13Z</time>
      </trkpt>
      <trkpt lat="45.34471" lon="5.86117">
        <ele>1407</ele>
        <time>2022-03-06T10:46:14Z</time>
      </trkpt>
      <trkpt lat="45.34472" lon="5.86117">
        <ele>1407</ele>
        <time>2022-03-06T10:46:16Z</time>
      </trkpt>
      <trkpt lat="45.34472" lon="5.86118">
        <ele>1407</ele>
        <time>2022-03-06T10:46:17Z</time>
      </trkpt>
      <trkpt lat="45.34473" lon="5.86118">
        <ele>1408</ele>
        <time>2022-03-06T10:46:19Z</time>
      </trkpt>
      <trkpt lat="45.34474" lon="5.86119">
        <ele>1408</ele>
        <time>2022-03-06T10:46:21Z</time>
      </trkpt>
      <trkpt lat="45.34474" lon="5.8612">
        <ele>1408</ele>
        <time>2022-03-06T10:46:22Z</time>
      </trkpt>
      <trkpt lat="45.34475" lon="5.86121">
        <ele>1409</ele>
        <time>2022-03-06T10:46:23Z</time>
      </trkpt>
      <trkpt lat="45.34476" lon="5.86122">
        <ele>1409</ele>
        <time>2022-03-06T10:46:24Z</time>
      </trkpt>
      <trkpt lat="45.34477" lon="5.86123">
        <ele>1409</ele>
        <time>2022-03-06T10:46:25Z</time>
      </trkpt>
      <trkpt lat="45.34477" lon="5.86124">
        <ele>1409</ele>
        <time>2022-03-06T10:46:26Z</time>
      </trkpt>
      <trkpt lat="45.34478" lon="5.86125">
        <ele>1409</ele>
        <time>2022-03-06T10:46:27Z</time>
      </trkpt>
      <trkpt lat="45.34479" lon="5.86126">
        <ele>1410</ele>
        <time>2022-03-06T10:46:28Z</time>
      </trkpt>
      <trkpt lat="45.34479" lon="5.86127">
        <ele>1410</ele>
        <time>2022-03-06T10:46:29Z</time>
      </trkpt>
      <trkpt lat="45.3448" lon="5.86128">
        <ele>1410</ele>
        <time>2022-03-06T10:46:30Z</time>
      </trkpt>
      <trkpt lat="45.34481" lon="5.86129">
        <ele>1410</ele>
        <time>2022-03-06T10:46:31Z</time>
      </trkpt>
      <trkpt lat="45.34481" lon="5.8613">
        <ele>1410</ele>
        <time>2022-03-06T10:46:32Z</time>
      </trkpt>
      <trkpt lat="45.34482" lon="5.86131">
        <ele>1410</ele>
        <time>2022-03-06T10:46:33Z</time>
      </trkpt>
      <trkpt lat="45.34482" lon="5.86132">
        <ele>1410</ele>
        <time>2022-03-06T10:46:34Z</time>
      </trkpt>
      <trkpt lat="45.34483" lon="5.86132">
        <ele>1411</ele>
        <time>2022-03-06T10:46:35Z</time>
      </trkpt>
      <trkpt lat="45.34483" lon="5.86133">
        <ele>1411</ele>
        <time>2022-03-06T10:46:36Z</time>
      </trkpt>
      <trkpt lat="45.34484" lon="5.86134">
        <ele>1411</ele>
        <time>2022-03-06T10:46:37Z</time>
      </trkpt>
      <trkpt lat="45.34484" lon="5.86135">
        <ele>1411</ele>
        <time>2022-03-06T10:46:38Z</time>
      </trkpt>
      <trkpt lat="45.34485" lon="5.86135">
        <ele>1411</ele>
        <time>2022-03-06T10:46:39Z</time>
      </trkpt>
      <trkpt lat="45.34485" lon="5.86136">
        <ele>1411</ele>
        <time>2022-03-06T10:46:40Z</time>
      </trkpt>
      <trkpt lat="45.34486" lon="5.86137">
        <ele>1412</ele>
        <time>2022-03-06T10:46:41Z</time>
      </trkpt>
      <trkpt lat="45.34487" lon="5.86138">
        <ele>1412</ele>
        <time>2022-03-06T10:46:42Z</time>
      </trkpt>
      <trkpt lat="45.34487" lon="5.86139">
        <ele>1412</ele>
        <time>2022-03-06T10:46:44Z</time>
      </trkpt>
      <trkpt lat="45.34488" lon="5.86139">
        <ele>1412</ele>
        <time>2022-03-06T10:46:45Z</time>
      </trkpt>
      <trkpt lat="45.34488" lon="5.8614">
        <ele>1412</ele>
        <time>2022-03-06T10:46:46Z</time>
      </trkpt>
      <trkpt lat="45.34489" lon="5.8614">
        <ele>1413</ele>
        <time>2022-03-06T10:46:47Z</time>
      </trkpt>
      <trkpt lat="45.34489" lon="5.86141">
        <ele>1413</ele>
        <time>2022-03-06T10:46:48Z</time>
      </trkpt>
      <trkpt lat="45.3449" lon="5.86142">
        <ele>1414</ele>
        <time>2022-03-06T10:46:50Z</time>
      </trkpt>
      <trkpt lat="45.34491" lon="5.86143">
        <ele>1414</ele>
        <time>2022-03-06T10:46:52Z</time>
      </trkpt>
      <trkpt lat="45.34491" lon="5.86144">
        <ele>1415</ele>
        <time>2022-03-06T10:46:54Z</time>
      </trkpt>
      <trkpt lat="45.34492" lon="5.86144">
        <ele>1415</ele>
        <time>2022-03-06T10:46:55Z</time>
      </trkpt>
      <trkpt lat="45.34492" lon="5.86145">
        <ele>1415</ele>
        <time>2022-03-06T10:46:56Z</time>
      </trkpt>
      <trkpt lat="45.34493" lon="5.86145">
        <ele>1415</ele>
        <time>2022-03-06T10:46:57Z</time>
      </trkpt>
      <trkpt lat="45.34493" lon="5.86146">
        <ele>1415</ele>
        <time>2022-03-06T10:46:58Z</time>
      </trkpt>
      <trkpt lat="45.34494" lon="5.86147">
        <ele>1416</ele>
        <time>2022-03-06T10:47:00Z</time>
      </trkpt>
      <trkpt lat="45.34495" lon="5.86148">
        <ele>1417</ele>
        <time>2022-03-06T10:47:02Z</time>
      </trkpt>
      <trkpt lat="45.34495" lon="5.86149">
        <ele>1417</ele>
        <time>2022-03-06T10:47:03Z</time>
      </trkpt>
      <trkpt lat="45.34496" lon="5.86149">
        <ele>1417</ele>
        <time>2022-03-06T10:47:04Z</time>
      </trkpt>
      <trkpt lat="45.34496" lon="5.8615">
        <ele>1417</ele>
        <time>2022-03-06T10:47:05Z</time>
      </trkpt>
      <trkpt lat="45.34496" lon="5.86151">
        <ele>1417</ele>
        <time>2022-03-06T10:47:06Z</time>
      </trkpt>
      <trkpt lat="45.34497" lon="5.86151">
        <ele>1417</ele>
        <time>2022-03-06T10:47:07Z</time>
      </trkpt>
      <trkpt lat="45.34497" lon="5.86152">
        <ele>1418</ele>
        <time>2022-03-06T10:47:08Z</time>
      </trkpt>
      <trkpt lat="45.34498" lon="5.86152">
        <ele>1418</ele>
        <time>2022-03-06T10:47:09Z</time>
      </trkpt>
      <trkpt lat="45.34498" lon="5.86153">
        <ele>1418</ele>
        <time>2022-03-06T10:47:10Z</time>
      </trkpt>
      <trkpt lat="45.34499" lon="5.86154">
        <ele>1418</ele>
        <time>2022-03-06T10:47:11Z</time>
      </trkpt>
      <trkpt lat="45.34499" lon="5.86155">
        <ele>1419</ele>
        <time>2022-03-06T10:47:13Z</time>
      </trkpt>
      <trkpt lat="45.345" lon="5.86156">
        <ele>1419</ele>
        <time>2022-03-06T10:47:14Z</time>
      </trkpt>
      <trkpt lat="45.345" lon="5.86157">
        <ele>1419</ele>
        <time>2022-03-06T10:47:15Z</time>
      </trkpt>
      <trkpt lat="45.34501" lon="5.86157">
        <ele>1419</ele>
        <time>2022-03-06T10:47:16Z</time>
      </trkpt>
      <trkpt lat="45.34501" lon="5.86158">
        <ele>1419</ele>
        <time>2022-03-06T10:47:17Z</time>
      </trkpt>
      <trkpt lat="45.34501" lon="5.86159">
        <ele>1419</ele>
        <time>2022-03-06T10:47:18Z</time>
      </trkpt>
      <trkpt lat="45.34502" lon="5.8616">
        <ele>1420</ele>
        <time>2022-03-06T10:47:19Z</time>
      </trkpt>
      <trkpt lat="45.34502" lon="5.86161">
        <ele>1420</ele>
        <time>2022-03-06T10:47:20Z</time>
      </trkpt>
      <trkpt lat="45.34502" lon="5.86162">
        <ele>1420</ele>
        <time>2022-03-06T10:47:21Z</time>
      </trkpt>
      <trkpt lat="45.34503" lon="5.86163">
        <ele>1421</ele>
        <time>2022-03-06T10:47:22Z</time>
      </trkpt>
      <trkpt lat="45.34503" lon="5.86164">
        <ele>1421</ele>
        <time>2022-03-06T10:47:23Z</time>
      </trkpt>
      <trkpt lat="45.34503" lon="5.86165">
        <ele>1421</ele>
        <time>2022-03-06T10:47:24Z</time>
      </trkpt>
      <trkpt lat="45.34504" lon="5.86165">
        <ele>1421</ele>
        <time>2022-03-06T10:47:25Z</time>
      </trkpt>
      <trkpt lat="45.34504" lon="5.86166">
        <ele>1421</ele>
        <time>2022-03-06T10:47:26Z</time>
      </trkpt>
      <trkpt lat="45.34504" lon="5.86167">
        <ele>1421</ele>
        <time>2022-03-06T10:47:27Z</time>
      </trkpt>
      <trkpt lat="45.34504" lon="5.86168">
        <ele>1422</ele>
        <time>2022-03-06T10:47:29Z</time>
      </trkpt>
      <trkpt lat="45.34504" lon="5.86168">
        <ele>1422</ele>
        <time>2022-03-06T10:47:32Z</time>
      </trkpt>
      <trkpt lat="45.34503" lon="5.86168">
        <ele>1422</ele>
        <time>2022-03-06T10:47:33Z</time>
      </trkpt>
      <trkpt lat="45.34503" lon="5.86169">
        <ele>1422</ele>
        <time>2022-03-06T10:47:35Z</time>
      </trkpt>
      <trkpt lat="45.34503" lon="5.86169">
        <ele>1423</ele>
        <time>2022-03-06T10:47:38Z</time>
      </trkpt>
      <trkpt lat="45.34502" lon="5.8617">
        <ele>1423</ele>
        <time>2022-03-06T10:47:41Z</time>
      </trkpt>
      <trkpt lat="45.34502" lon="5.8617">
        <ele>1423</ele>
        <time>2022-03-06T10:47:43Z</time>
      </trkpt>
      <trkpt lat="45.34502" lon="5.86171">
        <ele>1423</ele>
        <time>2022-03-06T10:47:47Z</time>
      </trkpt>
      <trkpt lat="45.34502" lon="5.86171">
        <ele>1423</ele>
        <time>2022-03-06T10:47:48Z</time>
      </trkpt>
      <trkpt lat="45.34501" lon="5.86171">
        <ele>1423</ele>
        <time>2022-03-06T10:47:49Z</time>
      </trkpt>
      <trkpt lat="45.34501" lon="5.86172">
        <ele>1424</ele>
        <time>2022-03-06T10:47:53Z</time>
      </trkpt>
      <trkpt lat="45.34501" lon="5.86172">
        <ele>1424</ele>
        <time>2022-03-06T10:47:54Z</time>
      </trkpt>
      <trkpt lat="45.345" lon="5.86172">
        <ele>1424</ele>
        <time>2022-03-06T10:47:57Z</time>
      </trkpt>
      <trkpt lat="45.345" lon="5.86173">
        <ele>1424</ele>
        <time>2022-03-06T10:47:59Z</time>
      </trkpt>
      <trkpt lat="45.345" lon="5.86173">
        <ele>1423</ele>
        <time>2022-03-06T10:48:02Z</time>
      </trkpt>
      <trkpt lat="45.345" lon="5.86174">
        <ele>1423</ele>
        <time>2022-03-06T10:48:05Z</time>
      </trkpt>
      <trkpt lat="45.34499" lon="5.86174">
        <ele>1423</ele>
        <time>2022-03-06T10:48:06Z</time>
      </trkpt>
      <trkpt lat="45.345" lon="5.86174">
        <ele>1423</ele>
        <time>2022-03-06T10:48:08Z</time>
      </trkpt>
      <trkpt lat="45.345" lon="5.86175">
        <ele>1424</ele>
        <time>2022-03-06T10:48:11Z</time>
      </trkpt>
      <trkpt lat="45.345" lon="5.86175">
        <ele>1424</ele>
        <time>2022-03-06T10:48:12Z</time>
      </trkpt>
      <trkpt lat="45.34501" lon="5.86175">
        <ele>1424</ele>
        <time>2022-03-06T10:48:13Z</time>
      </trkpt>
      <trkpt lat="45.34502" lon="5.86175">
        <ele>1424</ele>
        <time>2022-03-06T10:48:17Z</time>
      </trkpt>
      <trkpt lat="45.34502" lon="5.86176">
        <ele>1424</ele>
        <time>2022-03-06T10:48:18Z</time>
      </trkpt>
      <trkpt lat="45.34503" lon="5.86176">
        <ele>1424</ele>
        <time>2022-03-06T10:48:22Z</time>
      </trkpt>
      <trkpt lat="45.34503" lon="5.86176">
        <ele>1424</ele>
        <time>2022-03-06T10:48:23Z</time>
      </trkpt>
      <trkpt lat="45.34503" lon="5.86177">
        <ele>1424</ele>
        <time>2022-03-06T10:48:25Z</time>
      </trkpt>
      <trkpt lat="45.34504" lon="5.86177">
        <ele>1424</ele>
        <time>2022-03-06T10:48:26Z</time>
      </trkpt>
      <trkpt lat="45.34504" lon="5.86177">
        <ele>1424</ele>
        <time>2022-03-06T10:48:30Z</time>
      </trkpt>
      <trkpt lat="45.34505" lon="5.86178">
        <ele>1424</ele>
        <time>2022-03-06T10:48:31Z</time>
      </trkpt>
      <trkpt lat="45.34506" lon="5.86178">
        <ele>1424</ele>
        <time>2022-03-06T10:48:35Z</time>
      </trkpt>
      <trkpt lat="45.34506" lon="5.86178">
        <ele>1424</ele>
        <time>2022-03-06T10:48:36Z</time>
      </trkpt>
      <trkpt lat="45.34506" lon="5.86179">
        <ele>1426</ele>
        <time>2022-03-06T10:48:38Z</time>
      </trkpt>
      <trkpt lat="45.34507" lon="5.86179">
        <ele>1426</ele>
        <time>2022-03-06T10:48:40Z</time>
      </trkpt>
      <trkpt lat="45.34507" lon="5.86179">
        <ele>1426</ele>
        <time>2022-03-06T10:48:42Z</time>
      </trkpt>
      <trkpt lat="45.34508" lon="5.86179">
        <ele>1427</ele>
        <time>2022-03-06T10:48:44Z</time>
      </trkpt>
      <trkpt lat="45.34508" lon="5.8618">
        <ele>1427</ele>
        <time>2022-03-06T10:48:45Z</time>
      </trkpt>
      <trkpt lat="45.34509" lon="5.8618">
        <ele>1427</ele>
        <time>2022-03-06T10:48:47Z</time>
      </trkpt>
      <trkpt lat="45.34509" lon="5.86181">
        <ele>1427</ele>
        <time>2022-03-06T10:48:48Z</time>
      </trkpt>
      <trkpt lat="45.3451" lon="5.86181">
        <ele>1428</ele>
        <time>2022-03-06T10:48:49Z</time>
      </trkpt>
      <trkpt lat="45.34511" lon="5.86182">
        <ele>1428</ele>
        <time>2022-03-06T10:48:51Z</time>
      </trkpt>
      <trkpt lat="45.34512" lon="5.86183">
        <ele>1428</ele>
        <time>2022-03-06T10:48:53Z</time>
      </trkpt>
      <trkpt lat="45.34513" lon="5.86183">
        <ele>1429</ele>
        <time>2022-03-06T10:48:55Z</time>
      </trkpt>
      <trkpt lat="45.34513" lon="5.86184">
        <ele>1430</ele>
        <time>2022-03-06T10:48:56Z</time>
      </trkpt>
      <trkpt lat="45.34514" lon="5.86184">
        <ele>1430</ele>
        <time>2022-03-06T10:48:57Z</time>
      </trkpt>
      <trkpt lat="45.34514" lon="5.86185">
        <ele>1430</ele>
        <time>2022-03-06T10:48:58Z</time>
      </trkpt>
      <trkpt lat="45.34515" lon="5.86185">
        <ele>1430</ele>
        <time>2022-03-06T10:48:59Z</time>
      </trkpt>
      <trkpt lat="45.34516" lon="5.86186">
        <ele>1431</ele>
        <time>2022-03-06T10:49:01Z</time>
      </trkpt>
      <trkpt lat="45.34516" lon="5.86187">
        <ele>1431</ele>
        <time>2022-03-06T10:49:03Z</time>
      </trkpt>
      <trkpt lat="45.34516" lon="5.86188">
        <ele>1431</ele>
        <time>2022-03-06T10:49:05Z</time>
      </trkpt>
      <trkpt lat="45.34516" lon="5.86189">
        <ele>1432</ele>
        <time>2022-03-06T10:49:07Z</time>
      </trkpt>
      <trkpt lat="45.34516" lon="5.8619">
        <ele>1432</ele>
        <time>2022-03-06T10:49:08Z</time>
      </trkpt>
      <trkpt lat="45.34516" lon="5.86191">
        <ele>1432</ele>
        <time>2022-03-06T10:49:10Z</time>
      </trkpt>
      <trkpt lat="45.34516" lon="5.86192">
        <ele>1432</ele>
        <time>2022-03-06T10:49:12Z</time>
      </trkpt>
      <trkpt lat="45.34516" lon="5.86193">
        <ele>1432</ele>
        <time>2022-03-06T10:49:13Z</time>
      </trkpt>
      <trkpt lat="45.34516" lon="5.86194">
        <ele>1432</ele>
        <time>2022-03-06T10:49:15Z</time>
      </trkpt>
      <trkpt lat="45.34516" lon="5.86195">
        <ele>1433</ele>
        <time>2022-03-06T10:49:17Z</time>
      </trkpt>
      <trkpt lat="45.34516" lon="5.86196">
        <ele>1433</ele>
        <time>2022-03-06T10:49:19Z</time>
      </trkpt>
      <trkpt lat="45.34516" lon="5.86197">
        <ele>1433</ele>
        <time>2022-03-06T10:49:20Z</time>
      </trkpt>
      <trkpt lat="45.34516" lon="5.86198">
        <ele>1433</ele>
        <time>2022-03-06T10:49:22Z</time>
      </trkpt>
      <trkpt lat="45.34516" lon="5.86199">
        <ele>1433</ele>
        <time>2022-03-06T10:49:24Z</time>
      </trkpt>
      <trkpt lat="45.34516" lon="5.862">
        <ele>1433</ele>
        <time>2022-03-06T10:49:25Z</time>
      </trkpt>
      <trkpt lat="45.34517" lon="5.862">
        <ele>1433</ele>
        <time>2022-03-06T10:49:26Z</time>
      </trkpt>
      <trkpt lat="45.34517" lon="5.86201">
        <ele>1433</ele>
        <time>2022-03-06T10:49:27Z</time>
      </trkpt>
      <trkpt lat="45.34518" lon="5.86202">
        <ele>1433</ele>
        <time>2022-03-06T10:49:29Z</time>
      </trkpt>
      <trkpt lat="45.34518" lon="5.86203">
        <ele>1433</ele>
        <time>2022-03-06T10:49:30Z</time>
      </trkpt>
      <trkpt lat="45.34519" lon="5.86203">
        <ele>1434</ele>
        <time>2022-03-06T10:49:31Z</time>
      </trkpt>
      <trkpt lat="45.34519" lon="5.86204">
        <ele>1435</ele>
        <time>2022-03-06T10:49:32Z</time>
      </trkpt>
      <trkpt lat="45.3452" lon="5.86204">
        <ele>1435</ele>
        <time>2022-03-06T10:49:33Z</time>
      </trkpt>
      <trkpt lat="45.3452" lon="5.86205">
        <ele>1435</ele>
        <time>2022-03-06T10:49:34Z</time>
      </trkpt>
      <trkpt lat="45.3452" lon="5.86206">
        <ele>1435</ele>
        <time>2022-03-06T10:49:35Z</time>
      </trkpt>
      <trkpt lat="45.34521" lon="5.86206">
        <ele>1435</ele>
        <time>2022-03-06T10:49:36Z</time>
      </trkpt>
      <trkpt lat="45.34521" lon="5.86207">
        <ele>1435</ele>
        <time>2022-03-06T10:49:37Z</time>
      </trkpt>
      <trkpt lat="45.34522" lon="5.86208">
        <ele>1435</ele>
        <time>2022-03-06T10:49:38Z</time>
      </trkpt>
      <trkpt lat="45.34522" lon="5.86209">
        <ele>1435</ele>
        <time>2022-03-06T10:49:40Z</time>
      </trkpt>
      <trkpt lat="45.34523" lon="5.86209">
        <ele>1435</ele>
        <time>2022-03-06T10:49:41Z</time>
      </trkpt>
      <trkpt lat="45.34523" lon="5.8621">
        <ele>1436</ele>
        <time>2022-03-06T10:49:42Z</time>
      </trkpt>
      <trkpt lat="45.34524" lon="5.86211">
        <ele>1436</ele>
        <time>2022-03-06T10:49:43Z</time>
      </trkpt>
      <trkpt lat="45.34525" lon="5.86211">
        <ele>1436</ele>
        <time>2022-03-06T10:49:44Z</time>
      </trkpt>
      <trkpt lat="45.34525" lon="5.86212">
        <ele>1436</ele>
        <time>2022-03-06T10:49:45Z</time>
      </trkpt>
      <trkpt lat="45.34526" lon="5.86212">
        <ele>1436</ele>
        <time>2022-03-06T10:49:46Z</time>
      </trkpt>
      <trkpt lat="45.34526" lon="5.86213">
        <ele>1437</ele>
        <time>2022-03-06T10:49:47Z</time>
      </trkpt>
      <trkpt lat="45.34527" lon="5.86214">
        <ele>1437</ele>
        <time>2022-03-06T10:49:48Z</time>
      </trkpt>
      <trkpt lat="45.34528" lon="5.86215">
        <ele>1438</ele>
        <time>2022-03-06T10:49:50Z</time>
      </trkpt>
      <trkpt lat="45.34528" lon="5.86216">
        <ele>1438</ele>
        <time>2022-03-06T10:49:51Z</time>
      </trkpt>
      <trkpt lat="45.34529" lon="5.86216">
        <ele>1438</ele>
        <time>2022-03-06T10:49:52Z</time>
      </trkpt>
      <trkpt lat="45.3453" lon="5.86217">
        <ele>1438</ele>
        <time>2022-03-06T10:49:53Z</time>
      </trkpt>
      <trkpt lat="45.34531" lon="5.86218">
        <ele>1438</ele>
        <time>2022-03-06T10:49:55Z</time>
      </trkpt>
      <trkpt lat="45.34532" lon="5.86218">
        <ele>1439</ele>
        <time>2022-03-06T10:49:58Z</time>
      </trkpt>
      <trkpt lat="45.34532" lon="5.86218">
        <ele>1439</ele>
        <time>2022-03-06T10:49:59Z</time>
      </trkpt>
      <trkpt lat="45.34533" lon="5.86218">
        <ele>1439</ele>
        <time>2022-03-06T10:50:00Z</time>
      </trkpt>
      <trkpt lat="45.34533" lon="5.86219">
        <ele>1439</ele>
        <time>2022-03-06T10:50:01Z</time>
      </trkpt>
      <trkpt lat="45.34534" lon="5.86219">
        <ele>1439</ele>
        <time>2022-03-06T10:50:02Z</time>
      </trkpt>
      <trkpt lat="45.34535" lon="5.86219">
        <ele>1439</ele>
        <time>2022-03-06T10:50:05Z</time>
      </trkpt>
      <trkpt lat="45.34536" lon="5.8622">
        <ele>1440</ele>
        <time>2022-03-06T10:50:07Z</time>
      </trkpt>
      <trkpt lat="45.34537" lon="5.8622">
        <ele>1440</ele>
        <time>2022-03-06T10:50:09Z</time>
      </trkpt>
      <trkpt lat="45.34537" lon="5.8622">
        <ele>1440</ele>
        <time>2022-03-06T10:50:11Z</time>
      </trkpt>
      <trkpt lat="45.34538" lon="5.8622">
        <ele>1440</ele>
        <time>2022-03-06T10:50:12Z</time>
      </trkpt>
      <trkpt lat="45.34538" lon="5.86221">
        <ele>1440</ele>
        <time>2022-03-06T10:50:13Z</time>
      </trkpt>
      <trkpt lat="45.34539" lon="5.86221">
        <ele>1440</ele>
        <time>2022-03-06T10:50:14Z</time>
      </trkpt>
      <trkpt lat="45.34538" lon="5.8622">
        <ele>1440</ele>
        <time>2022-03-06T10:50:15Z</time>
      </trkpt>
      <trkpt lat="45.34537" lon="5.86218">
        <ele>1440</ele>
        <time>2022-03-06T10:50:16Z</time>
      </trkpt>
      <trkpt lat="45.34536" lon="5.86217">
        <ele>1440</ele>
        <time>2022-03-06T10:50:17Z</time>
      </trkpt>
      <trkpt lat="45.34536" lon="5.86216">
        <ele>1440</ele>
        <time>2022-03-06T10:50:18Z</time>
      </trkpt>
      <trkpt lat="45.34535" lon="5.86215">
        <ele>1440</ele>
        <time>2022-03-06T10:50:19Z</time>
      </trkpt>
      <trkpt lat="45.34534" lon="5.86214">
        <ele>1440</ele>
        <time>2022-03-06T10:50:20Z</time>
      </trkpt>
      <trkpt lat="45.34533" lon="5.86213">
        <ele>1439</ele>
        <time>2022-03-06T10:50:21Z</time>
      </trkpt>
      <trkpt lat="45.34532" lon="5.86211">
        <ele>1440</ele>
        <time>2022-03-06T10:50:22Z</time>
      </trkpt>
      <trkpt lat="45.34523" lon="5.86216">
        <ele>1440</ele>
        <time>2022-03-06T10:50:25Z</time>
      </trkpt>
      <trkpt lat="45.3452" lon="5.86217">
        <ele>1440</ele>
        <time>2022-03-06T10:50:28Z</time>
      </trkpt>
      <trkpt lat="45.34518" lon="5.86219">
        <ele>1440</ele>
        <time>2022-03-06T10:50:29Z</time>
      </trkpt>
      <trkpt lat="45.34514" lon="5.86222">
        <ele>1440</ele>
        <time>2022-03-06T10:50:30Z</time>
      </trkpt>
      <trkpt lat="45.34515" lon="5.86222">
        <ele>1439</ele>
        <time>2022-03-06T10:50:31Z</time>
      </trkpt>
      <trkpt lat="45.34516" lon="5.86222">
        <ele>1439</ele>
        <time>2022-03-06T10:50:32Z</time>
      </trkpt>
      <trkpt lat="45.34517" lon="5.86222">
        <ele>1439</ele>
        <time>2022-03-06T10:50:33Z</time>
      </trkpt>
      <trkpt lat="45.34519" lon="5.86222">
        <ele>1439</ele>
        <time>2022-03-06T10:50:34Z</time>
      </trkpt>
      <trkpt lat="45.3452" lon="5.86222">
        <ele>1439</ele>
        <time>2022-03-06T10:50:35Z</time>
      </trkpt>
      <trkpt lat="45.34521" lon="5.86222">
        <ele>1440</ele>
        <time>2022-03-06T10:50:36Z</time>
      </trkpt>
      <trkpt lat="45.34522" lon="5.86222">
        <ele>1440</ele>
        <time>2022-03-06T10:50:37Z</time>
      </trkpt>
      <trkpt lat="45.34524" lon="5.86222">
        <ele>1440</ele>
        <time>2022-03-06T10:50:38Z</time>
      </trkpt>
      <trkpt lat="45.34525" lon="5.86223">
        <ele>1440</ele>
        <time>2022-03-06T10:50:39Z</time>
      </trkpt>
      <trkpt lat="45.34526" lon="5.86224">
        <ele>1440</ele>
        <time>2022-03-06T10:50:40Z</time>
      </trkpt>
      <trkpt lat="45.34527" lon="5.86225">
        <ele>1440</ele>
        <time>2022-03-06T10:50:41Z</time>
      </trkpt>
      <trkpt lat="45.34528" lon="5.86225">
        <ele>1440</ele>
        <time>2022-03-06T10:50:42Z</time>
      </trkpt>
      <trkpt lat="45.34529" lon="5.86226">
        <ele>1441</ele>
        <time>2022-03-06T10:50:43Z</time>
      </trkpt>
      <trkpt lat="45.3453" lon="5.86227">
        <ele>1441</ele>
        <time>2022-03-06T10:50:44Z</time>
      </trkpt>
      <trkpt lat="45.34531" lon="5.86228">
        <ele>1442</ele>
        <time>2022-03-06T10:50:45Z</time>
      </trkpt>
      <trkpt lat="45.34532" lon="5.86229">
        <ele>1442</ele>
        <time>2022-03-06T10:50:46Z</time>
      </trkpt>
      <trkpt lat="45.34533" lon="5.8623">
        <ele>1442</ele>
        <time>2022-03-06T10:50:47Z</time>
      </trkpt>
      <trkpt lat="45.34533" lon="5.86231">
        <ele>1442</ele>
        <time>2022-03-06T10:50:49Z</time>
      </trkpt>
      <trkpt lat="45.34534" lon="5.86231">
        <ele>1442</ele>
        <time>2022-03-06T10:50:50Z</time>
      </trkpt>
      <trkpt lat="45.34534" lon="5.86232">
        <ele>1442</ele>
        <time>2022-03-06T10:50:51Z</time>
      </trkpt>
      <trkpt lat="45.34534" lon="5.86233">
        <ele>1442</ele>
        <time>2022-03-06T10:50:52Z</time>
      </trkpt>
      <trkpt lat="45.34535" lon="5.86234">
        <ele>1442</ele>
        <time>2022-03-06T10:50:54Z</time>
      </trkpt>
      <trkpt lat="45.34535" lon="5.86235">
        <ele>1443</ele>
        <time>2022-03-06T10:50:56Z</time>
      </trkpt>
      <trkpt lat="45.34535" lon="5.86236">
        <ele>1443</ele>
        <time>2022-03-06T10:50:57Z</time>
      </trkpt>
      <trkpt lat="45.34536" lon="5.86236">
        <ele>1443</ele>
        <time>2022-03-06T10:50:58Z</time>
      </trkpt>
      <trkpt lat="45.34536" lon="5.86237">
        <ele>1443</ele>
        <time>2022-03-06T10:50:59Z</time>
      </trkpt>
      <trkpt lat="45.34536" lon="5.86238">
        <ele>1443</ele>
        <time>2022-03-06T10:51:00Z</time>
      </trkpt>
      <trkpt lat="45.34537" lon="5.86238">
        <ele>1443</ele>
        <time>2022-03-06T10:51:01Z</time>
      </trkpt>
      <trkpt lat="45.34537" lon="5.86239">
        <ele>1443</ele>
        <time>2022-03-06T10:51:02Z</time>
      </trkpt>
      <trkpt lat="45.34537" lon="5.8624">
        <ele>1444</ele>
        <time>2022-03-06T10:51:04Z</time>
      </trkpt>
      <trkpt lat="45.34538" lon="5.86241">
        <ele>1444</ele>
        <time>2022-03-06T10:51:05Z</time>
      </trkpt>
      <trkpt lat="45.34538" lon="5.86242">
        <ele>1445</ele>
        <time>2022-03-06T10:51:07Z</time>
      </trkpt>
      <trkpt lat="45.34539" lon="5.86242">
        <ele>1447</ele>
        <time>2022-03-06T10:51:08Z</time>
      </trkpt>
      <trkpt lat="45.3454" lon="5.86243">
        <ele>1447</ele>
        <time>2022-03-06T10:51:10Z</time>
      </trkpt>
      <trkpt lat="45.34541" lon="5.86244">
        <ele>1447</ele>
        <time>2022-03-06T10:51:13Z</time>
      </trkpt>
      <trkpt lat="45.34541" lon="5.86244">
        <ele>1448</ele>
        <time>2022-03-06T10:51:14Z</time>
      </trkpt>
      <trkpt lat="45.34542" lon="5.86244">
        <ele>1448</ele>
        <time>2022-03-06T10:51:15Z</time>
      </trkpt>
      <trkpt lat="45.34542" lon="5.86245">
        <ele>1448</ele>
        <time>2022-03-06T10:51:16Z</time>
      </trkpt>
      <trkpt lat="45.34543" lon="5.86245">
        <ele>1448</ele>
        <time>2022-03-06T10:51:18Z</time>
      </trkpt>
      <trkpt lat="45.34543" lon="5.86246">
        <ele>1449</ele>
        <time>2022-03-06T10:51:19Z</time>
      </trkpt>
      <trkpt lat="45.34544" lon="5.86246">
        <ele>1449</ele>
        <time>2022-03-06T10:51:20Z</time>
      </trkpt>
      <trkpt lat="45.34545" lon="5.86247">
        <ele>1449</ele>
        <time>2022-03-06T10:51:23Z</time>
      </trkpt>
      <trkpt lat="45.34546" lon="5.86247">
        <ele>1450</ele>
        <time>2022-03-06T10:51:25Z</time>
      </trkpt>
      <trkpt lat="45.34546" lon="5.86248">
        <ele>1450</ele>
        <time>2022-03-06T10:51:26Z</time>
      </trkpt>
      <trkpt lat="45.34547" lon="5.86248">
        <ele>1450</ele>
        <time>2022-03-06T10:51:27Z</time>
      </trkpt>
      <trkpt lat="45.34547" lon="5.86249">
        <ele>1450</ele>
        <time>2022-03-06T10:51:28Z</time>
      </trkpt>
      <trkpt lat="45.34548" lon="5.86249">
        <ele>1450</ele>
        <time>2022-03-06T10:51:29Z</time>
      </trkpt>
      <trkpt lat="45.34549" lon="5.86249">
        <ele>1450</ele>
        <time>2022-03-06T10:51:30Z</time>
      </trkpt>
      <trkpt lat="45.34549" lon="5.8625">
        <ele>1450</ele>
        <time>2022-03-06T10:51:31Z</time>
      </trkpt>
      <trkpt lat="45.3455" lon="5.8625">
        <ele>1450</ele>
        <time>2022-03-06T10:51:32Z</time>
      </trkpt>
      <trkpt lat="45.34551" lon="5.86251">
        <ele>1450</ele>
        <time>2022-03-06T10:51:33Z</time>
      </trkpt>
      <trkpt lat="45.34552" lon="5.86251">
        <ele>1450</ele>
        <time>2022-03-06T10:51:34Z</time>
      </trkpt>
      <trkpt lat="45.34552" lon="5.86252">
        <ele>1450</ele>
        <time>2022-03-06T10:51:35Z</time>
      </trkpt>
      <trkpt lat="45.34553" lon="5.86252">
        <ele>1450</ele>
        <time>2022-03-06T10:51:36Z</time>
      </trkpt>
      <trkpt lat="45.34554" lon="5.86253">
        <ele>1450</ele>
        <time>2022-03-06T10:51:37Z</time>
      </trkpt>
      <trkpt lat="45.34555" lon="5.86254">
        <ele>1450</ele>
        <time>2022-03-06T10:51:39Z</time>
      </trkpt>
      <trkpt lat="45.34556" lon="5.86254">
        <ele>1451</ele>
        <time>2022-03-06T10:51:40Z</time>
      </trkpt>
      <trkpt lat="45.34556" lon="5.86255">
        <ele>1451</ele>
        <time>2022-03-06T10:51:41Z</time>
      </trkpt>
      <trkpt lat="45.34556" lon="5.86256">
        <ele>1451</ele>
        <time>2022-03-06T10:51:42Z</time>
      </trkpt>
      <trkpt lat="45.34557" lon="5.86257">
        <ele>1451</ele>
        <time>2022-03-06T10:51:43Z</time>
      </trkpt>
      <trkpt lat="45.34557" lon="5.86258">
        <ele>1452</ele>
        <time>2022-03-06T10:51:44Z</time>
      </trkpt>
      <trkpt lat="45.34557" lon="5.86259">
        <ele>1452</ele>
        <time>2022-03-06T10:51:45Z</time>
      </trkpt>
      <trkpt lat="45.34558" lon="5.8626">
        <ele>1452</ele>
        <time>2022-03-06T10:51:46Z</time>
      </trkpt>
      <trkpt lat="45.34558" lon="5.86261">
        <ele>1452</ele>
        <time>2022-03-06T10:51:47Z</time>
      </trkpt>
      <trkpt lat="45.34558" lon="5.86262">
        <ele>1453</ele>
        <time>2022-03-06T10:51:48Z</time>
      </trkpt>
      <trkpt lat="45.34559" lon="5.86263">
        <ele>1453</ele>
        <time>2022-03-06T10:51:49Z</time>
      </trkpt>
      <trkpt lat="45.34559" lon="5.86264">
        <ele>1453</ele>
        <time>2022-03-06T10:51:50Z</time>
      </trkpt>
      <trkpt lat="45.34559" lon="5.86265">
        <ele>1453</ele>
        <time>2022-03-06T10:51:51Z</time>
      </trkpt>
      <trkpt lat="45.3456" lon="5.86267">
        <ele>1454</ele>
        <time>2022-03-06T10:51:52Z</time>
      </trkpt>
      <trkpt lat="45.3456" lon="5.86268">
        <ele>1454</ele>
        <time>2022-03-06T10:51:54Z</time>
      </trkpt>
      <trkpt lat="45.34561" lon="5.86269">
        <ele>1454</ele>
        <time>2022-03-06T10:51:55Z</time>
      </trkpt>
      <trkpt lat="45.34561" lon="5.8627">
        <ele>1455</ele>
        <time>2022-03-06T10:51:57Z</time>
      </trkpt>
      <trkpt lat="45.34561" lon="5.86271">
        <ele>1455</ele>
        <time>2022-03-06T10:51:58Z</time>
      </trkpt>
      <trkpt lat="45.34561" lon="5.86272">
        <ele>1455</ele>
        <time>2022-03-06T10:51:59Z</time>
      </trkpt>
      <trkpt lat="45.34562" lon="5.86272">
        <ele>1455</ele>
        <time>2022-03-06T10:52:00Z</time>
      </trkpt>
      <trkpt lat="45.34562" lon="5.86273">
        <ele>1455</ele>
        <time>2022-03-06T10:52:01Z</time>
      </trkpt>
      <trkpt lat="45.34562" lon="5.86274">
        <ele>1455</ele>
        <time>2022-03-06T10:52:02Z</time>
      </trkpt>
      <trkpt lat="45.34563" lon="5.86275">
        <ele>1455</ele>
        <time>2022-03-06T10:52:04Z</time>
      </trkpt>
      <trkpt lat="45.34563" lon="5.86276">
        <ele>1457</ele>
        <time>2022-03-06T10:52:05Z</time>
      </trkpt>
      <trkpt lat="45.34563" lon="5.86277">
        <ele>1457</ele>
        <time>2022-03-06T10:52:06Z</time>
      </trkpt>
      <trkpt lat="45.34564" lon="5.86278">
        <ele>1457</ele>
        <time>2022-03-06T10:52:08Z</time>
      </trkpt>
      <trkpt lat="45.34564" lon="5.86279">
        <ele>1457</ele>
        <time>2022-03-06T10:52:09Z</time>
      </trkpt>
      <trkpt lat="45.34564" lon="5.8628">
        <ele>1457</ele>
        <time>2022-03-06T10:52:10Z</time>
      </trkpt>
      <trkpt lat="45.34563" lon="5.86281">
        <ele>1457</ele>
        <time>2022-03-06T10:52:11Z</time>
      </trkpt>
      <trkpt lat="45.34563" lon="5.86282">
        <ele>1457</ele>
        <time>2022-03-06T10:52:12Z</time>
      </trkpt>
      <trkpt lat="45.34563" lon="5.86283">
        <ele>1458</ele>
        <time>2022-03-06T10:52:13Z</time>
      </trkpt>
      <trkpt lat="45.34563" lon="5.86284">
        <ele>1458</ele>
        <time>2022-03-06T10:52:14Z</time>
      </trkpt>
      <trkpt lat="45.34563" lon="5.86285">
        <ele>1458</ele>
        <time>2022-03-06T10:52:15Z</time>
      </trkpt>
      <trkpt lat="45.34562" lon="5.86286">
        <ele>1458</ele>
        <time>2022-03-06T10:52:17Z</time>
      </trkpt>
      <trkpt lat="45.34562" lon="5.86287">
        <ele>1459</ele>
        <time>2022-03-06T10:52:18Z</time>
      </trkpt>
      <trkpt lat="45.34562" lon="5.86288">
        <ele>1459</ele>
        <time>2022-03-06T10:52:19Z</time>
      </trkpt>
      <trkpt lat="45.34562" lon="5.86289">
        <ele>1459</ele>
        <time>2022-03-06T10:52:20Z</time>
      </trkpt>
      <trkpt lat="45.34562" lon="5.8629">
        <ele>1459</ele>
        <time>2022-03-06T10:52:21Z</time>
      </trkpt>
      <trkpt lat="45.34562" lon="5.86291">
        <ele>1460</ele>
        <time>2022-03-06T10:52:22Z</time>
      </trkpt>
      <trkpt lat="45.34562" lon="5.86292">
        <ele>1460</ele>
        <time>2022-03-06T10:52:23Z</time>
      </trkpt>
      <trkpt lat="45.34561" lon="5.86294">
        <ele>1460</ele>
        <time>2022-03-06T10:52:24Z</time>
      </trkpt>
      <trkpt lat="45.34561" lon="5.86295">
        <ele>1460</ele>
        <time>2022-03-06T10:52:25Z</time>
      </trkpt>
      <trkpt lat="45.34561" lon="5.86297">
        <ele>1461</ele>
        <time>2022-03-06T10:52:26Z</time>
      </trkpt>
      <trkpt lat="45.34561" lon="5.86298">
        <ele>1461</ele>
        <time>2022-03-06T10:52:27Z</time>
      </trkpt>
      <trkpt lat="45.34561" lon="5.863">
        <ele>1462</ele>
        <time>2022-03-06T10:52:28Z</time>
      </trkpt>
      <trkpt lat="45.34561" lon="5.86301">
        <ele>1462</ele>
        <time>2022-03-06T10:52:29Z</time>
      </trkpt>
      <trkpt lat="45.34561" lon="5.86303">
        <ele>1462</ele>
        <time>2022-03-06T10:52:30Z</time>
      </trkpt>
      <trkpt lat="45.34561" lon="5.86304">
        <ele>1462</ele>
        <time>2022-03-06T10:52:31Z</time>
      </trkpt>
      <trkpt lat="45.34561" lon="5.86306">
        <ele>1462</ele>
        <time>2022-03-06T10:52:32Z</time>
      </trkpt>
      <trkpt lat="45.34561" lon="5.86307">
        <ele>1462</ele>
        <time>2022-03-06T10:52:33Z</time>
      </trkpt>
      <trkpt lat="45.34562" lon="5.86307">
        <ele>1462</ele>
        <time>2022-03-06T10:52:34Z</time>
      </trkpt>
      <trkpt lat="45.34563" lon="5.86307">
        <ele>1462</ele>
        <time>2022-03-06T10:52:35Z</time>
      </trkpt>
      <trkpt lat="45.34564" lon="5.86307">
        <ele>1461</ele>
        <time>2022-03-06T10:52:37Z</time>
      </trkpt>
      <trkpt lat="45.34565" lon="5.86308">
        <ele>1462</ele>
        <time>2022-03-06T10:52:38Z</time>
      </trkpt>
      <trkpt lat="45.34566" lon="5.86308">
        <ele>1462</ele>
        <time>2022-03-06T10:52:39Z</time>
      </trkpt>
      <trkpt lat="45.34567" lon="5.86308">
        <ele>1463</ele>
        <time>2022-03-06T10:52:40Z</time>
      </trkpt>
      <trkpt lat="45.34568" lon="5.86308">
        <ele>1463</ele>
        <time>2022-03-06T10:52:41Z</time>
      </trkpt>
      <trkpt lat="45.34569" lon="5.86308">
        <ele>1464</ele>
        <time>2022-03-06T10:52:43Z</time>
      </trkpt>
      <trkpt lat="45.3457" lon="5.86308">
        <ele>1464</ele>
        <time>2022-03-06T10:52:44Z</time>
      </trkpt>
      <trkpt lat="45.34571" lon="5.86308">
        <ele>1464</ele>
        <time>2022-03-06T10:52:45Z</time>
      </trkpt>
      <trkpt lat="45.34572" lon="5.86308">
        <ele>1464</ele>
        <time>2022-03-06T10:52:47Z</time>
      </trkpt>
      <trkpt lat="45.34573" lon="5.86308">
        <ele>1465</ele>
        <time>2022-03-06T10:52:49Z</time>
      </trkpt>
      <trkpt lat="45.34574" lon="5.86308">
        <ele>1465</ele>
        <time>2022-03-06T10:52:51Z</time>
      </trkpt>
      <trkpt lat="45.34575" lon="5.86308">
        <ele>1465</ele>
        <time>2022-03-06T10:52:53Z</time>
      </trkpt>
      <trkpt lat="45.34576" lon="5.86308">
        <ele>1465</ele>
        <time>2022-03-06T10:52:54Z</time>
      </trkpt>
      <trkpt lat="45.34577" lon="5.86308">
        <ele>1466</ele>
        <time>2022-03-06T10:52:56Z</time>
      </trkpt>
      <trkpt lat="45.34578" lon="5.86308">
        <ele>1466</ele>
        <time>2022-03-06T10:52:58Z</time>
      </trkpt>
      <trkpt lat="45.34579" lon="5.86308">
        <ele>1466</ele>
        <time>2022-03-06T10:53:00Z</time>
      </trkpt>
      <trkpt lat="45.3458" lon="5.86308">
        <ele>1467</ele>
        <time>2022-03-06T10:53:02Z</time>
      </trkpt>
      <trkpt lat="45.3458" lon="5.86309">
        <ele>1467</ele>
        <time>2022-03-06T10:53:04Z</time>
      </trkpt>
      <trkpt lat="45.34581" lon="5.8631">
        <ele>1467</ele>
        <time>2022-03-06T10:53:05Z</time>
      </trkpt>
      <trkpt lat="45.34581" lon="5.86311">
        <ele>1468</ele>
        <time>2022-03-06T10:53:07Z</time>
      </trkpt>
      <trkpt lat="45.34582" lon="5.86312">
        <ele>1468</ele>
        <time>2022-03-06T10:53:09Z</time>
      </trkpt>
      <trkpt lat="45.34582" lon="5.86313">
        <ele>1469</ele>
        <time>2022-03-06T10:53:10Z</time>
      </trkpt>
      <trkpt lat="45.34582" lon="5.86314">
        <ele>1469</ele>
        <time>2022-03-06T10:53:12Z</time>
      </trkpt>
      <trkpt lat="45.34583" lon="5.86315">
        <ele>1469</ele>
        <time>2022-03-06T10:53:13Z</time>
      </trkpt>
      <trkpt lat="45.34583" lon="5.86316">
        <ele>1470</ele>
        <time>2022-03-06T10:53:15Z</time>
      </trkpt>
      <trkpt lat="45.34584" lon="5.86317">
        <ele>1470</ele>
        <time>2022-03-06T10:53:17Z</time>
      </trkpt>
      <trkpt lat="45.34584" lon="5.86318">
        <ele>1470</ele>
        <time>2022-03-06T10:53:18Z</time>
      </trkpt>
      <trkpt lat="45.34585" lon="5.86319">
        <ele>1470</ele>
        <time>2022-03-06T10:53:20Z</time>
      </trkpt>
      <trkpt lat="45.34585" lon="5.8632">
        <ele>1471</ele>
        <time>2022-03-06T10:53:21Z</time>
      </trkpt>
      <trkpt lat="45.34585" lon="5.86321">
        <ele>1471</ele>
        <time>2022-03-06T10:53:22Z</time>
      </trkpt>
      <trkpt lat="45.34585" lon="5.86322">
        <ele>1471</ele>
        <time>2022-03-06T10:53:23Z</time>
      </trkpt>
      <trkpt lat="45.34585" lon="5.86323">
        <ele>1471</ele>
        <time>2022-03-06T10:53:24Z</time>
      </trkpt>
      <trkpt lat="45.34585" lon="5.86324">
        <ele>1472</ele>
        <time>2022-03-06T10:53:25Z</time>
      </trkpt>
      <trkpt lat="45.34585" lon="5.86325">
        <ele>1472</ele>
        <time>2022-03-06T10:53:26Z</time>
      </trkpt>
      <trkpt lat="45.34585" lon="5.86326">
        <ele>1472</ele>
        <time>2022-03-06T10:53:27Z</time>
      </trkpt>
      <trkpt lat="45.34585" lon="5.86327">
        <ele>1472</ele>
        <time>2022-03-06T10:53:28Z</time>
      </trkpt>
      <trkpt lat="45.34585" lon="5.86328">
        <ele>1472</ele>
        <time>2022-03-06T10:53:29Z</time>
      </trkpt>
      <trkpt lat="45.34586" lon="5.86329">
        <ele>1472</ele>
        <time>2022-03-06T10:53:30Z</time>
      </trkpt>
      <trkpt lat="45.34586" lon="5.8633">
        <ele>1472</ele>
        <time>2022-03-06T10:53:31Z</time>
      </trkpt>
      <trkpt lat="45.34586" lon="5.86331">
        <ele>1473</ele>
        <time>2022-03-06T10:53:32Z</time>
      </trkpt>
      <trkpt lat="45.34586" lon="5.86332">
        <ele>1473</ele>
        <time>2022-03-06T10:53:33Z</time>
      </trkpt>
      <trkpt lat="45.34586" lon="5.86333">
        <ele>1473</ele>
        <time>2022-03-06T10:53:34Z</time>
      </trkpt>
      <trkpt lat="45.34587" lon="5.86333">
        <ele>1473</ele>
        <time>2022-03-06T10:53:35Z</time>
      </trkpt>
      <trkpt lat="45.34587" lon="5.86334">
        <ele>1473</ele>
        <time>2022-03-06T10:53:36Z</time>
      </trkpt>
      <trkpt lat="45.34588" lon="5.86335">
        <ele>1473</ele>
        <time>2022-03-06T10:53:37Z</time>
      </trkpt>
      <trkpt lat="45.34589" lon="5.86336">
        <ele>1474</ele>
        <time>2022-03-06T10:53:38Z</time>
      </trkpt>
      <trkpt lat="45.3459" lon="5.86337">
        <ele>1474</ele>
        <time>2022-03-06T10:53:40Z</time>
      </trkpt>
      <trkpt lat="45.3459" lon="5.86338">
        <ele>1474</ele>
        <time>2022-03-06T10:53:41Z</time>
      </trkpt>
      <trkpt lat="45.34591" lon="5.86339">
        <ele>1475</ele>
        <time>2022-03-06T10:53:42Z</time>
      </trkpt>
      <trkpt lat="45.34592" lon="5.8634">
        <ele>1475</ele>
        <time>2022-03-06T10:53:44Z</time>
      </trkpt>
      <trkpt lat="45.34592" lon="5.86341">
        <ele>1475</ele>
        <time>2022-03-06T10:53:45Z</time>
      </trkpt>
      <trkpt lat="45.34593" lon="5.86341">
        <ele>1475</ele>
        <time>2022-03-06T10:53:46Z</time>
      </trkpt>
      <trkpt lat="45.34593" lon="5.86342">
        <ele>1475</ele>
        <time>2022-03-06T10:53:47Z</time>
      </trkpt>
      <trkpt lat="45.34594" lon="5.86343">
        <ele>1475</ele>
        <time>2022-03-06T10:53:49Z</time>
      </trkpt>
      <trkpt lat="45.34594" lon="5.86344">
        <ele>1476</ele>
        <time>2022-03-06T10:53:50Z</time>
      </trkpt>
      <trkpt lat="45.34595" lon="5.86345">
        <ele>1476</ele>
        <time>2022-03-06T10:53:52Z</time>
      </trkpt>
      <trkpt lat="45.34595" lon="5.86346">
        <ele>1476</ele>
        <time>2022-03-06T10:53:54Z</time>
      </trkpt>
      <trkpt lat="45.34596" lon="5.86346">
        <ele>1476</ele>
        <time>2022-03-06T10:53:55Z</time>
      </trkpt>
      <trkpt lat="45.34596" lon="5.86347">
        <ele>1476</ele>
        <time>2022-03-06T10:53:56Z</time>
      </trkpt>
      <trkpt lat="45.34597" lon="5.86348">
        <ele>1476</ele>
        <time>2022-03-06T10:53:58Z</time>
      </trkpt>
      <trkpt lat="45.34597" lon="5.86349">
        <ele>1478</ele>
        <time>2022-03-06T10:53:59Z</time>
      </trkpt>
      <trkpt lat="45.34597" lon="5.8635">
        <ele>1478</ele>
        <time>2022-03-06T10:54:01Z</time>
      </trkpt>
      <trkpt lat="45.34598" lon="5.8635">
        <ele>1478</ele>
        <time>2022-03-06T10:54:02Z</time>
      </trkpt>
      <trkpt lat="45.34598" lon="5.86351">
        <ele>1478</ele>
        <time>2022-03-06T10:54:03Z</time>
      </trkpt>
      <trkpt lat="45.34599" lon="5.86352">
        <ele>1479</ele>
        <time>2022-03-06T10:54:04Z</time>
      </trkpt>
      <trkpt lat="45.34599" lon="5.86353">
        <ele>1479</ele>
        <time>2022-03-06T10:54:05Z</time>
      </trkpt>
      <trkpt lat="45.346" lon="5.86354">
        <ele>1479</ele>
        <time>2022-03-06T10:54:07Z</time>
      </trkpt>
      <trkpt lat="45.346" lon="5.86355">
        <ele>1479</ele>
        <time>2022-03-06T10:54:08Z</time>
      </trkpt>
      <trkpt lat="45.34601" lon="5.86356">
        <ele>1480</ele>
        <time>2022-03-06T10:54:09Z</time>
      </trkpt>
      <trkpt lat="45.34601" lon="5.86357">
        <ele>1480</ele>
        <time>2022-03-06T10:54:10Z</time>
      </trkpt>
      <trkpt lat="45.34601" lon="5.86358">
        <ele>1480</ele>
        <time>2022-03-06T10:54:11Z</time>
      </trkpt>
      <trkpt lat="45.34602" lon="5.86359">
        <ele>1480</ele>
        <time>2022-03-06T10:54:12Z</time>
      </trkpt>
      <trkpt lat="45.34603" lon="5.8636">
        <ele>1480</ele>
        <time>2022-03-06T10:54:14Z</time>
      </trkpt>
      <trkpt lat="45.34603" lon="5.86361">
        <ele>1480</ele>
        <time>2022-03-06T10:54:15Z</time>
      </trkpt>
      <trkpt lat="45.34603" lon="5.86362">
        <ele>1480</ele>
        <time>2022-03-06T10:54:16Z</time>
      </trkpt>
      <trkpt lat="45.34604" lon="5.86362">
        <ele>1481</ele>
        <time>2022-03-06T10:54:17Z</time>
      </trkpt>
      <trkpt lat="45.34604" lon="5.86363">
        <ele>1481</ele>
        <time>2022-03-06T10:54:18Z</time>
      </trkpt>
      <trkpt lat="45.34604" lon="5.86364">
        <ele>1481</ele>
        <time>2022-03-06T10:54:19Z</time>
      </trkpt>
      <trkpt lat="45.34605" lon="5.86364">
        <ele>1481</ele>
        <time>2022-03-06T10:54:20Z</time>
      </trkpt>
      <trkpt lat="45.34605" lon="5.86365">
        <ele>1482</ele>
        <time>2022-03-06T10:54:21Z</time>
      </trkpt>
      <trkpt lat="45.34605" lon="5.86366">
        <ele>1482</ele>
        <time>2022-03-06T10:54:22Z</time>
      </trkpt>
      <trkpt lat="45.34606" lon="5.86366">
        <ele>1482</ele>
        <time>2022-03-06T10:54:23Z</time>
      </trkpt>
      <trkpt lat="45.34606" lon="5.86367">
        <ele>1482</ele>
        <time>2022-03-06T10:54:24Z</time>
      </trkpt>
      <trkpt lat="45.34606" lon="5.86368">
        <ele>1483</ele>
        <time>2022-03-06T10:54:25Z</time>
      </trkpt>
      <trkpt lat="45.34607" lon="5.86368">
        <ele>1483</ele>
        <time>2022-03-06T10:54:26Z</time>
      </trkpt>
      <trkpt lat="45.34607" lon="5.86369">
        <ele>1483</ele>
        <time>2022-03-06T10:54:27Z</time>
      </trkpt>
      <trkpt lat="45.34607" lon="5.8637">
        <ele>1483</ele>
        <time>2022-03-06T10:54:28Z</time>
      </trkpt>
      <trkpt lat="45.34608" lon="5.8637">
        <ele>1483</ele>
        <time>2022-03-06T10:54:29Z</time>
      </trkpt>
      <trkpt lat="45.34608" lon="5.86371">
        <ele>1483</ele>
        <time>2022-03-06T10:54:30Z</time>
      </trkpt>
      <trkpt lat="45.34609" lon="5.86372">
        <ele>1483</ele>
        <time>2022-03-06T10:54:31Z</time>
      </trkpt>
      <trkpt lat="45.34609" lon="5.86373">
        <ele>1483</ele>
        <time>2022-03-06T10:54:33Z</time>
      </trkpt>
      <trkpt lat="45.3461" lon="5.86374">
        <ele>1484</ele>
        <time>2022-03-06T10:54:35Z</time>
      </trkpt>
      <trkpt lat="45.3461" lon="5.86375">
        <ele>1485</ele>
        <time>2022-03-06T10:54:37Z</time>
      </trkpt>
      <trkpt lat="45.34611" lon="5.86375">
        <ele>1485</ele>
        <time>2022-03-06T10:54:38Z</time>
      </trkpt>
      <trkpt lat="45.34611" lon="5.86376">
        <ele>1485</ele>
        <time>2022-03-06T10:54:39Z</time>
      </trkpt>
      <trkpt lat="45.34612" lon="5.86377">
        <ele>1485</ele>
        <time>2022-03-06T10:54:41Z</time>
      </trkpt>
      <trkpt lat="45.34612" lon="5.86378">
        <ele>1486</ele>
        <time>2022-03-06T10:54:43Z</time>
      </trkpt>
      <trkpt lat="45.34613" lon="5.86379">
        <ele>1486</ele>
        <time>2022-03-06T10:54:45Z</time>
      </trkpt>
      <trkpt lat="45.34613" lon="5.8638">
        <ele>1486</ele>
        <time>2022-03-06T10:54:47Z</time>
      </trkpt>
      <trkpt lat="45.34614" lon="5.8638">
        <ele>1486</ele>
        <time>2022-03-06T10:54:48Z</time>
      </trkpt>
      <trkpt lat="45.34614" lon="5.86381">
        <ele>1486</ele>
        <time>2022-03-06T10:54:49Z</time>
      </trkpt>
      <trkpt lat="45.34615" lon="5.86382">
        <ele>1486</ele>
        <time>2022-03-06T10:54:51Z</time>
      </trkpt>
      <trkpt lat="45.34615" lon="5.86383">
        <ele>1486</ele>
        <time>2022-03-06T10:54:52Z</time>
      </trkpt>
      <trkpt lat="45.34615" lon="5.86384">
        <ele>1486</ele>
        <time>2022-03-06T10:54:53Z</time>
      </trkpt>
      <trkpt lat="45.34616" lon="5.86384">
        <ele>1486</ele>
        <time>2022-03-06T10:54:54Z</time>
      </trkpt>
      <trkpt lat="45.34616" lon="5.86385">
        <ele>1486</ele>
        <time>2022-03-06T10:54:55Z</time>
      </trkpt>
      <trkpt lat="45.34616" lon="5.86386">
        <ele>1487</ele>
        <time>2022-03-06T10:54:56Z</time>
      </trkpt>
      <trkpt lat="45.34617" lon="5.86387">
        <ele>1487</ele>
        <time>2022-03-06T10:54:57Z</time>
      </trkpt>
      <trkpt lat="45.34617" lon="5.86388">
        <ele>1488</ele>
        <time>2022-03-06T10:54:58Z</time>
      </trkpt>
      <trkpt lat="45.34617" lon="5.86389">
        <ele>1488</ele>
        <time>2022-03-06T10:54:59Z</time>
      </trkpt>
      <trkpt lat="45.34618" lon="5.8639">
        <ele>1488</ele>
        <time>2022-03-06T10:55:00Z</time>
      </trkpt>
      <trkpt lat="45.34618" lon="5.86391">
        <ele>1488</ele>
        <time>2022-03-06T10:55:01Z</time>
      </trkpt>
      <trkpt lat="45.34618" lon="5.86392">
        <ele>1488</ele>
        <time>2022-03-06T10:55:02Z</time>
      </trkpt>
      <trkpt lat="45.34619" lon="5.86392">
        <ele>1488</ele>
        <time>2022-03-06T10:55:03Z</time>
      </trkpt>
      <trkpt lat="45.34619" lon="5.86393">
        <ele>1488</ele>
        <time>2022-03-06T10:55:04Z</time>
      </trkpt>
      <trkpt lat="45.34619" lon="5.86394">
        <ele>1488</ele>
        <time>2022-03-06T10:55:05Z</time>
      </trkpt>
      <trkpt lat="45.34619" lon="5.86395">
        <ele>1488</ele>
        <time>2022-03-06T10:55:08Z</time>
      </trkpt>
      <trkpt lat="45.34618" lon="5.86395">
        <ele>1488</ele>
        <time>2022-03-06T10:55:09Z</time>
      </trkpt>
      <trkpt lat="45.34618" lon="5.86396">
        <ele>1488</ele>
        <time>2022-03-06T10:55:11Z</time>
      </trkpt>
      <trkpt lat="45.34618" lon="5.86397">
        <ele>1489</ele>
        <time>2022-03-06T10:55:14Z</time>
      </trkpt>
      <trkpt lat="45.34618" lon="5.86397">
        <ele>1489</ele>
        <time>2022-03-06T10:55:15Z</time>
      </trkpt>
      <trkpt lat="45.34618" lon="5.86398">
        <ele>1489</ele>
        <time>2022-03-06T10:55:17Z</time>
      </trkpt>
      <trkpt lat="45.34617" lon="5.86399">
        <ele>1489</ele>
        <time>2022-03-06T10:55:19Z</time>
      </trkpt>
      <trkpt lat="45.34617" lon="5.86399">
        <ele>1489</ele>
        <time>2022-03-06T10:55:21Z</time>
      </trkpt>
      <trkpt lat="45.34617" lon="5.864">
        <ele>1489</ele>
        <time>2022-03-06T10:55:22Z</time>
      </trkpt>
      <trkpt lat="45.34617" lon="5.86401">
        <ele>1489</ele>
        <time>2022-03-06T10:55:25Z</time>
      </trkpt>
      <trkpt lat="45.34617" lon="5.86401">
        <ele>1489</ele>
        <time>2022-03-06T10:55:27Z</time>
      </trkpt>
      <trkpt lat="45.34617" lon="5.86402">
        <ele>1490</ele>
        <time>2022-03-06T10:55:28Z</time>
      </trkpt>
      <trkpt lat="45.34616" lon="5.86402">
        <ele>1490</ele>
        <time>2022-03-06T10:55:29Z</time>
      </trkpt>
      <trkpt lat="45.34616" lon="5.86403">
        <ele>1490</ele>
        <time>2022-03-06T10:55:31Z</time>
      </trkpt>
      <trkpt lat="45.34616" lon="5.86404">
        <ele>1490</ele>
        <time>2022-03-06T10:55:34Z</time>
      </trkpt>
      <trkpt lat="45.34616" lon="5.86404">
        <ele>1490</ele>
        <time>2022-03-06T10:55:35Z</time>
      </trkpt>
      <trkpt lat="45.34616" lon="5.86405">
        <ele>1491</ele>
        <time>2022-03-06T10:55:37Z</time>
      </trkpt>
      <trkpt lat="45.34615" lon="5.86406">
        <ele>1491</ele>
        <time>2022-03-06T10:55:39Z</time>
      </trkpt>
      <trkpt lat="45.34615" lon="5.86407">
        <ele>1491</ele>
        <time>2022-03-06T10:55:41Z</time>
      </trkpt>
      <trkpt lat="45.34614" lon="5.86407">
        <ele>1492</ele>
        <time>2022-03-06T10:55:42Z</time>
      </trkpt>
      <trkpt lat="45.34614" lon="5.86408">
        <ele>1492</ele>
        <time>2022-03-06T10:55:43Z</time>
      </trkpt>
      <trkpt lat="45.34613" lon="5.86409">
        <ele>1493</ele>
        <time>2022-03-06T10:55:45Z</time>
      </trkpt>
      <trkpt lat="45.34613" lon="5.8641">
        <ele>1493</ele>
        <time>2022-03-06T10:55:47Z</time>
      </trkpt>
      <trkpt lat="45.34612" lon="5.8641">
        <ele>1494</ele>
        <time>2022-03-06T10:55:48Z</time>
      </trkpt>
      <trkpt lat="45.34612" lon="5.86411">
        <ele>1494</ele>
        <time>2022-03-06T10:55:49Z</time>
      </trkpt>
      <trkpt lat="45.34611" lon="5.86412">
        <ele>1494</ele>
        <time>2022-03-06T10:55:51Z</time>
      </trkpt>
      <trkpt lat="45.34611" lon="5.86413">
        <ele>1494</ele>
        <time>2022-03-06T10:55:53Z</time>
      </trkpt>
      <trkpt lat="45.3461" lon="5.86413">
        <ele>1495</ele>
        <time>2022-03-06T10:55:54Z</time>
      </trkpt>
      <trkpt lat="45.3461" lon="5.86414">
        <ele>1495</ele>
        <time>2022-03-06T10:55:55Z</time>
      </trkpt>
      <trkpt lat="45.34608" lon="5.86414">
        <ele>1495</ele>
        <time>2022-03-06T10:55:57Z</time>
      </trkpt>
      <trkpt lat="45.34608" lon="5.86414">
        <ele>1495</ele>
        <time>2022-03-06T10:56:00Z</time>
      </trkpt>
      <trkpt lat="45.34606" lon="5.86414">
        <ele>1495</ele>
        <time>2022-03-06T10:56:01Z</time>
      </trkpt>
      <trkpt lat="45.34604" lon="5.86413">
        <ele>1497</ele>
        <time>2022-03-06T10:56:04Z</time>
      </trkpt>
      <trkpt lat="45.34604" lon="5.86413">
        <ele>1497</ele>
        <time>2022-03-06T10:56:06Z</time>
      </trkpt>
      <trkpt lat="45.34602" lon="5.86412">
        <ele>1497</ele>
        <time>2022-03-06T10:56:07Z</time>
      </trkpt>
      <trkpt lat="45.34599" lon="5.86413">
        <ele>1497</ele>
        <time>2022-03-06T10:56:10Z</time>
      </trkpt>
      <trkpt lat="45.34599" lon="5.86413">
        <ele>1497</ele>
        <time>2022-03-06T10:56:12Z</time>
      </trkpt>
      <trkpt lat="45.34597" lon="5.86414">
        <ele>1498</ele>
        <time>2022-03-06T10:56:13Z</time>
      </trkpt>
      <trkpt lat="45.34596" lon="5.86416">
        <ele>1499</ele>
        <time>2022-03-06T10:56:17Z</time>
      </trkpt>
      <trkpt lat="45.34596" lon="5.86416">
        <ele>1499</ele>
        <time>2022-03-06T10:56:18Z</time>
      </trkpt>
      <trkpt lat="45.34594" lon="5.86418">
        <ele>1500</ele>
        <time>2022-03-06T10:56:21Z</time>
      </trkpt>
      <trkpt lat="45.34591" lon="5.86418">
        <ele>1500</ele>
        <time>2022-03-06T10:56:23Z</time>
      </trkpt>
      <trkpt lat="45.34589" lon="5.86419">
        <ele>1501</ele>
        <time>2022-03-06T10:56:24Z</time>
      </trkpt>
      <trkpt lat="45.34588" lon="5.86419">
        <ele>1501</ele>
        <time>2022-03-06T10:56:26Z</time>
      </trkpt>
      <trkpt lat="45.34587" lon="5.86419">
        <ele>1501</ele>
        <time>2022-03-06T10:56:27Z</time>
      </trkpt>
      <trkpt lat="45.34586" lon="5.86419">
        <ele>1501</ele>
        <time>2022-03-06T10:56:29Z</time>
      </trkpt>
      <trkpt lat="45.34585" lon="5.86419">
        <ele>1501</ele>
        <time>2022-03-06T10:56:30Z</time>
      </trkpt>
      <trkpt lat="45.34584" lon="5.8642">
        <ele>1501</ele>
        <time>2022-03-06T10:56:31Z</time>
      </trkpt>
      <trkpt lat="45.34583" lon="5.8642">
        <ele>1501</ele>
        <time>2022-03-06T10:56:32Z</time>
      </trkpt>
      <trkpt lat="45.34582" lon="5.8642">
        <ele>1501</ele>
        <time>2022-03-06T10:56:33Z</time>
      </trkpt>
      <trkpt lat="45.34581" lon="5.8642">
        <ele>1503</ele>
        <time>2022-03-06T10:56:35Z</time>
      </trkpt>
      <trkpt lat="45.3458" lon="5.8642">
        <ele>1503</ele>
        <time>2022-03-06T10:56:36Z</time>
      </trkpt>
      <trkpt lat="45.34578" lon="5.86424">
        <ele>1503</ele>
        <time>2022-03-06T10:56:40Z</time>
      </trkpt>
      <trkpt lat="45.34578" lon="5.86424">
        <ele>1505</ele>
        <time>2022-03-06T10:56:43Z</time>
      </trkpt>
      <trkpt lat="45.34579" lon="5.86427">
        <ele>1505</ele>
        <time>2022-03-06T10:56:44Z</time>
      </trkpt>
      <trkpt lat="45.34582" lon="5.86429">
        <ele>1505</ele>
        <time>2022-03-06T10:56:48Z</time>
      </trkpt>
      <trkpt lat="45.34582" lon="5.86429">
        <ele>1505</ele>
        <time>2022-03-06T10:56:49Z</time>
      </trkpt>
      <trkpt lat="45.34582" lon="5.86431">
        <ele>1505</ele>
        <time>2022-03-06T10:56:51Z</time>
      </trkpt>
      <trkpt lat="45.34582" lon="5.86434">
        <ele>1506</ele>
        <time>2022-03-06T10:56:54Z</time>
      </trkpt>
      <trkpt lat="45.34582" lon="5.86434">
        <ele>1507</ele>
        <time>2022-03-06T10:56:55Z</time>
      </trkpt>
      <trkpt lat="45.34583" lon="5.86437">
        <ele>1508</ele>
        <time>2022-03-06T10:56:59Z</time>
      </trkpt>
      <trkpt lat="45.34584" lon="5.86439">
        <ele>1508</ele>
        <time>2022-03-06T10:57:01Z</time>
      </trkpt>
      <trkpt lat="45.34585" lon="5.86442">
        <ele>1509</ele>
        <time>2022-03-06T10:57:04Z</time>
      </trkpt>
      <trkpt lat="45.34585" lon="5.86442">
        <ele>1509</ele>
        <time>2022-03-06T10:57:05Z</time>
      </trkpt>
      <trkpt lat="45.34586" lon="5.86445">
        <ele>1510</ele>
        <time>2022-03-06T10:57:07Z</time>
      </trkpt>
      <trkpt lat="45.34588" lon="5.86447">
        <ele>1510</ele>
        <time>2022-03-06T10:57:10Z</time>
      </trkpt>
      <trkpt lat="45.34588" lon="5.86447">
        <ele>1510</ele>
        <time>2022-03-06T10:57:11Z</time>
      </trkpt>
      <trkpt lat="45.3459" lon="5.86449">
        <ele>1511</ele>
        <time>2022-03-06T10:57:13Z</time>
      </trkpt>
      <trkpt lat="45.34591" lon="5.8645">
        <ele>1511</ele>
        <time>2022-03-06T10:57:15Z</time>
      </trkpt>
      <trkpt lat="45.34593" lon="5.86452">
        <ele>1511</ele>
        <time>2022-03-06T10:57:17Z</time>
      </trkpt>
      <trkpt lat="45.34595" lon="5.86455">
        <ele>1511</ele>
        <time>2022-03-06T10:57:19Z</time>
      </trkpt>
      <trkpt lat="45.34595" lon="5.86455">
        <ele>1512</ele>
        <time>2022-03-06T10:57:21Z</time>
      </trkpt>
      <trkpt lat="45.34597" lon="5.86457">
        <ele>1512</ele>
        <time>2022-03-06T10:57:22Z</time>
      </trkpt>
      <trkpt lat="45.346" lon="5.86459">
        <ele>1513</ele>
        <time>2022-03-06T10:57:25Z</time>
      </trkpt>
      <trkpt lat="45.346" lon="5.86459">
        <ele>1513</ele>
        <time>2022-03-06T10:57:27Z</time>
      </trkpt>
      <trkpt lat="45.34601" lon="5.86461">
        <ele>1513</ele>
        <time>2022-03-06T10:57:29Z</time>
      </trkpt>
      <trkpt lat="45.34601" lon="5.86461">
        <ele>1513</ele>
        <time>2022-03-06T10:57:32Z</time>
      </trkpt>
      <trkpt lat="45.34599" lon="5.86461">
        <ele>1513</ele>
        <time>2022-03-06T10:57:33Z</time>
      </trkpt>
      <trkpt lat="45.34597" lon="5.86461">
        <ele>1515</ele>
        <time>2022-03-06T10:57:37Z</time>
      </trkpt>
      <trkpt lat="45.34597" lon="5.86461">
        <ele>1515</ele>
        <time>2022-03-06T10:57:38Z</time>
      </trkpt>
      <trkpt lat="45.34595" lon="5.86461">
        <ele>1515</ele>
        <time>2022-03-06T10:57:40Z</time>
      </trkpt>
      <trkpt lat="45.34593" lon="5.86462">
        <ele>1515</ele>
        <time>2022-03-06T10:57:43Z</time>
      </trkpt>
      <trkpt lat="45.34593" lon="5.86462">
        <ele>1515</ele>
        <time>2022-03-06T10:57:44Z</time>
      </trkpt>
      <trkpt lat="45.34591" lon="5.86463">
        <ele>1515</ele>
        <time>2022-03-06T10:57:46Z</time>
      </trkpt>
      <trkpt lat="45.34589" lon="5.86463">
        <ele>1516</ele>
        <time>2022-03-06T10:57:48Z</time>
      </trkpt>
      <trkpt lat="45.34589" lon="5.86463">
        <ele>1516</ele>
        <time>2022-03-06T10:57:50Z</time>
      </trkpt>
      <trkpt lat="45.34586" lon="5.86464">
        <ele>1518</ele>
        <time>2022-03-06T10:57:53Z</time>
      </trkpt>
      <trkpt lat="45.34585" lon="5.86464">
        <ele>1518</ele>
        <time>2022-03-06T10:57:55Z</time>
      </trkpt>
      <trkpt lat="45.34584" lon="5.86464">
        <ele>1518</ele>
        <time>2022-03-06T10:57:57Z</time>
      </trkpt>
      <trkpt lat="45.34583" lon="5.86464">
        <ele>1518</ele>
        <time>2022-03-06T10:57:58Z</time>
      </trkpt>
      <trkpt lat="45.34582" lon="5.86464">
        <ele>1518</ele>
        <time>2022-03-06T10:58:00Z</time>
      </trkpt>
      <trkpt lat="45.34582" lon="5.86465">
        <ele>1518</ele>
        <time>2022-03-06T10:58:01Z</time>
      </trkpt>
      <trkpt lat="45.34581" lon="5.86465">
        <ele>1520</ele>
        <time>2022-03-06T10:58:02Z</time>
      </trkpt>
      <trkpt lat="45.34579" lon="5.86465">
        <ele>1520</ele>
        <time>2022-03-06T10:58:04Z</time>
      </trkpt>
      <trkpt lat="45.34579" lon="5.86465">
        <ele>1520</ele>
        <time>2022-03-06T10:58:07Z</time>
      </trkpt>
      <trkpt lat="45.34577" lon="5.86465">
        <ele>1520</ele>
        <time>2022-03-06T10:58:08Z</time>
      </trkpt>
      <trkpt lat="45.34575" lon="5.86466">
        <ele>1520</ele>
        <time>2022-03-06T10:58:12Z</time>
      </trkpt>
      <trkpt lat="45.34575" lon="5.86466">
        <ele>1520</ele>
        <time>2022-03-06T10:58:13Z</time>
      </trkpt>
      <trkpt lat="45.34572" lon="5.86467">
        <ele>1521</ele>
        <time>2022-03-06T10:58:15Z</time>
      </trkpt>
      <trkpt lat="45.34571" lon="5.86467">
        <ele>1522</ele>
        <time>2022-03-06T10:58:17Z</time>
      </trkpt>
      <trkpt lat="45.3457" lon="5.86466">
        <ele>1522</ele>
        <time>2022-03-06T10:58:18Z</time>
      </trkpt>
      <trkpt lat="45.34569" lon="5.86466">
        <ele>1522</ele>
        <time>2022-03-06T10:58:20Z</time>
      </trkpt>
      <trkpt lat="45.34568" lon="5.86466">
        <ele>1523</ele>
        <time>2022-03-06T10:58:21Z</time>
      </trkpt>
      <trkpt lat="45.34567" lon="5.86466">
        <ele>1523</ele>
        <time>2022-03-06T10:58:22Z</time>
      </trkpt>
      <trkpt lat="45.34567" lon="5.86466">
        <ele>1524</ele>
        <time>2022-03-06T10:58:26Z</time>
      </trkpt>
      <trkpt lat="45.34567" lon="5.86466">
        <ele>1524</ele>
        <time>2022-03-06T10:58:30Z</time>
      </trkpt>
      <trkpt lat="45.34567" lon="5.86466">
        <ele>1524</ele>
        <time>2022-03-06T10:58:35Z</time>
      </trkpt>
      <trkpt lat="45.34567" lon="5.86466">
        <ele>1524</ele>
        <time>2022-03-06T10:58:39Z</time>
      </trkpt>
      <trkpt lat="45.34567" lon="5.86466">
        <ele>1524</ele>
        <time>2022-03-06T10:58:43Z</time>
      </trkpt>
      <trkpt lat="45.34569" lon="5.8647">
        <ele>1525</ele>
        <time>2022-03-06T10:58:45Z</time>
      </trkpt>
      <trkpt lat="45.34569" lon="5.8647">
        <ele>1526</ele>
        <time>2022-03-06T10:58:48Z</time>
      </trkpt>
      <trkpt lat="45.34571" lon="5.86471">
        <ele>1526</ele>
        <time>2022-03-06T10:58:49Z</time>
      </trkpt>
      <trkpt lat="45.34571" lon="5.86471">
        <ele>1526</ele>
        <time>2022-03-06T10:58:53Z</time>
      </trkpt>
      <trkpt lat="45.34574" lon="5.86473">
        <ele>1526</ele>
        <time>2022-03-06T10:58:56Z</time>
      </trkpt>
      <trkpt lat="45.34575" lon="5.86475">
        <ele>1527</ele>
        <time>2022-03-06T10:58:58Z</time>
      </trkpt>
      <trkpt lat="45.34577" lon="5.86478">
        <ele>1529</ele>
        <time>2022-03-06T10:59:00Z</time>
      </trkpt>
      <trkpt lat="45.34578" lon="5.86481">
        <ele>1529</ele>
        <time>2022-03-06T10:59:02Z</time>
      </trkpt>
      <trkpt lat="45.34578" lon="5.86483">
        <ele>1529</ele>
        <time>2022-03-06T10:59:05Z</time>
      </trkpt>
      <trkpt lat="45.34578" lon="5.86483">
        <ele>1529</ele>
        <time>2022-03-06T10:59:06Z</time>
      </trkpt>
      <trkpt lat="45.34579" lon="5.86484">
        <ele>1529</ele>
        <time>2022-03-06T10:59:07Z</time>
      </trkpt>
      <trkpt lat="45.34579" lon="5.86485">
        <ele>1529</ele>
        <time>2022-03-06T10:59:08Z</time>
      </trkpt>
      <trkpt lat="45.3458" lon="5.86486">
        <ele>1529</ele>
        <time>2022-03-06T10:59:09Z</time>
      </trkpt>
      <trkpt lat="45.3458" lon="5.86487">
        <ele>1530</ele>
        <time>2022-03-06T10:59:10Z</time>
      </trkpt>
      <trkpt lat="45.3458" lon="5.86488">
        <ele>1530</ele>
        <time>2022-03-06T10:59:11Z</time>
      </trkpt>
      <trkpt lat="45.34581" lon="5.86489">
        <ele>1530</ele>
        <time>2022-03-06T10:59:12Z</time>
      </trkpt>
      <trkpt lat="45.34582" lon="5.86491">
        <ele>1531</ele>
        <time>2022-03-06T10:59:14Z</time>
      </trkpt>
      <trkpt lat="45.34582" lon="5.86491">
        <ele>1531</ele>
        <time>2022-03-06T10:59:17Z</time>
      </trkpt>
      <trkpt lat="45.34584" lon="5.86494">
        <ele>1531</ele>
        <time>2022-03-06T10:59:20Z</time>
      </trkpt>
      <trkpt lat="45.34584" lon="5.86494">
        <ele>1531</ele>
        <time>2022-03-06T10:59:23Z</time>
      </trkpt>
      <trkpt lat="45.34587" lon="5.86498">
        <ele>1532</ele>
        <time>2022-03-06T10:59:26Z</time>
      </trkpt>
      <trkpt lat="45.34587" lon="5.86498">
        <ele>1532</ele>
        <time>2022-03-06T10:59:28Z</time>
      </trkpt>
      <trkpt lat="45.34587" lon="5.86498">
        <ele>1532</ele>
        <time>2022-03-06T10:59:32Z</time>
      </trkpt>
      <trkpt lat="45.34585" lon="5.865">
        <ele>1532</ele>
        <time>2022-03-06T10:59:33Z</time>
      </trkpt>
      <trkpt lat="45.34583" lon="5.865">
        <ele>1532</ele>
        <time>2022-03-06T10:59:35Z</time>
      </trkpt>
      <trkpt lat="45.34581" lon="5.86501">
        <ele>1533</ele>
        <time>2022-03-06T10:59:38Z</time>
      </trkpt>
      <trkpt lat="45.34581" lon="5.86501">
        <ele>1533</ele>
        <time>2022-03-06T10:59:39Z</time>
      </trkpt>
      <trkpt lat="45.34578" lon="5.86501">
        <ele>1534</ele>
        <time>2022-03-06T10:59:42Z</time>
      </trkpt>
      <trkpt lat="45.34578" lon="5.86501">
        <ele>1534</ele>
        <time>2022-03-06T10:59:44Z</time>
      </trkpt>
      <trkpt lat="45.34575" lon="5.86503">
        <ele>1534</ele>
        <time>2022-03-06T10:59:45Z</time>
      </trkpt>
      <trkpt lat="45.34574" lon="5.86502">
        <ele>1535</ele>
        <time>2022-03-06T10:59:48Z</time>
      </trkpt>
      <trkpt lat="45.34574" lon="5.86502">
        <ele>1535</ele>
        <time>2022-03-06T10:59:50Z</time>
      </trkpt>
      <trkpt lat="45.3457" lon="5.86502">
        <ele>1536</ele>
        <time>2022-03-06T10:59:53Z</time>
      </trkpt>
      <trkpt lat="45.3457" lon="5.86502">
        <ele>1536</ele>
        <time>2022-03-06T10:59:55Z</time>
      </trkpt>
      <trkpt lat="45.34567" lon="5.86502">
        <ele>1537</ele>
        <time>2022-03-06T10:59:58Z</time>
      </trkpt>
      <trkpt lat="45.34567" lon="5.86502">
        <ele>1537</ele>
        <time>2022-03-06T11:00:00Z</time>
      </trkpt>
      <trkpt lat="45.34565" lon="5.86503">
        <ele>1537</ele>
        <time>2022-03-06T11:00:01Z</time>
      </trkpt>
      <trkpt lat="45.34562" lon="5.86503">
        <ele>1537</ele>
        <time>2022-03-06T11:00:04Z</time>
      </trkpt>
      <trkpt lat="45.34562" lon="5.86503">
        <ele>1538</ele>
        <time>2022-03-06T11:00:06Z</time>
      </trkpt>
      <trkpt lat="45.3456" lon="5.86505">
        <ele>1538</ele>
        <time>2022-03-06T11:00:07Z</time>
      </trkpt>
      <trkpt lat="45.34558" lon="5.86506">
        <ele>1539</ele>
        <time>2022-03-06T11:00:10Z</time>
      </trkpt>
      <trkpt lat="45.34556" lon="5.86507">
        <ele>1539</ele>
        <time>2022-03-06T11:00:13Z</time>
      </trkpt>
      <trkpt lat="45.34556" lon="5.86507">
        <ele>1539</ele>
        <time>2022-03-06T11:00:14Z</time>
      </trkpt>
      <trkpt lat="45.34556" lon="5.86507">
        <ele>1541</ele>
        <time>2022-03-06T11:00:18Z</time>
      </trkpt>
      <trkpt lat="45.34555" lon="5.86507">
        <ele>1541</ele>
        <time>2022-03-06T11:00:20Z</time>
      </trkpt>
      <trkpt lat="45.34555" lon="5.86506">
        <ele>1540</ele>
        <time>2022-03-06T11:00:21Z</time>
      </trkpt>
      <trkpt lat="45.34555" lon="5.86506">
        <ele>1540</ele>
        <time>2022-03-06T11:00:25Z</time>
      </trkpt>
      <trkpt lat="45.34554" lon="5.86506">
        <ele>1540</ele>
        <time>2022-03-06T11:00:26Z</time>
      </trkpt>
      <trkpt lat="45.34554" lon="5.86506">
        <ele>1540</ele>
        <time>2022-03-06T11:00:30Z</time>
      </trkpt>
      <trkpt lat="45.34553" lon="5.86505">
        <ele>1540</ele>
        <time>2022-03-06T11:00:31Z</time>
      </trkpt>
      <trkpt lat="45.34553" lon="5.86505">
        <ele>1541</ele>
        <time>2022-03-06T11:00:35Z</time>
      </trkpt>
      <trkpt lat="45.34552" lon="5.86505">
        <ele>1541</ele>
        <time>2022-03-06T11:00:37Z</time>
      </trkpt>
      <trkpt lat="45.34552" lon="5.86505">
        <ele>1541</ele>
        <time>2022-03-06T11:00:40Z</time>
      </trkpt>
      <trkpt lat="45.3455" lon="5.86504">
        <ele>1541</ele>
        <time>2022-03-06T11:00:41Z</time>
      </trkpt>
      <trkpt lat="45.34547" lon="5.86503">
        <ele>1541</ele>
        <time>2022-03-06T11:00:44Z</time>
      </trkpt>
      <trkpt lat="45.34547" lon="5.86503">
        <ele>1541</ele>
        <time>2022-03-06T11:00:46Z</time>
      </trkpt>
      <trkpt lat="45.34545" lon="5.86501">
        <ele>1541</ele>
        <time>2022-03-06T11:00:47Z</time>
      </trkpt>
      <trkpt lat="45.34544" lon="5.86499">
        <ele>1541</ele>
        <time>2022-03-06T11:00:50Z</time>
      </trkpt>
      <trkpt lat="45.34544" lon="5.86499">
        <ele>1542</ele>
        <time>2022-03-06T11:00:52Z</time>
      </trkpt>
      <trkpt lat="45.34544" lon="5.86495">
        <ele>1542</ele>
        <time>2022-03-06T11:00:54Z</time>
      </trkpt>
      <trkpt lat="45.34544" lon="5.86495">
        <ele>1542</ele>
        <time>2022-03-06T11:00:57Z</time>
      </trkpt>
      <trkpt lat="45.34544" lon="5.86492">
        <ele>1542</ele>
        <time>2022-03-06T11:00:58Z</time>
      </trkpt>
      <trkpt lat="45.34544" lon="5.8649">
        <ele>1541</ele>
        <time>2022-03-06T11:01:01Z</time>
      </trkpt>
      <trkpt lat="45.34544" lon="5.8649">
        <ele>1542</ele>
        <time>2022-03-06T11:01:03Z</time>
      </trkpt>
      <trkpt lat="45.34542" lon="5.86485">
        <ele>1542</ele>
        <time>2022-03-06T11:01:05Z</time>
      </trkpt>
      <trkpt lat="45.34541" lon="5.86485">
        <ele>1543</ele>
        <time>2022-03-06T11:01:07Z</time>
      </trkpt>
      <trkpt lat="45.3454" lon="5.86484">
        <ele>1543</ele>
        <time>2022-03-06T11:01:08Z</time>
      </trkpt>
      <trkpt lat="45.3454" lon="5.86483">
        <ele>1543</ele>
        <time>2022-03-06T11:01:09Z</time>
      </trkpt>
      <trkpt lat="45.34539" lon="5.86483">
        <ele>1543</ele>
        <time>2022-03-06T11:01:10Z</time>
      </trkpt>
      <trkpt lat="45.34539" lon="5.86482">
        <ele>1543</ele>
        <time>2022-03-06T11:01:11Z</time>
      </trkpt>
      <trkpt lat="45.34538" lon="5.86481">
        <ele>1543</ele>
        <time>2022-03-06T11:01:12Z</time>
      </trkpt>
      <trkpt lat="45.34538" lon="5.8648">
        <ele>1543</ele>
        <time>2022-03-06T11:01:13Z</time>
      </trkpt>
      <trkpt lat="45.34537" lon="5.86479">
        <ele>1543</ele>
        <time>2022-03-06T11:01:14Z</time>
      </trkpt>
      <trkpt lat="45.34536" lon="5.86478">
        <ele>1543</ele>
        <time>2022-03-06T11:01:15Z</time>
      </trkpt>
      <trkpt lat="45.34535" lon="5.86477">
        <ele>1543</ele>
        <time>2022-03-06T11:01:16Z</time>
      </trkpt>
      <trkpt lat="45.34534" lon="5.86476">
        <ele>1543</ele>
        <time>2022-03-06T11:01:17Z</time>
      </trkpt>
      <trkpt lat="45.34533" lon="5.86476">
        <ele>1543</ele>
        <time>2022-03-06T11:01:18Z</time>
      </trkpt>
      <trkpt lat="45.34533" lon="5.86475">
        <ele>1543</ele>
        <time>2022-03-06T11:01:19Z</time>
      </trkpt>
      <trkpt lat="45.34532" lon="5.86475">
        <ele>1543</ele>
        <time>2022-03-06T11:01:20Z</time>
      </trkpt>
      <trkpt lat="45.34532" lon="5.86474">
        <ele>1543</ele>
        <time>2022-03-06T11:01:21Z</time>
      </trkpt>
      <trkpt lat="45.34531" lon="5.86473">
        <ele>1543</ele>
        <time>2022-03-06T11:01:22Z</time>
      </trkpt>
      <trkpt lat="45.3453" lon="5.86472">
        <ele>1543</ele>
        <time>2022-03-06T11:01:24Z</time>
      </trkpt>
      <trkpt lat="45.34529" lon="5.86472">
        <ele>1545</ele>
        <time>2022-03-06T11:01:25Z</time>
      </trkpt>
      <trkpt lat="45.34529" lon="5.86471">
        <ele>1545</ele>
        <time>2022-03-06T11:01:26Z</time>
      </trkpt>
      <trkpt lat="45.34528" lon="5.86471">
        <ele>1545</ele>
        <time>2022-03-06T11:01:27Z</time>
      </trkpt>
      <trkpt lat="45.34527" lon="5.8647">
        <ele>1545</ele>
        <time>2022-03-06T11:01:28Z</time>
      </trkpt>
      <trkpt lat="45.34526" lon="5.8647">
        <ele>1545</ele>
        <time>2022-03-06T11:01:29Z</time>
      </trkpt>
      <trkpt lat="45.34525" lon="5.86469">
        <ele>1546</ele>
        <time>2022-03-06T11:01:30Z</time>
      </trkpt>
      <trkpt lat="45.34524" lon="5.86468">
        <ele>1546</ele>
        <time>2022-03-06T11:01:32Z</time>
      </trkpt>
      <trkpt lat="45.34523" lon="5.86468">
        <ele>1546</ele>
        <time>2022-03-06T11:01:33Z</time>
      </trkpt>
      <trkpt lat="45.34522" lon="5.86468">
        <ele>1546</ele>
        <time>2022-03-06T11:01:34Z</time>
      </trkpt>
      <trkpt lat="45.34522" lon="5.86468">
        <ele>1546</ele>
        <time>2022-03-06T11:01:38Z</time>
      </trkpt>
      <trkpt lat="45.3452" lon="5.86466">
        <ele>1546</ele>
        <time>2022-03-06T11:01:39Z</time>
      </trkpt>
      <trkpt lat="45.34519" lon="5.86466">
        <ele>1547</ele>
        <time>2022-03-06T11:01:42Z</time>
      </trkpt>
      <trkpt lat="45.34519" lon="5.86466">
        <ele>1547</ele>
        <time>2022-03-06T11:01:44Z</time>
      </trkpt>
      <trkpt lat="45.34517" lon="5.86464">
        <ele>1547</ele>
        <time>2022-03-06T11:01:45Z</time>
      </trkpt>
      <trkpt lat="45.34515" lon="5.86462">
        <ele>1549</ele>
        <time>2022-03-06T11:01:48Z</time>
      </trkpt>
      <trkpt lat="45.34514" lon="5.86462">
        <ele>1549</ele>
        <time>2022-03-06T11:01:49Z</time>
      </trkpt>
      <trkpt lat="45.34513" lon="5.86461">
        <ele>1549</ele>
        <time>2022-03-06T11:01:50Z</time>
      </trkpt>
      <trkpt lat="45.34512" lon="5.86461">
        <ele>1549</ele>
        <time>2022-03-06T11:01:51Z</time>
      </trkpt>
      <trkpt lat="45.34511" lon="5.8646">
        <ele>1549</ele>
        <time>2022-03-06T11:01:52Z</time>
      </trkpt>
      <trkpt lat="45.34511" lon="5.86459">
        <ele>1549</ele>
        <time>2022-03-06T11:01:53Z</time>
      </trkpt>
      <trkpt lat="45.3451" lon="5.86459">
        <ele>1549</ele>
        <time>2022-03-06T11:01:54Z</time>
      </trkpt>
      <trkpt lat="45.34509" lon="5.86458">
        <ele>1549</ele>
        <time>2022-03-06T11:01:55Z</time>
      </trkpt>
      <trkpt lat="45.34508" lon="5.86458">
        <ele>1550</ele>
        <time>2022-03-06T11:01:56Z</time>
      </trkpt>
      <trkpt lat="45.34506" lon="5.86456">
        <ele>1550</ele>
        <time>2022-03-06T11:01:59Z</time>
      </trkpt>
      <trkpt lat="45.34506" lon="5.86456">
        <ele>1551</ele>
        <time>2022-03-06T11:02:02Z</time>
      </trkpt>
      <trkpt lat="45.34504" lon="5.86455">
        <ele>1551</ele>
        <time>2022-03-06T11:02:03Z</time>
      </trkpt>
      <trkpt lat="45.34502" lon="5.86453">
        <ele>1552</ele>
        <time>2022-03-06T11:02:05Z</time>
      </trkpt>
      <trkpt lat="45.34502" lon="5.86453">
        <ele>1553</ele>
        <time>2022-03-06T11:02:08Z</time>
      </trkpt>
      <trkpt lat="45.345" lon="5.8645">
        <ele>1554</ele>
        <time>2022-03-06T11:02:10Z</time>
      </trkpt>
      <trkpt lat="45.345" lon="5.8645">
        <ele>1554</ele>
        <time>2022-03-06T11:02:13Z</time>
      </trkpt>
      <trkpt lat="45.34498" lon="5.8645">
        <ele>1555</ele>
        <time>2022-03-06T11:02:14Z</time>
      </trkpt>
      <trkpt lat="45.34496" lon="5.8645">
        <ele>1555</ele>
        <time>2022-03-06T11:02:16Z</time>
      </trkpt>
      <trkpt lat="45.34494" lon="5.86449">
        <ele>1555</ele>
        <time>2022-03-06T11:02:18Z</time>
      </trkpt>
      <trkpt lat="45.34494" lon="5.86449">
        <ele>1555</ele>
        <time>2022-03-06T11:02:20Z</time>
      </trkpt>
      <trkpt lat="45.34492" lon="5.86448">
        <ele>1556</ele>
        <time>2022-03-06T11:02:22Z</time>
      </trkpt>
      <trkpt lat="45.3449" lon="5.86448">
        <ele>1557</ele>
        <time>2022-03-06T11:02:25Z</time>
      </trkpt>
      <trkpt lat="45.3449" lon="5.86448">
        <ele>1557</ele>
        <time>2022-03-06T11:02:26Z</time>
      </trkpt>
      <trkpt lat="45.34488" lon="5.86448">
        <ele>1559</ele>
        <time>2022-03-06T11:02:29Z</time>
      </trkpt>
      <trkpt lat="45.34486" lon="5.86448">
        <ele>1559</ele>
        <time>2022-03-06T11:02:31Z</time>
      </trkpt>
      <trkpt lat="45.34484" lon="5.86449">
        <ele>1560</ele>
        <time>2022-03-06T11:02:33Z</time>
      </trkpt>
      <trkpt lat="45.34484" lon="5.86449">
        <ele>1560</ele>
        <time>2022-03-06T11:02:35Z</time>
      </trkpt>
      <trkpt lat="45.34481" lon="5.86449">
        <ele>1560</ele>
        <time>2022-03-06T11:02:36Z</time>
      </trkpt>
      <trkpt lat="45.3448" lon="5.86449">
        <ele>1561</ele>
        <time>2022-03-06T11:02:39Z</time>
      </trkpt>
      <trkpt lat="45.3448" lon="5.86449">
        <ele>1562</ele>
        <time>2022-03-06T11:02:41Z</time>
      </trkpt>
      <trkpt lat="45.34477" lon="5.86447">
        <ele>1563</ele>
        <time>2022-03-06T11:02:44Z</time>
      </trkpt>
      <trkpt lat="45.34477" lon="5.86447">
        <ele>1563</ele>
        <time>2022-03-06T11:02:46Z</time>
      </trkpt>
      <trkpt lat="45.34475" lon="5.86448">
        <ele>1563</ele>
        <time>2022-03-06T11:02:47Z</time>
      </trkpt>
      <trkpt lat="45.34473" lon="5.8645">
        <ele>1564</ele>
        <time>2022-03-06T11:02:50Z</time>
      </trkpt>
      <trkpt lat="45.34473" lon="5.8645">
        <ele>1565</ele>
        <time>2022-03-06T11:02:52Z</time>
      </trkpt>
      <trkpt lat="45.34471" lon="5.86452">
        <ele>1565</ele>
        <time>2022-03-06T11:02:53Z</time>
      </trkpt>
      <trkpt lat="45.34469" lon="5.86453">
        <ele>1566</ele>
        <time>2022-03-06T11:02:56Z</time>
      </trkpt>
      <trkpt lat="45.34469" lon="5.86453">
        <ele>1566</ele>
        <time>2022-03-06T11:02:58Z</time>
      </trkpt>
      <trkpt lat="45.34467" lon="5.86453">
        <ele>1566</ele>
        <time>2022-03-06T11:02:59Z</time>
      </trkpt>
      <trkpt lat="45.34465" lon="5.86455">
        <ele>1566</ele>
        <time>2022-03-06T11:03:02Z</time>
      </trkpt>
      <trkpt lat="45.34465" lon="5.86455">
        <ele>1567</ele>
        <time>2022-03-06T11:03:04Z</time>
      </trkpt>
      <trkpt lat="45.34463" lon="5.86456">
        <ele>1568</ele>
        <time>2022-03-06T11:03:06Z</time>
      </trkpt>
      <trkpt lat="45.34461" lon="5.86457">
        <ele>1568</ele>
        <time>2022-03-06T11:03:09Z</time>
      </trkpt>
      <trkpt lat="45.34461" lon="5.86457">
        <ele>1568</ele>
        <time>2022-03-06T11:03:10Z</time>
      </trkpt>
      <trkpt lat="45.34459" lon="5.86459">
        <ele>1568</ele>
        <time>2022-03-06T11:03:12Z</time>
      </trkpt>
      <trkpt lat="45.34457" lon="5.86459">
        <ele>1570</ele>
        <time>2022-03-06T11:03:14Z</time>
      </trkpt>
      <trkpt lat="45.34457" lon="5.86459">
        <ele>1570</ele>
        <time>2022-03-06T11:03:16Z</time>
      </trkpt>
      <trkpt lat="45.34455" lon="5.8646">
        <ele>1570</ele>
        <time>2022-03-06T11:03:17Z</time>
      </trkpt>
      <trkpt lat="45.34453" lon="5.86461">
        <ele>1571</ele>
        <time>2022-03-06T11:03:20Z</time>
      </trkpt>
      <trkpt lat="45.34453" lon="5.86461">
        <ele>1571</ele>
        <time>2022-03-06T11:03:22Z</time>
      </trkpt>
      <trkpt lat="45.34452" lon="5.86463">
        <ele>1571</ele>
        <time>2022-03-06T11:03:25Z</time>
      </trkpt>
      <trkpt lat="45.3445" lon="5.86464">
        <ele>1571</ele>
        <time>2022-03-06T11:03:27Z</time>
      </trkpt>
      <trkpt lat="45.34448" lon="5.86465">
        <ele>1571</ele>
        <time>2022-03-06T11:03:30Z</time>
      </trkpt>
      <trkpt lat="45.34448" lon="5.86465">
        <ele>1572</ele>
        <time>2022-03-06T11:03:31Z</time>
      </trkpt>
      <trkpt lat="45.34446" lon="5.86466">
        <ele>1572</ele>
        <time>2022-03-06T11:03:32Z</time>
      </trkpt>
      <trkpt lat="45.34444" lon="5.86465">
        <ele>1573</ele>
        <time>2022-03-06T11:03:34Z</time>
      </trkpt>
      <trkpt lat="45.34442" lon="5.86466">
        <ele>1573</ele>
        <time>2022-03-06T11:03:36Z</time>
      </trkpt>
      <trkpt lat="45.34439" lon="5.86467">
        <ele>1573</ele>
        <time>2022-03-06T11:03:38Z</time>
      </trkpt>
      <trkpt lat="45.34437" lon="5.86469">
        <ele>1574</ele>
        <time>2022-03-06T11:03:41Z</time>
      </trkpt>
      <trkpt lat="45.34437" lon="5.86469">
        <ele>1574</ele>
        <time>2022-03-06T11:03:42Z</time>
      </trkpt>
      <trkpt lat="45.34435" lon="5.8647">
        <ele>1575</ele>
        <time>2022-03-06T11:03:44Z</time>
      </trkpt>
      <trkpt lat="45.34433" lon="5.86472">
        <ele>1575</ele>
        <time>2022-03-06T11:03:47Z</time>
      </trkpt>
      <trkpt lat="45.34433" lon="5.86472">
        <ele>1575</ele>
        <time>2022-03-06T11:03:48Z</time>
      </trkpt>
      <trkpt lat="45.34432" lon="5.86473">
        <ele>1575</ele>
        <time>2022-03-06T11:03:49Z</time>
      </trkpt>
      <trkpt lat="45.34431" lon="5.86473">
        <ele>1575</ele>
        <time>2022-03-06T11:03:50Z</time>
      </trkpt>
      <trkpt lat="45.34431" lon="5.86474">
        <ele>1577</ele>
        <time>2022-03-06T11:03:51Z</time>
      </trkpt>
      <trkpt lat="45.3443" lon="5.86475">
        <ele>1577</ele>
        <time>2022-03-06T11:03:52Z</time>
      </trkpt>
      <trkpt lat="45.34429" lon="5.86476">
        <ele>1578</ele>
        <time>2022-03-06T11:03:53Z</time>
      </trkpt>
      <trkpt lat="45.34428" lon="5.86476">
        <ele>1578</ele>
        <time>2022-03-06T11:03:54Z</time>
      </trkpt>
      <trkpt lat="45.34427" lon="5.86477">
        <ele>1578</ele>
        <time>2022-03-06T11:03:55Z</time>
      </trkpt>
      <trkpt lat="45.34425" lon="5.86479">
        <ele>1578</ele>
        <time>2022-03-06T11:03:57Z</time>
      </trkpt>
      <trkpt lat="45.34424" lon="5.86481">
        <ele>1578</ele>
        <time>2022-03-06T11:03:59Z</time>
      </trkpt>
      <trkpt lat="45.34424" lon="5.86481">
        <ele>1579</ele>
        <time>2022-03-06T11:04:01Z</time>
      </trkpt>
      <trkpt lat="45.34423" lon="5.86484">
        <ele>1579</ele>
        <time>2022-03-06T11:04:02Z</time>
      </trkpt>
      <trkpt lat="45.34422" lon="5.86486">
        <ele>1580</ele>
        <time>2022-03-06T11:04:05Z</time>
      </trkpt>
      <trkpt lat="45.34422" lon="5.86486">
        <ele>1580</ele>
        <time>2022-03-06T11:04:07Z</time>
      </trkpt>
      <trkpt lat="45.3442" lon="5.86488">
        <ele>1580</ele>
        <time>2022-03-06T11:04:08Z</time>
      </trkpt>
      <trkpt lat="45.34418" lon="5.8649">
        <ele>1581</ele>
        <time>2022-03-06T11:04:11Z</time>
      </trkpt>
      <trkpt lat="45.34418" lon="5.8649">
        <ele>1581</ele>
        <time>2022-03-06T11:04:13Z</time>
      </trkpt>
      <trkpt lat="45.34416" lon="5.86492">
        <ele>1581</ele>
        <time>2022-03-06T11:04:14Z</time>
      </trkpt>
      <trkpt lat="45.34414" lon="5.86494">
        <ele>1581</ele>
        <time>2022-03-06T11:04:17Z</time>
      </trkpt>
      <trkpt lat="45.34414" lon="5.86494">
        <ele>1581</ele>
        <time>2022-03-06T11:04:19Z</time>
      </trkpt>
      <trkpt lat="45.34413" lon="5.86496">
        <ele>1582</ele>
        <time>2022-03-06T11:04:20Z</time>
      </trkpt>
      <trkpt lat="45.34411" lon="5.86497">
        <ele>1583</ele>
        <time>2022-03-06T11:04:24Z</time>
      </trkpt>
      <trkpt lat="45.34411" lon="5.86497">
        <ele>1583</ele>
        <time>2022-03-06T11:04:25Z</time>
      </trkpt>
      <trkpt lat="45.34409" lon="5.86499">
        <ele>1583</ele>
        <time>2022-03-06T11:04:28Z</time>
      </trkpt>
      <trkpt lat="45.34409" lon="5.86499">
        <ele>1583</ele>
        <time>2022-03-06T11:04:30Z</time>
      </trkpt>
      <trkpt lat="45.34408" lon="5.86502">
        <ele>1584</ele>
        <time>2022-03-06T11:04:32Z</time>
      </trkpt>
      <trkpt lat="45.34408" lon="5.86504">
        <ele>1585</ele>
        <time>2022-03-06T11:04:35Z</time>
      </trkpt>
      <trkpt lat="45.34408" lon="5.86504">
        <ele>1585</ele>
        <time>2022-03-06T11:04:36Z</time>
      </trkpt>
      <trkpt lat="45.34406" lon="5.86507">
        <ele>1585</ele>
        <time>2022-03-06T11:04:38Z</time>
      </trkpt>
      <trkpt lat="45.34404" lon="5.86508">
        <ele>1586</ele>
        <time>2022-03-06T11:04:41Z</time>
      </trkpt>
      <trkpt lat="45.34404" lon="5.86508">
        <ele>1586</ele>
        <time>2022-03-06T11:04:42Z</time>
      </trkpt>
      <trkpt lat="45.34402" lon="5.8651">
        <ele>1586</ele>
        <time>2022-03-06T11:04:43Z</time>
      </trkpt>
      <trkpt lat="45.34401" lon="5.86511">
        <ele>1586</ele>
        <time>2022-03-06T11:04:47Z</time>
      </trkpt>
      <trkpt lat="45.34401" lon="5.86511">
        <ele>1586</ele>
        <time>2022-03-06T11:04:48Z</time>
      </trkpt>
      <trkpt lat="45.344" lon="5.86514">
        <ele>1587</ele>
        <time>2022-03-06T11:04:51Z</time>
      </trkpt>
      <trkpt lat="45.344" lon="5.86514">
        <ele>1587</ele>
        <time>2022-03-06T11:04:53Z</time>
      </trkpt>
      <trkpt lat="45.34399" lon="5.86517">
        <ele>1588</ele>
        <time>2022-03-06T11:04:55Z</time>
      </trkpt>
      <trkpt lat="45.34398" lon="5.86519">
        <ele>1588</ele>
        <time>2022-03-06T11:04:58Z</time>
      </trkpt>
      <trkpt lat="45.34398" lon="5.86519">
        <ele>1589</ele>
        <time>2022-03-06T11:04:59Z</time>
      </trkpt>
      <trkpt lat="45.34398" lon="5.86522">
        <ele>1590</ele>
        <time>2022-03-06T11:05:02Z</time>
      </trkpt>
      <trkpt lat="45.34398" lon="5.86522">
        <ele>1590</ele>
        <time>2022-03-06T11:05:04Z</time>
      </trkpt>
      <trkpt lat="45.34397" lon="5.86525">
        <ele>1591</ele>
        <time>2022-03-06T11:05:05Z</time>
      </trkpt>
      <trkpt lat="45.34396" lon="5.86527">
        <ele>1591</ele>
        <time>2022-03-06T11:05:08Z</time>
      </trkpt>
      <trkpt lat="45.34396" lon="5.86527">
        <ele>1591</ele>
        <time>2022-03-06T11:05:10Z</time>
      </trkpt>
      <trkpt lat="45.34394" lon="5.86529">
        <ele>1591</ele>
        <time>2022-03-06T11:05:12Z</time>
      </trkpt>
      <trkpt lat="45.34392" lon="5.8653">
        <ele>1592</ele>
        <time>2022-03-06T11:05:15Z</time>
      </trkpt>
      <trkpt lat="45.34392" lon="5.8653">
        <ele>1592</ele>
        <time>2022-03-06T11:05:16Z</time>
      </trkpt>
      <trkpt lat="45.34392" lon="5.8653">
        <ele>1593</ele>
        <time>2022-03-06T11:05:20Z</time>
      </trkpt>
      <trkpt lat="45.34393" lon="5.86532">
        <ele>1593</ele>
        <time>2022-03-06T11:05:23Z</time>
      </trkpt>
      <trkpt lat="45.34393" lon="5.86532">
        <ele>1593</ele>
        <time>2022-03-06T11:05:25Z</time>
      </trkpt>
      <trkpt lat="45.34395" lon="5.86532">
        <ele>1593</ele>
        <time>2022-03-06T11:05:26Z</time>
      </trkpt>
      <trkpt lat="45.34397" lon="5.86532">
        <ele>1594</ele>
        <time>2022-03-06T11:05:30Z</time>
      </trkpt>
      <trkpt lat="45.34397" lon="5.86532">
        <ele>1594</ele>
        <time>2022-03-06T11:05:31Z</time>
      </trkpt>
      <trkpt lat="45.34399" lon="5.86532">
        <ele>1594</ele>
        <time>2022-03-06T11:05:33Z</time>
      </trkpt>
      <trkpt lat="45.34401" lon="5.86531">
        <ele>1594</ele>
        <time>2022-03-06T11:05:36Z</time>
      </trkpt>
      <trkpt lat="45.34401" lon="5.86531">
        <ele>1595</ele>
        <time>2022-03-06T11:05:37Z</time>
      </trkpt>
      <trkpt lat="45.34403" lon="5.86532">
        <ele>1595</ele>
        <time>2022-03-06T11:05:39Z</time>
      </trkpt>
      <trkpt lat="45.34405" lon="5.86532">
        <ele>1596</ele>
        <time>2022-03-06T11:05:42Z</time>
      </trkpt>
      <trkpt lat="45.34405" lon="5.86532">
        <ele>1596</ele>
        <time>2022-03-06T11:05:43Z</time>
      </trkpt>
      <trkpt lat="45.34407" lon="5.86532">
        <ele>1596</ele>
        <time>2022-03-06T11:05:45Z</time>
      </trkpt>
      <trkpt lat="45.34409" lon="5.86533">
        <ele>1598</ele>
        <time>2022-03-06T11:05:48Z</time>
      </trkpt>
      <trkpt lat="45.34409" lon="5.86533">
        <ele>1598</ele>
        <time>2022-03-06T11:05:49Z</time>
      </trkpt>
      <trkpt lat="45.34411" lon="5.86534">
        <ele>1598</ele>
        <time>2022-03-06T11:05:51Z</time>
      </trkpt>
      <trkpt lat="45.34413" lon="5.86535">
        <ele>1598</ele>
        <time>2022-03-06T11:05:54Z</time>
      </trkpt>
      <trkpt lat="45.34413" lon="5.86535">
        <ele>1598</ele>
        <time>2022-03-06T11:05:55Z</time>
      </trkpt>
      <trkpt lat="45.34415" lon="5.86536">
        <ele>1598</ele>
        <time>2022-03-06T11:05:57Z</time>
      </trkpt>
      <trkpt lat="45.34416" lon="5.86537">
        <ele>1599</ele>
        <time>2022-03-06T11:06:00Z</time>
      </trkpt>
      <trkpt lat="45.34416" lon="5.86537">
        <ele>1599</ele>
        <time>2022-03-06T11:06:01Z</time>
      </trkpt>
      <trkpt lat="45.34418" lon="5.86538">
        <ele>1599</ele>
        <time>2022-03-06T11:06:03Z</time>
      </trkpt>
      <trkpt lat="45.3442" lon="5.8654">
        <ele>1599</ele>
        <time>2022-03-06T11:06:06Z</time>
      </trkpt>
      <trkpt lat="45.3442" lon="5.8654">
        <ele>1600</ele>
        <time>2022-03-06T11:06:07Z</time>
      </trkpt>
      <trkpt lat="45.34422" lon="5.86541">
        <ele>1601</ele>
        <time>2022-03-06T11:06:09Z</time>
      </trkpt>
      <trkpt lat="45.34424" lon="5.86541">
        <ele>1601</ele>
        <time>2022-03-06T11:06:12Z</time>
      </trkpt>
      <trkpt lat="45.34424" lon="5.86541">
        <ele>1602</ele>
        <time>2022-03-06T11:06:13Z</time>
      </trkpt>
      <trkpt lat="45.34426" lon="5.86542">
        <ele>1603</ele>
        <time>2022-03-06T11:06:15Z</time>
      </trkpt>
      <trkpt lat="45.34426" lon="5.86542">
        <ele>1603</ele>
        <time>2022-03-06T11:06:18Z</time>
      </trkpt>
      <trkpt lat="45.34426" lon="5.86544">
        <ele>1604</ele>
        <time>2022-03-06T11:06:21Z</time>
      </trkpt>
      <trkpt lat="45.34426" lon="5.86544">
        <ele>1604</ele>
        <time>2022-03-06T11:06:23Z</time>
      </trkpt>
      <trkpt lat="45.34425" lon="5.86546">
        <ele>1604</ele>
        <time>2022-03-06T11:06:24Z</time>
      </trkpt>
      <trkpt lat="45.34423" lon="5.86548">
        <ele>1605</ele>
        <time>2022-03-06T11:06:27Z</time>
      </trkpt>
      <trkpt lat="45.34423" lon="5.86548">
        <ele>1605</ele>
        <time>2022-03-06T11:06:29Z</time>
      </trkpt>
      <trkpt lat="45.34422" lon="5.8655">
        <ele>1605</ele>
        <time>2022-03-06T11:06:30Z</time>
      </trkpt>
      <trkpt lat="45.3442" lon="5.8655">
        <ele>1606</ele>
        <time>2022-03-06T11:06:32Z</time>
      </trkpt>
      <trkpt lat="45.34418" lon="5.86552">
        <ele>1606</ele>
        <time>2022-03-06T11:06:35Z</time>
      </trkpt>
      <trkpt lat="45.34418" lon="5.86552">
        <ele>1606</ele>
        <time>2022-03-06T11:06:36Z</time>
      </trkpt>
      <trkpt lat="45.34416" lon="5.86554">
        <ele>1607</ele>
        <time>2022-03-06T11:06:38Z</time>
      </trkpt>
      <trkpt lat="45.34414" lon="5.86556">
        <ele>1607</ele>
        <time>2022-03-06T11:06:41Z</time>
      </trkpt>
      <trkpt lat="45.34414" lon="5.86556">
        <ele>1607</ele>
        <time>2022-03-06T11:06:42Z</time>
      </trkpt>
      <trkpt lat="45.34413" lon="5.86558">
        <ele>1607</ele>
        <time>2022-03-06T11:06:44Z</time>
      </trkpt>
      <trkpt lat="45.34412" lon="5.8656">
        <ele>1608</ele>
        <time>2022-03-06T11:06:47Z</time>
      </trkpt>
      <trkpt lat="45.34412" lon="5.8656">
        <ele>1608</ele>
        <time>2022-03-06T11:06:48Z</time>
      </trkpt>
      <trkpt lat="45.34411" lon="5.86563">
        <ele>1608</ele>
        <time>2022-03-06T11:06:50Z</time>
      </trkpt>
      <trkpt lat="45.3441" lon="5.86566">
        <ele>1609</ele>
        <time>2022-03-06T11:06:53Z</time>
      </trkpt>
      <trkpt lat="45.3441" lon="5.86566">
        <ele>1609</ele>
        <time>2022-03-06T11:06:54Z</time>
      </trkpt>
      <trkpt lat="45.34409" lon="5.86568">
        <ele>1609</ele>
        <time>2022-03-06T11:06:56Z</time>
      </trkpt>
      <trkpt lat="45.34408" lon="5.86572">
        <ele>1611</ele>
        <time>2022-03-06T11:06:59Z</time>
      </trkpt>
      <trkpt lat="45.34408" lon="5.86572">
        <ele>1611</ele>
        <time>2022-03-06T11:07:00Z</time>
      </trkpt>
      <trkpt lat="45.34408" lon="5.86572">
        <ele>1611</ele>
        <time>2022-03-06T11:07:04Z</time>
      </trkpt>
      <trkpt lat="45.34408" lon="5.86572">
        <ele>1610</ele>
        <time>2022-03-06T11:07:08Z</time>
      </trkpt>
      <trkpt lat="45.34408" lon="5.86572">
        <ele>1611</ele>
        <time>2022-03-06T11:07:12Z</time>
      </trkpt>
      <trkpt lat="45.34408" lon="5.86572">
        <ele>1611</ele>
        <time>2022-03-06T11:07:16Z</time>
      </trkpt>
      <trkpt lat="45.34408" lon="5.86572">
        <ele>1612</ele>
        <time>2022-03-06T11:07:20Z</time>
      </trkpt>
      <trkpt lat="45.34408" lon="5.86572">
        <ele>1612</ele>
        <time>2022-03-06T11:07:24Z</time>
      </trkpt>
      <trkpt lat="45.34408" lon="5.86572">
        <ele>1612</ele>
        <time>2022-03-06T11:07:28Z</time>
      </trkpt>
      <trkpt lat="45.34408" lon="5.86572">
        <ele>1611</ele>
        <time>2022-03-06T11:07:32Z</time>
      </trkpt>
      <trkpt lat="45.34408" lon="5.86572">
        <ele>1612</ele>
        <time>2022-03-06T11:07:36Z</time>
      </trkpt>
      <trkpt lat="45.34408" lon="5.86572">
        <ele>1612</ele>
        <time>2022-03-06T11:07:40Z</time>
      </trkpt>
      <trkpt lat="45.34408" lon="5.86572">
        <ele>1612</ele>
        <time>2022-03-06T11:07:44Z</time>
      </trkpt>
      <trkpt lat="45.34408" lon="5.86572">
        <ele>1612</ele>
        <time>2022-03-06T11:07:48Z</time>
      </trkpt>
      <trkpt lat="45.34408" lon="5.86572">
        <ele>1611</ele>
        <time>2022-03-06T11:07:52Z</time>
      </trkpt>
      <trkpt lat="45.34407" lon="5.86574">
        <ele>1612</ele>
        <time>2022-03-06T11:07:56Z</time>
      </trkpt>
      <trkpt lat="45.34407" lon="5.86574">
        <ele>1612</ele>
        <time>2022-03-06T11:07:57Z</time>
      </trkpt>
      <trkpt lat="45.34406" lon="5.86577">
        <ele>1613</ele>
        <time>2022-03-06T11:07:59Z</time>
      </trkpt>
      <trkpt lat="45.34405" lon="5.86579">
        <ele>1613</ele>
        <time>2022-03-06T11:08:01Z</time>
      </trkpt>
      <trkpt lat="45.34405" lon="5.86579">
        <ele>1613</ele>
        <time>2022-03-06T11:08:03Z</time>
      </trkpt>
      <trkpt lat="45.34404" lon="5.86582">
        <ele>1613</ele>
        <time>2022-03-06T11:08:04Z</time>
      </trkpt>
      <trkpt lat="45.34404" lon="5.86582">
        <ele>1613</ele>
        <time>2022-03-06T11:08:08Z</time>
      </trkpt>
      <trkpt lat="45.34404" lon="5.86582">
        <ele>1613</ele>
        <time>2022-03-06T11:08:12Z</time>
      </trkpt>
      <trkpt lat="45.34404" lon="5.86585">
        <ele>1614</ele>
        <time>2022-03-06T11:08:13Z</time>
      </trkpt>
      <trkpt lat="45.34403" lon="5.86588">
        <ele>1614</ele>
        <time>2022-03-06T11:08:16Z</time>
      </trkpt>
      <trkpt lat="45.34403" lon="5.86588">
        <ele>1614</ele>
        <time>2022-03-06T11:08:18Z</time>
      </trkpt>
      <trkpt lat="45.34402" lon="5.86591">
        <ele>1615</ele>
        <time>2022-03-06T11:08:19Z</time>
      </trkpt>
      <trkpt lat="45.34401" lon="5.86593">
        <ele>1615</ele>
        <time>2022-03-06T11:08:23Z</time>
      </trkpt>
      <trkpt lat="45.34401" lon="5.86593">
        <ele>1615</ele>
        <time>2022-03-06T11:08:24Z</time>
      </trkpt>
      <trkpt lat="45.344" lon="5.86596">
        <ele>1615</ele>
        <time>2022-03-06T11:08:25Z</time>
      </trkpt>
      <trkpt lat="45.34398" lon="5.86598">
        <ele>1616</ele>
        <time>2022-03-06T11:08:29Z</time>
      </trkpt>
      <trkpt lat="45.34398" lon="5.86598">
        <ele>1616</ele>
        <time>2022-03-06T11:08:30Z</time>
      </trkpt>
      <trkpt lat="45.34397" lon="5.86601">
        <ele>1616</ele>
        <time>2022-03-06T11:08:33Z</time>
      </trkpt>
      <trkpt lat="45.34397" lon="5.86601">
        <ele>1617</ele>
        <time>2022-03-06T11:08:35Z</time>
      </trkpt>
      <trkpt lat="45.34395" lon="5.86604">
        <ele>1617</ele>
        <time>2022-03-06T11:08:37Z</time>
      </trkpt>
      <trkpt lat="45.34395" lon="5.86607">
        <ele>1618</ele>
        <time>2022-03-06T11:08:39Z</time>
      </trkpt>
      <trkpt lat="45.34395" lon="5.86607">
        <ele>1619</ele>
        <time>2022-03-06T11:08:41Z</time>
      </trkpt>
      <trkpt lat="45.34393" lon="5.86608">
        <ele>1619</ele>
        <time>2022-03-06T11:08:42Z</time>
      </trkpt>
      <trkpt lat="45.34393" lon="5.86608">
        <ele>1619</ele>
        <time>2022-03-06T11:08:46Z</time>
      </trkpt>
      <trkpt lat="45.34393" lon="5.86608">
        <ele>1619</ele>
        <time>2022-03-06T11:08:50Z</time>
      </trkpt>
      <trkpt lat="45.34396" lon="5.86608">
        <ele>1619</ele>
        <time>2022-03-06T11:08:52Z</time>
      </trkpt>
      <trkpt lat="45.34398" lon="5.86608">
        <ele>1620</ele>
        <time>2022-03-06T11:08:55Z</time>
      </trkpt>
      <trkpt lat="45.34398" lon="5.86608">
        <ele>1620</ele>
        <time>2022-03-06T11:08:56Z</time>
      </trkpt>
      <trkpt lat="45.34398" lon="5.86608">
        <ele>1621</ele>
        <time>2022-03-06T11:09:00Z</time>
      </trkpt>
      <trkpt lat="45.34398" lon="5.86608">
        <ele>1620</ele>
        <time>2022-03-06T11:09:04Z</time>
      </trkpt>
      <trkpt lat="45.34398" lon="5.86608">
        <ele>1621</ele>
        <time>2022-03-06T11:09:08Z</time>
      </trkpt>
      <trkpt lat="45.34398" lon="5.86608">
        <ele>1621</ele>
        <time>2022-03-06T11:09:12Z</time>
      </trkpt>
      <trkpt lat="45.34398" lon="5.86608">
        <ele>1620</ele>
        <time>2022-03-06T11:09:16Z</time>
      </trkpt>
      <trkpt lat="45.34398" lon="5.86608">
        <ele>1621</ele>
        <time>2022-03-06T11:09:20Z</time>
      </trkpt>
      <trkpt lat="45.34398" lon="5.86608">
        <ele>1620</ele>
        <time>2022-03-06T11:09:24Z</time>
      </trkpt>
      <trkpt lat="45.344" lon="5.86608">
        <ele>1621</ele>
        <time>2022-03-06T11:09:25Z</time>
      </trkpt>
      <trkpt lat="45.34402" lon="5.86609">
        <ele>1621</ele>
        <time>2022-03-06T11:09:28Z</time>
      </trkpt>
      <trkpt lat="45.34402" lon="5.86609">
        <ele>1622</ele>
        <time>2022-03-06T11:09:30Z</time>
      </trkpt>
      <trkpt lat="45.34404" lon="5.86609">
        <ele>1622</ele>
        <time>2022-03-06T11:09:31Z</time>
      </trkpt>
      <trkpt lat="45.34406" lon="5.86609">
        <ele>1622</ele>
        <time>2022-03-06T11:09:34Z</time>
      </trkpt>
      <trkpt lat="45.34406" lon="5.86609">
        <ele>1623</ele>
        <time>2022-03-06T11:09:36Z</time>
      </trkpt>
      <trkpt lat="45.34408" lon="5.86609">
        <ele>1623</ele>
        <time>2022-03-06T11:09:37Z</time>
      </trkpt>
      <trkpt lat="45.3441" lon="5.86609">
        <ele>1624</ele>
        <time>2022-03-06T11:09:40Z</time>
      </trkpt>
      <trkpt lat="45.34412" lon="5.86609">
        <ele>1624</ele>
        <time>2022-03-06T11:09:43Z</time>
      </trkpt>
      <trkpt lat="45.34412" lon="5.86609">
        <ele>1624</ele>
        <time>2022-03-06T11:09:44Z</time>
      </trkpt>
      <trkpt lat="45.34414" lon="5.86608">
        <ele>1624</ele>
        <time>2022-03-06T11:09:45Z</time>
      </trkpt>
      <trkpt lat="45.34417" lon="5.86608">
        <ele>1624</ele>
        <time>2022-03-06T11:09:48Z</time>
      </trkpt>
      <trkpt lat="45.34417" lon="5.86608">
        <ele>1625</ele>
        <time>2022-03-06T11:09:50Z</time>
      </trkpt>
      <trkpt lat="45.34417" lon="5.86608">
        <ele>1626</ele>
        <time>2022-03-06T11:09:54Z</time>
      </trkpt>
      <trkpt lat="45.34416" lon="5.86611">
        <ele>1626</ele>
        <time>2022-03-06T11:09:56Z</time>
      </trkpt>
      <trkpt lat="45.34415" lon="5.86613">
        <ele>1626</ele>
        <time>2022-03-06T11:09:59Z</time>
      </trkpt>
      <trkpt lat="45.34415" lon="5.86613">
        <ele>1627</ele>
        <time>2022-03-06T11:10:00Z</time>
      </trkpt>
      <trkpt lat="45.34414" lon="5.86615">
        <ele>1628</ele>
        <time>2022-03-06T11:10:02Z</time>
      </trkpt>
      <trkpt lat="45.34412" lon="5.86617">
        <ele>1628</ele>
        <time>2022-03-06T11:10:05Z</time>
      </trkpt>
      <trkpt lat="45.34412" lon="5.86617">
        <ele>1628</ele>
        <time>2022-03-06T11:10:06Z</time>
      </trkpt>
      <trkpt lat="45.34411" lon="5.86619">
        <ele>1628</ele>
        <time>2022-03-06T11:10:08Z</time>
      </trkpt>
      <trkpt lat="45.34411" lon="5.86619">
        <ele>1629</ele>
        <time>2022-03-06T11:10:11Z</time>
      </trkpt>
      <trkpt lat="45.34409" lon="5.86621">
        <ele>1629</ele>
        <time>2022-03-06T11:10:12Z</time>
      </trkpt>
      <trkpt lat="45.34407" lon="5.86622">
        <ele>1629</ele>
        <time>2022-03-06T11:10:15Z</time>
      </trkpt>
      <trkpt lat="45.34407" lon="5.86622">
        <ele>1630</ele>
        <time>2022-03-06T11:10:17Z</time>
      </trkpt>
      <trkpt lat="45.34405" lon="5.86625">
        <ele>1630</ele>
        <time>2022-03-06T11:10:18Z</time>
      </trkpt>
      <trkpt lat="45.34404" lon="5.86628">
        <ele>1630</ele>
        <time>2022-03-06T11:10:22Z</time>
      </trkpt>
      <trkpt lat="45.34404" lon="5.86628">
        <ele>1630</ele>
        <time>2022-03-06T11:10:23Z</time>
      </trkpt>
      <trkpt lat="45.34403" lon="5.8663">
        <ele>1630</ele>
        <time>2022-03-06T11:10:25Z</time>
      </trkpt>
      <trkpt lat="45.34402" lon="5.86632">
        <ele>1631</ele>
        <time>2022-03-06T11:10:28Z</time>
      </trkpt>
      <trkpt lat="45.34402" lon="5.86632">
        <ele>1631</ele>
        <time>2022-03-06T11:10:29Z</time>
      </trkpt>
      <trkpt lat="45.34402" lon="5.86636">
        <ele>1632</ele>
        <time>2022-03-06T11:10:32Z</time>
      </trkpt>
      <trkpt lat="45.34402" lon="5.86636">
        <ele>1632</ele>
        <time>2022-03-06T11:10:34Z</time>
      </trkpt>
      <trkpt lat="45.34401" lon="5.86639">
        <ele>1632</ele>
        <time>2022-03-06T11:10:35Z</time>
      </trkpt>
      <trkpt lat="45.344" lon="5.86641">
        <ele>1633</ele>
        <time>2022-03-06T11:10:39Z</time>
      </trkpt>
      <trkpt lat="45.344" lon="5.86641">
        <ele>1634</ele>
        <time>2022-03-06T11:10:40Z</time>
      </trkpt>
      <trkpt lat="45.344" lon="5.86641">
        <ele>1633</ele>
        <time>2022-03-06T11:10:44Z</time>
      </trkpt>
      <trkpt lat="45.344" lon="5.86641">
        <ele>1633</ele>
        <time>2022-03-06T11:10:48Z</time>
      </trkpt>
      <trkpt lat="45.34402" lon="5.86641">
        <ele>1633</ele>
        <time>2022-03-06T11:10:50Z</time>
      </trkpt>
      <trkpt lat="45.34404" lon="5.86642">
        <ele>1634</ele>
        <time>2022-03-06T11:10:53Z</time>
      </trkpt>
      <trkpt lat="45.34404" lon="5.86642">
        <ele>1634</ele>
        <time>2022-03-06T11:10:54Z</time>
      </trkpt>
      <trkpt lat="45.34406" lon="5.86643">
        <ele>1635</ele>
        <time>2022-03-06T11:10:56Z</time>
      </trkpt>
      <trkpt lat="45.34406" lon="5.86643">
        <ele>1636</ele>
        <time>2022-03-06T11:10:59Z</time>
      </trkpt>
      <trkpt lat="45.34408" lon="5.86644">
        <ele>1636</ele>
        <time>2022-03-06T11:11:00Z</time>
      </trkpt>
      <trkpt lat="45.3441" lon="5.86644">
        <ele>1636</ele>
        <time>2022-03-06T11:11:03Z</time>
      </trkpt>
      <trkpt lat="45.3441" lon="5.86644">
        <ele>1636</ele>
        <time>2022-03-06T11:11:05Z</time>
      </trkpt>
      <trkpt lat="45.34412" lon="5.86644">
        <ele>1636</ele>
        <time>2022-03-06T11:11:06Z</time>
      </trkpt>
      <trkpt lat="45.34414" lon="5.86643">
        <ele>1636</ele>
        <time>2022-03-06T11:11:09Z</time>
      </trkpt>
      <trkpt lat="45.34416" lon="5.86643">
        <ele>1638</ele>
        <time>2022-03-06T11:11:12Z</time>
      </trkpt>
      <trkpt lat="45.34416" lon="5.86643">
        <ele>1639</ele>
        <time>2022-03-06T11:11:13Z</time>
      </trkpt>
      <trkpt lat="45.34418" lon="5.86643">
        <ele>1639</ele>
        <time>2022-03-06T11:11:15Z</time>
      </trkpt>
      <trkpt lat="45.3442" lon="5.86644">
        <ele>1639</ele>
        <time>2022-03-06T11:11:18Z</time>
      </trkpt>
      <trkpt lat="45.3442" lon="5.86644">
        <ele>1639</ele>
        <time>2022-03-06T11:11:19Z</time>
      </trkpt>
      <trkpt lat="45.34422" lon="5.86644">
        <ele>1639</ele>
        <time>2022-03-06T11:11:21Z</time>
      </trkpt>
      <trkpt lat="45.34424" lon="5.86644">
        <ele>1640</ele>
        <time>2022-03-06T11:11:24Z</time>
      </trkpt>
      <trkpt lat="45.34424" lon="5.86644">
        <ele>1640</ele>
        <time>2022-03-06T11:11:25Z</time>
      </trkpt>
      <trkpt lat="45.34427" lon="5.86644">
        <ele>1640</ele>
        <time>2022-03-06T11:11:28Z</time>
      </trkpt>
      <trkpt lat="45.34427" lon="5.86644">
        <ele>1642</ele>
        <time>2022-03-06T11:11:31Z</time>
      </trkpt>
      <trkpt lat="45.34429" lon="5.86644">
        <ele>1642</ele>
        <time>2022-03-06T11:11:32Z</time>
      </trkpt>
      <trkpt lat="45.34431" lon="5.86644">
        <ele>1642</ele>
        <time>2022-03-06T11:11:35Z</time>
      </trkpt>
      <trkpt lat="45.34431" lon="5.86644">
        <ele>1642</ele>
        <time>2022-03-06T11:11:37Z</time>
      </trkpt>
      <trkpt lat="45.34434" lon="5.86645">
        <ele>1642</ele>
        <time>2022-03-06T11:11:38Z</time>
      </trkpt>
      <trkpt lat="45.34436" lon="5.86644">
        <ele>1642</ele>
        <time>2022-03-06T11:11:41Z</time>
      </trkpt>
      <trkpt lat="45.34436" lon="5.86644">
        <ele>1643</ele>
        <time>2022-03-06T11:11:43Z</time>
      </trkpt>
      <trkpt lat="45.34438" lon="5.86644">
        <ele>1643</ele>
        <time>2022-03-06T11:11:44Z</time>
      </trkpt>
      <trkpt lat="45.3444" lon="5.86643">
        <ele>1644</ele>
        <time>2022-03-06T11:11:48Z</time>
      </trkpt>
      <trkpt lat="45.3444" lon="5.86643">
        <ele>1644</ele>
        <time>2022-03-06T11:11:49Z</time>
      </trkpt>
      <trkpt lat="45.34442" lon="5.86643">
        <ele>1644</ele>
        <time>2022-03-06T11:11:51Z</time>
      </trkpt>
      <trkpt lat="45.34442" lon="5.86643">
        <ele>1645</ele>
        <time>2022-03-06T11:11:54Z</time>
      </trkpt>
      <trkpt lat="45.34444" lon="5.86643">
        <ele>1646</ele>
        <time>2022-03-06T11:11:55Z</time>
      </trkpt>
      <trkpt lat="45.34446" lon="5.86644">
        <ele>1647</ele>
        <time>2022-03-06T11:11:59Z</time>
      </trkpt>
      <trkpt lat="45.34446" lon="5.86644">
        <ele>1647</ele>
        <time>2022-03-06T11:12:00Z</time>
      </trkpt>
      <trkpt lat="45.34448" lon="5.86645">
        <ele>1647</ele>
        <time>2022-03-06T11:12:02Z</time>
      </trkpt>
      <trkpt lat="45.34448" lon="5.86645">
        <ele>1649</ele>
        <time>2022-03-06T11:12:05Z</time>
      </trkpt>
      <trkpt lat="45.3445" lon="5.86647">
        <ele>1649</ele>
        <time>2022-03-06T11:12:06Z</time>
      </trkpt>
      <trkpt lat="45.34452" lon="5.86647">
        <ele>1649</ele>
        <time>2022-03-06T11:12:11Z</time>
      </trkpt>
      <trkpt lat="45.34452" lon="5.86647">
        <ele>1650</ele>
        <time>2022-03-06T11:12:12Z</time>
      </trkpt>
      <trkpt lat="45.34454" lon="5.86648">
        <ele>1650</ele>
        <time>2022-03-06T11:12:14Z</time>
      </trkpt>
      <trkpt lat="45.34454" lon="5.86648">
        <ele>1651</ele>
        <time>2022-03-06T11:12:17Z</time>
      </trkpt>
      <trkpt lat="45.34453" lon="5.86651">
        <ele>1651</ele>
        <time>2022-03-06T11:12:18Z</time>
      </trkpt>
      <trkpt lat="45.34452" lon="5.86653">
        <ele>1652</ele>
        <time>2022-03-06T11:12:21Z</time>
      </trkpt>
      <trkpt lat="45.34452" lon="5.86653">
        <ele>1653</ele>
        <time>2022-03-06T11:12:23Z</time>
      </trkpt>
      <trkpt lat="45.3445" lon="5.86656">
        <ele>1653</ele>
        <time>2022-03-06T11:12:24Z</time>
      </trkpt>
      <trkpt lat="45.34449" lon="5.86658">
        <ele>1653</ele>
        <time>2022-03-06T11:12:27Z</time>
      </trkpt>
      <trkpt lat="45.34449" lon="5.86658">
        <ele>1653</ele>
        <time>2022-03-06T11:12:29Z</time>
      </trkpt>
      <trkpt lat="45.34448" lon="5.8666">
        <ele>1653</ele>
        <time>2022-03-06T11:12:30Z</time>
      </trkpt>
      <trkpt lat="45.34447" lon="5.86663">
        <ele>1654</ele>
        <time>2022-03-06T11:12:33Z</time>
      </trkpt>
      <trkpt lat="45.34447" lon="5.86663">
        <ele>1654</ele>
        <time>2022-03-06T11:12:35Z</time>
      </trkpt>
      <trkpt lat="45.34446" lon="5.86665">
        <ele>1655</ele>
        <time>2022-03-06T11:12:37Z</time>
      </trkpt>
      <trkpt lat="45.34446" lon="5.86665">
        <ele>1655</ele>
        <time>2022-03-06T11:12:40Z</time>
      </trkpt>
      <trkpt lat="45.34444" lon="5.86668">
        <ele>1656</ele>
        <time>2022-03-06T11:12:41Z</time>
      </trkpt>
      <trkpt lat="45.34443" lon="5.8667">
        <ele>1657</ele>
        <time>2022-03-06T11:12:45Z</time>
      </trkpt>
      <trkpt lat="45.34443" lon="5.8667">
        <ele>1657</ele>
        <time>2022-03-06T11:12:46Z</time>
      </trkpt>
      <trkpt lat="45.34441" lon="5.86672">
        <ele>1657</ele>
        <time>2022-03-06T11:12:48Z</time>
      </trkpt>
      <trkpt lat="45.34441" lon="5.86672">
        <ele>1657</ele>
        <time>2022-03-06T11:12:51Z</time>
      </trkpt>
      <trkpt lat="45.3444" lon="5.86675">
        <ele>1657</ele>
        <time>2022-03-06T11:12:52Z</time>
      </trkpt>
      <trkpt lat="45.34438" lon="5.86677">
        <ele>1658</ele>
        <time>2022-03-06T11:12:55Z</time>
      </trkpt>
      <trkpt lat="45.34438" lon="5.86677">
        <ele>1658</ele>
        <time>2022-03-06T11:12:57Z</time>
      </trkpt>
      <trkpt lat="45.34437" lon="5.86679">
        <ele>1658</ele>
        <time>2022-03-06T11:12:58Z</time>
      </trkpt>
      <trkpt lat="45.34436" lon="5.86682">
        <ele>1658</ele>
        <time>2022-03-06T11:13:01Z</time>
      </trkpt>
      <trkpt lat="45.34436" lon="5.86682">
        <ele>1659</ele>
        <time>2022-03-06T11:13:03Z</time>
      </trkpt>
      <trkpt lat="45.34435" lon="5.86684">
        <ele>1659</ele>
        <time>2022-03-06T11:13:04Z</time>
      </trkpt>
      <trkpt lat="45.34433" lon="5.86687">
        <ele>1659</ele>
        <time>2022-03-06T11:13:08Z</time>
      </trkpt>
      <trkpt lat="45.34433" lon="5.86687">
        <ele>1660</ele>
        <time>2022-03-06T11:13:09Z</time>
      </trkpt>
      <trkpt lat="45.34432" lon="5.86689">
        <ele>1660</ele>
        <time>2022-03-06T11:13:11Z</time>
      </trkpt>
      <trkpt lat="45.34431" lon="5.86691">
        <ele>1661</ele>
        <time>2022-03-06T11:13:14Z</time>
      </trkpt>
      <trkpt lat="45.34431" lon="5.86691">
        <ele>1661</ele>
        <time>2022-03-06T11:13:15Z</time>
      </trkpt>
      <trkpt lat="45.34429" lon="5.86693">
        <ele>1662</ele>
        <time>2022-03-06T11:13:18Z</time>
      </trkpt>
      <trkpt lat="45.34429" lon="5.86693">
        <ele>1663</ele>
        <time>2022-03-06T11:13:20Z</time>
      </trkpt>
      <trkpt lat="45.34427" lon="5.86695">
        <ele>1663</ele>
        <time>2022-03-06T11:13:22Z</time>
      </trkpt>
      <trkpt lat="45.34426" lon="5.86697">
        <ele>1662</ele>
        <time>2022-03-06T11:13:25Z</time>
      </trkpt>
      <trkpt lat="45.34426" lon="5.86697">
        <ele>1663</ele>
        <time>2022-03-06T11:13:26Z</time>
      </trkpt>
      <trkpt lat="45.34424" lon="5.86699">
        <ele>1664</ele>
        <time>2022-03-06T11:13:29Z</time>
      </trkpt>
      <trkpt lat="45.34424" lon="5.86699">
        <ele>1664</ele>
        <time>2022-03-06T11:13:31Z</time>
      </trkpt>
      <trkpt lat="45.34424" lon="5.86699">
        <ele>1664</ele>
        <time>2022-03-06T11:13:35Z</time>
      </trkpt>
      <trkpt lat="45.34424" lon="5.86699">
        <ele>1664</ele>
        <time>2022-03-06T11:13:39Z</time>
      </trkpt>
      <trkpt lat="45.34426" lon="5.867">
        <ele>1664</ele>
        <time>2022-03-06T11:13:40Z</time>
      </trkpt>
      <trkpt lat="45.34428" lon="5.867">
        <ele>1664</ele>
        <time>2022-03-06T11:13:43Z</time>
      </trkpt>
      <trkpt lat="45.34428" lon="5.867">
        <ele>1665</ele>
        <time>2022-03-06T11:13:45Z</time>
      </trkpt>
      <trkpt lat="45.34431" lon="5.867">
        <ele>1665</ele>
        <time>2022-03-06T11:13:47Z</time>
      </trkpt>
      <trkpt lat="45.34433" lon="5.86701">
        <ele>1666</ele>
        <time>2022-03-06T11:13:50Z</time>
      </trkpt>
      <trkpt lat="45.34433" lon="5.86701">
        <ele>1667</ele>
        <time>2022-03-06T11:13:51Z</time>
      </trkpt>
      <trkpt lat="45.34435" lon="5.86702">
        <ele>1667</ele>
        <time>2022-03-06T11:13:53Z</time>
      </trkpt>
      <trkpt lat="45.34437" lon="5.86702">
        <ele>1667</ele>
        <time>2022-03-06T11:13:56Z</time>
      </trkpt>
      <trkpt lat="45.34437" lon="5.86702">
        <ele>1667</ele>
        <time>2022-03-06T11:13:57Z</time>
      </trkpt>
      <trkpt lat="45.3444" lon="5.86703">
        <ele>1668</ele>
        <time>2022-03-06T11:13:59Z</time>
      </trkpt>
      <trkpt lat="45.34442" lon="5.86703">
        <ele>1668</ele>
        <time>2022-03-06T11:14:02Z</time>
      </trkpt>
      <trkpt lat="45.34442" lon="5.86703">
        <ele>1669</ele>
        <time>2022-03-06T11:14:03Z</time>
      </trkpt>
      <trkpt lat="45.34444" lon="5.86703">
        <ele>1669</ele>
        <time>2022-03-06T11:14:06Z</time>
      </trkpt>
      <trkpt lat="45.34444" lon="5.86703">
        <ele>1669</ele>
        <time>2022-03-06T11:14:08Z</time>
      </trkpt>
      <trkpt lat="45.34446" lon="5.86703">
        <ele>1670</ele>
        <time>2022-03-06T11:14:09Z</time>
      </trkpt>
      <trkpt lat="45.34448" lon="5.86702">
        <ele>1670</ele>
        <time>2022-03-06T11:14:12Z</time>
      </trkpt>
      <trkpt lat="45.34448" lon="5.86702">
        <ele>1671</ele>
        <time>2022-03-06T11:14:14Z</time>
      </trkpt>
      <trkpt lat="45.3445" lon="5.86702">
        <ele>1671</ele>
        <time>2022-03-06T11:14:15Z</time>
      </trkpt>
      <trkpt lat="45.34452" lon="5.86703">
        <ele>1671</ele>
        <time>2022-03-06T11:14:18Z</time>
      </trkpt>
      <trkpt lat="45.34452" lon="5.86703">
        <ele>1672</ele>
        <time>2022-03-06T11:14:20Z</time>
      </trkpt>
      <trkpt lat="45.34454" lon="5.86703">
        <ele>1672</ele>
        <time>2022-03-06T11:14:22Z</time>
      </trkpt>
      <trkpt lat="45.34454" lon="5.86703">
        <ele>1672</ele>
        <time>2022-03-06T11:14:25Z</time>
      </trkpt>
      <trkpt lat="45.34454" lon="5.86703">
        <ele>1672</ele>
        <time>2022-03-06T11:14:29Z</time>
      </trkpt>
      <trkpt lat="45.34453" lon="5.86706">
        <ele>1673</ele>
        <time>2022-03-06T11:14:32Z</time>
      </trkpt>
      <trkpt lat="45.34453" lon="5.86706">
        <ele>1674</ele>
        <time>2022-03-06T11:14:34Z</time>
      </trkpt>
      <trkpt lat="45.34452" lon="5.86708">
        <ele>1674</ele>
        <time>2022-03-06T11:14:35Z</time>
      </trkpt>
      <trkpt lat="45.34451" lon="5.86711">
        <ele>1675</ele>
        <time>2022-03-06T11:14:39Z</time>
      </trkpt>
      <trkpt lat="45.34451" lon="5.86711">
        <ele>1675</ele>
        <time>2022-03-06T11:14:40Z</time>
      </trkpt>
      <trkpt lat="45.34449" lon="5.86712">
        <ele>1675</ele>
        <time>2022-03-06T11:14:42Z</time>
      </trkpt>
      <trkpt lat="45.34448" lon="5.86714">
        <ele>1676</ele>
        <time>2022-03-06T11:14:45Z</time>
      </trkpt>
      <trkpt lat="45.34448" lon="5.86714">
        <ele>1676</ele>
        <time>2022-03-06T11:14:46Z</time>
      </trkpt>
      <trkpt lat="45.34446" lon="5.86716">
        <ele>1676</ele>
        <time>2022-03-06T11:14:49Z</time>
      </trkpt>
      <trkpt lat="45.34446" lon="5.86716">
        <ele>1677</ele>
        <time>2022-03-06T11:14:51Z</time>
      </trkpt>
      <trkpt lat="45.34445" lon="5.86719">
        <ele>1678</ele>
        <time>2022-03-06T11:14:53Z</time>
      </trkpt>
      <trkpt lat="45.34443" lon="5.8672">
        <ele>1678</ele>
        <time>2022-03-06T11:14:56Z</time>
      </trkpt>
      <trkpt lat="45.34443" lon="5.8672">
        <ele>1678</ele>
        <time>2022-03-06T11:14:57Z</time>
      </trkpt>
      <trkpt lat="45.34442" lon="5.86723">
        <ele>1678</ele>
        <time>2022-03-06T11:14:59Z</time>
      </trkpt>
      <trkpt lat="45.3444" lon="5.86724">
        <ele>1678</ele>
        <time>2022-03-06T11:15:02Z</time>
      </trkpt>
      <trkpt lat="45.3444" lon="5.86724">
        <ele>1679</ele>
        <time>2022-03-06T11:15:04Z</time>
      </trkpt>
      <trkpt lat="45.34439" lon="5.86726">
        <ele>1679</ele>
        <time>2022-03-06T11:15:05Z</time>
      </trkpt>
      <trkpt lat="45.34437" lon="5.86728">
        <ele>1680</ele>
        <time>2022-03-06T11:15:08Z</time>
      </trkpt>
      <trkpt lat="45.34437" lon="5.86728">
        <ele>1680</ele>
        <time>2022-03-06T11:15:10Z</time>
      </trkpt>
      <trkpt lat="45.34436" lon="5.8673">
        <ele>1680</ele>
        <time>2022-03-06T11:15:11Z</time>
      </trkpt>
      <trkpt lat="45.34434" lon="5.86731">
        <ele>1681</ele>
        <time>2022-03-06T11:15:14Z</time>
      </trkpt>
      <trkpt lat="45.34434" lon="5.86731">
        <ele>1681</ele>
        <time>2022-03-06T11:15:16Z</time>
      </trkpt>
      <trkpt lat="45.34432" lon="5.86733">
        <ele>1681</ele>
        <time>2022-03-06T11:15:18Z</time>
      </trkpt>
      <trkpt lat="45.34431" lon="5.86736">
        <ele>1681</ele>
        <time>2022-03-06T11:15:21Z</time>
      </trkpt>
      <trkpt lat="45.34431" lon="5.86736">
        <ele>1681</ele>
        <time>2022-03-06T11:15:22Z</time>
      </trkpt>
      <trkpt lat="45.34429" lon="5.86738">
        <ele>1681</ele>
        <time>2022-03-06T11:15:24Z</time>
      </trkpt>
      <trkpt lat="45.34428" lon="5.8674">
        <ele>1682</ele>
        <time>2022-03-06T11:15:27Z</time>
      </trkpt>
      <trkpt lat="45.34428" lon="5.8674">
        <ele>1682</ele>
        <time>2022-03-06T11:15:28Z</time>
      </trkpt>
      <trkpt lat="45.34427" lon="5.86742">
        <ele>1683</ele>
        <time>2022-03-06T11:15:30Z</time>
      </trkpt>
      <trkpt lat="45.34427" lon="5.86742">
        <ele>1683</ele>
        <time>2022-03-06T11:15:33Z</time>
      </trkpt>
      <trkpt lat="45.34425" lon="5.86744">
        <ele>1683</ele>
        <time>2022-03-06T11:15:34Z</time>
      </trkpt>
      <trkpt lat="45.34423" lon="5.86746">
        <ele>1684</ele>
        <time>2022-03-06T11:15:38Z</time>
      </trkpt>
      <trkpt lat="45.34423" lon="5.86746">
        <ele>1685</ele>
        <time>2022-03-06T11:15:39Z</time>
      </trkpt>
      <trkpt lat="45.34423" lon="5.86746">
        <ele>1685</ele>
        <time>2022-03-06T11:15:43Z</time>
      </trkpt>
      <trkpt lat="45.34423" lon="5.86746">
        <ele>1684</ele>
        <time>2022-03-06T11:15:47Z</time>
      </trkpt>
      <trkpt lat="45.34423" lon="5.86746">
        <ele>1685</ele>
        <time>2022-03-06T11:15:51Z</time>
      </trkpt>
      <trkpt lat="45.34425" lon="5.86746">
        <ele>1685</ele>
        <time>2022-03-06T11:15:53Z</time>
      </trkpt>
      <trkpt lat="45.34427" lon="5.86746">
        <ele>1685</ele>
        <time>2022-03-06T11:15:56Z</time>
      </trkpt>
      <trkpt lat="45.34427" lon="5.86746">
        <ele>1685</ele>
        <time>2022-03-06T11:15:57Z</time>
      </trkpt>
      <trkpt lat="45.34429" lon="5.86746">
        <ele>1686</ele>
        <time>2022-03-06T11:15:59Z</time>
      </trkpt>
      <trkpt lat="45.34431" lon="5.86746">
        <ele>1686</ele>
        <time>2022-03-06T11:16:02Z</time>
      </trkpt>
      <trkpt lat="45.34431" lon="5.86746">
        <ele>1686</ele>
        <time>2022-03-06T11:16:03Z</time>
      </trkpt>
      <trkpt lat="45.34433" lon="5.86747">
        <ele>1686</ele>
        <time>2022-03-06T11:16:05Z</time>
      </trkpt>
      <trkpt lat="45.34435" lon="5.86747">
        <ele>1687</ele>
        <time>2022-03-06T11:16:08Z</time>
      </trkpt>
      <trkpt lat="45.34435" lon="5.86747">
        <ele>1687</ele>
        <time>2022-03-06T11:16:09Z</time>
      </trkpt>
      <trkpt lat="45.34437" lon="5.86747">
        <ele>1687</ele>
        <time>2022-03-06T11:16:11Z</time>
      </trkpt>
      <trkpt lat="45.34439" lon="5.86748">
        <ele>1688</ele>
        <time>2022-03-06T11:16:14Z</time>
      </trkpt>
      <trkpt lat="45.34439" lon="5.86748">
        <ele>1688</ele>
        <time>2022-03-06T11:16:15Z</time>
      </trkpt>
      <trkpt lat="45.34441" lon="5.86748">
        <ele>1689</ele>
        <time>2022-03-06T11:16:17Z</time>
      </trkpt>
      <trkpt lat="45.34443" lon="5.86749">
        <ele>1689</ele>
        <time>2022-03-06T11:16:20Z</time>
      </trkpt>
      <trkpt lat="45.34443" lon="5.86749">
        <ele>1689</ele>
        <time>2022-03-06T11:16:21Z</time>
      </trkpt>
      <trkpt lat="45.34445" lon="5.86749">
        <ele>1690</ele>
        <time>2022-03-06T11:16:23Z</time>
      </trkpt>
      <trkpt lat="45.34447" lon="5.8675">
        <ele>1690</ele>
        <time>2022-03-06T11:16:26Z</time>
      </trkpt>
      <trkpt lat="45.34447" lon="5.8675">
        <ele>1690</ele>
        <time>2022-03-06T11:16:27Z</time>
      </trkpt>
      <trkpt lat="45.34447" lon="5.8675">
        <ele>1691</ele>
        <time>2022-03-06T11:16:31Z</time>
      </trkpt>
      <trkpt lat="45.34447" lon="5.8675">
        <ele>1691</ele>
        <time>2022-03-06T11:16:35Z</time>
      </trkpt>
      <trkpt lat="45.34447" lon="5.8675">
        <ele>1691</ele>
        <time>2022-03-06T11:16:39Z</time>
      </trkpt>
      <trkpt lat="45.34447" lon="5.8675">
        <ele>1692</ele>
        <time>2022-03-06T11:16:43Z</time>
      </trkpt>
      <trkpt lat="45.34447" lon="5.8675">
        <ele>1692</ele>
        <time>2022-03-06T11:16:47Z</time>
      </trkpt>
      <trkpt lat="45.34446" lon="5.86753">
        <ele>1692</ele>
        <time>2022-03-06T11:16:48Z</time>
      </trkpt>
      <trkpt lat="45.34445" lon="5.86755">
        <ele>1692</ele>
        <time>2022-03-06T11:16:51Z</time>
      </trkpt>
      <trkpt lat="45.34445" lon="5.86755">
        <ele>1693</ele>
        <time>2022-03-06T11:16:53Z</time>
      </trkpt>
      <trkpt lat="45.34443" lon="5.86757">
        <ele>1693</ele>
        <time>2022-03-06T11:16:54Z</time>
      </trkpt>
      <trkpt lat="45.34442" lon="5.86759">
        <ele>1693</ele>
        <time>2022-03-06T11:16:58Z</time>
      </trkpt>
      <trkpt lat="45.34442" lon="5.86759">
        <ele>1693</ele>
        <time>2022-03-06T11:16:59Z</time>
      </trkpt>
      <trkpt lat="45.3444" lon="5.86761">
        <ele>1694</ele>
        <time>2022-03-06T11:17:01Z</time>
      </trkpt>
      <trkpt lat="45.3444" lon="5.86761">
        <ele>1694</ele>
        <time>2022-03-06T11:17:04Z</time>
      </trkpt>
      <trkpt lat="45.34438" lon="5.86763">
        <ele>1694</ele>
        <time>2022-03-06T11:17:05Z</time>
      </trkpt>
      <trkpt lat="45.34437" lon="5.86765">
        <ele>1696</ele>
        <time>2022-03-06T11:17:08Z</time>
      </trkpt>
      <trkpt lat="45.34437" lon="5.86765">
        <ele>1696</ele>
        <time>2022-03-06T11:17:10Z</time>
      </trkpt>
      <trkpt lat="45.34435" lon="5.86766">
        <ele>1696</ele>
        <time>2022-03-06T11:17:11Z</time>
      </trkpt>
      <trkpt lat="45.34434" lon="5.86768">
        <ele>1696</ele>
        <time>2022-03-06T11:17:15Z</time>
      </trkpt>
      <trkpt lat="45.34434" lon="5.86768">
        <ele>1696</ele>
        <time>2022-03-06T11:17:16Z</time>
      </trkpt>
      <trkpt lat="45.34432" lon="5.8677">
        <ele>1697</ele>
        <time>2022-03-06T11:17:19Z</time>
      </trkpt>
      <trkpt lat="45.34432" lon="5.8677">
        <ele>1698</ele>
        <time>2022-03-06T11:17:21Z</time>
      </trkpt>
      <trkpt lat="45.3443" lon="5.86771">
        <ele>1698</ele>
        <time>2022-03-06T11:17:23Z</time>
      </trkpt>
      <trkpt lat="45.34428" lon="5.86773">
        <ele>1699</ele>
        <time>2022-03-06T11:17:26Z</time>
      </trkpt>
      <trkpt lat="45.34428" lon="5.86773">
        <ele>1700</ele>
        <time>2022-03-06T11:17:27Z</time>
      </trkpt>
      <trkpt lat="45.34427" lon="5.86774">
        <ele>1700</ele>
        <time>2022-03-06T11:17:30Z</time>
      </trkpt>
      <trkpt lat="45.34427" lon="5.86774">
        <ele>1700</ele>
        <time>2022-03-06T11:17:32Z</time>
      </trkpt>
      <trkpt lat="45.34425" lon="5.86776">
        <ele>1701</ele>
        <time>2022-03-06T11:17:34Z</time>
      </trkpt>
      <trkpt lat="45.34425" lon="5.86776">
        <ele>1701</ele>
        <time>2022-03-06T11:17:37Z</time>
      </trkpt>
      <trkpt lat="45.34423" lon="5.86778">
        <ele>1701</ele>
        <time>2022-03-06T11:17:38Z</time>
      </trkpt>
      <trkpt lat="45.34423" lon="5.86778">
        <ele>1701</ele>
        <time>2022-03-06T11:17:42Z</time>
      </trkpt>
      <trkpt lat="45.34423" lon="5.86778">
        <ele>1701</ele>
        <time>2022-03-06T11:17:46Z</time>
      </trkpt>
      <trkpt lat="45.34425" lon="5.86777">
        <ele>1701</ele>
        <time>2022-03-06T11:17:50Z</time>
      </trkpt>
      <trkpt lat="45.34425" lon="5.86777">
        <ele>1701</ele>
        <time>2022-03-06T11:17:51Z</time>
      </trkpt>
      <trkpt lat="45.34427" lon="5.86777">
        <ele>1701</ele>
        <time>2022-03-06T11:17:53Z</time>
      </trkpt>
      <trkpt lat="45.34429" lon="5.86778">
        <ele>1702</ele>
        <time>2022-03-06T11:17:56Z</time>
      </trkpt>
      <trkpt lat="45.34429" lon="5.86778">
        <ele>1702</ele>
        <time>2022-03-06T11:17:57Z</time>
      </trkpt>
      <trkpt lat="45.34431" lon="5.86779">
        <ele>1702</ele>
        <time>2022-03-06T11:17:59Z</time>
      </trkpt>
      <trkpt lat="45.34433" lon="5.8678">
        <ele>1703</ele>
        <time>2022-03-06T11:18:02Z</time>
      </trkpt>
      <trkpt lat="45.34433" lon="5.8678">
        <ele>1703</ele>
        <time>2022-03-06T11:18:03Z</time>
      </trkpt>
      <trkpt lat="45.34435" lon="5.86781">
        <ele>1703</ele>
        <time>2022-03-06T11:18:05Z</time>
      </trkpt>
      <trkpt lat="45.34437" lon="5.86781">
        <ele>1703</ele>
        <time>2022-03-06T11:18:08Z</time>
      </trkpt>
      <trkpt lat="45.34437" lon="5.86781">
        <ele>1703</ele>
        <time>2022-03-06T11:18:09Z</time>
      </trkpt>
      <trkpt lat="45.34439" lon="5.86783">
        <ele>1703</ele>
        <time>2022-03-06T11:18:12Z</time>
      </trkpt>
      <trkpt lat="45.34439" lon="5.86783">
        <ele>1705</ele>
        <time>2022-03-06T11:18:14Z</time>
      </trkpt>
      <trkpt lat="45.34441" lon="5.86783">
        <ele>1705</ele>
        <time>2022-03-06T11:18:15Z</time>
      </trkpt>
      <trkpt lat="45.34442" lon="5.86784">
        <ele>1705</ele>
        <time>2022-03-06T11:18:18Z</time>
      </trkpt>
      <trkpt lat="45.34442" lon="5.86784">
        <ele>1706</ele>
        <time>2022-03-06T11:18:20Z</time>
      </trkpt>
      <trkpt lat="45.34444" lon="5.86784">
        <ele>1706</ele>
        <time>2022-03-06T11:18:21Z</time>
      </trkpt>
      <trkpt lat="45.34446" lon="5.86785">
        <ele>1706</ele>
        <time>2022-03-06T11:18:24Z</time>
      </trkpt>
      <trkpt lat="45.34446" lon="5.86785">
        <ele>1707</ele>
        <time>2022-03-06T11:18:26Z</time>
      </trkpt>
      <trkpt lat="45.34448" lon="5.86786">
        <ele>1707</ele>
        <time>2022-03-06T11:18:27Z</time>
      </trkpt>
      <trkpt lat="45.3445" lon="5.86786">
        <ele>1707</ele>
        <time>2022-03-06T11:18:30Z</time>
      </trkpt>
      <trkpt lat="45.3445" lon="5.86786">
        <ele>1707</ele>
        <time>2022-03-06T11:18:32Z</time>
      </trkpt>
      <trkpt lat="45.34452" lon="5.86787">
        <ele>1707</ele>
        <time>2022-03-06T11:18:33Z</time>
      </trkpt>
      <trkpt lat="45.34454" lon="5.86788">
        <ele>1709</ele>
        <time>2022-03-06T11:18:36Z</time>
      </trkpt>
      <trkpt lat="45.34454" lon="5.86788">
        <ele>1709</ele>
        <time>2022-03-06T11:18:38Z</time>
      </trkpt>
      <trkpt lat="45.34456" lon="5.86788">
        <ele>1710</ele>
        <time>2022-03-06T11:18:40Z</time>
      </trkpt>
      <trkpt lat="45.34456" lon="5.86788">
        <ele>1710</ele>
        <time>2022-03-06T11:18:43Z</time>
      </trkpt>
      <trkpt lat="45.34458" lon="5.86789">
        <ele>1710</ele>
        <time>2022-03-06T11:18:44Z</time>
      </trkpt>
      <trkpt lat="45.3446" lon="5.8679">
        <ele>1711</ele>
        <time>2022-03-06T11:18:47Z</time>
      </trkpt>
      <trkpt lat="45.3446" lon="5.8679">
        <ele>1711</ele>
        <time>2022-03-06T11:18:49Z</time>
      </trkpt>
      <trkpt lat="45.34462" lon="5.8679">
        <ele>1711</ele>
        <time>2022-03-06T11:18:51Z</time>
      </trkpt>
      <trkpt lat="45.34462" lon="5.8679">
        <ele>1712</ele>
        <time>2022-03-06T11:18:54Z</time>
      </trkpt>
      <trkpt lat="45.34464" lon="5.8679">
        <ele>1712</ele>
        <time>2022-03-06T11:18:55Z</time>
      </trkpt>
      <trkpt lat="45.34466" lon="5.8679">
        <ele>1712</ele>
        <time>2022-03-06T11:18:58Z</time>
      </trkpt>
      <trkpt lat="45.34466" lon="5.8679">
        <ele>1712</ele>
        <time>2022-03-06T11:19:00Z</time>
      </trkpt>
      <trkpt lat="45.34468" lon="5.8679">
        <ele>1712</ele>
        <time>2022-03-06T11:19:02Z</time>
      </trkpt>
      <trkpt lat="45.3447" lon="5.86791">
        <ele>1714</ele>
        <time>2022-03-06T11:19:05Z</time>
      </trkpt>
      <trkpt lat="45.3447" lon="5.86791">
        <ele>1714</ele>
        <time>2022-03-06T11:19:06Z</time>
      </trkpt>
      <trkpt lat="45.34471" lon="5.86792">
        <ele>1715</ele>
        <time>2022-03-06T11:19:09Z</time>
      </trkpt>
      <trkpt lat="45.34473" lon="5.86793">
        <ele>1715</ele>
        <time>2022-03-06T11:19:11Z</time>
      </trkpt>
      <trkpt lat="45.34473" lon="5.86793">
        <ele>1716</ele>
        <time>2022-03-06T11:19:13Z</time>
      </trkpt>
      <trkpt lat="45.34474" lon="5.86795">
        <ele>1716</ele>
        <time>2022-03-06T11:19:14Z</time>
      </trkpt>
      <trkpt lat="45.34477" lon="5.86795">
        <ele>1717</ele>
        <time>2022-03-06T11:19:18Z</time>
      </trkpt>
      <trkpt lat="45.34477" lon="5.86795">
        <ele>1717</ele>
        <time>2022-03-06T11:19:19Z</time>
      </trkpt>
      <trkpt lat="45.34479" lon="5.86796">
        <ele>1718</ele>
        <time>2022-03-06T11:19:22Z</time>
      </trkpt>
      <trkpt lat="45.34479" lon="5.86796">
        <ele>1718</ele>
        <time>2022-03-06T11:19:24Z</time>
      </trkpt>
      <trkpt lat="45.3448" lon="5.86797">
        <ele>1718</ele>
        <time>2022-03-06T11:19:28Z</time>
      </trkpt>
      <trkpt lat="45.34482" lon="5.86798">
        <ele>1719</ele>
        <time>2022-03-06T11:19:30Z</time>
      </trkpt>
      <trkpt lat="45.34482" lon="5.86798">
        <ele>1719</ele>
        <time>2022-03-06T11:19:33Z</time>
      </trkpt>
      <trkpt lat="45.34484" lon="5.868">
        <ele>1719</ele>
        <time>2022-03-06T11:19:35Z</time>
      </trkpt>
      <trkpt lat="45.34484" lon="5.868">
        <ele>1721</ele>
        <time>2022-03-06T11:19:38Z</time>
      </trkpt>
      <trkpt lat="45.34484" lon="5.868">
        <ele>1721</ele>
        <time>2022-03-06T11:19:42Z</time>
      </trkpt>
      <trkpt lat="45.34484" lon="5.868">
        <ele>1721</ele>
        <time>2022-03-06T11:19:46Z</time>
      </trkpt>
      <trkpt lat="45.34484" lon="5.868">
        <ele>1721</ele>
        <time>2022-03-06T11:19:50Z</time>
      </trkpt>
      <trkpt lat="45.34484" lon="5.868">
        <ele>1720</ele>
        <time>2022-03-06T11:19:54Z</time>
      </trkpt>
      <trkpt lat="45.34484" lon="5.868">
        <ele>1720</ele>
        <time>2022-03-06T11:19:58Z</time>
      </trkpt>
      <trkpt lat="45.34484" lon="5.868">
        <ele>1720</ele>
        <time>2022-03-06T11:20:02Z</time>
      </trkpt>
      <trkpt lat="45.34484" lon="5.868">
        <ele>1720</ele>
        <time>2022-03-06T11:20:06Z</time>
      </trkpt>
      <trkpt lat="45.34484" lon="5.868">
        <ele>1720</ele>
        <time>2022-03-06T11:20:10Z</time>
      </trkpt>
      <trkpt lat="45.34484" lon="5.868">
        <ele>1720</ele>
        <time>2022-03-06T11:20:14Z</time>
      </trkpt>
      <trkpt lat="45.34484" lon="5.868">
        <ele>1720</ele>
        <time>2022-03-06T11:20:18Z</time>
      </trkpt>
      <trkpt lat="45.34482" lon="5.86801">
        <ele>1720</ele>
        <time>2022-03-06T11:20:20Z</time>
      </trkpt>
      <trkpt lat="45.3448" lon="5.86803">
        <ele>1720</ele>
        <time>2022-03-06T11:20:23Z</time>
      </trkpt>
      <trkpt lat="45.3448" lon="5.86803">
        <ele>1721</ele>
        <time>2022-03-06T11:20:24Z</time>
      </trkpt>
      <trkpt lat="45.34478" lon="5.86806">
        <ele>1721</ele>
        <time>2022-03-06T11:20:26Z</time>
      </trkpt>
      <trkpt lat="45.34478" lon="5.86806">
        <ele>1722</ele>
        <time>2022-03-06T11:20:29Z</time>
      </trkpt>
      <trkpt lat="45.34477" lon="5.86807">
        <ele>1722</ele>
        <time>2022-03-06T11:20:30Z</time>
      </trkpt>
      <trkpt lat="45.34475" lon="5.86809">
        <ele>1722</ele>
        <time>2022-03-06T11:20:32Z</time>
      </trkpt>
      <trkpt lat="45.34473" lon="5.8681">
        <ele>1722</ele>
        <time>2022-03-06T11:20:35Z</time>
      </trkpt>
      <trkpt lat="45.34473" lon="5.8681">
        <ele>1724</ele>
        <time>2022-03-06T11:20:36Z</time>
      </trkpt>
      <trkpt lat="45.34472" lon="5.86812">
        <ele>1724</ele>
        <time>2022-03-06T11:20:38Z</time>
      </trkpt>
      <trkpt lat="45.34472" lon="5.86812">
        <ele>1724</ele>
        <time>2022-03-06T11:20:42Z</time>
      </trkpt>
      <trkpt lat="45.3447" lon="5.86814">
        <ele>1724</ele>
        <time>2022-03-06T11:20:43Z</time>
      </trkpt>
      <trkpt lat="45.34468" lon="5.86815">
        <ele>1725</ele>
        <time>2022-03-06T11:20:47Z</time>
      </trkpt>
      <trkpt lat="45.34468" lon="5.86815">
        <ele>1726</ele>
        <time>2022-03-06T11:20:48Z</time>
      </trkpt>
      <trkpt lat="45.34467" lon="5.86817">
        <ele>1726</ele>
        <time>2022-03-06T11:20:49Z</time>
      </trkpt>
      <trkpt lat="45.34465" lon="5.86818">
        <ele>1726</ele>
        <time>2022-03-06T11:20:52Z</time>
      </trkpt>
      <trkpt lat="45.34465" lon="5.86818">
        <ele>1726</ele>
        <time>2022-03-06T11:20:54Z</time>
      </trkpt>
      <trkpt lat="45.34463" lon="5.86819">
        <ele>1726</ele>
        <time>2022-03-06T11:20:55Z</time>
      </trkpt>
      <trkpt lat="45.34462" lon="5.86821">
        <ele>1726</ele>
        <time>2022-03-06T11:20:58Z</time>
      </trkpt>
      <trkpt lat="45.34462" lon="5.86821">
        <ele>1728</ele>
        <time>2022-03-06T11:21:00Z</time>
      </trkpt>
      <trkpt lat="45.3446" lon="5.86822">
        <ele>1728</ele>
        <time>2022-03-06T11:21:01Z</time>
      </trkpt>
      <trkpt lat="45.34458" lon="5.86823">
        <ele>1728</ele>
        <time>2022-03-06T11:21:04Z</time>
      </trkpt>
      <trkpt lat="45.34458" lon="5.86823">
        <ele>1728</ele>
        <time>2022-03-06T11:21:06Z</time>
      </trkpt>
      <trkpt lat="45.34457" lon="5.86825">
        <ele>1728</ele>
        <time>2022-03-06T11:21:07Z</time>
      </trkpt>
      <trkpt lat="45.34455" lon="5.86826">
        <ele>1728</ele>
        <time>2022-03-06T11:21:11Z</time>
      </trkpt>
      <trkpt lat="45.34455" lon="5.86826">
        <ele>1728</ele>
        <time>2022-03-06T11:21:12Z</time>
      </trkpt>
      <trkpt lat="45.34453" lon="5.86828">
        <ele>1728</ele>
        <time>2022-03-06T11:21:14Z</time>
      </trkpt>
      <trkpt lat="45.34451" lon="5.86829">
        <ele>1729</ele>
        <time>2022-03-06T11:21:17Z</time>
      </trkpt>
      <trkpt lat="45.34451" lon="5.86829">
        <ele>1729</ele>
        <time>2022-03-06T11:21:18Z</time>
      </trkpt>
      <trkpt lat="45.3445" lon="5.8683">
        <ele>1730</ele>
        <time>2022-03-06T11:21:20Z</time>
      </trkpt>
      <trkpt lat="45.34448" lon="5.86832">
        <ele>1730</ele>
        <time>2022-03-06T11:21:23Z</time>
      </trkpt>
      <trkpt lat="45.34448" lon="5.86832">
        <ele>1730</ele>
        <time>2022-03-06T11:21:24Z</time>
      </trkpt>
      <trkpt lat="45.34447" lon="5.86834">
        <ele>1730</ele>
        <time>2022-03-06T11:21:26Z</time>
      </trkpt>
      <trkpt lat="45.34445" lon="5.86835">
        <ele>1730</ele>
        <time>2022-03-06T11:21:29Z</time>
      </trkpt>
      <trkpt lat="45.34445" lon="5.86835">
        <ele>1730</ele>
        <time>2022-03-06T11:21:30Z</time>
      </trkpt>
      <trkpt lat="45.34444" lon="5.86837">
        <ele>1730</ele>
        <time>2022-03-06T11:21:32Z</time>
      </trkpt>
      <trkpt lat="45.34443" lon="5.86839">
        <ele>1732</ele>
        <time>2022-03-06T11:21:35Z</time>
      </trkpt>
      <trkpt lat="45.34443" lon="5.86839">
        <ele>1732</ele>
        <time>2022-03-06T11:21:36Z</time>
      </trkpt>
      <trkpt lat="45.34441" lon="5.86841">
        <ele>1732</ele>
        <time>2022-03-06T11:21:40Z</time>
      </trkpt>
      <trkpt lat="45.34441" lon="5.86841">
        <ele>1732</ele>
        <time>2022-03-06T11:21:41Z</time>
      </trkpt>
      <trkpt lat="45.34439" lon="5.86842">
        <ele>1734</ele>
        <time>2022-03-06T11:21:43Z</time>
      </trkpt>
      <trkpt lat="45.34438" lon="5.86843">
        <ele>1734</ele>
        <time>2022-03-06T11:21:46Z</time>
      </trkpt>
      <trkpt lat="45.34438" lon="5.86843">
        <ele>1734</ele>
        <time>2022-03-06T11:21:47Z</time>
      </trkpt>
      <trkpt lat="45.34438" lon="5.86843">
        <ele>1734</ele>
        <time>2022-03-06T11:21:51Z</time>
      </trkpt>
      <trkpt lat="45.34438" lon="5.86843">
        <ele>1734</ele>
        <time>2022-03-06T11:21:55Z</time>
      </trkpt>
      <trkpt lat="45.34438" lon="5.86843">
        <ele>1734</ele>
        <time>2022-03-06T11:21:59Z</time>
      </trkpt>
      <trkpt lat="45.34438" lon="5.86843">
        <ele>1735</ele>
        <time>2022-03-06T11:22:03Z</time>
      </trkpt>
      <trkpt lat="45.3444" lon="5.86845">
        <ele>1735</ele>
        <time>2022-03-06T11:22:05Z</time>
      </trkpt>
      <trkpt lat="45.34441" lon="5.86846">
        <ele>1736</ele>
        <time>2022-03-06T11:22:08Z</time>
      </trkpt>
      <trkpt lat="45.34441" lon="5.86846">
        <ele>1736</ele>
        <time>2022-03-06T11:22:09Z</time>
      </trkpt>
      <trkpt lat="45.34443" lon="5.86847">
        <ele>1736</ele>
        <time>2022-03-06T11:22:11Z</time>
      </trkpt>
      <trkpt lat="45.34445" lon="5.86848">
        <ele>1736</ele>
        <time>2022-03-06T11:22:14Z</time>
      </trkpt>
      <trkpt lat="45.34445" lon="5.86848">
        <ele>1737</ele>
        <time>2022-03-06T11:22:16Z</time>
      </trkpt>
      <trkpt lat="45.34447" lon="5.86849">
        <ele>1737</ele>
        <time>2022-03-06T11:22:17Z</time>
      </trkpt>
      <trkpt lat="45.34449" lon="5.86849">
        <ele>1737</ele>
        <time>2022-03-06T11:22:20Z</time>
      </trkpt>
      <trkpt lat="45.34449" lon="5.86849">
        <ele>1737</ele>
        <time>2022-03-06T11:22:23Z</time>
      </trkpt>
      <trkpt lat="45.34451" lon="5.86851">
        <ele>1738</ele>
        <time>2022-03-06T11:22:24Z</time>
      </trkpt>
      <trkpt lat="45.34453" lon="5.86851">
        <ele>1740</ele>
        <time>2022-03-06T11:22:28Z</time>
      </trkpt>
      <trkpt lat="45.34453" lon="5.86851">
        <ele>1740</ele>
        <time>2022-03-06T11:22:29Z</time>
      </trkpt>
      <trkpt lat="45.34455" lon="5.86852">
        <ele>1740</ele>
        <time>2022-03-06T11:22:31Z</time>
      </trkpt>
      <trkpt lat="45.34457" lon="5.86852">
        <ele>1740</ele>
        <time>2022-03-06T11:22:34Z</time>
      </trkpt>
      <trkpt lat="45.34457" lon="5.86852">
        <ele>1740</ele>
        <time>2022-03-06T11:22:35Z</time>
      </trkpt>
      <trkpt lat="45.34459" lon="5.86852">
        <ele>1741</ele>
        <time>2022-03-06T11:22:38Z</time>
      </trkpt>
      <trkpt lat="45.34461" lon="5.86852">
        <ele>1741</ele>
        <time>2022-03-06T11:22:40Z</time>
      </trkpt>
      <trkpt lat="45.34461" lon="5.86852">
        <ele>1741</ele>
        <time>2022-03-06T11:22:43Z</time>
      </trkpt>
      <trkpt lat="45.34463" lon="5.86854">
        <ele>1741</ele>
        <time>2022-03-06T11:22:44Z</time>
      </trkpt>
      <trkpt lat="45.34465" lon="5.86855">
        <ele>1742</ele>
        <time>2022-03-06T11:22:48Z</time>
      </trkpt>
      <trkpt lat="45.34465" lon="5.86855">
        <ele>1742</ele>
        <time>2022-03-06T11:22:49Z</time>
      </trkpt>
      <trkpt lat="45.34467" lon="5.86856">
        <ele>1742</ele>
        <time>2022-03-06T11:22:52Z</time>
      </trkpt>
      <trkpt lat="45.34467" lon="5.86856">
        <ele>1743</ele>
        <time>2022-03-06T11:22:54Z</time>
      </trkpt>
      <trkpt lat="45.34468" lon="5.86857">
        <ele>1743</ele>
        <time>2022-03-06T11:22:55Z</time>
      </trkpt>
      <trkpt lat="45.3447" lon="5.86857">
        <ele>1745</ele>
        <time>2022-03-06T11:22:59Z</time>
      </trkpt>
      <trkpt lat="45.3447" lon="5.86857">
        <ele>1745</ele>
        <time>2022-03-06T11:23:00Z</time>
      </trkpt>
      <trkpt lat="45.34472" lon="5.86859">
        <ele>1746</ele>
        <time>2022-03-06T11:23:01Z</time>
      </trkpt>
      <trkpt lat="45.34474" lon="5.8686">
        <ele>1746</ele>
        <time>2022-03-06T11:23:05Z</time>
      </trkpt>
      <trkpt lat="45.34474" lon="5.8686">
        <ele>1746</ele>
        <time>2022-03-06T11:23:06Z</time>
      </trkpt>
      <trkpt lat="45.34476" lon="5.86861">
        <ele>1746</ele>
        <time>2022-03-06T11:23:07Z</time>
      </trkpt>
      <trkpt lat="45.34476" lon="5.86861">
        <ele>1747</ele>
        <time>2022-03-06T11:23:11Z</time>
      </trkpt>
      <trkpt lat="45.34476" lon="5.86861">
        <ele>1747</ele>
        <time>2022-03-06T11:23:15Z</time>
      </trkpt>
      <trkpt lat="45.34477" lon="5.86861">
        <ele>1747</ele>
        <time>2022-03-06T11:23:18Z</time>
      </trkpt>
      <trkpt lat="45.34477" lon="5.86861">
        <ele>1747</ele>
        <time>2022-03-06T11:23:20Z</time>
      </trkpt>
      <trkpt lat="45.3448" lon="5.86863">
        <ele>1747</ele>
        <time>2022-03-06T11:23:22Z</time>
      </trkpt>
      <trkpt lat="45.3448" lon="5.86863">
        <ele>1748</ele>
        <time>2022-03-06T11:23:25Z</time>
      </trkpt>
      <trkpt lat="45.34481" lon="5.86864">
        <ele>1748</ele>
        <time>2022-03-06T11:23:26Z</time>
      </trkpt>
      <trkpt lat="45.34483" lon="5.86865">
        <ele>1749</ele>
        <time>2022-03-06T11:23:30Z</time>
      </trkpt>
      <trkpt lat="45.34483" lon="5.86865">
        <ele>1749</ele>
        <time>2022-03-06T11:23:31Z</time>
      </trkpt>
      <trkpt lat="45.34485" lon="5.86866">
        <ele>1749</ele>
        <time>2022-03-06T11:23:32Z</time>
      </trkpt>
      <trkpt lat="45.34485" lon="5.86866">
        <ele>1750</ele>
        <time>2022-03-06T11:23:36Z</time>
      </trkpt>
      <trkpt lat="45.34485" lon="5.86866">
        <ele>1750</ele>
        <time>2022-03-06T11:23:40Z</time>
      </trkpt>
      <trkpt lat="45.34485" lon="5.86866">
        <ele>1751</ele>
        <time>2022-03-06T11:23:44Z</time>
      </trkpt>
      <trkpt lat="45.34485" lon="5.86866">
        <ele>1752</ele>
        <time>2022-03-06T11:23:48Z</time>
      </trkpt>
      <trkpt lat="45.34485" lon="5.86869">
        <ele>1752</ele>
        <time>2022-03-06T11:23:52Z</time>
      </trkpt>
      <trkpt lat="45.34485" lon="5.86869">
        <ele>1752</ele>
        <time>2022-03-06T11:23:53Z</time>
      </trkpt>
      <trkpt lat="45.34483" lon="5.8687">
        <ele>1751</ele>
        <time>2022-03-06T11:23:55Z</time>
      </trkpt>
      <trkpt lat="45.34481" lon="5.86872">
        <ele>1751</ele>
        <time>2022-03-06T11:23:58Z</time>
      </trkpt>
      <trkpt lat="45.34481" lon="5.86872">
        <ele>1751</ele>
        <time>2022-03-06T11:23:59Z</time>
      </trkpt>
      <trkpt lat="45.34479" lon="5.86873">
        <ele>1752</ele>
        <time>2022-03-06T11:24:01Z</time>
      </trkpt>
      <trkpt lat="45.34479" lon="5.86873">
        <ele>1754</ele>
        <time>2022-03-06T11:24:04Z</time>
      </trkpt>
      <trkpt lat="45.34478" lon="5.86874">
        <ele>1754</ele>
        <time>2022-03-06T11:24:05Z</time>
      </trkpt>
      <trkpt lat="45.34476" lon="5.86876">
        <ele>1754</ele>
        <time>2022-03-06T11:24:07Z</time>
      </trkpt>
      <trkpt lat="45.34474" lon="5.86878">
        <ele>1754</ele>
        <time>2022-03-06T11:24:10Z</time>
      </trkpt>
      <trkpt lat="45.34474" lon="5.86878">
        <ele>1754</ele>
        <time>2022-03-06T11:24:11Z</time>
      </trkpt>
      <trkpt lat="45.34473" lon="5.8688">
        <ele>1756</ele>
        <time>2022-03-06T11:24:14Z</time>
      </trkpt>
      <trkpt lat="45.34473" lon="5.8688">
        <ele>1756</ele>
        <time>2022-03-06T11:24:16Z</time>
      </trkpt>
      <trkpt lat="45.34471" lon="5.86881">
        <ele>1756</ele>
        <time>2022-03-06T11:24:18Z</time>
      </trkpt>
      <trkpt lat="45.34469" lon="5.86883">
        <ele>1756</ele>
        <time>2022-03-06T11:24:21Z</time>
      </trkpt>
      <trkpt lat="45.34469" lon="5.86883">
        <ele>1756</ele>
        <time>2022-03-06T11:24:22Z</time>
      </trkpt>
      <trkpt lat="45.34467" lon="5.86884">
        <ele>1756</ele>
        <time>2022-03-06T11:24:24Z</time>
      </trkpt>
      <trkpt lat="45.34466" lon="5.86885">
        <ele>1757</ele>
        <time>2022-03-06T11:24:27Z</time>
      </trkpt>
      <trkpt lat="45.34466" lon="5.86885">
        <ele>1757</ele>
        <time>2022-03-06T11:24:28Z</time>
      </trkpt>
      <trkpt lat="45.34464" lon="5.86887">
        <ele>1758</ele>
        <time>2022-03-06T11:24:30Z</time>
      </trkpt>
      <trkpt lat="45.34462" lon="5.86888">
        <ele>1759</ele>
        <time>2022-03-06T11:24:33Z</time>
      </trkpt>
      <trkpt lat="45.34462" lon="5.86888">
        <ele>1759</ele>
        <time>2022-03-06T11:24:35Z</time>
      </trkpt>
      <trkpt lat="45.3446" lon="5.86889">
        <ele>1759</ele>
        <time>2022-03-06T11:24:36Z</time>
      </trkpt>
      <trkpt lat="45.34459" lon="5.8689">
        <ele>1759</ele>
        <time>2022-03-06T11:24:39Z</time>
      </trkpt>
      <trkpt lat="45.34459" lon="5.8689">
        <ele>1760</ele>
        <time>2022-03-06T11:24:41Z</time>
      </trkpt>
      <trkpt lat="45.34457" lon="5.86891">
        <ele>1760</ele>
        <time>2022-03-06T11:24:43Z</time>
      </trkpt>
      <trkpt lat="45.34455" lon="5.86893">
        <ele>1760</ele>
        <time>2022-03-06T11:24:46Z</time>
      </trkpt>
      <trkpt lat="45.34455" lon="5.86893">
        <ele>1760</ele>
        <time>2022-03-06T11:24:47Z</time>
      </trkpt>
      <trkpt lat="45.34453" lon="5.86893">
        <ele>1760</ele>
        <time>2022-03-06T11:24:49Z</time>
      </trkpt>
      <trkpt lat="45.34451" lon="5.86895">
        <ele>1761</ele>
        <time>2022-03-06T11:24:53Z</time>
      </trkpt>
      <trkpt lat="45.34451" lon="5.86895">
        <ele>1761</ele>
        <time>2022-03-06T11:24:54Z</time>
      </trkpt>
      <trkpt lat="45.34449" lon="5.86896">
        <ele>1761</ele>
        <time>2022-03-06T11:24:57Z</time>
      </trkpt>
      <trkpt lat="45.34449" lon="5.86896">
        <ele>1762</ele>
        <time>2022-03-06T11:24:59Z</time>
      </trkpt>
      <trkpt lat="45.34447" lon="5.86898">
        <ele>1762</ele>
        <time>2022-03-06T11:25:01Z</time>
      </trkpt>
      <trkpt lat="45.34446" lon="5.869">
        <ele>1763</ele>
        <time>2022-03-06T11:25:04Z</time>
      </trkpt>
      <trkpt lat="45.34446" lon="5.869">
        <ele>1763</ele>
        <time>2022-03-06T11:25:05Z</time>
      </trkpt>
      <trkpt lat="45.34444" lon="5.86901">
        <ele>1763</ele>
        <time>2022-03-06T11:25:07Z</time>
      </trkpt>
      <trkpt lat="45.34444" lon="5.86901">
        <ele>1764</ele>
        <time>2022-03-06T11:25:11Z</time>
      </trkpt>
      <trkpt lat="45.34444" lon="5.86901">
        <ele>1764</ele>
        <time>2022-03-06T11:25:15Z</time>
      </trkpt>
      <trkpt lat="45.34444" lon="5.86901">
        <ele>1764</ele>
        <time>2022-03-06T11:25:19Z</time>
      </trkpt>
      <trkpt lat="45.34446" lon="5.86902">
        <ele>1764</ele>
        <time>2022-03-06T11:25:23Z</time>
      </trkpt>
      <trkpt lat="45.34446" lon="5.86902">
        <ele>1764</ele>
        <time>2022-03-06T11:25:24Z</time>
      </trkpt>
      <trkpt lat="45.34448" lon="5.86902">
        <ele>1765</ele>
        <time>2022-03-06T11:25:26Z</time>
      </trkpt>
      <trkpt lat="45.3445" lon="5.86903">
        <ele>1766</ele>
        <time>2022-03-06T11:25:30Z</time>
      </trkpt>
      <trkpt lat="45.3445" lon="5.86903">
        <ele>1766</ele>
        <time>2022-03-06T11:25:31Z</time>
      </trkpt>
      <trkpt lat="45.34452" lon="5.86904">
        <ele>1766</ele>
        <time>2022-03-06T11:25:33Z</time>
      </trkpt>
      <trkpt lat="45.34452" lon="5.86904">
        <ele>1766</ele>
        <time>2022-03-06T11:25:36Z</time>
      </trkpt>
      <trkpt lat="45.34454" lon="5.86905">
        <ele>1766</ele>
        <time>2022-03-06T11:25:37Z</time>
      </trkpt>
      <trkpt lat="45.34456" lon="5.86906">
        <ele>1766</ele>
        <time>2022-03-06T11:25:39Z</time>
      </trkpt>
      <trkpt lat="45.34458" lon="5.86907">
        <ele>1767</ele>
        <time>2022-03-06T11:25:42Z</time>
      </trkpt>
      <trkpt lat="45.34458" lon="5.86907">
        <ele>1767</ele>
        <time>2022-03-06T11:25:43Z</time>
      </trkpt>
      <trkpt lat="45.3446" lon="5.86908">
        <ele>1768</ele>
        <time>2022-03-06T11:25:46Z</time>
      </trkpt>
      <trkpt lat="45.3446" lon="5.86908">
        <ele>1768</ele>
        <time>2022-03-06T11:25:49Z</time>
      </trkpt>
      <trkpt lat="45.34462" lon="5.86909">
        <ele>1769</ele>
        <time>2022-03-06T11:25:51Z</time>
      </trkpt>
      <trkpt lat="45.34463" lon="5.86909">
        <ele>1769</ele>
        <time>2022-03-06T11:25:53Z</time>
      </trkpt>
      <trkpt lat="45.34463" lon="5.86909">
        <ele>1770</ele>
        <time>2022-03-06T11:25:55Z</time>
      </trkpt>
      <trkpt lat="45.34465" lon="5.86911">
        <ele>1771</ele>
        <time>2022-03-06T11:25:57Z</time>
      </trkpt>
      <trkpt lat="45.34465" lon="5.86911">
        <ele>1771</ele>
        <time>2022-03-06T11:26:00Z</time>
      </trkpt>
      <trkpt lat="45.34468" lon="5.86911">
        <ele>1772</ele>
        <time>2022-03-06T11:26:01Z</time>
      </trkpt>
      <trkpt lat="45.3447" lon="5.86912">
        <ele>1772</ele>
        <time>2022-03-06T11:26:05Z</time>
      </trkpt>
      <trkpt lat="45.3447" lon="5.86912">
        <ele>1772</ele>
        <time>2022-03-06T11:26:07Z</time>
      </trkpt>
      <trkpt lat="45.34472" lon="5.86912">
        <ele>1772</ele>
        <time>2022-03-06T11:26:08Z</time>
      </trkpt>
      <trkpt lat="45.34474" lon="5.86913">
        <ele>1774</ele>
        <time>2022-03-06T11:26:12Z</time>
      </trkpt>
      <trkpt lat="45.34474" lon="5.86913">
        <ele>1774</ele>
        <time>2022-03-06T11:26:13Z</time>
      </trkpt>
      <trkpt lat="45.34476" lon="5.86913">
        <ele>1774</ele>
        <time>2022-03-06T11:26:16Z</time>
      </trkpt>
      <trkpt lat="45.34476" lon="5.86913">
        <ele>1774</ele>
        <time>2022-03-06T11:26:18Z</time>
      </trkpt>
      <trkpt lat="45.34478" lon="5.86914">
        <ele>1774</ele>
        <time>2022-03-06T11:26:20Z</time>
      </trkpt>
      <trkpt lat="45.34478" lon="5.86914">
        <ele>1775</ele>
        <time>2022-03-06T11:26:23Z</time>
      </trkpt>
      <trkpt lat="45.3448" lon="5.86915">
        <ele>1775</ele>
        <time>2022-03-06T11:26:27Z</time>
      </trkpt>
      <trkpt lat="45.3448" lon="5.86915">
        <ele>1775</ele>
        <time>2022-03-06T11:26:29Z</time>
      </trkpt>
      <trkpt lat="45.34482" lon="5.86917">
        <ele>1776</ele>
        <time>2022-03-06T11:26:30Z</time>
      </trkpt>
      <trkpt lat="45.34484" lon="5.86918">
        <ele>1776</ele>
        <time>2022-03-06T11:26:34Z</time>
      </trkpt>
      <trkpt lat="45.34484" lon="5.86918">
        <ele>1776</ele>
        <time>2022-03-06T11:26:35Z</time>
      </trkpt>
      <trkpt lat="45.34485" lon="5.86919">
        <ele>1777</ele>
        <time>2022-03-06T11:26:38Z</time>
      </trkpt>
      <trkpt lat="45.34485" lon="5.86919">
        <ele>1777</ele>
        <time>2022-03-06T11:26:40Z</time>
      </trkpt>
      <trkpt lat="45.34487" lon="5.86921">
        <ele>1777</ele>
        <time>2022-03-06T11:26:43Z</time>
      </trkpt>
      <trkpt lat="45.34487" lon="5.86921">
        <ele>1777</ele>
        <time>2022-03-06T11:26:45Z</time>
      </trkpt>
      <trkpt lat="45.34487" lon="5.86921">
        <ele>1777</ele>
        <time>2022-03-06T11:26:49Z</time>
      </trkpt>
      <trkpt lat="45.34487" lon="5.86921">
        <ele>1777</ele>
        <time>2022-03-06T11:26:53Z</time>
      </trkpt>
      <trkpt lat="45.34486" lon="5.86923">
        <ele>1778</ele>
        <time>2022-03-06T11:26:55Z</time>
      </trkpt>
      <trkpt lat="45.34486" lon="5.86923">
        <ele>1779</ele>
        <time>2022-03-06T11:26:58Z</time>
      </trkpt>
      <trkpt lat="45.34484" lon="5.86924">
        <ele>1779</ele>
        <time>2022-03-06T11:27:00Z</time>
      </trkpt>
      <trkpt lat="45.34482" lon="5.86926">
        <ele>1779</ele>
        <time>2022-03-06T11:27:02Z</time>
      </trkpt>
      <trkpt lat="45.3448" lon="5.86927">
        <ele>1779</ele>
        <time>2022-03-06T11:27:05Z</time>
      </trkpt>
      <trkpt lat="45.3448" lon="5.86927">
        <ele>1780</ele>
        <time>2022-03-06T11:27:08Z</time>
      </trkpt>
      <trkpt lat="45.34478" lon="5.86929">
        <ele>1780</ele>
        <time>2022-03-06T11:27:09Z</time>
      </trkpt>
      <trkpt lat="45.34477" lon="5.8693">
        <ele>1780</ele>
        <time>2022-03-06T11:27:12Z</time>
      </trkpt>
      <trkpt lat="45.34477" lon="5.8693">
        <ele>1780</ele>
        <time>2022-03-06T11:27:14Z</time>
      </trkpt>
      <trkpt lat="45.34475" lon="5.86931">
        <ele>1781</ele>
        <time>2022-03-06T11:27:16Z</time>
      </trkpt>
      <trkpt lat="45.34473" lon="5.86932">
        <ele>1782</ele>
        <time>2022-03-06T11:27:19Z</time>
      </trkpt>
      <trkpt lat="45.34473" lon="5.86932">
        <ele>1782</ele>
        <time>2022-03-06T11:27:20Z</time>
      </trkpt>
      <trkpt lat="45.34471" lon="5.86934">
        <ele>1782</ele>
        <time>2022-03-06T11:27:23Z</time>
      </trkpt>
      <trkpt lat="45.34469" lon="5.86935">
        <ele>1782</ele>
        <time>2022-03-06T11:27:26Z</time>
      </trkpt>
      <trkpt lat="45.34469" lon="5.86935">
        <ele>1783</ele>
        <time>2022-03-06T11:27:27Z</time>
      </trkpt>
      <trkpt lat="45.34468" lon="5.86936">
        <ele>1783</ele>
        <time>2022-03-06T11:27:29Z</time>
      </trkpt>
      <trkpt lat="45.34466" lon="5.86937">
        <ele>1784</ele>
        <time>2022-03-06T11:27:32Z</time>
      </trkpt>
      <trkpt lat="45.34466" lon="5.86937">
        <ele>1784</ele>
        <time>2022-03-06T11:27:33Z</time>
      </trkpt>
      <trkpt lat="45.34464" lon="5.86939">
        <ele>1785</ele>
        <time>2022-03-06T11:27:35Z</time>
      </trkpt>
      <trkpt lat="45.34464" lon="5.86939">
        <ele>1785</ele>
        <time>2022-03-06T11:27:38Z</time>
      </trkpt>
      <trkpt lat="45.34462" lon="5.86941">
        <ele>1785</ele>
        <time>2022-03-06T11:27:39Z</time>
      </trkpt>
      <trkpt lat="45.34461" lon="5.86943">
        <ele>1786</ele>
        <time>2022-03-06T11:27:43Z</time>
      </trkpt>
      <trkpt lat="45.34461" lon="5.86943">
        <ele>1786</ele>
        <time>2022-03-06T11:27:45Z</time>
      </trkpt>
      <trkpt lat="45.34459" lon="5.86945">
        <ele>1786</ele>
        <time>2022-03-06T11:27:46Z</time>
      </trkpt>
      <trkpt lat="45.34457" lon="5.86946">
        <ele>1787</ele>
        <time>2022-03-06T11:27:49Z</time>
      </trkpt>
      <trkpt lat="45.34457" lon="5.86946">
        <ele>1787</ele>
        <time>2022-03-06T11:27:51Z</time>
      </trkpt>
      <trkpt lat="45.34456" lon="5.86948">
        <ele>1787</ele>
        <time>2022-03-06T11:27:53Z</time>
      </trkpt>
      <trkpt lat="45.34456" lon="5.86948">
        <ele>1787</ele>
        <time>2022-03-06T11:27:56Z</time>
      </trkpt>
      <trkpt lat="45.34456" lon="5.86948">
        <ele>1788</ele>
        <time>2022-03-06T11:28:00Z</time>
      </trkpt>
      <trkpt lat="45.34456" lon="5.86948">
        <ele>1788</ele>
        <time>2022-03-06T11:28:04Z</time>
      </trkpt>
      <trkpt lat="45.34456" lon="5.86948">
        <ele>1789</ele>
        <time>2022-03-06T11:28:08Z</time>
      </trkpt>
      <trkpt lat="45.34457" lon="5.8695">
        <ele>1789</ele>
        <time>2022-03-06T11:28:10Z</time>
      </trkpt>
      <trkpt lat="45.34459" lon="5.86951">
        <ele>1789</ele>
        <time>2022-03-06T11:28:13Z</time>
      </trkpt>
      <trkpt lat="45.34459" lon="5.86951">
        <ele>1789</ele>
        <time>2022-03-06T11:28:14Z</time>
      </trkpt>
      <trkpt lat="45.34461" lon="5.86951">
        <ele>1789</ele>
        <time>2022-03-06T11:28:16Z</time>
      </trkpt>
      <trkpt lat="45.34463" lon="5.86952">
        <ele>1790</ele>
        <time>2022-03-06T11:28:19Z</time>
      </trkpt>
      <trkpt lat="45.34463" lon="5.86952">
        <ele>1790</ele>
        <time>2022-03-06T11:28:20Z</time>
      </trkpt>
      <trkpt lat="45.34465" lon="5.86953">
        <ele>1791</ele>
        <time>2022-03-06T11:28:23Z</time>
      </trkpt>
      <trkpt lat="45.34465" lon="5.86953">
        <ele>1791</ele>
        <time>2022-03-06T11:28:25Z</time>
      </trkpt>
      <trkpt lat="45.34467" lon="5.86953">
        <ele>1791</ele>
        <time>2022-03-06T11:28:26Z</time>
      </trkpt>
      <trkpt lat="45.34469" lon="5.86954">
        <ele>1792</ele>
        <time>2022-03-06T11:28:29Z</time>
      </trkpt>
      <trkpt lat="45.34469" lon="5.86954">
        <ele>1792</ele>
        <time>2022-03-06T11:28:31Z</time>
      </trkpt>
      <trkpt lat="45.34471" lon="5.86956">
        <ele>1792</ele>
        <time>2022-03-06T11:28:33Z</time>
      </trkpt>
      <trkpt lat="45.34471" lon="5.86956">
        <ele>1792</ele>
        <time>2022-03-06T11:28:36Z</time>
      </trkpt>
      <trkpt lat="45.34473" lon="5.86956">
        <ele>1792</ele>
        <time>2022-03-06T11:28:37Z</time>
      </trkpt>
      <trkpt lat="45.34473" lon="5.86956">
        <ele>1793</ele>
        <time>2022-03-06T11:28:41Z</time>
      </trkpt>
      <trkpt lat="45.34475" lon="5.86957">
        <ele>1793</ele>
        <time>2022-03-06T11:28:42Z</time>
      </trkpt>
      <trkpt lat="45.34477" lon="5.86959">
        <ele>1794</ele>
        <time>2022-03-06T11:28:46Z</time>
      </trkpt>
      <trkpt lat="45.34477" lon="5.86959">
        <ele>1794</ele>
        <time>2022-03-06T11:28:47Z</time>
      </trkpt>
      <trkpt lat="45.34479" lon="5.8696">
        <ele>1796</ele>
        <time>2022-03-06T11:28:50Z</time>
      </trkpt>
      <trkpt lat="45.34479" lon="5.8696">
        <ele>1796</ele>
        <time>2022-03-06T11:28:52Z</time>
      </trkpt>
      <trkpt lat="45.34481" lon="5.86961">
        <ele>1796</ele>
        <time>2022-03-06T11:28:54Z</time>
      </trkpt>
      <trkpt lat="45.34481" lon="5.86961">
        <ele>1796</ele>
        <time>2022-03-06T11:28:58Z</time>
      </trkpt>
      <trkpt lat="45.34481" lon="5.86961">
        <ele>1797</ele>
        <time>2022-03-06T11:29:02Z</time>
      </trkpt>
      <trkpt lat="45.34483" lon="5.86963">
        <ele>1797</ele>
        <time>2022-03-06T11:29:03Z</time>
      </trkpt>
      <trkpt lat="45.34485" lon="5.86965">
        <ele>1798</ele>
        <time>2022-03-06T11:29:07Z</time>
      </trkpt>
      <trkpt lat="45.34485" lon="5.86965">
        <ele>1799</ele>
        <time>2022-03-06T11:29:08Z</time>
      </trkpt>
      <trkpt lat="45.34487" lon="5.86966">
        <ele>1799</ele>
        <time>2022-03-06T11:29:10Z</time>
      </trkpt>
      <trkpt lat="45.34487" lon="5.86966">
        <ele>1799</ele>
        <time>2022-03-06T11:29:13Z</time>
      </trkpt>
      <trkpt lat="45.34488" lon="5.86968">
        <ele>1799</ele>
        <time>2022-03-06T11:29:14Z</time>
      </trkpt>
      <trkpt lat="45.3449" lon="5.86969">
        <ele>1799</ele>
        <time>2022-03-06T11:29:17Z</time>
      </trkpt>
      <trkpt lat="45.3449" lon="5.86969">
        <ele>1800</ele>
        <time>2022-03-06T11:29:19Z</time>
      </trkpt>
      <trkpt lat="45.34492" lon="5.86971">
        <ele>1800</ele>
        <time>2022-03-06T11:29:20Z</time>
      </trkpt>
      <trkpt lat="45.34494" lon="5.86971">
        <ele>1801</ele>
        <time>2022-03-06T11:29:23Z</time>
      </trkpt>
      <trkpt lat="45.34494" lon="5.86971">
        <ele>1801</ele>
        <time>2022-03-06T11:29:25Z</time>
      </trkpt>
      <trkpt lat="45.34496" lon="5.86972">
        <ele>1802</ele>
        <time>2022-03-06T11:29:26Z</time>
      </trkpt>
      <trkpt lat="45.34497" lon="5.86972">
        <ele>1802</ele>
        <time>2022-03-06T11:29:30Z</time>
      </trkpt>
      <trkpt lat="45.34497" lon="5.86972">
        <ele>1802</ele>
        <time>2022-03-06T11:29:31Z</time>
      </trkpt>
      <trkpt lat="45.34499" lon="5.86973">
        <ele>1802</ele>
        <time>2022-03-06T11:29:32Z</time>
      </trkpt>
      <trkpt lat="45.34502" lon="5.86973">
        <ele>1803</ele>
        <time>2022-03-06T11:29:36Z</time>
      </trkpt>
      <trkpt lat="45.34502" lon="5.86973">
        <ele>1803</ele>
        <time>2022-03-06T11:29:38Z</time>
      </trkpt>
      <trkpt lat="45.34504" lon="5.86973">
        <ele>1804</ele>
        <time>2022-03-06T11:29:39Z</time>
      </trkpt>
      <trkpt lat="45.34506" lon="5.86974">
        <ele>1804</ele>
        <time>2022-03-06T11:29:42Z</time>
      </trkpt>
      <trkpt lat="45.34506" lon="5.86974">
        <ele>1804</ele>
        <time>2022-03-06T11:29:44Z</time>
      </trkpt>
      <trkpt lat="45.34508" lon="5.86974">
        <ele>1804</ele>
        <time>2022-03-06T11:29:45Z</time>
      </trkpt>
      <trkpt lat="45.3451" lon="5.86974">
        <ele>1805</ele>
        <time>2022-03-06T11:29:49Z</time>
      </trkpt>
      <trkpt lat="45.3451" lon="5.86974">
        <ele>1805</ele>
        <time>2022-03-06T11:29:50Z</time>
      </trkpt>
      <trkpt lat="45.3451" lon="5.86974">
        <ele>1806</ele>
        <time>2022-03-06T11:29:54Z</time>
      </trkpt>
      <trkpt lat="45.34512" lon="5.86974">
        <ele>1806</ele>
        <time>2022-03-06T11:29:58Z</time>
      </trkpt>
      <trkpt lat="45.34512" lon="5.86974">
        <ele>1806</ele>
        <time>2022-03-06T11:29:59Z</time>
      </trkpt>
      <trkpt lat="45.34514" lon="5.86975">
        <ele>1806</ele>
        <time>2022-03-06T11:30:01Z</time>
      </trkpt>
      <trkpt lat="45.34515" lon="5.86975">
        <ele>1807</ele>
        <time>2022-03-06T11:30:04Z</time>
      </trkpt>
      <trkpt lat="45.34515" lon="5.86975">
        <ele>1807</ele>
        <time>2022-03-06T11:30:05Z</time>
      </trkpt>
      <trkpt lat="45.34517" lon="5.86975">
        <ele>1807</ele>
        <time>2022-03-06T11:30:07Z</time>
      </trkpt>
      <trkpt lat="45.34519" lon="5.86975">
        <ele>1807</ele>
        <time>2022-03-06T11:30:10Z</time>
      </trkpt>
      <trkpt lat="45.34519" lon="5.86975">
        <ele>1808</ele>
        <time>2022-03-06T11:30:11Z</time>
      </trkpt>
      <trkpt lat="45.34522" lon="5.86975">
        <ele>1808</ele>
        <time>2022-03-06T11:30:15Z</time>
      </trkpt>
      <trkpt lat="45.34522" lon="5.86975">
        <ele>1809</ele>
        <time>2022-03-06T11:30:17Z</time>
      </trkpt>
      <trkpt lat="45.34524" lon="5.86976">
        <ele>1809</ele>
        <time>2022-03-06T11:30:18Z</time>
      </trkpt>
      <trkpt lat="45.34526" lon="5.86977">
        <ele>1810</ele>
        <time>2022-03-06T11:30:21Z</time>
      </trkpt>
      <trkpt lat="45.34526" lon="5.86977">
        <ele>1810</ele>
        <time>2022-03-06T11:30:23Z</time>
      </trkpt>
      <trkpt lat="45.34528" lon="5.86977">
        <ele>1810</ele>
        <time>2022-03-06T11:30:25Z</time>
      </trkpt>
      <trkpt lat="45.34528" lon="5.86977">
        <ele>1811</ele>
        <time>2022-03-06T11:30:28Z</time>
      </trkpt>
      <trkpt lat="45.34528" lon="5.86977">
        <ele>1811</ele>
        <time>2022-03-06T11:30:33Z</time>
      </trkpt>
      <trkpt lat="45.34528" lon="5.86977">
        <ele>1812</ele>
        <time>2022-03-06T11:30:37Z</time>
      </trkpt>
      <trkpt lat="45.34528" lon="5.86977">
        <ele>1812</ele>
        <time>2022-03-06T11:30:41Z</time>
      </trkpt>
      <trkpt lat="45.34527" lon="5.8698">
        <ele>1812</ele>
        <time>2022-03-06T11:30:42Z</time>
      </trkpt>
      <trkpt lat="45.34525" lon="5.86982">
        <ele>1812</ele>
        <time>2022-03-06T11:30:45Z</time>
      </trkpt>
      <trkpt lat="45.34525" lon="5.86982">
        <ele>1812</ele>
        <time>2022-03-06T11:30:47Z</time>
      </trkpt>
      <trkpt lat="45.34524" lon="5.86983">
        <ele>1813</ele>
        <time>2022-03-06T11:30:48Z</time>
      </trkpt>
      <trkpt lat="45.34522" lon="5.86986">
        <ele>1814</ele>
        <time>2022-03-06T11:30:52Z</time>
      </trkpt>
      <trkpt lat="45.34522" lon="5.86986">
        <ele>1814</ele>
        <time>2022-03-06T11:30:53Z</time>
      </trkpt>
      <trkpt lat="45.3452" lon="5.86988">
        <ele>1814</ele>
        <time>2022-03-06T11:30:55Z</time>
      </trkpt>
      <trkpt lat="45.34518" lon="5.86989">
        <ele>1814</ele>
        <time>2022-03-06T11:30:58Z</time>
      </trkpt>
      <trkpt lat="45.34518" lon="5.86989">
        <ele>1814</ele>
        <time>2022-03-06T11:30:59Z</time>
      </trkpt>
      <trkpt lat="45.34517" lon="5.86991">
        <ele>1815</ele>
        <time>2022-03-06T11:31:01Z</time>
      </trkpt>
      <trkpt lat="45.34515" lon="5.86992">
        <ele>1815</ele>
        <time>2022-03-06T11:31:04Z</time>
      </trkpt>
      <trkpt lat="45.34515" lon="5.86992">
        <ele>1815</ele>
        <time>2022-03-06T11:31:05Z</time>
      </trkpt>
      <trkpt lat="45.34513" lon="5.86994">
        <ele>1816</ele>
        <time>2022-03-06T11:31:08Z</time>
      </trkpt>
      <trkpt lat="45.34513" lon="5.86994">
        <ele>1816</ele>
        <time>2022-03-06T11:31:10Z</time>
      </trkpt>
      <trkpt lat="45.34511" lon="5.86996">
        <ele>1816</ele>
        <time>2022-03-06T11:31:11Z</time>
      </trkpt>
      <trkpt lat="45.3451" lon="5.86998">
        <ele>1817</ele>
        <time>2022-03-06T11:31:15Z</time>
      </trkpt>
      <trkpt lat="45.3451" lon="5.86998">
        <ele>1817</ele>
        <time>2022-03-06T11:31:16Z</time>
      </trkpt>
      <trkpt lat="45.34508" lon="5.86999">
        <ele>1817</ele>
        <time>2022-03-06T11:31:17Z</time>
      </trkpt>
      <trkpt lat="45.34506" lon="5.87001">
        <ele>1819</ele>
        <time>2022-03-06T11:31:21Z</time>
      </trkpt>
      <trkpt lat="45.34506" lon="5.87001">
        <ele>1819</ele>
        <time>2022-03-06T11:31:22Z</time>
      </trkpt>
      <trkpt lat="45.34505" lon="5.87002">
        <ele>1819</ele>
        <time>2022-03-06T11:31:24Z</time>
      </trkpt>
      <trkpt lat="45.34503" lon="5.87005">
        <ele>1820</ele>
        <time>2022-03-06T11:31:28Z</time>
      </trkpt>
      <trkpt lat="45.34503" lon="5.87005">
        <ele>1820</ele>
        <time>2022-03-06T11:31:29Z</time>
      </trkpt>
      <trkpt lat="45.34501" lon="5.87007">
        <ele>1820</ele>
        <time>2022-03-06T11:31:32Z</time>
      </trkpt>
      <trkpt lat="45.34501" lon="5.87007">
        <ele>1820</ele>
        <time>2022-03-06T11:31:34Z</time>
      </trkpt>
      <trkpt lat="45.345" lon="5.87008">
        <ele>1820</ele>
        <time>2022-03-06T11:31:36Z</time>
      </trkpt>
      <trkpt lat="45.345" lon="5.87008">
        <ele>1820</ele>
        <time>2022-03-06T11:31:39Z</time>
      </trkpt>
      <trkpt lat="45.345" lon="5.87008">
        <ele>1820</ele>
        <time>2022-03-06T11:31:43Z</time>
      </trkpt>
      <trkpt lat="45.34498" lon="5.8701">
        <ele>1821</ele>
        <time>2022-03-06T11:31:46Z</time>
      </trkpt>
      <trkpt lat="45.34498" lon="5.8701">
        <ele>1821</ele>
        <time>2022-03-06T11:31:48Z</time>
      </trkpt>
      <trkpt lat="45.34496" lon="5.87011">
        <ele>1821</ele>
        <time>2022-03-06T11:31:49Z</time>
      </trkpt>
      <trkpt lat="45.34494" lon="5.87012">
        <ele>1821</ele>
        <time>2022-03-06T11:31:53Z</time>
      </trkpt>
      <trkpt lat="45.34494" lon="5.87012">
        <ele>1821</ele>
        <time>2022-03-06T11:31:54Z</time>
      </trkpt>
      <trkpt lat="45.34492" lon="5.87013">
        <ele>1823</ele>
        <time>2022-03-06T11:31:57Z</time>
      </trkpt>
      <trkpt lat="45.34492" lon="5.87013">
        <ele>1824</ele>
        <time>2022-03-06T11:31:59Z</time>
      </trkpt>
      <trkpt lat="45.3449" lon="5.87013">
        <ele>1824</ele>
        <time>2022-03-06T11:32:00Z</time>
      </trkpt>
      <trkpt lat="45.3449" lon="5.87013">
        <ele>1824</ele>
        <time>2022-03-06T11:32:04Z</time>
      </trkpt>
      <trkpt lat="45.3449" lon="5.87013">
        <ele>1824</ele>
        <time>2022-03-06T11:32:08Z</time>
      </trkpt>
      <trkpt lat="45.3449" lon="5.87013">
        <ele>1824</ele>
        <time>2022-03-06T11:32:12Z</time>
      </trkpt>
      <trkpt lat="45.3449" lon="5.87013">
        <ele>1824</ele>
        <time>2022-03-06T11:32:16Z</time>
      </trkpt>
      <trkpt lat="45.3449" lon="5.87013">
        <ele>1825</ele>
        <time>2022-03-06T11:32:20Z</time>
      </trkpt>
      <trkpt lat="45.34491" lon="5.87015">
        <ele>1825</ele>
        <time>2022-03-06T11:32:23Z</time>
      </trkpt>
      <trkpt lat="45.34491" lon="5.87015">
        <ele>1825</ele>
        <time>2022-03-06T11:32:25Z</time>
      </trkpt>
      <trkpt lat="45.34493" lon="5.87017">
        <ele>1825</ele>
        <time>2022-03-06T11:32:28Z</time>
      </trkpt>
      <trkpt lat="45.34493" lon="5.87017">
        <ele>1825</ele>
        <time>2022-03-06T11:32:30Z</time>
      </trkpt>
      <trkpt lat="45.34495" lon="5.87018">
        <ele>1825</ele>
        <time>2022-03-06T11:32:31Z</time>
      </trkpt>
      <trkpt lat="45.34497" lon="5.8702">
        <ele>1826</ele>
        <time>2022-03-06T11:32:34Z</time>
      </trkpt>
      <trkpt lat="45.34497" lon="5.8702">
        <ele>1826</ele>
        <time>2022-03-06T11:32:36Z</time>
      </trkpt>
      <trkpt lat="45.34498" lon="5.87021">
        <ele>1826</ele>
        <time>2022-03-06T11:32:38Z</time>
      </trkpt>
      <trkpt lat="45.345" lon="5.87022">
        <ele>1827</ele>
        <time>2022-03-06T11:32:41Z</time>
      </trkpt>
      <trkpt lat="45.345" lon="5.87022">
        <ele>1827</ele>
        <time>2022-03-06T11:32:42Z</time>
      </trkpt>
      <trkpt lat="45.34502" lon="5.87022">
        <ele>1827</ele>
        <time>2022-03-06T11:32:44Z</time>
      </trkpt>
      <trkpt lat="45.34502" lon="5.87022">
        <ele>1826</ele>
        <time>2022-03-06T11:32:47Z</time>
      </trkpt>
      <trkpt lat="45.34504" lon="5.87022">
        <ele>1828</ele>
        <time>2022-03-06T11:32:48Z</time>
      </trkpt>
      <trkpt lat="45.34506" lon="5.87023">
        <ele>1828</ele>
        <time>2022-03-06T11:32:51Z</time>
      </trkpt>
      <trkpt lat="45.34506" lon="5.87023">
        <ele>1828</ele>
        <time>2022-03-06T11:32:53Z</time>
      </trkpt>
      <trkpt lat="45.34508" lon="5.87023">
        <ele>1829</ele>
        <time>2022-03-06T11:32:54Z</time>
      </trkpt>
      <trkpt lat="45.3451" lon="5.87024">
        <ele>1829</ele>
        <time>2022-03-06T11:32:58Z</time>
      </trkpt>
      <trkpt lat="45.3451" lon="5.87024">
        <ele>1829</ele>
        <time>2022-03-06T11:32:59Z</time>
      </trkpt>
      <trkpt lat="45.34512" lon="5.87025">
        <ele>1830</ele>
        <time>2022-03-06T11:33:01Z</time>
      </trkpt>
      <trkpt lat="45.34512" lon="5.87025">
        <ele>1830</ele>
        <time>2022-03-06T11:33:04Z</time>
      </trkpt>
      <trkpt lat="45.34515" lon="5.87025">
        <ele>1831</ele>
        <time>2022-03-06T11:33:06Z</time>
      </trkpt>
      <trkpt lat="45.34515" lon="5.87025">
        <ele>1832</ele>
        <time>2022-03-06T11:33:09Z</time>
      </trkpt>
      <trkpt lat="45.34517" lon="5.87025">
        <ele>1832</ele>
        <time>2022-03-06T11:33:10Z</time>
      </trkpt>
      <trkpt lat="45.34519" lon="5.87025">
        <ele>1833</ele>
        <time>2022-03-06T11:33:14Z</time>
      </trkpt>
      <trkpt lat="45.34519" lon="5.87025">
        <ele>1833</ele>
        <time>2022-03-06T11:33:15Z</time>
      </trkpt>
      <trkpt lat="45.34521" lon="5.87026">
        <ele>1833</ele>
        <time>2022-03-06T11:33:18Z</time>
      </trkpt>
      <trkpt lat="45.34521" lon="5.87026">
        <ele>1833</ele>
        <time>2022-03-06T11:33:20Z</time>
      </trkpt>
      <trkpt lat="45.34523" lon="5.87027">
        <ele>1833</ele>
        <time>2022-03-06T11:33:21Z</time>
      </trkpt>
      <trkpt lat="45.34525" lon="5.87027">
        <ele>1833</ele>
        <time>2022-03-06T11:33:24Z</time>
      </trkpt>
      <trkpt lat="45.34525" lon="5.87027">
        <ele>1834</ele>
        <time>2022-03-06T11:33:26Z</time>
      </trkpt>
      <trkpt lat="45.34527" lon="5.87028">
        <ele>1835</ele>
        <time>2022-03-06T11:33:27Z</time>
      </trkpt>
      <trkpt lat="45.34529" lon="5.87029">
        <ele>1835</ele>
        <time>2022-03-06T11:33:30Z</time>
      </trkpt>
      <trkpt lat="45.34529" lon="5.87029">
        <ele>1836</ele>
        <time>2022-03-06T11:33:32Z</time>
      </trkpt>
      <trkpt lat="45.34531" lon="5.8703">
        <ele>1836</ele>
        <time>2022-03-06T11:33:33Z</time>
      </trkpt>
      <trkpt lat="45.34533" lon="5.87031">
        <ele>1836</ele>
        <time>2022-03-06T11:33:37Z</time>
      </trkpt>
      <trkpt lat="45.34533" lon="5.87031">
        <ele>1836</ele>
        <time>2022-03-06T11:33:38Z</time>
      </trkpt>
      <trkpt lat="45.34535" lon="5.87031">
        <ele>1837</ele>
        <time>2022-03-06T11:33:41Z</time>
      </trkpt>
      <trkpt lat="45.34537" lon="5.87032">
        <ele>1838</ele>
        <time>2022-03-06T11:33:44Z</time>
      </trkpt>
      <trkpt lat="45.34538" lon="5.87033">
        <ele>1839</ele>
        <time>2022-03-06T11:33:47Z</time>
      </trkpt>
      <trkpt lat="45.34538" lon="5.87033">
        <ele>1839</ele>
        <time>2022-03-06T11:33:48Z</time>
      </trkpt>
      <trkpt lat="45.3454" lon="5.87034">
        <ele>1839</ele>
        <time>2022-03-06T11:33:51Z</time>
      </trkpt>
      <trkpt lat="45.3454" lon="5.87034">
        <ele>1839</ele>
        <time>2022-03-06T11:33:53Z</time>
      </trkpt>
      <trkpt lat="45.34543" lon="5.87035">
        <ele>1839</ele>
        <time>2022-03-06T11:33:56Z</time>
      </trkpt>
      <trkpt lat="45.34543" lon="5.87035">
        <ele>1840</ele>
        <time>2022-03-06T11:33:58Z</time>
      </trkpt>
      <trkpt lat="45.34545" lon="5.87036">
        <ele>1840</ele>
        <time>2022-03-06T11:34:00Z</time>
      </trkpt>
      <trkpt lat="45.34547" lon="5.87037">
        <ele>1840</ele>
        <time>2022-03-06T11:34:04Z</time>
      </trkpt>
      <trkpt lat="45.34547" lon="5.87037">
        <ele>1840</ele>
        <time>2022-03-06T11:34:05Z</time>
      </trkpt>
      <trkpt lat="45.34549" lon="5.87038">
        <ele>1842</ele>
        <time>2022-03-06T11:34:09Z</time>
      </trkpt>
      <trkpt lat="45.34549" lon="5.87038">
        <ele>1843</ele>
        <time>2022-03-06T11:34:10Z</time>
      </trkpt>
      <trkpt lat="45.34551" lon="5.87038">
        <ele>1843</ele>
        <time>2022-03-06T11:34:13Z</time>
      </trkpt>
      <trkpt lat="45.34551" lon="5.87038">
        <ele>1843</ele>
        <time>2022-03-06T11:34:15Z</time>
      </trkpt>
      <trkpt lat="45.34554" lon="5.87039">
        <ele>1844</ele>
        <time>2022-03-06T11:34:18Z</time>
      </trkpt>
      <trkpt lat="45.34554" lon="5.87039">
        <ele>1844</ele>
        <time>2022-03-06T11:34:21Z</time>
      </trkpt>
      <trkpt lat="45.34554" lon="5.87039">
        <ele>1844</ele>
        <time>2022-03-06T11:34:25Z</time>
      </trkpt>
      <trkpt lat="45.34554" lon="5.87039">
        <ele>1845</ele>
        <time>2022-03-06T11:34:29Z</time>
      </trkpt>
      <trkpt lat="45.34554" lon="5.87039">
        <ele>1845</ele>
        <time>2022-03-06T11:34:33Z</time>
      </trkpt>
      <trkpt lat="45.34554" lon="5.87039">
        <ele>1845</ele>
        <time>2022-03-06T11:34:37Z</time>
      </trkpt>
      <trkpt lat="45.34554" lon="5.87039">
        <ele>1845</ele>
        <time>2022-03-06T11:34:42Z</time>
      </trkpt>
      <trkpt lat="45.34555" lon="5.8704">
        <ele>1845</ele>
        <time>2022-03-06T11:34:43Z</time>
      </trkpt>
      <trkpt lat="45.34557" lon="5.87041">
        <ele>1845</ele>
        <time>2022-03-06T11:34:46Z</time>
      </trkpt>
      <trkpt lat="45.34557" lon="5.87041">
        <ele>1845</ele>
        <time>2022-03-06T11:34:48Z</time>
      </trkpt>
      <trkpt lat="45.34559" lon="5.87041">
        <ele>1845</ele>
        <time>2022-03-06T11:34:51Z</time>
      </trkpt>
      <trkpt lat="45.34559" lon="5.87041">
        <ele>1845</ele>
        <time>2022-03-06T11:34:53Z</time>
      </trkpt>
      <trkpt lat="45.34559" lon="5.87041">
        <ele>1845</ele>
        <time>2022-03-06T11:34:57Z</time>
      </trkpt>
      <trkpt lat="45.34559" lon="5.87041">
        <ele>1845</ele>
        <time>2022-03-06T11:35:01Z</time>
      </trkpt>
      <trkpt lat="45.34559" lon="5.87041">
        <ele>1845</ele>
        <time>2022-03-06T11:35:05Z</time>
      </trkpt>
      <trkpt lat="45.34559" lon="5.87041">
        <ele>1844</ele>
        <time>2022-03-06T11:35:09Z</time>
      </trkpt>
      <trkpt lat="45.34559" lon="5.87041">
        <ele>1844</ele>
        <time>2022-03-06T11:35:13Z</time>
      </trkpt>
      <trkpt lat="45.34559" lon="5.87041">
        <ele>1844</ele>
        <time>2022-03-06T11:35:18Z</time>
      </trkpt>
      <trkpt lat="45.34559" lon="5.87041">
        <ele>1844</ele>
        <time>2022-03-06T11:35:22Z</time>
      </trkpt>
      <trkpt lat="45.34559" lon="5.87041">
        <ele>1844</ele>
        <time>2022-03-06T11:35:26Z</time>
      </trkpt>
      <trkpt lat="45.34559" lon="5.87041">
        <ele>1844</ele>
        <time>2022-03-06T11:35:30Z</time>
      </trkpt>
      <trkpt lat="45.34559" lon="5.87041">
        <ele>1844</ele>
        <time>2022-03-06T11:35:34Z</time>
      </trkpt>
      <trkpt lat="45.34559" lon="5.87041">
        <ele>1845</ele>
        <time>2022-03-06T11:35:38Z</time>
      </trkpt>
      <trkpt lat="45.34559" lon="5.87041">
        <ele>1846</ele>
        <time>2022-03-06T11:35:42Z</time>
      </trkpt>
      <trkpt lat="45.34559" lon="5.87041">
        <ele>1846</ele>
        <time>2022-03-06T11:35:46Z</time>
      </trkpt>
      <trkpt lat="45.34559" lon="5.87041">
        <ele>1845</ele>
        <time>2022-03-06T11:35:50Z</time>
      </trkpt>
      <trkpt lat="45.34559" lon="5.87041">
        <ele>1845</ele>
        <time>2022-03-06T11:35:54Z</time>
      </trkpt>
      <trkpt lat="45.34559" lon="5.87041">
        <ele>1845</ele>
        <time>2022-03-06T11:35:59Z</time>
      </trkpt>
      <trkpt lat="45.34559" lon="5.87041">
        <ele>1845</ele>
        <time>2022-03-06T11:36:03Z</time>
      </trkpt>
      <trkpt lat="45.34559" lon="5.87041">
        <ele>1844</ele>
        <time>2022-03-06T11:36:07Z</time>
      </trkpt>
      <trkpt lat="45.34559" lon="5.87041">
        <ele>1844</ele>
        <time>2022-03-06T11:36:11Z</time>
      </trkpt>
      <trkpt lat="45.34559" lon="5.87041">
        <ele>1844</ele>
        <time>2022-03-06T11:36:15Z</time>
      </trkpt>
      <trkpt lat="45.34559" lon="5.87041">
        <ele>1844</ele>
        <time>2022-03-06T11:36:19Z</time>
      </trkpt>
      <trkpt lat="45.34559" lon="5.87041">
        <ele>1844</ele>
        <time>2022-03-06T11:36:23Z</time>
      </trkpt>
      <trkpt lat="45.34559" lon="5.87041">
        <ele>1845</ele>
        <time>2022-03-06T11:36:27Z</time>
      </trkpt>
      <trkpt lat="45.34559" lon="5.87041">
        <ele>1845</ele>
        <time>2022-03-06T11:36:31Z</time>
      </trkpt>
      <trkpt lat="45.34559" lon="5.87041">
        <ele>1845</ele>
        <time>2022-03-06T11:36:35Z</time>
      </trkpt>
      <trkpt lat="45.34559" lon="5.87041">
        <ele>1845</ele>
        <time>2022-03-06T11:36:39Z</time>
      </trkpt>
      <trkpt lat="45.34559" lon="5.87041">
        <ele>1845</ele>
        <time>2022-03-06T11:36:43Z</time>
      </trkpt>
      <trkpt lat="45.34559" lon="5.87041">
        <ele>1845</ele>
        <time>2022-03-06T11:36:47Z</time>
      </trkpt>
      <trkpt lat="45.34559" lon="5.87041">
        <ele>1845</ele>
        <time>2022-03-06T11:36:51Z</time>
      </trkpt>
      <trkpt lat="45.34559" lon="5.87041">
        <ele>1845</ele>
        <time>2022-03-06T11:36:56Z</time>
      </trkpt>
      <trkpt lat="45.34559" lon="5.87041">
        <ele>1846</ele>
        <time>2022-03-06T11:37:00Z</time>
      </trkpt>
      <trkpt lat="45.34559" lon="5.87041">
        <ele>1846</ele>
        <time>2022-03-06T11:37:04Z</time>
      </trkpt>
      <trkpt lat="45.34559" lon="5.87041">
        <ele>1845</ele>
        <time>2022-03-06T11:37:08Z</time>
      </trkpt>
      <trkpt lat="45.34559" lon="5.87041">
        <ele>1845</ele>
        <time>2022-03-06T11:37:12Z</time>
      </trkpt>
      <trkpt lat="45.34559" lon="5.87041">
        <ele>1845</ele>
        <time>2022-03-06T11:37:16Z</time>
      </trkpt>
      <trkpt lat="45.34559" lon="5.87041">
        <ele>1845</ele>
        <time>2022-03-06T11:37:20Z</time>
      </trkpt>
      <trkpt lat="45.34559" lon="5.87041">
        <ele>1845</ele>
        <time>2022-03-06T11:37:24Z</time>
      </trkpt>
      <trkpt lat="45.34559" lon="5.87041">
        <ele>1845</ele>
        <time>2022-03-06T11:37:28Z</time>
      </trkpt>
      <trkpt lat="45.34559" lon="5.87041">
        <ele>1845</ele>
        <time>2022-03-06T11:37:32Z</time>
      </trkpt>
      <trkpt lat="45.34559" lon="5.87041">
        <ele>1845</ele>
        <time>2022-03-06T11:37:36Z</time>
      </trkpt>
      <trkpt lat="45.34559" lon="5.87041">
        <ele>1845</ele>
        <time>2022-03-06T11:37:40Z</time>
      </trkpt>
      <trkpt lat="45.34559" lon="5.87041">
        <ele>1845</ele>
        <time>2022-03-06T11:37:44Z</time>
      </trkpt>
      <trkpt lat="45.34559" lon="5.87041">
        <ele>1845</ele>
        <time>2022-03-06T11:37:48Z</time>
      </trkpt>
      <trkpt lat="45.34559" lon="5.87041">
        <ele>1845</ele>
        <time>2022-03-06T11:37:53Z</time>
      </trkpt>
      <trkpt lat="45.34559" lon="5.87041">
        <ele>1845</ele>
        <time>2022-03-06T11:37:57Z</time>
      </trkpt>
      <trkpt lat="45.34559" lon="5.87041">
        <ele>1844</ele>
        <time>2022-03-06T11:38:01Z</time>
      </trkpt>
      <trkpt lat="45.34559" lon="5.87041">
        <ele>1844</ele>
        <time>2022-03-06T11:38:05Z</time>
      </trkpt>
      <trkpt lat="45.34559" lon="5.87041">
        <ele>1844</ele>
        <time>2022-03-06T11:38:10Z</time>
      </trkpt>
      <trkpt lat="45.34559" lon="5.87041">
        <ele>1844</ele>
        <time>2022-03-06T11:38:14Z</time>
      </trkpt>
      <trkpt lat="45.34559" lon="5.87041">
        <ele>1844</ele>
        <time>2022-03-06T11:38:18Z</time>
      </trkpt>
      <trkpt lat="45.34559" lon="5.87041">
        <ele>1845</ele>
        <time>2022-03-06T11:38:22Z</time>
      </trkpt>
      <trkpt lat="45.34559" lon="5.87041">
        <ele>1845</ele>
        <time>2022-03-06T11:38:26Z</time>
      </trkpt>
      <trkpt lat="45.34558" lon="5.87038">
        <ele>1845</ele>
        <time>2022-03-06T11:38:29Z</time>
      </trkpt>
      <trkpt lat="45.34558" lon="5.87038">
        <ele>1845</ele>
        <time>2022-03-06T11:38:32Z</time>
      </trkpt>
      <trkpt lat="45.34558" lon="5.87038">
        <ele>1845</ele>
        <time>2022-03-06T11:38:36Z</time>
      </trkpt>
      <trkpt lat="45.34558" lon="5.87038">
        <ele>1845</ele>
        <time>2022-03-06T11:38:40Z</time>
      </trkpt>
      <trkpt lat="45.34558" lon="5.87038">
        <ele>1845</ele>
        <time>2022-03-06T11:38:44Z</time>
      </trkpt>
      <trkpt lat="45.34558" lon="5.87038">
        <ele>1845</ele>
        <time>2022-03-06T11:38:48Z</time>
      </trkpt>
      <trkpt lat="45.34561" lon="5.87038">
        <ele>1845</ele>
        <time>2022-03-06T11:38:52Z</time>
      </trkpt>
      <trkpt lat="45.34561" lon="5.87038">
        <ele>1845</ele>
        <time>2022-03-06T11:38:53Z</time>
      </trkpt>
      <trkpt lat="45.34562" lon="5.87039">
        <ele>1845</ele>
        <time>2022-03-06T11:38:56Z</time>
      </trkpt>
      <trkpt lat="45.34562" lon="5.87039">
        <ele>1845</ele>
        <time>2022-03-06T11:38:58Z</time>
      </trkpt>
      <trkpt lat="45.34563" lon="5.87042">
        <ele>1845</ele>
        <time>2022-03-06T11:38:59Z</time>
      </trkpt>
      <trkpt lat="45.34562" lon="5.87044">
        <ele>1847</ele>
        <time>2022-03-06T11:39:03Z</time>
      </trkpt>
      <trkpt lat="45.34562" lon="5.87044">
        <ele>1847</ele>
        <time>2022-03-06T11:39:04Z</time>
      </trkpt>
      <trkpt lat="45.34561" lon="5.87047">
        <ele>1848</ele>
        <time>2022-03-06T11:39:07Z</time>
      </trkpt>
      <trkpt lat="45.34561" lon="5.87047">
        <ele>1849</ele>
        <time>2022-03-06T11:39:09Z</time>
      </trkpt>
      <trkpt lat="45.3456" lon="5.8705">
        <ele>1849</ele>
        <time>2022-03-06T11:39:10Z</time>
      </trkpt>
      <trkpt lat="45.34558" lon="5.87052">
        <ele>1849</ele>
        <time>2022-03-06T11:39:13Z</time>
      </trkpt>
      <trkpt lat="45.34558" lon="5.87052">
        <ele>1849</ele>
        <time>2022-03-06T11:39:15Z</time>
      </trkpt>
      <trkpt lat="45.34556" lon="5.87054">
        <ele>1849</ele>
        <time>2022-03-06T11:39:17Z</time>
      </trkpt>
      <trkpt lat="45.34555" lon="5.87056">
        <ele>1849</ele>
        <time>2022-03-06T11:39:19Z</time>
      </trkpt>
      <trkpt lat="45.34555" lon="5.87056">
        <ele>1850</ele>
        <time>2022-03-06T11:39:21Z</time>
      </trkpt>
      <trkpt lat="45.34553" lon="5.87057">
        <ele>1850</ele>
        <time>2022-03-06T11:39:22Z</time>
      </trkpt>
      <trkpt lat="45.34551" lon="5.87058">
        <ele>1851</ele>
        <time>2022-03-06T11:39:25Z</time>
      </trkpt>
      <trkpt lat="45.34551" lon="5.87058">
        <ele>1851</ele>
        <time>2022-03-06T11:39:27Z</time>
      </trkpt>
      <trkpt lat="45.34549" lon="5.87059">
        <ele>1852</ele>
        <time>2022-03-06T11:39:29Z</time>
      </trkpt>
      <trkpt lat="45.34549" lon="5.87059">
        <ele>1853</ele>
        <time>2022-03-06T11:39:32Z</time>
      </trkpt>
      <trkpt lat="45.34547" lon="5.8706">
        <ele>1853</ele>
        <time>2022-03-06T11:39:33Z</time>
      </trkpt>
      <trkpt lat="45.34545" lon="5.87062">
        <ele>1854</ele>
        <time>2022-03-06T11:39:37Z</time>
      </trkpt>
      <trkpt lat="45.34545" lon="5.87062">
        <ele>1854</ele>
        <time>2022-03-06T11:39:38Z</time>
      </trkpt>
      <trkpt lat="45.34543" lon="5.87063">
        <ele>1854</ele>
        <time>2022-03-06T11:39:41Z</time>
      </trkpt>
      <trkpt lat="45.34543" lon="5.87063">
        <ele>1855</ele>
        <time>2022-03-06T11:39:43Z</time>
      </trkpt>
      <trkpt lat="45.34541" lon="5.87064">
        <ele>1855</ele>
        <time>2022-03-06T11:39:45Z</time>
      </trkpt>
      <trkpt lat="45.34539" lon="5.87066">
        <ele>1856</ele>
        <time>2022-03-06T11:39:48Z</time>
      </trkpt>
      <trkpt lat="45.34539" lon="5.87066">
        <ele>1856</ele>
        <time>2022-03-06T11:39:49Z</time>
      </trkpt>
      <trkpt lat="45.34537" lon="5.87067">
        <ele>1857</ele>
        <time>2022-03-06T11:39:53Z</time>
      </trkpt>
      <trkpt lat="45.34537" lon="5.87067">
        <ele>1857</ele>
        <time>2022-03-06T11:39:54Z</time>
      </trkpt>
      <trkpt lat="45.34535" lon="5.87069">
        <ele>1857</ele>
        <time>2022-03-06T11:39:56Z</time>
      </trkpt>
      <trkpt lat="45.34534" lon="5.8707">
        <ele>1858</ele>
        <time>2022-03-06T11:39:59Z</time>
      </trkpt>
      <trkpt lat="45.34534" lon="5.8707">
        <ele>1858</ele>
        <time>2022-03-06T11:40:00Z</time>
      </trkpt>
      <trkpt lat="45.34531" lon="5.87072">
        <ele>1858</ele>
        <time>2022-03-06T11:40:03Z</time>
      </trkpt>
      <trkpt lat="45.3453" lon="5.87073">
        <ele>1859</ele>
        <time>2022-03-06T11:40:06Z</time>
      </trkpt>
      <trkpt lat="45.3453" lon="5.87073">
        <ele>1859</ele>
        <time>2022-03-06T11:40:07Z</time>
      </trkpt>
      <trkpt lat="45.34528" lon="5.87074">
        <ele>1860</ele>
        <time>2022-03-06T11:40:10Z</time>
      </trkpt>
      <trkpt lat="45.34526" lon="5.87075">
        <ele>1860</ele>
        <time>2022-03-06T11:40:12Z</time>
      </trkpt>
      <trkpt lat="45.34525" lon="5.87077">
        <ele>1860</ele>
        <time>2022-03-06T11:40:15Z</time>
      </trkpt>
      <trkpt lat="45.34525" lon="5.87077">
        <ele>1860</ele>
        <time>2022-03-06T11:40:16Z</time>
      </trkpt>
      <trkpt lat="45.34523" lon="5.87078">
        <ele>1860</ele>
        <time>2022-03-06T11:40:18Z</time>
      </trkpt>
      <trkpt lat="45.34522" lon="5.8708">
        <ele>1860</ele>
        <time>2022-03-06T11:40:21Z</time>
      </trkpt>
      <trkpt lat="45.34522" lon="5.8708">
        <ele>1860</ele>
        <time>2022-03-06T11:40:22Z</time>
      </trkpt>
      <trkpt lat="45.34521" lon="5.87083">
        <ele>1860</ele>
        <time>2022-03-06T11:40:25Z</time>
      </trkpt>
      <trkpt lat="45.34521" lon="5.87083">
        <ele>1861</ele>
        <time>2022-03-06T11:40:27Z</time>
      </trkpt>
      <trkpt lat="45.34519" lon="5.87084">
        <ele>1861</ele>
        <time>2022-03-06T11:40:29Z</time>
      </trkpt>
      <trkpt lat="45.34518" lon="5.87086">
        <ele>1862</ele>
        <time>2022-03-06T11:40:31Z</time>
      </trkpt>
      <trkpt lat="45.34518" lon="5.87086">
        <ele>1863</ele>
        <time>2022-03-06T11:40:33Z</time>
      </trkpt>
      <trkpt lat="45.34517" lon="5.87088">
        <ele>1863</ele>
        <time>2022-03-06T11:40:35Z</time>
      </trkpt>
      <trkpt lat="45.34515" lon="5.8709">
        <ele>1863</ele>
        <time>2022-03-06T11:40:37Z</time>
      </trkpt>
      <trkpt lat="45.34515" lon="5.8709">
        <ele>1863</ele>
        <time>2022-03-06T11:40:39Z</time>
      </trkpt>
      <trkpt lat="45.34515" lon="5.8709">
        <ele>1864</ele>
        <time>2022-03-06T11:40:43Z</time>
      </trkpt>
      <trkpt lat="45.34515" lon="5.8709">
        <ele>1864</ele>
        <time>2022-03-06T11:40:47Z</time>
      </trkpt>
      <trkpt lat="45.34515" lon="5.8709">
        <ele>1864</ele>
        <time>2022-03-06T11:40:51Z</time>
      </trkpt>
      <trkpt lat="45.34513" lon="5.87091">
        <ele>1864</ele>
        <time>2022-03-06T11:40:55Z</time>
      </trkpt>
      <trkpt lat="45.34513" lon="5.87091">
        <ele>1864</ele>
        <time>2022-03-06T11:40:56Z</time>
      </trkpt>
      <trkpt lat="45.34512" lon="5.87094">
        <ele>1864</ele>
        <time>2022-03-06T11:40:58Z</time>
      </trkpt>
      <trkpt lat="45.34511" lon="5.87096">
        <ele>1865</ele>
        <time>2022-03-06T11:41:01Z</time>
      </trkpt>
      <trkpt lat="45.34511" lon="5.87096">
        <ele>1865</ele>
        <time>2022-03-06T11:41:02Z</time>
      </trkpt>
      <trkpt lat="45.3451" lon="5.87099">
        <ele>1866</ele>
        <time>2022-03-06T11:41:04Z</time>
      </trkpt>
      <trkpt lat="45.34508" lon="5.87101">
        <ele>1866</ele>
        <time>2022-03-06T11:41:07Z</time>
      </trkpt>
      <trkpt lat="45.34508" lon="5.87101">
        <ele>1867</ele>
        <time>2022-03-06T11:41:08Z</time>
      </trkpt>
      <trkpt lat="45.34507" lon="5.87102">
        <ele>1867</ele>
        <time>2022-03-06T11:41:10Z</time>
      </trkpt>
      <trkpt lat="45.34505" lon="5.87104">
        <ele>1868</ele>
        <time>2022-03-06T11:41:13Z</time>
      </trkpt>
      <trkpt lat="45.34505" lon="5.87104">
        <ele>1868</ele>
        <time>2022-03-06T11:41:14Z</time>
      </trkpt>
      <trkpt lat="45.34503" lon="5.87106">
        <ele>1868</ele>
        <time>2022-03-06T11:41:16Z</time>
      </trkpt>
      <trkpt lat="45.34501" lon="5.87107">
        <ele>1868</ele>
        <time>2022-03-06T11:41:19Z</time>
      </trkpt>
      <trkpt lat="45.34501" lon="5.87107">
        <ele>1868</ele>
        <time>2022-03-06T11:41:20Z</time>
      </trkpt>
      <trkpt lat="45.345" lon="5.87108">
        <ele>1869</ele>
        <time>2022-03-06T11:41:22Z</time>
      </trkpt>
      <trkpt lat="45.34498" lon="5.87109">
        <ele>1870</ele>
        <time>2022-03-06T11:41:25Z</time>
      </trkpt>
      <trkpt lat="45.34498" lon="5.87109">
        <ele>1870</ele>
        <time>2022-03-06T11:41:26Z</time>
      </trkpt>
      <trkpt lat="45.34496" lon="5.87109">
        <ele>1870</ele>
        <time>2022-03-06T11:41:28Z</time>
      </trkpt>
      <trkpt lat="45.34496" lon="5.87109">
        <ele>1871</ele>
        <time>2022-03-06T11:41:31Z</time>
      </trkpt>
      <trkpt lat="45.34496" lon="5.87109">
        <ele>1871</ele>
        <time>2022-03-06T11:41:35Z</time>
      </trkpt>
      <trkpt lat="45.34496" lon="5.87109">
        <ele>1871</ele>
        <time>2022-03-06T11:41:39Z</time>
      </trkpt>
      <trkpt lat="45.34496" lon="5.87109">
        <ele>1870</ele>
        <time>2022-03-06T11:41:43Z</time>
      </trkpt>
      <trkpt lat="45.34496" lon="5.87109">
        <ele>1871</ele>
        <time>2022-03-06T11:41:47Z</time>
      </trkpt>
      <trkpt lat="45.34497" lon="5.87112">
        <ele>1871</ele>
        <time>2022-03-06T11:41:49Z</time>
      </trkpt>
      <trkpt lat="45.34497" lon="5.87112">
        <ele>1872</ele>
        <time>2022-03-06T11:41:52Z</time>
      </trkpt>
      <trkpt lat="45.34499" lon="5.87113">
        <ele>1872</ele>
        <time>2022-03-06T11:41:53Z</time>
      </trkpt>
      <trkpt lat="45.34501" lon="5.87114">
        <ele>1872</ele>
        <time>2022-03-06T11:41:57Z</time>
      </trkpt>
      <trkpt lat="45.34501" lon="5.87114">
        <ele>1872</ele>
        <time>2022-03-06T11:41:58Z</time>
      </trkpt>
      <trkpt lat="45.34503" lon="5.87115">
        <ele>1874</ele>
        <time>2022-03-06T11:42:01Z</time>
      </trkpt>
      <trkpt lat="45.34503" lon="5.87115">
        <ele>1874</ele>
        <time>2022-03-06T11:42:03Z</time>
      </trkpt>
      <trkpt lat="45.34505" lon="5.87116">
        <ele>1874</ele>
        <time>2022-03-06T11:42:05Z</time>
      </trkpt>
      <trkpt lat="45.34505" lon="5.87116">
        <ele>1874</ele>
        <time>2022-03-06T11:42:08Z</time>
      </trkpt>
      <trkpt lat="45.34506" lon="5.87115">
        <ele>1875</ele>
        <time>2022-03-06T11:42:12Z</time>
      </trkpt>
      <trkpt lat="45.34506" lon="5.87115">
        <ele>1875</ele>
        <time>2022-03-06T11:42:13Z</time>
      </trkpt>
      <trkpt lat="45.34508" lon="5.87115">
        <ele>1875</ele>
        <time>2022-03-06T11:42:15Z</time>
      </trkpt>
      <trkpt lat="45.3451" lon="5.87115">
        <ele>1875</ele>
        <time>2022-03-06T11:42:18Z</time>
      </trkpt>
      <trkpt lat="45.3451" lon="5.87115">
        <ele>1875</ele>
        <time>2022-03-06T11:42:19Z</time>
      </trkpt>
      <trkpt lat="45.3451" lon="5.87115">
        <ele>1876</ele>
        <time>2022-03-06T11:42:23Z</time>
      </trkpt>
      <trkpt lat="45.34512" lon="5.87117">
        <ele>1876</ele>
        <time>2022-03-06T11:42:25Z</time>
      </trkpt>
      <trkpt lat="45.34512" lon="5.87117">
        <ele>1876</ele>
        <time>2022-03-06T11:42:28Z</time>
      </trkpt>
      <trkpt lat="45.3451" lon="5.8712">
        <ele>1876</ele>
        <time>2022-03-06T11:42:31Z</time>
      </trkpt>
      <trkpt lat="45.3451" lon="5.8712">
        <ele>1877</ele>
        <time>2022-03-06T11:42:33Z</time>
      </trkpt>
      <trkpt lat="45.34509" lon="5.87122">
        <ele>1877</ele>
        <time>2022-03-06T11:42:34Z</time>
      </trkpt>
      <trkpt lat="45.34507" lon="5.87124">
        <ele>1878</ele>
        <time>2022-03-06T11:42:37Z</time>
      </trkpt>
      <trkpt lat="45.34507" lon="5.87124">
        <ele>1878</ele>
        <time>2022-03-06T11:42:39Z</time>
      </trkpt>
      <trkpt lat="45.34506" lon="5.87125">
        <ele>1878</ele>
        <time>2022-03-06T11:42:40Z</time>
      </trkpt>
      <trkpt lat="45.34504" lon="5.87127">
        <ele>1878</ele>
        <time>2022-03-06T11:42:44Z</time>
      </trkpt>
      <trkpt lat="45.34504" lon="5.87127">
        <ele>1878</ele>
        <time>2022-03-06T11:42:45Z</time>
      </trkpt>
      <trkpt lat="45.34502" lon="5.87128">
        <ele>1880</ele>
        <time>2022-03-06T11:42:48Z</time>
      </trkpt>
      <trkpt lat="45.34502" lon="5.87128">
        <ele>1880</ele>
        <time>2022-03-06T11:42:50Z</time>
      </trkpt>
      <trkpt lat="45.345" lon="5.8713">
        <ele>1880</ele>
        <time>2022-03-06T11:42:51Z</time>
      </trkpt>
      <trkpt lat="45.34498" lon="5.87131">
        <ele>1880</ele>
        <time>2022-03-06T11:42:55Z</time>
      </trkpt>
      <trkpt lat="45.34498" lon="5.87131">
        <ele>1880</ele>
        <time>2022-03-06T11:42:56Z</time>
      </trkpt>
      <trkpt lat="45.34498" lon="5.87131">
        <ele>1880</ele>
        <time>2022-03-06T11:43:00Z</time>
      </trkpt>
      <trkpt lat="45.34498" lon="5.87131">
        <ele>1881</ele>
        <time>2022-03-06T11:43:04Z</time>
      </trkpt>
      <trkpt lat="45.34498" lon="5.87131">
        <ele>1880</ele>
        <time>2022-03-06T11:43:08Z</time>
      </trkpt>
      <trkpt lat="45.34498" lon="5.87131">
        <ele>1881</ele>
        <time>2022-03-06T11:43:12Z</time>
      </trkpt>
      <trkpt lat="45.34498" lon="5.87131">
        <ele>1881</ele>
        <time>2022-03-06T11:43:16Z</time>
      </trkpt>
      <trkpt lat="45.34498" lon="5.87131">
        <ele>1882</ele>
        <time>2022-03-06T11:43:20Z</time>
      </trkpt>
      <trkpt lat="45.34498" lon="5.87131">
        <ele>1882</ele>
        <time>2022-03-06T11:43:24Z</time>
      </trkpt>
      <trkpt lat="45.34498" lon="5.87131">
        <ele>1881</ele>
        <time>2022-03-06T11:43:28Z</time>
      </trkpt>
      <trkpt lat="45.34498" lon="5.87131">
        <ele>1881</ele>
        <time>2022-03-06T11:43:32Z</time>
      </trkpt>
      <trkpt lat="45.34498" lon="5.87131">
        <ele>1881</ele>
        <time>2022-03-06T11:43:36Z</time>
      </trkpt>
      <trkpt lat="45.34498" lon="5.87131">
        <ele>1881</ele>
        <time>2022-03-06T11:43:40Z</time>
      </trkpt>
      <trkpt lat="45.34498" lon="5.87131">
        <ele>1882</ele>
        <time>2022-03-06T11:43:44Z</time>
      </trkpt>
      <trkpt lat="45.34498" lon="5.87131">
        <ele>1881</ele>
        <time>2022-03-06T11:43:48Z</time>
      </trkpt>
      <trkpt lat="45.34497" lon="5.87132">
        <ele>1882</ele>
        <time>2022-03-06T11:43:52Z</time>
      </trkpt>
      <trkpt lat="45.34497" lon="5.87132">
        <ele>1882</ele>
        <time>2022-03-06T11:43:53Z</time>
      </trkpt>
      <trkpt lat="45.34497" lon="5.87132">
        <ele>1882</ele>
        <time>2022-03-06T11:43:57Z</time>
      </trkpt>
      <trkpt lat="45.34497" lon="5.87132">
        <ele>1881</ele>
        <time>2022-03-06T11:44:01Z</time>
      </trkpt>
      <trkpt lat="45.34497" lon="5.87132">
        <ele>1882</ele>
        <time>2022-03-06T11:44:05Z</time>
      </trkpt>
      <trkpt lat="45.34497" lon="5.87132">
        <ele>1881</ele>
        <time>2022-03-06T11:44:09Z</time>
      </trkpt>
      <trkpt lat="45.34497" lon="5.87132">
        <ele>1881</ele>
        <time>2022-03-06T11:44:13Z</time>
      </trkpt>
      <trkpt lat="45.34497" lon="5.87132">
        <ele>1882</ele>
        <time>2022-03-06T11:44:17Z</time>
      </trkpt>
      <trkpt lat="45.34497" lon="5.87132">
        <ele>1882</ele>
        <time>2022-03-06T11:44:21Z</time>
      </trkpt>
      <trkpt lat="45.34497" lon="5.87132">
        <ele>1881</ele>
        <time>2022-03-06T11:44:26Z</time>
      </trkpt>
      <trkpt lat="45.34497" lon="5.87132">
        <ele>1881</ele>
        <time>2022-03-06T11:44:30Z</time>
      </trkpt>
      <trkpt lat="45.34497" lon="5.87132">
        <ele>1881</ele>
        <time>2022-03-06T11:44:34Z</time>
      </trkpt>
      <trkpt lat="45.34497" lon="5.87132">
        <ele>1881</ele>
        <time>2022-03-06T11:44:38Z</time>
      </trkpt>
      <trkpt lat="45.34497" lon="5.87132">
        <ele>1881</ele>
        <time>2022-03-06T11:44:42Z</time>
      </trkpt>
      <trkpt lat="45.34495" lon="5.87132">
        <ele>1881</ele>
        <time>2022-03-06T11:44:46Z</time>
      </trkpt>
      <trkpt lat="45.34495" lon="5.87132">
        <ele>1881</ele>
        <time>2022-03-06T11:44:47Z</time>
      </trkpt>
      <trkpt lat="45.34495" lon="5.87132">
        <ele>1880</ele>
        <time>2022-03-06T11:44:51Z</time>
      </trkpt>
      <trkpt lat="45.34495" lon="5.87132">
        <ele>1880</ele>
        <time>2022-03-06T11:44:55Z</time>
      </trkpt>
      <trkpt lat="45.34495" lon="5.87132">
        <ele>1879</ele>
        <time>2022-03-06T11:44:59Z</time>
      </trkpt>
      <trkpt lat="45.34495" lon="5.87132">
        <ele>1880</ele>
        <time>2022-03-06T11:45:03Z</time>
      </trkpt>
      <trkpt lat="45.34495" lon="5.87132">
        <ele>1880</ele>
        <time>2022-03-06T11:45:07Z</time>
      </trkpt>
      <trkpt lat="45.34495" lon="5.87132">
        <ele>1880</ele>
        <time>2022-03-06T11:45:11Z</time>
      </trkpt>
      <trkpt lat="45.34495" lon="5.87132">
        <ele>1881</ele>
        <time>2022-03-06T11:45:15Z</time>
      </trkpt>
      <trkpt lat="45.34495" lon="5.87132">
        <ele>1880</ele>
        <time>2022-03-06T11:45:19Z</time>
      </trkpt>
      <trkpt lat="45.34495" lon="5.87132">
        <ele>1881</ele>
        <time>2022-03-06T11:45:23Z</time>
      </trkpt>
      <trkpt lat="45.34495" lon="5.87132">
        <ele>1881</ele>
        <time>2022-03-06T11:45:27Z</time>
      </trkpt>
      <trkpt lat="45.34495" lon="5.87132">
        <ele>1880</ele>
        <time>2022-03-06T11:45:31Z</time>
      </trkpt>
      <trkpt lat="45.34495" lon="5.87132">
        <ele>1881</ele>
        <time>2022-03-06T11:45:35Z</time>
      </trkpt>
      <trkpt lat="45.34495" lon="5.87132">
        <ele>1880</ele>
        <time>2022-03-06T11:45:39Z</time>
      </trkpt>
      <trkpt lat="45.34495" lon="5.87132">
        <ele>1881</ele>
        <time>2022-03-06T11:45:43Z</time>
      </trkpt>
      <trkpt lat="45.34495" lon="5.87132">
        <ele>1881</ele>
        <time>2022-03-06T11:45:47Z</time>
      </trkpt>
      <trkpt lat="45.34495" lon="5.87132">
        <ele>1881</ele>
        <time>2022-03-06T11:45:51Z</time>
      </trkpt>
      <trkpt lat="45.34495" lon="5.87132">
        <ele>1880</ele>
        <time>2022-03-06T11:45:55Z</time>
      </trkpt>
      <trkpt lat="45.34495" lon="5.87132">
        <ele>1881</ele>
        <time>2022-03-06T11:45:59Z</time>
      </trkpt>
      <trkpt lat="45.34495" lon="5.87132">
        <ele>1881</ele>
        <time>2022-03-06T11:46:03Z</time>
      </trkpt>
      <trkpt lat="45.34495" lon="5.87132">
        <ele>1881</ele>
        <time>2022-03-06T11:46:07Z</time>
      </trkpt>
      <trkpt lat="45.34495" lon="5.87132">
        <ele>1880</ele>
        <time>2022-03-06T11:46:11Z</time>
      </trkpt>
      <trkpt lat="45.34495" lon="5.87132">
        <ele>1880</ele>
        <time>2022-03-06T11:46:15Z</time>
      </trkpt>
      <trkpt lat="45.34495" lon="5.87132">
        <ele>1880</ele>
        <time>2022-03-06T11:46:19Z</time>
      </trkpt>
      <trkpt lat="45.34495" lon="5.87132">
        <ele>1880</ele>
        <time>2022-03-06T11:46:23Z</time>
      </trkpt>
      <trkpt lat="45.34495" lon="5.87132">
        <ele>1880</ele>
        <time>2022-03-06T11:46:27Z</time>
      </trkpt>
      <trkpt lat="45.34495" lon="5.87132">
        <ele>1880</ele>
        <time>2022-03-06T11:46:31Z</time>
      </trkpt>
      <trkpt lat="45.34495" lon="5.87132">
        <ele>1880</ele>
        <time>2022-03-06T11:46:35Z</time>
      </trkpt>
      <trkpt lat="45.34495" lon="5.87132">
        <ele>1881</ele>
        <time>2022-03-06T11:46:39Z</time>
      </trkpt>
      <trkpt lat="45.34495" lon="5.87132">
        <ele>1881</ele>
        <time>2022-03-06T11:46:43Z</time>
      </trkpt>
      <trkpt lat="45.34495" lon="5.87132">
        <ele>1880</ele>
        <time>2022-03-06T11:46:47Z</time>
      </trkpt>
      <trkpt lat="45.34495" lon="5.87132">
        <ele>1880</ele>
        <time>2022-03-06T11:46:51Z</time>
      </trkpt>
      <trkpt lat="45.34495" lon="5.87132">
        <ele>1881</ele>
        <time>2022-03-06T11:46:55Z</time>
      </trkpt>
      <trkpt lat="45.34495" lon="5.87132">
        <ele>1881</ele>
        <time>2022-03-06T11:46:59Z</time>
      </trkpt>
      <trkpt lat="45.34495" lon="5.87132">
        <ele>1881</ele>
        <time>2022-03-06T11:47:03Z</time>
      </trkpt>
      <trkpt lat="45.34495" lon="5.87132">
        <ele>1881</ele>
        <time>2022-03-06T11:47:07Z</time>
      </trkpt>
      <trkpt lat="45.34495" lon="5.87132">
        <ele>1881</ele>
        <time>2022-03-06T11:47:11Z</time>
      </trkpt>
      <trkpt lat="45.34495" lon="5.87132">
        <ele>1881</ele>
        <time>2022-03-06T11:47:15Z</time>
      </trkpt>
      <trkpt lat="45.34495" lon="5.87132">
        <ele>1881</ele>
        <time>2022-03-06T11:47:19Z</time>
      </trkpt>
      <trkpt lat="45.34495" lon="5.87132">
        <ele>1880</ele>
        <time>2022-03-06T11:47:23Z</time>
      </trkpt>
      <trkpt lat="45.34495" lon="5.87132">
        <ele>1881</ele>
        <time>2022-03-06T11:47:27Z</time>
      </trkpt>
      <trkpt lat="45.34495" lon="5.87132">
        <ele>1881</ele>
        <time>2022-03-06T11:47:31Z</time>
      </trkpt>
      <trkpt lat="45.34495" lon="5.87132">
        <ele>1882</ele>
        <time>2022-03-06T11:47:35Z</time>
      </trkpt>
      <trkpt lat="45.34495" lon="5.87132">
        <ele>1881</ele>
        <time>2022-03-06T11:47:39Z</time>
      </trkpt>
      <trkpt lat="45.34495" lon="5.87132">
        <ele>1880</ele>
        <time>2022-03-06T11:47:43Z</time>
      </trkpt>
      <trkpt lat="45.34495" lon="5.87132">
        <ele>1880</ele>
        <time>2022-03-06T11:47:47Z</time>
      </trkpt>
      <trkpt lat="45.34495" lon="5.87132">
        <ele>1881</ele>
        <time>2022-03-06T11:47:51Z</time>
      </trkpt>
      <trkpt lat="45.34495" lon="5.87132">
        <ele>1880</ele>
        <time>2022-03-06T11:47:55Z</time>
      </trkpt>
      <trkpt lat="45.34495" lon="5.87132">
        <ele>1881</ele>
        <time>2022-03-06T11:47:59Z</time>
      </trkpt>
      <trkpt lat="45.34495" lon="5.87132">
        <ele>1881</ele>
        <time>2022-03-06T11:48:03Z</time>
      </trkpt>
      <trkpt lat="45.34495" lon="5.87132">
        <ele>1881</ele>
        <time>2022-03-06T11:48:07Z</time>
      </trkpt>
      <trkpt lat="45.34495" lon="5.87132">
        <ele>1881</ele>
        <time>2022-03-06T11:48:11Z</time>
      </trkpt>
      <trkpt lat="45.34495" lon="5.87132">
        <ele>1881</ele>
        <time>2022-03-06T11:48:15Z</time>
      </trkpt>
      <trkpt lat="45.34495" lon="5.87132">
        <ele>1881</ele>
        <time>2022-03-06T11:48:19Z</time>
      </trkpt>
      <trkpt lat="45.34495" lon="5.87132">
        <ele>1881</ele>
        <time>2022-03-06T11:48:23Z</time>
      </trkpt>
      <trkpt lat="45.34495" lon="5.87132">
        <ele>1881</ele>
        <time>2022-03-06T11:48:27Z</time>
      </trkpt>
      <trkpt lat="45.34495" lon="5.87132">
        <ele>1881</ele>
        <time>2022-03-06T11:48:31Z</time>
      </trkpt>
      <trkpt lat="45.34495" lon="5.87132">
        <ele>1881</ele>
        <time>2022-03-06T11:48:35Z</time>
      </trkpt>
      <trkpt lat="45.34495" lon="5.87132">
        <ele>1881</ele>
        <time>2022-03-06T11:48:39Z</time>
      </trkpt>
      <trkpt lat="45.34495" lon="5.87132">
        <ele>1881</ele>
        <time>2022-03-06T11:48:43Z</time>
      </trkpt>
      <trkpt lat="45.34495" lon="5.87132">
        <ele>1881</ele>
        <time>2022-03-06T11:48:47Z</time>
      </trkpt>
      <trkpt lat="45.34495" lon="5.87132">
        <ele>1881</ele>
        <time>2022-03-06T11:48:51Z</time>
      </trkpt>
      <trkpt lat="45.34495" lon="5.87132">
        <ele>1881</ele>
        <time>2022-03-06T11:48:55Z</time>
      </trkpt>
      <trkpt lat="45.34495" lon="5.87132">
        <ele>1882</ele>
        <time>2022-03-06T11:48:59Z</time>
      </trkpt>
      <trkpt lat="45.34495" lon="5.87132">
        <ele>1882</ele>
        <time>2022-03-06T11:49:03Z</time>
      </trkpt>
      <trkpt lat="45.34495" lon="5.87132">
        <ele>1881</ele>
        <time>2022-03-06T11:49:07Z</time>
      </trkpt>
      <trkpt lat="45.34495" lon="5.87132">
        <ele>1880</ele>
        <time>2022-03-06T11:49:11Z</time>
      </trkpt>
      <trkpt lat="45.34495" lon="5.87132">
        <ele>1880</ele>
        <time>2022-03-06T11:49:15Z</time>
      </trkpt>
      <trkpt lat="45.34495" lon="5.87132">
        <ele>1880</ele>
        <time>2022-03-06T11:49:19Z</time>
      </trkpt>
      <trkpt lat="45.34495" lon="5.87132">
        <ele>1881</ele>
        <time>2022-03-06T11:49:23Z</time>
      </trkpt>
      <trkpt lat="45.34495" lon="5.87132">
        <ele>1881</ele>
        <time>2022-03-06T11:49:27Z</time>
      </trkpt>
      <trkpt lat="45.34495" lon="5.87132">
        <ele>1881</ele>
        <time>2022-03-06T11:49:31Z</time>
      </trkpt>
      <trkpt lat="45.34495" lon="5.87132">
        <ele>1881</ele>
        <time>2022-03-06T11:49:35Z</time>
      </trkpt>
      <trkpt lat="45.34495" lon="5.87132">
        <ele>1881</ele>
        <time>2022-03-06T11:49:39Z</time>
      </trkpt>
      <trkpt lat="45.34495" lon="5.87132">
        <ele>1881</ele>
        <time>2022-03-06T11:49:43Z</time>
      </trkpt>
      <trkpt lat="45.34495" lon="5.87132">
        <ele>1881</ele>
        <time>2022-03-06T11:49:47Z</time>
      </trkpt>
      <trkpt lat="45.34495" lon="5.87132">
        <ele>1881</ele>
        <time>2022-03-06T11:49:51Z</time>
      </trkpt>
      <trkpt lat="45.34495" lon="5.87132">
        <ele>1881</ele>
        <time>2022-03-06T11:49:55Z</time>
      </trkpt>
      <trkpt lat="45.34495" lon="5.87132">
        <ele>1881</ele>
        <time>2022-03-06T11:49:59Z</time>
      </trkpt>
      <trkpt lat="45.34495" lon="5.87132">
        <ele>1881</ele>
        <time>2022-03-06T11:50:03Z</time>
      </trkpt>
      <trkpt lat="45.34495" lon="5.87132">
        <ele>1881</ele>
        <time>2022-03-06T11:50:07Z</time>
      </trkpt>
      <trkpt lat="45.34495" lon="5.87132">
        <ele>1881</ele>
        <time>2022-03-06T11:50:11Z</time>
      </trkpt>
      <trkpt lat="45.34495" lon="5.87132">
        <ele>1881</ele>
        <time>2022-03-06T11:50:15Z</time>
      </trkpt>
      <trkpt lat="45.34495" lon="5.87132">
        <ele>1881</ele>
        <time>2022-03-06T11:50:19Z</time>
      </trkpt>
      <trkpt lat="45.34495" lon="5.87132">
        <ele>1880</ele>
        <time>2022-03-06T11:50:23Z</time>
      </trkpt>
      <trkpt lat="45.34495" lon="5.87132">
        <ele>1881</ele>
        <time>2022-03-06T11:50:27Z</time>
      </trkpt>
      <trkpt lat="45.34495" lon="5.87132">
        <ele>1881</ele>
        <time>2022-03-06T11:50:31Z</time>
      </trkpt>
      <trkpt lat="45.34495" lon="5.87132">
        <ele>1880</ele>
        <time>2022-03-06T11:50:35Z</time>
      </trkpt>
      <trkpt lat="45.34495" lon="5.87132">
        <ele>1881</ele>
        <time>2022-03-06T11:50:39Z</time>
      </trkpt>
      <trkpt lat="45.34495" lon="5.87132">
        <ele>1880</ele>
        <time>2022-03-06T11:50:43Z</time>
      </trkpt>
      <trkpt lat="45.34495" lon="5.87132">
        <ele>1880</ele>
        <time>2022-03-06T11:50:47Z</time>
      </trkpt>
      <trkpt lat="45.34495" lon="5.87132">
        <ele>1880</ele>
        <time>2022-03-06T11:50:51Z</time>
      </trkpt>
      <trkpt lat="45.34495" lon="5.87132">
        <ele>1880</ele>
        <time>2022-03-06T11:50:55Z</time>
      </trkpt>
      <trkpt lat="45.34495" lon="5.87132">
        <ele>1880</ele>
        <time>2022-03-06T11:50:59Z</time>
      </trkpt>
      <trkpt lat="45.34495" lon="5.87132">
        <ele>1880</ele>
        <time>2022-03-06T11:51:03Z</time>
      </trkpt>
      <trkpt lat="45.34495" lon="5.87132">
        <ele>1880</ele>
        <time>2022-03-06T11:51:07Z</time>
      </trkpt>
      <trkpt lat="45.34495" lon="5.87132">
        <ele>1881</ele>
        <time>2022-03-06T11:51:11Z</time>
      </trkpt>
      <trkpt lat="45.34493" lon="5.87131">
        <ele>1881</ele>
        <time>2022-03-06T11:51:14Z</time>
      </trkpt>
      <trkpt lat="45.34493" lon="5.87131">
        <ele>1881</ele>
        <time>2022-03-06T11:51:16Z</time>
      </trkpt>
      <trkpt lat="45.34493" lon="5.87131">
        <ele>1882</ele>
        <time>2022-03-06T11:51:20Z</time>
      </trkpt>
      <trkpt lat="45.34493" lon="5.87131">
        <ele>1882</ele>
        <time>2022-03-06T11:51:24Z</time>
      </trkpt>
      <trkpt lat="45.34493" lon="5.87131">
        <ele>1882</ele>
        <time>2022-03-06T11:51:28Z</time>
      </trkpt>
      <trkpt lat="45.34493" lon="5.87131">
        <ele>1881</ele>
        <time>2022-03-06T11:51:32Z</time>
      </trkpt>
      <trkpt lat="45.34493" lon="5.87131">
        <ele>1882</ele>
        <time>2022-03-06T11:51:36Z</time>
      </trkpt>
      <trkpt lat="45.34493" lon="5.87131">
        <ele>1883</ele>
        <time>2022-03-06T11:51:40Z</time>
      </trkpt>
      <trkpt lat="45.34493" lon="5.87131">
        <ele>1883</ele>
        <time>2022-03-06T11:51:44Z</time>
      </trkpt>
      <trkpt lat="45.34493" lon="5.87131">
        <ele>1881</ele>
        <time>2022-03-06T11:51:48Z</time>
      </trkpt>
      <trkpt lat="45.34493" lon="5.87131">
        <ele>1881</ele>
        <time>2022-03-06T11:51:52Z</time>
      </trkpt>
      <trkpt lat="45.34493" lon="5.87131">
        <ele>1882</ele>
        <time>2022-03-06T11:51:56Z</time>
      </trkpt>
      <trkpt lat="45.34493" lon="5.87131">
        <ele>1881</ele>
        <time>2022-03-06T11:52:00Z</time>
      </trkpt>
      <trkpt lat="45.34491" lon="5.87133">
        <ele>1883</ele>
        <time>2022-03-06T11:52:04Z</time>
      </trkpt>
      <trkpt lat="45.34491" lon="5.87133">
        <ele>1883</ele>
        <time>2022-03-06T11:52:05Z</time>
      </trkpt>
      <trkpt lat="45.3449" lon="5.87136">
        <ele>1883</ele>
        <time>2022-03-06T11:52:08Z</time>
      </trkpt>
      <trkpt lat="45.3449" lon="5.87136">
        <ele>1883</ele>
        <time>2022-03-06T11:52:10Z</time>
      </trkpt>
      <trkpt lat="45.34489" lon="5.87137">
        <ele>1884</ele>
        <time>2022-03-06T11:52:12Z</time>
      </trkpt>
      <trkpt lat="45.34489" lon="5.87137">
        <ele>1884</ele>
        <time>2022-03-06T11:52:15Z</time>
      </trkpt>
      <trkpt lat="45.34487" lon="5.87138">
        <ele>1884</ele>
        <time>2022-03-06T11:52:16Z</time>
      </trkpt>
      <trkpt lat="45.34485" lon="5.8714">
        <ele>1885</ele>
        <time>2022-03-06T11:52:20Z</time>
      </trkpt>
      <trkpt lat="45.34485" lon="5.8714">
        <ele>1886</ele>
        <time>2022-03-06T11:52:21Z</time>
      </trkpt>
      <trkpt lat="45.34484" lon="5.87143">
        <ele>1886</ele>
        <time>2022-03-06T11:52:25Z</time>
      </trkpt>
      <trkpt lat="45.34484" lon="5.87143">
        <ele>1886</ele>
        <time>2022-03-06T11:52:26Z</time>
      </trkpt>
      <trkpt lat="45.34483" lon="5.87145">
        <ele>1886</ele>
        <time>2022-03-06T11:52:28Z</time>
      </trkpt>
      <trkpt lat="45.34482" lon="5.87147">
        <ele>1887</ele>
        <time>2022-03-06T11:52:31Z</time>
      </trkpt>
      <trkpt lat="45.34482" lon="5.87147">
        <ele>1887</ele>
        <time>2022-03-06T11:52:32Z</time>
      </trkpt>
      <trkpt lat="45.34481" lon="5.8715">
        <ele>1888</ele>
        <time>2022-03-06T11:52:35Z</time>
      </trkpt>
      <trkpt lat="45.34481" lon="5.8715">
        <ele>1888</ele>
        <time>2022-03-06T11:52:37Z</time>
      </trkpt>
      <trkpt lat="45.34481" lon="5.8715">
        <ele>1889</ele>
        <time>2022-03-06T11:52:41Z</time>
      </trkpt>
      <trkpt lat="45.34481" lon="5.8715">
        <ele>1890</ele>
        <time>2022-03-06T11:52:45Z</time>
      </trkpt>
      <trkpt lat="45.3448" lon="5.87152">
        <ele>1889</ele>
        <time>2022-03-06T11:52:48Z</time>
      </trkpt>
      <trkpt lat="45.3448" lon="5.87152">
        <ele>1889</ele>
        <time>2022-03-06T11:52:50Z</time>
      </trkpt>
      <trkpt lat="45.3448" lon="5.87152">
        <ele>1889</ele>
        <time>2022-03-06T11:52:54Z</time>
      </trkpt>
      <trkpt lat="45.3448" lon="5.87152">
        <ele>1888</ele>
        <time>2022-03-06T11:52:58Z</time>
      </trkpt>
      <trkpt lat="45.3448" lon="5.87152">
        <ele>1888</ele>
        <time>2022-03-06T11:53:02Z</time>
      </trkpt>
      <trkpt lat="45.3448" lon="5.87152">
        <ele>1888</ele>
        <time>2022-03-06T11:53:06Z</time>
      </trkpt>
      <trkpt lat="45.3448" lon="5.87152">
        <ele>1888</ele>
        <time>2022-03-06T11:53:10Z</time>
      </trkpt>
      <trkpt lat="45.3448" lon="5.87152">
        <ele>1888</ele>
        <time>2022-03-06T11:53:14Z</time>
      </trkpt>
      <trkpt lat="45.3448" lon="5.87152">
        <ele>1888</ele>
        <time>2022-03-06T11:53:18Z</time>
      </trkpt>
      <trkpt lat="45.3448" lon="5.87152">
        <ele>1888</ele>
        <time>2022-03-06T11:53:22Z</time>
      </trkpt>
      <trkpt lat="45.3448" lon="5.87152">
        <ele>1889</ele>
        <time>2022-03-06T11:53:26Z</time>
      </trkpt>
      <trkpt lat="45.3448" lon="5.87152">
        <ele>1889</ele>
        <time>2022-03-06T11:53:30Z</time>
      </trkpt>
      <trkpt lat="45.3448" lon="5.87152">
        <ele>1889</ele>
        <time>2022-03-06T11:53:34Z</time>
      </trkpt>
      <trkpt lat="45.3448" lon="5.87152">
        <ele>1889</ele>
        <time>2022-03-06T11:53:38Z</time>
      </trkpt>
      <trkpt lat="45.3448" lon="5.87152">
        <ele>1889</ele>
        <time>2022-03-06T11:53:42Z</time>
      </trkpt>
      <trkpt lat="45.3448" lon="5.87152">
        <ele>1889</ele>
        <time>2022-03-06T11:53:46Z</time>
      </trkpt>
      <trkpt lat="45.3448" lon="5.87152">
        <ele>1889</ele>
        <time>2022-03-06T11:53:50Z</time>
      </trkpt>
      <trkpt lat="45.3448" lon="5.87152">
        <ele>1889</ele>
        <time>2022-03-06T11:53:54Z</time>
      </trkpt>
      <trkpt lat="45.3448" lon="5.87152">
        <ele>1889</ele>
        <time>2022-03-06T11:53:58Z</time>
      </trkpt>
      <trkpt lat="45.3448" lon="5.87152">
        <ele>1888</ele>
        <time>2022-03-06T11:54:02Z</time>
      </trkpt>
      <trkpt lat="45.3448" lon="5.87152">
        <ele>1888</ele>
        <time>2022-03-06T11:54:06Z</time>
      </trkpt>
      <trkpt lat="45.3448" lon="5.87152">
        <ele>1888</ele>
        <time>2022-03-06T11:54:10Z</time>
      </trkpt>
      <trkpt lat="45.3448" lon="5.87152">
        <ele>1889</ele>
        <time>2022-03-06T11:54:14Z</time>
      </trkpt>
      <trkpt lat="45.3448" lon="5.87152">
        <ele>1889</ele>
        <time>2022-03-06T11:54:18Z</time>
      </trkpt>
      <trkpt lat="45.3448" lon="5.87152">
        <ele>1889</ele>
        <time>2022-03-06T11:54:22Z</time>
      </trkpt>
      <trkpt lat="45.3448" lon="5.87152">
        <ele>1889</ele>
        <time>2022-03-06T11:54:26Z</time>
      </trkpt>
      <trkpt lat="45.3448" lon="5.87152">
        <ele>1889</ele>
        <time>2022-03-06T11:54:30Z</time>
      </trkpt>
      <trkpt lat="45.3448" lon="5.87152">
        <ele>1889</ele>
        <time>2022-03-06T11:54:34Z</time>
      </trkpt>
      <trkpt lat="45.3448" lon="5.87152">
        <ele>1889</ele>
        <time>2022-03-06T11:54:38Z</time>
      </trkpt>
      <trkpt lat="45.3448" lon="5.87152">
        <ele>1889</ele>
        <time>2022-03-06T11:54:42Z</time>
      </trkpt>
      <trkpt lat="45.3448" lon="5.87152">
        <ele>1889</ele>
        <time>2022-03-06T11:54:46Z</time>
      </trkpt>
      <trkpt lat="45.3448" lon="5.87152">
        <ele>1889</ele>
        <time>2022-03-06T11:54:50Z</time>
      </trkpt>
      <trkpt lat="45.3448" lon="5.87152">
        <ele>1889</ele>
        <time>2022-03-06T11:54:54Z</time>
      </trkpt>
      <trkpt lat="45.3448" lon="5.87152">
        <ele>1889</ele>
        <time>2022-03-06T11:54:58Z</time>
      </trkpt>
      <trkpt lat="45.3448" lon="5.87152">
        <ele>1888</ele>
        <time>2022-03-06T11:55:02Z</time>
      </trkpt>
      <trkpt lat="45.3448" lon="5.87152">
        <ele>1888</ele>
        <time>2022-03-06T11:55:06Z</time>
      </trkpt>
      <trkpt lat="45.3448" lon="5.87152">
        <ele>1889</ele>
        <time>2022-03-06T11:55:10Z</time>
      </trkpt>
      <trkpt lat="45.3448" lon="5.87152">
        <ele>1889</ele>
        <time>2022-03-06T11:55:14Z</time>
      </trkpt>
      <trkpt lat="45.3448" lon="5.87152">
        <ele>1889</ele>
        <time>2022-03-06T11:55:18Z</time>
      </trkpt>
      <trkpt lat="45.3448" lon="5.87152">
        <ele>1889</ele>
        <time>2022-03-06T11:55:22Z</time>
      </trkpt>
      <trkpt lat="45.3448" lon="5.87152">
        <ele>1889</ele>
        <time>2022-03-06T11:55:26Z</time>
      </trkpt>
      <trkpt lat="45.3448" lon="5.87152">
        <ele>1888</ele>
        <time>2022-03-06T11:55:30Z</time>
      </trkpt>
      <trkpt lat="45.3448" lon="5.87152">
        <ele>1888</ele>
        <time>2022-03-06T11:55:34Z</time>
      </trkpt>
      <trkpt lat="45.3448" lon="5.87152">
        <ele>1889</ele>
        <time>2022-03-06T11:55:38Z</time>
      </trkpt>
      <trkpt lat="45.3448" lon="5.87152">
        <ele>1889</ele>
        <time>2022-03-06T11:55:42Z</time>
      </trkpt>
      <trkpt lat="45.3448" lon="5.87152">
        <ele>1888</ele>
        <time>2022-03-06T11:55:46Z</time>
      </trkpt>
      <trkpt lat="45.3448" lon="5.87152">
        <ele>1888</ele>
        <time>2022-03-06T11:55:50Z</time>
      </trkpt>
      <trkpt lat="45.3448" lon="5.87152">
        <ele>1889</ele>
        <time>2022-03-06T11:55:54Z</time>
      </trkpt>
      <trkpt lat="45.3448" lon="5.87152">
        <ele>1889</ele>
        <time>2022-03-06T11:55:58Z</time>
      </trkpt>
      <trkpt lat="45.3448" lon="5.87152">
        <ele>1888</ele>
        <time>2022-03-06T11:56:02Z</time>
      </trkpt>
      <trkpt lat="45.3448" lon="5.87152">
        <ele>1888</ele>
        <time>2022-03-06T11:56:06Z</time>
      </trkpt>
      <trkpt lat="45.3448" lon="5.87152">
        <ele>1887</ele>
        <time>2022-03-06T11:56:10Z</time>
      </trkpt>
      <trkpt lat="45.3448" lon="5.87152">
        <ele>1887</ele>
        <time>2022-03-06T11:56:14Z</time>
      </trkpt>
      <trkpt lat="45.3448" lon="5.87152">
        <ele>1889</ele>
        <time>2022-03-06T11:56:18Z</time>
      </trkpt>
      <trkpt lat="45.3448" lon="5.87152">
        <ele>1889</ele>
        <time>2022-03-06T11:56:22Z</time>
      </trkpt>
      <trkpt lat="45.3448" lon="5.87152">
        <ele>1889</ele>
        <time>2022-03-06T11:56:26Z</time>
      </trkpt>
      <trkpt lat="45.3448" lon="5.87152">
        <ele>1889</ele>
        <time>2022-03-06T11:56:30Z</time>
      </trkpt>
      <trkpt lat="45.3448" lon="5.87152">
        <ele>1889</ele>
        <time>2022-03-06T11:56:34Z</time>
      </trkpt>
      <trkpt lat="45.3448" lon="5.87152">
        <ele>1888</ele>
        <time>2022-03-06T11:56:38Z</time>
      </trkpt>
      <trkpt lat="45.3448" lon="5.87152">
        <ele>1889</ele>
        <time>2022-03-06T11:56:42Z</time>
      </trkpt>
      <trkpt lat="45.3448" lon="5.87152">
        <ele>1889</ele>
        <time>2022-03-06T11:56:46Z</time>
      </trkpt>
      <trkpt lat="45.3448" lon="5.87152">
        <ele>1889</ele>
        <time>2022-03-06T11:56:50Z</time>
      </trkpt>
      <trkpt lat="45.3448" lon="5.87152">
        <ele>1889</ele>
        <time>2022-03-06T11:56:54Z</time>
      </trkpt>
      <trkpt lat="45.3448" lon="5.87152">
        <ele>1889</ele>
        <time>2022-03-06T11:56:58Z</time>
      </trkpt>
      <trkpt lat="45.3448" lon="5.87152">
        <ele>1888</ele>
        <time>2022-03-06T11:57:02Z</time>
      </trkpt>
      <trkpt lat="45.3448" lon="5.87152">
        <ele>1889</ele>
        <time>2022-03-06T11:57:06Z</time>
      </trkpt>
      <trkpt lat="45.3448" lon="5.87152">
        <ele>1889</ele>
        <time>2022-03-06T11:57:10Z</time>
      </trkpt>
      <trkpt lat="45.3448" lon="5.87152">
        <ele>1889</ele>
        <time>2022-03-06T11:57:14Z</time>
      </trkpt>
      <trkpt lat="45.3448" lon="5.87152">
        <ele>1889</ele>
        <time>2022-03-06T11:57:18Z</time>
      </trkpt>
      <trkpt lat="45.3448" lon="5.87152">
        <ele>1889</ele>
        <time>2022-03-06T11:57:22Z</time>
      </trkpt>
      <trkpt lat="45.3448" lon="5.87152">
        <ele>1889</ele>
        <time>2022-03-06T11:57:26Z</time>
      </trkpt>
      <trkpt lat="45.3448" lon="5.87152">
        <ele>1890</ele>
        <time>2022-03-06T11:57:30Z</time>
      </trkpt>
      <trkpt lat="45.3448" lon="5.87152">
        <ele>1889</ele>
        <time>2022-03-06T11:57:34Z</time>
      </trkpt>
      <trkpt lat="45.3448" lon="5.87152">
        <ele>1890</ele>
        <time>2022-03-06T11:57:38Z</time>
      </trkpt>
      <trkpt lat="45.3448" lon="5.87152">
        <ele>1890</ele>
        <time>2022-03-06T11:57:42Z</time>
      </trkpt>
      <trkpt lat="45.3448" lon="5.87152">
        <ele>1890</ele>
        <time>2022-03-06T11:57:46Z</time>
      </trkpt>
      <trkpt lat="45.3448" lon="5.87152">
        <ele>1890</ele>
        <time>2022-03-06T11:57:50Z</time>
      </trkpt>
      <trkpt lat="45.3448" lon="5.87152">
        <ele>1890</ele>
        <time>2022-03-06T11:57:54Z</time>
      </trkpt>
      <trkpt lat="45.3448" lon="5.87152">
        <ele>1890</ele>
        <time>2022-03-06T11:57:58Z</time>
      </trkpt>
      <trkpt lat="45.3448" lon="5.87152">
        <ele>1890</ele>
        <time>2022-03-06T11:58:02Z</time>
      </trkpt>
      <trkpt lat="45.3448" lon="5.87152">
        <ele>1889</ele>
        <time>2022-03-06T11:58:06Z</time>
      </trkpt>
      <trkpt lat="45.3448" lon="5.87152">
        <ele>1889</ele>
        <time>2022-03-06T11:58:10Z</time>
      </trkpt>
      <trkpt lat="45.3448" lon="5.87152">
        <ele>1890</ele>
        <time>2022-03-06T11:58:14Z</time>
      </trkpt>
      <trkpt lat="45.3448" lon="5.87152">
        <ele>1890</ele>
        <time>2022-03-06T11:58:18Z</time>
      </trkpt>
      <trkpt lat="45.3448" lon="5.87152">
        <ele>1890</ele>
        <time>2022-03-06T11:58:22Z</time>
      </trkpt>
      <trkpt lat="45.3448" lon="5.87152">
        <ele>1889</ele>
        <time>2022-03-06T11:58:26Z</time>
      </trkpt>
      <trkpt lat="45.34479" lon="5.87154">
        <ele>1889</ele>
        <time>2022-03-06T11:58:27Z</time>
      </trkpt>
      <trkpt lat="45.34479" lon="5.87154">
        <ele>1890</ele>
        <time>2022-03-06T11:58:31Z</time>
      </trkpt>
      <trkpt lat="45.34478" lon="5.87157">
        <ele>1891</ele>
        <time>2022-03-06T11:58:34Z</time>
      </trkpt>
      <trkpt lat="45.34478" lon="5.87157">
        <ele>1892</ele>
        <time>2022-03-06T11:58:36Z</time>
      </trkpt>
      <trkpt lat="45.34477" lon="5.8716">
        <ele>1892</ele>
        <time>2022-03-06T11:58:39Z</time>
      </trkpt>
      <trkpt lat="45.34477" lon="5.8716">
        <ele>1892</ele>
        <time>2022-03-06T11:58:41Z</time>
      </trkpt>
      <trkpt lat="45.34477" lon="5.8716">
        <ele>1893</ele>
        <time>2022-03-06T11:58:45Z</time>
      </trkpt>
      <trkpt lat="45.34477" lon="5.8716">
        <ele>1893</ele>
        <time>2022-03-06T11:58:49Z</time>
      </trkpt>
      <trkpt lat="45.34477" lon="5.87163">
        <ele>1894</ele>
        <time>2022-03-06T11:58:50Z</time>
      </trkpt>
      <trkpt lat="45.34477" lon="5.87163">
        <ele>1895</ele>
        <time>2022-03-06T11:58:54Z</time>
      </trkpt>
      <trkpt lat="45.34479" lon="5.87166">
        <ele>1896</ele>
        <time>2022-03-06T11:58:56Z</time>
      </trkpt>
      <trkpt lat="45.34479" lon="5.87166">
        <ele>1896</ele>
        <time>2022-03-06T11:58:59Z</time>
      </trkpt>
      <trkpt lat="45.34479" lon="5.87168">
        <ele>1897</ele>
        <time>2022-03-06T11:59:01Z</time>
      </trkpt>
      <trkpt lat="45.34479" lon="5.87168">
        <ele>1898</ele>
        <time>2022-03-06T11:59:05Z</time>
      </trkpt>
      <trkpt lat="45.34478" lon="5.87171">
        <ele>1899</ele>
        <time>2022-03-06T11:59:06Z</time>
      </trkpt>
      <trkpt lat="45.34478" lon="5.87171">
        <ele>1898</ele>
        <time>2022-03-06T11:59:10Z</time>
      </trkpt>
      <trkpt lat="45.34478" lon="5.87171">
        <ele>1898</ele>
        <time>2022-03-06T11:59:14Z</time>
      </trkpt>
      <trkpt lat="45.34477" lon="5.87173">
        <ele>1898</ele>
        <time>2022-03-06T11:59:15Z</time>
      </trkpt>
      <trkpt lat="45.34477" lon="5.87173">
        <ele>1899</ele>
        <time>2022-03-06T11:59:19Z</time>
      </trkpt>
      <trkpt lat="45.34477" lon="5.87173">
        <ele>1899</ele>
        <time>2022-03-06T11:59:23Z</time>
      </trkpt>
      <trkpt lat="45.34476" lon="5.87176">
        <ele>1900</ele>
        <time>2022-03-06T11:59:25Z</time>
      </trkpt>
      <trkpt lat="45.34476" lon="5.87176">
        <ele>1901</ele>
        <time>2022-03-06T11:59:28Z</time>
      </trkpt>
      <trkpt lat="45.34476" lon="5.87178">
        <ele>1901</ele>
        <time>2022-03-06T11:59:30Z</time>
      </trkpt>
      <trkpt lat="45.34476" lon="5.87178">
        <ele>1902</ele>
        <time>2022-03-06T11:59:33Z</time>
      </trkpt>
      <trkpt lat="45.34476" lon="5.87178">
        <ele>1902</ele>
        <time>2022-03-06T11:59:37Z</time>
      </trkpt>
      <trkpt lat="45.34476" lon="5.87178">
        <ele>1902</ele>
        <time>2022-03-06T11:59:41Z</time>
      </trkpt>
      <trkpt lat="45.34476" lon="5.87181">
        <ele>1903</ele>
        <time>2022-03-06T11:59:42Z</time>
      </trkpt>
      <trkpt lat="45.34476" lon="5.87181">
        <ele>1903</ele>
        <time>2022-03-06T11:59:46Z</time>
      </trkpt>
      <trkpt lat="45.34475" lon="5.87184">
        <ele>1904</ele>
        <time>2022-03-06T11:59:48Z</time>
      </trkpt>
      <trkpt lat="45.34475" lon="5.87184">
        <ele>1904</ele>
        <time>2022-03-06T11:59:51Z</time>
      </trkpt>
      <trkpt lat="45.34474" lon="5.87186">
        <ele>1905</ele>
        <time>2022-03-06T11:59:54Z</time>
      </trkpt>
      <trkpt lat="45.34474" lon="5.87186">
        <ele>1905</ele>
        <time>2022-03-06T11:59:56Z</time>
      </trkpt>
      <trkpt lat="45.34473" lon="5.87189">
        <ele>1906</ele>
        <time>2022-03-06T12:00:00Z</time>
      </trkpt>
      <trkpt lat="45.34473" lon="5.87189">
        <ele>1906</ele>
        <time>2022-03-06T12:00:01Z</time>
      </trkpt>
      <trkpt lat="45.34473" lon="5.87189">
        <ele>1907</ele>
        <time>2022-03-06T12:00:05Z</time>
      </trkpt>
      <trkpt lat="45.34472" lon="5.87191">
        <ele>1907</ele>
        <time>2022-03-06T12:00:09Z</time>
      </trkpt>
      <trkpt lat="45.34472" lon="5.87191">
        <ele>1907</ele>
        <time>2022-03-06T12:00:10Z</time>
      </trkpt>
      <trkpt lat="45.34472" lon="5.87191">
        <ele>1908</ele>
        <time>2022-03-06T12:00:14Z</time>
      </trkpt>
      <trkpt lat="45.34471" lon="5.87194">
        <ele>1908</ele>
        <time>2022-03-06T12:00:16Z</time>
      </trkpt>
      <trkpt lat="45.34471" lon="5.87194">
        <ele>1908</ele>
        <time>2022-03-06T12:00:19Z</time>
      </trkpt>
      <trkpt lat="45.34471" lon="5.87194">
        <ele>1909</ele>
        <time>2022-03-06T12:00:23Z</time>
      </trkpt>
      <trkpt lat="45.34471" lon="5.87194">
        <ele>1909</ele>
        <time>2022-03-06T12:00:27Z</time>
      </trkpt>
      <trkpt lat="45.34471" lon="5.87194">
        <ele>1908</ele>
        <time>2022-03-06T12:00:31Z</time>
      </trkpt>
      <trkpt lat="45.34471" lon="5.87194">
        <ele>1910</ele>
        <time>2022-03-06T12:00:35Z</time>
      </trkpt>
      <trkpt lat="45.34471" lon="5.87196">
        <ele>1910</ele>
        <time>2022-03-06T12:00:36Z</time>
      </trkpt>
      <trkpt lat="45.34471" lon="5.87196">
        <ele>1911</ele>
        <time>2022-03-06T12:00:40Z</time>
      </trkpt>
      <trkpt lat="45.34471" lon="5.87196">
        <ele>1911</ele>
        <time>2022-03-06T12:00:44Z</time>
      </trkpt>
      <trkpt lat="45.34471" lon="5.87196">
        <ele>1911</ele>
        <time>2022-03-06T12:00:48Z</time>
      </trkpt>
      <trkpt lat="45.34471" lon="5.87196">
        <ele>1912</ele>
        <time>2022-03-06T12:00:52Z</time>
      </trkpt>
      <trkpt lat="45.34471" lon="5.87199">
        <ele>1912</ele>
        <time>2022-03-06T12:00:54Z</time>
      </trkpt>
      <trkpt lat="45.34471" lon="5.87199">
        <ele>1912</ele>
        <time>2022-03-06T12:00:58Z</time>
      </trkpt>
      <trkpt lat="45.34471" lon="5.87202">
        <ele>1913</ele>
        <time>2022-03-06T12:00:59Z</time>
      </trkpt>
      <trkpt lat="45.34471" lon="5.87202">
        <ele>1914</ele>
        <time>2022-03-06T12:01:03Z</time>
      </trkpt>
      <trkpt lat="45.34471" lon="5.87202">
        <ele>1914</ele>
        <time>2022-03-06T12:01:07Z</time>
      </trkpt>
      <trkpt lat="45.34471" lon="5.87202">
        <ele>1914</ele>
        <time>2022-03-06T12:01:11Z</time>
      </trkpt>
      <trkpt lat="45.34471" lon="5.87202">
        <ele>1914</ele>
        <time>2022-03-06T12:01:15Z</time>
      </trkpt>
      <trkpt lat="45.34471" lon="5.87202">
        <ele>1914</ele>
        <time>2022-03-06T12:01:19Z</time>
      </trkpt>
      <trkpt lat="45.34471" lon="5.87205">
        <ele>1915</ele>
        <time>2022-03-06T12:01:22Z</time>
      </trkpt>
      <trkpt lat="45.34471" lon="5.87205">
        <ele>1915</ele>
        <time>2022-03-06T12:01:24Z</time>
      </trkpt>
      <trkpt lat="45.34471" lon="5.87205">
        <ele>1916</ele>
        <time>2022-03-06T12:01:28Z</time>
      </trkpt>
      <trkpt lat="45.34471" lon="5.87208">
        <ele>1917</ele>
        <time>2022-03-06T12:01:31Z</time>
      </trkpt>
      <trkpt lat="45.34471" lon="5.87208">
        <ele>1917</ele>
        <time>2022-03-06T12:01:33Z</time>
      </trkpt>
      <trkpt lat="45.34471" lon="5.87208">
        <ele>1917</ele>
        <time>2022-03-06T12:01:37Z</time>
      </trkpt>
      <trkpt lat="45.34471" lon="5.87208">
        <ele>1918</ele>
        <time>2022-03-06T12:01:41Z</time>
      </trkpt>
      <trkpt lat="45.34471" lon="5.8721">
        <ele>1918</ele>
        <time>2022-03-06T12:01:43Z</time>
      </trkpt>
      <trkpt lat="45.34471" lon="5.8721">
        <ele>1919</ele>
        <time>2022-03-06T12:01:46Z</time>
      </trkpt>
      <trkpt lat="45.34471" lon="5.8721">
        <ele>1920</ele>
        <time>2022-03-06T12:01:50Z</time>
      </trkpt>
      <trkpt lat="45.34471" lon="5.8721">
        <ele>1920</ele>
        <time>2022-03-06T12:01:54Z</time>
      </trkpt>
      <trkpt lat="45.34471" lon="5.87213">
        <ele>1920</ele>
        <time>2022-03-06T12:01:55Z</time>
      </trkpt>
      <trkpt lat="45.34471" lon="5.87213">
        <ele>1921</ele>
        <time>2022-03-06T12:01:59Z</time>
      </trkpt>
      <trkpt lat="45.34471" lon="5.87213">
        <ele>1922</ele>
        <time>2022-03-06T12:02:03Z</time>
      </trkpt>
      <trkpt lat="45.34471" lon="5.87216">
        <ele>1922</ele>
        <time>2022-03-06T12:02:05Z</time>
      </trkpt>
      <trkpt lat="45.34471" lon="5.87216">
        <ele>1923</ele>
        <time>2022-03-06T12:02:08Z</time>
      </trkpt>
      <trkpt lat="45.3447" lon="5.87219">
        <ele>1923</ele>
        <time>2022-03-06T12:02:12Z</time>
      </trkpt>
      <trkpt lat="45.3447" lon="5.87219">
        <ele>1923</ele>
        <time>2022-03-06T12:02:13Z</time>
      </trkpt>
      <trkpt lat="45.3447" lon="5.87219">
        <ele>1924</ele>
        <time>2022-03-06T12:02:17Z</time>
      </trkpt>
      <trkpt lat="45.3447" lon="5.87221">
        <ele>1924</ele>
        <time>2022-03-06T12:02:18Z</time>
      </trkpt>
      <trkpt lat="45.3447" lon="5.87221">
        <ele>1925</ele>
        <time>2022-03-06T12:02:22Z</time>
      </trkpt>
      <trkpt lat="45.34468" lon="5.87224">
        <ele>1925</ele>
        <time>2022-03-06T12:02:23Z</time>
      </trkpt>
      <trkpt lat="45.34468" lon="5.87224">
        <ele>1926</ele>
        <time>2022-03-06T12:02:27Z</time>
      </trkpt>
      <trkpt lat="45.34467" lon="5.87225">
        <ele>1926</ele>
        <time>2022-03-06T12:02:28Z</time>
      </trkpt>
      <trkpt lat="45.34467" lon="5.87225">
        <ele>1927</ele>
        <time>2022-03-06T12:02:32Z</time>
      </trkpt>
      <trkpt lat="45.34465" lon="5.87227">
        <ele>1927</ele>
        <time>2022-03-06T12:02:33Z</time>
      </trkpt>
      <trkpt lat="45.34465" lon="5.87227">
        <ele>1928</ele>
        <time>2022-03-06T12:02:37Z</time>
      </trkpt>
      <trkpt lat="45.34464" lon="5.8723">
        <ele>1927</ele>
        <time>2022-03-06T12:02:39Z</time>
      </trkpt>
      <trkpt lat="45.34464" lon="5.8723">
        <ele>1928</ele>
        <time>2022-03-06T12:02:42Z</time>
      </trkpt>
      <trkpt lat="45.34463" lon="5.87232">
        <ele>1928</ele>
        <time>2022-03-06T12:02:45Z</time>
      </trkpt>
      <trkpt lat="45.34463" lon="5.87232">
        <ele>1929</ele>
        <time>2022-03-06T12:02:47Z</time>
      </trkpt>
      <trkpt lat="45.34461" lon="5.87234">
        <ele>1930</ele>
        <time>2022-03-06T12:02:51Z</time>
      </trkpt>
      <trkpt lat="45.34461" lon="5.87234">
        <ele>1930</ele>
        <time>2022-03-06T12:02:52Z</time>
      </trkpt>
      <trkpt lat="45.3446" lon="5.87237">
        <ele>1931</ele>
        <time>2022-03-06T12:02:55Z</time>
      </trkpt>
      <trkpt lat="45.3446" lon="5.87237">
        <ele>1931</ele>
        <time>2022-03-06T12:02:57Z</time>
      </trkpt>
      <trkpt lat="45.34458" lon="5.87239">
        <ele>1931</ele>
        <time>2022-03-06T12:03:00Z</time>
      </trkpt>
      <trkpt lat="45.34458" lon="5.87239">
        <ele>1932</ele>
        <time>2022-03-06T12:03:02Z</time>
      </trkpt>
      <trkpt lat="45.34457" lon="5.87241">
        <ele>1932</ele>
        <time>2022-03-06T12:03:05Z</time>
      </trkpt>
      <trkpt lat="45.34457" lon="5.87241">
        <ele>1932</ele>
        <time>2022-03-06T12:03:07Z</time>
      </trkpt>
      <trkpt lat="45.34455" lon="5.87242">
        <ele>1933</ele>
        <time>2022-03-06T12:03:09Z</time>
      </trkpt>
      <trkpt lat="45.34455" lon="5.87242">
        <ele>1933</ele>
        <time>2022-03-06T12:03:12Z</time>
      </trkpt>
      <trkpt lat="45.34454" lon="5.87244">
        <ele>1933</ele>
        <time>2022-03-06T12:03:14Z</time>
      </trkpt>
      <trkpt lat="45.34454" lon="5.87244">
        <ele>1934</ele>
        <time>2022-03-06T12:03:17Z</time>
      </trkpt>
      <trkpt lat="45.34452" lon="5.87246">
        <ele>1934</ele>
        <time>2022-03-06T12:03:18Z</time>
      </trkpt>
      <trkpt lat="45.3445" lon="5.87247">
        <ele>1935</ele>
        <time>2022-03-06T12:03:22Z</time>
      </trkpt>
      <trkpt lat="45.3445" lon="5.87247">
        <ele>1935</ele>
        <time>2022-03-06T12:03:23Z</time>
      </trkpt>
      <trkpt lat="45.34449" lon="5.8725">
        <ele>1935</ele>
        <time>2022-03-06T12:03:26Z</time>
      </trkpt>
      <trkpt lat="45.34449" lon="5.8725">
        <ele>1935</ele>
        <time>2022-03-06T12:03:28Z</time>
      </trkpt>
      <trkpt lat="45.34448" lon="5.87252">
        <ele>1936</ele>
        <time>2022-03-06T12:03:31Z</time>
      </trkpt>
      <trkpt lat="45.34448" lon="5.87252">
        <ele>1936</ele>
        <time>2022-03-06T12:03:33Z</time>
      </trkpt>
      <trkpt lat="45.34446" lon="5.87254">
        <ele>1937</ele>
        <time>2022-03-06T12:03:36Z</time>
      </trkpt>
      <trkpt lat="45.34446" lon="5.87254">
        <ele>1937</ele>
        <time>2022-03-06T12:03:38Z</time>
      </trkpt>
      <trkpt lat="45.34445" lon="5.87256">
        <ele>1937</ele>
        <time>2022-03-06T12:03:42Z</time>
      </trkpt>
      <trkpt lat="45.34445" lon="5.87256">
        <ele>1937</ele>
        <time>2022-03-06T12:03:43Z</time>
      </trkpt>
      <trkpt lat="45.34444" lon="5.87258">
        <ele>1939</ele>
        <time>2022-03-06T12:03:46Z</time>
      </trkpt>
      <trkpt lat="45.34444" lon="5.87258">
        <ele>1939</ele>
        <time>2022-03-06T12:03:48Z</time>
      </trkpt>
      <trkpt lat="45.34443" lon="5.8726">
        <ele>1939</ele>
        <time>2022-03-06T12:03:51Z</time>
      </trkpt>
      <trkpt lat="45.34443" lon="5.8726">
        <ele>1940</ele>
        <time>2022-03-06T12:03:53Z</time>
      </trkpt>
      <trkpt lat="45.34443" lon="5.8726">
        <ele>1940</ele>
        <time>2022-03-06T12:03:57Z</time>
      </trkpt>
      <trkpt lat="45.34442" lon="5.87262">
        <ele>1940</ele>
        <time>2022-03-06T12:04:01Z</time>
      </trkpt>
      <trkpt lat="45.34442" lon="5.87262">
        <ele>1940</ele>
        <time>2022-03-06T12:04:02Z</time>
      </trkpt>
      <trkpt lat="45.34442" lon="5.87262">
        <ele>1941</ele>
        <time>2022-03-06T12:04:06Z</time>
      </trkpt>
      <trkpt lat="45.34441" lon="5.87265">
        <ele>1941</ele>
        <time>2022-03-06T12:04:08Z</time>
      </trkpt>
      <trkpt lat="45.34441" lon="5.87265">
        <ele>1942</ele>
        <time>2022-03-06T12:04:11Z</time>
      </trkpt>
      <trkpt lat="45.34442" lon="5.87268">
        <ele>1942</ele>
        <time>2022-03-06T12:04:15Z</time>
      </trkpt>
      <trkpt lat="45.34442" lon="5.87268">
        <ele>1943</ele>
        <time>2022-03-06T12:04:16Z</time>
      </trkpt>
      <trkpt lat="45.34442" lon="5.87268">
        <ele>1944</ele>
        <time>2022-03-06T12:04:20Z</time>
      </trkpt>
      <trkpt lat="45.34442" lon="5.87268">
        <ele>1945</ele>
        <time>2022-03-06T12:04:24Z</time>
      </trkpt>
      <trkpt lat="45.34443" lon="5.8727">
        <ele>1945</ele>
        <time>2022-03-06T12:04:25Z</time>
      </trkpt>
      <trkpt lat="45.34443" lon="5.8727">
        <ele>1946</ele>
        <time>2022-03-06T12:04:29Z</time>
      </trkpt>
      <trkpt lat="45.34443" lon="5.87273">
        <ele>1947</ele>
        <time>2022-03-06T12:04:30Z</time>
      </trkpt>
      <trkpt lat="45.34443" lon="5.87273">
        <ele>1947</ele>
        <time>2022-03-06T12:04:34Z</time>
      </trkpt>
      <trkpt lat="45.34442" lon="5.87276">
        <ele>1947</ele>
        <time>2022-03-06T12:04:36Z</time>
      </trkpt>
      <trkpt lat="45.34442" lon="5.87276">
        <ele>1947</ele>
        <time>2022-03-06T12:04:39Z</time>
      </trkpt>
      <trkpt lat="45.34442" lon="5.87276">
        <ele>1947</ele>
        <time>2022-03-06T12:04:43Z</time>
      </trkpt>
      <trkpt lat="45.34442" lon="5.87276">
        <ele>1947</ele>
        <time>2022-03-06T12:04:47Z</time>
      </trkpt>
      <trkpt lat="45.34442" lon="5.87276">
        <ele>1947</ele>
        <time>2022-03-06T12:04:51Z</time>
      </trkpt>
      <trkpt lat="45.34442" lon="5.87276">
        <ele>1946</ele>
        <time>2022-03-06T12:04:55Z</time>
      </trkpt>
      <trkpt lat="45.34442" lon="5.87276">
        <ele>1947</ele>
        <time>2022-03-06T12:04:59Z</time>
      </trkpt>
      <trkpt lat="45.34442" lon="5.87276">
        <ele>1947</ele>
        <time>2022-03-06T12:05:03Z</time>
      </trkpt>
      <trkpt lat="45.34442" lon="5.87276">
        <ele>1948</ele>
        <time>2022-03-06T12:05:07Z</time>
      </trkpt>
      <trkpt lat="45.34442" lon="5.87276">
        <ele>1947</ele>
        <time>2022-03-06T12:05:11Z</time>
      </trkpt>
      <trkpt lat="45.34442" lon="5.87276">
        <ele>1947</ele>
        <time>2022-03-06T12:05:15Z</time>
      </trkpt>
      <trkpt lat="45.34442" lon="5.87276">
        <ele>1947</ele>
        <time>2022-03-06T12:05:19Z</time>
      </trkpt>
      <trkpt lat="45.3444" lon="5.87278">
        <ele>1946</ele>
        <time>2022-03-06T12:05:23Z</time>
      </trkpt>
      <trkpt lat="45.3444" lon="5.87278">
        <ele>1946</ele>
        <time>2022-03-06T12:05:24Z</time>
      </trkpt>
      <trkpt lat="45.3444" lon="5.87278">
        <ele>1946</ele>
        <time>2022-03-06T12:05:28Z</time>
      </trkpt>
      <trkpt lat="45.3444" lon="5.87278">
        <ele>1946</ele>
        <time>2022-03-06T12:05:32Z</time>
      </trkpt>
      <trkpt lat="45.3444" lon="5.87278">
        <ele>1947</ele>
        <time>2022-03-06T12:05:36Z</time>
      </trkpt>
      <trkpt lat="45.34442" lon="5.87279">
        <ele>1948</ele>
        <time>2022-03-06T12:05:40Z</time>
      </trkpt>
      <trkpt lat="45.34442" lon="5.87279">
        <ele>1948</ele>
        <time>2022-03-06T12:05:41Z</time>
      </trkpt>
      <trkpt lat="45.34441" lon="5.87282">
        <ele>1948</ele>
        <time>2022-03-06T12:05:44Z</time>
      </trkpt>
      <trkpt lat="45.34441" lon="5.87282">
        <ele>1949</ele>
        <time>2022-03-06T12:05:46Z</time>
      </trkpt>
      <trkpt lat="45.34441" lon="5.87282">
        <ele>1948</ele>
        <time>2022-03-06T12:05:50Z</time>
      </trkpt>
      <trkpt lat="45.3444" lon="5.87284">
        <ele>1950</ele>
        <time>2022-03-06T12:05:53Z</time>
      </trkpt>
      <trkpt lat="45.3444" lon="5.87284">
        <ele>1951</ele>
        <time>2022-03-06T12:05:55Z</time>
      </trkpt>
      <trkpt lat="45.3444" lon="5.87284">
        <ele>1951</ele>
        <time>2022-03-06T12:05:59Z</time>
      </trkpt>
      <trkpt lat="45.34439" lon="5.87287">
        <ele>1951</ele>
        <time>2022-03-06T12:06:00Z</time>
      </trkpt>
      <trkpt lat="45.34439" lon="5.87287">
        <ele>1953</ele>
        <time>2022-03-06T12:06:04Z</time>
      </trkpt>
      <trkpt lat="45.34439" lon="5.87289">
        <ele>1954</ele>
        <time>2022-03-06T12:06:05Z</time>
      </trkpt>
      <trkpt lat="45.34439" lon="5.87289">
        <ele>1953</ele>
        <time>2022-03-06T12:06:09Z</time>
      </trkpt>
      <trkpt lat="45.34439" lon="5.87289">
        <ele>1954</ele>
        <time>2022-03-06T12:06:13Z</time>
      </trkpt>
      <trkpt lat="45.34438" lon="5.87292">
        <ele>1955</ele>
        <time>2022-03-06T12:06:15Z</time>
      </trkpt>
      <trkpt lat="45.34438" lon="5.87292">
        <ele>1955</ele>
        <time>2022-03-06T12:06:18Z</time>
      </trkpt>
      <trkpt lat="45.34438" lon="5.87295">
        <ele>1957</ele>
        <time>2022-03-06T12:06:22Z</time>
      </trkpt>
      <trkpt lat="45.34438" lon="5.87295">
        <ele>1957</ele>
        <time>2022-03-06T12:06:23Z</time>
      </trkpt>
      <trkpt lat="45.34438" lon="5.87295">
        <ele>1957</ele>
        <time>2022-03-06T12:06:27Z</time>
      </trkpt>
      <trkpt lat="45.34438" lon="5.87297">
        <ele>1958</ele>
        <time>2022-03-06T12:06:31Z</time>
      </trkpt>
      <trkpt lat="45.34438" lon="5.87297">
        <ele>1959</ele>
        <time>2022-03-06T12:06:32Z</time>
      </trkpt>
      <trkpt lat="45.34438" lon="5.87297">
        <ele>1959</ele>
        <time>2022-03-06T12:06:36Z</time>
      </trkpt>
      <trkpt lat="45.34438" lon="5.873">
        <ele>1959</ele>
        <time>2022-03-06T12:06:39Z</time>
      </trkpt>
      <trkpt lat="45.34438" lon="5.873">
        <ele>1962</ele>
        <time>2022-03-06T12:06:42Z</time>
      </trkpt>
      <trkpt lat="45.34438" lon="5.873">
        <ele>1963</ele>
        <time>2022-03-06T12:06:46Z</time>
      </trkpt>
      <trkpt lat="45.34438" lon="5.873">
        <ele>1963</ele>
        <time>2022-03-06T12:06:50Z</time>
      </trkpt>
      <trkpt lat="45.34438" lon="5.873">
        <ele>1963</ele>
        <time>2022-03-06T12:06:54Z</time>
      </trkpt>
      <trkpt lat="45.34438" lon="5.87303">
        <ele>1964</ele>
        <time>2022-03-06T12:06:57Z</time>
      </trkpt>
      <trkpt lat="45.34438" lon="5.87303">
        <ele>1964</ele>
        <time>2022-03-06T12:06:59Z</time>
      </trkpt>
      <trkpt lat="45.34438" lon="5.87306">
        <ele>1965</ele>
        <time>2022-03-06T12:07:02Z</time>
      </trkpt>
      <trkpt lat="45.34438" lon="5.87306">
        <ele>1965</ele>
        <time>2022-03-06T12:07:04Z</time>
      </trkpt>
      <trkpt lat="45.34438" lon="5.87306">
        <ele>1965</ele>
        <time>2022-03-06T12:07:08Z</time>
      </trkpt>
      <trkpt lat="45.34436" lon="5.87308">
        <ele>1965</ele>
        <time>2022-03-06T12:07:09Z</time>
      </trkpt>
      <trkpt lat="45.34436" lon="5.87308">
        <ele>1967</ele>
        <time>2022-03-06T12:07:13Z</time>
      </trkpt>
      <trkpt lat="45.34436" lon="5.87308">
        <ele>1968</ele>
        <time>2022-03-06T12:07:17Z</time>
      </trkpt>
      <trkpt lat="45.34435" lon="5.8731">
        <ele>1968</ele>
        <time>2022-03-06T12:07:18Z</time>
      </trkpt>
      <trkpt lat="45.34435" lon="5.8731">
        <ele>1968</ele>
        <time>2022-03-06T12:07:22Z</time>
      </trkpt>
      <trkpt lat="45.34435" lon="5.8731">
        <ele>1969</ele>
        <time>2022-03-06T12:07:26Z</time>
      </trkpt>
      <trkpt lat="45.34435" lon="5.87311">
        <ele>1970</ele>
        <time>2022-03-06T12:07:29Z</time>
      </trkpt>
      <trkpt lat="45.34435" lon="5.87311">
        <ele>1970</ele>
        <time>2022-03-06T12:07:31Z</time>
      </trkpt>
      <trkpt lat="45.34434" lon="5.87311">
        <ele>1970</ele>
        <time>2022-03-06T12:07:32Z</time>
      </trkpt>
      <trkpt lat="45.34434" lon="5.87311">
        <ele>1971</ele>
        <time>2022-03-06T12:07:36Z</time>
      </trkpt>
      <trkpt lat="45.34434" lon="5.87312">
        <ele>1971</ele>
        <time>2022-03-06T12:07:40Z</time>
      </trkpt>
      <trkpt lat="45.34434" lon="5.87312">
        <ele>1972</ele>
        <time>2022-03-06T12:07:41Z</time>
      </trkpt>
      <trkpt lat="45.34434" lon="5.87312">
        <ele>1972</ele>
        <time>2022-03-06T12:07:45Z</time>
      </trkpt>
      <trkpt lat="45.34434" lon="5.87312">
        <ele>1972</ele>
        <time>2022-03-06T12:07:49Z</time>
      </trkpt>
      <trkpt lat="45.34434" lon="5.87313">
        <ele>1972</ele>
        <time>2022-03-06T12:07:50Z</time>
      </trkpt>
      <trkpt lat="45.34434" lon="5.87313">
        <ele>1972</ele>
        <time>2022-03-06T12:07:54Z</time>
      </trkpt>
      <trkpt lat="45.34434" lon="5.87313">
        <ele>1971</ele>
        <time>2022-03-06T12:07:58Z</time>
      </trkpt>
      <trkpt lat="45.34433" lon="5.87314">
        <ele>1971</ele>
        <time>2022-03-06T12:08:01Z</time>
      </trkpt>
      <trkpt lat="45.34433" lon="5.87314">
        <ele>1972</ele>
        <time>2022-03-06T12:08:03Z</time>
      </trkpt>
      <trkpt lat="45.34433" lon="5.87314">
        <ele>1972</ele>
        <time>2022-03-06T12:08:07Z</time>
      </trkpt>
      <trkpt lat="45.34433" lon="5.87314">
        <ele>1972</ele>
        <time>2022-03-06T12:08:11Z</time>
      </trkpt>
      <trkpt lat="45.34433" lon="5.87315">
        <ele>1972</ele>
        <time>2022-03-06T12:08:12Z</time>
      </trkpt>
      <trkpt lat="45.34433" lon="5.87315">
        <ele>1971</ele>
        <time>2022-03-06T12:08:16Z</time>
      </trkpt>
      <trkpt lat="45.34433" lon="5.87315">
        <ele>1972</ele>
        <time>2022-03-06T12:08:20Z</time>
      </trkpt>
      <trkpt lat="45.34433" lon="5.87316">
        <ele>1972</ele>
        <time>2022-03-06T12:08:22Z</time>
      </trkpt>
      <trkpt lat="45.34433" lon="5.87316">
        <ele>1972</ele>
        <time>2022-03-06T12:08:25Z</time>
      </trkpt>
      <trkpt lat="45.34433" lon="5.87316">
        <ele>1972</ele>
        <time>2022-03-06T12:08:29Z</time>
      </trkpt>
      <trkpt lat="45.34432" lon="5.87316">
        <ele>1972</ele>
        <time>2022-03-06T12:08:30Z</time>
      </trkpt>
      <trkpt lat="45.34432" lon="5.87317">
        <ele>1973</ele>
        <time>2022-03-06T12:08:33Z</time>
      </trkpt>
      <trkpt lat="45.34432" lon="5.87317">
        <ele>1973</ele>
        <time>2022-03-06T12:08:35Z</time>
      </trkpt>
      <trkpt lat="45.34432" lon="5.87317">
        <ele>1973</ele>
        <time>2022-03-06T12:08:39Z</time>
      </trkpt>
      <trkpt lat="45.34432" lon="5.87317">
        <ele>1973</ele>
        <time>2022-03-06T12:08:43Z</time>
      </trkpt>
      <trkpt lat="45.34432" lon="5.87318">
        <ele>1973</ele>
        <time>2022-03-06T12:08:44Z</time>
      </trkpt>
      <trkpt lat="45.34432" lon="5.87318">
        <ele>1973</ele>
        <time>2022-03-06T12:08:48Z</time>
      </trkpt>
      <trkpt lat="45.34432" lon="5.87318">
        <ele>1974</ele>
        <time>2022-03-06T12:08:52Z</time>
      </trkpt>
      <trkpt lat="45.34432" lon="5.87319">
        <ele>1974</ele>
        <time>2022-03-06T12:08:54Z</time>
      </trkpt>
      <trkpt lat="45.34432" lon="5.87319">
        <ele>1973</ele>
        <time>2022-03-06T12:08:57Z</time>
      </trkpt>
      <trkpt lat="45.34431" lon="5.87319">
        <ele>1973</ele>
        <time>2022-03-06T12:08:59Z</time>
      </trkpt>
      <trkpt lat="45.34431" lon="5.87319">
        <ele>1973</ele>
        <time>2022-03-06T12:09:02Z</time>
      </trkpt>
      <trkpt lat="45.34431" lon="5.8732">
        <ele>1974</ele>
        <time>2022-03-06T12:09:05Z</time>
      </trkpt>
      <trkpt lat="45.34431" lon="5.8732">
        <ele>1974</ele>
        <time>2022-03-06T12:09:07Z</time>
      </trkpt>
      <trkpt lat="45.34431" lon="5.8732">
        <ele>1974</ele>
        <time>2022-03-06T12:09:11Z</time>
      </trkpt>
      <trkpt lat="45.34431" lon="5.8732">
        <ele>1974</ele>
        <time>2022-03-06T12:09:15Z</time>
      </trkpt>
      <trkpt lat="45.34431" lon="5.87321">
        <ele>1974</ele>
        <time>2022-03-06T12:09:16Z</time>
      </trkpt>
      <trkpt lat="45.34431" lon="5.87321">
        <ele>1975</ele>
        <time>2022-03-06T12:09:20Z</time>
      </trkpt>
      <trkpt lat="45.34431" lon="5.87321">
        <ele>1975</ele>
        <time>2022-03-06T12:09:24Z</time>
      </trkpt>
      <trkpt lat="45.34431" lon="5.87321">
        <ele>1977</ele>
        <time>2022-03-06T12:09:28Z</time>
      </trkpt>
      <trkpt lat="45.34432" lon="5.87321">
        <ele>1977</ele>
        <time>2022-03-06T12:09:30Z</time>
      </trkpt>
      <trkpt lat="45.34432" lon="5.87322">
        <ele>1977</ele>
        <time>2022-03-06T12:09:32Z</time>
      </trkpt>
      <trkpt lat="45.34432" lon="5.87322">
        <ele>1976</ele>
        <time>2022-03-06T12:09:34Z</time>
      </trkpt>
      <trkpt lat="45.34432" lon="5.87322">
        <ele>1976</ele>
        <time>2022-03-06T12:09:38Z</time>
      </trkpt>
      <trkpt lat="45.34432" lon="5.87322">
        <ele>1977</ele>
        <time>2022-03-06T12:09:42Z</time>
      </trkpt>
      <trkpt lat="45.34433" lon="5.87322">
        <ele>1977</ele>
        <time>2022-03-06T12:09:43Z</time>
      </trkpt>
      <trkpt lat="45.34433" lon="5.87322">
        <ele>1977</ele>
        <time>2022-03-06T12:09:47Z</time>
      </trkpt>
      <trkpt lat="45.34433" lon="5.87322">
        <ele>1979</ele>
        <time>2022-03-06T12:09:52Z</time>
      </trkpt>
      <trkpt lat="45.34433" lon="5.87323">
        <ele>1979</ele>
        <time>2022-03-06T12:09:53Z</time>
      </trkpt>
      <trkpt lat="45.34434" lon="5.87323">
        <ele>1981</ele>
        <time>2022-03-06T12:09:57Z</time>
      </trkpt>
      <trkpt lat="45.34434" lon="5.87323">
        <ele>1981</ele>
        <time>2022-03-06T12:09:58Z</time>
      </trkpt>
      <trkpt lat="45.34434" lon="5.87323">
        <ele>1980</ele>
        <time>2022-03-06T12:10:02Z</time>
      </trkpt>
      <trkpt lat="45.34434" lon="5.87323">
        <ele>1980</ele>
        <time>2022-03-06T12:10:06Z</time>
      </trkpt>
      <trkpt lat="45.34435" lon="5.87323">
        <ele>1981</ele>
        <time>2022-03-06T12:10:10Z</time>
      </trkpt>
      <trkpt lat="45.34435" lon="5.87323">
        <ele>1981</ele>
        <time>2022-03-06T12:10:11Z</time>
      </trkpt>
      <trkpt lat="45.34435" lon="5.87324">
        <ele>1981</ele>
        <time>2022-03-06T12:10:13Z</time>
      </trkpt>
      <trkpt lat="45.34435" lon="5.87324">
        <ele>1980</ele>
        <time>2022-03-06T12:10:16Z</time>
      </trkpt>
      <trkpt lat="45.34435" lon="5.87324">
        <ele>1980</ele>
        <time>2022-03-06T12:10:20Z</time>
      </trkpt>
      <trkpt lat="45.34436" lon="5.87324">
        <ele>1980</ele>
        <time>2022-03-06T12:10:22Z</time>
      </trkpt>
      <trkpt lat="45.34436" lon="5.87324">
        <ele>1980</ele>
        <time>2022-03-06T12:10:25Z</time>
      </trkpt>
      <trkpt lat="45.34436" lon="5.87324">
        <ele>1979</ele>
        <time>2022-03-06T12:10:29Z</time>
      </trkpt>
      <trkpt lat="45.34436" lon="5.87325">
        <ele>1979</ele>
        <time>2022-03-06T12:10:33Z</time>
      </trkpt>
      <trkpt lat="45.34436" lon="5.87325">
        <ele>1980</ele>
        <time>2022-03-06T12:10:34Z</time>
      </trkpt>
      <trkpt lat="45.34437" lon="5.87325">
        <ele>1980</ele>
        <time>2022-03-06T12:10:35Z</time>
      </trkpt>
      <trkpt lat="45.34437" lon="5.87325">
        <ele>1981</ele>
        <time>2022-03-06T12:10:39Z</time>
      </trkpt>
      <trkpt lat="45.34437" lon="5.87325">
        <ele>1981</ele>
        <time>2022-03-06T12:10:43Z</time>
      </trkpt>
      <trkpt lat="45.34437" lon="5.87325">
        <ele>1981</ele>
        <time>2022-03-06T12:10:47Z</time>
      </trkpt>
      <trkpt lat="45.34438" lon="5.87325">
        <ele>1981</ele>
        <time>2022-03-06T12:10:48Z</time>
      </trkpt>
      <trkpt lat="45.34438" lon="5.87325">
        <ele>1981</ele>
        <time>2022-03-06T12:10:52Z</time>
      </trkpt>
      <trkpt lat="45.34438" lon="5.87326">
        <ele>1981</ele>
        <time>2022-03-06T12:10:53Z</time>
      </trkpt>
      <trkpt lat="45.34438" lon="5.87326">
        <ele>1980</ele>
        <time>2022-03-06T12:10:57Z</time>
      </trkpt>
      <trkpt lat="45.34439" lon="5.87326">
        <ele>1980</ele>
        <time>2022-03-06T12:11:01Z</time>
      </trkpt>
      <trkpt lat="45.34439" lon="5.87326">
        <ele>1980</ele>
        <time>2022-03-06T12:11:02Z</time>
      </trkpt>
      <trkpt lat="45.34439" lon="5.87326">
        <ele>1980</ele>
        <time>2022-03-06T12:11:06Z</time>
      </trkpt>
      <trkpt lat="45.34439" lon="5.87326">
        <ele>1979</ele>
        <time>2022-03-06T12:11:10Z</time>
      </trkpt>
      <trkpt lat="45.34438" lon="5.87328">
        <ele>1980</ele>
        <time>2022-03-06T12:11:14Z</time>
      </trkpt>
      <trkpt lat="45.34438" lon="5.87328">
        <ele>1981</ele>
        <time>2022-03-06T12:11:15Z</time>
      </trkpt>
      <trkpt lat="45.34438" lon="5.87328">
        <ele>1981</ele>
        <time>2022-03-06T12:11:19Z</time>
      </trkpt>
      <trkpt lat="45.34438" lon="5.87328">
        <ele>1982</ele>
        <time>2022-03-06T12:11:23Z</time>
      </trkpt>
      <trkpt lat="45.34439" lon="5.87331">
        <ele>1982</ele>
        <time>2022-03-06T12:11:24Z</time>
      </trkpt>
      <trkpt lat="45.34439" lon="5.87331">
        <ele>1984</ele>
        <time>2022-03-06T12:11:28Z</time>
      </trkpt>
      <trkpt lat="45.34439" lon="5.87332">
        <ele>1984</ele>
        <time>2022-03-06T12:11:29Z</time>
      </trkpt>
      <trkpt lat="45.34438" lon="5.87332">
        <ele>1984</ele>
        <time>2022-03-06T12:11:30Z</time>
      </trkpt>
      <trkpt lat="45.34438" lon="5.87333">
        <ele>1985</ele>
        <time>2022-03-06T12:11:32Z</time>
      </trkpt>
      <trkpt lat="45.34438" lon="5.87333">
        <ele>1988</ele>
        <time>2022-03-06T12:11:35Z</time>
      </trkpt>
      <trkpt lat="45.34437" lon="5.87334">
        <ele>1988</ele>
        <time>2022-03-06T12:11:36Z</time>
      </trkpt>
      <trkpt lat="45.34437" lon="5.87335">
        <ele>1988</ele>
        <time>2022-03-06T12:11:39Z</time>
      </trkpt>
      <trkpt lat="45.34437" lon="5.87335">
        <ele>1989</ele>
        <time>2022-03-06T12:11:41Z</time>
      </trkpt>
      <trkpt lat="45.34436" lon="5.87335">
        <ele>1989</ele>
        <time>2022-03-06T12:11:42Z</time>
      </trkpt>
      <trkpt lat="45.34436" lon="5.87336">
        <ele>1989</ele>
        <time>2022-03-06T12:11:43Z</time>
      </trkpt>
      <trkpt lat="45.34436" lon="5.87337">
        <ele>1989</ele>
        <time>2022-03-06T12:11:46Z</time>
      </trkpt>
      <trkpt lat="45.34436" lon="5.87337">
        <ele>1990</ele>
        <time>2022-03-06T12:11:48Z</time>
      </trkpt>
      <trkpt lat="45.34435" lon="5.87338">
        <ele>1991</ele>
        <time>2022-03-06T12:11:49Z</time>
      </trkpt>
      <trkpt lat="45.34435" lon="5.87339">
        <ele>1991</ele>
        <time>2022-03-06T12:11:53Z</time>
      </trkpt>
      <trkpt lat="45.34435" lon="5.87339">
        <ele>1991</ele>
        <time>2022-03-06T12:11:54Z</time>
      </trkpt>
      <trkpt lat="45.34434" lon="5.87339">
        <ele>1992</ele>
        <time>2022-03-06T12:11:55Z</time>
      </trkpt>
      <trkpt lat="45.34434" lon="5.8734">
        <ele>1992</ele>
        <time>2022-03-06T12:11:56Z</time>
      </trkpt>
      <trkpt lat="45.34434" lon="5.87341">
        <ele>1993</ele>
        <time>2022-03-06T12:12:00Z</time>
      </trkpt>
      <trkpt lat="45.34434" lon="5.87341">
        <ele>1993</ele>
        <time>2022-03-06T12:12:01Z</time>
      </trkpt>
      <trkpt lat="45.34435" lon="5.87341">
        <ele>1993</ele>
        <time>2022-03-06T12:12:04Z</time>
      </trkpt>
      <trkpt lat="45.34435" lon="5.87342">
        <ele>1994</ele>
        <time>2022-03-06T12:12:06Z</time>
      </trkpt>
      <trkpt lat="45.34436" lon="5.87342">
        <ele>1994</ele>
        <time>2022-03-06T12:12:07Z</time>
      </trkpt>
      <trkpt lat="45.34437" lon="5.87342">
        <ele>1995</ele>
        <time>2022-03-06T12:12:11Z</time>
      </trkpt>
      <trkpt lat="45.34437" lon="5.87342">
        <ele>1995</ele>
        <time>2022-03-06T12:12:12Z</time>
      </trkpt>
      <trkpt lat="45.34437" lon="5.87343">
        <ele>1995</ele>
        <time>2022-03-06T12:12:13Z</time>
      </trkpt>
      <trkpt lat="45.34438" lon="5.87343">
        <ele>1996</ele>
        <time>2022-03-06T12:12:14Z</time>
      </trkpt>
      <trkpt lat="45.34439" lon="5.87343">
        <ele>1998</ele>
        <time>2022-03-06T12:12:18Z</time>
      </trkpt>
      <trkpt lat="45.34439" lon="5.87343">
        <ele>1998</ele>
        <time>2022-03-06T12:12:19Z</time>
      </trkpt>
      <trkpt lat="45.34439" lon="5.87344">
        <ele>1998</ele>
        <time>2022-03-06T12:12:20Z</time>
      </trkpt>
      <trkpt lat="45.3444" lon="5.87344">
        <ele>1998</ele>
        <time>2022-03-06T12:12:22Z</time>
      </trkpt>
      <trkpt lat="45.34441" lon="5.87344">
        <ele>1998</ele>
        <time>2022-03-06T12:12:25Z</time>
      </trkpt>
      <trkpt lat="45.34441" lon="5.87344">
        <ele>1998</ele>
        <time>2022-03-06T12:12:26Z</time>
      </trkpt>
      <trkpt lat="45.34441" lon="5.87345">
        <ele>1997</ele>
        <time>2022-03-06T12:12:27Z</time>
      </trkpt>
      <trkpt lat="45.34442" lon="5.87345">
        <ele>1998</ele>
        <time>2022-03-06T12:12:29Z</time>
      </trkpt>
      <trkpt lat="45.34443" lon="5.87345">
        <ele>1998</ele>
        <time>2022-03-06T12:12:32Z</time>
      </trkpt>
      <trkpt lat="45.34443" lon="5.87345">
        <ele>1998</ele>
        <time>2022-03-06T12:12:33Z</time>
      </trkpt>
      <trkpt lat="45.34443" lon="5.87346">
        <ele>1998</ele>
        <time>2022-03-06T12:12:34Z</time>
      </trkpt>
      <trkpt lat="45.34444" lon="5.87346">
        <ele>1998</ele>
        <time>2022-03-06T12:12:36Z</time>
      </trkpt>
      <trkpt lat="45.34444" lon="5.87347">
        <ele>1999</ele>
        <time>2022-03-06T12:12:38Z</time>
      </trkpt>
      <trkpt lat="45.34445" lon="5.87347">
        <ele>2000</ele>
        <time>2022-03-06T12:12:39Z</time>
      </trkpt>
      <trkpt lat="45.34446" lon="5.87348">
        <ele>2000</ele>
        <time>2022-03-06T12:12:42Z</time>
      </trkpt>
      <trkpt lat="45.34446" lon="5.87348">
        <ele>2000</ele>
        <time>2022-03-06T12:12:44Z</time>
      </trkpt>
      <trkpt lat="45.34447" lon="5.87349">
        <ele>2000</ele>
        <time>2022-03-06T12:12:45Z</time>
      </trkpt>
      <trkpt lat="45.34448" lon="5.87349">
        <ele>2001</ele>
        <time>2022-03-06T12:12:48Z</time>
      </trkpt>
      <trkpt lat="45.34448" lon="5.8735">
        <ele>2001</ele>
        <time>2022-03-06T12:12:49Z</time>
      </trkpt>
      <trkpt lat="45.34449" lon="5.8735">
        <ele>2001</ele>
        <time>2022-03-06T12:12:51Z</time>
      </trkpt>
      <trkpt lat="45.34449" lon="5.87351">
        <ele>2002</ele>
        <time>2022-03-06T12:12:52Z</time>
      </trkpt>
      <trkpt lat="45.3445" lon="5.87351">
        <ele>2002</ele>
        <time>2022-03-06T12:12:54Z</time>
      </trkpt>
      <trkpt lat="45.3445" lon="5.87352">
        <ele>2002</ele>
        <time>2022-03-06T12:12:56Z</time>
      </trkpt>
      <trkpt lat="45.34451" lon="5.87352">
        <ele>2002</ele>
        <time>2022-03-06T12:12:57Z</time>
      </trkpt>
      <trkpt lat="45.34452" lon="5.87353">
        <ele>2002</ele>
        <time>2022-03-06T12:13:00Z</time>
      </trkpt>
      <trkpt lat="45.34452" lon="5.87353">
        <ele>2004</ele>
        <time>2022-03-06T12:13:02Z</time>
      </trkpt>
      <trkpt lat="45.34452" lon="5.87354">
        <ele>2004</ele>
        <time>2022-03-06T12:13:03Z</time>
      </trkpt>
      <trkpt lat="45.34453" lon="5.87354">
        <ele>2004</ele>
        <time>2022-03-06T12:13:05Z</time>
      </trkpt>
      <trkpt lat="45.34453" lon="5.87355">
        <ele>2004</ele>
        <time>2022-03-06T12:13:06Z</time>
      </trkpt>
      <trkpt lat="45.34453" lon="5.87356">
        <ele>2005</ele>
        <time>2022-03-06T12:13:08Z</time>
      </trkpt>
      <trkpt lat="45.34453" lon="5.87357">
        <ele>2005</ele>
        <time>2022-03-06T12:13:11Z</time>
      </trkpt>
      <trkpt lat="45.34454" lon="5.87357">
        <ele>2005</ele>
        <time>2022-03-06T12:13:12Z</time>
      </trkpt>
      <trkpt lat="45.34454" lon="5.87358">
        <ele>2005</ele>
        <time>2022-03-06T12:13:14Z</time>
      </trkpt>
      <trkpt lat="45.34454" lon="5.87359">
        <ele>2006</ele>
        <time>2022-03-06T12:13:17Z</time>
      </trkpt>
      <trkpt lat="45.34454" lon="5.87359">
        <ele>2006</ele>
        <time>2022-03-06T12:13:18Z</time>
      </trkpt>
      <trkpt lat="45.34452" lon="5.8736">
        <ele>2006</ele>
        <time>2022-03-06T12:13:19Z</time>
      </trkpt>
      <trkpt lat="45.34452" lon="5.8736">
        <ele>2007</ele>
        <time>2022-03-06T12:13:23Z</time>
      </trkpt>
      <trkpt lat="45.34452" lon="5.8736">
        <ele>2008</ele>
        <time>2022-03-06T12:13:27Z</time>
      </trkpt>
      <trkpt lat="45.34454" lon="5.87361">
        <ele>2009</ele>
        <time>2022-03-06T12:13:31Z</time>
      </trkpt>
      <trkpt lat="45.34454" lon="5.87361">
        <ele>2009</ele>
        <time>2022-03-06T12:13:32Z</time>
      </trkpt>
      <trkpt lat="45.34454" lon="5.87361">
        <ele>2009</ele>
        <time>2022-03-06T12:13:36Z</time>
      </trkpt>
      <trkpt lat="45.34457" lon="5.87362">
        <ele>2009</ele>
        <time>2022-03-06T12:13:38Z</time>
      </trkpt>
      <trkpt lat="45.3446" lon="5.87363">
        <ele>2009</ele>
        <time>2022-03-06T12:13:39Z</time>
      </trkpt>
      <trkpt lat="45.3446" lon="5.87363">
        <ele>2009</ele>
        <time>2022-03-06T12:13:43Z</time>
      </trkpt>
      <trkpt lat="45.3446" lon="5.87363">
        <ele>2010</ele>
        <time>2022-03-06T12:13:47Z</time>
      </trkpt>
      <trkpt lat="45.3446" lon="5.87363">
        <ele>2010</ele>
        <time>2022-03-06T12:13:51Z</time>
      </trkpt>
      <trkpt lat="45.3446" lon="5.87363">
        <ele>2010</ele>
        <time>2022-03-06T12:13:55Z</time>
      </trkpt>
      <trkpt lat="45.3446" lon="5.87363">
        <ele>2010</ele>
        <time>2022-03-06T12:13:59Z</time>
      </trkpt>
      <trkpt lat="45.34457" lon="5.87365">
        <ele>2011</ele>
        <time>2022-03-06T12:14:02Z</time>
      </trkpt>
      <trkpt lat="45.34457" lon="5.87365">
        <ele>2011</ele>
        <time>2022-03-06T12:14:04Z</time>
      </trkpt>
      <trkpt lat="45.34457" lon="5.87365">
        <ele>2012</ele>
        <time>2022-03-06T12:14:08Z</time>
      </trkpt>
      <trkpt lat="45.34458" lon="5.87367">
        <ele>2012</ele>
        <time>2022-03-06T12:14:10Z</time>
      </trkpt>
      <trkpt lat="45.34458" lon="5.87367">
        <ele>2015</ele>
        <time>2022-03-06T12:14:13Z</time>
      </trkpt>
      <trkpt lat="45.34458" lon="5.87367">
        <ele>2015</ele>
        <time>2022-03-06T12:14:17Z</time>
      </trkpt>
      <trkpt lat="45.34457" lon="5.87369">
        <ele>2015</ele>
        <time>2022-03-06T12:14:18Z</time>
      </trkpt>
      <trkpt lat="45.34458" lon="5.87372">
        <ele>2015</ele>
        <time>2022-03-06T12:14:21Z</time>
      </trkpt>
      <trkpt lat="45.34458" lon="5.87372">
        <ele>2016</ele>
        <time>2022-03-06T12:14:23Z</time>
      </trkpt>
      <trkpt lat="45.34458" lon="5.87372">
        <ele>2016</ele>
        <time>2022-03-06T12:14:27Z</time>
      </trkpt>
      <trkpt lat="45.34458" lon="5.87372">
        <ele>2017</ele>
        <time>2022-03-06T12:14:31Z</time>
      </trkpt>
      <trkpt lat="45.34456" lon="5.87373">
        <ele>2017</ele>
        <time>2022-03-06T12:14:32Z</time>
      </trkpt>
      <trkpt lat="45.34456" lon="5.87373">
        <ele>2018</ele>
        <time>2022-03-06T12:14:36Z</time>
      </trkpt>
      <trkpt lat="45.34456" lon="5.87373">
        <ele>2018</ele>
        <time>2022-03-06T12:14:40Z</time>
      </trkpt>
      <trkpt lat="45.34456" lon="5.87373">
        <ele>2019</ele>
        <time>2022-03-06T12:14:44Z</time>
      </trkpt>
      <trkpt lat="45.34454" lon="5.87375">
        <ele>2020</ele>
        <time>2022-03-06T12:14:46Z</time>
      </trkpt>
      <trkpt lat="45.34454" lon="5.87375">
        <ele>2020</ele>
        <time>2022-03-06T12:14:49Z</time>
      </trkpt>
      <trkpt lat="45.34454" lon="5.87375">
        <ele>2021</ele>
        <time>2022-03-06T12:14:53Z</time>
      </trkpt>
      <trkpt lat="45.34454" lon="5.87377">
        <ele>2021</ele>
        <time>2022-03-06T12:14:54Z</time>
      </trkpt>
      <trkpt lat="45.34454" lon="5.87377">
        <ele>2022</ele>
        <time>2022-03-06T12:14:58Z</time>
      </trkpt>
      <trkpt lat="45.34453" lon="5.8738">
        <ele>2023</ele>
        <time>2022-03-06T12:15:02Z</time>
      </trkpt>
      <trkpt lat="45.34453" lon="5.8738">
        <ele>2023</ele>
        <time>2022-03-06T12:15:03Z</time>
      </trkpt>
      <trkpt lat="45.34453" lon="5.8738">
        <ele>2024</ele>
        <time>2022-03-06T12:15:07Z</time>
      </trkpt>
      <trkpt lat="45.34454" lon="5.87382">
        <ele>2025</ele>
        <time>2022-03-06T12:15:10Z</time>
      </trkpt>
      <trkpt lat="45.34454" lon="5.87382">
        <ele>2025</ele>
        <time>2022-03-06T12:15:12Z</time>
      </trkpt>
      <trkpt lat="45.34454" lon="5.87382">
        <ele>2025</ele>
        <time>2022-03-06T12:15:16Z</time>
      </trkpt>
      <trkpt lat="45.34454" lon="5.87382">
        <ele>2025</ele>
        <time>2022-03-06T12:15:20Z</time>
      </trkpt>
      <trkpt lat="45.34454" lon="5.87385">
        <ele>2026</ele>
        <time>2022-03-06T12:15:24Z</time>
      </trkpt>
      <trkpt lat="45.34454" lon="5.87385">
        <ele>2027</ele>
        <time>2022-03-06T12:15:25Z</time>
      </trkpt>
      <trkpt lat="45.34454" lon="5.87385">
        <ele>2028</ele>
        <time>2022-03-06T12:15:29Z</time>
      </trkpt>
      <trkpt lat="45.34454" lon="5.87388">
        <ele>2028</ele>
        <time>2022-03-06T12:15:33Z</time>
      </trkpt>
      <trkpt lat="45.34454" lon="5.87388">
        <ele>2028</ele>
        <time>2022-03-06T12:15:34Z</time>
      </trkpt>
      <trkpt lat="45.34454" lon="5.87388">
        <ele>2028</ele>
        <time>2022-03-06T12:15:38Z</time>
      </trkpt>
      <trkpt lat="45.34454" lon="5.87388">
        <ele>2028</ele>
        <time>2022-03-06T12:15:42Z</time>
      </trkpt>
      <trkpt lat="45.34456" lon="5.87389">
        <ele>2029</ele>
        <time>2022-03-06T12:15:44Z</time>
      </trkpt>
      <trkpt lat="45.34456" lon="5.87389">
        <ele>2029</ele>
        <time>2022-03-06T12:15:47Z</time>
      </trkpt>
      <trkpt lat="45.34456" lon="5.87389">
        <ele>2030</ele>
        <time>2022-03-06T12:15:51Z</time>
      </trkpt>
      <trkpt lat="45.34456" lon="5.87391">
        <ele>2031</ele>
        <time>2022-03-06T12:15:54Z</time>
      </trkpt>
      <trkpt lat="45.34456" lon="5.87391">
        <ele>2031</ele>
        <time>2022-03-06T12:15:56Z</time>
      </trkpt>
      <trkpt lat="45.34456" lon="5.87391">
        <ele>2032</ele>
        <time>2022-03-06T12:16:00Z</time>
      </trkpt>
      <trkpt lat="45.34457" lon="5.87394">
        <ele>2033</ele>
        <time>2022-03-06T12:16:01Z</time>
      </trkpt>
      <trkpt lat="45.34457" lon="5.87394">
        <ele>2033</ele>
        <time>2022-03-06T12:16:05Z</time>
      </trkpt>
      <trkpt lat="45.34459" lon="5.87396">
        <ele>2034</ele>
        <time>2022-03-06T12:16:07Z</time>
      </trkpt>
      <trkpt lat="45.34459" lon="5.87396">
        <ele>2035</ele>
        <time>2022-03-06T12:16:11Z</time>
      </trkpt>
      <trkpt lat="45.3446" lon="5.87398">
        <ele>2035</ele>
        <time>2022-03-06T12:16:14Z</time>
      </trkpt>
      <trkpt lat="45.3446" lon="5.87398">
        <ele>2035</ele>
        <time>2022-03-06T12:16:16Z</time>
      </trkpt>
      <trkpt lat="45.3446" lon="5.87398">
        <ele>2036</ele>
        <time>2022-03-06T12:16:20Z</time>
      </trkpt>
      <trkpt lat="45.3446" lon="5.87401">
        <ele>2036</ele>
        <time>2022-03-06T12:16:22Z</time>
      </trkpt>
      <trkpt lat="45.3446" lon="5.87401">
        <ele>2037</ele>
        <time>2022-03-06T12:16:25Z</time>
      </trkpt>
      <trkpt lat="45.3446" lon="5.87404">
        <ele>2038</ele>
        <time>2022-03-06T12:16:29Z</time>
      </trkpt>
      <trkpt lat="45.3446" lon="5.87404">
        <ele>2038</ele>
        <time>2022-03-06T12:16:30Z</time>
      </trkpt>
      <trkpt lat="45.3446" lon="5.87404">
        <ele>2040</ele>
        <time>2022-03-06T12:16:34Z</time>
      </trkpt>
      <trkpt lat="45.3446" lon="5.87404">
        <ele>2040</ele>
        <time>2022-03-06T12:16:38Z</time>
      </trkpt>
      <trkpt lat="45.3446" lon="5.87404">
        <ele>2040</ele>
        <time>2022-03-06T12:16:42Z</time>
      </trkpt>
      <trkpt lat="45.3446" lon="5.87404">
        <ele>2040</ele>
        <time>2022-03-06T12:16:46Z</time>
      </trkpt>
      <trkpt lat="45.34461" lon="5.87407">
        <ele>2040</ele>
        <time>2022-03-06T12:16:47Z</time>
      </trkpt>
      <trkpt lat="45.34461" lon="5.87407">
        <ele>2041</ele>
        <time>2022-03-06T12:16:51Z</time>
      </trkpt>
      <trkpt lat="45.34461" lon="5.87407">
        <ele>2040</ele>
        <time>2022-03-06T12:16:55Z</time>
      </trkpt>
      <trkpt lat="45.34461" lon="5.87407">
        <ele>2038</ele>
        <time>2022-03-06T12:16:59Z</time>
      </trkpt>
      <trkpt lat="45.34461" lon="5.87407">
        <ele>2040</ele>
        <time>2022-03-06T12:17:03Z</time>
      </trkpt>
      <trkpt lat="45.34461" lon="5.87407">
        <ele>2040</ele>
        <time>2022-03-06T12:17:07Z</time>
      </trkpt>
      <trkpt lat="45.34461" lon="5.87407">
        <ele>2040</ele>
        <time>2022-03-06T12:17:11Z</time>
      </trkpt>
      <trkpt lat="45.34461" lon="5.87407">
        <ele>2040</ele>
        <time>2022-03-06T12:17:15Z</time>
      </trkpt>
      <trkpt lat="45.34461" lon="5.87407">
        <ele>2040</ele>
        <time>2022-03-06T12:17:19Z</time>
      </trkpt>
      <trkpt lat="45.34461" lon="5.87407">
        <ele>2040</ele>
        <time>2022-03-06T12:17:23Z</time>
      </trkpt>
      <trkpt lat="45.34461" lon="5.87407">
        <ele>2040</ele>
        <time>2022-03-06T12:17:27Z</time>
      </trkpt>
      <trkpt lat="45.34461" lon="5.87407">
        <ele>2040</ele>
        <time>2022-03-06T12:17:31Z</time>
      </trkpt>
      <trkpt lat="45.34461" lon="5.87407">
        <ele>2040</ele>
        <time>2022-03-06T12:17:35Z</time>
      </trkpt>
      <trkpt lat="45.34461" lon="5.87407">
        <ele>2038</ele>
        <time>2022-03-06T12:17:39Z</time>
      </trkpt>
      <trkpt lat="45.34461" lon="5.87407">
        <ele>2040</ele>
        <time>2022-03-06T12:17:43Z</time>
      </trkpt>
      <trkpt lat="45.34461" lon="5.87407">
        <ele>2040</ele>
        <time>2022-03-06T12:17:47Z</time>
      </trkpt>
      <trkpt lat="45.34461" lon="5.87407">
        <ele>2040</ele>
        <time>2022-03-06T12:17:51Z</time>
      </trkpt>
      <trkpt lat="45.34461" lon="5.87407">
        <ele>2040</ele>
        <time>2022-03-06T12:17:55Z</time>
      </trkpt>
      <trkpt lat="45.34461" lon="5.87407">
        <ele>2040</ele>
        <time>2022-03-06T12:17:59Z</time>
      </trkpt>
      <trkpt lat="45.34461" lon="5.87407">
        <ele>2040</ele>
        <time>2022-03-06T12:18:03Z</time>
      </trkpt>
      <trkpt lat="45.34461" lon="5.87407">
        <ele>2040</ele>
        <time>2022-03-06T12:18:07Z</time>
      </trkpt>
      <trkpt lat="45.34461" lon="5.87407">
        <ele>2040</ele>
        <time>2022-03-06T12:18:11Z</time>
      </trkpt>
      <trkpt lat="45.34461" lon="5.87407">
        <ele>2040</ele>
        <time>2022-03-06T12:18:15Z</time>
      </trkpt>
      <trkpt lat="45.34461" lon="5.87407">
        <ele>2040</ele>
        <time>2022-03-06T12:18:19Z</time>
      </trkpt>
      <trkpt lat="45.34461" lon="5.87407">
        <ele>2041</ele>
        <time>2022-03-06T12:18:23Z</time>
      </trkpt>
      <trkpt lat="45.34461" lon="5.87407">
        <ele>2040</ele>
        <time>2022-03-06T12:18:27Z</time>
      </trkpt>
      <trkpt lat="45.34461" lon="5.87407">
        <ele>2041</ele>
        <time>2022-03-06T12:18:31Z</time>
      </trkpt>
      <trkpt lat="45.34461" lon="5.87407">
        <ele>2040</ele>
        <time>2022-03-06T12:18:35Z</time>
      </trkpt>
      <trkpt lat="45.34461" lon="5.87407">
        <ele>2040</ele>
        <time>2022-03-06T12:18:39Z</time>
      </trkpt>
      <trkpt lat="45.34461" lon="5.87407">
        <ele>2040</ele>
        <time>2022-03-06T12:18:44Z</time>
      </trkpt>
      <trkpt lat="45.34461" lon="5.87407">
        <ele>2041</ele>
        <time>2022-03-06T12:18:48Z</time>
      </trkpt>
      <trkpt lat="45.34461" lon="5.87407">
        <ele>2040</ele>
        <time>2022-03-06T12:18:52Z</time>
      </trkpt>
      <trkpt lat="45.34461" lon="5.87407">
        <ele>2040</ele>
        <time>2022-03-06T12:18:56Z</time>
      </trkpt>
      <trkpt lat="45.34461" lon="5.87407">
        <ele>2040</ele>
        <time>2022-03-06T12:19:00Z</time>
      </trkpt>
      <trkpt lat="45.34461" lon="5.87407">
        <ele>2040</ele>
        <time>2022-03-06T12:19:04Z</time>
      </trkpt>
      <trkpt lat="45.34461" lon="5.87407">
        <ele>2040</ele>
        <time>2022-03-06T12:19:08Z</time>
      </trkpt>
      <trkpt lat="45.34461" lon="5.87407">
        <ele>2040</ele>
        <time>2022-03-06T12:19:12Z</time>
      </trkpt>
      <trkpt lat="45.34461" lon="5.87407">
        <ele>2040</ele>
        <time>2022-03-06T12:19:16Z</time>
      </trkpt>
      <trkpt lat="45.34461" lon="5.87407">
        <ele>2040</ele>
        <time>2022-03-06T12:19:21Z</time>
      </trkpt>
      <trkpt lat="45.34461" lon="5.87407">
        <ele>2041</ele>
        <time>2022-03-06T12:19:25Z</time>
      </trkpt>
      <trkpt lat="45.34461" lon="5.87407">
        <ele>2040</ele>
        <time>2022-03-06T12:19:29Z</time>
      </trkpt>
      <trkpt lat="45.34461" lon="5.87407">
        <ele>2040</ele>
        <time>2022-03-06T12:19:33Z</time>
      </trkpt>
      <trkpt lat="45.34461" lon="5.87407">
        <ele>2040</ele>
        <time>2022-03-06T12:19:37Z</time>
      </trkpt>
      <trkpt lat="45.34461" lon="5.87407">
        <ele>2040</ele>
        <time>2022-03-06T12:19:41Z</time>
      </trkpt>
      <trkpt lat="45.34461" lon="5.87407">
        <ele>2040</ele>
        <time>2022-03-06T12:19:45Z</time>
      </trkpt>
      <trkpt lat="45.34461" lon="5.87407">
        <ele>2041</ele>
        <time>2022-03-06T12:19:49Z</time>
      </trkpt>
      <trkpt lat="45.34461" lon="5.87407">
        <ele>2040</ele>
        <time>2022-03-06T12:19:53Z</time>
      </trkpt>
      <trkpt lat="45.34461" lon="5.87407">
        <ele>2041</ele>
        <time>2022-03-06T12:19:57Z</time>
      </trkpt>
      <trkpt lat="45.34461" lon="5.87407">
        <ele>2041</ele>
        <time>2022-03-06T12:20:01Z</time>
      </trkpt>
      <trkpt lat="45.34461" lon="5.87407">
        <ele>2041</ele>
        <time>2022-03-06T12:20:05Z</time>
      </trkpt>
      <trkpt lat="45.34459" lon="5.87404">
        <ele>2041</ele>
        <time>2022-03-06T12:20:06Z</time>
      </trkpt>
      <trkpt lat="45.34459" lon="5.87404">
        <ele>2040</ele>
        <time>2022-03-06T12:20:10Z</time>
      </trkpt>
      <trkpt lat="45.34459" lon="5.87404">
        <ele>2041</ele>
        <time>2022-03-06T12:20:14Z</time>
      </trkpt>
      <trkpt lat="45.34459" lon="5.87404">
        <ele>2041</ele>
        <time>2022-03-06T12:20:18Z</time>
      </trkpt>
      <trkpt lat="45.34459" lon="5.87404">
        <ele>2041</ele>
        <time>2022-03-06T12:20:22Z</time>
      </trkpt>
      <trkpt lat="45.34459" lon="5.87404">
        <ele>2041</ele>
        <time>2022-03-06T12:20:26Z</time>
      </trkpt>
      <trkpt lat="45.34459" lon="5.87404">
        <ele>2041</ele>
        <time>2022-03-06T12:20:30Z</time>
      </trkpt>
      <trkpt lat="45.34459" lon="5.87404">
        <ele>2041</ele>
        <time>2022-03-06T12:20:34Z</time>
      </trkpt>
      <trkpt lat="45.34459" lon="5.87404">
        <ele>2041</ele>
        <time>2022-03-06T12:20:38Z</time>
      </trkpt>
      <trkpt lat="45.34459" lon="5.87404">
        <ele>2042</ele>
        <time>2022-03-06T12:20:42Z</time>
      </trkpt>
      <trkpt lat="45.34459" lon="5.87404">
        <ele>2042</ele>
        <time>2022-03-06T12:20:46Z</time>
      </trkpt>
      <trkpt lat="45.34459" lon="5.87404">
        <ele>2041</ele>
        <time>2022-03-06T12:20:50Z</time>
      </trkpt>
      <trkpt lat="45.34459" lon="5.87404">
        <ele>2042</ele>
        <time>2022-03-06T12:20:54Z</time>
      </trkpt>
      <trkpt lat="45.34459" lon="5.87404">
        <ele>2042</ele>
        <time>2022-03-06T12:20:58Z</time>
      </trkpt>
      <trkpt lat="45.34459" lon="5.87404">
        <ele>2042</ele>
        <time>2022-03-06T12:21:02Z</time>
      </trkpt>
      <trkpt lat="45.34459" lon="5.87404">
        <ele>2042</ele>
        <time>2022-03-06T12:21:06Z</time>
      </trkpt>
      <trkpt lat="45.34459" lon="5.87404">
        <ele>2042</ele>
        <time>2022-03-06T12:21:10Z</time>
      </trkpt>
      <trkpt lat="45.34459" lon="5.87404">
        <ele>2042</ele>
        <time>2022-03-06T12:21:14Z</time>
      </trkpt>
      <trkpt lat="45.34459" lon="5.87404">
        <ele>2042</ele>
        <time>2022-03-06T12:21:18Z</time>
      </trkpt>
      <trkpt lat="45.34459" lon="5.87404">
        <ele>2042</ele>
        <time>2022-03-06T12:21:22Z</time>
      </trkpt>
      <trkpt lat="45.34459" lon="5.87404">
        <ele>2042</ele>
        <time>2022-03-06T12:21:26Z</time>
      </trkpt>
      <trkpt lat="45.34459" lon="5.87404">
        <ele>2042</ele>
        <time>2022-03-06T12:21:30Z</time>
      </trkpt>
      <trkpt lat="45.34459" lon="5.87404">
        <ele>2042</ele>
        <time>2022-03-06T12:21:34Z</time>
      </trkpt>
      <trkpt lat="45.34459" lon="5.87404">
        <ele>2042</ele>
        <time>2022-03-06T12:21:38Z</time>
      </trkpt>
      <trkpt lat="45.34459" lon="5.87404">
        <ele>2042</ele>
        <time>2022-03-06T12:21:42Z</time>
      </trkpt>
      <trkpt lat="45.34459" lon="5.87404">
        <ele>2041</ele>
        <time>2022-03-06T12:21:46Z</time>
      </trkpt>
      <trkpt lat="45.34459" lon="5.87404">
        <ele>2041</ele>
        <time>2022-03-06T12:21:50Z</time>
      </trkpt>
      <trkpt lat="45.34461" lon="5.87406">
        <ele>2042</ele>
        <time>2022-03-06T12:21:53Z</time>
      </trkpt>
      <trkpt lat="45.34461" lon="5.87406">
        <ele>2042</ele>
        <time>2022-03-06T12:21:55Z</time>
      </trkpt>
      <trkpt lat="45.34461" lon="5.87406">
        <ele>2042</ele>
        <time>2022-03-06T12:21:59Z</time>
      </trkpt>
      <trkpt lat="45.34461" lon="5.87406">
        <ele>2042</ele>
        <time>2022-03-06T12:22:03Z</time>
      </trkpt>
      <trkpt lat="45.34461" lon="5.87406">
        <ele>2042</ele>
        <time>2022-03-06T12:22:07Z</time>
      </trkpt>
      <trkpt lat="45.34461" lon="5.87406">
        <ele>2042</ele>
        <time>2022-03-06T12:22:11Z</time>
      </trkpt>
      <trkpt lat="45.34463" lon="5.87408">
        <ele>2042</ele>
        <time>2022-03-06T12:22:12Z</time>
      </trkpt>
      <trkpt lat="45.34463" lon="5.87408">
        <ele>2043</ele>
        <time>2022-03-06T12:22:16Z</time>
      </trkpt>
      <trkpt lat="45.34463" lon="5.87408">
        <ele>2043</ele>
        <time>2022-03-06T12:22:20Z</time>
      </trkpt>
      <trkpt lat="45.34465" lon="5.87408">
        <ele>2043</ele>
        <time>2022-03-06T12:22:21Z</time>
      </trkpt>
      <trkpt lat="45.34465" lon="5.87408">
        <ele>2045</ele>
        <time>2022-03-06T12:22:25Z</time>
      </trkpt>
      <trkpt lat="45.34466" lon="5.87406">
        <ele>2045</ele>
        <time>2022-03-06T12:22:27Z</time>
      </trkpt>
      <trkpt lat="45.34466" lon="5.87406">
        <ele>2046</ele>
        <time>2022-03-06T12:22:30Z</time>
      </trkpt>
      <trkpt lat="45.34468" lon="5.87405">
        <ele>2047</ele>
        <time>2022-03-06T12:22:33Z</time>
      </trkpt>
      <trkpt lat="45.34468" lon="5.87405">
        <ele>2047</ele>
        <time>2022-03-06T12:22:35Z</time>
      </trkpt>
      <trkpt lat="45.34468" lon="5.87405">
        <ele>2049</ele>
        <time>2022-03-06T12:22:39Z</time>
      </trkpt>
      <trkpt lat="45.34469" lon="5.87403">
        <ele>2049</ele>
        <time>2022-03-06T12:22:41Z</time>
      </trkpt>
      <trkpt lat="45.34469" lon="5.87403">
        <ele>2049</ele>
        <time>2022-03-06T12:22:44Z</time>
      </trkpt>
      <trkpt lat="45.34471" lon="5.87402">
        <ele>2050</ele>
        <time>2022-03-06T12:22:48Z</time>
      </trkpt>
      <trkpt lat="45.34471" lon="5.87402">
        <ele>2050</ele>
        <time>2022-03-06T12:22:49Z</time>
      </trkpt>
      <trkpt lat="45.34471" lon="5.87402">
        <ele>2051</ele>
        <time>2022-03-06T12:22:53Z</time>
      </trkpt>
      <trkpt lat="45.34472" lon="5.87401">
        <ele>2051</ele>
        <time>2022-03-06T12:22:55Z</time>
      </trkpt>
      <trkpt lat="45.34472" lon="5.87401">
        <ele>2052</ele>
        <time>2022-03-06T12:22:58Z</time>
      </trkpt>
      <trkpt lat="45.34474" lon="5.87402">
        <ele>2052</ele>
        <time>2022-03-06T12:23:01Z</time>
      </trkpt>
      <trkpt lat="45.34474" lon="5.87402">
        <ele>2052</ele>
        <time>2022-03-06T12:23:03Z</time>
      </trkpt>
      <trkpt lat="45.34474" lon="5.87402">
        <ele>2053</ele>
        <time>2022-03-06T12:23:07Z</time>
      </trkpt>
      <trkpt lat="45.34476" lon="5.87402">
        <ele>2053</ele>
        <time>2022-03-06T12:23:09Z</time>
      </trkpt>
      <trkpt lat="45.34476" lon="5.87402">
        <ele>2053</ele>
        <time>2022-03-06T12:23:12Z</time>
      </trkpt>
      <trkpt lat="45.34476" lon="5.87402">
        <ele>2055</ele>
        <time>2022-03-06T12:23:16Z</time>
      </trkpt>
      <trkpt lat="45.34478" lon="5.87402">
        <ele>2055</ele>
        <time>2022-03-06T12:23:17Z</time>
      </trkpt>
      <trkpt lat="45.3448" lon="5.87402">
        <ele>2055</ele>
        <time>2022-03-06T12:23:21Z</time>
      </trkpt>
      <trkpt lat="45.3448" lon="5.87402">
        <ele>2056</ele>
        <time>2022-03-06T12:23:22Z</time>
      </trkpt>
      <trkpt lat="45.3448" lon="5.87402">
        <ele>2056</ele>
        <time>2022-03-06T12:23:26Z</time>
      </trkpt>
      <trkpt lat="45.34482" lon="5.87401">
        <ele>2056</ele>
        <time>2022-03-06T12:23:29Z</time>
      </trkpt>
      <trkpt lat="45.34482" lon="5.87401">
        <ele>2056</ele>
        <time>2022-03-06T12:23:31Z</time>
      </trkpt>
      <trkpt lat="45.34483" lon="5.87399">
        <ele>2056</ele>
        <time>2022-03-06T12:23:33Z</time>
      </trkpt>
      <trkpt lat="45.34483" lon="5.87399">
        <ele>2057</ele>
        <time>2022-03-06T12:23:36Z</time>
      </trkpt>
      <trkpt lat="45.34485" lon="5.87399">
        <ele>2058</ele>
        <time>2022-03-06T12:23:40Z</time>
      </trkpt>
      <trkpt lat="45.34485" lon="5.87399">
        <ele>2058</ele>
        <time>2022-03-06T12:23:41Z</time>
      </trkpt>
      <trkpt lat="45.34487" lon="5.87398">
        <ele>2059</ele>
        <time>2022-03-06T12:23:45Z</time>
      </trkpt>
      <trkpt lat="45.34487" lon="5.87398">
        <ele>2059</ele>
        <time>2022-03-06T12:23:46Z</time>
      </trkpt>
      <trkpt lat="45.34489" lon="5.87397">
        <ele>2060</ele>
        <time>2022-03-06T12:23:49Z</time>
      </trkpt>
      <trkpt lat="45.34489" lon="5.87397">
        <ele>2060</ele>
        <time>2022-03-06T12:23:51Z</time>
      </trkpt>
      <trkpt lat="45.34489" lon="5.87397">
        <ele>2061</ele>
        <time>2022-03-06T12:23:55Z</time>
      </trkpt>
      <trkpt lat="45.34491" lon="5.87397">
        <ele>2061</ele>
        <time>2022-03-06T12:23:57Z</time>
      </trkpt>
      <trkpt lat="45.34491" lon="5.87397">
        <ele>2061</ele>
        <time>2022-03-06T12:24:00Z</time>
      </trkpt>
      <trkpt lat="45.34493" lon="5.87396">
        <ele>2061</ele>
        <time>2022-03-06T12:24:01Z</time>
      </trkpt>
      <trkpt lat="45.34495" lon="5.87395">
        <ele>2061</ele>
        <time>2022-03-06T12:24:04Z</time>
      </trkpt>
      <trkpt lat="45.34495" lon="5.87395">
        <ele>2063</ele>
        <time>2022-03-06T12:24:06Z</time>
      </trkpt>
      <trkpt lat="45.34497" lon="5.87395">
        <ele>2063</ele>
        <time>2022-03-06T12:24:07Z</time>
      </trkpt>
      <trkpt lat="45.345" lon="5.87395">
        <ele>2062</ele>
        <time>2022-03-06T12:24:10Z</time>
      </trkpt>
      <trkpt lat="45.345" lon="5.87395">
        <ele>2062</ele>
        <time>2022-03-06T12:24:12Z</time>
      </trkpt>
      <trkpt lat="45.34502" lon="5.87396">
        <ele>2062</ele>
        <time>2022-03-06T12:24:13Z</time>
      </trkpt>
      <trkpt lat="45.34504" lon="5.87396">
        <ele>2061</ele>
        <time>2022-03-06T12:24:15Z</time>
      </trkpt>
      <trkpt lat="45.34507" lon="5.87397">
        <ele>2061</ele>
        <time>2022-03-06T12:24:18Z</time>
      </trkpt>
      <trkpt lat="45.34507" lon="5.87397">
        <ele>2060</ele>
        <time>2022-03-06T12:24:19Z</time>
      </trkpt>
      <trkpt lat="45.34509" lon="5.87397">
        <ele>2060</ele>
        <time>2022-03-06T12:24:21Z</time>
      </trkpt>
      <trkpt lat="45.34509" lon="5.87397">
        <ele>2060</ele>
        <time>2022-03-06T12:24:24Z</time>
      </trkpt>
      <trkpt lat="45.34511" lon="5.87397">
        <ele>2060</ele>
        <time>2022-03-06T12:24:26Z</time>
      </trkpt>
      <trkpt lat="45.34513" lon="5.87396">
        <ele>2061</ele>
        <time>2022-03-06T12:24:29Z</time>
      </trkpt>
      <trkpt lat="45.34513" lon="5.87396">
        <ele>2061</ele>
        <time>2022-03-06T12:24:30Z</time>
      </trkpt>
      <trkpt lat="45.34515" lon="5.87396">
        <ele>2062</ele>
        <time>2022-03-06T12:24:32Z</time>
      </trkpt>
      <trkpt lat="45.34517" lon="5.87395">
        <ele>2062</ele>
        <time>2022-03-06T12:24:35Z</time>
      </trkpt>
      <trkpt lat="45.34517" lon="5.87395">
        <ele>2064</ele>
        <time>2022-03-06T12:24:36Z</time>
      </trkpt>
      <trkpt lat="45.34517" lon="5.87395">
        <ele>2064</ele>
        <time>2022-03-06T12:24:40Z</time>
      </trkpt>
      <trkpt lat="45.34517" lon="5.87395">
        <ele>2063</ele>
        <time>2022-03-06T12:24:44Z</time>
      </trkpt>
      <trkpt lat="45.34517" lon="5.87395">
        <ele>2063</ele>
        <time>2022-03-06T12:24:48Z</time>
      </trkpt>
      <trkpt lat="45.34519" lon="5.87395">
        <ele>2064</ele>
        <time>2022-03-06T12:24:52Z</time>
      </trkpt>
      <trkpt lat="45.34519" lon="5.87395">
        <ele>2064</ele>
        <time>2022-03-06T12:24:53Z</time>
      </trkpt>
      <trkpt lat="45.34521" lon="5.87396">
        <ele>2066</ele>
        <time>2022-03-06T12:24:56Z</time>
      </trkpt>
      <trkpt lat="45.34521" lon="5.87396">
        <ele>2066</ele>
        <time>2022-03-06T12:24:58Z</time>
      </trkpt>
      <trkpt lat="45.34523" lon="5.87396">
        <ele>2066</ele>
        <time>2022-03-06T12:24:59Z</time>
      </trkpt>
      <trkpt lat="45.34525" lon="5.87396">
        <ele>2066</ele>
        <time>2022-03-06T12:25:02Z</time>
      </trkpt>
      <trkpt lat="45.34525" lon="5.87396">
        <ele>2066</ele>
        <time>2022-03-06T12:25:04Z</time>
      </trkpt>
      <trkpt lat="45.34527" lon="5.87396">
        <ele>2066</ele>
        <time>2022-03-06T12:25:06Z</time>
      </trkpt>
      <trkpt lat="45.34527" lon="5.87396">
        <ele>2066</ele>
        <time>2022-03-06T12:25:09Z</time>
      </trkpt>
      <trkpt lat="45.34529" lon="5.87397">
        <ele>2066</ele>
        <time>2022-03-06T12:25:10Z</time>
      </trkpt>
      <trkpt lat="45.34531" lon="5.87397">
        <ele>2067</ele>
        <time>2022-03-06T12:25:14Z</time>
      </trkpt>
      <trkpt lat="45.34531" lon="5.87397">
        <ele>2068</ele>
        <time>2022-03-06T12:25:15Z</time>
      </trkpt>
      <trkpt lat="45.34531" lon="5.87397">
        <ele>2068</ele>
        <time>2022-03-06T12:25:19Z</time>
      </trkpt>
      <trkpt lat="45.34532" lon="5.87397">
        <ele>2068</ele>
        <time>2022-03-06T12:25:20Z</time>
      </trkpt>
      <trkpt lat="45.34535" lon="5.87397">
        <ele>2068</ele>
        <time>2022-03-06T12:25:23Z</time>
      </trkpt>
      <trkpt lat="45.34535" lon="5.87397">
        <ele>2068</ele>
        <time>2022-03-06T12:25:25Z</time>
      </trkpt>
      <trkpt lat="45.34537" lon="5.87396">
        <ele>2069</ele>
        <time>2022-03-06T12:25:26Z</time>
      </trkpt>
      <trkpt lat="45.34538" lon="5.87395">
        <ele>2070</ele>
        <time>2022-03-06T12:25:30Z</time>
      </trkpt>
      <trkpt lat="45.34538" lon="5.87395">
        <ele>2070</ele>
        <time>2022-03-06T12:25:31Z</time>
      </trkpt>
      <trkpt lat="45.3454" lon="5.87393">
        <ele>2070</ele>
        <time>2022-03-06T12:25:32Z</time>
      </trkpt>
      <trkpt lat="45.34542" lon="5.87391">
        <ele>2070</ele>
        <time>2022-03-06T12:25:35Z</time>
      </trkpt>
      <trkpt lat="45.34542" lon="5.87391">
        <ele>2070</ele>
        <time>2022-03-06T12:25:37Z</time>
      </trkpt>
      <trkpt lat="45.34544" lon="5.87389">
        <ele>2070</ele>
        <time>2022-03-06T12:25:38Z</time>
      </trkpt>
      <trkpt lat="45.34545" lon="5.87387">
        <ele>2070</ele>
        <time>2022-03-06T12:25:41Z</time>
      </trkpt>
      <trkpt lat="45.34546" lon="5.87383">
        <ele>2068</ele>
        <time>2022-03-06T12:25:44Z</time>
      </trkpt>
      <trkpt lat="45.34546" lon="5.87383">
        <ele>2068</ele>
        <time>2022-03-06T12:25:45Z</time>
      </trkpt>
      <trkpt lat="45.34548" lon="5.8738">
        <ele>2068</ele>
        <time>2022-03-06T12:25:47Z</time>
      </trkpt>
      <trkpt lat="45.34549" lon="5.87376">
        <ele>2068</ele>
        <time>2022-03-06T12:25:50Z</time>
      </trkpt>
      <trkpt lat="45.34549" lon="5.87376">
        <ele>2067</ele>
        <time>2022-03-06T12:25:51Z</time>
      </trkpt>
      <trkpt lat="45.34551" lon="5.87374">
        <ele>2067</ele>
        <time>2022-03-06T12:25:53Z</time>
      </trkpt>
      <trkpt lat="45.34553" lon="5.87374">
        <ele>2067</ele>
        <time>2022-03-06T12:25:56Z</time>
      </trkpt>
      <trkpt lat="45.34553" lon="5.87374">
        <ele>2067</ele>
        <time>2022-03-06T12:25:57Z</time>
      </trkpt>
      <trkpt lat="45.34555" lon="5.87374">
        <ele>2067</ele>
        <time>2022-03-06T12:25:59Z</time>
      </trkpt>
      <trkpt lat="45.34558" lon="5.87376">
        <ele>2066</ele>
        <time>2022-03-06T12:26:02Z</time>
      </trkpt>
      <trkpt lat="45.34558" lon="5.87376">
        <ele>2066</ele>
        <time>2022-03-06T12:26:03Z</time>
      </trkpt>
      <trkpt lat="45.3456" lon="5.87377">
        <ele>2066</ele>
        <time>2022-03-06T12:26:04Z</time>
      </trkpt>
      <trkpt lat="45.3456" lon="5.87377">
        <ele>2066</ele>
        <time>2022-03-06T12:26:08Z</time>
      </trkpt>
      <trkpt lat="45.3456" lon="5.87377">
        <ele>2066</ele>
        <time>2022-03-06T12:26:12Z</time>
      </trkpt>
      <trkpt lat="45.3456" lon="5.87377">
        <ele>2066</ele>
        <time>2022-03-06T12:26:16Z</time>
      </trkpt>
      <trkpt lat="45.3456" lon="5.87377">
        <ele>2066</ele>
        <time>2022-03-06T12:26:20Z</time>
      </trkpt>
      <trkpt lat="45.3456" lon="5.87377">
        <ele>2066</ele>
        <time>2022-03-06T12:26:24Z</time>
      </trkpt>
      <trkpt lat="45.3456" lon="5.87377">
        <ele>2066</ele>
        <time>2022-03-06T12:26:28Z</time>
      </trkpt>
      <trkpt lat="45.3456" lon="5.87377">
        <ele>2066</ele>
        <time>2022-03-06T12:26:32Z</time>
      </trkpt>
      <trkpt lat="45.3456" lon="5.87377">
        <ele>2066</ele>
        <time>2022-03-06T12:26:36Z</time>
      </trkpt>
      <trkpt lat="45.3456" lon="5.87377">
        <ele>2066</ele>
        <time>2022-03-06T12:26:40Z</time>
      </trkpt>
      <trkpt lat="45.34561" lon="5.87378">
        <ele>2066</ele>
        <time>2022-03-06T12:26:44Z</time>
      </trkpt>
      <trkpt lat="45.34561" lon="5.87378">
        <ele>2064</ele>
        <time>2022-03-06T12:26:45Z</time>
      </trkpt>
      <trkpt lat="45.34564" lon="5.87379">
        <ele>2063</ele>
        <time>2022-03-06T12:26:47Z</time>
      </trkpt>
      <trkpt lat="45.34566" lon="5.87378">
        <ele>2064</ele>
        <time>2022-03-06T12:26:50Z</time>
      </trkpt>
      <trkpt lat="45.34566" lon="5.87378">
        <ele>2064</ele>
        <time>2022-03-06T12:26:51Z</time>
      </trkpt>
      <trkpt lat="45.34569" lon="5.87378">
        <ele>2064</ele>
        <time>2022-03-06T12:26:52Z</time>
      </trkpt>
      <trkpt lat="45.34571" lon="5.87377">
        <ele>2063</ele>
        <time>2022-03-06T12:26:55Z</time>
      </trkpt>
      <trkpt lat="45.34571" lon="5.87377">
        <ele>2063</ele>
        <time>2022-03-06T12:26:57Z</time>
      </trkpt>
      <trkpt lat="45.34574" lon="5.87376">
        <ele>2063</ele>
        <time>2022-03-06T12:26:58Z</time>
      </trkpt>
      <trkpt lat="45.34576" lon="5.87374">
        <ele>2063</ele>
        <time>2022-03-06T12:27:01Z</time>
      </trkpt>
      <trkpt lat="45.34578" lon="5.87373">
        <ele>2063</ele>
        <time>2022-03-06T12:27:03Z</time>
      </trkpt>
      <trkpt lat="45.34581" lon="5.87372">
        <ele>2063</ele>
        <time>2022-03-06T12:27:06Z</time>
      </trkpt>
      <trkpt lat="45.34581" lon="5.87372">
        <ele>2064</ele>
        <time>2022-03-06T12:27:07Z</time>
      </trkpt>
      <trkpt lat="45.34583" lon="5.87372">
        <ele>2064</ele>
        <time>2022-03-06T12:27:09Z</time>
      </trkpt>
      <trkpt lat="45.34585" lon="5.87372">
        <ele>2064</ele>
        <time>2022-03-06T12:27:12Z</time>
      </trkpt>
      <trkpt lat="45.34585" lon="5.87372">
        <ele>2064</ele>
        <time>2022-03-06T12:27:13Z</time>
      </trkpt>
      <trkpt lat="45.34587" lon="5.87371">
        <ele>2064</ele>
        <time>2022-03-06T12:27:15Z</time>
      </trkpt>
      <trkpt lat="45.34589" lon="5.8737">
        <ele>2064</ele>
        <time>2022-03-06T12:27:17Z</time>
      </trkpt>
      <trkpt lat="45.34589" lon="5.8737">
        <ele>2063</ele>
        <time>2022-03-06T12:27:19Z</time>
      </trkpt>
      <trkpt lat="45.34591" lon="5.87369">
        <ele>2063</ele>
        <time>2022-03-06T12:27:20Z</time>
      </trkpt>
      <trkpt lat="45.34594" lon="5.87368">
        <ele>2064</ele>
        <time>2022-03-06T12:27:23Z</time>
      </trkpt>
      <trkpt lat="45.34595" lon="5.87368">
        <ele>2063</ele>
        <time>2022-03-06T12:27:25Z</time>
      </trkpt>
      <trkpt lat="45.34598" lon="5.87367">
        <ele>2063</ele>
        <time>2022-03-06T12:27:28Z</time>
      </trkpt>
      <trkpt lat="45.34598" lon="5.87367">
        <ele>2063</ele>
        <time>2022-03-06T12:27:29Z</time>
      </trkpt>
      <trkpt lat="45.346" lon="5.87366">
        <ele>2063</ele>
        <time>2022-03-06T12:27:31Z</time>
      </trkpt>
      <trkpt lat="45.346" lon="5.87366">
        <ele>2064</ele>
        <time>2022-03-06T12:27:34Z</time>
      </trkpt>
      <trkpt lat="45.34602" lon="5.87365">
        <ele>2064</ele>
        <time>2022-03-06T12:27:35Z</time>
      </trkpt>
      <trkpt lat="45.34604" lon="5.87363">
        <ele>2066</ele>
        <time>2022-03-06T12:27:38Z</time>
      </trkpt>
      <trkpt lat="45.34604" lon="5.87363">
        <ele>2066</ele>
        <time>2022-03-06T12:27:40Z</time>
      </trkpt>
      <trkpt lat="45.34605" lon="5.87361">
        <ele>2066</ele>
        <time>2022-03-06T12:27:41Z</time>
      </trkpt>
      <trkpt lat="45.34607" lon="5.87359">
        <ele>2066</ele>
        <time>2022-03-06T12:27:44Z</time>
      </trkpt>
      <trkpt lat="45.34607" lon="5.87359">
        <ele>2066</ele>
        <time>2022-03-06T12:27:46Z</time>
      </trkpt>
      <trkpt lat="45.34609" lon="5.87357">
        <ele>2066</ele>
        <time>2022-03-06T12:27:47Z</time>
      </trkpt>
      <trkpt lat="45.3461" lon="5.87353">
        <ele>2066</ele>
        <time>2022-03-06T12:27:50Z</time>
      </trkpt>
      <trkpt lat="45.3461" lon="5.87353">
        <ele>2066</ele>
        <time>2022-03-06T12:27:52Z</time>
      </trkpt>
      <trkpt lat="45.34611" lon="5.87351">
        <ele>2066</ele>
        <time>2022-03-06T12:27:53Z</time>
      </trkpt>
      <trkpt lat="45.34612" lon="5.87348">
        <ele>2067</ele>
        <time>2022-03-06T12:27:56Z</time>
      </trkpt>
      <trkpt lat="45.34612" lon="5.87348">
        <ele>2067</ele>
        <time>2022-03-06T12:27:58Z</time>
      </trkpt>
      <trkpt lat="45.34612" lon="5.87346">
        <ele>2067</ele>
        <time>2022-03-06T12:27:59Z</time>
      </trkpt>
      <trkpt lat="45.34613" lon="5.87343">
        <ele>2068</ele>
        <time>2022-03-06T12:28:03Z</time>
      </trkpt>
      <trkpt lat="45.34613" lon="5.87343">
        <ele>2069</ele>
        <time>2022-03-06T12:28:04Z</time>
      </trkpt>
      <trkpt lat="45.34614" lon="5.8734">
        <ele>2069</ele>
        <time>2022-03-06T12:28:08Z</time>
      </trkpt>
      <trkpt lat="45.34614" lon="5.8734">
        <ele>2070</ele>
        <time>2022-03-06T12:28:09Z</time>
      </trkpt>
      <trkpt lat="45.34615" lon="5.87338">
        <ele>2071</ele>
        <time>2022-03-06T12:28:13Z</time>
      </trkpt>
      <trkpt lat="45.34615" lon="5.87338">
        <ele>2071</ele>
        <time>2022-03-06T12:28:14Z</time>
      </trkpt>
      <trkpt lat="45.34617" lon="5.87339">
        <ele>2072</ele>
        <time>2022-03-06T12:28:18Z</time>
      </trkpt>
      <trkpt lat="45.34617" lon="5.87339">
        <ele>2072</ele>
        <time>2022-03-06T12:28:19Z</time>
      </trkpt>
      <trkpt lat="45.34619" lon="5.87339">
        <ele>2072</ele>
        <time>2022-03-06T12:28:23Z</time>
      </trkpt>
      <trkpt lat="45.34619" lon="5.87339">
        <ele>2072</ele>
        <time>2022-03-06T12:28:24Z</time>
      </trkpt>
      <trkpt lat="45.34619" lon="5.87339">
        <ele>2073</ele>
        <time>2022-03-06T12:28:28Z</time>
      </trkpt>
      <trkpt lat="45.3462" lon="5.87337">
        <ele>2073</ele>
        <time>2022-03-06T12:28:30Z</time>
      </trkpt>
      <trkpt lat="45.3462" lon="5.87337">
        <ele>2074</ele>
        <time>2022-03-06T12:28:33Z</time>
      </trkpt>
      <trkpt lat="45.3462" lon="5.87337">
        <ele>2074</ele>
        <time>2022-03-06T12:28:37Z</time>
      </trkpt>
      <trkpt lat="45.34621" lon="5.87335">
        <ele>2075</ele>
        <time>2022-03-06T12:28:39Z</time>
      </trkpt>
      <trkpt lat="45.34621" lon="5.87335">
        <ele>2076</ele>
        <time>2022-03-06T12:28:42Z</time>
      </trkpt>
      <trkpt lat="45.34621" lon="5.87335">
        <ele>2076</ele>
        <time>2022-03-06T12:28:46Z</time>
      </trkpt>
      <trkpt lat="45.34621" lon="5.87335">
        <ele>2076</ele>
        <time>2022-03-06T12:28:50Z</time>
      </trkpt>
      <trkpt lat="45.34623" lon="5.87332">
        <ele>2076</ele>
        <time>2022-03-06T12:28:51Z</time>
      </trkpt>
      <trkpt lat="45.34623" lon="5.87332">
        <ele>2078</ele>
        <time>2022-03-06T12:28:55Z</time>
      </trkpt>
      <trkpt lat="45.34625" lon="5.87331">
        <ele>2078</ele>
        <time>2022-03-06T12:28:59Z</time>
      </trkpt>
      <trkpt lat="45.34625" lon="5.87331">
        <ele>2078</ele>
        <time>2022-03-06T12:29:00Z</time>
      </trkpt>
      <trkpt lat="45.34625" lon="5.87331">
        <ele>2079</ele>
        <time>2022-03-06T12:29:04Z</time>
      </trkpt>
      <trkpt lat="45.34627" lon="5.87332">
        <ele>2079</ele>
        <time>2022-03-06T12:29:05Z</time>
      </trkpt>
      <trkpt lat="45.34627" lon="5.87332">
        <ele>2079</ele>
        <time>2022-03-06T12:29:09Z</time>
      </trkpt>
      <trkpt lat="45.34628" lon="5.8733">
        <ele>2080</ele>
        <time>2022-03-06T12:29:13Z</time>
      </trkpt>
      <trkpt lat="45.34628" lon="5.8733">
        <ele>2080</ele>
        <time>2022-03-06T12:29:14Z</time>
      </trkpt>
      <trkpt lat="45.34628" lon="5.8733">
        <ele>2081</ele>
        <time>2022-03-06T12:29:18Z</time>
      </trkpt>
      <trkpt lat="45.34629" lon="5.87328">
        <ele>2082</ele>
        <time>2022-03-06T12:29:21Z</time>
      </trkpt>
      <trkpt lat="45.34629" lon="5.87328">
        <ele>2082</ele>
        <time>2022-03-06T12:29:23Z</time>
      </trkpt>
      <trkpt lat="45.34629" lon="5.87328">
        <ele>2082</ele>
        <time>2022-03-06T12:29:27Z</time>
      </trkpt>
      <trkpt lat="45.3463" lon="5.87325">
        <ele>2083</ele>
        <time>2022-03-06T12:29:28Z</time>
      </trkpt>
      <trkpt lat="45.3463" lon="5.87325">
        <ele>2085</ele>
        <time>2022-03-06T12:29:32Z</time>
      </trkpt>
      <trkpt lat="45.3463" lon="5.87325">
        <ele>2085</ele>
        <time>2022-03-06T12:29:36Z</time>
      </trkpt>
      <trkpt lat="45.34632" lon="5.87324">
        <ele>2085</ele>
        <time>2022-03-06T12:29:37Z</time>
      </trkpt>
      <trkpt lat="45.34632" lon="5.87324">
        <ele>2086</ele>
        <time>2022-03-06T12:29:41Z</time>
      </trkpt>
      <trkpt lat="45.34634" lon="5.87322">
        <ele>2087</ele>
        <time>2022-03-06T12:29:43Z</time>
      </trkpt>
      <trkpt lat="45.34634" lon="5.87322">
        <ele>2087</ele>
        <time>2022-03-06T12:29:46Z</time>
      </trkpt>
      <trkpt lat="45.34634" lon="5.87322">
        <ele>2088</ele>
        <time>2022-03-06T12:29:50Z</time>
      </trkpt>
      <trkpt lat="45.34634" lon="5.87322">
        <ele>2089</ele>
        <time>2022-03-06T12:29:54Z</time>
      </trkpt>
      <trkpt lat="45.34636" lon="5.87321">
        <ele>2090</ele>
        <time>2022-03-06T12:29:56Z</time>
      </trkpt>
      <trkpt lat="45.34636" lon="5.87321">
        <ele>2090</ele>
        <time>2022-03-06T12:29:59Z</time>
      </trkpt>
      <trkpt lat="45.34636" lon="5.87321">
        <ele>2092</ele>
        <time>2022-03-06T12:30:03Z</time>
      </trkpt>
      <trkpt lat="45.34636" lon="5.87321">
        <ele>2093</ele>
        <time>2022-03-06T12:30:08Z</time>
      </trkpt>
      <trkpt lat="45.34636" lon="5.87321">
        <ele>2093</ele>
        <time>2022-03-06T12:30:12Z</time>
      </trkpt>
      <trkpt lat="45.34637" lon="5.8732">
        <ele>2093</ele>
        <time>2022-03-06T12:30:14Z</time>
      </trkpt>
      <trkpt lat="45.34637" lon="5.8732">
        <ele>2094</ele>
        <time>2022-03-06T12:30:17Z</time>
      </trkpt>
      <trkpt lat="45.34638" lon="5.87318">
        <ele>2095</ele>
        <time>2022-03-06T12:30:20Z</time>
      </trkpt>
      <trkpt lat="45.34638" lon="5.87318">
        <ele>2095</ele>
        <time>2022-03-06T12:30:22Z</time>
      </trkpt>
      <trkpt lat="45.34638" lon="5.87318">
        <ele>2095</ele>
        <time>2022-03-06T12:30:26Z</time>
      </trkpt>
      <trkpt lat="45.3464" lon="5.87316">
        <ele>2095</ele>
        <time>2022-03-06T12:30:30Z</time>
      </trkpt>
      <trkpt lat="45.3464" lon="5.87316">
        <ele>2096</ele>
        <time>2022-03-06T12:30:31Z</time>
      </trkpt>
      <trkpt lat="45.34641" lon="5.87314">
        <ele>2096</ele>
        <time>2022-03-06T12:30:35Z</time>
      </trkpt>
      <trkpt lat="45.34641" lon="5.87314">
        <ele>2096</ele>
        <time>2022-03-06T12:30:36Z</time>
      </trkpt>
      <trkpt lat="45.3464" lon="5.87311">
        <ele>2097</ele>
        <time>2022-03-06T12:30:40Z</time>
      </trkpt>
      <trkpt lat="45.3464" lon="5.87311">
        <ele>2097</ele>
        <time>2022-03-06T12:30:41Z</time>
      </trkpt>
      <trkpt lat="45.34641" lon="5.87309">
        <ele>2098</ele>
        <time>2022-03-06T12:30:45Z</time>
      </trkpt>
      <trkpt lat="45.34641" lon="5.87309">
        <ele>2098</ele>
        <time>2022-03-06T12:30:46Z</time>
      </trkpt>
      <trkpt lat="45.34641" lon="5.87309">
        <ele>2098</ele>
        <time>2022-03-06T12:30:50Z</time>
      </trkpt>
      <trkpt lat="45.34641" lon="5.87309">
        <ele>2099</ele>
        <time>2022-03-06T12:30:54Z</time>
      </trkpt>
      <trkpt lat="45.34641" lon="5.87309">
        <ele>2099</ele>
        <time>2022-03-06T12:30:58Z</time>
      </trkpt>
      <trkpt lat="45.34643" lon="5.87307">
        <ele>2099</ele>
        <time>2022-03-06T12:30:59Z</time>
      </trkpt>
      <trkpt lat="45.34645" lon="5.87307">
        <ele>2100</ele>
        <time>2022-03-06T12:31:03Z</time>
      </trkpt>
      <trkpt lat="45.34645" lon="5.87307">
        <ele>2100</ele>
        <time>2022-03-06T12:31:04Z</time>
      </trkpt>
      <trkpt lat="45.34647" lon="5.87308">
        <ele>2100</ele>
        <time>2022-03-06T12:31:06Z</time>
      </trkpt>
      <trkpt lat="45.34647" lon="5.87308">
        <ele>2101</ele>
        <time>2022-03-06T12:31:09Z</time>
      </trkpt>
      <trkpt lat="45.34649" lon="5.87309">
        <ele>2101</ele>
        <time>2022-03-06T12:31:10Z</time>
      </trkpt>
      <trkpt lat="45.34651" lon="5.8731">
        <ele>2101</ele>
        <time>2022-03-06T12:31:13Z</time>
      </trkpt>
      <trkpt lat="45.34651" lon="5.8731">
        <ele>2101</ele>
        <time>2022-03-06T12:31:15Z</time>
      </trkpt>
      <trkpt lat="45.34653" lon="5.87311">
        <ele>2101</ele>
        <time>2022-03-06T12:31:17Z</time>
      </trkpt>
      <trkpt lat="45.34655" lon="5.87311">
        <ele>2101</ele>
        <time>2022-03-06T12:31:20Z</time>
      </trkpt>
      <trkpt lat="45.34655" lon="5.87311">
        <ele>2101</ele>
        <time>2022-03-06T12:31:21Z</time>
      </trkpt>
      <trkpt lat="45.34657" lon="5.87312">
        <ele>2100</ele>
        <time>2022-03-06T12:31:23Z</time>
      </trkpt>
      <trkpt lat="45.34657" lon="5.87312">
        <ele>2100</ele>
        <time>2022-03-06T12:31:26Z</time>
      </trkpt>
      <trkpt lat="45.34659" lon="5.87313">
        <ele>2100</ele>
        <time>2022-03-06T12:31:27Z</time>
      </trkpt>
      <trkpt lat="45.34662" lon="5.87313">
        <ele>2100</ele>
        <time>2022-03-06T12:31:29Z</time>
      </trkpt>
      <trkpt lat="45.34662" lon="5.87313">
        <ele>2101</ele>
        <time>2022-03-06T12:31:32Z</time>
      </trkpt>
      <trkpt lat="45.34664" lon="5.87314">
        <ele>2101</ele>
        <time>2022-03-06T12:31:33Z</time>
      </trkpt>
      <trkpt lat="45.34666" lon="5.87315">
        <ele>2102</ele>
        <time>2022-03-06T12:31:36Z</time>
      </trkpt>
      <trkpt lat="45.34666" lon="5.87315">
        <ele>2102</ele>
        <time>2022-03-06T12:31:38Z</time>
      </trkpt>
      <trkpt lat="45.34668" lon="5.87315">
        <ele>2101</ele>
        <time>2022-03-06T12:31:39Z</time>
      </trkpt>
      <trkpt lat="45.3467" lon="5.87316">
        <ele>2101</ele>
        <time>2022-03-06T12:31:42Z</time>
      </trkpt>
      <trkpt lat="45.3467" lon="5.87316">
        <ele>2102</ele>
        <time>2022-03-06T12:31:44Z</time>
      </trkpt>
      <trkpt lat="45.34672" lon="5.87317">
        <ele>2102</ele>
        <time>2022-03-06T12:31:46Z</time>
      </trkpt>
      <trkpt lat="45.34673" lon="5.87318">
        <ele>2101</ele>
        <time>2022-03-06T12:31:49Z</time>
      </trkpt>
      <trkpt lat="45.34673" lon="5.87318">
        <ele>2101</ele>
        <time>2022-03-06T12:31:50Z</time>
      </trkpt>
      <trkpt lat="45.34675" lon="5.87319">
        <ele>2100</ele>
        <time>2022-03-06T12:31:52Z</time>
      </trkpt>
      <trkpt lat="45.34675" lon="5.87319">
        <ele>2100</ele>
        <time>2022-03-06T12:31:55Z</time>
      </trkpt>
      <trkpt lat="45.34677" lon="5.87319">
        <ele>2101</ele>
        <time>2022-03-06T12:31:56Z</time>
      </trkpt>
      <trkpt lat="45.34677" lon="5.87319">
        <ele>2101</ele>
        <time>2022-03-06T12:32:00Z</time>
      </trkpt>
      <trkpt lat="45.34679" lon="5.87319">
        <ele>2102</ele>
        <time>2022-03-06T12:32:03Z</time>
      </trkpt>
      <trkpt lat="45.34679" lon="5.87319">
        <ele>2102</ele>
        <time>2022-03-06T12:32:05Z</time>
      </trkpt>
      <trkpt lat="45.34681" lon="5.87319">
        <ele>2102</ele>
        <time>2022-03-06T12:32:06Z</time>
      </trkpt>
      <trkpt lat="45.34683" lon="5.87319">
        <ele>2103</ele>
        <time>2022-03-06T12:32:09Z</time>
      </trkpt>
      <trkpt lat="45.34683" lon="5.87319">
        <ele>2103</ele>
        <time>2022-03-06T12:32:11Z</time>
      </trkpt>
      <trkpt lat="45.34686" lon="5.87319">
        <ele>2103</ele>
        <time>2022-03-06T12:32:13Z</time>
      </trkpt>
      <trkpt lat="45.34686" lon="5.87319">
        <ele>2103</ele>
        <time>2022-03-06T12:32:16Z</time>
      </trkpt>
      <trkpt lat="45.34687" lon="5.87319">
        <ele>2104</ele>
        <time>2022-03-06T12:32:17Z</time>
      </trkpt>
      <trkpt lat="45.3469" lon="5.87319">
        <ele>2104</ele>
        <time>2022-03-06T12:32:21Z</time>
      </trkpt>
      <trkpt lat="45.3469" lon="5.87319">
        <ele>2104</ele>
        <time>2022-03-06T12:32:22Z</time>
      </trkpt>
      <trkpt lat="45.34691" lon="5.87319">
        <ele>2104</ele>
        <time>2022-03-06T12:32:25Z</time>
      </trkpt>
      <trkpt lat="45.34691" lon="5.87319">
        <ele>2104</ele>
        <time>2022-03-06T12:32:27Z</time>
      </trkpt>
      <trkpt lat="45.34691" lon="5.87319">
        <ele>2104</ele>
        <time>2022-03-06T12:32:31Z</time>
      </trkpt>
      <trkpt lat="45.34691" lon="5.87319">
        <ele>2104</ele>
        <time>2022-03-06T12:32:35Z</time>
      </trkpt>
      <trkpt lat="45.34691" lon="5.87319">
        <ele>2104</ele>
        <time>2022-03-06T12:32:39Z</time>
      </trkpt>
      <trkpt lat="45.34693" lon="5.8732">
        <ele>2103</ele>
        <time>2022-03-06T12:32:41Z</time>
      </trkpt>
      <trkpt lat="45.34693" lon="5.8732">
        <ele>2104</ele>
        <time>2022-03-06T12:32:44Z</time>
      </trkpt>
      <trkpt lat="45.34695" lon="5.8732">
        <ele>2104</ele>
        <time>2022-03-06T12:32:45Z</time>
      </trkpt>
      <trkpt lat="45.34695" lon="5.8732">
        <ele>2104</ele>
        <time>2022-03-06T12:32:49Z</time>
      </trkpt>
      <trkpt lat="45.34695" lon="5.8732">
        <ele>2104</ele>
        <time>2022-03-06T12:32:53Z</time>
      </trkpt>
      <trkpt lat="45.34695" lon="5.8732">
        <ele>2103</ele>
        <time>2022-03-06T12:32:57Z</time>
      </trkpt>
      <trkpt lat="45.34695" lon="5.8732">
        <ele>2103</ele>
        <time>2022-03-06T12:33:01Z</time>
      </trkpt>
      <trkpt lat="45.34695" lon="5.8732">
        <ele>2104</ele>
        <time>2022-03-06T12:33:05Z</time>
      </trkpt>
      <trkpt lat="45.34695" lon="5.8732">
        <ele>2104</ele>
        <time>2022-03-06T12:33:09Z</time>
      </trkpt>
      <trkpt lat="45.34695" lon="5.8732">
        <ele>2104</ele>
        <time>2022-03-06T12:33:13Z</time>
      </trkpt>
      <trkpt lat="45.34695" lon="5.8732">
        <ele>2104</ele>
        <time>2022-03-06T12:33:17Z</time>
      </trkpt>
      <trkpt lat="45.34695" lon="5.8732">
        <ele>2104</ele>
        <time>2022-03-06T12:33:21Z</time>
      </trkpt>
      <trkpt lat="45.34695" lon="5.8732">
        <ele>2104</ele>
        <time>2022-03-06T12:33:25Z</time>
      </trkpt>
      <trkpt lat="45.34695" lon="5.8732">
        <ele>2105</ele>
        <time>2022-03-06T12:33:29Z</time>
      </trkpt>
      <trkpt lat="45.34695" lon="5.8732">
        <ele>2104</ele>
        <time>2022-03-06T12:33:33Z</time>
      </trkpt>
      <trkpt lat="45.34695" lon="5.8732">
        <ele>2104</ele>
        <time>2022-03-06T12:33:37Z</time>
      </trkpt>
      <trkpt lat="45.34695" lon="5.8732">
        <ele>2104</ele>
        <time>2022-03-06T12:33:41Z</time>
      </trkpt>
      <trkpt lat="45.34695" lon="5.8732">
        <ele>2104</ele>
        <time>2022-03-06T12:33:45Z</time>
      </trkpt>
      <trkpt lat="45.34695" lon="5.8732">
        <ele>2104</ele>
        <time>2022-03-06T12:33:49Z</time>
      </trkpt>
      <trkpt lat="45.34695" lon="5.8732">
        <ele>2104</ele>
        <time>2022-03-06T12:33:53Z</time>
      </trkpt>
      <trkpt lat="45.34695" lon="5.8732">
        <ele>2104</ele>
        <time>2022-03-06T12:33:57Z</time>
      </trkpt>
      <trkpt lat="45.34695" lon="5.8732">
        <ele>2104</ele>
        <time>2022-03-06T12:34:01Z</time>
      </trkpt>
      <trkpt lat="45.34695" lon="5.8732">
        <ele>2104</ele>
        <time>2022-03-06T12:34:05Z</time>
      </trkpt>
      <trkpt lat="45.34695" lon="5.8732">
        <ele>2104</ele>
        <time>2022-03-06T12:34:09Z</time>
      </trkpt>
      <trkpt lat="45.34695" lon="5.8732">
        <ele>2103</ele>
        <time>2022-03-06T12:34:13Z</time>
      </trkpt>
      <trkpt lat="45.34695" lon="5.8732">
        <ele>2104</ele>
        <time>2022-03-06T12:34:17Z</time>
      </trkpt>
      <trkpt lat="45.34695" lon="5.8732">
        <ele>2104</ele>
        <time>2022-03-06T12:34:21Z</time>
      </trkpt>
      <trkpt lat="45.34695" lon="5.8732">
        <ele>2104</ele>
        <time>2022-03-06T12:34:25Z</time>
      </trkpt>
      <trkpt lat="45.34695" lon="5.8732">
        <ele>2104</ele>
        <time>2022-03-06T12:34:29Z</time>
      </trkpt>
      <trkpt lat="45.34695" lon="5.8732">
        <ele>2105</ele>
        <time>2022-03-06T12:34:33Z</time>
      </trkpt>
      <trkpt lat="45.34695" lon="5.8732">
        <ele>2105</ele>
        <time>2022-03-06T12:34:37Z</time>
      </trkpt>
      <trkpt lat="45.34695" lon="5.8732">
        <ele>2106</ele>
        <time>2022-03-06T12:34:41Z</time>
      </trkpt>
      <trkpt lat="45.34695" lon="5.8732">
        <ele>2105</ele>
        <time>2022-03-06T12:34:45Z</time>
      </trkpt>
      <trkpt lat="45.34695" lon="5.8732">
        <ele>2104</ele>
        <time>2022-03-06T12:34:49Z</time>
      </trkpt>
      <trkpt lat="45.34695" lon="5.8732">
        <ele>2104</ele>
        <time>2022-03-06T12:34:53Z</time>
      </trkpt>
      <trkpt lat="45.34695" lon="5.8732">
        <ele>2104</ele>
        <time>2022-03-06T12:34:57Z</time>
      </trkpt>
      <trkpt lat="45.34695" lon="5.8732">
        <ele>2104</ele>
        <time>2022-03-06T12:35:01Z</time>
      </trkpt>
      <trkpt lat="45.34695" lon="5.8732">
        <ele>2104</ele>
        <time>2022-03-06T12:35:05Z</time>
      </trkpt>
      <trkpt lat="45.34695" lon="5.8732">
        <ele>2104</ele>
        <time>2022-03-06T12:35:09Z</time>
      </trkpt>
      <trkpt lat="45.34695" lon="5.8732">
        <ele>2104</ele>
        <time>2022-03-06T12:35:13Z</time>
      </trkpt>
      <trkpt lat="45.34695" lon="5.8732">
        <ele>2105</ele>
        <time>2022-03-06T12:35:17Z</time>
      </trkpt>
      <trkpt lat="45.34695" lon="5.8732">
        <ele>2105</ele>
        <time>2022-03-06T12:35:21Z</time>
      </trkpt>
      <trkpt lat="45.34695" lon="5.8732">
        <ele>2104</ele>
        <time>2022-03-06T12:35:25Z</time>
      </trkpt>
      <trkpt lat="45.34695" lon="5.8732">
        <ele>2104</ele>
        <time>2022-03-06T12:35:29Z</time>
      </trkpt>
      <trkpt lat="45.34695" lon="5.8732">
        <ele>2104</ele>
        <time>2022-03-06T12:35:33Z</time>
      </trkpt>
      <trkpt lat="45.34695" lon="5.8732">
        <ele>2104</ele>
        <time>2022-03-06T12:35:37Z</time>
      </trkpt>
      <trkpt lat="45.34695" lon="5.8732">
        <ele>2104</ele>
        <time>2022-03-06T12:35:41Z</time>
      </trkpt>
      <trkpt lat="45.34695" lon="5.8732">
        <ele>2104</ele>
        <time>2022-03-06T12:35:45Z</time>
      </trkpt>
      <trkpt lat="45.34695" lon="5.8732">
        <ele>2104</ele>
        <time>2022-03-06T12:35:49Z</time>
      </trkpt>
      <trkpt lat="45.34695" lon="5.8732">
        <ele>2104</ele>
        <time>2022-03-06T12:35:53Z</time>
      </trkpt>
      <trkpt lat="45.34695" lon="5.8732">
        <ele>2104</ele>
        <time>2022-03-06T12:35:57Z</time>
      </trkpt>
      <trkpt lat="45.34695" lon="5.8732">
        <ele>2104</ele>
        <time>2022-03-06T12:36:01Z</time>
      </trkpt>
      <trkpt lat="45.34695" lon="5.8732">
        <ele>2104</ele>
        <time>2022-03-06T12:36:05Z</time>
      </trkpt>
      <trkpt lat="45.34695" lon="5.8732">
        <ele>2104</ele>
        <time>2022-03-06T12:36:09Z</time>
      </trkpt>
      <trkpt lat="45.34695" lon="5.8732">
        <ele>2104</ele>
        <time>2022-03-06T12:36:13Z</time>
      </trkpt>
      <trkpt lat="45.34695" lon="5.8732">
        <ele>2104</ele>
        <time>2022-03-06T12:36:17Z</time>
      </trkpt>
      <trkpt lat="45.34695" lon="5.8732">
        <ele>2104</ele>
        <time>2022-03-06T12:36:21Z</time>
      </trkpt>
      <trkpt lat="45.34695" lon="5.8732">
        <ele>2104</ele>
        <time>2022-03-06T12:36:25Z</time>
      </trkpt>
      <trkpt lat="45.34695" lon="5.8732">
        <ele>2104</ele>
        <time>2022-03-06T12:36:29Z</time>
      </trkpt>
      <trkpt lat="45.34695" lon="5.8732">
        <ele>2104</ele>
        <time>2022-03-06T12:36:33Z</time>
      </trkpt>
      <trkpt lat="45.34695" lon="5.8732">
        <ele>2105</ele>
        <time>2022-03-06T12:36:37Z</time>
      </trkpt>
      <trkpt lat="45.34695" lon="5.8732">
        <ele>2104</ele>
        <time>2022-03-06T12:36:41Z</time>
      </trkpt>
      <trkpt lat="45.34695" lon="5.8732">
        <ele>2103</ele>
        <time>2022-03-06T12:36:45Z</time>
      </trkpt>
      <trkpt lat="45.34695" lon="5.8732">
        <ele>2103</ele>
        <time>2022-03-06T12:36:49Z</time>
      </trkpt>
      <trkpt lat="45.34695" lon="5.8732">
        <ele>2104</ele>
        <time>2022-03-06T12:36:53Z</time>
      </trkpt>
      <trkpt lat="45.34695" lon="5.8732">
        <ele>2104</ele>
        <time>2022-03-06T12:36:57Z</time>
      </trkpt>
      <trkpt lat="45.34695" lon="5.8732">
        <ele>2104</ele>
        <time>2022-03-06T12:37:01Z</time>
      </trkpt>
      <trkpt lat="45.34695" lon="5.8732">
        <ele>2103</ele>
        <time>2022-03-06T12:37:05Z</time>
      </trkpt>
      <trkpt lat="45.34695" lon="5.8732">
        <ele>2103</ele>
        <time>2022-03-06T12:37:09Z</time>
      </trkpt>
      <trkpt lat="45.34695" lon="5.8732">
        <ele>2104</ele>
        <time>2022-03-06T12:37:13Z</time>
      </trkpt>
      <trkpt lat="45.34695" lon="5.8732">
        <ele>2104</ele>
        <time>2022-03-06T12:37:17Z</time>
      </trkpt>
      <trkpt lat="45.34695" lon="5.8732">
        <ele>2104</ele>
        <time>2022-03-06T12:37:21Z</time>
      </trkpt>
      <trkpt lat="45.34695" lon="5.8732">
        <ele>2104</ele>
        <time>2022-03-06T12:37:25Z</time>
      </trkpt>
      <trkpt lat="45.34695" lon="5.8732">
        <ele>2104</ele>
        <time>2022-03-06T12:37:29Z</time>
      </trkpt>
      <trkpt lat="45.34695" lon="5.8732">
        <ele>2103</ele>
        <time>2022-03-06T12:37:33Z</time>
      </trkpt>
      <trkpt lat="45.34695" lon="5.8732">
        <ele>2104</ele>
        <time>2022-03-06T12:37:37Z</time>
      </trkpt>
      <trkpt lat="45.34695" lon="5.8732">
        <ele>2104</ele>
        <time>2022-03-06T12:37:41Z</time>
      </trkpt>
      <trkpt lat="45.34695" lon="5.8732">
        <ele>2105</ele>
        <time>2022-03-06T12:37:45Z</time>
      </trkpt>
      <trkpt lat="45.34695" lon="5.8732">
        <ele>2105</ele>
        <time>2022-03-06T12:37:49Z</time>
      </trkpt>
      <trkpt lat="45.34695" lon="5.8732">
        <ele>2105</ele>
        <time>2022-03-06T12:37:53Z</time>
      </trkpt>
      <trkpt lat="45.34695" lon="5.8732">
        <ele>2104</ele>
        <time>2022-03-06T12:37:57Z</time>
      </trkpt>
      <trkpt lat="45.34695" lon="5.8732">
        <ele>2104</ele>
        <time>2022-03-06T12:38:01Z</time>
      </trkpt>
      <trkpt lat="45.34695" lon="5.8732">
        <ele>2104</ele>
        <time>2022-03-06T12:38:05Z</time>
      </trkpt>
      <trkpt lat="45.34695" lon="5.8732">
        <ele>2104</ele>
        <time>2022-03-06T12:38:09Z</time>
      </trkpt>
      <trkpt lat="45.34695" lon="5.8732">
        <ele>2104</ele>
        <time>2022-03-06T12:38:13Z</time>
      </trkpt>
      <trkpt lat="45.34695" lon="5.8732">
        <ele>2104</ele>
        <time>2022-03-06T12:38:17Z</time>
      </trkpt>
      <trkpt lat="45.34695" lon="5.8732">
        <ele>2104</ele>
        <time>2022-03-06T12:38:21Z</time>
      </trkpt>
      <trkpt lat="45.34695" lon="5.8732">
        <ele>2104</ele>
        <time>2022-03-06T12:38:25Z</time>
      </trkpt>
      <trkpt lat="45.34695" lon="5.8732">
        <ele>2104</ele>
        <time>2022-03-06T12:38:29Z</time>
      </trkpt>
      <trkpt lat="45.34695" lon="5.8732">
        <ele>2103</ele>
        <time>2022-03-06T12:38:33Z</time>
      </trkpt>
      <trkpt lat="45.34695" lon="5.8732">
        <ele>2104</ele>
        <time>2022-03-06T12:38:37Z</time>
      </trkpt>
      <trkpt lat="45.34695" lon="5.8732">
        <ele>2104</ele>
        <time>2022-03-06T12:38:41Z</time>
      </trkpt>
      <trkpt lat="45.34695" lon="5.8732">
        <ele>2104</ele>
        <time>2022-03-06T12:38:45Z</time>
      </trkpt>
      <trkpt lat="45.34695" lon="5.8732">
        <ele>2104</ele>
        <time>2022-03-06T12:38:49Z</time>
      </trkpt>
      <trkpt lat="45.34695" lon="5.8732">
        <ele>2104</ele>
        <time>2022-03-06T12:38:53Z</time>
      </trkpt>
      <trkpt lat="45.34695" lon="5.8732">
        <ele>2104</ele>
        <time>2022-03-06T12:38:57Z</time>
      </trkpt>
      <trkpt lat="45.34695" lon="5.8732">
        <ele>2104</ele>
        <time>2022-03-06T12:39:01Z</time>
      </trkpt>
      <trkpt lat="45.34695" lon="5.8732">
        <ele>2104</ele>
        <time>2022-03-06T12:39:05Z</time>
      </trkpt>
      <trkpt lat="45.34695" lon="5.8732">
        <ele>2104</ele>
        <time>2022-03-06T12:39:09Z</time>
      </trkpt>
      <trkpt lat="45.34695" lon="5.8732">
        <ele>2103</ele>
        <time>2022-03-06T12:39:13Z</time>
      </trkpt>
      <trkpt lat="45.34695" lon="5.8732">
        <ele>2104</ele>
        <time>2022-03-06T12:39:17Z</time>
      </trkpt>
      <trkpt lat="45.34695" lon="5.8732">
        <ele>2103</ele>
        <time>2022-03-06T12:39:21Z</time>
      </trkpt>
      <trkpt lat="45.34695" lon="5.8732">
        <ele>2103</ele>
        <time>2022-03-06T12:39:25Z</time>
      </trkpt>
      <trkpt lat="45.34695" lon="5.8732">
        <ele>2104</ele>
        <time>2022-03-06T12:39:29Z</time>
      </trkpt>
      <trkpt lat="45.34695" lon="5.8732">
        <ele>2104</ele>
        <time>2022-03-06T12:39:33Z</time>
      </trkpt>
      <trkpt lat="45.34695" lon="5.8732">
        <ele>2104</ele>
        <time>2022-03-06T12:39:37Z</time>
      </trkpt>
      <trkpt lat="45.34695" lon="5.8732">
        <ele>2104</ele>
        <time>2022-03-06T12:39:41Z</time>
      </trkpt>
      <trkpt lat="45.34695" lon="5.8732">
        <ele>2104</ele>
        <time>2022-03-06T12:39:45Z</time>
      </trkpt>
      <trkpt lat="45.34695" lon="5.8732">
        <ele>2104</ele>
        <time>2022-03-06T12:39:49Z</time>
      </trkpt>
      <trkpt lat="45.34695" lon="5.8732">
        <ele>2104</ele>
        <time>2022-03-06T12:39:53Z</time>
      </trkpt>
      <trkpt lat="45.34695" lon="5.8732">
        <ele>2104</ele>
        <time>2022-03-06T12:39:57Z</time>
      </trkpt>
      <trkpt lat="45.34695" lon="5.8732">
        <ele>2104</ele>
        <time>2022-03-06T12:40:01Z</time>
      </trkpt>
      <trkpt lat="45.34695" lon="5.8732">
        <ele>2103</ele>
        <time>2022-03-06T12:40:05Z</time>
      </trkpt>
      <trkpt lat="45.34695" lon="5.8732">
        <ele>2103</ele>
        <time>2022-03-06T12:40:09Z</time>
      </trkpt>
      <trkpt lat="45.34695" lon="5.8732">
        <ele>2103</ele>
        <time>2022-03-06T12:40:13Z</time>
      </trkpt>
      <trkpt lat="45.34695" lon="5.8732">
        <ele>2103</ele>
        <time>2022-03-06T12:40:17Z</time>
      </trkpt>
      <trkpt lat="45.34695" lon="5.8732">
        <ele>2104</ele>
        <time>2022-03-06T12:40:21Z</time>
      </trkpt>
      <trkpt lat="45.34695" lon="5.8732">
        <ele>2104</ele>
        <time>2022-03-06T12:40:25Z</time>
      </trkpt>
      <trkpt lat="45.34695" lon="5.8732">
        <ele>2103</ele>
        <time>2022-03-06T12:40:29Z</time>
      </trkpt>
      <trkpt lat="45.34695" lon="5.8732">
        <ele>2103</ele>
        <time>2022-03-06T12:40:33Z</time>
      </trkpt>
      <trkpt lat="45.34695" lon="5.8732">
        <ele>2103</ele>
        <time>2022-03-06T12:40:37Z</time>
      </trkpt>
      <trkpt lat="45.34695" lon="5.8732">
        <ele>2103</ele>
        <time>2022-03-06T12:40:41Z</time>
      </trkpt>
      <trkpt lat="45.34695" lon="5.8732">
        <ele>2103</ele>
        <time>2022-03-06T12:40:45Z</time>
      </trkpt>
      <trkpt lat="45.34695" lon="5.8732">
        <ele>2103</ele>
        <time>2022-03-06T12:40:49Z</time>
      </trkpt>
      <trkpt lat="45.34695" lon="5.8732">
        <ele>2103</ele>
        <time>2022-03-06T12:40:53Z</time>
      </trkpt>
      <trkpt lat="45.34695" lon="5.8732">
        <ele>2104</ele>
        <time>2022-03-06T12:40:57Z</time>
      </trkpt>
      <trkpt lat="45.34695" lon="5.8732">
        <ele>2104</ele>
        <time>2022-03-06T12:41:01Z</time>
      </trkpt>
      <trkpt lat="45.34695" lon="5.8732">
        <ele>2104</ele>
        <time>2022-03-06T12:41:05Z</time>
      </trkpt>
      <trkpt lat="45.34695" lon="5.8732">
        <ele>2104</ele>
        <time>2022-03-06T12:41:09Z</time>
      </trkpt>
      <trkpt lat="45.34695" lon="5.8732">
        <ele>2104</ele>
        <time>2022-03-06T12:41:13Z</time>
      </trkpt>
      <trkpt lat="45.34695" lon="5.8732">
        <ele>2104</ele>
        <time>2022-03-06T12:41:17Z</time>
      </trkpt>
      <trkpt lat="45.34695" lon="5.8732">
        <ele>2104</ele>
        <time>2022-03-06T12:41:21Z</time>
      </trkpt>
      <trkpt lat="45.34695" lon="5.8732">
        <ele>2104</ele>
        <time>2022-03-06T12:41:25Z</time>
      </trkpt>
      <trkpt lat="45.34695" lon="5.8732">
        <ele>2104</ele>
        <time>2022-03-06T12:41:29Z</time>
      </trkpt>
      <trkpt lat="45.34695" lon="5.8732">
        <ele>2105</ele>
        <time>2022-03-06T12:41:33Z</time>
      </trkpt>
      <trkpt lat="45.34695" lon="5.8732">
        <ele>2104</ele>
        <time>2022-03-06T12:41:37Z</time>
      </trkpt>
      <trkpt lat="45.34695" lon="5.8732">
        <ele>2104</ele>
        <time>2022-03-06T12:41:41Z</time>
      </trkpt>
      <trkpt lat="45.34695" lon="5.8732">
        <ele>2104</ele>
        <time>2022-03-06T12:41:45Z</time>
      </trkpt>
      <trkpt lat="45.34695" lon="5.8732">
        <ele>2104</ele>
        <time>2022-03-06T12:41:49Z</time>
      </trkpt>
      <trkpt lat="45.34695" lon="5.8732">
        <ele>2104</ele>
        <time>2022-03-06T12:41:53Z</time>
      </trkpt>
      <trkpt lat="45.34695" lon="5.8732">
        <ele>2105</ele>
        <time>2022-03-06T12:41:57Z</time>
      </trkpt>
      <trkpt lat="45.34695" lon="5.8732">
        <ele>2105</ele>
        <time>2022-03-06T12:42:01Z</time>
      </trkpt>
      <trkpt lat="45.34695" lon="5.8732">
        <ele>2105</ele>
        <time>2022-03-06T12:42:05Z</time>
      </trkpt>
      <trkpt lat="45.34695" lon="5.8732">
        <ele>2104</ele>
        <time>2022-03-06T12:42:09Z</time>
      </trkpt>
      <trkpt lat="45.34695" lon="5.8732">
        <ele>2104</ele>
        <time>2022-03-06T12:42:13Z</time>
      </trkpt>
      <trkpt lat="45.34695" lon="5.8732">
        <ele>2104</ele>
        <time>2022-03-06T12:42:17Z</time>
      </trkpt>
      <trkpt lat="45.34695" lon="5.8732">
        <ele>2104</ele>
        <time>2022-03-06T12:42:21Z</time>
      </trkpt>
      <trkpt lat="45.34695" lon="5.8732">
        <ele>2104</ele>
        <time>2022-03-06T12:42:25Z</time>
      </trkpt>
      <trkpt lat="45.34695" lon="5.8732">
        <ele>2104</ele>
        <time>2022-03-06T12:42:29Z</time>
      </trkpt>
      <trkpt lat="45.34695" lon="5.8732">
        <ele>2104</ele>
        <time>2022-03-06T12:42:33Z</time>
      </trkpt>
      <trkpt lat="45.34695" lon="5.8732">
        <ele>2105</ele>
        <time>2022-03-06T12:42:37Z</time>
      </trkpt>
      <trkpt lat="45.34695" lon="5.8732">
        <ele>2105</ele>
        <time>2022-03-06T12:42:41Z</time>
      </trkpt>
      <trkpt lat="45.34695" lon="5.8732">
        <ele>2103</ele>
        <time>2022-03-06T12:42:45Z</time>
      </trkpt>
      <trkpt lat="45.34695" lon="5.8732">
        <ele>2103</ele>
        <time>2022-03-06T12:42:49Z</time>
      </trkpt>
      <trkpt lat="45.34695" lon="5.8732">
        <ele>2103</ele>
        <time>2022-03-06T12:42:53Z</time>
      </trkpt>
      <trkpt lat="45.34695" lon="5.8732">
        <ele>2103</ele>
        <time>2022-03-06T12:42:57Z</time>
      </trkpt>
      <trkpt lat="45.34695" lon="5.8732">
        <ele>2103</ele>
        <time>2022-03-06T12:43:01Z</time>
      </trkpt>
      <trkpt lat="45.34695" lon="5.8732">
        <ele>2103</ele>
        <time>2022-03-06T12:43:05Z</time>
      </trkpt>
      <trkpt lat="45.34695" lon="5.8732">
        <ele>2103</ele>
        <time>2022-03-06T12:43:09Z</time>
      </trkpt>
      <trkpt lat="45.34695" lon="5.8732">
        <ele>2103</ele>
        <time>2022-03-06T12:43:13Z</time>
      </trkpt>
      <trkpt lat="45.34695" lon="5.8732">
        <ele>2104</ele>
        <time>2022-03-06T12:43:17Z</time>
      </trkpt>
      <trkpt lat="45.34695" lon="5.8732">
        <ele>2104</ele>
        <time>2022-03-06T12:43:21Z</time>
      </trkpt>
      <trkpt lat="45.34695" lon="5.8732">
        <ele>2104</ele>
        <time>2022-03-06T12:43:25Z</time>
      </trkpt>
      <trkpt lat="45.34695" lon="5.8732">
        <ele>2104</ele>
        <time>2022-03-06T12:43:29Z</time>
      </trkpt>
      <trkpt lat="45.34695" lon="5.8732">
        <ele>2104</ele>
        <time>2022-03-06T12:43:33Z</time>
      </trkpt>
      <trkpt lat="45.34695" lon="5.8732">
        <ele>2104</ele>
        <time>2022-03-06T12:43:37Z</time>
      </trkpt>
      <trkpt lat="45.34694" lon="5.87321">
        <ele>2105</ele>
        <time>2022-03-06T12:43:39Z</time>
      </trkpt>
      <trkpt lat="45.34692" lon="5.87321">
        <ele>2105</ele>
        <time>2022-03-06T12:43:41Z</time>
      </trkpt>
      <trkpt lat="45.34692" lon="5.87321">
        <ele>2105</ele>
        <time>2022-03-06T12:43:43Z</time>
      </trkpt>
      <trkpt lat="45.34692" lon="5.87321">
        <ele>2104</ele>
        <time>2022-03-06T12:43:47Z</time>
      </trkpt>
      <trkpt lat="45.34692" lon="5.87321">
        <ele>2104</ele>
        <time>2022-03-06T12:43:51Z</time>
      </trkpt>
      <trkpt lat="45.34691" lon="5.8732">
        <ele>2104</ele>
        <time>2022-03-06T12:43:52Z</time>
      </trkpt>
      <trkpt lat="45.34691" lon="5.8732">
        <ele>2104</ele>
        <time>2022-03-06T12:43:56Z</time>
      </trkpt>
      <trkpt lat="45.34691" lon="5.8732">
        <ele>2104</ele>
        <time>2022-03-06T12:44:00Z</time>
      </trkpt>
      <trkpt lat="45.34691" lon="5.8732">
        <ele>2105</ele>
        <time>2022-03-06T12:44:04Z</time>
      </trkpt>
      <trkpt lat="45.34691" lon="5.8732">
        <ele>2105</ele>
        <time>2022-03-06T12:44:08Z</time>
      </trkpt>
      <trkpt lat="45.34691" lon="5.8732">
        <ele>2105</ele>
        <time>2022-03-06T12:44:12Z</time>
      </trkpt>
      <trkpt lat="45.34691" lon="5.8732">
        <ele>2105</ele>
        <time>2022-03-06T12:44:16Z</time>
      </trkpt>
      <trkpt lat="45.34691" lon="5.8732">
        <ele>2103</ele>
        <time>2022-03-06T12:44:21Z</time>
      </trkpt>
      <trkpt lat="45.34691" lon="5.8732">
        <ele>2104</ele>
        <time>2022-03-06T12:44:25Z</time>
      </trkpt>
      <trkpt lat="45.34691" lon="5.8732">
        <ele>2105</ele>
        <time>2022-03-06T12:44:29Z</time>
      </trkpt>
      <trkpt lat="45.34691" lon="5.8732">
        <ele>2105</ele>
        <time>2022-03-06T12:44:33Z</time>
      </trkpt>
      <trkpt lat="45.34691" lon="5.8732">
        <ele>2105</ele>
        <time>2022-03-06T12:44:37Z</time>
      </trkpt>
      <trkpt lat="45.34691" lon="5.8732">
        <ele>2105</ele>
        <time>2022-03-06T12:44:41Z</time>
      </trkpt>
      <trkpt lat="45.34691" lon="5.8732">
        <ele>2105</ele>
        <time>2022-03-06T12:44:45Z</time>
      </trkpt>
      <trkpt lat="45.34691" lon="5.8732">
        <ele>2104</ele>
        <time>2022-03-06T12:44:49Z</time>
      </trkpt>
      <trkpt lat="45.34691" lon="5.8732">
        <ele>2104</ele>
        <time>2022-03-06T12:44:53Z</time>
      </trkpt>
      <trkpt lat="45.34691" lon="5.8732">
        <ele>2104</ele>
        <time>2022-03-06T12:44:57Z</time>
      </trkpt>
      <trkpt lat="45.34691" lon="5.8732">
        <ele>2105</ele>
        <time>2022-03-06T12:45:01Z</time>
      </trkpt>
      <trkpt lat="45.34691" lon="5.8732">
        <ele>2105</ele>
        <time>2022-03-06T12:45:05Z</time>
      </trkpt>
      <trkpt lat="45.34691" lon="5.8732">
        <ele>2105</ele>
        <time>2022-03-06T12:45:09Z</time>
      </trkpt>
      <trkpt lat="45.34691" lon="5.8732">
        <ele>2105</ele>
        <time>2022-03-06T12:45:13Z</time>
      </trkpt>
      <trkpt lat="45.34691" lon="5.87322">
        <ele>2105</ele>
        <time>2022-03-06T12:45:16Z</time>
      </trkpt>
      <trkpt lat="45.34691" lon="5.87322">
        <ele>2104</ele>
        <time>2022-03-06T12:45:18Z</time>
      </trkpt>
      <trkpt lat="45.34691" lon="5.87322">
        <ele>2103</ele>
        <time>2022-03-06T12:45:22Z</time>
      </trkpt>
      <trkpt lat="45.34691" lon="5.87325">
        <ele>2103</ele>
        <time>2022-03-06T12:45:24Z</time>
      </trkpt>
      <trkpt lat="45.3469" lon="5.87327">
        <ele>2102</ele>
        <time>2022-03-06T12:45:27Z</time>
      </trkpt>
      <trkpt lat="45.3469" lon="5.87327">
        <ele>2102</ele>
        <time>2022-03-06T12:45:28Z</time>
      </trkpt>
      <trkpt lat="45.3469" lon="5.87327">
        <ele>2101</ele>
        <time>2022-03-06T12:45:32Z</time>
      </trkpt>
      <trkpt lat="45.3469" lon="5.87327">
        <ele>2101</ele>
        <time>2022-03-06T12:45:36Z</time>
      </trkpt>
      <trkpt lat="45.3469" lon="5.87327">
        <ele>2101</ele>
        <time>2022-03-06T12:45:40Z</time>
      </trkpt>
      <trkpt lat="45.3469" lon="5.87327">
        <ele>2101</ele>
        <time>2022-03-06T12:45:44Z</time>
      </trkpt>
      <trkpt lat="45.34692" lon="5.8733">
        <ele>2101</ele>
        <time>2022-03-06T12:45:45Z</time>
      </trkpt>
      <trkpt lat="45.34695" lon="5.87334">
        <ele>2099</ele>
        <time>2022-03-06T12:45:47Z</time>
      </trkpt>
      <trkpt lat="45.34698" lon="5.87335">
        <ele>2098</ele>
        <time>2022-03-06T12:45:48Z</time>
      </trkpt>
      <trkpt lat="45.34702" lon="5.87338">
        <ele>2097</ele>
        <time>2022-03-06T12:45:49Z</time>
      </trkpt>
      <trkpt lat="45.34707" lon="5.8734">
        <ele>2096</ele>
        <time>2022-03-06T12:45:50Z</time>
      </trkpt>
      <trkpt lat="45.34711" lon="5.87342">
        <ele>2094</ele>
        <time>2022-03-06T12:45:51Z</time>
      </trkpt>
      <trkpt lat="45.34714" lon="5.87344">
        <ele>2093</ele>
        <time>2022-03-06T12:45:52Z</time>
      </trkpt>
      <trkpt lat="45.34717" lon="5.87345">
        <ele>2092</ele>
        <time>2022-03-06T12:45:53Z</time>
      </trkpt>
      <trkpt lat="45.3472" lon="5.87347">
        <ele>2090</ele>
        <time>2022-03-06T12:45:54Z</time>
      </trkpt>
      <trkpt lat="45.34723" lon="5.87348">
        <ele>2089</ele>
        <time>2022-03-06T12:45:55Z</time>
      </trkpt>
      <trkpt lat="45.34725" lon="5.87349">
        <ele>2088</ele>
        <time>2022-03-06T12:45:56Z</time>
      </trkpt>
      <trkpt lat="45.34727" lon="5.87351">
        <ele>2088</ele>
        <time>2022-03-06T12:45:57Z</time>
      </trkpt>
      <trkpt lat="45.3473" lon="5.87352">
        <ele>2088</ele>
        <time>2022-03-06T12:45:58Z</time>
      </trkpt>
      <trkpt lat="45.34732" lon="5.87354">
        <ele>2088</ele>
        <time>2022-03-06T12:45:59Z</time>
      </trkpt>
      <trkpt lat="45.34735" lon="5.87356">
        <ele>2087</ele>
        <time>2022-03-06T12:46:00Z</time>
      </trkpt>
      <trkpt lat="45.34738" lon="5.87358">
        <ele>2087</ele>
        <time>2022-03-06T12:46:01Z</time>
      </trkpt>
      <trkpt lat="45.34741" lon="5.87362">
        <ele>2086</ele>
        <time>2022-03-06T12:46:02Z</time>
      </trkpt>
      <trkpt lat="45.34745" lon="5.87365">
        <ele>2085</ele>
        <time>2022-03-06T12:46:03Z</time>
      </trkpt>
      <trkpt lat="45.34748" lon="5.87368">
        <ele>2084</ele>
        <time>2022-03-06T12:46:04Z</time>
      </trkpt>
      <trkpt lat="45.34752" lon="5.87371">
        <ele>2083</ele>
        <time>2022-03-06T12:46:05Z</time>
      </trkpt>
      <trkpt lat="45.34755" lon="5.87373">
        <ele>2082</ele>
        <time>2022-03-06T12:46:06Z</time>
      </trkpt>
      <trkpt lat="45.34758" lon="5.87375">
        <ele>2081</ele>
        <time>2022-03-06T12:46:07Z</time>
      </trkpt>
      <trkpt lat="45.34762" lon="5.87377">
        <ele>2080</ele>
        <time>2022-03-06T12:46:08Z</time>
      </trkpt>
      <trkpt lat="45.34765" lon="5.87379">
        <ele>2079</ele>
        <time>2022-03-06T12:46:09Z</time>
      </trkpt>
      <trkpt lat="45.34768" lon="5.87381">
        <ele>2079</ele>
        <time>2022-03-06T12:46:10Z</time>
      </trkpt>
      <trkpt lat="45.34771" lon="5.87384">
        <ele>2078</ele>
        <time>2022-03-06T12:46:11Z</time>
      </trkpt>
      <trkpt lat="45.34775" lon="5.87386">
        <ele>2077</ele>
        <time>2022-03-06T12:46:12Z</time>
      </trkpt>
      <trkpt lat="45.34778" lon="5.87388">
        <ele>2076</ele>
        <time>2022-03-06T12:46:13Z</time>
      </trkpt>
      <trkpt lat="45.34781" lon="5.8739">
        <ele>2075</ele>
        <time>2022-03-06T12:46:14Z</time>
      </trkpt>
      <trkpt lat="45.34784" lon="5.87392">
        <ele>2075</ele>
        <time>2022-03-06T12:46:15Z</time>
      </trkpt>
      <trkpt lat="45.34787" lon="5.87394">
        <ele>2075</ele>
        <time>2022-03-06T12:46:16Z</time>
      </trkpt>
      <trkpt lat="45.34789" lon="5.87397">
        <ele>2074</ele>
        <time>2022-03-06T12:46:17Z</time>
      </trkpt>
      <trkpt lat="45.34792" lon="5.87399">
        <ele>2073</ele>
        <time>2022-03-06T12:46:18Z</time>
      </trkpt>
      <trkpt lat="45.34794" lon="5.87402">
        <ele>2072</ele>
        <time>2022-03-06T12:46:19Z</time>
      </trkpt>
      <trkpt lat="45.34794" lon="5.87406">
        <ele>2070</ele>
        <time>2022-03-06T12:46:20Z</time>
      </trkpt>
      <trkpt lat="45.34792" lon="5.87409">
        <ele>2069</ele>
        <time>2022-03-06T12:46:21Z</time>
      </trkpt>
      <trkpt lat="45.34792" lon="5.87412">
        <ele>2068</ele>
        <time>2022-03-06T12:46:22Z</time>
      </trkpt>
      <trkpt lat="45.34793" lon="5.87416">
        <ele>2067</ele>
        <time>2022-03-06T12:46:23Z</time>
      </trkpt>
      <trkpt lat="45.34793" lon="5.87419">
        <ele>2064</ele>
        <time>2022-03-06T12:46:24Z</time>
      </trkpt>
      <trkpt lat="45.34792" lon="5.87422">
        <ele>2063</ele>
        <time>2022-03-06T12:46:25Z</time>
      </trkpt>
      <trkpt lat="45.34788" lon="5.87424">
        <ele>2062</ele>
        <time>2022-03-06T12:46:26Z</time>
      </trkpt>
      <trkpt lat="45.34785" lon="5.87425">
        <ele>2061</ele>
        <time>2022-03-06T12:46:27Z</time>
      </trkpt>
      <trkpt lat="45.34783" lon="5.87425">
        <ele>2060</ele>
        <time>2022-03-06T12:46:28Z</time>
      </trkpt>
      <trkpt lat="45.34782" lon="5.87424">
        <ele>2058</ele>
        <time>2022-03-06T12:46:31Z</time>
      </trkpt>
      <trkpt lat="45.34782" lon="5.87424">
        <ele>2057</ele>
        <time>2022-03-06T12:46:33Z</time>
      </trkpt>
      <trkpt lat="45.34782" lon="5.87424">
        <ele>2058</ele>
        <time>2022-03-06T12:46:37Z</time>
      </trkpt>
      <trkpt lat="45.34782" lon="5.87424">
        <ele>2058</ele>
        <time>2022-03-06T12:46:41Z</time>
      </trkpt>
      <trkpt lat="45.34782" lon="5.87424">
        <ele>2058</ele>
        <time>2022-03-06T12:46:45Z</time>
      </trkpt>
      <trkpt lat="45.3478" lon="5.87422">
        <ele>2058</ele>
        <time>2022-03-06T12:46:47Z</time>
      </trkpt>
      <trkpt lat="45.34777" lon="5.87421">
        <ele>2058</ele>
        <time>2022-03-06T12:46:48Z</time>
      </trkpt>
      <trkpt lat="45.34775" lon="5.8742">
        <ele>2057</ele>
        <time>2022-03-06T12:46:49Z</time>
      </trkpt>
      <trkpt lat="45.34774" lon="5.87422">
        <ele>2056</ele>
        <time>2022-03-06T12:46:51Z</time>
      </trkpt>
      <trkpt lat="45.34774" lon="5.87425">
        <ele>2055</ele>
        <time>2022-03-06T12:46:52Z</time>
      </trkpt>
      <trkpt lat="45.34774" lon="5.87429">
        <ele>2052</ele>
        <time>2022-03-06T12:46:54Z</time>
      </trkpt>
      <trkpt lat="45.34771" lon="5.8743">
        <ele>2051</ele>
        <time>2022-03-06T12:46:55Z</time>
      </trkpt>
      <trkpt lat="45.34769" lon="5.8743">
        <ele>2050</ele>
        <time>2022-03-06T12:46:56Z</time>
      </trkpt>
      <trkpt lat="45.34766" lon="5.87433">
        <ele>2048</ele>
        <time>2022-03-06T12:46:58Z</time>
      </trkpt>
      <trkpt lat="45.34766" lon="5.87436">
        <ele>2047</ele>
        <time>2022-03-06T12:47:00Z</time>
      </trkpt>
      <trkpt lat="45.34766" lon="5.87436">
        <ele>2047</ele>
        <time>2022-03-06T12:47:02Z</time>
      </trkpt>
      <trkpt lat="45.34766" lon="5.87436">
        <ele>2047</ele>
        <time>2022-03-06T12:47:06Z</time>
      </trkpt>
      <trkpt lat="45.34768" lon="5.87434">
        <ele>2047</ele>
        <time>2022-03-06T12:47:08Z</time>
      </trkpt>
      <trkpt lat="45.34768" lon="5.87434">
        <ele>2047</ele>
        <time>2022-03-06T12:47:11Z</time>
      </trkpt>
      <trkpt lat="45.34768" lon="5.87434">
        <ele>2047</ele>
        <time>2022-03-06T12:47:15Z</time>
      </trkpt>
      <trkpt lat="45.3477" lon="5.87437">
        <ele>2047</ele>
        <time>2022-03-06T12:47:19Z</time>
      </trkpt>
      <trkpt lat="45.34771" lon="5.87439">
        <ele>2046</ele>
        <time>2022-03-06T12:47:20Z</time>
      </trkpt>
      <trkpt lat="45.34771" lon="5.87442">
        <ele>2046</ele>
        <time>2022-03-06T12:47:21Z</time>
      </trkpt>
      <trkpt lat="45.3477" lon="5.87445">
        <ele>2046</ele>
        <time>2022-03-06T12:47:22Z</time>
      </trkpt>
      <trkpt lat="45.34768" lon="5.87446">
        <ele>2044</ele>
        <time>2022-03-06T12:47:23Z</time>
      </trkpt>
      <trkpt lat="45.34767" lon="5.87448">
        <ele>2043</ele>
        <time>2022-03-06T12:47:24Z</time>
      </trkpt>
      <trkpt lat="45.34766" lon="5.87451">
        <ele>2042</ele>
        <time>2022-03-06T12:47:25Z</time>
      </trkpt>
      <trkpt lat="45.34764" lon="5.87455">
        <ele>2041</ele>
        <time>2022-03-06T12:47:26Z</time>
      </trkpt>
      <trkpt lat="45.34761" lon="5.87455">
        <ele>2040</ele>
        <time>2022-03-06T12:47:27Z</time>
      </trkpt>
      <trkpt lat="45.34759" lon="5.87454">
        <ele>2037</ele>
        <time>2022-03-06T12:47:28Z</time>
      </trkpt>
      <trkpt lat="45.34757" lon="5.87456">
        <ele>2036</ele>
        <time>2022-03-06T12:47:29Z</time>
      </trkpt>
      <trkpt lat="45.34757" lon="5.87459">
        <ele>2035</ele>
        <time>2022-03-06T12:47:30Z</time>
      </trkpt>
      <trkpt lat="45.34758" lon="5.87462">
        <ele>2034</ele>
        <time>2022-03-06T12:47:31Z</time>
      </trkpt>
      <trkpt lat="45.34755" lon="5.87462">
        <ele>2032</ele>
        <time>2022-03-06T12:47:33Z</time>
      </trkpt>
      <trkpt lat="45.34752" lon="5.87464">
        <ele>2030</ele>
        <time>2022-03-06T12:47:35Z</time>
      </trkpt>
      <trkpt lat="45.34751" lon="5.87467">
        <ele>2029</ele>
        <time>2022-03-06T12:47:36Z</time>
      </trkpt>
      <trkpt lat="45.34746" lon="5.87475">
        <ele>2026</ele>
        <time>2022-03-06T12:47:38Z</time>
      </trkpt>
      <trkpt lat="45.34744" lon="5.87475">
        <ele>2024</ele>
        <time>2022-03-06T12:47:39Z</time>
      </trkpt>
      <trkpt lat="45.3474" lon="5.87475">
        <ele>2022</ele>
        <time>2022-03-06T12:47:40Z</time>
      </trkpt>
      <trkpt lat="45.3474" lon="5.87479">
        <ele>2020</ele>
        <time>2022-03-06T12:47:43Z</time>
      </trkpt>
      <trkpt lat="45.34739" lon="5.87482">
        <ele>2019</ele>
        <time>2022-03-06T12:47:44Z</time>
      </trkpt>
      <trkpt lat="45.34737" lon="5.87485">
        <ele>2018</ele>
        <time>2022-03-06T12:47:45Z</time>
      </trkpt>
      <trkpt lat="45.34736" lon="5.87491">
        <ele>2016</ele>
        <time>2022-03-06T12:47:46Z</time>
      </trkpt>
      <trkpt lat="45.34734" lon="5.87495">
        <ele>2014</ele>
        <time>2022-03-06T12:47:47Z</time>
      </trkpt>
      <trkpt lat="45.3473" lon="5.87497">
        <ele>2011</ele>
        <time>2022-03-06T12:47:48Z</time>
      </trkpt>
      <trkpt lat="45.34727" lon="5.875">
        <ele>2009</ele>
        <time>2022-03-06T12:47:49Z</time>
      </trkpt>
      <trkpt lat="45.34723" lon="5.87502">
        <ele>2005</ele>
        <time>2022-03-06T12:47:51Z</time>
      </trkpt>
      <trkpt lat="45.34718" lon="5.87504">
        <ele>2003</ele>
        <time>2022-03-06T12:47:52Z</time>
      </trkpt>
      <trkpt lat="45.34714" lon="5.87507">
        <ele>2002</ele>
        <time>2022-03-06T12:47:53Z</time>
      </trkpt>
      <trkpt lat="45.34711" lon="5.87509">
        <ele>2002</ele>
        <time>2022-03-06T12:47:54Z</time>
      </trkpt>
      <trkpt lat="45.34708" lon="5.8751">
        <ele>1999</ele>
        <time>2022-03-06T12:47:55Z</time>
      </trkpt>
      <trkpt lat="45.34705" lon="5.87511">
        <ele>1998</ele>
        <time>2022-03-06T12:47:56Z</time>
      </trkpt>
      <trkpt lat="45.34705" lon="5.87514">
        <ele>1997</ele>
        <time>2022-03-06T12:47:58Z</time>
      </trkpt>
      <trkpt lat="45.34704" lon="5.87517">
        <ele>1995</ele>
        <time>2022-03-06T12:47:59Z</time>
      </trkpt>
      <trkpt lat="45.34704" lon="5.87521">
        <ele>1992</ele>
        <time>2022-03-06T12:48:00Z</time>
      </trkpt>
      <trkpt lat="45.34704" lon="5.87524">
        <ele>1992</ele>
        <time>2022-03-06T12:48:01Z</time>
      </trkpt>
      <trkpt lat="45.34703" lon="5.87526">
        <ele>1992</ele>
        <time>2022-03-06T12:48:02Z</time>
      </trkpt>
      <trkpt lat="45.34702" lon="5.87529">
        <ele>1990</ele>
        <time>2022-03-06T12:48:03Z</time>
      </trkpt>
      <trkpt lat="45.34701" lon="5.87531">
        <ele>1989</ele>
        <time>2022-03-06T12:48:04Z</time>
      </trkpt>
      <trkpt lat="45.347" lon="5.87534">
        <ele>1988</ele>
        <time>2022-03-06T12:48:05Z</time>
      </trkpt>
      <trkpt lat="45.34699" lon="5.87536">
        <ele>1986</ele>
        <time>2022-03-06T12:48:06Z</time>
      </trkpt>
      <trkpt lat="45.34697" lon="5.8754">
        <ele>1985</ele>
        <time>2022-03-06T12:48:07Z</time>
      </trkpt>
      <trkpt lat="45.34697" lon="5.87544">
        <ele>1984</ele>
        <time>2022-03-06T12:48:09Z</time>
      </trkpt>
      <trkpt lat="45.34698" lon="5.87548">
        <ele>1983</ele>
        <time>2022-03-06T12:48:10Z</time>
      </trkpt>
      <trkpt lat="45.34698" lon="5.87552">
        <ele>1982</ele>
        <time>2022-03-06T12:48:11Z</time>
      </trkpt>
      <trkpt lat="45.34698" lon="5.87556">
        <ele>1981</ele>
        <time>2022-03-06T12:48:12Z</time>
      </trkpt>
      <trkpt lat="45.34699" lon="5.87557">
        <ele>1981</ele>
        <time>2022-03-06T12:48:13Z</time>
      </trkpt>
      <trkpt lat="45.347" lon="5.87558">
        <ele>1980</ele>
        <time>2022-03-06T12:48:14Z</time>
      </trkpt>
      <trkpt lat="45.347" lon="5.87559">
        <ele>1979</ele>
        <time>2022-03-06T12:48:15Z</time>
      </trkpt>
      <trkpt lat="45.34701" lon="5.87559">
        <ele>1978</ele>
        <time>2022-03-06T12:48:16Z</time>
      </trkpt>
      <trkpt lat="45.34702" lon="5.8756">
        <ele>1977</ele>
        <time>2022-03-06T12:48:17Z</time>
      </trkpt>
      <trkpt lat="45.34703" lon="5.87561">
        <ele>1976</ele>
        <time>2022-03-06T12:48:18Z</time>
      </trkpt>
      <trkpt lat="45.34703" lon="5.87562">
        <ele>1975</ele>
        <time>2022-03-06T12:48:19Z</time>
      </trkpt>
      <trkpt lat="45.34704" lon="5.87563">
        <ele>1974</ele>
        <time>2022-03-06T12:48:20Z</time>
      </trkpt>
      <trkpt lat="45.34705" lon="5.87563">
        <ele>1973</ele>
        <time>2022-03-06T12:48:21Z</time>
      </trkpt>
      <trkpt lat="45.34705" lon="5.87564">
        <ele>1972</ele>
        <time>2022-03-06T12:48:22Z</time>
      </trkpt>
      <trkpt lat="45.34705" lon="5.87569">
        <ele>1972</ele>
        <time>2022-03-06T12:48:23Z</time>
      </trkpt>
      <trkpt lat="45.34704" lon="5.87574">
        <ele>1971</ele>
        <time>2022-03-06T12:48:24Z</time>
      </trkpt>
      <trkpt lat="45.34703" lon="5.87578">
        <ele>1969</ele>
        <time>2022-03-06T12:48:25Z</time>
      </trkpt>
      <trkpt lat="45.34698" lon="5.87577">
        <ele>1967</ele>
        <time>2022-03-06T12:48:26Z</time>
      </trkpt>
      <trkpt lat="45.34698" lon="5.87581">
        <ele>1965</ele>
        <time>2022-03-06T12:48:28Z</time>
      </trkpt>
      <trkpt lat="45.34698" lon="5.87584">
        <ele>1964</ele>
        <time>2022-03-06T12:48:29Z</time>
      </trkpt>
      <trkpt lat="45.34698" lon="5.87588">
        <ele>1963</ele>
        <time>2022-03-06T12:48:30Z</time>
      </trkpt>
      <trkpt lat="45.34698" lon="5.87591">
        <ele>1960</ele>
        <time>2022-03-06T12:48:31Z</time>
      </trkpt>
      <trkpt lat="45.34695" lon="5.8759">
        <ele>1957</ele>
        <time>2022-03-06T12:48:32Z</time>
      </trkpt>
      <trkpt lat="45.34692" lon="5.87589">
        <ele>1956</ele>
        <time>2022-03-06T12:48:33Z</time>
      </trkpt>
      <trkpt lat="45.3469" lon="5.87591">
        <ele>1954</ele>
        <time>2022-03-06T12:48:34Z</time>
      </trkpt>
      <trkpt lat="45.34689" lon="5.87596">
        <ele>1953</ele>
        <time>2022-03-06T12:48:35Z</time>
      </trkpt>
      <trkpt lat="45.34688" lon="5.876">
        <ele>1952</ele>
        <time>2022-03-06T12:48:36Z</time>
      </trkpt>
      <trkpt lat="45.34685" lon="5.87599">
        <ele>1947</ele>
        <time>2022-03-06T12:48:38Z</time>
      </trkpt>
      <trkpt lat="45.34682" lon="5.87597">
        <ele>1946</ele>
        <time>2022-03-06T12:48:39Z</time>
      </trkpt>
      <trkpt lat="45.34678" lon="5.876">
        <ele>1944</ele>
        <time>2022-03-06T12:48:41Z</time>
      </trkpt>
      <trkpt lat="45.34678" lon="5.87602">
        <ele>1944</ele>
        <time>2022-03-06T12:48:42Z</time>
      </trkpt>
      <trkpt lat="45.34677" lon="5.87606">
        <ele>1943</ele>
        <time>2022-03-06T12:48:43Z</time>
      </trkpt>
      <trkpt lat="45.34674" lon="5.87607">
        <ele>1940</ele>
        <time>2022-03-06T12:48:44Z</time>
      </trkpt>
      <trkpt lat="45.34672" lon="5.87608">
        <ele>1938</ele>
        <time>2022-03-06T12:48:45Z</time>
      </trkpt>
      <trkpt lat="45.34669" lon="5.87607">
        <ele>1936</ele>
        <time>2022-03-06T12:48:46Z</time>
      </trkpt>
      <trkpt lat="45.34666" lon="5.87606">
        <ele>1935</ele>
        <time>2022-03-06T12:48:47Z</time>
      </trkpt>
      <trkpt lat="45.34663" lon="5.87606">
        <ele>1935</ele>
        <time>2022-03-06T12:48:48Z</time>
      </trkpt>
      <trkpt lat="45.3466" lon="5.87605">
        <ele>1934</ele>
        <time>2022-03-06T12:48:49Z</time>
      </trkpt>
      <trkpt lat="45.34658" lon="5.87604">
        <ele>1933</ele>
        <time>2022-03-06T12:48:50Z</time>
      </trkpt>
      <trkpt lat="45.34658" lon="5.87613">
        <ele>1932</ele>
        <time>2022-03-06T12:48:52Z</time>
      </trkpt>
      <trkpt lat="45.34659" lon="5.87615">
        <ele>1931</ele>
        <time>2022-03-06T12:48:53Z</time>
      </trkpt>
      <trkpt lat="45.3466" lon="5.87619">
        <ele>1930</ele>
        <time>2022-03-06T12:48:54Z</time>
      </trkpt>
      <trkpt lat="45.3466" lon="5.87623">
        <ele>1929</ele>
        <time>2022-03-06T12:48:55Z</time>
      </trkpt>
      <trkpt lat="45.34657" lon="5.87624">
        <ele>1927</ele>
        <time>2022-03-06T12:48:56Z</time>
      </trkpt>
      <trkpt lat="45.34653" lon="5.87624">
        <ele>1926</ele>
        <time>2022-03-06T12:48:57Z</time>
      </trkpt>
      <trkpt lat="45.3465" lon="5.87625">
        <ele>1925</ele>
        <time>2022-03-06T12:48:58Z</time>
      </trkpt>
      <trkpt lat="45.34646" lon="5.87625">
        <ele>1924</ele>
        <time>2022-03-06T12:48:59Z</time>
      </trkpt>
      <trkpt lat="45.34644" lon="5.87625">
        <ele>1923</ele>
        <time>2022-03-06T12:49:00Z</time>
      </trkpt>
      <trkpt lat="45.34646" lon="5.8763">
        <ele>1922</ele>
        <time>2022-03-06T12:49:02Z</time>
      </trkpt>
      <trkpt lat="45.34646" lon="5.8763">
        <ele>1918</ele>
        <time>2022-03-06T12:49:05Z</time>
      </trkpt>
      <trkpt lat="45.34645" lon="5.87634">
        <ele>1917</ele>
        <time>2022-03-06T12:49:06Z</time>
      </trkpt>
      <trkpt lat="45.34643" lon="5.87634">
        <ele>1916</ele>
        <time>2022-03-06T12:49:07Z</time>
      </trkpt>
      <trkpt lat="45.34645" lon="5.87638">
        <ele>1915</ele>
        <time>2022-03-06T12:49:09Z</time>
      </trkpt>
      <trkpt lat="45.34647" lon="5.87639">
        <ele>1915</ele>
        <time>2022-03-06T12:49:10Z</time>
      </trkpt>
      <trkpt lat="45.3465" lon="5.87639">
        <ele>1914</ele>
        <time>2022-03-06T12:49:11Z</time>
      </trkpt>
      <trkpt lat="45.34652" lon="5.87639">
        <ele>1913</ele>
        <time>2022-03-06T12:49:12Z</time>
      </trkpt>
      <trkpt lat="45.34655" lon="5.8764">
        <ele>1913</ele>
        <time>2022-03-06T12:49:13Z</time>
      </trkpt>
      <trkpt lat="45.34657" lon="5.87643">
        <ele>1912</ele>
        <time>2022-03-06T12:49:15Z</time>
      </trkpt>
      <trkpt lat="45.34654" lon="5.87646">
        <ele>1910</ele>
        <time>2022-03-06T12:49:17Z</time>
      </trkpt>
      <trkpt lat="45.34652" lon="5.87645">
        <ele>1909</ele>
        <time>2022-03-06T12:49:18Z</time>
      </trkpt>
      <trkpt lat="45.34649" lon="5.87645">
        <ele>1908</ele>
        <time>2022-03-06T12:49:19Z</time>
      </trkpt>
      <trkpt lat="45.34647" lon="5.87644">
        <ele>1908</ele>
        <time>2022-03-06T12:49:20Z</time>
      </trkpt>
      <trkpt lat="45.34645" lon="5.87645">
        <ele>1907</ele>
        <time>2022-03-06T12:49:21Z</time>
      </trkpt>
      <trkpt lat="45.34642" lon="5.87644">
        <ele>1906</ele>
        <time>2022-03-06T12:49:22Z</time>
      </trkpt>
      <trkpt lat="45.3464" lon="5.87644">
        <ele>1906</ele>
        <time>2022-03-06T12:49:23Z</time>
      </trkpt>
      <trkpt lat="45.34636" lon="5.87643">
        <ele>1905</ele>
        <time>2022-03-06T12:49:25Z</time>
      </trkpt>
      <trkpt lat="45.34633" lon="5.87643">
        <ele>1905</ele>
        <time>2022-03-06T12:49:26Z</time>
      </trkpt>
      <trkpt lat="45.3463" lon="5.87643">
        <ele>1904</ele>
        <time>2022-03-06T12:49:27Z</time>
      </trkpt>
      <trkpt lat="45.34628" lon="5.87643">
        <ele>1903</ele>
        <time>2022-03-06T12:49:28Z</time>
      </trkpt>
      <trkpt lat="45.34626" lon="5.87643">
        <ele>1903</ele>
        <time>2022-03-06T12:49:29Z</time>
      </trkpt>
      <trkpt lat="45.34623" lon="5.87643">
        <ele>1903</ele>
        <time>2022-03-06T12:49:30Z</time>
      </trkpt>
      <trkpt lat="45.3462" lon="5.87643">
        <ele>1903</ele>
        <time>2022-03-06T12:49:31Z</time>
      </trkpt>
      <trkpt lat="45.34617" lon="5.87644">
        <ele>1903</ele>
        <time>2022-03-06T12:49:32Z</time>
      </trkpt>
      <trkpt lat="45.34614" lon="5.87644">
        <ele>1903</ele>
        <time>2022-03-06T12:49:33Z</time>
      </trkpt>
      <trkpt lat="45.34611" lon="5.87643">
        <ele>1902</ele>
        <time>2022-03-06T12:49:34Z</time>
      </trkpt>
      <trkpt lat="45.34608" lon="5.87644">
        <ele>1902</ele>
        <time>2022-03-06T12:49:35Z</time>
      </trkpt>
      <trkpt lat="45.34605" lon="5.87644">
        <ele>1902</ele>
        <time>2022-03-06T12:49:36Z</time>
      </trkpt>
      <trkpt lat="45.34605" lon="5.87644">
        <ele>1900</ele>
        <time>2022-03-06T12:49:40Z</time>
      </trkpt>
      <trkpt lat="45.34607" lon="5.87647">
        <ele>1900</ele>
        <time>2022-03-06T12:49:41Z</time>
      </trkpt>
      <trkpt lat="45.34609" lon="5.8765">
        <ele>1899</ele>
        <time>2022-03-06T12:49:42Z</time>
      </trkpt>
      <trkpt lat="45.34611" lon="5.87652">
        <ele>1898</ele>
        <time>2022-03-06T12:49:43Z</time>
      </trkpt>
      <trkpt lat="45.34612" lon="5.87656">
        <ele>1897</ele>
        <time>2022-03-06T12:49:44Z</time>
      </trkpt>
      <trkpt lat="45.34611" lon="5.87658">
        <ele>1896</ele>
        <time>2022-03-06T12:49:45Z</time>
      </trkpt>
      <trkpt lat="45.34608" lon="5.87658">
        <ele>1895</ele>
        <time>2022-03-06T12:49:46Z</time>
      </trkpt>
      <trkpt lat="45.34605" lon="5.87658">
        <ele>1894</ele>
        <time>2022-03-06T12:49:47Z</time>
      </trkpt>
      <trkpt lat="45.34603" lon="5.8766">
        <ele>1893</ele>
        <time>2022-03-06T12:49:49Z</time>
      </trkpt>
      <trkpt lat="45.34605" lon="5.87663">
        <ele>1893</ele>
        <time>2022-03-06T12:49:51Z</time>
      </trkpt>
      <trkpt lat="45.34608" lon="5.87665">
        <ele>1892</ele>
        <time>2022-03-06T12:49:52Z</time>
      </trkpt>
      <trkpt lat="45.3461" lon="5.87667">
        <ele>1892</ele>
        <time>2022-03-06T12:49:53Z</time>
      </trkpt>
      <trkpt lat="45.34608" lon="5.8767">
        <ele>1890</ele>
        <time>2022-03-06T12:49:55Z</time>
      </trkpt>
      <trkpt lat="45.34605" lon="5.8767">
        <ele>1888</ele>
        <time>2022-03-06T12:49:57Z</time>
      </trkpt>
      <trkpt lat="45.34603" lon="5.8767">
        <ele>1888</ele>
        <time>2022-03-06T12:49:58Z</time>
      </trkpt>
      <trkpt lat="45.34601" lon="5.8767">
        <ele>1888</ele>
        <time>2022-03-06T12:49:59Z</time>
      </trkpt>
      <trkpt lat="45.346" lon="5.87672">
        <ele>1887</ele>
        <time>2022-03-06T12:50:00Z</time>
      </trkpt>
      <trkpt lat="45.34602" lon="5.87676">
        <ele>1886</ele>
        <time>2022-03-06T12:50:02Z</time>
      </trkpt>
      <trkpt lat="45.34604" lon="5.87679">
        <ele>1885</ele>
        <time>2022-03-06T12:50:03Z</time>
      </trkpt>
      <trkpt lat="45.34606" lon="5.87681">
        <ele>1884</ele>
        <time>2022-03-06T12:50:04Z</time>
      </trkpt>
      <trkpt lat="45.34607" lon="5.87684">
        <ele>1883</ele>
        <time>2022-03-06T12:50:05Z</time>
      </trkpt>
      <trkpt lat="45.34605" lon="5.87685">
        <ele>1882</ele>
        <time>2022-03-06T12:50:06Z</time>
      </trkpt>
      <trkpt lat="45.34603" lon="5.87686">
        <ele>1881</ele>
        <time>2022-03-06T12:50:07Z</time>
      </trkpt>
      <trkpt lat="45.34605" lon="5.87688">
        <ele>1880</ele>
        <time>2022-03-06T12:50:09Z</time>
      </trkpt>
      <trkpt lat="45.34606" lon="5.8769">
        <ele>1879</ele>
        <time>2022-03-06T12:50:10Z</time>
      </trkpt>
      <trkpt lat="45.34608" lon="5.87693">
        <ele>1878</ele>
        <time>2022-03-06T12:50:11Z</time>
      </trkpt>
      <trkpt lat="45.34609" lon="5.87696">
        <ele>1877</ele>
        <time>2022-03-06T12:50:12Z</time>
      </trkpt>
      <trkpt lat="45.34608" lon="5.87698">
        <ele>1875</ele>
        <time>2022-03-06T12:50:13Z</time>
      </trkpt>
      <trkpt lat="45.34604" lon="5.87698">
        <ele>1875</ele>
        <time>2022-03-06T12:50:14Z</time>
      </trkpt>
      <trkpt lat="45.34602" lon="5.87699">
        <ele>1874</ele>
        <time>2022-03-06T12:50:15Z</time>
      </trkpt>
      <trkpt lat="45.34599" lon="5.877">
        <ele>1874</ele>
        <time>2022-03-06T12:50:16Z</time>
      </trkpt>
      <trkpt lat="45.34601" lon="5.87704">
        <ele>1873</ele>
        <time>2022-03-06T12:50:18Z</time>
      </trkpt>
      <trkpt lat="45.34603" lon="5.87706">
        <ele>1872</ele>
        <time>2022-03-06T12:50:19Z</time>
      </trkpt>
      <trkpt lat="45.34606" lon="5.87709">
        <ele>1871</ele>
        <time>2022-03-06T12:50:20Z</time>
      </trkpt>
      <trkpt lat="45.34609" lon="5.87712">
        <ele>1870</ele>
        <time>2022-03-06T12:50:21Z</time>
      </trkpt>
      <trkpt lat="45.34612" lon="5.87715">
        <ele>1869</ele>
        <time>2022-03-06T12:50:22Z</time>
      </trkpt>
      <trkpt lat="45.34612" lon="5.87718">
        <ele>1869</ele>
        <time>2022-03-06T12:50:23Z</time>
      </trkpt>
      <trkpt lat="45.34611" lon="5.87721">
        <ele>1868</ele>
        <time>2022-03-06T12:50:24Z</time>
      </trkpt>
      <trkpt lat="45.34611" lon="5.87724">
        <ele>1867</ele>
        <time>2022-03-06T12:50:25Z</time>
      </trkpt>
      <trkpt lat="45.34612" lon="5.87728">
        <ele>1865</ele>
        <time>2022-03-06T12:50:26Z</time>
      </trkpt>
      <trkpt lat="45.34611" lon="5.87732">
        <ele>1864</ele>
        <time>2022-03-06T12:50:27Z</time>
      </trkpt>
      <trkpt lat="45.34608" lon="5.87734">
        <ele>1862</ele>
        <time>2022-03-06T12:50:28Z</time>
      </trkpt>
      <trkpt lat="45.34604" lon="5.87735">
        <ele>1861</ele>
        <time>2022-03-06T12:50:29Z</time>
      </trkpt>
      <trkpt lat="45.34602" lon="5.87735">
        <ele>1860</ele>
        <time>2022-03-06T12:50:30Z</time>
      </trkpt>
      <trkpt lat="45.34599" lon="5.87735">
        <ele>1859</ele>
        <time>2022-03-06T12:50:32Z</time>
      </trkpt>
      <trkpt lat="45.34596" lon="5.87734">
        <ele>1859</ele>
        <time>2022-03-06T12:50:33Z</time>
      </trkpt>
      <trkpt lat="45.34593" lon="5.87733">
        <ele>1859</ele>
        <time>2022-03-06T12:50:34Z</time>
      </trkpt>
      <trkpt lat="45.34591" lon="5.87732">
        <ele>1858</ele>
        <time>2022-03-06T12:50:35Z</time>
      </trkpt>
      <trkpt lat="45.34588" lon="5.87731">
        <ele>1858</ele>
        <time>2022-03-06T12:50:36Z</time>
      </trkpt>
      <trkpt lat="45.34585" lon="5.87731">
        <ele>1858</ele>
        <time>2022-03-06T12:50:37Z</time>
      </trkpt>
      <trkpt lat="45.34583" lon="5.87731">
        <ele>1857</ele>
        <time>2022-03-06T12:50:38Z</time>
      </trkpt>
      <trkpt lat="45.3458" lon="5.87731">
        <ele>1857</ele>
        <time>2022-03-06T12:50:39Z</time>
      </trkpt>
      <trkpt lat="45.34583" lon="5.8774">
        <ele>1855</ele>
        <time>2022-03-06T12:50:41Z</time>
      </trkpt>
      <trkpt lat="45.34584" lon="5.87742">
        <ele>1854</ele>
        <time>2022-03-06T12:50:42Z</time>
      </trkpt>
      <trkpt lat="45.34584" lon="5.87746">
        <ele>1852</ele>
        <time>2022-03-06T12:50:43Z</time>
      </trkpt>
      <trkpt lat="45.34582" lon="5.87749">
        <ele>1851</ele>
        <time>2022-03-06T12:50:44Z</time>
      </trkpt>
      <trkpt lat="45.34578" lon="5.87749">
        <ele>1850</ele>
        <time>2022-03-06T12:50:45Z</time>
      </trkpt>
      <trkpt lat="45.34576" lon="5.87749">
        <ele>1849</ele>
        <time>2022-03-06T12:50:46Z</time>
      </trkpt>
      <trkpt lat="45.34573" lon="5.87749">
        <ele>1848</ele>
        <time>2022-03-06T12:50:47Z</time>
      </trkpt>
      <trkpt lat="45.3457" lon="5.87751">
        <ele>1848</ele>
        <time>2022-03-06T12:50:49Z</time>
      </trkpt>
      <trkpt lat="45.34567" lon="5.87754">
        <ele>1848</ele>
        <time>2022-03-06T12:50:50Z</time>
      </trkpt>
      <trkpt lat="45.34564" lon="5.87757">
        <ele>1846</ele>
        <time>2022-03-06T12:50:51Z</time>
      </trkpt>
      <trkpt lat="45.3456" lon="5.87758">
        <ele>1845</ele>
        <time>2022-03-06T12:50:52Z</time>
      </trkpt>
      <trkpt lat="45.34557" lon="5.87759">
        <ele>1844</ele>
        <time>2022-03-06T12:50:53Z</time>
      </trkpt>
      <trkpt lat="45.34553" lon="5.87759">
        <ele>1844</ele>
        <time>2022-03-06T12:50:54Z</time>
      </trkpt>
      <trkpt lat="45.3455" lon="5.87759">
        <ele>1843</ele>
        <time>2022-03-06T12:50:55Z</time>
      </trkpt>
      <trkpt lat="45.34547" lon="5.87761">
        <ele>1842</ele>
        <time>2022-03-06T12:50:56Z</time>
      </trkpt>
      <trkpt lat="45.34542" lon="5.87762">
        <ele>1841</ele>
        <time>2022-03-06T12:50:57Z</time>
      </trkpt>
      <trkpt lat="45.34538" lon="5.87762">
        <ele>1840</ele>
        <time>2022-03-06T12:50:58Z</time>
      </trkpt>
      <trkpt lat="45.34534" lon="5.87765">
        <ele>1839</ele>
        <time>2022-03-06T12:50:59Z</time>
      </trkpt>
      <trkpt lat="45.34533" lon="5.87771">
        <ele>1838</ele>
        <time>2022-03-06T12:51:00Z</time>
      </trkpt>
      <trkpt lat="45.3453" lon="5.87775">
        <ele>1837</ele>
        <time>2022-03-06T12:51:01Z</time>
      </trkpt>
      <trkpt lat="45.34527" lon="5.87779">
        <ele>1836</ele>
        <time>2022-03-06T12:51:02Z</time>
      </trkpt>
      <trkpt lat="45.34523" lon="5.87783">
        <ele>1836</ele>
        <time>2022-03-06T12:51:03Z</time>
      </trkpt>
      <trkpt lat="45.34518" lon="5.87788">
        <ele>1836</ele>
        <time>2022-03-06T12:51:04Z</time>
      </trkpt>
      <trkpt lat="45.34514" lon="5.87793">
        <ele>1835</ele>
        <time>2022-03-06T12:51:05Z</time>
      </trkpt>
      <trkpt lat="45.34509" lon="5.87798">
        <ele>1834</ele>
        <time>2022-03-06T12:51:06Z</time>
      </trkpt>
      <trkpt lat="45.34505" lon="5.87803">
        <ele>1833</ele>
        <time>2022-03-06T12:51:07Z</time>
      </trkpt>
      <trkpt lat="45.345" lon="5.87808">
        <ele>1832</ele>
        <time>2022-03-06T12:51:08Z</time>
      </trkpt>
      <trkpt lat="45.34496" lon="5.87813">
        <ele>1832</ele>
        <time>2022-03-06T12:51:09Z</time>
      </trkpt>
      <trkpt lat="45.34491" lon="5.87816">
        <ele>1831</ele>
        <time>2022-03-06T12:51:10Z</time>
      </trkpt>
      <trkpt lat="45.34487" lon="5.8782">
        <ele>1830</ele>
        <time>2022-03-06T12:51:11Z</time>
      </trkpt>
      <trkpt lat="45.34483" lon="5.87822">
        <ele>1829</ele>
        <time>2022-03-06T12:51:12Z</time>
      </trkpt>
      <trkpt lat="45.3448" lon="5.87823">
        <ele>1829</ele>
        <time>2022-03-06T12:51:13Z</time>
      </trkpt>
      <trkpt lat="45.34477" lon="5.87825">
        <ele>1829</ele>
        <time>2022-03-06T12:51:14Z</time>
      </trkpt>
      <trkpt lat="45.34475" lon="5.87826">
        <ele>1829</ele>
        <time>2022-03-06T12:51:15Z</time>
      </trkpt>
      <trkpt lat="45.34473" lon="5.87827">
        <ele>1829</ele>
        <time>2022-03-06T12:51:17Z</time>
      </trkpt>
      <trkpt lat="45.34471" lon="5.8783">
        <ele>1829</ele>
        <time>2022-03-06T12:51:19Z</time>
      </trkpt>
      <trkpt lat="45.34471" lon="5.8783">
        <ele>1829</ele>
        <time>2022-03-06T12:51:21Z</time>
      </trkpt>
      <trkpt lat="45.34471" lon="5.8783">
        <ele>1829</ele>
        <time>2022-03-06T12:51:25Z</time>
      </trkpt>
      <trkpt lat="45.34471" lon="5.8783">
        <ele>1829</ele>
        <time>2022-03-06T12:51:29Z</time>
      </trkpt>
      <trkpt lat="45.34471" lon="5.8783">
        <ele>1829</ele>
        <time>2022-03-06T12:51:33Z</time>
      </trkpt>
      <trkpt lat="45.34471" lon="5.8783">
        <ele>1828</ele>
        <time>2022-03-06T12:51:37Z</time>
      </trkpt>
      <trkpt lat="45.34471" lon="5.8783">
        <ele>1828</ele>
        <time>2022-03-06T12:51:41Z</time>
      </trkpt>
      <trkpt lat="45.34471" lon="5.8783">
        <ele>1828</ele>
        <time>2022-03-06T12:51:45Z</time>
      </trkpt>
      <trkpt lat="45.34471" lon="5.8783">
        <ele>1829</ele>
        <time>2022-03-06T12:51:49Z</time>
      </trkpt>
      <trkpt lat="45.3447" lon="5.87827">
        <ele>1829</ele>
        <time>2022-03-06T12:51:53Z</time>
      </trkpt>
      <trkpt lat="45.3447" lon="5.87827">
        <ele>1829</ele>
        <time>2022-03-06T12:51:54Z</time>
      </trkpt>
      <trkpt lat="45.3447" lon="5.87827">
        <ele>1828</ele>
        <time>2022-03-06T12:51:58Z</time>
      </trkpt>
      <trkpt lat="45.3447" lon="5.87827">
        <ele>1829</ele>
        <time>2022-03-06T12:52:02Z</time>
      </trkpt>
      <trkpt lat="45.3447" lon="5.87827">
        <ele>1829</ele>
        <time>2022-03-06T12:52:06Z</time>
      </trkpt>
      <trkpt lat="45.3447" lon="5.87827">
        <ele>1829</ele>
        <time>2022-03-06T12:52:10Z</time>
      </trkpt>
      <trkpt lat="45.3447" lon="5.87827">
        <ele>1829</ele>
        <time>2022-03-06T12:52:14Z</time>
      </trkpt>
      <trkpt lat="45.3447" lon="5.87827">
        <ele>1829</ele>
        <time>2022-03-06T12:52:18Z</time>
      </trkpt>
      <trkpt lat="45.3447" lon="5.87827">
        <ele>1829</ele>
        <time>2022-03-06T12:52:22Z</time>
      </trkpt>
      <trkpt lat="45.3447" lon="5.87827">
        <ele>1829</ele>
        <time>2022-03-06T12:52:26Z</time>
      </trkpt>
      <trkpt lat="45.3447" lon="5.87827">
        <ele>1829</ele>
        <time>2022-03-06T12:52:30Z</time>
      </trkpt>
      <trkpt lat="45.3447" lon="5.87827">
        <ele>1829</ele>
        <time>2022-03-06T12:52:34Z</time>
      </trkpt>
      <trkpt lat="45.3447" lon="5.87827">
        <ele>1829</ele>
        <time>2022-03-06T12:52:38Z</time>
      </trkpt>
      <trkpt lat="45.3447" lon="5.87827">
        <ele>1829</ele>
        <time>2022-03-06T12:52:42Z</time>
      </trkpt>
      <trkpt lat="45.3447" lon="5.87827">
        <ele>1828</ele>
        <time>2022-03-06T12:52:46Z</time>
      </trkpt>
      <trkpt lat="45.3447" lon="5.87827">
        <ele>1828</ele>
        <time>2022-03-06T12:52:50Z</time>
      </trkpt>
      <trkpt lat="45.3447" lon="5.87827">
        <ele>1828</ele>
        <time>2022-03-06T12:52:54Z</time>
      </trkpt>
      <trkpt lat="45.3447" lon="5.87827">
        <ele>1828</ele>
        <time>2022-03-06T12:52:58Z</time>
      </trkpt>
      <trkpt lat="45.3447" lon="5.87827">
        <ele>1828</ele>
        <time>2022-03-06T12:53:02Z</time>
      </trkpt>
      <trkpt lat="45.3447" lon="5.87827">
        <ele>1828</ele>
        <time>2022-03-06T12:53:06Z</time>
      </trkpt>
      <trkpt lat="45.3447" lon="5.87827">
        <ele>1829</ele>
        <time>2022-03-06T12:53:10Z</time>
      </trkpt>
      <trkpt lat="45.3447" lon="5.87827">
        <ele>1829</ele>
        <time>2022-03-06T12:53:14Z</time>
      </trkpt>
      <trkpt lat="45.3447" lon="5.87827">
        <ele>1829</ele>
        <time>2022-03-06T12:53:18Z</time>
      </trkpt>
      <trkpt lat="45.3447" lon="5.87827">
        <ele>1829</ele>
        <time>2022-03-06T12:53:22Z</time>
      </trkpt>
      <trkpt lat="45.3447" lon="5.87827">
        <ele>1829</ele>
        <time>2022-03-06T12:53:26Z</time>
      </trkpt>
      <trkpt lat="45.3447" lon="5.87827">
        <ele>1829</ele>
        <time>2022-03-06T12:53:30Z</time>
      </trkpt>
      <trkpt lat="45.3447" lon="5.87827">
        <ele>1829</ele>
        <time>2022-03-06T12:53:34Z</time>
      </trkpt>
      <trkpt lat="45.3447" lon="5.87827">
        <ele>1829</ele>
        <time>2022-03-06T12:53:38Z</time>
      </trkpt>
      <trkpt lat="45.3447" lon="5.87827">
        <ele>1829</ele>
        <time>2022-03-06T12:53:42Z</time>
      </trkpt>
      <trkpt lat="45.34469" lon="5.87825">
        <ele>1829</ele>
        <time>2022-03-06T12:53:46Z</time>
      </trkpt>
      <trkpt lat="45.34469" lon="5.87825">
        <ele>1829</ele>
        <time>2022-03-06T12:53:47Z</time>
      </trkpt>
      <trkpt lat="45.34469" lon="5.87825">
        <ele>1829</ele>
        <time>2022-03-06T12:53:51Z</time>
      </trkpt>
      <trkpt lat="45.34469" lon="5.87825">
        <ele>1829</ele>
        <time>2022-03-06T12:53:55Z</time>
      </trkpt>
      <trkpt lat="45.34469" lon="5.87825">
        <ele>1829</ele>
        <time>2022-03-06T12:53:59Z</time>
      </trkpt>
      <trkpt lat="45.34467" lon="5.87826">
        <ele>1829</ele>
        <time>2022-03-06T12:54:00Z</time>
      </trkpt>
      <trkpt lat="45.34467" lon="5.87826">
        <ele>1829</ele>
        <time>2022-03-06T12:54:04Z</time>
      </trkpt>
      <trkpt lat="45.34467" lon="5.87826">
        <ele>1829</ele>
        <time>2022-03-06T12:54:08Z</time>
      </trkpt>
      <trkpt lat="45.34467" lon="5.87826">
        <ele>1829</ele>
        <time>2022-03-06T12:54:12Z</time>
      </trkpt>
      <trkpt lat="45.34467" lon="5.87826">
        <ele>1829</ele>
        <time>2022-03-06T12:54:16Z</time>
      </trkpt>
      <trkpt lat="45.34467" lon="5.87826">
        <ele>1829</ele>
        <time>2022-03-06T12:54:20Z</time>
      </trkpt>
      <trkpt lat="45.34467" lon="5.87826">
        <ele>1829</ele>
        <time>2022-03-06T12:54:24Z</time>
      </trkpt>
      <trkpt lat="45.34467" lon="5.87826">
        <ele>1829</ele>
        <time>2022-03-06T12:54:28Z</time>
      </trkpt>
      <trkpt lat="45.34467" lon="5.87826">
        <ele>1829</ele>
        <time>2022-03-06T12:54:32Z</time>
      </trkpt>
      <trkpt lat="45.34467" lon="5.87826">
        <ele>1829</ele>
        <time>2022-03-06T12:54:36Z</time>
      </trkpt>
      <trkpt lat="45.34467" lon="5.87826">
        <ele>1829</ele>
        <time>2022-03-06T12:54:40Z</time>
      </trkpt>
      <trkpt lat="45.34467" lon="5.87826">
        <ele>1829</ele>
        <time>2022-03-06T12:54:44Z</time>
      </trkpt>
      <trkpt lat="45.34467" lon="5.87826">
        <ele>1829</ele>
        <time>2022-03-06T12:54:48Z</time>
      </trkpt>
      <trkpt lat="45.34467" lon="5.87826">
        <ele>1828</ele>
        <time>2022-03-06T12:54:52Z</time>
      </trkpt>
      <trkpt lat="45.34465" lon="5.87824">
        <ele>1829</ele>
        <time>2022-03-06T12:54:55Z</time>
      </trkpt>
      <trkpt lat="45.34465" lon="5.87824">
        <ele>1829</ele>
        <time>2022-03-06T12:54:57Z</time>
      </trkpt>
      <trkpt lat="45.34463" lon="5.87821">
        <ele>1830</ele>
        <time>2022-03-06T12:54:58Z</time>
      </trkpt>
      <trkpt lat="45.34462" lon="5.87818">
        <ele>1830</ele>
        <time>2022-03-06T12:55:01Z</time>
      </trkpt>
      <trkpt lat="45.34461" lon="5.87816">
        <ele>1830</ele>
        <time>2022-03-06T12:55:03Z</time>
      </trkpt>
      <trkpt lat="45.3446" lon="5.87812">
        <ele>1832</ele>
        <time>2022-03-06T12:55:06Z</time>
      </trkpt>
      <trkpt lat="45.3446" lon="5.87812">
        <ele>1832</ele>
        <time>2022-03-06T12:55:07Z</time>
      </trkpt>
      <trkpt lat="45.34459" lon="5.87808">
        <ele>1831</ele>
        <time>2022-03-06T12:55:09Z</time>
      </trkpt>
      <trkpt lat="45.34459" lon="5.87808">
        <ele>1833</ele>
        <time>2022-03-06T12:55:12Z</time>
      </trkpt>
      <trkpt lat="45.34459" lon="5.87805">
        <ele>1833</ele>
        <time>2022-03-06T12:55:13Z</time>
      </trkpt>
      <trkpt lat="45.34458" lon="5.87802">
        <ele>1833</ele>
        <time>2022-03-06T12:55:15Z</time>
      </trkpt>
      <trkpt lat="45.34458" lon="5.87799">
        <ele>1833</ele>
        <time>2022-03-06T12:55:17Z</time>
      </trkpt>
      <trkpt lat="45.34458" lon="5.87797">
        <ele>1833</ele>
        <time>2022-03-06T12:55:19Z</time>
      </trkpt>
      <trkpt lat="45.34457" lon="5.87793">
        <ele>1834</ele>
        <time>2022-03-06T12:55:22Z</time>
      </trkpt>
      <trkpt lat="45.34457" lon="5.87793">
        <ele>1834</ele>
        <time>2022-03-06T12:55:23Z</time>
      </trkpt>
      <trkpt lat="45.34457" lon="5.8779">
        <ele>1834</ele>
        <time>2022-03-06T12:55:25Z</time>
      </trkpt>
      <trkpt lat="45.34457" lon="5.87786">
        <ele>1835</ele>
        <time>2022-03-06T12:55:28Z</time>
      </trkpt>
      <trkpt lat="45.34457" lon="5.87786">
        <ele>1835</ele>
        <time>2022-03-06T12:55:29Z</time>
      </trkpt>
      <trkpt lat="45.34457" lon="5.87783">
        <ele>1836</ele>
        <time>2022-03-06T12:55:31Z</time>
      </trkpt>
      <trkpt lat="45.34456" lon="5.87779">
        <ele>1836</ele>
        <time>2022-03-06T12:55:34Z</time>
      </trkpt>
      <trkpt lat="45.34456" lon="5.87779">
        <ele>1836</ele>
        <time>2022-03-06T12:55:35Z</time>
      </trkpt>
      <trkpt lat="45.34456" lon="5.87776">
        <ele>1836</ele>
        <time>2022-03-06T12:55:37Z</time>
      </trkpt>
      <trkpt lat="45.34456" lon="5.87773">
        <ele>1838</ele>
        <time>2022-03-06T12:55:40Z</time>
      </trkpt>
      <trkpt lat="45.34456" lon="5.87773">
        <ele>1838</ele>
        <time>2022-03-06T12:55:41Z</time>
      </trkpt>
      <trkpt lat="45.34455" lon="5.8777">
        <ele>1838</ele>
        <time>2022-03-06T12:55:43Z</time>
      </trkpt>
      <trkpt lat="45.34453" lon="5.87767">
        <ele>1838</ele>
        <time>2022-03-06T12:55:46Z</time>
      </trkpt>
      <trkpt lat="45.34453" lon="5.87767">
        <ele>1838</ele>
        <time>2022-03-06T12:55:47Z</time>
      </trkpt>
      <trkpt lat="45.34452" lon="5.87766">
        <ele>1839</ele>
        <time>2022-03-06T12:55:49Z</time>
      </trkpt>
      <trkpt lat="45.3445" lon="5.87764">
        <ele>1840</ele>
        <time>2022-03-06T12:55:52Z</time>
      </trkpt>
      <trkpt lat="45.3445" lon="5.87764">
        <ele>1840</ele>
        <time>2022-03-06T12:55:53Z</time>
      </trkpt>
      <trkpt lat="45.34448" lon="5.87762">
        <ele>1840</ele>
        <time>2022-03-06T12:55:55Z</time>
      </trkpt>
      <trkpt lat="45.34446" lon="5.8776">
        <ele>1841</ele>
        <time>2022-03-06T12:55:58Z</time>
      </trkpt>
      <trkpt lat="45.34446" lon="5.8776">
        <ele>1841</ele>
        <time>2022-03-06T12:55:59Z</time>
      </trkpt>
      <trkpt lat="45.34444" lon="5.87759">
        <ele>1841</ele>
        <time>2022-03-06T12:56:00Z</time>
      </trkpt>
      <trkpt lat="45.34441" lon="5.87758">
        <ele>1841</ele>
        <time>2022-03-06T12:56:03Z</time>
      </trkpt>
      <trkpt lat="45.3444" lon="5.87757">
        <ele>1841</ele>
        <time>2022-03-06T12:56:05Z</time>
      </trkpt>
      <trkpt lat="45.34437" lon="5.87755">
        <ele>1843</ele>
        <time>2022-03-06T12:56:08Z</time>
      </trkpt>
      <trkpt lat="45.34437" lon="5.87755">
        <ele>1843</ele>
        <time>2022-03-06T12:56:09Z</time>
      </trkpt>
      <trkpt lat="45.34436" lon="5.87753">
        <ele>1843</ele>
        <time>2022-03-06T12:56:11Z</time>
      </trkpt>
      <trkpt lat="45.34434" lon="5.87752">
        <ele>1844</ele>
        <time>2022-03-06T12:56:14Z</time>
      </trkpt>
      <trkpt lat="45.34434" lon="5.87752">
        <ele>1844</ele>
        <time>2022-03-06T12:56:15Z</time>
      </trkpt>
      <trkpt lat="45.34432" lon="5.87751">
        <ele>1844</ele>
        <time>2022-03-06T12:56:18Z</time>
      </trkpt>
      <trkpt lat="45.3443" lon="5.8775">
        <ele>1845</ele>
        <time>2022-03-06T12:56:20Z</time>
      </trkpt>
      <trkpt lat="45.34428" lon="5.8775">
        <ele>1845</ele>
        <time>2022-03-06T12:56:22Z</time>
      </trkpt>
      <trkpt lat="45.34428" lon="5.8775">
        <ele>1845</ele>
        <time>2022-03-06T12:56:24Z</time>
      </trkpt>
      <trkpt lat="45.34426" lon="5.87749">
        <ele>1845</ele>
        <time>2022-03-06T12:56:25Z</time>
      </trkpt>
      <trkpt lat="45.34424" lon="5.87748">
        <ele>1847</ele>
        <time>2022-03-06T12:56:28Z</time>
      </trkpt>
      <trkpt lat="45.34424" lon="5.87748">
        <ele>1846</ele>
        <time>2022-03-06T12:56:30Z</time>
      </trkpt>
      <trkpt lat="45.34422" lon="5.87746">
        <ele>1847</ele>
        <time>2022-03-06T12:56:31Z</time>
      </trkpt>
      <trkpt lat="45.3442" lon="5.87745">
        <ele>1847</ele>
        <time>2022-03-06T12:56:34Z</time>
      </trkpt>
      <trkpt lat="45.3442" lon="5.87745">
        <ele>1847</ele>
        <time>2022-03-06T12:56:36Z</time>
      </trkpt>
      <trkpt lat="45.34418" lon="5.87744">
        <ele>1848</ele>
        <time>2022-03-06T12:56:37Z</time>
      </trkpt>
      <trkpt lat="45.34416" lon="5.87743">
        <ele>1848</ele>
        <time>2022-03-06T12:56:40Z</time>
      </trkpt>
      <trkpt lat="45.34416" lon="5.87743">
        <ele>1849</ele>
        <time>2022-03-06T12:56:42Z</time>
      </trkpt>
      <trkpt lat="45.34413" lon="5.87742">
        <ele>1849</ele>
        <time>2022-03-06T12:56:44Z</time>
      </trkpt>
      <trkpt lat="45.34411" lon="5.87742">
        <ele>1850</ele>
        <time>2022-03-06T12:56:47Z</time>
      </trkpt>
      <trkpt lat="45.34411" lon="5.87742">
        <ele>1850</ele>
        <time>2022-03-06T12:56:48Z</time>
      </trkpt>
      <trkpt lat="45.34409" lon="5.87742">
        <ele>1850</ele>
        <time>2022-03-06T12:56:49Z</time>
      </trkpt>
      <trkpt lat="45.34409" lon="5.87742">
        <ele>1851</ele>
        <time>2022-03-06T12:56:53Z</time>
      </trkpt>
      <trkpt lat="45.34407" lon="5.87743">
        <ele>1851</ele>
        <time>2022-03-06T12:56:54Z</time>
      </trkpt>
      <trkpt lat="45.34405" lon="5.87744">
        <ele>1851</ele>
        <time>2022-03-06T12:56:56Z</time>
      </trkpt>
      <trkpt lat="45.34402" lon="5.87744">
        <ele>1853</ele>
        <time>2022-03-06T12:56:59Z</time>
      </trkpt>
      <trkpt lat="45.34402" lon="5.87744">
        <ele>1853</ele>
        <time>2022-03-06T12:57:00Z</time>
      </trkpt>
      <trkpt lat="45.34402" lon="5.87744">
        <ele>1853</ele>
        <time>2022-03-06T12:57:04Z</time>
      </trkpt>
      <trkpt lat="45.34402" lon="5.87741">
        <ele>1854</ele>
        <time>2022-03-06T12:57:05Z</time>
      </trkpt>
      <trkpt lat="45.34404" lon="5.87739">
        <ele>1854</ele>
        <time>2022-03-06T12:57:07Z</time>
      </trkpt>
      <trkpt lat="45.34405" lon="5.87736">
        <ele>1854</ele>
        <time>2022-03-06T12:57:10Z</time>
      </trkpt>
      <trkpt lat="45.34405" lon="5.87736">
        <ele>1854</ele>
        <time>2022-03-06T12:57:11Z</time>
      </trkpt>
      <trkpt lat="45.34406" lon="5.87733">
        <ele>1854</ele>
        <time>2022-03-06T12:57:13Z</time>
      </trkpt>
      <trkpt lat="45.34407" lon="5.87731">
        <ele>1855</ele>
        <time>2022-03-06T12:57:15Z</time>
      </trkpt>
      <trkpt lat="45.34408" lon="5.87729">
        <ele>1855</ele>
        <time>2022-03-06T12:57:17Z</time>
      </trkpt>
      <trkpt lat="45.34409" lon="5.87726">
        <ele>1855</ele>
        <time>2022-03-06T12:57:20Z</time>
      </trkpt>
      <trkpt lat="45.34409" lon="5.87726">
        <ele>1855</ele>
        <time>2022-03-06T12:57:21Z</time>
      </trkpt>
      <trkpt lat="45.3441" lon="5.87724">
        <ele>1856</ele>
        <time>2022-03-06T12:57:23Z</time>
      </trkpt>
      <trkpt lat="45.3441" lon="5.87724">
        <ele>1856</ele>
        <time>2022-03-06T12:57:26Z</time>
      </trkpt>
      <trkpt lat="45.34411" lon="5.87721">
        <ele>1856</ele>
        <time>2022-03-06T12:57:27Z</time>
      </trkpt>
      <trkpt lat="45.34413" lon="5.8772">
        <ele>1857</ele>
        <time>2022-03-06T12:57:30Z</time>
      </trkpt>
      <trkpt lat="45.34413" lon="5.8772">
        <ele>1858</ele>
        <time>2022-03-06T12:57:32Z</time>
      </trkpt>
      <trkpt lat="45.34414" lon="5.87717">
        <ele>1858</ele>
        <time>2022-03-06T12:57:35Z</time>
      </trkpt>
      <trkpt lat="45.34414" lon="5.87717">
        <ele>1859</ele>
        <time>2022-03-06T12:57:37Z</time>
      </trkpt>
      <trkpt lat="45.34416" lon="5.87716">
        <ele>1859</ele>
        <time>2022-03-06T12:57:38Z</time>
      </trkpt>
      <trkpt lat="45.34418" lon="5.87713">
        <ele>1859</ele>
        <time>2022-03-06T12:57:41Z</time>
      </trkpt>
      <trkpt lat="45.34418" lon="5.87713">
        <ele>1860</ele>
        <time>2022-03-06T12:57:43Z</time>
      </trkpt>
      <trkpt lat="45.3442" lon="5.87711">
        <ele>1860</ele>
        <time>2022-03-06T12:57:44Z</time>
      </trkpt>
      <trkpt lat="45.34421" lon="5.87709">
        <ele>1860</ele>
        <time>2022-03-06T12:57:47Z</time>
      </trkpt>
      <trkpt lat="45.34421" lon="5.87709">
        <ele>1860</ele>
        <time>2022-03-06T12:57:49Z</time>
      </trkpt>
      <trkpt lat="45.34421" lon="5.87709">
        <ele>1861</ele>
        <time>2022-03-06T12:57:53Z</time>
      </trkpt>
      <trkpt lat="45.34419" lon="5.87709">
        <ele>1861</ele>
        <time>2022-03-06T12:57:55Z</time>
      </trkpt>
      <trkpt lat="45.34416" lon="5.87709">
        <ele>1862</ele>
        <time>2022-03-06T12:57:58Z</time>
      </trkpt>
      <trkpt lat="45.34416" lon="5.87709">
        <ele>1862</ele>
        <time>2022-03-06T12:57:59Z</time>
      </trkpt>
      <trkpt lat="45.34414" lon="5.87708">
        <ele>1862</ele>
        <time>2022-03-06T12:58:00Z</time>
      </trkpt>
      <trkpt lat="45.34412" lon="5.87709">
        <ele>1862</ele>
        <time>2022-03-06T12:58:02Z</time>
      </trkpt>
      <trkpt lat="45.34409" lon="5.87709">
        <ele>1862</ele>
        <time>2022-03-06T12:58:05Z</time>
      </trkpt>
      <trkpt lat="45.34409" lon="5.87709">
        <ele>1862</ele>
        <time>2022-03-06T12:58:06Z</time>
      </trkpt>
      <trkpt lat="45.34407" lon="5.87709">
        <ele>1863</ele>
        <time>2022-03-06T12:58:08Z</time>
      </trkpt>
      <trkpt lat="45.34404" lon="5.87709">
        <ele>1863</ele>
        <time>2022-03-06T12:58:11Z</time>
      </trkpt>
      <trkpt lat="45.34404" lon="5.87709">
        <ele>1864</ele>
        <time>2022-03-06T12:58:12Z</time>
      </trkpt>
      <trkpt lat="45.34402" lon="5.8771">
        <ele>1864</ele>
        <time>2022-03-06T12:58:14Z</time>
      </trkpt>
      <trkpt lat="45.344" lon="5.8771">
        <ele>1865</ele>
        <time>2022-03-06T12:58:17Z</time>
      </trkpt>
      <trkpt lat="45.344" lon="5.8771">
        <ele>1865</ele>
        <time>2022-03-06T12:58:18Z</time>
      </trkpt>
      <trkpt lat="45.34398" lon="5.87712">
        <ele>1865</ele>
        <time>2022-03-06T12:58:20Z</time>
      </trkpt>
      <trkpt lat="45.34395" lon="5.87714">
        <ele>1866</ele>
        <time>2022-03-06T12:58:23Z</time>
      </trkpt>
      <trkpt lat="45.34395" lon="5.87714">
        <ele>1866</ele>
        <time>2022-03-06T12:58:24Z</time>
      </trkpt>
      <trkpt lat="45.34394" lon="5.87715">
        <ele>1867</ele>
        <time>2022-03-06T12:58:26Z</time>
      </trkpt>
      <trkpt lat="45.34392" lon="5.87718">
        <ele>1867</ele>
        <time>2022-03-06T12:58:29Z</time>
      </trkpt>
      <trkpt lat="45.34392" lon="5.87718">
        <ele>1867</ele>
        <time>2022-03-06T12:58:30Z</time>
      </trkpt>
      <trkpt lat="45.3439" lon="5.87719">
        <ele>1867</ele>
        <time>2022-03-06T12:58:32Z</time>
      </trkpt>
      <trkpt lat="45.34388" lon="5.87721">
        <ele>1868</ele>
        <time>2022-03-06T12:58:35Z</time>
      </trkpt>
      <trkpt lat="45.34388" lon="5.87721">
        <ele>1868</ele>
        <time>2022-03-06T12:58:36Z</time>
      </trkpt>
      <trkpt lat="45.34386" lon="5.87722">
        <ele>1868</ele>
        <time>2022-03-06T12:58:38Z</time>
      </trkpt>
      <trkpt lat="45.34384" lon="5.87724">
        <ele>1869</ele>
        <time>2022-03-06T12:58:41Z</time>
      </trkpt>
      <trkpt lat="45.34384" lon="5.87724">
        <ele>1869</ele>
        <time>2022-03-06T12:58:42Z</time>
      </trkpt>
      <trkpt lat="45.34382" lon="5.87725">
        <ele>1869</ele>
        <time>2022-03-06T12:58:44Z</time>
      </trkpt>
      <trkpt lat="45.3438" lon="5.87726">
        <ele>1870</ele>
        <time>2022-03-06T12:58:47Z</time>
      </trkpt>
      <trkpt lat="45.3438" lon="5.87726">
        <ele>1870</ele>
        <time>2022-03-06T12:58:48Z</time>
      </trkpt>
      <trkpt lat="45.34378" lon="5.87727">
        <ele>1871</ele>
        <time>2022-03-06T12:58:50Z</time>
      </trkpt>
      <trkpt lat="45.34376" lon="5.87728">
        <ele>1871</ele>
        <time>2022-03-06T12:58:53Z</time>
      </trkpt>
      <trkpt lat="45.34376" lon="5.87728">
        <ele>1871</ele>
        <time>2022-03-06T12:58:54Z</time>
      </trkpt>
      <trkpt lat="45.34374" lon="5.87729">
        <ele>1872</ele>
        <time>2022-03-06T12:58:56Z</time>
      </trkpt>
      <trkpt lat="45.34373" lon="5.8773">
        <ele>1872</ele>
        <time>2022-03-06T12:58:59Z</time>
      </trkpt>
      <trkpt lat="45.34373" lon="5.8773">
        <ele>1873</ele>
        <time>2022-03-06T12:59:00Z</time>
      </trkpt>
      <trkpt lat="45.34371" lon="5.87731">
        <ele>1873</ele>
        <time>2022-03-06T12:59:02Z</time>
      </trkpt>
      <trkpt lat="45.34369" lon="5.87731">
        <ele>1873</ele>
        <time>2022-03-06T12:59:05Z</time>
      </trkpt>
      <trkpt lat="45.34369" lon="5.87731">
        <ele>1873</ele>
        <time>2022-03-06T12:59:06Z</time>
      </trkpt>
      <trkpt lat="45.34367" lon="5.87732">
        <ele>1873</ele>
        <time>2022-03-06T12:59:08Z</time>
      </trkpt>
      <trkpt lat="45.34365" lon="5.87732">
        <ele>1874</ele>
        <time>2022-03-06T12:59:11Z</time>
      </trkpt>
      <trkpt lat="45.34365" lon="5.87732">
        <ele>1874</ele>
        <time>2022-03-06T12:59:12Z</time>
      </trkpt>
      <trkpt lat="45.34363" lon="5.87733">
        <ele>1875</ele>
        <time>2022-03-06T12:59:14Z</time>
      </trkpt>
      <trkpt lat="45.34361" lon="5.87733">
        <ele>1875</ele>
        <time>2022-03-06T12:59:17Z</time>
      </trkpt>
      <trkpt lat="45.34361" lon="5.87733">
        <ele>1875</ele>
        <time>2022-03-06T12:59:18Z</time>
      </trkpt>
      <trkpt lat="45.34359" lon="5.87734">
        <ele>1875</ele>
        <time>2022-03-06T12:59:20Z</time>
      </trkpt>
      <trkpt lat="45.34356" lon="5.87735">
        <ele>1875</ele>
        <time>2022-03-06T12:59:23Z</time>
      </trkpt>
      <trkpt lat="45.34356" lon="5.87735">
        <ele>1875</ele>
        <time>2022-03-06T12:59:24Z</time>
      </trkpt>
      <trkpt lat="45.34355" lon="5.87735">
        <ele>1875</ele>
        <time>2022-03-06T12:59:25Z</time>
      </trkpt>
      <trkpt lat="45.34352" lon="5.87737">
        <ele>1877</ele>
        <time>2022-03-06T12:59:28Z</time>
      </trkpt>
      <trkpt lat="45.34352" lon="5.87737">
        <ele>1877</ele>
        <time>2022-03-06T12:59:30Z</time>
      </trkpt>
      <trkpt lat="45.34349" lon="5.87738">
        <ele>1877</ele>
        <time>2022-03-06T12:59:31Z</time>
      </trkpt>
      <trkpt lat="45.34347" lon="5.87739">
        <ele>1877</ele>
        <time>2022-03-06T12:59:34Z</time>
      </trkpt>
      <trkpt lat="45.34347" lon="5.87739">
        <ele>1877</ele>
        <time>2022-03-06T12:59:36Z</time>
      </trkpt>
      <trkpt lat="45.34345" lon="5.8774">
        <ele>1878</ele>
        <time>2022-03-06T12:59:37Z</time>
      </trkpt>
      <trkpt lat="45.34345" lon="5.8774">
        <ele>1879</ele>
        <time>2022-03-06T12:59:41Z</time>
      </trkpt>
      <trkpt lat="45.34346" lon="5.87737">
        <ele>1879</ele>
        <time>2022-03-06T12:59:43Z</time>
      </trkpt>
      <trkpt lat="45.34347" lon="5.87734">
        <ele>1880</ele>
        <time>2022-03-06T12:59:45Z</time>
      </trkpt>
      <trkpt lat="45.34347" lon="5.87734">
        <ele>1880</ele>
        <time>2022-03-06T12:59:47Z</time>
      </trkpt>
      <trkpt lat="45.34348" lon="5.87731">
        <ele>1880</ele>
        <time>2022-03-06T12:59:48Z</time>
      </trkpt>
      <trkpt lat="45.34349" lon="5.87728">
        <ele>1880</ele>
        <time>2022-03-06T12:59:51Z</time>
      </trkpt>
      <trkpt lat="45.34349" lon="5.87728">
        <ele>1881</ele>
        <time>2022-03-06T12:59:53Z</time>
      </trkpt>
      <trkpt lat="45.3435" lon="5.87725">
        <ele>1881</ele>
        <time>2022-03-06T12:59:54Z</time>
      </trkpt>
      <trkpt lat="45.34351" lon="5.87723">
        <ele>1881</ele>
        <time>2022-03-06T12:59:57Z</time>
      </trkpt>
      <trkpt lat="45.34351" lon="5.87723">
        <ele>1881</ele>
        <time>2022-03-06T12:59:59Z</time>
      </trkpt>
      <trkpt lat="45.34352" lon="5.87719">
        <ele>1881</ele>
        <time>2022-03-06T13:00:00Z</time>
      </trkpt>
      <trkpt lat="45.34354" lon="5.87717">
        <ele>1882</ele>
        <time>2022-03-06T13:00:03Z</time>
      </trkpt>
      <trkpt lat="45.34354" lon="5.87717">
        <ele>1882</ele>
        <time>2022-03-06T13:00:05Z</time>
      </trkpt>
      <trkpt lat="45.34355" lon="5.87714">
        <ele>1882</ele>
        <time>2022-03-06T13:00:06Z</time>
      </trkpt>
      <trkpt lat="45.34356" lon="5.87712">
        <ele>1883</ele>
        <time>2022-03-06T13:00:09Z</time>
      </trkpt>
      <trkpt lat="45.34356" lon="5.87712">
        <ele>1883</ele>
        <time>2022-03-06T13:00:11Z</time>
      </trkpt>
      <trkpt lat="45.34357" lon="5.87709">
        <ele>1883</ele>
        <time>2022-03-06T13:00:12Z</time>
      </trkpt>
      <trkpt lat="45.34357" lon="5.87706">
        <ele>1884</ele>
        <time>2022-03-06T13:00:15Z</time>
      </trkpt>
      <trkpt lat="45.34357" lon="5.87706">
        <ele>1884</ele>
        <time>2022-03-06T13:00:17Z</time>
      </trkpt>
      <trkpt lat="45.34359" lon="5.87703">
        <ele>1885</ele>
        <time>2022-03-06T13:00:18Z</time>
      </trkpt>
      <trkpt lat="45.3436" lon="5.87701">
        <ele>1885</ele>
        <time>2022-03-06T13:00:21Z</time>
      </trkpt>
      <trkpt lat="45.3436" lon="5.87701">
        <ele>1886</ele>
        <time>2022-03-06T13:00:23Z</time>
      </trkpt>
      <trkpt lat="45.34361" lon="5.87698">
        <ele>1886</ele>
        <time>2022-03-06T13:00:24Z</time>
      </trkpt>
      <trkpt lat="45.34361" lon="5.87695">
        <ele>1886</ele>
        <time>2022-03-06T13:00:28Z</time>
      </trkpt>
      <trkpt lat="45.34361" lon="5.87695">
        <ele>1886</ele>
        <time>2022-03-06T13:00:29Z</time>
      </trkpt>
      <trkpt lat="45.34361" lon="5.87695">
        <ele>1886</ele>
        <time>2022-03-06T13:00:33Z</time>
      </trkpt>
      <trkpt lat="45.34359" lon="5.87696">
        <ele>1886</ele>
        <time>2022-03-06T13:00:34Z</time>
      </trkpt>
      <trkpt lat="45.34357" lon="5.87698">
        <ele>1888</ele>
        <time>2022-03-06T13:00:37Z</time>
      </trkpt>
      <trkpt lat="45.34357" lon="5.87698">
        <ele>1888</ele>
        <time>2022-03-06T13:00:39Z</time>
      </trkpt>
      <trkpt lat="45.34354" lon="5.87699">
        <ele>1888</ele>
        <time>2022-03-06T13:00:40Z</time>
      </trkpt>
      <trkpt lat="45.34352" lon="5.877">
        <ele>1888</ele>
        <time>2022-03-06T13:00:43Z</time>
      </trkpt>
      <trkpt lat="45.34352" lon="5.877">
        <ele>1889</ele>
        <time>2022-03-06T13:00:45Z</time>
      </trkpt>
      <trkpt lat="45.34349" lon="5.87701">
        <ele>1889</ele>
        <time>2022-03-06T13:00:46Z</time>
      </trkpt>
      <trkpt lat="45.34347" lon="5.87703">
        <ele>1890</ele>
        <time>2022-03-06T13:00:49Z</time>
      </trkpt>
      <trkpt lat="45.34347" lon="5.87703">
        <ele>1890</ele>
        <time>2022-03-06T13:00:51Z</time>
      </trkpt>
      <trkpt lat="45.34345" lon="5.87704">
        <ele>1891</ele>
        <time>2022-03-06T13:00:52Z</time>
      </trkpt>
      <trkpt lat="45.34343" lon="5.87705">
        <ele>1891</ele>
        <time>2022-03-06T13:00:55Z</time>
      </trkpt>
      <trkpt lat="45.34343" lon="5.87705">
        <ele>1891</ele>
        <time>2022-03-06T13:00:57Z</time>
      </trkpt>
      <trkpt lat="45.3434" lon="5.87707">
        <ele>1892</ele>
        <time>2022-03-06T13:00:58Z</time>
      </trkpt>
      <trkpt lat="45.34339" lon="5.87708">
        <ele>1892</ele>
        <time>2022-03-06T13:01:01Z</time>
      </trkpt>
      <trkpt lat="45.34339" lon="5.87708">
        <ele>1893</ele>
        <time>2022-03-06T13:01:03Z</time>
      </trkpt>
      <trkpt lat="45.34336" lon="5.87709">
        <ele>1893</ele>
        <time>2022-03-06T13:01:04Z</time>
      </trkpt>
      <trkpt lat="45.34334" lon="5.8771">
        <ele>1893</ele>
        <time>2022-03-06T13:01:06Z</time>
      </trkpt>
      <trkpt lat="45.34332" lon="5.87712">
        <ele>1893</ele>
        <time>2022-03-06T13:01:09Z</time>
      </trkpt>
      <trkpt lat="45.34332" lon="5.87712">
        <ele>1893</ele>
        <time>2022-03-06T13:01:10Z</time>
      </trkpt>
      <trkpt lat="45.3433" lon="5.87714">
        <ele>1894</ele>
        <time>2022-03-06T13:01:12Z</time>
      </trkpt>
      <trkpt lat="45.34327" lon="5.87715">
        <ele>1895</ele>
        <time>2022-03-06T13:01:15Z</time>
      </trkpt>
      <trkpt lat="45.34327" lon="5.87715">
        <ele>1895</ele>
        <time>2022-03-06T13:01:16Z</time>
      </trkpt>
      <trkpt lat="45.34325" lon="5.87717">
        <ele>1896</ele>
        <time>2022-03-06T13:01:19Z</time>
      </trkpt>
      <trkpt lat="45.34325" lon="5.87717">
        <ele>1897</ele>
        <time>2022-03-06T13:01:21Z</time>
      </trkpt>
      <trkpt lat="45.34323" lon="5.87717">
        <ele>1897</ele>
        <time>2022-03-06T13:01:24Z</time>
      </trkpt>
      <trkpt lat="45.34323" lon="5.87717">
        <ele>1897</ele>
        <time>2022-03-06T13:01:26Z</time>
      </trkpt>
      <trkpt lat="45.34321" lon="5.87718">
        <ele>1897</ele>
        <time>2022-03-06T13:01:27Z</time>
      </trkpt>
      <trkpt lat="45.34319" lon="5.87718">
        <ele>1898</ele>
        <time>2022-03-06T13:01:31Z</time>
      </trkpt>
      <trkpt lat="45.34319" lon="5.87718">
        <ele>1898</ele>
        <time>2022-03-06T13:01:32Z</time>
      </trkpt>
      <trkpt lat="45.34317" lon="5.87719">
        <ele>1898</ele>
        <time>2022-03-06T13:01:35Z</time>
      </trkpt>
      <trkpt lat="45.34317" lon="5.87719">
        <ele>1899</ele>
        <time>2022-03-06T13:01:37Z</time>
      </trkpt>
      <trkpt lat="45.34317" lon="5.87719">
        <ele>1900</ele>
        <time>2022-03-06T13:01:41Z</time>
      </trkpt>
      <trkpt lat="45.34317" lon="5.87719">
        <ele>1900</ele>
        <time>2022-03-06T13:01:45Z</time>
      </trkpt>
      <trkpt lat="45.34317" lon="5.87719">
        <ele>1900</ele>
        <time>2022-03-06T13:01:49Z</time>
      </trkpt>
      <trkpt lat="45.34316" lon="5.8772">
        <ele>1900</ele>
        <time>2022-03-06T13:01:52Z</time>
      </trkpt>
      <trkpt lat="45.34316" lon="5.8772">
        <ele>1900</ele>
        <time>2022-03-06T13:01:54Z</time>
      </trkpt>
      <trkpt lat="45.34314" lon="5.8772">
        <ele>1900</ele>
        <time>2022-03-06T13:01:55Z</time>
      </trkpt>
      <trkpt lat="45.34312" lon="5.87721">
        <ele>1900</ele>
        <time>2022-03-06T13:01:58Z</time>
      </trkpt>
      <trkpt lat="45.34312" lon="5.87721">
        <ele>1901</ele>
        <time>2022-03-06T13:02:00Z</time>
      </trkpt>
      <trkpt lat="45.3431" lon="5.87722">
        <ele>1902</ele>
        <time>2022-03-06T13:02:01Z</time>
      </trkpt>
      <trkpt lat="45.34308" lon="5.87722">
        <ele>1902</ele>
        <time>2022-03-06T13:02:04Z</time>
      </trkpt>
      <trkpt lat="45.34308" lon="5.87722">
        <ele>1902</ele>
        <time>2022-03-06T13:02:06Z</time>
      </trkpt>
      <trkpt lat="45.34308" lon="5.87722">
        <ele>1903</ele>
        <time>2022-03-06T13:02:10Z</time>
      </trkpt>
      <trkpt lat="45.34307" lon="5.8772">
        <ele>1903</ele>
        <time>2022-03-06T13:02:13Z</time>
      </trkpt>
      <trkpt lat="45.34307" lon="5.8772">
        <ele>1903</ele>
        <time>2022-03-06T13:02:15Z</time>
      </trkpt>
      <trkpt lat="45.34308" lon="5.87718">
        <ele>1903</ele>
        <time>2022-03-06T13:02:16Z</time>
      </trkpt>
      <trkpt lat="45.34309" lon="5.87715">
        <ele>1904</ele>
        <time>2022-03-06T13:02:19Z</time>
      </trkpt>
      <trkpt lat="45.34309" lon="5.87715">
        <ele>1904</ele>
        <time>2022-03-06T13:02:21Z</time>
      </trkpt>
      <trkpt lat="45.3431" lon="5.87713">
        <ele>1904</ele>
        <time>2022-03-06T13:02:22Z</time>
      </trkpt>
      <trkpt lat="45.34311" lon="5.87711">
        <ele>1905</ele>
        <time>2022-03-06T13:02:25Z</time>
      </trkpt>
      <trkpt lat="45.34311" lon="5.87711">
        <ele>1905</ele>
        <time>2022-03-06T13:02:27Z</time>
      </trkpt>
      <trkpt lat="45.34312" lon="5.87707">
        <ele>1906</ele>
        <time>2022-03-06T13:02:29Z</time>
      </trkpt>
      <trkpt lat="45.34312" lon="5.87707">
        <ele>1906</ele>
        <time>2022-03-06T13:02:32Z</time>
      </trkpt>
      <trkpt lat="45.34313" lon="5.87704">
        <ele>1906</ele>
        <time>2022-03-06T13:02:33Z</time>
      </trkpt>
      <trkpt lat="45.34314" lon="5.87702">
        <ele>1907</ele>
        <time>2022-03-06T13:02:36Z</time>
      </trkpt>
      <trkpt lat="45.34314" lon="5.87702">
        <ele>1908</ele>
        <time>2022-03-06T13:02:38Z</time>
      </trkpt>
      <trkpt lat="45.34315" lon="5.87699">
        <ele>1908</ele>
        <time>2022-03-06T13:02:39Z</time>
      </trkpt>
      <trkpt lat="45.34317" lon="5.87697">
        <ele>1909</ele>
        <time>2022-03-06T13:02:43Z</time>
      </trkpt>
      <trkpt lat="45.34317" lon="5.87697">
        <ele>1909</ele>
        <time>2022-03-06T13:02:44Z</time>
      </trkpt>
      <trkpt lat="45.34317" lon="5.87694">
        <ele>1909</ele>
        <time>2022-03-06T13:02:46Z</time>
      </trkpt>
      <trkpt lat="45.34317" lon="5.87694">
        <ele>1910</ele>
        <time>2022-03-06T13:02:49Z</time>
      </trkpt>
      <trkpt lat="45.34317" lon="5.87694">
        <ele>1910</ele>
        <time>2022-03-06T13:02:53Z</time>
      </trkpt>
      <trkpt lat="45.34316" lon="5.87693">
        <ele>1910</ele>
        <time>2022-03-06T13:02:57Z</time>
      </trkpt>
      <trkpt lat="45.34316" lon="5.87693">
        <ele>1910</ele>
        <time>2022-03-06T13:02:58Z</time>
      </trkpt>
      <trkpt lat="45.34313" lon="5.87695">
        <ele>1910</ele>
        <time>2022-03-06T13:03:00Z</time>
      </trkpt>
      <trkpt lat="45.34311" lon="5.87696">
        <ele>1911</ele>
        <time>2022-03-06T13:03:03Z</time>
      </trkpt>
      <trkpt lat="45.34311" lon="5.87696">
        <ele>1911</ele>
        <time>2022-03-06T13:03:04Z</time>
      </trkpt>
      <trkpt lat="45.3431" lon="5.87697">
        <ele>1912</ele>
        <time>2022-03-06T13:03:06Z</time>
      </trkpt>
      <trkpt lat="45.34307" lon="5.87698">
        <ele>1912</ele>
        <time>2022-03-06T13:03:09Z</time>
      </trkpt>
      <trkpt lat="45.34307" lon="5.87698">
        <ele>1913</ele>
        <time>2022-03-06T13:03:10Z</time>
      </trkpt>
      <trkpt lat="45.34305" lon="5.87699">
        <ele>1913</ele>
        <time>2022-03-06T13:03:12Z</time>
      </trkpt>
      <trkpt lat="45.34303" lon="5.877">
        <ele>1914</ele>
        <time>2022-03-06T13:03:15Z</time>
      </trkpt>
      <trkpt lat="45.34303" lon="5.877">
        <ele>1914</ele>
        <time>2022-03-06T13:03:16Z</time>
      </trkpt>
      <trkpt lat="45.34301" lon="5.87701">
        <ele>1914</ele>
        <time>2022-03-06T13:03:18Z</time>
      </trkpt>
      <trkpt lat="45.34299" lon="5.87702">
        <ele>1915</ele>
        <time>2022-03-06T13:03:21Z</time>
      </trkpt>
      <trkpt lat="45.34299" lon="5.87702">
        <ele>1915</ele>
        <time>2022-03-06T13:03:22Z</time>
      </trkpt>
      <trkpt lat="45.34297" lon="5.87703">
        <ele>1915</ele>
        <time>2022-03-06T13:03:24Z</time>
      </trkpt>
      <trkpt lat="45.34295" lon="5.87704">
        <ele>1916</ele>
        <time>2022-03-06T13:03:27Z</time>
      </trkpt>
      <trkpt lat="45.34295" lon="5.87704">
        <ele>1916</ele>
        <time>2022-03-06T13:03:28Z</time>
      </trkpt>
      <trkpt lat="45.34293" lon="5.87705">
        <ele>1916</ele>
        <time>2022-03-06T13:03:30Z</time>
      </trkpt>
      <trkpt lat="45.34292" lon="5.87707">
        <ele>1917</ele>
        <time>2022-03-06T13:03:33Z</time>
      </trkpt>
      <trkpt lat="45.34292" lon="5.87707">
        <ele>1917</ele>
        <time>2022-03-06T13:03:34Z</time>
      </trkpt>
      <trkpt lat="45.34292" lon="5.87707">
        <ele>1919</ele>
        <time>2022-03-06T13:03:38Z</time>
      </trkpt>
      <trkpt lat="45.34292" lon="5.87707">
        <ele>1919</ele>
        <time>2022-03-06T13:03:42Z</time>
      </trkpt>
      <trkpt lat="45.34292" lon="5.87704">
        <ele>1919</ele>
        <time>2022-03-06T13:03:43Z</time>
      </trkpt>
      <trkpt lat="45.34292" lon="5.87701">
        <ele>1920</ele>
        <time>2022-03-06T13:03:46Z</time>
      </trkpt>
      <trkpt lat="45.34292" lon="5.87701">
        <ele>1920</ele>
        <time>2022-03-06T13:03:48Z</time>
      </trkpt>
      <trkpt lat="45.34293" lon="5.87698">
        <ele>1920</ele>
        <time>2022-03-06T13:03:49Z</time>
      </trkpt>
      <trkpt lat="45.34293" lon="5.87695">
        <ele>1920</ele>
        <time>2022-03-06T13:03:52Z</time>
      </trkpt>
      <trkpt lat="45.34293" lon="5.87695">
        <ele>1921</ele>
        <time>2022-03-06T13:03:54Z</time>
      </trkpt>
      <trkpt lat="45.34294" lon="5.87692">
        <ele>1921</ele>
        <time>2022-03-06T13:03:56Z</time>
      </trkpt>
      <trkpt lat="45.34294" lon="5.87692">
        <ele>1921</ele>
        <time>2022-03-06T13:03:59Z</time>
      </trkpt>
      <trkpt lat="45.34294" lon="5.87692">
        <ele>1922</ele>
        <time>2022-03-06T13:04:03Z</time>
      </trkpt>
      <trkpt lat="45.34294" lon="5.87692">
        <ele>1922</ele>
        <time>2022-03-06T13:04:07Z</time>
      </trkpt>
      <trkpt lat="45.34292" lon="5.87694">
        <ele>1922</ele>
        <time>2022-03-06T13:04:08Z</time>
      </trkpt>
      <trkpt lat="45.3429" lon="5.87696">
        <ele>1922</ele>
        <time>2022-03-06T13:04:11Z</time>
      </trkpt>
      <trkpt lat="45.3429" lon="5.87696">
        <ele>1923</ele>
        <time>2022-03-06T13:04:13Z</time>
      </trkpt>
      <trkpt lat="45.34288" lon="5.87697">
        <ele>1923</ele>
        <time>2022-03-06T13:04:14Z</time>
      </trkpt>
      <trkpt lat="45.34287" lon="5.87699">
        <ele>1924</ele>
        <time>2022-03-06T13:04:17Z</time>
      </trkpt>
      <trkpt lat="45.34287" lon="5.87699">
        <ele>1924</ele>
        <time>2022-03-06T13:04:19Z</time>
      </trkpt>
      <trkpt lat="45.34285" lon="5.87701">
        <ele>1924</ele>
        <time>2022-03-06T13:04:20Z</time>
      </trkpt>
      <trkpt lat="45.34284" lon="5.87703">
        <ele>1924</ele>
        <time>2022-03-06T13:04:23Z</time>
      </trkpt>
      <trkpt lat="45.34284" lon="5.87703">
        <ele>1924</ele>
        <time>2022-03-06T13:04:25Z</time>
      </trkpt>
      <trkpt lat="45.34282" lon="5.87704">
        <ele>1925</ele>
        <time>2022-03-06T13:04:26Z</time>
      </trkpt>
      <trkpt lat="45.34282" lon="5.87704">
        <ele>1926</ele>
        <time>2022-03-06T13:04:30Z</time>
      </trkpt>
      <trkpt lat="45.34283" lon="5.87701">
        <ele>1926</ele>
        <time>2022-03-06T13:04:34Z</time>
      </trkpt>
      <trkpt lat="45.34283" lon="5.87701">
        <ele>1926</ele>
        <time>2022-03-06T13:04:35Z</time>
      </trkpt>
      <trkpt lat="45.34284" lon="5.87698">
        <ele>1926</ele>
        <time>2022-03-06T13:04:37Z</time>
      </trkpt>
      <trkpt lat="45.34284" lon="5.87695">
        <ele>1927</ele>
        <time>2022-03-06T13:04:40Z</time>
      </trkpt>
      <trkpt lat="45.34284" lon="5.87695">
        <ele>1927</ele>
        <time>2022-03-06T13:04:41Z</time>
      </trkpt>
      <trkpt lat="45.34284" lon="5.87695">
        <ele>1927</ele>
        <time>2022-03-06T13:04:45Z</time>
      </trkpt>
      <trkpt lat="45.34284" lon="5.87695">
        <ele>1927</ele>
        <time>2022-03-06T13:04:49Z</time>
      </trkpt>
      <trkpt lat="45.34282" lon="5.87697">
        <ele>1927</ele>
        <time>2022-03-06T13:04:52Z</time>
      </trkpt>
      <trkpt lat="45.34282" lon="5.87697">
        <ele>1927</ele>
        <time>2022-03-06T13:04:54Z</time>
      </trkpt>
      <trkpt lat="45.34281" lon="5.87699">
        <ele>1927</ele>
        <time>2022-03-06T13:04:55Z</time>
      </trkpt>
      <trkpt lat="45.3428" lon="5.87701">
        <ele>1928</ele>
        <time>2022-03-06T13:04:58Z</time>
      </trkpt>
      <trkpt lat="45.3428" lon="5.87701">
        <ele>1928</ele>
        <time>2022-03-06T13:05:00Z</time>
      </trkpt>
      <trkpt lat="45.34278" lon="5.87702">
        <ele>1928</ele>
        <time>2022-03-06T13:05:01Z</time>
      </trkpt>
      <trkpt lat="45.34277" lon="5.87704">
        <ele>1930</ele>
        <time>2022-03-06T13:05:04Z</time>
      </trkpt>
      <trkpt lat="45.34277" lon="5.87704">
        <ele>1930</ele>
        <time>2022-03-06T13:05:06Z</time>
      </trkpt>
      <trkpt lat="45.34277" lon="5.87704">
        <ele>1931</ele>
        <time>2022-03-06T13:05:10Z</time>
      </trkpt>
      <trkpt lat="45.34277" lon="5.87704">
        <ele>1931</ele>
        <time>2022-03-06T13:05:14Z</time>
      </trkpt>
      <trkpt lat="45.34277" lon="5.87704">
        <ele>1932</ele>
        <time>2022-03-06T13:05:18Z</time>
      </trkpt>
      <trkpt lat="45.34277" lon="5.87701">
        <ele>1932</ele>
        <time>2022-03-06T13:05:20Z</time>
      </trkpt>
      <trkpt lat="45.34277" lon="5.87701">
        <ele>1932</ele>
        <time>2022-03-06T13:05:23Z</time>
      </trkpt>
      <trkpt lat="45.34277" lon="5.87697">
        <ele>1932</ele>
        <time>2022-03-06T13:05:24Z</time>
      </trkpt>
      <trkpt lat="45.34277" lon="5.87695">
        <ele>1932</ele>
        <time>2022-03-06T13:05:26Z</time>
      </trkpt>
      <trkpt lat="45.34276" lon="5.87692">
        <ele>1932</ele>
        <time>2022-03-06T13:05:29Z</time>
      </trkpt>
      <trkpt lat="45.34276" lon="5.87692">
        <ele>1932</ele>
        <time>2022-03-06T13:05:30Z</time>
      </trkpt>
      <trkpt lat="45.34276" lon="5.87689">
        <ele>1932</ele>
        <time>2022-03-06T13:05:32Z</time>
      </trkpt>
      <trkpt lat="45.34276" lon="5.87689">
        <ele>1933</ele>
        <time>2022-03-06T13:05:35Z</time>
      </trkpt>
      <trkpt lat="45.34276" lon="5.87689">
        <ele>1933</ele>
        <time>2022-03-06T13:05:39Z</time>
      </trkpt>
      <trkpt lat="45.34275" lon="5.87691">
        <ele>1933</ele>
        <time>2022-03-06T13:05:41Z</time>
      </trkpt>
      <trkpt lat="45.34274" lon="5.87694">
        <ele>1934</ele>
        <time>2022-03-06T13:05:44Z</time>
      </trkpt>
      <trkpt lat="45.34274" lon="5.87694">
        <ele>1934</ele>
        <time>2022-03-06T13:05:45Z</time>
      </trkpt>
      <trkpt lat="45.34272" lon="5.87696">
        <ele>1934</ele>
        <time>2022-03-06T13:05:47Z</time>
      </trkpt>
      <trkpt lat="45.34271" lon="5.87698">
        <ele>1935</ele>
        <time>2022-03-06T13:05:50Z</time>
      </trkpt>
      <trkpt lat="45.34271" lon="5.87698">
        <ele>1935</ele>
        <time>2022-03-06T13:05:51Z</time>
      </trkpt>
      <trkpt lat="45.3427" lon="5.877">
        <ele>1936</ele>
        <time>2022-03-06T13:05:54Z</time>
      </trkpt>
      <trkpt lat="45.3427" lon="5.877">
        <ele>1936</ele>
        <time>2022-03-06T13:05:56Z</time>
      </trkpt>
      <trkpt lat="45.3427" lon="5.877">
        <ele>1936</ele>
        <time>2022-03-06T13:06:00Z</time>
      </trkpt>
      <trkpt lat="45.3427" lon="5.877">
        <ele>1936</ele>
        <time>2022-03-06T13:06:04Z</time>
      </trkpt>
      <trkpt lat="45.34268" lon="5.87701">
        <ele>1937</ele>
        <time>2022-03-06T13:06:06Z</time>
      </trkpt>
      <trkpt lat="45.34268" lon="5.87701">
        <ele>1938</ele>
        <time>2022-03-06T13:06:09Z</time>
      </trkpt>
      <trkpt lat="45.34268" lon="5.87701">
        <ele>1938</ele>
        <time>2022-03-06T13:06:13Z</time>
      </trkpt>
      <trkpt lat="45.34269" lon="5.87699">
        <ele>1938</ele>
        <time>2022-03-06T13:06:15Z</time>
      </trkpt>
      <trkpt lat="45.34269" lon="5.87699">
        <ele>1938</ele>
        <time>2022-03-06T13:06:18Z</time>
      </trkpt>
      <trkpt lat="45.34269" lon="5.87696">
        <ele>1938</ele>
        <time>2022-03-06T13:06:19Z</time>
      </trkpt>
      <trkpt lat="45.34269" lon="5.87696">
        <ele>1938</ele>
        <time>2022-03-06T13:06:23Z</time>
      </trkpt>
      <trkpt lat="45.34269" lon="5.87696">
        <ele>1938</ele>
        <time>2022-03-06T13:06:27Z</time>
      </trkpt>
      <trkpt lat="45.34269" lon="5.87692">
        <ele>1938</ele>
        <time>2022-03-06T13:06:28Z</time>
      </trkpt>
      <trkpt lat="45.34269" lon="5.8769">
        <ele>1938</ele>
        <time>2022-03-06T13:06:31Z</time>
      </trkpt>
      <trkpt lat="45.34269" lon="5.8769">
        <ele>1939</ele>
        <time>2022-03-06T13:06:33Z</time>
      </trkpt>
      <trkpt lat="45.34269" lon="5.87687">
        <ele>1939</ele>
        <time>2022-03-06T13:06:34Z</time>
      </trkpt>
      <trkpt lat="45.3427" lon="5.87684">
        <ele>1940</ele>
        <time>2022-03-06T13:06:38Z</time>
      </trkpt>
      <trkpt lat="45.3427" lon="5.87684">
        <ele>1940</ele>
        <time>2022-03-06T13:06:39Z</time>
      </trkpt>
      <trkpt lat="45.3427" lon="5.87684">
        <ele>1940</ele>
        <time>2022-03-06T13:06:43Z</time>
      </trkpt>
      <trkpt lat="45.3427" lon="5.87684">
        <ele>1940</ele>
        <time>2022-03-06T13:06:47Z</time>
      </trkpt>
      <trkpt lat="45.3427" lon="5.87684">
        <ele>1940</ele>
        <time>2022-03-06T13:06:51Z</time>
      </trkpt>
      <trkpt lat="45.3427" lon="5.87684">
        <ele>1941</ele>
        <time>2022-03-06T13:06:55Z</time>
      </trkpt>
      <trkpt lat="45.3427" lon="5.87684">
        <ele>1941</ele>
        <time>2022-03-06T13:06:59Z</time>
      </trkpt>
      <trkpt lat="45.34267" lon="5.87685">
        <ele>1941</ele>
        <time>2022-03-06T13:07:02Z</time>
      </trkpt>
      <trkpt lat="45.34267" lon="5.87685">
        <ele>1941</ele>
        <time>2022-03-06T13:07:04Z</time>
      </trkpt>
      <trkpt lat="45.34265" lon="5.87687">
        <ele>1941</ele>
        <time>2022-03-06T13:07:05Z</time>
      </trkpt>
      <trkpt lat="45.34264" lon="5.87689">
        <ele>1941</ele>
        <time>2022-03-06T13:07:08Z</time>
      </trkpt>
      <trkpt lat="45.34264" lon="5.87689">
        <ele>1942</ele>
        <time>2022-03-06T13:07:10Z</time>
      </trkpt>
      <trkpt lat="45.34263" lon="5.87691">
        <ele>1942</ele>
        <time>2022-03-06T13:07:11Z</time>
      </trkpt>
      <trkpt lat="45.34263" lon="5.87691">
        <ele>1943</ele>
        <time>2022-03-06T13:07:15Z</time>
      </trkpt>
      <trkpt lat="45.34263" lon="5.87691">
        <ele>1943</ele>
        <time>2022-03-06T13:07:19Z</time>
      </trkpt>
      <trkpt lat="45.34263" lon="5.87691">
        <ele>1944</ele>
        <time>2022-03-06T13:07:23Z</time>
      </trkpt>
      <trkpt lat="45.34261" lon="5.87693">
        <ele>1944</ele>
        <time>2022-03-06T13:07:24Z</time>
      </trkpt>
      <trkpt lat="45.34261" lon="5.87693">
        <ele>1945</ele>
        <time>2022-03-06T13:07:28Z</time>
      </trkpt>
      <trkpt lat="45.34261" lon="5.87693">
        <ele>1946</ele>
        <time>2022-03-06T13:07:32Z</time>
      </trkpt>
      <trkpt lat="45.3426" lon="5.8769">
        <ele>1946</ele>
        <time>2022-03-06T13:07:33Z</time>
      </trkpt>
      <trkpt lat="45.3426" lon="5.8769">
        <ele>1946</ele>
        <time>2022-03-06T13:07:37Z</time>
      </trkpt>
      <trkpt lat="45.3426" lon="5.8769">
        <ele>1946</ele>
        <time>2022-03-06T13:07:41Z</time>
      </trkpt>
      <trkpt lat="45.3426" lon="5.87688">
        <ele>1945</ele>
        <time>2022-03-06T13:07:43Z</time>
      </trkpt>
      <trkpt lat="45.3426" lon="5.87688">
        <ele>1945</ele>
        <time>2022-03-06T13:07:46Z</time>
      </trkpt>
      <trkpt lat="45.3426" lon="5.87688">
        <ele>1945</ele>
        <time>2022-03-06T13:07:50Z</time>
      </trkpt>
      <trkpt lat="45.3426" lon="5.87688">
        <ele>1946</ele>
        <time>2022-03-06T13:07:54Z</time>
      </trkpt>
      <trkpt lat="45.3426" lon="5.87688">
        <ele>1946</ele>
        <time>2022-03-06T13:07:58Z</time>
      </trkpt>
      <trkpt lat="45.34258" lon="5.8769">
        <ele>1946</ele>
        <time>2022-03-06T13:08:01Z</time>
      </trkpt>
      <trkpt lat="45.34258" lon="5.8769">
        <ele>1947</ele>
        <time>2022-03-06T13:08:03Z</time>
      </trkpt>
      <trkpt lat="45.34256" lon="5.87692">
        <ele>1947</ele>
        <time>2022-03-06T13:08:04Z</time>
      </trkpt>
      <trkpt lat="45.34256" lon="5.87692">
        <ele>1948</ele>
        <time>2022-03-06T13:08:08Z</time>
      </trkpt>
      <trkpt lat="45.34256" lon="5.87692">
        <ele>1949</ele>
        <time>2022-03-06T13:08:12Z</time>
      </trkpt>
      <trkpt lat="45.34257" lon="5.87689">
        <ele>1949</ele>
        <time>2022-03-06T13:08:16Z</time>
      </trkpt>
      <trkpt lat="45.34257" lon="5.87689">
        <ele>1949</ele>
        <time>2022-03-06T13:08:17Z</time>
      </trkpt>
      <trkpt lat="45.34256" lon="5.87686">
        <ele>1950</ele>
        <time>2022-03-06T13:08:19Z</time>
      </trkpt>
      <trkpt lat="45.34256" lon="5.87683">
        <ele>1950</ele>
        <time>2022-03-06T13:08:22Z</time>
      </trkpt>
      <trkpt lat="45.34256" lon="5.87683">
        <ele>1950</ele>
        <time>2022-03-06T13:08:23Z</time>
      </trkpt>
      <trkpt lat="45.34256" lon="5.87683">
        <ele>1951</ele>
        <time>2022-03-06T13:08:27Z</time>
      </trkpt>
      <trkpt lat="45.34256" lon="5.87683">
        <ele>1950</ele>
        <time>2022-03-06T13:08:31Z</time>
      </trkpt>
      <trkpt lat="45.34256" lon="5.87683">
        <ele>1951</ele>
        <time>2022-03-06T13:08:35Z</time>
      </trkpt>
      <trkpt lat="45.34254" lon="5.87684">
        <ele>1951</ele>
        <time>2022-03-06T13:08:37Z</time>
      </trkpt>
      <trkpt lat="45.34253" lon="5.87687">
        <ele>1952</ele>
        <time>2022-03-06T13:08:40Z</time>
      </trkpt>
      <trkpt lat="45.34253" lon="5.87687">
        <ele>1952</ele>
        <time>2022-03-06T13:08:41Z</time>
      </trkpt>
      <trkpt lat="45.34251" lon="5.8769">
        <ele>1952</ele>
        <time>2022-03-06T13:08:43Z</time>
      </trkpt>
      <trkpt lat="45.3425" lon="5.87693">
        <ele>1952</ele>
        <time>2022-03-06T13:08:46Z</time>
      </trkpt>
      <trkpt lat="45.3425" lon="5.87693">
        <ele>1952</ele>
        <time>2022-03-06T13:08:47Z</time>
      </trkpt>
      <trkpt lat="45.34249" lon="5.87695">
        <ele>1952</ele>
        <time>2022-03-06T13:08:48Z</time>
      </trkpt>
      <trkpt lat="45.34248" lon="5.87698">
        <ele>1952</ele>
        <time>2022-03-06T13:08:51Z</time>
      </trkpt>
      <trkpt lat="45.34248" lon="5.87698">
        <ele>1953</ele>
        <time>2022-03-06T13:08:53Z</time>
      </trkpt>
      <trkpt lat="45.34246" lon="5.87701">
        <ele>1953</ele>
        <time>2022-03-06T13:08:54Z</time>
      </trkpt>
      <trkpt lat="45.34245" lon="5.87704">
        <ele>1954</ele>
        <time>2022-03-06T13:08:57Z</time>
      </trkpt>
      <trkpt lat="45.34245" lon="5.87704">
        <ele>1954</ele>
        <time>2022-03-06T13:08:59Z</time>
      </trkpt>
      <trkpt lat="45.34244" lon="5.87706">
        <ele>1953</ele>
        <time>2022-03-06T13:09:00Z</time>
      </trkpt>
      <trkpt lat="45.34243" lon="5.87709">
        <ele>1954</ele>
        <time>2022-03-06T13:09:03Z</time>
      </trkpt>
      <trkpt lat="45.34243" lon="5.87709">
        <ele>1955</ele>
        <time>2022-03-06T13:09:05Z</time>
      </trkpt>
      <trkpt lat="45.34242" lon="5.87712">
        <ele>1955</ele>
        <time>2022-03-06T13:09:06Z</time>
      </trkpt>
      <trkpt lat="45.34241" lon="5.87714">
        <ele>1955</ele>
        <time>2022-03-06T13:09:09Z</time>
      </trkpt>
      <trkpt lat="45.34241" lon="5.87714">
        <ele>1955</ele>
        <time>2022-03-06T13:09:11Z</time>
      </trkpt>
      <trkpt lat="45.34241" lon="5.87714">
        <ele>1955</ele>
        <time>2022-03-06T13:09:15Z</time>
      </trkpt>
      <trkpt lat="45.34241" lon="5.87714">
        <ele>1955</ele>
        <time>2022-03-06T13:09:19Z</time>
      </trkpt>
      <trkpt lat="45.3424" lon="5.87716">
        <ele>1955</ele>
        <time>2022-03-06T13:09:21Z</time>
      </trkpt>
      <trkpt lat="45.34239" lon="5.87718">
        <ele>1955</ele>
        <time>2022-03-06T13:09:24Z</time>
      </trkpt>
      <trkpt lat="45.34239" lon="5.87718">
        <ele>1955</ele>
        <time>2022-03-06T13:09:25Z</time>
      </trkpt>
      <trkpt lat="45.34238" lon="5.87721">
        <ele>1955</ele>
        <time>2022-03-06T13:09:28Z</time>
      </trkpt>
      <trkpt lat="45.34238" lon="5.87721">
        <ele>1955</ele>
        <time>2022-03-06T13:09:30Z</time>
      </trkpt>
      <trkpt lat="45.34237" lon="5.87723">
        <ele>1955</ele>
        <time>2022-03-06T13:09:31Z</time>
      </trkpt>
      <trkpt lat="45.34235" lon="5.87726">
        <ele>1955</ele>
        <time>2022-03-06T13:09:33Z</time>
      </trkpt>
      <trkpt lat="45.34234" lon="5.87728">
        <ele>1955</ele>
        <time>2022-03-06T13:09:35Z</time>
      </trkpt>
      <trkpt lat="45.34232" lon="5.87731">
        <ele>1954</ele>
        <time>2022-03-06T13:09:37Z</time>
      </trkpt>
      <trkpt lat="45.3423" lon="5.87734">
        <ele>1954</ele>
        <time>2022-03-06T13:09:39Z</time>
      </trkpt>
      <trkpt lat="45.34229" lon="5.87737">
        <ele>1953</ele>
        <time>2022-03-06T13:09:41Z</time>
      </trkpt>
      <trkpt lat="45.34227" lon="5.8774">
        <ele>1953</ele>
        <time>2022-03-06T13:09:43Z</time>
      </trkpt>
      <trkpt lat="45.34225" lon="5.87742">
        <ele>1952</ele>
        <time>2022-03-06T13:09:45Z</time>
      </trkpt>
      <trkpt lat="45.34224" lon="5.87744">
        <ele>1952</ele>
        <time>2022-03-06T13:09:47Z</time>
      </trkpt>
      <trkpt lat="45.34223" lon="5.87747">
        <ele>1952</ele>
        <time>2022-03-06T13:09:49Z</time>
      </trkpt>
      <trkpt lat="45.34221" lon="5.87749">
        <ele>1952</ele>
        <time>2022-03-06T13:09:52Z</time>
      </trkpt>
      <trkpt lat="45.34221" lon="5.87749">
        <ele>1952</ele>
        <time>2022-03-06T13:09:53Z</time>
      </trkpt>
      <trkpt lat="45.3422" lon="5.87751">
        <ele>1952</ele>
        <time>2022-03-06T13:09:54Z</time>
      </trkpt>
      <trkpt lat="45.34218" lon="5.87754">
        <ele>1952</ele>
        <time>2022-03-06T13:09:57Z</time>
      </trkpt>
      <trkpt lat="45.34218" lon="5.87754">
        <ele>1952</ele>
        <time>2022-03-06T13:09:59Z</time>
      </trkpt>
      <trkpt lat="45.34217" lon="5.87757">
        <ele>1952</ele>
        <time>2022-03-06T13:10:00Z</time>
      </trkpt>
      <trkpt lat="45.34216" lon="5.87759">
        <ele>1952</ele>
        <time>2022-03-06T13:10:02Z</time>
      </trkpt>
      <trkpt lat="45.34214" lon="5.87762">
        <ele>1952</ele>
        <time>2022-03-06T13:10:04Z</time>
      </trkpt>
      <trkpt lat="45.34213" lon="5.87764">
        <ele>1952</ele>
        <time>2022-03-06T13:10:06Z</time>
      </trkpt>
      <trkpt lat="45.34211" lon="5.87767">
        <ele>1952</ele>
        <time>2022-03-06T13:10:08Z</time>
      </trkpt>
      <trkpt lat="45.3421" lon="5.87769">
        <ele>1952</ele>
        <time>2022-03-06T13:10:10Z</time>
      </trkpt>
      <trkpt lat="45.34209" lon="5.87772">
        <ele>1952</ele>
        <time>2022-03-06T13:10:12Z</time>
      </trkpt>
      <trkpt lat="45.34208" lon="5.87774">
        <ele>1952</ele>
        <time>2022-03-06T13:10:14Z</time>
      </trkpt>
      <trkpt lat="45.34206" lon="5.87776">
        <ele>1952</ele>
        <time>2022-03-06T13:10:16Z</time>
      </trkpt>
      <trkpt lat="45.34205" lon="5.87778">
        <ele>1951</ele>
        <time>2022-03-06T13:10:18Z</time>
      </trkpt>
      <trkpt lat="45.34204" lon="5.87781">
        <ele>1951</ele>
        <time>2022-03-06T13:10:21Z</time>
      </trkpt>
      <trkpt lat="45.34204" lon="5.87781">
        <ele>1951</ele>
        <time>2022-03-06T13:10:22Z</time>
      </trkpt>
      <trkpt lat="45.34202" lon="5.87784">
        <ele>1951</ele>
        <time>2022-03-06T13:10:24Z</time>
      </trkpt>
      <trkpt lat="45.34201" lon="5.87787">
        <ele>1951</ele>
        <time>2022-03-06T13:10:27Z</time>
      </trkpt>
      <trkpt lat="45.34201" lon="5.87787">
        <ele>1951</ele>
        <time>2022-03-06T13:10:28Z</time>
      </trkpt>
      <trkpt lat="45.342" lon="5.8779">
        <ele>1951</ele>
        <time>2022-03-06T13:10:30Z</time>
      </trkpt>
      <trkpt lat="45.34198" lon="5.87792">
        <ele>1952</ele>
        <time>2022-03-06T13:10:33Z</time>
      </trkpt>
      <trkpt lat="45.34198" lon="5.87792">
        <ele>1953</ele>
        <time>2022-03-06T13:10:34Z</time>
      </trkpt>
      <trkpt lat="45.34197" lon="5.87794">
        <ele>1953</ele>
        <time>2022-03-06T13:10:36Z</time>
      </trkpt>
      <trkpt lat="45.34196" lon="5.87796">
        <ele>1953</ele>
        <time>2022-03-06T13:10:39Z</time>
      </trkpt>
      <trkpt lat="45.34196" lon="5.87796">
        <ele>1953</ele>
        <time>2022-03-06T13:10:40Z</time>
      </trkpt>
      <trkpt lat="45.34196" lon="5.87796">
        <ele>1954</ele>
        <time>2022-03-06T13:10:44Z</time>
      </trkpt>
      <trkpt lat="45.34196" lon="5.87796">
        <ele>1954</ele>
        <time>2022-03-06T13:10:48Z</time>
      </trkpt>
      <trkpt lat="45.34194" lon="5.87798">
        <ele>1954</ele>
        <time>2022-03-06T13:10:50Z</time>
      </trkpt>
      <trkpt lat="45.34193" lon="5.878">
        <ele>1954</ele>
        <time>2022-03-06T13:10:52Z</time>
      </trkpt>
      <trkpt lat="45.34191" lon="5.87801">
        <ele>1955</ele>
        <time>2022-03-06T13:10:54Z</time>
      </trkpt>
      <trkpt lat="45.34189" lon="5.87804">
        <ele>1955</ele>
        <time>2022-03-06T13:10:57Z</time>
      </trkpt>
      <trkpt lat="45.34189" lon="5.87804">
        <ele>1955</ele>
        <time>2022-03-06T13:10:58Z</time>
      </trkpt>
      <trkpt lat="45.34188" lon="5.87806">
        <ele>1955</ele>
        <time>2022-03-06T13:11:00Z</time>
      </trkpt>
      <trkpt lat="45.34187" lon="5.87809">
        <ele>1956</ele>
        <time>2022-03-06T13:11:03Z</time>
      </trkpt>
      <trkpt lat="45.34187" lon="5.87809">
        <ele>1956</ele>
        <time>2022-03-06T13:11:04Z</time>
      </trkpt>
      <trkpt lat="45.34186" lon="5.87811">
        <ele>1956</ele>
        <time>2022-03-06T13:11:06Z</time>
      </trkpt>
      <trkpt lat="45.34185" lon="5.87814">
        <ele>1957</ele>
        <time>2022-03-06T13:11:09Z</time>
      </trkpt>
      <trkpt lat="45.34185" lon="5.87814">
        <ele>1958</ele>
        <time>2022-03-06T13:11:10Z</time>
      </trkpt>
      <trkpt lat="45.34183" lon="5.87816">
        <ele>1958</ele>
        <time>2022-03-06T13:11:12Z</time>
      </trkpt>
      <trkpt lat="45.34183" lon="5.87816">
        <ele>1959</ele>
        <time>2022-03-06T13:11:15Z</time>
      </trkpt>
      <trkpt lat="45.34182" lon="5.87817">
        <ele>1959</ele>
        <time>2022-03-06T13:11:16Z</time>
      </trkpt>
      <trkpt lat="45.3418" lon="5.87818">
        <ele>1960</ele>
        <time>2022-03-06T13:11:19Z</time>
      </trkpt>
      <trkpt lat="45.3418" lon="5.87818">
        <ele>1962</ele>
        <time>2022-03-06T13:11:21Z</time>
      </trkpt>
      <trkpt lat="45.34178" lon="5.8782">
        <ele>1962</ele>
        <time>2022-03-06T13:11:22Z</time>
      </trkpt>
      <trkpt lat="45.34177" lon="5.87823">
        <ele>1962</ele>
        <time>2022-03-06T13:11:25Z</time>
      </trkpt>
      <trkpt lat="45.34177" lon="5.87823">
        <ele>1962</ele>
        <time>2022-03-06T13:11:27Z</time>
      </trkpt>
      <trkpt lat="45.34175" lon="5.87825">
        <ele>1962</ele>
        <time>2022-03-06T13:11:28Z</time>
      </trkpt>
      <trkpt lat="45.34174" lon="5.87827">
        <ele>1962</ele>
        <time>2022-03-06T13:11:31Z</time>
      </trkpt>
      <trkpt lat="45.34174" lon="5.87827">
        <ele>1963</ele>
        <time>2022-03-06T13:11:33Z</time>
      </trkpt>
      <trkpt lat="45.34172" lon="5.87829">
        <ele>1963</ele>
        <time>2022-03-06T13:11:34Z</time>
      </trkpt>
      <trkpt lat="45.34171" lon="5.87831">
        <ele>1963</ele>
        <time>2022-03-06T13:11:37Z</time>
      </trkpt>
      <trkpt lat="45.34171" lon="5.87831">
        <ele>1964</ele>
        <time>2022-03-06T13:11:39Z</time>
      </trkpt>
      <trkpt lat="45.34169" lon="5.87832">
        <ele>1964</ele>
        <time>2022-03-06T13:11:40Z</time>
      </trkpt>
      <trkpt lat="45.34168" lon="5.87834">
        <ele>1964</ele>
        <time>2022-03-06T13:11:43Z</time>
      </trkpt>
      <trkpt lat="45.34168" lon="5.87834">
        <ele>1965</ele>
        <time>2022-03-06T13:11:45Z</time>
      </trkpt>
      <trkpt lat="45.34168" lon="5.87834">
        <ele>1966</ele>
        <time>2022-03-06T13:11:49Z</time>
      </trkpt>
      <trkpt lat="45.34168" lon="5.87834">
        <ele>1966</ele>
        <time>2022-03-06T13:11:53Z</time>
      </trkpt>
      <trkpt lat="45.34168" lon="5.87834">
        <ele>1966</ele>
        <time>2022-03-06T13:11:57Z</time>
      </trkpt>
      <trkpt lat="45.34167" lon="5.87837">
        <ele>1965</ele>
        <time>2022-03-06T13:12:01Z</time>
      </trkpt>
      <trkpt lat="45.34167" lon="5.87837">
        <ele>1966</ele>
        <time>2022-03-06T13:12:02Z</time>
      </trkpt>
      <trkpt lat="45.34165" lon="5.87839">
        <ele>1966</ele>
        <time>2022-03-06T13:12:04Z</time>
      </trkpt>
      <trkpt lat="45.34164" lon="5.87841">
        <ele>1966</ele>
        <time>2022-03-06T13:12:07Z</time>
      </trkpt>
      <trkpt lat="45.34164" lon="5.87841">
        <ele>1966</ele>
        <time>2022-03-06T13:12:08Z</time>
      </trkpt>
      <trkpt lat="45.34163" lon="5.87844">
        <ele>1967</ele>
        <time>2022-03-06T13:12:10Z</time>
      </trkpt>
      <trkpt lat="45.34162" lon="5.87846">
        <ele>1967</ele>
        <time>2022-03-06T13:12:13Z</time>
      </trkpt>
      <trkpt lat="45.34162" lon="5.87846">
        <ele>1967</ele>
        <time>2022-03-06T13:12:14Z</time>
      </trkpt>
      <trkpt lat="45.3416" lon="5.87849">
        <ele>1968</ele>
        <time>2022-03-06T13:12:16Z</time>
      </trkpt>
      <trkpt lat="45.34159" lon="5.87852">
        <ele>1968</ele>
        <time>2022-03-06T13:12:19Z</time>
      </trkpt>
      <trkpt lat="45.34159" lon="5.87852">
        <ele>1969</ele>
        <time>2022-03-06T13:12:20Z</time>
      </trkpt>
      <trkpt lat="45.34158" lon="5.87854">
        <ele>1969</ele>
        <time>2022-03-06T13:12:22Z</time>
      </trkpt>
      <trkpt lat="45.34156" lon="5.87857">
        <ele>1969</ele>
        <time>2022-03-06T13:12:25Z</time>
      </trkpt>
      <trkpt lat="45.34156" lon="5.87857">
        <ele>1970</ele>
        <time>2022-03-06T13:12:26Z</time>
      </trkpt>
      <trkpt lat="45.34155" lon="5.87859">
        <ele>1971</ele>
        <time>2022-03-06T13:12:28Z</time>
      </trkpt>
      <trkpt lat="45.34153" lon="5.87862">
        <ele>1971</ele>
        <time>2022-03-06T13:12:31Z</time>
      </trkpt>
      <trkpt lat="45.34153" lon="5.87862">
        <ele>1971</ele>
        <time>2022-03-06T13:12:32Z</time>
      </trkpt>
      <trkpt lat="45.34152" lon="5.87864">
        <ele>1971</ele>
        <time>2022-03-06T13:12:34Z</time>
      </trkpt>
      <trkpt lat="45.34151" lon="5.87866">
        <ele>1972</ele>
        <time>2022-03-06T13:12:37Z</time>
      </trkpt>
      <trkpt lat="45.34151" lon="5.87866">
        <ele>1972</ele>
        <time>2022-03-06T13:12:38Z</time>
      </trkpt>
      <trkpt lat="45.3415" lon="5.87869">
        <ele>1972</ele>
        <time>2022-03-06T13:12:40Z</time>
      </trkpt>
      <trkpt lat="45.34148" lon="5.8787">
        <ele>1974</ele>
        <time>2022-03-06T13:12:43Z</time>
      </trkpt>
      <trkpt lat="45.34148" lon="5.8787">
        <ele>1974</ele>
        <time>2022-03-06T13:12:44Z</time>
      </trkpt>
      <trkpt lat="45.34147" lon="5.87872">
        <ele>1974</ele>
        <time>2022-03-06T13:12:47Z</time>
      </trkpt>
      <trkpt lat="45.34147" lon="5.87872">
        <ele>1975</ele>
        <time>2022-03-06T13:12:49Z</time>
      </trkpt>
      <trkpt lat="45.34147" lon="5.87872">
        <ele>1975</ele>
        <time>2022-03-06T13:12:53Z</time>
      </trkpt>
      <trkpt lat="45.34147" lon="5.87872">
        <ele>1975</ele>
        <time>2022-03-06T13:12:57Z</time>
      </trkpt>
      <trkpt lat="45.34149" lon="5.87872">
        <ele>1975</ele>
        <time>2022-03-06T13:13:01Z</time>
      </trkpt>
      <trkpt lat="45.34149" lon="5.87872">
        <ele>1975</ele>
        <time>2022-03-06T13:13:02Z</time>
      </trkpt>
      <trkpt lat="45.34151" lon="5.87873">
        <ele>1976</ele>
        <time>2022-03-06T13:13:04Z</time>
      </trkpt>
      <trkpt lat="45.34153" lon="5.87874">
        <ele>1976</ele>
        <time>2022-03-06T13:13:07Z</time>
      </trkpt>
      <trkpt lat="45.34153" lon="5.87874">
        <ele>1976</ele>
        <time>2022-03-06T13:13:08Z</time>
      </trkpt>
      <trkpt lat="45.34153" lon="5.87874">
        <ele>1977</ele>
        <time>2022-03-06T13:13:12Z</time>
      </trkpt>
      <trkpt lat="45.34153" lon="5.87874">
        <ele>1977</ele>
        <time>2022-03-06T13:13:16Z</time>
      </trkpt>
      <trkpt lat="45.34152" lon="5.87877">
        <ele>1977</ele>
        <time>2022-03-06T13:13:17Z</time>
      </trkpt>
      <trkpt lat="45.3415" lon="5.87878">
        <ele>1978</ele>
        <time>2022-03-06T13:13:20Z</time>
      </trkpt>
      <trkpt lat="45.3415" lon="5.87878">
        <ele>1978</ele>
        <time>2022-03-06T13:13:22Z</time>
      </trkpt>
      <trkpt lat="45.34148" lon="5.8788">
        <ele>1978</ele>
        <time>2022-03-06T13:13:23Z</time>
      </trkpt>
      <trkpt lat="45.34146" lon="5.87882">
        <ele>1979</ele>
        <time>2022-03-06T13:13:26Z</time>
      </trkpt>
      <trkpt lat="45.34146" lon="5.87882">
        <ele>1979</ele>
        <time>2022-03-06T13:13:28Z</time>
      </trkpt>
      <trkpt lat="45.34145" lon="5.87883">
        <ele>1979</ele>
        <time>2022-03-06T13:13:29Z</time>
      </trkpt>
      <trkpt lat="45.34143" lon="5.87886">
        <ele>1979</ele>
        <time>2022-03-06T13:13:32Z</time>
      </trkpt>
      <trkpt lat="45.34143" lon="5.87886">
        <ele>1980</ele>
        <time>2022-03-06T13:13:34Z</time>
      </trkpt>
      <trkpt lat="45.34143" lon="5.87886">
        <ele>1980</ele>
        <time>2022-03-06T13:13:38Z</time>
      </trkpt>
      <trkpt lat="45.34143" lon="5.87886">
        <ele>1980</ele>
        <time>2022-03-06T13:13:42Z</time>
      </trkpt>
      <trkpt lat="45.34145" lon="5.87886">
        <ele>1980</ele>
        <time>2022-03-06T13:13:45Z</time>
      </trkpt>
      <trkpt lat="45.34145" lon="5.87886">
        <ele>1980</ele>
        <time>2022-03-06T13:13:47Z</time>
      </trkpt>
      <trkpt lat="45.34147" lon="5.87887">
        <ele>1981</ele>
        <time>2022-03-06T13:13:48Z</time>
      </trkpt>
      <trkpt lat="45.34147" lon="5.87887">
        <ele>1981</ele>
        <time>2022-03-06T13:13:52Z</time>
      </trkpt>
      <trkpt lat="45.34149" lon="5.87888">
        <ele>1982</ele>
        <time>2022-03-06T13:13:53Z</time>
      </trkpt>
      <trkpt lat="45.34149" lon="5.87888">
        <ele>1983</ele>
        <time>2022-03-06T13:13:57Z</time>
      </trkpt>
      <trkpt lat="45.34148" lon="5.87889">
        <ele>1983</ele>
        <time>2022-03-06T13:13:58Z</time>
      </trkpt>
      <trkpt lat="45.34146" lon="5.87891">
        <ele>1983</ele>
        <time>2022-03-06T13:14:01Z</time>
      </trkpt>
      <trkpt lat="45.34146" lon="5.87891">
        <ele>1983</ele>
        <time>2022-03-06T13:14:03Z</time>
      </trkpt>
      <trkpt lat="45.34145" lon="5.87893">
        <ele>1983</ele>
        <time>2022-03-06T13:14:04Z</time>
      </trkpt>
      <trkpt lat="45.34143" lon="5.87894">
        <ele>1984</ele>
        <time>2022-03-06T13:14:07Z</time>
      </trkpt>
      <trkpt lat="45.34143" lon="5.87894">
        <ele>1984</ele>
        <time>2022-03-06T13:14:09Z</time>
      </trkpt>
      <trkpt lat="45.34142" lon="5.87896">
        <ele>1985</ele>
        <time>2022-03-06T13:14:10Z</time>
      </trkpt>
      <trkpt lat="45.3414" lon="5.87898">
        <ele>1985</ele>
        <time>2022-03-06T13:14:13Z</time>
      </trkpt>
      <trkpt lat="45.3414" lon="5.87898">
        <ele>1986</ele>
        <time>2022-03-06T13:14:15Z</time>
      </trkpt>
      <trkpt lat="45.34138" lon="5.87899">
        <ele>1986</ele>
        <time>2022-03-06T13:14:16Z</time>
      </trkpt>
      <trkpt lat="45.34136" lon="5.87901">
        <ele>1988</ele>
        <time>2022-03-06T13:14:19Z</time>
      </trkpt>
      <trkpt lat="45.34136" lon="5.87901">
        <ele>1988</ele>
        <time>2022-03-06T13:14:21Z</time>
      </trkpt>
      <trkpt lat="45.34135" lon="5.87903">
        <ele>1988</ele>
        <time>2022-03-06T13:14:22Z</time>
      </trkpt>
      <trkpt lat="45.34133" lon="5.87905">
        <ele>1989</ele>
        <time>2022-03-06T13:14:25Z</time>
      </trkpt>
      <trkpt lat="45.34133" lon="5.87905">
        <ele>1989</ele>
        <time>2022-03-06T13:14:27Z</time>
      </trkpt>
      <trkpt lat="45.34131" lon="5.87906">
        <ele>1989</ele>
        <time>2022-03-06T13:14:28Z</time>
      </trkpt>
      <trkpt lat="45.3413" lon="5.87908">
        <ele>1990</ele>
        <time>2022-03-06T13:14:31Z</time>
      </trkpt>
      <trkpt lat="45.3413" lon="5.87908">
        <ele>1990</ele>
        <time>2022-03-06T13:14:33Z</time>
      </trkpt>
      <trkpt lat="45.34129" lon="5.8791">
        <ele>1990</ele>
        <time>2022-03-06T13:14:34Z</time>
      </trkpt>
      <trkpt lat="45.34127" lon="5.87911">
        <ele>1991</ele>
        <time>2022-03-06T13:14:37Z</time>
      </trkpt>
      <trkpt lat="45.34127" lon="5.87911">
        <ele>1991</ele>
        <time>2022-03-06T13:14:39Z</time>
      </trkpt>
      <trkpt lat="45.34126" lon="5.87913">
        <ele>1991</ele>
        <time>2022-03-06T13:14:40Z</time>
      </trkpt>
      <trkpt lat="45.34124" lon="5.87914">
        <ele>1992</ele>
        <time>2022-03-06T13:14:43Z</time>
      </trkpt>
      <trkpt lat="45.34124" lon="5.87914">
        <ele>1992</ele>
        <time>2022-03-06T13:14:45Z</time>
      </trkpt>
      <trkpt lat="45.34123" lon="5.87916">
        <ele>1993</ele>
        <time>2022-03-06T13:14:46Z</time>
      </trkpt>
      <trkpt lat="45.34121" lon="5.87918">
        <ele>1993</ele>
        <time>2022-03-06T13:14:50Z</time>
      </trkpt>
      <trkpt lat="45.34121" lon="5.87918">
        <ele>1993</ele>
        <time>2022-03-06T13:14:51Z</time>
      </trkpt>
      <trkpt lat="45.34119" lon="5.8792">
        <ele>1994</ele>
        <time>2022-03-06T13:14:54Z</time>
      </trkpt>
      <trkpt lat="45.34119" lon="5.8792">
        <ele>1994</ele>
        <time>2022-03-06T13:14:56Z</time>
      </trkpt>
      <trkpt lat="45.34118" lon="5.87923">
        <ele>1995</ele>
        <time>2022-03-06T13:14:58Z</time>
      </trkpt>
      <trkpt lat="45.34118" lon="5.87923">
        <ele>1995</ele>
        <time>2022-03-06T13:15:01Z</time>
      </trkpt>
      <trkpt lat="45.34116" lon="5.87925">
        <ele>1995</ele>
        <time>2022-03-06T13:15:02Z</time>
      </trkpt>
      <trkpt lat="45.34114" lon="5.87927">
        <ele>1996</ele>
        <time>2022-03-06T13:15:05Z</time>
      </trkpt>
      <trkpt lat="45.34114" lon="5.87927">
        <ele>1996</ele>
        <time>2022-03-06T13:15:07Z</time>
      </trkpt>
      <trkpt lat="45.34112" lon="5.8793">
        <ele>1996</ele>
        <time>2022-03-06T13:15:09Z</time>
      </trkpt>
      <trkpt lat="45.34111" lon="5.87931">
        <ele>1997</ele>
        <time>2022-03-06T13:15:12Z</time>
      </trkpt>
      <trkpt lat="45.34111" lon="5.87931">
        <ele>1997</ele>
        <time>2022-03-06T13:15:13Z</time>
      </trkpt>
      <trkpt lat="45.3411" lon="5.87933">
        <ele>1998</ele>
        <time>2022-03-06T13:15:15Z</time>
      </trkpt>
      <trkpt lat="45.3411" lon="5.87933">
        <ele>1998</ele>
        <time>2022-03-06T13:15:18Z</time>
      </trkpt>
      <trkpt lat="45.34108" lon="5.87936">
        <ele>1998</ele>
        <time>2022-03-06T13:15:19Z</time>
      </trkpt>
      <trkpt lat="45.34106" lon="5.87938">
        <ele>1999</ele>
        <time>2022-03-06T13:15:22Z</time>
      </trkpt>
      <trkpt lat="45.34106" lon="5.87938">
        <ele>1999</ele>
        <time>2022-03-06T13:15:24Z</time>
      </trkpt>
      <trkpt lat="45.34105" lon="5.8794">
        <ele>1999</ele>
        <time>2022-03-06T13:15:25Z</time>
      </trkpt>
      <trkpt lat="45.34103" lon="5.87941">
        <ele>2000</ele>
        <time>2022-03-06T13:15:28Z</time>
      </trkpt>
      <trkpt lat="45.34103" lon="5.87941">
        <ele>2001</ele>
        <time>2022-03-06T13:15:30Z</time>
      </trkpt>
      <trkpt lat="45.34102" lon="5.87943">
        <ele>2001</ele>
        <time>2022-03-06T13:15:31Z</time>
      </trkpt>
      <trkpt lat="45.341" lon="5.87945">
        <ele>2001</ele>
        <time>2022-03-06T13:15:34Z</time>
      </trkpt>
      <trkpt lat="45.341" lon="5.87945">
        <ele>2002</ele>
        <time>2022-03-06T13:15:36Z</time>
      </trkpt>
      <trkpt lat="45.34099" lon="5.87947">
        <ele>2002</ele>
        <time>2022-03-06T13:15:37Z</time>
      </trkpt>
      <trkpt lat="45.34097" lon="5.87949">
        <ele>2002</ele>
        <time>2022-03-06T13:15:41Z</time>
      </trkpt>
      <trkpt lat="45.34097" lon="5.87949">
        <ele>2003</ele>
        <time>2022-03-06T13:15:42Z</time>
      </trkpt>
      <trkpt lat="45.34095" lon="5.87951">
        <ele>2003</ele>
        <time>2022-03-06T13:15:45Z</time>
      </trkpt>
      <trkpt lat="45.34095" lon="5.87951">
        <ele>2003</ele>
        <time>2022-03-06T13:15:47Z</time>
      </trkpt>
      <trkpt lat="45.34095" lon="5.87951">
        <ele>2004</ele>
        <time>2022-03-06T13:15:51Z</time>
      </trkpt>
      <trkpt lat="45.34093" lon="5.87953">
        <ele>2004</ele>
        <time>2022-03-06T13:15:52Z</time>
      </trkpt>
      <trkpt lat="45.34091" lon="5.87955">
        <ele>2005</ele>
        <time>2022-03-06T13:15:55Z</time>
      </trkpt>
      <trkpt lat="45.34091" lon="5.87955">
        <ele>2005</ele>
        <time>2022-03-06T13:15:57Z</time>
      </trkpt>
      <trkpt lat="45.34089" lon="5.87957">
        <ele>2006</ele>
        <time>2022-03-06T13:15:58Z</time>
      </trkpt>
      <trkpt lat="45.34087" lon="5.87958">
        <ele>2006</ele>
        <time>2022-03-06T13:16:01Z</time>
      </trkpt>
      <trkpt lat="45.34087" lon="5.87958">
        <ele>2007</ele>
        <time>2022-03-06T13:16:03Z</time>
      </trkpt>
      <trkpt lat="45.34085" lon="5.8796">
        <ele>2007</ele>
        <time>2022-03-06T13:16:04Z</time>
      </trkpt>
      <trkpt lat="45.34083" lon="5.87962">
        <ele>2008</ele>
        <time>2022-03-06T13:16:07Z</time>
      </trkpt>
      <trkpt lat="45.34083" lon="5.87962">
        <ele>2008</ele>
        <time>2022-03-06T13:16:09Z</time>
      </trkpt>
      <trkpt lat="45.34081" lon="5.87963">
        <ele>2008</ele>
        <time>2022-03-06T13:16:10Z</time>
      </trkpt>
      <trkpt lat="45.3408" lon="5.87964">
        <ele>2009</ele>
        <time>2022-03-06T13:16:13Z</time>
      </trkpt>
      <trkpt lat="45.3408" lon="5.87964">
        <ele>2009</ele>
        <time>2022-03-06T13:16:15Z</time>
      </trkpt>
      <trkpt lat="45.34078" lon="5.87966">
        <ele>2010</ele>
        <time>2022-03-06T13:16:17Z</time>
      </trkpt>
      <trkpt lat="45.34076" lon="5.87967">
        <ele>2010</ele>
        <time>2022-03-06T13:16:20Z</time>
      </trkpt>
      <trkpt lat="45.34076" lon="5.87967">
        <ele>2010</ele>
        <time>2022-03-06T13:16:21Z</time>
      </trkpt>
      <trkpt lat="45.34073" lon="5.87969">
        <ele>2011</ele>
        <time>2022-03-06T13:16:25Z</time>
      </trkpt>
      <trkpt lat="45.34073" lon="5.87969">
        <ele>2011</ele>
        <time>2022-03-06T13:16:26Z</time>
      </trkpt>
      <trkpt lat="45.34072" lon="5.8797">
        <ele>2012</ele>
        <time>2022-03-06T13:16:28Z</time>
      </trkpt>
      <trkpt lat="45.3407" lon="5.87971">
        <ele>2014</ele>
        <time>2022-03-06T13:16:31Z</time>
      </trkpt>
      <trkpt lat="45.3407" lon="5.87971">
        <ele>2014</ele>
        <time>2022-03-06T13:16:32Z</time>
      </trkpt>
      <trkpt lat="45.34068" lon="5.87973">
        <ele>2014</ele>
        <time>2022-03-06T13:16:34Z</time>
      </trkpt>
      <trkpt lat="45.34066" lon="5.87974">
        <ele>2014</ele>
        <time>2022-03-06T13:16:37Z</time>
      </trkpt>
      <trkpt lat="45.34066" lon="5.87974">
        <ele>2015</ele>
        <time>2022-03-06T13:16:38Z</time>
      </trkpt>
      <trkpt lat="45.34065" lon="5.87975">
        <ele>2016</ele>
        <time>2022-03-06T13:16:41Z</time>
      </trkpt>
      <trkpt lat="45.34065" lon="5.87975">
        <ele>2016</ele>
        <time>2022-03-06T13:16:43Z</time>
      </trkpt>
      <trkpt lat="45.34062" lon="5.87976">
        <ele>2016</ele>
        <time>2022-03-06T13:16:44Z</time>
      </trkpt>
      <trkpt lat="45.3406" lon="5.87978">
        <ele>2017</ele>
        <time>2022-03-06T13:16:47Z</time>
      </trkpt>
      <trkpt lat="45.3406" lon="5.87978">
        <ele>2017</ele>
        <time>2022-03-06T13:16:49Z</time>
      </trkpt>
      <trkpt lat="45.34058" lon="5.87979">
        <ele>2017</ele>
        <time>2022-03-06T13:16:50Z</time>
      </trkpt>
      <trkpt lat="45.34056" lon="5.8798">
        <ele>2018</ele>
        <time>2022-03-06T13:16:53Z</time>
      </trkpt>
      <trkpt lat="45.34056" lon="5.8798">
        <ele>2018</ele>
        <time>2022-03-06T13:16:55Z</time>
      </trkpt>
      <trkpt lat="45.34054" lon="5.87982">
        <ele>2018</ele>
        <time>2022-03-06T13:16:56Z</time>
      </trkpt>
      <trkpt lat="45.34052" lon="5.87983">
        <ele>2019</ele>
        <time>2022-03-06T13:16:59Z</time>
      </trkpt>
      <trkpt lat="45.34052" lon="5.87983">
        <ele>2020</ele>
        <time>2022-03-06T13:17:01Z</time>
      </trkpt>
      <trkpt lat="45.34051" lon="5.87985">
        <ele>2020</ele>
        <time>2022-03-06T13:17:02Z</time>
      </trkpt>
      <trkpt lat="45.34049" lon="5.87986">
        <ele>2021</ele>
        <time>2022-03-06T13:17:05Z</time>
      </trkpt>
      <trkpt lat="45.34049" lon="5.87986">
        <ele>2021</ele>
        <time>2022-03-06T13:17:07Z</time>
      </trkpt>
      <trkpt lat="45.34047" lon="5.87987">
        <ele>2021</ele>
        <time>2022-03-06T13:17:08Z</time>
      </trkpt>
      <trkpt lat="45.34046" lon="5.87989">
        <ele>2022</ele>
        <time>2022-03-06T13:17:11Z</time>
      </trkpt>
      <trkpt lat="45.34046" lon="5.87989">
        <ele>2022</ele>
        <time>2022-03-06T13:17:13Z</time>
      </trkpt>
      <trkpt lat="45.34045" lon="5.87991">
        <ele>2022</ele>
        <time>2022-03-06T13:17:14Z</time>
      </trkpt>
      <trkpt lat="45.34043" lon="5.87993">
        <ele>2022</ele>
        <time>2022-03-06T13:17:17Z</time>
      </trkpt>
      <trkpt lat="45.34043" lon="5.87993">
        <ele>2023</ele>
        <time>2022-03-06T13:17:20Z</time>
      </trkpt>
      <trkpt lat="45.34044" lon="5.87996">
        <ele>2023</ele>
        <time>2022-03-06T13:17:21Z</time>
      </trkpt>
      <trkpt lat="45.34044" lon="5.87996">
        <ele>2024</ele>
        <time>2022-03-06T13:17:25Z</time>
      </trkpt>
      <trkpt lat="45.34046" lon="5.87997">
        <ele>2024</ele>
        <time>2022-03-06T13:17:26Z</time>
      </trkpt>
      <trkpt lat="45.34046" lon="5.87997">
        <ele>2024</ele>
        <time>2022-03-06T13:17:30Z</time>
      </trkpt>
      <trkpt lat="45.34046" lon="5.87997">
        <ele>2024</ele>
        <time>2022-03-06T13:17:34Z</time>
      </trkpt>
      <trkpt lat="45.34046" lon="5.87997">
        <ele>2024</ele>
        <time>2022-03-06T13:17:38Z</time>
      </trkpt>
      <trkpt lat="45.34046" lon="5.87997">
        <ele>2024</ele>
        <time>2022-03-06T13:17:42Z</time>
      </trkpt>
      <trkpt lat="45.34046" lon="5.87997">
        <ele>2024</ele>
        <time>2022-03-06T13:17:46Z</time>
      </trkpt>
      <trkpt lat="45.34046" lon="5.87997">
        <ele>2024</ele>
        <time>2022-03-06T13:17:50Z</time>
      </trkpt>
      <trkpt lat="45.34046" lon="5.87997">
        <ele>2024</ele>
        <time>2022-03-06T13:17:54Z</time>
      </trkpt>
      <trkpt lat="45.34046" lon="5.87997">
        <ele>2024</ele>
        <time>2022-03-06T13:17:58Z</time>
      </trkpt>
      <trkpt lat="45.34046" lon="5.87997">
        <ele>2024</ele>
        <time>2022-03-06T13:18:02Z</time>
      </trkpt>
      <trkpt lat="45.34046" lon="5.87997">
        <ele>2024</ele>
        <time>2022-03-06T13:18:06Z</time>
      </trkpt>
      <trkpt lat="45.34046" lon="5.87997">
        <ele>2024</ele>
        <time>2022-03-06T13:18:10Z</time>
      </trkpt>
      <trkpt lat="45.34046" lon="5.87997">
        <ele>2024</ele>
        <time>2022-03-06T13:18:14Z</time>
      </trkpt>
      <trkpt lat="45.34047" lon="5.88">
        <ele>2024</ele>
        <time>2022-03-06T13:18:16Z</time>
      </trkpt>
      <trkpt lat="45.34048" lon="5.88003">
        <ele>2025</ele>
        <time>2022-03-06T13:18:19Z</time>
      </trkpt>
      <trkpt lat="45.34048" lon="5.88003">
        <ele>2025</ele>
        <time>2022-03-06T13:18:20Z</time>
      </trkpt>
      <trkpt lat="45.34048" lon="5.88003">
        <ele>2025</ele>
        <time>2022-03-06T13:18:24Z</time>
      </trkpt>
      <trkpt lat="45.34048" lon="5.88003">
        <ele>2025</ele>
        <time>2022-03-06T13:18:28Z</time>
      </trkpt>
      <trkpt lat="45.34048" lon="5.88003">
        <ele>2026</ele>
        <time>2022-03-06T13:18:32Z</time>
      </trkpt>
      <trkpt lat="45.34048" lon="5.88003">
        <ele>2026</ele>
        <time>2022-03-06T13:18:36Z</time>
      </trkpt>
      <trkpt lat="45.34048" lon="5.88003">
        <ele>2026</ele>
        <time>2022-03-06T13:18:40Z</time>
      </trkpt>
      <trkpt lat="45.34048" lon="5.88003">
        <ele>2026</ele>
        <time>2022-03-06T13:18:44Z</time>
      </trkpt>
      <trkpt lat="45.34048" lon="5.88003">
        <ele>2026</ele>
        <time>2022-03-06T13:18:48Z</time>
      </trkpt>
      <trkpt lat="45.34048" lon="5.88003">
        <ele>2026</ele>
        <time>2022-03-06T13:18:52Z</time>
      </trkpt>
      <trkpt lat="45.34048" lon="5.88003">
        <ele>2025</ele>
        <time>2022-03-06T13:18:56Z</time>
      </trkpt>
      <trkpt lat="45.34048" lon="5.88003">
        <ele>2025</ele>
        <time>2022-03-06T13:19:00Z</time>
      </trkpt>
      <trkpt lat="45.34048" lon="5.88003">
        <ele>2025</ele>
        <time>2022-03-06T13:19:04Z</time>
      </trkpt>
      <trkpt lat="45.34048" lon="5.88003">
        <ele>2026</ele>
        <time>2022-03-06T13:19:08Z</time>
      </trkpt>
      <trkpt lat="45.34048" lon="5.88003">
        <ele>2025</ele>
        <time>2022-03-06T13:19:12Z</time>
      </trkpt>
      <trkpt lat="45.34048" lon="5.88003">
        <ele>2026</ele>
        <time>2022-03-06T13:19:16Z</time>
      </trkpt>
      <trkpt lat="45.34048" lon="5.88003">
        <ele>2026</ele>
        <time>2022-03-06T13:19:20Z</time>
      </trkpt>
      <trkpt lat="45.34048" lon="5.88003">
        <ele>2026</ele>
        <time>2022-03-06T13:19:24Z</time>
      </trkpt>
      <trkpt lat="45.34048" lon="5.88003">
        <ele>2026</ele>
        <time>2022-03-06T13:19:28Z</time>
      </trkpt>
      <trkpt lat="45.34048" lon="5.88003">
        <ele>2026</ele>
        <time>2022-03-06T13:19:32Z</time>
      </trkpt>
      <trkpt lat="45.34048" lon="5.88003">
        <ele>2026</ele>
        <time>2022-03-06T13:19:36Z</time>
      </trkpt>
      <trkpt lat="45.34048" lon="5.88003">
        <ele>2025</ele>
        <time>2022-03-06T13:19:40Z</time>
      </trkpt>
      <trkpt lat="45.34048" lon="5.88003">
        <ele>2026</ele>
        <time>2022-03-06T13:19:44Z</time>
      </trkpt>
      <trkpt lat="45.34048" lon="5.88003">
        <ele>2026</ele>
        <time>2022-03-06T13:19:48Z</time>
      </trkpt>
      <trkpt lat="45.34048" lon="5.88003">
        <ele>2025</ele>
        <time>2022-03-06T13:19:52Z</time>
      </trkpt>
      <trkpt lat="45.34048" lon="5.88003">
        <ele>2025</ele>
        <time>2022-03-06T13:19:56Z</time>
      </trkpt>
      <trkpt lat="45.34048" lon="5.88003">
        <ele>2026</ele>
        <time>2022-03-06T13:20:00Z</time>
      </trkpt>
      <trkpt lat="45.34048" lon="5.88003">
        <ele>2026</ele>
        <time>2022-03-06T13:20:04Z</time>
      </trkpt>
      <trkpt lat="45.34048" lon="5.88">
        <ele>2025</ele>
        <time>2022-03-06T13:20:08Z</time>
      </trkpt>
      <trkpt lat="45.34048" lon="5.88">
        <ele>2025</ele>
        <time>2022-03-06T13:20:09Z</time>
      </trkpt>
      <trkpt lat="45.34049" lon="5.87998">
        <ele>2025</ele>
        <time>2022-03-06T13:20:12Z</time>
      </trkpt>
      <trkpt lat="45.34049" lon="5.87998">
        <ele>2025</ele>
        <time>2022-03-06T13:20:14Z</time>
      </trkpt>
      <trkpt lat="45.34049" lon="5.87998">
        <ele>2025</ele>
        <time>2022-03-06T13:20:18Z</time>
      </trkpt>
      <trkpt lat="45.34049" lon="5.87998">
        <ele>2025</ele>
        <time>2022-03-06T13:20:22Z</time>
      </trkpt>
      <trkpt lat="45.34049" lon="5.87998">
        <ele>2025</ele>
        <time>2022-03-06T13:20:26Z</time>
      </trkpt>
      <trkpt lat="45.34049" lon="5.87998">
        <ele>2026</ele>
        <time>2022-03-06T13:20:30Z</time>
      </trkpt>
      <trkpt lat="45.34049" lon="5.87998">
        <ele>2025</ele>
        <time>2022-03-06T13:20:34Z</time>
      </trkpt>
      <trkpt lat="45.34049" lon="5.87998">
        <ele>2025</ele>
        <time>2022-03-06T13:20:38Z</time>
      </trkpt>
      <trkpt lat="45.34049" lon="5.87998">
        <ele>2025</ele>
        <time>2022-03-06T13:20:42Z</time>
      </trkpt>
      <trkpt lat="45.34049" lon="5.87998">
        <ele>2025</ele>
        <time>2022-03-06T13:20:46Z</time>
      </trkpt>
      <trkpt lat="45.34049" lon="5.87998">
        <ele>2025</ele>
        <time>2022-03-06T13:20:50Z</time>
      </trkpt>
      <trkpt lat="45.34049" lon="5.87998">
        <ele>2025</ele>
        <time>2022-03-06T13:20:54Z</time>
      </trkpt>
      <trkpt lat="45.34049" lon="5.87998">
        <ele>2025</ele>
        <time>2022-03-06T13:20:58Z</time>
      </trkpt>
      <trkpt lat="45.34049" lon="5.87998">
        <ele>2025</ele>
        <time>2022-03-06T13:21:02Z</time>
      </trkpt>
      <trkpt lat="45.34049" lon="5.87998">
        <ele>2025</ele>
        <time>2022-03-06T13:21:06Z</time>
      </trkpt>
      <trkpt lat="45.34049" lon="5.87998">
        <ele>2025</ele>
        <time>2022-03-06T13:21:10Z</time>
      </trkpt>
      <trkpt lat="45.34049" lon="5.87998">
        <ele>2025</ele>
        <time>2022-03-06T13:21:14Z</time>
      </trkpt>
      <trkpt lat="45.34049" lon="5.87998">
        <ele>2025</ele>
        <time>2022-03-06T13:21:18Z</time>
      </trkpt>
      <trkpt lat="45.34049" lon="5.87998">
        <ele>2025</ele>
        <time>2022-03-06T13:21:22Z</time>
      </trkpt>
      <trkpt lat="45.34049" lon="5.87998">
        <ele>2024</ele>
        <time>2022-03-06T13:21:26Z</time>
      </trkpt>
      <trkpt lat="45.34049" lon="5.87998">
        <ele>2024</ele>
        <time>2022-03-06T13:21:30Z</time>
      </trkpt>
      <trkpt lat="45.34049" lon="5.87998">
        <ele>2024</ele>
        <time>2022-03-06T13:21:34Z</time>
      </trkpt>
      <trkpt lat="45.34049" lon="5.87998">
        <ele>2025</ele>
        <time>2022-03-06T13:21:38Z</time>
      </trkpt>
      <trkpt lat="45.34049" lon="5.87998">
        <ele>2024</ele>
        <time>2022-03-06T13:21:42Z</time>
      </trkpt>
      <trkpt lat="45.34049" lon="5.87998">
        <ele>2024</ele>
        <time>2022-03-06T13:21:46Z</time>
      </trkpt>
      <trkpt lat="45.34049" lon="5.87998">
        <ele>2024</ele>
        <time>2022-03-06T13:21:50Z</time>
      </trkpt>
      <trkpt lat="45.34049" lon="5.87998">
        <ele>2025</ele>
        <time>2022-03-06T13:21:54Z</time>
      </trkpt>
      <trkpt lat="45.34049" lon="5.87998">
        <ele>2025</ele>
        <time>2022-03-06T13:21:58Z</time>
      </trkpt>
      <trkpt lat="45.34049" lon="5.87998">
        <ele>2025</ele>
        <time>2022-03-06T13:22:02Z</time>
      </trkpt>
      <trkpt lat="45.34049" lon="5.87998">
        <ele>2024</ele>
        <time>2022-03-06T13:22:06Z</time>
      </trkpt>
      <trkpt lat="45.34049" lon="5.87998">
        <ele>2025</ele>
        <time>2022-03-06T13:22:10Z</time>
      </trkpt>
      <trkpt lat="45.34049" lon="5.87998">
        <ele>2025</ele>
        <time>2022-03-06T13:22:14Z</time>
      </trkpt>
      <trkpt lat="45.34049" lon="5.87998">
        <ele>2025</ele>
        <time>2022-03-06T13:22:18Z</time>
      </trkpt>
      <trkpt lat="45.34049" lon="5.87998">
        <ele>2025</ele>
        <time>2022-03-06T13:22:22Z</time>
      </trkpt>
      <trkpt lat="45.34049" lon="5.87998">
        <ele>2025</ele>
        <time>2022-03-06T13:22:26Z</time>
      </trkpt>
      <trkpt lat="45.34049" lon="5.87998">
        <ele>2025</ele>
        <time>2022-03-06T13:22:30Z</time>
      </trkpt>
      <trkpt lat="45.34049" lon="5.87998">
        <ele>2025</ele>
        <time>2022-03-06T13:22:34Z</time>
      </trkpt>
      <trkpt lat="45.34049" lon="5.87998">
        <ele>2024</ele>
        <time>2022-03-06T13:22:38Z</time>
      </trkpt>
      <trkpt lat="45.34049" lon="5.87998">
        <ele>2025</ele>
        <time>2022-03-06T13:22:42Z</time>
      </trkpt>
      <trkpt lat="45.34049" lon="5.87998">
        <ele>2025</ele>
        <time>2022-03-06T13:22:46Z</time>
      </trkpt>
      <trkpt lat="45.34049" lon="5.87998">
        <ele>2025</ele>
        <time>2022-03-06T13:22:50Z</time>
      </trkpt>
      <trkpt lat="45.34049" lon="5.87998">
        <ele>2024</ele>
        <time>2022-03-06T13:22:54Z</time>
      </trkpt>
      <trkpt lat="45.34049" lon="5.87998">
        <ele>2024</ele>
        <time>2022-03-06T13:22:58Z</time>
      </trkpt>
      <trkpt lat="45.34049" lon="5.87998">
        <ele>2024</ele>
        <time>2022-03-06T13:23:02Z</time>
      </trkpt>
      <trkpt lat="45.34049" lon="5.87998">
        <ele>2024</ele>
        <time>2022-03-06T13:23:06Z</time>
      </trkpt>
      <trkpt lat="45.34049" lon="5.87998">
        <ele>2024</ele>
        <time>2022-03-06T13:23:10Z</time>
      </trkpt>
      <trkpt lat="45.34049" lon="5.87998">
        <ele>2024</ele>
        <time>2022-03-06T13:23:14Z</time>
      </trkpt>
      <trkpt lat="45.34049" lon="5.87998">
        <ele>2024</ele>
        <time>2022-03-06T13:23:18Z</time>
      </trkpt>
      <trkpt lat="45.34049" lon="5.87998">
        <ele>2024</ele>
        <time>2022-03-06T13:23:22Z</time>
      </trkpt>
      <trkpt lat="45.34049" lon="5.87998">
        <ele>2024</ele>
        <time>2022-03-06T13:23:26Z</time>
      </trkpt>
      <trkpt lat="45.34049" lon="5.87998">
        <ele>2024</ele>
        <time>2022-03-06T13:23:30Z</time>
      </trkpt>
      <trkpt lat="45.34049" lon="5.87998">
        <ele>2024</ele>
        <time>2022-03-06T13:23:34Z</time>
      </trkpt>
      <trkpt lat="45.34049" lon="5.87998">
        <ele>2024</ele>
        <time>2022-03-06T13:23:38Z</time>
      </trkpt>
      <trkpt lat="45.34049" lon="5.87998">
        <ele>2024</ele>
        <time>2022-03-06T13:23:42Z</time>
      </trkpt>
      <trkpt lat="45.34049" lon="5.87998">
        <ele>2024</ele>
        <time>2022-03-06T13:23:46Z</time>
      </trkpt>
      <trkpt lat="45.34049" lon="5.87998">
        <ele>2024</ele>
        <time>2022-03-06T13:23:50Z</time>
      </trkpt>
      <trkpt lat="45.34049" lon="5.87998">
        <ele>2024</ele>
        <time>2022-03-06T13:23:54Z</time>
      </trkpt>
      <trkpt lat="45.34049" lon="5.87998">
        <ele>2024</ele>
        <time>2022-03-06T13:23:58Z</time>
      </trkpt>
      <trkpt lat="45.34049" lon="5.87998">
        <ele>2024</ele>
        <time>2022-03-06T13:24:02Z</time>
      </trkpt>
      <trkpt lat="45.34052" lon="5.87997">
        <ele>2024</ele>
        <time>2022-03-06T13:24:04Z</time>
      </trkpt>
      <trkpt lat="45.34053" lon="5.87995">
        <ele>2024</ele>
        <time>2022-03-06T13:24:06Z</time>
      </trkpt>
      <trkpt lat="45.34055" lon="5.87993">
        <ele>2024</ele>
        <time>2022-03-06T13:24:08Z</time>
      </trkpt>
      <trkpt lat="45.34056" lon="5.87991">
        <ele>2024</ele>
        <time>2022-03-06T13:24:10Z</time>
      </trkpt>
      <trkpt lat="45.34056" lon="5.87991">
        <ele>2023</ele>
        <time>2022-03-06T13:24:12Z</time>
      </trkpt>
      <trkpt lat="45.34058" lon="5.87989">
        <ele>2022</ele>
        <time>2022-03-06T13:24:13Z</time>
      </trkpt>
      <trkpt lat="45.34059" lon="5.87987">
        <ele>2021</ele>
        <time>2022-03-06T13:24:15Z</time>
      </trkpt>
      <trkpt lat="45.34061" lon="5.87985">
        <ele>2021</ele>
        <time>2022-03-06T13:24:18Z</time>
      </trkpt>
      <trkpt lat="45.34061" lon="5.87985">
        <ele>2021</ele>
        <time>2022-03-06T13:24:19Z</time>
      </trkpt>
      <trkpt lat="45.34063" lon="5.87983">
        <ele>2020</ele>
        <time>2022-03-06T13:24:21Z</time>
      </trkpt>
      <trkpt lat="45.34066" lon="5.87982">
        <ele>2019</ele>
        <time>2022-03-06T13:24:24Z</time>
      </trkpt>
      <trkpt lat="45.34066" lon="5.87982">
        <ele>2019</ele>
        <time>2022-03-06T13:24:25Z</time>
      </trkpt>
      <trkpt lat="45.34068" lon="5.8798">
        <ele>2018</ele>
        <time>2022-03-06T13:24:27Z</time>
      </trkpt>
      <trkpt lat="45.3407" lon="5.87978">
        <ele>2018</ele>
        <time>2022-03-06T13:24:30Z</time>
      </trkpt>
      <trkpt lat="45.3407" lon="5.87978">
        <ele>2018</ele>
        <time>2022-03-06T13:24:31Z</time>
      </trkpt>
      <trkpt lat="45.34072" lon="5.87978">
        <ele>2017</ele>
        <time>2022-03-06T13:24:32Z</time>
      </trkpt>
      <trkpt lat="45.34074" lon="5.87978">
        <ele>2017</ele>
        <time>2022-03-06T13:24:35Z</time>
      </trkpt>
      <trkpt lat="45.34074" lon="5.87978">
        <ele>2017</ele>
        <time>2022-03-06T13:24:37Z</time>
      </trkpt>
      <trkpt lat="45.34077" lon="5.87977">
        <ele>2017</ele>
        <time>2022-03-06T13:24:38Z</time>
      </trkpt>
      <trkpt lat="45.34079" lon="5.87977">
        <ele>2017</ele>
        <time>2022-03-06T13:24:40Z</time>
      </trkpt>
      <trkpt lat="45.3408" lon="5.87977">
        <ele>2017</ele>
        <time>2022-03-06T13:24:42Z</time>
      </trkpt>
      <trkpt lat="45.3408" lon="5.87977">
        <ele>2017</ele>
        <time>2022-03-06T13:24:44Z</time>
      </trkpt>
      <trkpt lat="45.34083" lon="5.87978">
        <ele>2017</ele>
        <time>2022-03-06T13:24:45Z</time>
      </trkpt>
      <trkpt lat="45.34085" lon="5.87978">
        <ele>2017</ele>
        <time>2022-03-06T13:24:48Z</time>
      </trkpt>
      <trkpt lat="45.34085" lon="5.87978">
        <ele>2017</ele>
        <time>2022-03-06T13:24:50Z</time>
      </trkpt>
      <trkpt lat="45.34088" lon="5.87979">
        <ele>2017</ele>
        <time>2022-03-06T13:24:51Z</time>
      </trkpt>
      <trkpt lat="45.3409" lon="5.87979">
        <ele>2017</ele>
        <time>2022-03-06T13:24:54Z</time>
      </trkpt>
      <trkpt lat="45.3409" lon="5.87979">
        <ele>2017</ele>
        <time>2022-03-06T13:24:56Z</time>
      </trkpt>
      <trkpt lat="45.34093" lon="5.87979">
        <ele>2017</ele>
        <time>2022-03-06T13:24:57Z</time>
      </trkpt>
      <trkpt lat="45.34095" lon="5.87979">
        <ele>2017</ele>
        <time>2022-03-06T13:24:59Z</time>
      </trkpt>
      <trkpt lat="45.34097" lon="5.87979">
        <ele>2017</ele>
        <time>2022-03-06T13:25:02Z</time>
      </trkpt>
      <trkpt lat="45.34097" lon="5.87979">
        <ele>2017</ele>
        <time>2022-03-06T13:25:03Z</time>
      </trkpt>
      <trkpt lat="45.34099" lon="5.8798">
        <ele>2017</ele>
        <time>2022-03-06T13:25:05Z</time>
      </trkpt>
      <trkpt lat="45.34101" lon="5.8798">
        <ele>2017</ele>
        <time>2022-03-06T13:25:08Z</time>
      </trkpt>
      <trkpt lat="45.34101" lon="5.8798">
        <ele>2017</ele>
        <time>2022-03-06T13:25:09Z</time>
      </trkpt>
      <trkpt lat="45.34104" lon="5.8798">
        <ele>2017</ele>
        <time>2022-03-06T13:25:11Z</time>
      </trkpt>
      <trkpt lat="45.34106" lon="5.87981">
        <ele>2018</ele>
        <time>2022-03-06T13:25:14Z</time>
      </trkpt>
      <trkpt lat="45.34106" lon="5.87981">
        <ele>2018</ele>
        <time>2022-03-06T13:25:15Z</time>
      </trkpt>
      <trkpt lat="45.34108" lon="5.87981">
        <ele>2018</ele>
        <time>2022-03-06T13:25:18Z</time>
      </trkpt>
      <trkpt lat="45.34108" lon="5.87981">
        <ele>2018</ele>
        <time>2022-03-06T13:25:20Z</time>
      </trkpt>
      <trkpt lat="45.3411" lon="5.87982">
        <ele>2018</ele>
        <time>2022-03-06T13:25:22Z</time>
      </trkpt>
      <trkpt lat="45.34112" lon="5.87982">
        <ele>2019</ele>
        <time>2022-03-06T13:25:25Z</time>
      </trkpt>
      <trkpt lat="45.34112" lon="5.87982">
        <ele>2019</ele>
        <time>2022-03-06T13:25:26Z</time>
      </trkpt>
      <trkpt lat="45.34114" lon="5.87983">
        <ele>2019</ele>
        <time>2022-03-06T13:25:28Z</time>
      </trkpt>
      <trkpt lat="45.34116" lon="5.87984">
        <ele>2020</ele>
        <time>2022-03-06T13:25:31Z</time>
      </trkpt>
      <trkpt lat="45.34116" lon="5.87984">
        <ele>2020</ele>
        <time>2022-03-06T13:25:33Z</time>
      </trkpt>
      <trkpt lat="45.34116" lon="5.87984">
        <ele>2020</ele>
        <time>2022-03-06T13:25:37Z</time>
      </trkpt>
      <trkpt lat="45.34116" lon="5.87984">
        <ele>2020</ele>
        <time>2022-03-06T13:25:41Z</time>
      </trkpt>
      <trkpt lat="45.34116" lon="5.87984">
        <ele>2020</ele>
        <time>2022-03-06T13:25:45Z</time>
      </trkpt>
      <trkpt lat="45.34116" lon="5.87984">
        <ele>2020</ele>
        <time>2022-03-06T13:25:49Z</time>
      </trkpt>
      <trkpt lat="45.34116" lon="5.87984">
        <ele>2020</ele>
        <time>2022-03-06T13:25:53Z</time>
      </trkpt>
      <trkpt lat="45.34114" lon="5.87984">
        <ele>2020</ele>
        <time>2022-03-06T13:25:57Z</time>
      </trkpt>
      <trkpt lat="45.34114" lon="5.87984">
        <ele>2020</ele>
        <time>2022-03-06T13:25:58Z</time>
      </trkpt>
      <trkpt lat="45.34113" lon="5.87984">
        <ele>2020</ele>
        <time>2022-03-06T13:25:59Z</time>
      </trkpt>
      <trkpt lat="45.3411" lon="5.87984">
        <ele>2019</ele>
        <time>2022-03-06T13:26:02Z</time>
      </trkpt>
      <trkpt lat="45.3411" lon="5.87984">
        <ele>2019</ele>
        <time>2022-03-06T13:26:04Z</time>
      </trkpt>
      <trkpt lat="45.34108" lon="5.87984">
        <ele>2019</ele>
        <time>2022-03-06T13:26:05Z</time>
      </trkpt>
      <trkpt lat="45.34105" lon="5.87984">
        <ele>2018</ele>
        <time>2022-03-06T13:26:08Z</time>
      </trkpt>
      <trkpt lat="45.34105" lon="5.87984">
        <ele>2018</ele>
        <time>2022-03-06T13:26:10Z</time>
      </trkpt>
      <trkpt lat="45.34102" lon="5.87984">
        <ele>2018</ele>
        <time>2022-03-06T13:26:11Z</time>
      </trkpt>
      <trkpt lat="45.34101" lon="5.87983">
        <ele>2018</ele>
        <time>2022-03-06T13:26:13Z</time>
      </trkpt>
      <trkpt lat="45.34099" lon="5.87983">
        <ele>2017</ele>
        <time>2022-03-06T13:26:15Z</time>
      </trkpt>
      <trkpt lat="45.34099" lon="5.87983">
        <ele>2017</ele>
        <time>2022-03-06T13:26:17Z</time>
      </trkpt>
      <trkpt lat="45.34096" lon="5.87982">
        <ele>2017</ele>
        <time>2022-03-06T13:26:18Z</time>
      </trkpt>
      <trkpt lat="45.34094" lon="5.87982">
        <ele>2017</ele>
        <time>2022-03-06T13:26:21Z</time>
      </trkpt>
      <trkpt lat="45.34094" lon="5.87982">
        <ele>2017</ele>
        <time>2022-03-06T13:26:23Z</time>
      </trkpt>
      <trkpt lat="45.34091" lon="5.87981">
        <ele>2017</ele>
        <time>2022-03-06T13:26:24Z</time>
      </trkpt>
      <trkpt lat="45.34089" lon="5.87981">
        <ele>2017</ele>
        <time>2022-03-06T13:26:27Z</time>
      </trkpt>
      <trkpt lat="45.34089" lon="5.87981">
        <ele>2017</ele>
        <time>2022-03-06T13:26:29Z</time>
      </trkpt>
      <trkpt lat="45.34087" lon="5.87981">
        <ele>2017</ele>
        <time>2022-03-06T13:26:30Z</time>
      </trkpt>
      <trkpt lat="45.34085" lon="5.87981">
        <ele>2017</ele>
        <time>2022-03-06T13:26:33Z</time>
      </trkpt>
      <trkpt lat="45.34085" lon="5.87981">
        <ele>2017</ele>
        <time>2022-03-06T13:26:35Z</time>
      </trkpt>
      <trkpt lat="45.34083" lon="5.87982">
        <ele>2017</ele>
        <time>2022-03-06T13:26:36Z</time>
      </trkpt>
      <trkpt lat="45.3408" lon="5.87982">
        <ele>2017</ele>
        <time>2022-03-06T13:26:39Z</time>
      </trkpt>
      <trkpt lat="45.34078" lon="5.87982">
        <ele>2017</ele>
        <time>2022-03-06T13:26:41Z</time>
      </trkpt>
      <trkpt lat="45.34076" lon="5.87982">
        <ele>2017</ele>
        <time>2022-03-06T13:26:43Z</time>
      </trkpt>
      <trkpt lat="45.34076" lon="5.87982">
        <ele>2017</ele>
        <time>2022-03-06T13:26:45Z</time>
      </trkpt>
      <trkpt lat="45.34074" lon="5.87983">
        <ele>2017</ele>
        <time>2022-03-06T13:26:46Z</time>
      </trkpt>
      <trkpt lat="45.34072" lon="5.87983">
        <ele>2017</ele>
        <time>2022-03-06T13:26:50Z</time>
      </trkpt>
      <trkpt lat="45.34072" lon="5.87983">
        <ele>2018</ele>
        <time>2022-03-06T13:26:51Z</time>
      </trkpt>
      <trkpt lat="45.3407" lon="5.87984">
        <ele>2018</ele>
        <time>2022-03-06T13:26:54Z</time>
      </trkpt>
      <trkpt lat="45.3407" lon="5.87984">
        <ele>2018</ele>
        <time>2022-03-06T13:26:56Z</time>
      </trkpt>
      <trkpt lat="45.34069" lon="5.87986">
        <ele>2018</ele>
        <time>2022-03-06T13:26:58Z</time>
      </trkpt>
      <trkpt lat="45.34069" lon="5.87986">
        <ele>2019</ele>
        <time>2022-03-06T13:27:01Z</time>
      </trkpt>
      <trkpt lat="45.34066" lon="5.87987">
        <ele>2019</ele>
        <time>2022-03-06T13:27:02Z</time>
      </trkpt>
      <trkpt lat="45.34064" lon="5.87988">
        <ele>2019</ele>
        <time>2022-03-06T13:27:06Z</time>
      </trkpt>
      <trkpt lat="45.34064" lon="5.87988">
        <ele>2019</ele>
        <time>2022-03-06T13:27:07Z</time>
      </trkpt>
      <trkpt lat="45.34062" lon="5.87989">
        <ele>2020</ele>
        <time>2022-03-06T13:27:10Z</time>
      </trkpt>
      <trkpt lat="45.34062" lon="5.87989">
        <ele>2021</ele>
        <time>2022-03-06T13:27:12Z</time>
      </trkpt>
      <trkpt lat="45.3406" lon="5.8799">
        <ele>2021</ele>
        <time>2022-03-06T13:27:15Z</time>
      </trkpt>
      <trkpt lat="45.3406" lon="5.8799">
        <ele>2021</ele>
        <time>2022-03-06T13:27:17Z</time>
      </trkpt>
      <trkpt lat="45.34058" lon="5.87991">
        <ele>2021</ele>
        <time>2022-03-06T13:27:19Z</time>
      </trkpt>
      <trkpt lat="45.34058" lon="5.87991">
        <ele>2021</ele>
        <time>2022-03-06T13:27:22Z</time>
      </trkpt>
      <trkpt lat="45.34056" lon="5.87993">
        <ele>2022</ele>
        <time>2022-03-06T13:27:24Z</time>
      </trkpt>
      <trkpt lat="45.34056" lon="5.87993">
        <ele>2022</ele>
        <time>2022-03-06T13:27:27Z</time>
      </trkpt>
      <trkpt lat="45.34054" lon="5.87995">
        <ele>2022</ele>
        <time>2022-03-06T13:27:28Z</time>
      </trkpt>
      <trkpt lat="45.34053" lon="5.87996">
        <ele>2023</ele>
        <time>2022-03-06T13:27:31Z</time>
      </trkpt>
      <trkpt lat="45.34053" lon="5.87996">
        <ele>2023</ele>
        <time>2022-03-06T13:27:33Z</time>
      </trkpt>
      <trkpt lat="45.34053" lon="5.87996">
        <ele>2023</ele>
        <time>2022-03-06T13:27:37Z</time>
      </trkpt>
      <trkpt lat="45.34051" lon="5.87999">
        <ele>2023</ele>
        <time>2022-03-06T13:27:39Z</time>
      </trkpt>
      <trkpt lat="45.34051" lon="5.87999">
        <ele>2024</ele>
        <time>2022-03-06T13:27:42Z</time>
      </trkpt>
      <trkpt lat="45.34051" lon="5.87999">
        <ele>2024</ele>
        <time>2022-03-06T13:27:46Z</time>
      </trkpt>
      <trkpt lat="45.34051" lon="5.87999">
        <ele>2024</ele>
        <time>2022-03-06T13:27:50Z</time>
      </trkpt>
      <trkpt lat="45.34051" lon="5.87999">
        <ele>2024</ele>
        <time>2022-03-06T13:27:54Z</time>
      </trkpt>
      <trkpt lat="45.34051" lon="5.87999">
        <ele>2024</ele>
        <time>2022-03-06T13:27:58Z</time>
      </trkpt>
      <trkpt lat="45.34051" lon="5.87999">
        <ele>2024</ele>
        <time>2022-03-06T13:28:02Z</time>
      </trkpt>
      <trkpt lat="45.34049" lon="5.87999">
        <ele>2024</ele>
        <time>2022-03-06T13:28:03Z</time>
      </trkpt>
      <trkpt lat="45.34049" lon="5.87999">
        <ele>2024</ele>
        <time>2022-03-06T13:28:07Z</time>
      </trkpt>
      <trkpt lat="45.34049" lon="5.87999">
        <ele>2024</ele>
        <time>2022-03-06T13:28:11Z</time>
      </trkpt>
      <trkpt lat="45.34049" lon="5.87999">
        <ele>2025</ele>
        <time>2022-03-06T13:28:15Z</time>
      </trkpt>
      <trkpt lat="45.34049" lon="5.87999">
        <ele>2025</ele>
        <time>2022-03-06T13:28:19Z</time>
      </trkpt>
      <trkpt lat="45.34049" lon="5.87999">
        <ele>2024</ele>
        <time>2022-03-06T13:28:23Z</time>
      </trkpt>
      <trkpt lat="45.34049" lon="5.87999">
        <ele>2024</ele>
        <time>2022-03-06T13:28:27Z</time>
      </trkpt>
      <trkpt lat="45.34049" lon="5.87999">
        <ele>2024</ele>
        <time>2022-03-06T13:28:31Z</time>
      </trkpt>
      <trkpt lat="45.34049" lon="5.87999">
        <ele>2024</ele>
        <time>2022-03-06T13:28:35Z</time>
      </trkpt>
      <trkpt lat="45.34049" lon="5.87999">
        <ele>2024</ele>
        <time>2022-03-06T13:28:39Z</time>
      </trkpt>
      <trkpt lat="45.34049" lon="5.87999">
        <ele>2024</ele>
        <time>2022-03-06T13:28:43Z</time>
      </trkpt>
      <trkpt lat="45.34049" lon="5.87999">
        <ele>2024</ele>
        <time>2022-03-06T13:28:47Z</time>
      </trkpt>
      <trkpt lat="45.34049" lon="5.87999">
        <ele>2023</ele>
        <time>2022-03-06T13:28:51Z</time>
      </trkpt>
      <trkpt lat="45.34049" lon="5.87999">
        <ele>2023</ele>
        <time>2022-03-06T13:28:55Z</time>
      </trkpt>
      <trkpt lat="45.34049" lon="5.87999">
        <ele>2024</ele>
        <time>2022-03-06T13:28:59Z</time>
      </trkpt>
      <trkpt lat="45.34049" lon="5.87999">
        <ele>2024</ele>
        <time>2022-03-06T13:29:03Z</time>
      </trkpt>
      <trkpt lat="45.34049" lon="5.87999">
        <ele>2023</ele>
        <time>2022-03-06T13:29:07Z</time>
      </trkpt>
      <trkpt lat="45.34049" lon="5.87999">
        <ele>2023</ele>
        <time>2022-03-06T13:29:11Z</time>
      </trkpt>
      <trkpt lat="45.34049" lon="5.87999">
        <ele>2024</ele>
        <time>2022-03-06T13:29:15Z</time>
      </trkpt>
      <trkpt lat="45.34049" lon="5.87999">
        <ele>2024</ele>
        <time>2022-03-06T13:29:19Z</time>
      </trkpt>
      <trkpt lat="45.34049" lon="5.87999">
        <ele>2024</ele>
        <time>2022-03-06T13:29:23Z</time>
      </trkpt>
      <trkpt lat="45.34049" lon="5.87999">
        <ele>2024</ele>
        <time>2022-03-06T13:29:27Z</time>
      </trkpt>
      <trkpt lat="45.34049" lon="5.87999">
        <ele>2024</ele>
        <time>2022-03-06T13:29:31Z</time>
      </trkpt>
      <trkpt lat="45.34049" lon="5.87999">
        <ele>2024</ele>
        <time>2022-03-06T13:29:35Z</time>
      </trkpt>
      <trkpt lat="45.34049" lon="5.87999">
        <ele>2024</ele>
        <time>2022-03-06T13:29:39Z</time>
      </trkpt>
      <trkpt lat="45.34049" lon="5.87999">
        <ele>2024</ele>
        <time>2022-03-06T13:29:43Z</time>
      </trkpt>
      <trkpt lat="45.34049" lon="5.87999">
        <ele>2024</ele>
        <time>2022-03-06T13:29:47Z</time>
      </trkpt>
      <trkpt lat="45.34049" lon="5.87999">
        <ele>2024</ele>
        <time>2022-03-06T13:29:51Z</time>
      </trkpt>
      <trkpt lat="45.34049" lon="5.87999">
        <ele>2024</ele>
        <time>2022-03-06T13:29:55Z</time>
      </trkpt>
      <trkpt lat="45.34049" lon="5.87999">
        <ele>2024</ele>
        <time>2022-03-06T13:29:59Z</time>
      </trkpt>
      <trkpt lat="45.34049" lon="5.87999">
        <ele>2024</ele>
        <time>2022-03-06T13:30:03Z</time>
      </trkpt>
      <trkpt lat="45.34049" lon="5.87999">
        <ele>2024</ele>
        <time>2022-03-06T13:30:07Z</time>
      </trkpt>
      <trkpt lat="45.34049" lon="5.87999">
        <ele>2024</ele>
        <time>2022-03-06T13:30:11Z</time>
      </trkpt>
      <trkpt lat="45.34049" lon="5.87999">
        <ele>2024</ele>
        <time>2022-03-06T13:30:15Z</time>
      </trkpt>
      <trkpt lat="45.34049" lon="5.87999">
        <ele>2024</ele>
        <time>2022-03-06T13:30:19Z</time>
      </trkpt>
      <trkpt lat="45.34049" lon="5.87999">
        <ele>2024</ele>
        <time>2022-03-06T13:30:23Z</time>
      </trkpt>
      <trkpt lat="45.34049" lon="5.87999">
        <ele>2024</ele>
        <time>2022-03-06T13:30:27Z</time>
      </trkpt>
      <trkpt lat="45.34049" lon="5.87999">
        <ele>2024</ele>
        <time>2022-03-06T13:30:31Z</time>
      </trkpt>
      <trkpt lat="45.34049" lon="5.87999">
        <ele>2024</ele>
        <time>2022-03-06T13:30:35Z</time>
      </trkpt>
      <trkpt lat="45.34049" lon="5.87999">
        <ele>2024</ele>
        <time>2022-03-06T13:30:39Z</time>
      </trkpt>
      <trkpt lat="45.34049" lon="5.87999">
        <ele>2024</ele>
        <time>2022-03-06T13:30:43Z</time>
      </trkpt>
      <trkpt lat="45.34049" lon="5.87999">
        <ele>2024</ele>
        <time>2022-03-06T13:30:47Z</time>
      </trkpt>
      <trkpt lat="45.34049" lon="5.87999">
        <ele>2024</ele>
        <time>2022-03-06T13:30:51Z</time>
      </trkpt>
      <trkpt lat="45.34049" lon="5.87999">
        <ele>2024</ele>
        <time>2022-03-06T13:30:55Z</time>
      </trkpt>
      <trkpt lat="45.34049" lon="5.87999">
        <ele>2024</ele>
        <time>2022-03-06T13:30:59Z</time>
      </trkpt>
      <trkpt lat="45.34049" lon="5.87999">
        <ele>2024</ele>
        <time>2022-03-06T13:31:03Z</time>
      </trkpt>
      <trkpt lat="45.34049" lon="5.87999">
        <ele>2024</ele>
        <time>2022-03-06T13:31:07Z</time>
      </trkpt>
      <trkpt lat="45.34049" lon="5.87999">
        <ele>2024</ele>
        <time>2022-03-06T13:31:11Z</time>
      </trkpt>
      <trkpt lat="45.34049" lon="5.87999">
        <ele>2024</ele>
        <time>2022-03-06T13:31:15Z</time>
      </trkpt>
      <trkpt lat="45.34049" lon="5.87999">
        <ele>2024</ele>
        <time>2022-03-06T13:31:19Z</time>
      </trkpt>
      <trkpt lat="45.34049" lon="5.87999">
        <ele>2024</ele>
        <time>2022-03-06T13:31:23Z</time>
      </trkpt>
      <trkpt lat="45.34049" lon="5.87999">
        <ele>2024</ele>
        <time>2022-03-06T13:31:27Z</time>
      </trkpt>
      <trkpt lat="45.34049" lon="5.87999">
        <ele>2024</ele>
        <time>2022-03-06T13:31:31Z</time>
      </trkpt>
      <trkpt lat="45.34049" lon="5.87999">
        <ele>2024</ele>
        <time>2022-03-06T13:31:35Z</time>
      </trkpt>
      <trkpt lat="45.34049" lon="5.87999">
        <ele>2024</ele>
        <time>2022-03-06T13:31:39Z</time>
      </trkpt>
      <trkpt lat="45.34049" lon="5.87999">
        <ele>2024</ele>
        <time>2022-03-06T13:31:43Z</time>
      </trkpt>
      <trkpt lat="45.34049" lon="5.87999">
        <ele>2024</ele>
        <time>2022-03-06T13:31:47Z</time>
      </trkpt>
      <trkpt lat="45.34049" lon="5.87999">
        <ele>2024</ele>
        <time>2022-03-06T13:31:51Z</time>
      </trkpt>
      <trkpt lat="45.34049" lon="5.87999">
        <ele>2024</ele>
        <time>2022-03-06T13:31:55Z</time>
      </trkpt>
      <trkpt lat="45.34049" lon="5.87999">
        <ele>2025</ele>
        <time>2022-03-06T13:31:59Z</time>
      </trkpt>
      <trkpt lat="45.34049" lon="5.87999">
        <ele>2025</ele>
        <time>2022-03-06T13:32:03Z</time>
      </trkpt>
      <trkpt lat="45.3405" lon="5.88001">
        <ele>2025</ele>
        <time>2022-03-06T13:32:05Z</time>
      </trkpt>
      <trkpt lat="45.3405" lon="5.88001">
        <ele>2026</ele>
        <time>2022-03-06T13:32:08Z</time>
      </trkpt>
      <trkpt lat="45.3405" lon="5.88004">
        <ele>2026</ele>
        <time>2022-03-06T13:32:10Z</time>
      </trkpt>
      <trkpt lat="45.3405" lon="5.88004">
        <ele>2026</ele>
        <time>2022-03-06T13:32:13Z</time>
      </trkpt>
      <trkpt lat="45.3405" lon="5.88004">
        <ele>2026</ele>
        <time>2022-03-06T13:32:17Z</time>
      </trkpt>
      <trkpt lat="45.3405" lon="5.88004">
        <ele>2026</ele>
        <time>2022-03-06T13:32:21Z</time>
      </trkpt>
      <trkpt lat="45.3405" lon="5.88004">
        <ele>2026</ele>
        <time>2022-03-06T13:32:25Z</time>
      </trkpt>
      <trkpt lat="45.3405" lon="5.88004">
        <ele>2026</ele>
        <time>2022-03-06T13:32:29Z</time>
      </trkpt>
      <trkpt lat="45.3405" lon="5.88004">
        <ele>2026</ele>
        <time>2022-03-06T13:32:33Z</time>
      </trkpt>
      <trkpt lat="45.3405" lon="5.88001">
        <ele>2026</ele>
        <time>2022-03-06T13:32:36Z</time>
      </trkpt>
      <trkpt lat="45.3405" lon="5.88001">
        <ele>2026</ele>
        <time>2022-03-06T13:32:38Z</time>
      </trkpt>
      <trkpt lat="45.3405" lon="5.88001">
        <ele>2026</ele>
        <time>2022-03-06T13:32:42Z</time>
      </trkpt>
      <trkpt lat="45.3405" lon="5.88001">
        <ele>2026</ele>
        <time>2022-03-06T13:32:46Z</time>
      </trkpt>
      <trkpt lat="45.3405" lon="5.88001">
        <ele>2026</ele>
        <time>2022-03-06T13:32:50Z</time>
      </trkpt>
      <trkpt lat="45.3405" lon="5.88001">
        <ele>2026</ele>
        <time>2022-03-06T13:32:54Z</time>
      </trkpt>
      <trkpt lat="45.3405" lon="5.88001">
        <ele>2026</ele>
        <time>2022-03-06T13:32:58Z</time>
      </trkpt>
      <trkpt lat="45.3405" lon="5.88001">
        <ele>2026</ele>
        <time>2022-03-06T13:33:02Z</time>
      </trkpt>
      <trkpt lat="45.3405" lon="5.88001">
        <ele>2026</ele>
        <time>2022-03-06T13:33:06Z</time>
      </trkpt>
      <trkpt lat="45.3405" lon="5.88001">
        <ele>2026</ele>
        <time>2022-03-06T13:33:10Z</time>
      </trkpt>
      <trkpt lat="45.3405" lon="5.88001">
        <ele>2026</ele>
        <time>2022-03-06T13:33:14Z</time>
      </trkpt>
      <trkpt lat="45.3405" lon="5.88001">
        <ele>2025</ele>
        <time>2022-03-06T13:33:18Z</time>
      </trkpt>
      <trkpt lat="45.3405" lon="5.88001">
        <ele>2025</ele>
        <time>2022-03-06T13:33:22Z</time>
      </trkpt>
      <trkpt lat="45.3405" lon="5.88001">
        <ele>2025</ele>
        <time>2022-03-06T13:33:26Z</time>
      </trkpt>
      <trkpt lat="45.34052" lon="5.88">
        <ele>2025</ele>
        <time>2022-03-06T13:33:28Z</time>
      </trkpt>
      <trkpt lat="45.34052" lon="5.88">
        <ele>2025</ele>
        <time>2022-03-06T13:33:31Z</time>
      </trkpt>
      <trkpt lat="45.34052" lon="5.88">
        <ele>2026</ele>
        <time>2022-03-06T13:33:35Z</time>
      </trkpt>
      <trkpt lat="45.34052" lon="5.88">
        <ele>2025</ele>
        <time>2022-03-06T13:33:39Z</time>
      </trkpt>
      <trkpt lat="45.34052" lon="5.88">
        <ele>2025</ele>
        <time>2022-03-06T13:33:43Z</time>
      </trkpt>
      <trkpt lat="45.34052" lon="5.88">
        <ele>2025</ele>
        <time>2022-03-06T13:33:47Z</time>
      </trkpt>
      <trkpt lat="45.34052" lon="5.88">
        <ele>2025</ele>
        <time>2022-03-06T13:33:51Z</time>
      </trkpt>
      <trkpt lat="45.34052" lon="5.88">
        <ele>2025</ele>
        <time>2022-03-06T13:33:55Z</time>
      </trkpt>
      <trkpt lat="45.34052" lon="5.88">
        <ele>2025</ele>
        <time>2022-03-06T13:33:59Z</time>
      </trkpt>
      <trkpt lat="45.34052" lon="5.88">
        <ele>2025</ele>
        <time>2022-03-06T13:34:03Z</time>
      </trkpt>
      <trkpt lat="45.34052" lon="5.88">
        <ele>2026</ele>
        <time>2022-03-06T13:34:07Z</time>
      </trkpt>
      <trkpt lat="45.34052" lon="5.88">
        <ele>2026</ele>
        <time>2022-03-06T13:34:11Z</time>
      </trkpt>
      <trkpt lat="45.34052" lon="5.88">
        <ele>2025</ele>
        <time>2022-03-06T13:34:15Z</time>
      </trkpt>
      <trkpt lat="45.34052" lon="5.88">
        <ele>2025</ele>
        <time>2022-03-06T13:34:19Z</time>
      </trkpt>
      <trkpt lat="45.34052" lon="5.88">
        <ele>2025</ele>
        <time>2022-03-06T13:34:23Z</time>
      </trkpt>
      <trkpt lat="45.34052" lon="5.88">
        <ele>2024</ele>
        <time>2022-03-06T13:34:27Z</time>
      </trkpt>
      <trkpt lat="45.34052" lon="5.88">
        <ele>2025</ele>
        <time>2022-03-06T13:34:31Z</time>
      </trkpt>
      <trkpt lat="45.34052" lon="5.88">
        <ele>2025</ele>
        <time>2022-03-06T13:34:35Z</time>
      </trkpt>
      <trkpt lat="45.34052" lon="5.88">
        <ele>2025</ele>
        <time>2022-03-06T13:34:39Z</time>
      </trkpt>
      <trkpt lat="45.34052" lon="5.88">
        <ele>2025</ele>
        <time>2022-03-06T13:34:43Z</time>
      </trkpt>
      <trkpt lat="45.34052" lon="5.88">
        <ele>2025</ele>
        <time>2022-03-06T13:34:47Z</time>
      </trkpt>
      <trkpt lat="45.34052" lon="5.88">
        <ele>2025</ele>
        <time>2022-03-06T13:34:51Z</time>
      </trkpt>
      <trkpt lat="45.34052" lon="5.88">
        <ele>2025</ele>
        <time>2022-03-06T13:34:55Z</time>
      </trkpt>
      <trkpt lat="45.34052" lon="5.88">
        <ele>2025</ele>
        <time>2022-03-06T13:34:59Z</time>
      </trkpt>
      <trkpt lat="45.34052" lon="5.88">
        <ele>2025</ele>
        <time>2022-03-06T13:35:03Z</time>
      </trkpt>
      <trkpt lat="45.34052" lon="5.88">
        <ele>2025</ele>
        <time>2022-03-06T13:35:07Z</time>
      </trkpt>
      <trkpt lat="45.34052" lon="5.88">
        <ele>2025</ele>
        <time>2022-03-06T13:35:11Z</time>
      </trkpt>
      <trkpt lat="45.34052" lon="5.88">
        <ele>2025</ele>
        <time>2022-03-06T13:35:15Z</time>
      </trkpt>
      <trkpt lat="45.34052" lon="5.88">
        <ele>2026</ele>
        <time>2022-03-06T13:35:19Z</time>
      </trkpt>
      <trkpt lat="45.34052" lon="5.88">
        <ele>2026</ele>
        <time>2022-03-06T13:35:23Z</time>
      </trkpt>
      <trkpt lat="45.34052" lon="5.88">
        <ele>2026</ele>
        <time>2022-03-06T13:35:27Z</time>
      </trkpt>
      <trkpt lat="45.34052" lon="5.88">
        <ele>2026</ele>
        <time>2022-03-06T13:35:31Z</time>
      </trkpt>
      <trkpt lat="45.34052" lon="5.88">
        <ele>2025</ele>
        <time>2022-03-06T13:35:35Z</time>
      </trkpt>
      <trkpt lat="45.34052" lon="5.88">
        <ele>2025</ele>
        <time>2022-03-06T13:35:39Z</time>
      </trkpt>
      <trkpt lat="45.34052" lon="5.88">
        <ele>2025</ele>
        <time>2022-03-06T13:35:43Z</time>
      </trkpt>
      <trkpt lat="45.34052" lon="5.88">
        <ele>2025</ele>
        <time>2022-03-06T13:35:47Z</time>
      </trkpt>
      <trkpt lat="45.34052" lon="5.88">
        <ele>2025</ele>
        <time>2022-03-06T13:35:51Z</time>
      </trkpt>
      <trkpt lat="45.34052" lon="5.88">
        <ele>2025</ele>
        <time>2022-03-06T13:35:55Z</time>
      </trkpt>
      <trkpt lat="45.3405" lon="5.87998">
        <ele>2025</ele>
        <time>2022-03-06T13:35:58Z</time>
      </trkpt>
      <trkpt lat="45.3405" lon="5.87998">
        <ele>2025</ele>
        <time>2022-03-06T13:36:00Z</time>
      </trkpt>
      <trkpt lat="45.3405" lon="5.87998">
        <ele>2025</ele>
        <time>2022-03-06T13:36:04Z</time>
      </trkpt>
      <trkpt lat="45.3405" lon="5.87998">
        <ele>2026</ele>
        <time>2022-03-06T13:36:08Z</time>
      </trkpt>
      <trkpt lat="45.3405" lon="5.87998">
        <ele>2025</ele>
        <time>2022-03-06T13:36:12Z</time>
      </trkpt>
      <trkpt lat="45.3405" lon="5.87998">
        <ele>2026</ele>
        <time>2022-03-06T13:36:16Z</time>
      </trkpt>
      <trkpt lat="45.34048" lon="5.87997">
        <ele>2026</ele>
        <time>2022-03-06T13:36:17Z</time>
      </trkpt>
      <trkpt lat="45.34048" lon="5.87997">
        <ele>2025</ele>
        <time>2022-03-06T13:36:21Z</time>
      </trkpt>
      <trkpt lat="45.34048" lon="5.87997">
        <ele>2025</ele>
        <time>2022-03-06T13:36:25Z</time>
      </trkpt>
      <trkpt lat="45.34048" lon="5.87997">
        <ele>2025</ele>
        <time>2022-03-06T13:36:29Z</time>
      </trkpt>
      <trkpt lat="45.34048" lon="5.87997">
        <ele>2025</ele>
        <time>2022-03-06T13:36:33Z</time>
      </trkpt>
      <trkpt lat="45.34048" lon="5.87997">
        <ele>2025</ele>
        <time>2022-03-06T13:36:37Z</time>
      </trkpt>
      <trkpt lat="45.34048" lon="5.87997">
        <ele>2025</ele>
        <time>2022-03-06T13:36:41Z</time>
      </trkpt>
      <trkpt lat="45.34048" lon="5.87997">
        <ele>2025</ele>
        <time>2022-03-06T13:36:45Z</time>
      </trkpt>
      <trkpt lat="45.34048" lon="5.87997">
        <ele>2025</ele>
        <time>2022-03-06T13:36:49Z</time>
      </trkpt>
      <trkpt lat="45.34048" lon="5.87997">
        <ele>2025</ele>
        <time>2022-03-06T13:36:53Z</time>
      </trkpt>
      <trkpt lat="45.34048" lon="5.87997">
        <ele>2025</ele>
        <time>2022-03-06T13:36:57Z</time>
      </trkpt>
      <trkpt lat="45.34048" lon="5.87997">
        <ele>2025</ele>
        <time>2022-03-06T13:37:01Z</time>
      </trkpt>
      <trkpt lat="45.34048" lon="5.87997">
        <ele>2025</ele>
        <time>2022-03-06T13:37:05Z</time>
      </trkpt>
      <trkpt lat="45.34048" lon="5.87997">
        <ele>2026</ele>
        <time>2022-03-06T13:37:09Z</time>
      </trkpt>
      <trkpt lat="45.34048" lon="5.87997">
        <ele>2026</ele>
        <time>2022-03-06T13:37:13Z</time>
      </trkpt>
      <trkpt lat="45.34048" lon="5.87997">
        <ele>2026</ele>
        <time>2022-03-06T13:37:17Z</time>
      </trkpt>
      <trkpt lat="45.34048" lon="5.87997">
        <ele>2025</ele>
        <time>2022-03-06T13:37:21Z</time>
      </trkpt>
      <trkpt lat="45.34048" lon="5.87997">
        <ele>2025</ele>
        <time>2022-03-06T13:37:25Z</time>
      </trkpt>
      <trkpt lat="45.34048" lon="5.87997">
        <ele>2025</ele>
        <time>2022-03-06T13:37:29Z</time>
      </trkpt>
      <trkpt lat="45.34048" lon="5.87997">
        <ele>2025</ele>
        <time>2022-03-06T13:37:33Z</time>
      </trkpt>
      <trkpt lat="45.34048" lon="5.87997">
        <ele>2025</ele>
        <time>2022-03-06T13:37:37Z</time>
      </trkpt>
      <trkpt lat="45.34048" lon="5.87997">
        <ele>2025</ele>
        <time>2022-03-06T13:37:41Z</time>
      </trkpt>
      <trkpt lat="45.34048" lon="5.87997">
        <ele>2025</ele>
        <time>2022-03-06T13:37:45Z</time>
      </trkpt>
      <trkpt lat="45.34048" lon="5.87997">
        <ele>2025</ele>
        <time>2022-03-06T13:37:49Z</time>
      </trkpt>
      <trkpt lat="45.34048" lon="5.87997">
        <ele>2025</ele>
        <time>2022-03-06T13:37:53Z</time>
      </trkpt>
      <trkpt lat="45.34048" lon="5.87997">
        <ele>2025</ele>
        <time>2022-03-06T13:37:57Z</time>
      </trkpt>
      <trkpt lat="45.34048" lon="5.87997">
        <ele>2025</ele>
        <time>2022-03-06T13:38:01Z</time>
      </trkpt>
      <trkpt lat="45.34048" lon="5.87997">
        <ele>2025</ele>
        <time>2022-03-06T13:38:05Z</time>
      </trkpt>
      <trkpt lat="45.34048" lon="5.87997">
        <ele>2025</ele>
        <time>2022-03-06T13:38:09Z</time>
      </trkpt>
      <trkpt lat="45.34048" lon="5.87997">
        <ele>2025</ele>
        <time>2022-03-06T13:38:13Z</time>
      </trkpt>
      <trkpt lat="45.34048" lon="5.87997">
        <ele>2025</ele>
        <time>2022-03-06T13:38:17Z</time>
      </trkpt>
      <trkpt lat="45.34048" lon="5.87997">
        <ele>2025</ele>
        <time>2022-03-06T13:38:21Z</time>
      </trkpt>
      <trkpt lat="45.34048" lon="5.87997">
        <ele>2025</ele>
        <time>2022-03-06T13:38:25Z</time>
      </trkpt>
      <trkpt lat="45.34048" lon="5.87997">
        <ele>2026</ele>
        <time>2022-03-06T13:38:29Z</time>
      </trkpt>
      <trkpt lat="45.34048" lon="5.87997">
        <ele>2025</ele>
        <time>2022-03-06T13:38:33Z</time>
      </trkpt>
      <trkpt lat="45.34048" lon="5.87997">
        <ele>2024</ele>
        <time>2022-03-06T13:38:37Z</time>
      </trkpt>
      <trkpt lat="45.34048" lon="5.87997">
        <ele>2024</ele>
        <time>2022-03-06T13:38:41Z</time>
      </trkpt>
      <trkpt lat="45.34048" lon="5.87997">
        <ele>2025</ele>
        <time>2022-03-06T13:38:45Z</time>
      </trkpt>
      <trkpt lat="45.34048" lon="5.87997">
        <ele>2025</ele>
        <time>2022-03-06T13:38:49Z</time>
      </trkpt>
      <trkpt lat="45.34048" lon="5.87997">
        <ele>2025</ele>
        <time>2022-03-06T13:38:53Z</time>
      </trkpt>
      <trkpt lat="45.34048" lon="5.87997">
        <ele>2025</ele>
        <time>2022-03-06T13:38:57Z</time>
      </trkpt>
      <trkpt lat="45.34048" lon="5.87997">
        <ele>2025</ele>
        <time>2022-03-06T13:39:01Z</time>
      </trkpt>
      <trkpt lat="45.34048" lon="5.87997">
        <ele>2024</ele>
        <time>2022-03-06T13:39:05Z</time>
      </trkpt>
      <trkpt lat="45.34048" lon="5.87997">
        <ele>2025</ele>
        <time>2022-03-06T13:39:09Z</time>
      </trkpt>
      <trkpt lat="45.34047" lon="5.87998">
        <ele>2025</ele>
        <time>2022-03-06T13:39:10Z</time>
      </trkpt>
      <trkpt lat="45.34047" lon="5.87998">
        <ele>2025</ele>
        <time>2022-03-06T13:39:14Z</time>
      </trkpt>
      <trkpt lat="45.34047" lon="5.87998">
        <ele>2025</ele>
        <time>2022-03-06T13:39:18Z</time>
      </trkpt>
      <trkpt lat="45.34047" lon="5.87998">
        <ele>2025</ele>
        <time>2022-03-06T13:39:22Z</time>
      </trkpt>
      <trkpt lat="45.34047" lon="5.87998">
        <ele>2025</ele>
        <time>2022-03-06T13:39:26Z</time>
      </trkpt>
      <trkpt lat="45.34047" lon="5.87998">
        <ele>2026</ele>
        <time>2022-03-06T13:39:30Z</time>
      </trkpt>
      <trkpt lat="45.34047" lon="5.87998">
        <ele>2025</ele>
        <time>2022-03-06T13:39:34Z</time>
      </trkpt>
      <trkpt lat="45.34047" lon="5.87998">
        <ele>2025</ele>
        <time>2022-03-06T13:39:38Z</time>
      </trkpt>
      <trkpt lat="45.34047" lon="5.87998">
        <ele>2025</ele>
        <time>2022-03-06T13:39:42Z</time>
      </trkpt>
      <trkpt lat="45.34047" lon="5.87998">
        <ele>2026</ele>
        <time>2022-03-06T13:39:46Z</time>
      </trkpt>
      <trkpt lat="45.34047" lon="5.87998">
        <ele>2024</ele>
        <time>2022-03-06T13:39:50Z</time>
      </trkpt>
      <trkpt lat="45.34047" lon="5.87998">
        <ele>2025</ele>
        <time>2022-03-06T13:39:54Z</time>
      </trkpt>
      <trkpt lat="45.34047" lon="5.87998">
        <ele>2024</ele>
        <time>2022-03-06T13:39:58Z</time>
      </trkpt>
      <trkpt lat="45.34047" lon="5.87998">
        <ele>2026</ele>
        <time>2022-03-06T13:40:02Z</time>
      </trkpt>
      <trkpt lat="45.34047" lon="5.87998">
        <ele>2025</ele>
        <time>2022-03-06T13:40:06Z</time>
      </trkpt>
      <trkpt lat="45.34047" lon="5.87998">
        <ele>2025</ele>
        <time>2022-03-06T13:40:10Z</time>
      </trkpt>
      <trkpt lat="45.34047" lon="5.87998">
        <ele>2025</ele>
        <time>2022-03-06T13:40:14Z</time>
      </trkpt>
      <trkpt lat="45.34047" lon="5.87998">
        <ele>2025</ele>
        <time>2022-03-06T13:40:18Z</time>
      </trkpt>
      <trkpt lat="45.34047" lon="5.87998">
        <ele>2025</ele>
        <time>2022-03-06T13:40:22Z</time>
      </trkpt>
      <trkpt lat="45.34047" lon="5.87998">
        <ele>2024</ele>
        <time>2022-03-06T13:40:26Z</time>
      </trkpt>
      <trkpt lat="45.34047" lon="5.87998">
        <ele>2024</ele>
        <time>2022-03-06T13:40:30Z</time>
      </trkpt>
      <trkpt lat="45.34047" lon="5.87998">
        <ele>2025</ele>
        <time>2022-03-06T13:40:34Z</time>
      </trkpt>
      <trkpt lat="45.34047" lon="5.87998">
        <ele>2025</ele>
        <time>2022-03-06T13:40:38Z</time>
      </trkpt>
      <trkpt lat="45.34047" lon="5.87998">
        <ele>2025</ele>
        <time>2022-03-06T13:40:42Z</time>
      </trkpt>
      <trkpt lat="45.34047" lon="5.87998">
        <ele>2025</ele>
        <time>2022-03-06T13:40:46Z</time>
      </trkpt>
      <trkpt lat="45.34047" lon="5.87998">
        <ele>2026</ele>
        <time>2022-03-06T13:40:50Z</time>
      </trkpt>
      <trkpt lat="45.34047" lon="5.87998">
        <ele>2025</ele>
        <time>2022-03-06T13:40:54Z</time>
      </trkpt>
      <trkpt lat="45.34047" lon="5.87998">
        <ele>2025</ele>
        <time>2022-03-06T13:40:58Z</time>
      </trkpt>
      <trkpt lat="45.34047" lon="5.87998">
        <ele>2025</ele>
        <time>2022-03-06T13:41:02Z</time>
      </trkpt>
      <trkpt lat="45.34047" lon="5.87998">
        <ele>2025</ele>
        <time>2022-03-06T13:41:06Z</time>
      </trkpt>
      <trkpt lat="45.34049" lon="5.87997">
        <ele>2025</ele>
        <time>2022-03-06T13:41:09Z</time>
      </trkpt>
      <trkpt lat="45.34049" lon="5.87997">
        <ele>2025</ele>
        <time>2022-03-06T13:41:11Z</time>
      </trkpt>
      <trkpt lat="45.34049" lon="5.87997">
        <ele>2026</ele>
        <time>2022-03-06T13:41:15Z</time>
      </trkpt>
      <trkpt lat="45.34049" lon="5.87997">
        <ele>2026</ele>
        <time>2022-03-06T13:41:19Z</time>
      </trkpt>
      <trkpt lat="45.34049" lon="5.87997">
        <ele>2025</ele>
        <time>2022-03-06T13:41:23Z</time>
      </trkpt>
      <trkpt lat="45.34049" lon="5.87997">
        <ele>2025</ele>
        <time>2022-03-06T13:41:27Z</time>
      </trkpt>
      <trkpt lat="45.34049" lon="5.87997">
        <ele>2026</ele>
        <time>2022-03-06T13:41:31Z</time>
      </trkpt>
      <trkpt lat="45.34049" lon="5.87997">
        <ele>2026</ele>
        <time>2022-03-06T13:41:35Z</time>
      </trkpt>
      <trkpt lat="45.34049" lon="5.87997">
        <ele>2026</ele>
        <time>2022-03-06T13:41:39Z</time>
      </trkpt>
      <trkpt lat="45.34049" lon="5.87997">
        <ele>2025</ele>
        <time>2022-03-06T13:41:43Z</time>
      </trkpt>
      <trkpt lat="45.34049" lon="5.87997">
        <ele>2025</ele>
        <time>2022-03-06T13:41:47Z</time>
      </trkpt>
      <trkpt lat="45.34049" lon="5.87997">
        <ele>2025</ele>
        <time>2022-03-06T13:41:51Z</time>
      </trkpt>
      <trkpt lat="45.34049" lon="5.87997">
        <ele>2026</ele>
        <time>2022-03-06T13:41:55Z</time>
      </trkpt>
      <trkpt lat="45.34049" lon="5.87997">
        <ele>2026</ele>
        <time>2022-03-06T13:41:59Z</time>
      </trkpt>
      <trkpt lat="45.34049" lon="5.87997">
        <ele>2026</ele>
        <time>2022-03-06T13:42:03Z</time>
      </trkpt>
      <trkpt lat="45.34049" lon="5.87997">
        <ele>2025</ele>
        <time>2022-03-06T13:42:07Z</time>
      </trkpt>
      <trkpt lat="45.34049" lon="5.87997">
        <ele>2025</ele>
        <time>2022-03-06T13:42:11Z</time>
      </trkpt>
      <trkpt lat="45.34049" lon="5.87997">
        <ele>2025</ele>
        <time>2022-03-06T13:42:15Z</time>
      </trkpt>
      <trkpt lat="45.34049" lon="5.87997">
        <ele>2027</ele>
        <time>2022-03-06T13:42:19Z</time>
      </trkpt>
      <trkpt lat="45.34049" lon="5.87997">
        <ele>2027</ele>
        <time>2022-03-06T13:42:23Z</time>
      </trkpt>
      <trkpt lat="45.34049" lon="5.87997">
        <ele>2026</ele>
        <time>2022-03-06T13:42:27Z</time>
      </trkpt>
      <trkpt lat="45.34049" lon="5.87997">
        <ele>2026</ele>
        <time>2022-03-06T13:42:31Z</time>
      </trkpt>
      <trkpt lat="45.34049" lon="5.87997">
        <ele>2026</ele>
        <time>2022-03-06T13:42:35Z</time>
      </trkpt>
      <trkpt lat="45.34049" lon="5.87997">
        <ele>2025</ele>
        <time>2022-03-06T13:42:39Z</time>
      </trkpt>
      <trkpt lat="45.34049" lon="5.87997">
        <ele>2026</ele>
        <time>2022-03-06T13:42:43Z</time>
      </trkpt>
      <trkpt lat="45.34049" lon="5.87997">
        <ele>2026</ele>
        <time>2022-03-06T13:42:47Z</time>
      </trkpt>
      <trkpt lat="45.34049" lon="5.87997">
        <ele>2026</ele>
        <time>2022-03-06T13:42:51Z</time>
      </trkpt>
      <trkpt lat="45.34049" lon="5.87997">
        <ele>2026</ele>
        <time>2022-03-06T13:42:55Z</time>
      </trkpt>
      <trkpt lat="45.34049" lon="5.87997">
        <ele>2027</ele>
        <time>2022-03-06T13:42:59Z</time>
      </trkpt>
      <trkpt lat="45.34049" lon="5.87997">
        <ele>2026</ele>
        <time>2022-03-06T13:43:03Z</time>
      </trkpt>
      <trkpt lat="45.34049" lon="5.87997">
        <ele>2026</ele>
        <time>2022-03-06T13:43:07Z</time>
      </trkpt>
      <trkpt lat="45.34049" lon="5.87997">
        <ele>2026</ele>
        <time>2022-03-06T13:43:11Z</time>
      </trkpt>
      <trkpt lat="45.34049" lon="5.87997">
        <ele>2026</ele>
        <time>2022-03-06T13:43:15Z</time>
      </trkpt>
      <trkpt lat="45.34049" lon="5.87997">
        <ele>2026</ele>
        <time>2022-03-06T13:43:19Z</time>
      </trkpt>
      <trkpt lat="45.34049" lon="5.87997">
        <ele>2025</ele>
        <time>2022-03-06T13:43:23Z</time>
      </trkpt>
      <trkpt lat="45.34049" lon="5.87997">
        <ele>2024</ele>
        <time>2022-03-06T13:43:27Z</time>
      </trkpt>
      <trkpt lat="45.34049" lon="5.87997">
        <ele>2024</ele>
        <time>2022-03-06T13:43:31Z</time>
      </trkpt>
      <trkpt lat="45.34049" lon="5.87997">
        <ele>2024</ele>
        <time>2022-03-06T13:43:35Z</time>
      </trkpt>
      <trkpt lat="45.3405" lon="5.87996">
        <ele>2025</ele>
        <time>2022-03-06T13:43:39Z</time>
      </trkpt>
      <trkpt lat="45.3405" lon="5.87996">
        <ele>2025</ele>
        <time>2022-03-06T13:43:40Z</time>
      </trkpt>
      <trkpt lat="45.3405" lon="5.87996">
        <ele>2027</ele>
        <time>2022-03-06T13:43:44Z</time>
      </trkpt>
      <trkpt lat="45.3405" lon="5.87996">
        <ele>2026</ele>
        <time>2022-03-06T13:43:48Z</time>
      </trkpt>
      <trkpt lat="45.3405" lon="5.87996">
        <ele>2026</ele>
        <time>2022-03-06T13:43:52Z</time>
      </trkpt>
      <trkpt lat="45.3405" lon="5.87996">
        <ele>2026</ele>
        <time>2022-03-06T13:43:56Z</time>
      </trkpt>
      <trkpt lat="45.3405" lon="5.87996">
        <ele>2025</ele>
        <time>2022-03-06T13:44:00Z</time>
      </trkpt>
      <trkpt lat="45.3405" lon="5.87996">
        <ele>2025</ele>
        <time>2022-03-06T13:44:04Z</time>
      </trkpt>
      <trkpt lat="45.3405" lon="5.87996">
        <ele>2026</ele>
        <time>2022-03-06T13:44:08Z</time>
      </trkpt>
      <trkpt lat="45.3405" lon="5.87996">
        <ele>2026</ele>
        <time>2022-03-06T13:44:12Z</time>
      </trkpt>
      <trkpt lat="45.3405" lon="5.87996">
        <ele>2025</ele>
        <time>2022-03-06T13:44:16Z</time>
      </trkpt>
      <trkpt lat="45.3405" lon="5.87996">
        <ele>2025</ele>
        <time>2022-03-06T13:44:20Z</time>
      </trkpt>
      <trkpt lat="45.3405" lon="5.87996">
        <ele>2025</ele>
        <time>2022-03-06T13:44:24Z</time>
      </trkpt>
      <trkpt lat="45.3405" lon="5.87996">
        <ele>2025</ele>
        <time>2022-03-06T13:44:28Z</time>
      </trkpt>
      <trkpt lat="45.3405" lon="5.87996">
        <ele>2025</ele>
        <time>2022-03-06T13:44:32Z</time>
      </trkpt>
      <trkpt lat="45.3405" lon="5.87996">
        <ele>2026</ele>
        <time>2022-03-06T13:44:36Z</time>
      </trkpt>
      <trkpt lat="45.3405" lon="5.87996">
        <ele>2026</ele>
        <time>2022-03-06T13:44:40Z</time>
      </trkpt>
      <trkpt lat="45.3405" lon="5.87996">
        <ele>2026</ele>
        <time>2022-03-06T13:44:44Z</time>
      </trkpt>
      <trkpt lat="45.3405" lon="5.87996">
        <ele>2024</ele>
        <time>2022-03-06T13:44:48Z</time>
      </trkpt>
      <trkpt lat="45.34052" lon="5.87994">
        <ele>2026</ele>
        <time>2022-03-06T13:44:52Z</time>
      </trkpt>
      <trkpt lat="45.34054" lon="5.87992">
        <ele>2026</ele>
        <time>2022-03-06T13:44:53Z</time>
      </trkpt>
      <trkpt lat="45.34055" lon="5.87989">
        <ele>2025</ele>
        <time>2022-03-06T13:44:54Z</time>
      </trkpt>
      <trkpt lat="45.34056" lon="5.87985">
        <ele>2025</ele>
        <time>2022-03-06T13:44:55Z</time>
      </trkpt>
      <trkpt lat="45.34056" lon="5.87979">
        <ele>2024</ele>
        <time>2022-03-06T13:44:56Z</time>
      </trkpt>
      <trkpt lat="45.34059" lon="5.87975">
        <ele>2022</ele>
        <time>2022-03-06T13:44:57Z</time>
      </trkpt>
      <trkpt lat="45.34063" lon="5.87974">
        <ele>2020</ele>
        <time>2022-03-06T13:44:58Z</time>
      </trkpt>
      <trkpt lat="45.34066" lon="5.87973">
        <ele>2019</ele>
        <time>2022-03-06T13:44:59Z</time>
      </trkpt>
      <trkpt lat="45.34069" lon="5.87972">
        <ele>2019</ele>
        <time>2022-03-06T13:45:00Z</time>
      </trkpt>
      <trkpt lat="45.34073" lon="5.87972">
        <ele>2019</ele>
        <time>2022-03-06T13:45:01Z</time>
      </trkpt>
      <trkpt lat="45.34076" lon="5.8797">
        <ele>2018</ele>
        <time>2022-03-06T13:45:02Z</time>
      </trkpt>
      <trkpt lat="45.3408" lon="5.87969">
        <ele>2017</ele>
        <time>2022-03-06T13:45:03Z</time>
      </trkpt>
      <trkpt lat="45.34083" lon="5.87967">
        <ele>2016</ele>
        <time>2022-03-06T13:45:04Z</time>
      </trkpt>
      <trkpt lat="45.34086" lon="5.87966">
        <ele>2015</ele>
        <time>2022-03-06T13:45:05Z</time>
      </trkpt>
      <trkpt lat="45.3409" lon="5.87964">
        <ele>2015</ele>
        <time>2022-03-06T13:45:06Z</time>
      </trkpt>
      <trkpt lat="45.34093" lon="5.87962">
        <ele>2014</ele>
        <time>2022-03-06T13:45:07Z</time>
      </trkpt>
      <trkpt lat="45.34096" lon="5.8796">
        <ele>2014</ele>
        <time>2022-03-06T13:45:08Z</time>
      </trkpt>
      <trkpt lat="45.34097" lon="5.87957">
        <ele>2012</ele>
        <time>2022-03-06T13:45:09Z</time>
      </trkpt>
      <trkpt lat="45.34097" lon="5.87953">
        <ele>2012</ele>
        <time>2022-03-06T13:45:10Z</time>
      </trkpt>
      <trkpt lat="45.34098" lon="5.87948">
        <ele>2010</ele>
        <time>2022-03-06T13:45:11Z</time>
      </trkpt>
      <trkpt lat="45.34099" lon="5.87943">
        <ele>2007</ele>
        <time>2022-03-06T13:45:12Z</time>
      </trkpt>
      <trkpt lat="45.341" lon="5.87938">
        <ele>2006</ele>
        <time>2022-03-06T13:45:13Z</time>
      </trkpt>
      <trkpt lat="45.34103" lon="5.87933">
        <ele>2005</ele>
        <time>2022-03-06T13:45:14Z</time>
      </trkpt>
      <trkpt lat="45.34106" lon="5.87928">
        <ele>2003</ele>
        <time>2022-03-06T13:45:15Z</time>
      </trkpt>
      <trkpt lat="45.34108" lon="5.87924">
        <ele>2002</ele>
        <time>2022-03-06T13:45:16Z</time>
      </trkpt>
      <trkpt lat="45.34111" lon="5.8792">
        <ele>2000</ele>
        <time>2022-03-06T13:45:17Z</time>
      </trkpt>
      <trkpt lat="45.34113" lon="5.87917">
        <ele>1999</ele>
        <time>2022-03-06T13:45:18Z</time>
      </trkpt>
      <trkpt lat="45.34115" lon="5.87914">
        <ele>1998</ele>
        <time>2022-03-06T13:45:19Z</time>
      </trkpt>
      <trkpt lat="45.34117" lon="5.8791">
        <ele>1997</ele>
        <time>2022-03-06T13:45:20Z</time>
      </trkpt>
      <trkpt lat="45.34119" lon="5.87906">
        <ele>1996</ele>
        <time>2022-03-06T13:45:21Z</time>
      </trkpt>
      <trkpt lat="45.34121" lon="5.87904">
        <ele>1995</ele>
        <time>2022-03-06T13:45:22Z</time>
      </trkpt>
      <trkpt lat="45.34122" lon="5.879">
        <ele>1994</ele>
        <time>2022-03-06T13:45:23Z</time>
      </trkpt>
      <trkpt lat="45.3412" lon="5.87897">
        <ele>1992</ele>
        <time>2022-03-06T13:45:24Z</time>
      </trkpt>
      <trkpt lat="45.34119" lon="5.87892">
        <ele>1991</ele>
        <time>2022-03-06T13:45:25Z</time>
      </trkpt>
      <trkpt lat="45.34119" lon="5.87887">
        <ele>1989</ele>
        <time>2022-03-06T13:45:26Z</time>
      </trkpt>
      <trkpt lat="45.34122" lon="5.87881">
        <ele>1989</ele>
        <time>2022-03-06T13:45:27Z</time>
      </trkpt>
      <trkpt lat="45.34125" lon="5.87874">
        <ele>1985</ele>
        <time>2022-03-06T13:45:28Z</time>
      </trkpt>
      <trkpt lat="45.34128" lon="5.87868">
        <ele>1982</ele>
        <time>2022-03-06T13:45:29Z</time>
      </trkpt>
      <trkpt lat="45.34131" lon="5.87863">
        <ele>1979</ele>
        <time>2022-03-06T13:45:30Z</time>
      </trkpt>
      <trkpt lat="45.34134" lon="5.87858">
        <ele>1978</ele>
        <time>2022-03-06T13:45:31Z</time>
      </trkpt>
      <trkpt lat="45.34137" lon="5.87854">
        <ele>1976</ele>
        <time>2022-03-06T13:45:32Z</time>
      </trkpt>
      <trkpt lat="45.34139" lon="5.87849">
        <ele>1975</ele>
        <time>2022-03-06T13:45:33Z</time>
      </trkpt>
      <trkpt lat="45.34143" lon="5.87845">
        <ele>1973</ele>
        <time>2022-03-06T13:45:34Z</time>
      </trkpt>
      <trkpt lat="45.34146" lon="5.8784">
        <ele>1972</ele>
        <time>2022-03-06T13:45:35Z</time>
      </trkpt>
      <trkpt lat="45.34149" lon="5.87835">
        <ele>1971</ele>
        <time>2022-03-06T13:45:36Z</time>
      </trkpt>
      <trkpt lat="45.34152" lon="5.87832">
        <ele>1970</ele>
        <time>2022-03-06T13:45:37Z</time>
      </trkpt>
      <trkpt lat="45.34154" lon="5.87828">
        <ele>1969</ele>
        <time>2022-03-06T13:45:38Z</time>
      </trkpt>
      <trkpt lat="45.34154" lon="5.87823">
        <ele>1968</ele>
        <time>2022-03-06T13:45:39Z</time>
      </trkpt>
      <trkpt lat="45.34154" lon="5.87816">
        <ele>1966</ele>
        <time>2022-03-06T13:45:40Z</time>
      </trkpt>
      <trkpt lat="45.34156" lon="5.87808">
        <ele>1964</ele>
        <time>2022-03-06T13:45:41Z</time>
      </trkpt>
      <trkpt lat="45.34159" lon="5.878">
        <ele>1960</ele>
        <time>2022-03-06T13:45:42Z</time>
      </trkpt>
      <trkpt lat="45.34162" lon="5.87791">
        <ele>1958</ele>
        <time>2022-03-06T13:45:43Z</time>
      </trkpt>
      <trkpt lat="45.34166" lon="5.87781">
        <ele>1956</ele>
        <time>2022-03-06T13:45:44Z</time>
      </trkpt>
      <trkpt lat="45.34171" lon="5.87772">
        <ele>1953</ele>
        <time>2022-03-06T13:45:45Z</time>
      </trkpt>
      <trkpt lat="45.34177" lon="5.87765">
        <ele>1953</ele>
        <time>2022-03-06T13:45:46Z</time>
      </trkpt>
      <trkpt lat="45.34182" lon="5.87759">
        <ele>1948</ele>
        <time>2022-03-06T13:45:47Z</time>
      </trkpt>
      <trkpt lat="45.34186" lon="5.87754">
        <ele>1946</ele>
        <time>2022-03-06T13:45:48Z</time>
      </trkpt>
      <trkpt lat="45.34185" lon="5.8775">
        <ele>1946</ele>
        <time>2022-03-06T13:45:49Z</time>
      </trkpt>
      <trkpt lat="45.34184" lon="5.87743">
        <ele>1944</ele>
        <time>2022-03-06T13:45:50Z</time>
      </trkpt>
      <trkpt lat="45.34185" lon="5.87734">
        <ele>1942</ele>
        <time>2022-03-06T13:45:51Z</time>
      </trkpt>
      <trkpt lat="45.34187" lon="5.87727">
        <ele>1940</ele>
        <time>2022-03-06T13:45:52Z</time>
      </trkpt>
      <trkpt lat="45.34187" lon="5.87721">
        <ele>1938</ele>
        <time>2022-03-06T13:45:53Z</time>
      </trkpt>
      <trkpt lat="45.34184" lon="5.8772">
        <ele>1935</ele>
        <time>2022-03-06T13:45:54Z</time>
      </trkpt>
      <trkpt lat="45.3418" lon="5.87715">
        <ele>1933</ele>
        <time>2022-03-06T13:45:55Z</time>
      </trkpt>
      <trkpt lat="45.34179" lon="5.87709">
        <ele>1931</ele>
        <time>2022-03-06T13:45:56Z</time>
      </trkpt>
      <trkpt lat="45.34179" lon="5.87704">
        <ele>1930</ele>
        <time>2022-03-06T13:45:57Z</time>
      </trkpt>
      <trkpt lat="45.34176" lon="5.87702">
        <ele>1928</ele>
        <time>2022-03-06T13:45:58Z</time>
      </trkpt>
      <trkpt lat="45.3417" lon="5.87702">
        <ele>1926</ele>
        <time>2022-03-06T13:45:59Z</time>
      </trkpt>
      <trkpt lat="45.34167" lon="5.87697">
        <ele>1922</ele>
        <time>2022-03-06T13:46:00Z</time>
      </trkpt>
      <trkpt lat="45.34166" lon="5.87691">
        <ele>1921</ele>
        <time>2022-03-06T13:46:01Z</time>
      </trkpt>
      <trkpt lat="45.34163" lon="5.87688">
        <ele>1919</ele>
        <time>2022-03-06T13:46:02Z</time>
      </trkpt>
      <trkpt lat="45.34159" lon="5.8769">
        <ele>1917</ele>
        <time>2022-03-06T13:46:03Z</time>
      </trkpt>
      <trkpt lat="45.34156" lon="5.87695">
        <ele>1914</ele>
        <time>2022-03-06T13:46:04Z</time>
      </trkpt>
      <trkpt lat="45.34153" lon="5.877">
        <ele>1914</ele>
        <time>2022-03-06T13:46:05Z</time>
      </trkpt>
      <trkpt lat="45.3415" lon="5.87701">
        <ele>1913</ele>
        <time>2022-03-06T13:46:06Z</time>
      </trkpt>
      <trkpt lat="45.34148" lon="5.87698">
        <ele>1910</ele>
        <time>2022-03-06T13:46:07Z</time>
      </trkpt>
      <trkpt lat="45.34148" lon="5.87693">
        <ele>1908</ele>
        <time>2022-03-06T13:46:08Z</time>
      </trkpt>
      <trkpt lat="45.34149" lon="5.87688">
        <ele>1907</ele>
        <time>2022-03-06T13:46:09Z</time>
      </trkpt>
      <trkpt lat="45.3415" lon="5.87684">
        <ele>1906</ele>
        <time>2022-03-06T13:46:10Z</time>
      </trkpt>
      <trkpt lat="45.34151" lon="5.87682">
        <ele>1905</ele>
        <time>2022-03-06T13:46:11Z</time>
      </trkpt>
      <trkpt lat="45.34152" lon="5.87678">
        <ele>1904</ele>
        <time>2022-03-06T13:46:13Z</time>
      </trkpt>
      <trkpt lat="45.34152" lon="5.87678">
        <ele>1904</ele>
        <time>2022-03-06T13:46:16Z</time>
      </trkpt>
      <trkpt lat="45.34153" lon="5.87676">
        <ele>1905</ele>
        <time>2022-03-06T13:46:19Z</time>
      </trkpt>
      <trkpt lat="45.34153" lon="5.87673">
        <ele>1905</ele>
        <time>2022-03-06T13:46:20Z</time>
      </trkpt>
      <trkpt lat="45.34152" lon="5.87668">
        <ele>1905</ele>
        <time>2022-03-06T13:46:21Z</time>
      </trkpt>
      <trkpt lat="45.34151" lon="5.87663">
        <ele>1904</ele>
        <time>2022-03-06T13:46:22Z</time>
      </trkpt>
      <trkpt lat="45.34151" lon="5.87658">
        <ele>1903</ele>
        <time>2022-03-06T13:46:23Z</time>
      </trkpt>
      <trkpt lat="45.34152" lon="5.87653">
        <ele>1901</ele>
        <time>2022-03-06T13:46:24Z</time>
      </trkpt>
      <trkpt lat="45.34152" lon="5.87648">
        <ele>1900</ele>
        <time>2022-03-06T13:46:25Z</time>
      </trkpt>
      <trkpt lat="45.34152" lon="5.87644">
        <ele>1899</ele>
        <time>2022-03-06T13:46:26Z</time>
      </trkpt>
      <trkpt lat="45.3415" lon="5.87644">
        <ele>1898</ele>
        <time>2022-03-06T13:46:27Z</time>
      </trkpt>
      <trkpt lat="45.34147" lon="5.87644">
        <ele>1897</ele>
        <time>2022-03-06T13:46:28Z</time>
      </trkpt>
      <trkpt lat="45.34145" lon="5.87641">
        <ele>1896</ele>
        <time>2022-03-06T13:46:29Z</time>
      </trkpt>
      <trkpt lat="45.34143" lon="5.87639">
        <ele>1895</ele>
        <time>2022-03-06T13:46:30Z</time>
      </trkpt>
      <trkpt lat="45.3414" lon="5.87638">
        <ele>1893</ele>
        <time>2022-03-06T13:46:31Z</time>
      </trkpt>
      <trkpt lat="45.34138" lon="5.87639">
        <ele>1892</ele>
        <time>2022-03-06T13:46:32Z</time>
      </trkpt>
      <trkpt lat="45.34135" lon="5.87641">
        <ele>1890</ele>
        <time>2022-03-06T13:46:33Z</time>
      </trkpt>
      <trkpt lat="45.34134" lon="5.87642">
        <ele>1889</ele>
        <time>2022-03-06T13:46:34Z</time>
      </trkpt>
      <trkpt lat="45.34131" lon="5.87643">
        <ele>1886</ele>
        <time>2022-03-06T13:46:36Z</time>
      </trkpt>
      <trkpt lat="45.3413" lon="5.87646">
        <ele>1884</ele>
        <time>2022-03-06T13:46:38Z</time>
      </trkpt>
      <trkpt lat="45.3413" lon="5.87646">
        <ele>1884</ele>
        <time>2022-03-06T13:46:40Z</time>
      </trkpt>
      <trkpt lat="45.3413" lon="5.87646">
        <ele>1883</ele>
        <time>2022-03-06T13:46:44Z</time>
      </trkpt>
      <trkpt lat="45.34129" lon="5.87643">
        <ele>1883</ele>
        <time>2022-03-06T13:46:47Z</time>
      </trkpt>
      <trkpt lat="45.34129" lon="5.87643">
        <ele>1881</ele>
        <time>2022-03-06T13:46:49Z</time>
      </trkpt>
      <trkpt lat="45.34127" lon="5.87643">
        <ele>1881</ele>
        <time>2022-03-06T13:46:50Z</time>
      </trkpt>
      <trkpt lat="45.34127" lon="5.87643">
        <ele>1879</ele>
        <time>2022-03-06T13:46:54Z</time>
      </trkpt>
      <trkpt lat="45.34127" lon="5.87643">
        <ele>1879</ele>
        <time>2022-03-06T13:46:58Z</time>
      </trkpt>
      <trkpt lat="45.34126" lon="5.87641">
        <ele>1878</ele>
        <time>2022-03-06T13:46:59Z</time>
      </trkpt>
      <trkpt lat="45.34124" lon="5.87639">
        <ele>1877</ele>
        <time>2022-03-06T13:47:03Z</time>
      </trkpt>
      <trkpt lat="45.34124" lon="5.87639">
        <ele>1876</ele>
        <time>2022-03-06T13:47:04Z</time>
      </trkpt>
      <trkpt lat="45.34122" lon="5.87636">
        <ele>1875</ele>
        <time>2022-03-06T13:47:05Z</time>
      </trkpt>
      <trkpt lat="45.34119" lon="5.87632">
        <ele>1874</ele>
        <time>2022-03-06T13:47:07Z</time>
      </trkpt>
      <trkpt lat="45.34117" lon="5.87631">
        <ele>1873</ele>
        <time>2022-03-06T13:47:08Z</time>
      </trkpt>
      <trkpt lat="45.34115" lon="5.87632">
        <ele>1872</ele>
        <time>2022-03-06T13:47:09Z</time>
      </trkpt>
      <trkpt lat="45.34113" lon="5.87632">
        <ele>1869</ele>
        <time>2022-03-06T13:47:11Z</time>
      </trkpt>
      <trkpt lat="45.34111" lon="5.8763">
        <ele>1868</ele>
        <time>2022-03-06T13:47:13Z</time>
      </trkpt>
      <trkpt lat="45.34109" lon="5.87628">
        <ele>1867</ele>
        <time>2022-03-06T13:47:15Z</time>
      </trkpt>
      <trkpt lat="45.34107" lon="5.87627">
        <ele>1865</ele>
        <time>2022-03-06T13:47:17Z</time>
      </trkpt>
      <trkpt lat="45.34104" lon="5.8763">
        <ele>1863</ele>
        <time>2022-03-06T13:47:19Z</time>
      </trkpt>
      <trkpt lat="45.34102" lon="5.87636">
        <ele>1861</ele>
        <time>2022-03-06T13:47:20Z</time>
      </trkpt>
      <trkpt lat="45.341" lon="5.87641">
        <ele>1860</ele>
        <time>2022-03-06T13:47:21Z</time>
      </trkpt>
      <trkpt lat="45.34096" lon="5.87642">
        <ele>1859</ele>
        <time>2022-03-06T13:47:22Z</time>
      </trkpt>
      <trkpt lat="45.34093" lon="5.87639">
        <ele>1857</ele>
        <time>2022-03-06T13:47:23Z</time>
      </trkpt>
      <trkpt lat="45.34091" lon="5.87634">
        <ele>1856</ele>
        <time>2022-03-06T13:47:24Z</time>
      </trkpt>
      <trkpt lat="45.34087" lon="5.8763">
        <ele>1853</ele>
        <time>2022-03-06T13:47:25Z</time>
      </trkpt>
      <trkpt lat="45.3408" lon="5.87623">
        <ele>1849</ele>
        <time>2022-03-06T13:47:27Z</time>
      </trkpt>
      <trkpt lat="45.3408" lon="5.87609">
        <ele>1845</ele>
        <time>2022-03-06T13:47:29Z</time>
      </trkpt>
      <trkpt lat="45.3408" lon="5.87609">
        <ele>1843</ele>
        <time>2022-03-06T13:47:31Z</time>
      </trkpt>
      <trkpt lat="45.3408" lon="5.87609">
        <ele>1842</ele>
        <time>2022-03-06T13:47:35Z</time>
      </trkpt>
      <trkpt lat="45.3408" lon="5.87609">
        <ele>1842</ele>
        <time>2022-03-06T13:47:39Z</time>
      </trkpt>
      <trkpt lat="45.34082" lon="5.87606">
        <ele>1842</ele>
        <time>2022-03-06T13:47:41Z</time>
      </trkpt>
      <trkpt lat="45.3408" lon="5.87604">
        <ele>1841</ele>
        <time>2022-03-06T13:47:44Z</time>
      </trkpt>
      <trkpt lat="45.34078" lon="5.87603">
        <ele>1840</ele>
        <time>2022-03-06T13:47:45Z</time>
      </trkpt>
      <trkpt lat="45.34074" lon="5.87605">
        <ele>1838</ele>
        <time>2022-03-06T13:47:46Z</time>
      </trkpt>
      <trkpt lat="45.34071" lon="5.87607">
        <ele>1837</ele>
        <time>2022-03-06T13:47:47Z</time>
      </trkpt>
      <trkpt lat="45.34068" lon="5.87606">
        <ele>1836</ele>
        <time>2022-03-06T13:47:48Z</time>
      </trkpt>
      <trkpt lat="45.34066" lon="5.87603">
        <ele>1835</ele>
        <time>2022-03-06T13:47:49Z</time>
      </trkpt>
      <trkpt lat="45.34062" lon="5.87601">
        <ele>1833</ele>
        <time>2022-03-06T13:47:50Z</time>
      </trkpt>
      <trkpt lat="45.34061" lon="5.87596">
        <ele>1829</ele>
        <time>2022-03-06T13:47:52Z</time>
      </trkpt>
      <trkpt lat="45.3406" lon="5.87591">
        <ele>1827</ele>
        <time>2022-03-06T13:47:53Z</time>
      </trkpt>
      <trkpt lat="45.34059" lon="5.87586">
        <ele>1826</ele>
        <time>2022-03-06T13:47:54Z</time>
      </trkpt>
      <trkpt lat="45.34056" lon="5.87582">
        <ele>1825</ele>
        <time>2022-03-06T13:47:55Z</time>
      </trkpt>
      <trkpt lat="45.34054" lon="5.87578">
        <ele>1824</ele>
        <time>2022-03-06T13:47:56Z</time>
      </trkpt>
      <trkpt lat="45.34052" lon="5.87573">
        <ele>1821</ele>
        <time>2022-03-06T13:47:57Z</time>
      </trkpt>
      <trkpt lat="45.34049" lon="5.87567">
        <ele>1819</ele>
        <time>2022-03-06T13:47:58Z</time>
      </trkpt>
      <trkpt lat="45.34047" lon="5.8756">
        <ele>1817</ele>
        <time>2022-03-06T13:47:59Z</time>
      </trkpt>
      <trkpt lat="45.34045" lon="5.87553">
        <ele>1814</ele>
        <time>2022-03-06T13:48:00Z</time>
      </trkpt>
      <trkpt lat="45.34041" lon="5.87546">
        <ele>1813</ele>
        <time>2022-03-06T13:48:01Z</time>
      </trkpt>
      <trkpt lat="45.34041" lon="5.87542">
        <ele>1810</ele>
        <time>2022-03-06T13:48:02Z</time>
      </trkpt>
      <trkpt lat="45.34043" lon="5.87532">
        <ele>1808</ele>
        <time>2022-03-06T13:48:03Z</time>
      </trkpt>
      <trkpt lat="45.34045" lon="5.87529">
        <ele>1807</ele>
        <time>2022-03-06T13:48:04Z</time>
      </trkpt>
      <trkpt lat="45.34049" lon="5.87524">
        <ele>1805</ele>
        <time>2022-03-06T13:48:05Z</time>
      </trkpt>
      <trkpt lat="45.34053" lon="5.87517">
        <ele>1802</ele>
        <time>2022-03-06T13:48:07Z</time>
      </trkpt>
      <trkpt lat="45.34057" lon="5.8751">
        <ele>1800</ele>
        <time>2022-03-06T13:48:08Z</time>
      </trkpt>
      <trkpt lat="45.34061" lon="5.87503">
        <ele>1799</ele>
        <time>2022-03-06T13:48:09Z</time>
      </trkpt>
      <trkpt lat="45.34066" lon="5.87494">
        <ele>1796</ele>
        <time>2022-03-06T13:48:10Z</time>
      </trkpt>
      <trkpt lat="45.34068" lon="5.87492">
        <ele>1795</ele>
        <time>2022-03-06T13:48:11Z</time>
      </trkpt>
      <trkpt lat="45.34072" lon="5.87487">
        <ele>1794</ele>
        <time>2022-03-06T13:48:12Z</time>
      </trkpt>
      <trkpt lat="45.34075" lon="5.87485">
        <ele>1794</ele>
        <time>2022-03-06T13:48:14Z</time>
      </trkpt>
      <trkpt lat="45.34078" lon="5.87482">
        <ele>1793</ele>
        <time>2022-03-06T13:48:15Z</time>
      </trkpt>
      <trkpt lat="45.34081" lon="5.8748">
        <ele>1792</ele>
        <time>2022-03-06T13:48:16Z</time>
      </trkpt>
      <trkpt lat="45.34084" lon="5.87478">
        <ele>1792</ele>
        <time>2022-03-06T13:48:17Z</time>
      </trkpt>
      <trkpt lat="45.34087" lon="5.87476">
        <ele>1792</ele>
        <time>2022-03-06T13:48:18Z</time>
      </trkpt>
      <trkpt lat="45.3409" lon="5.87473">
        <ele>1791</ele>
        <time>2022-03-06T13:48:19Z</time>
      </trkpt>
      <trkpt lat="45.34093" lon="5.87471">
        <ele>1791</ele>
        <time>2022-03-06T13:48:20Z</time>
      </trkpt>
      <trkpt lat="45.34097" lon="5.87469">
        <ele>1791</ele>
        <time>2022-03-06T13:48:21Z</time>
      </trkpt>
      <trkpt lat="45.34098" lon="5.87468">
        <ele>1791</ele>
        <time>2022-03-06T13:48:22Z</time>
      </trkpt>
      <trkpt lat="45.34101" lon="5.87466">
        <ele>1790</ele>
        <time>2022-03-06T13:48:23Z</time>
      </trkpt>
      <trkpt lat="45.34103" lon="5.87464">
        <ele>1790</ele>
        <time>2022-03-06T13:48:24Z</time>
      </trkpt>
      <trkpt lat="45.34105" lon="5.87462">
        <ele>1789</ele>
        <time>2022-03-06T13:48:26Z</time>
      </trkpt>
      <trkpt lat="45.34105" lon="5.87462">
        <ele>1788</ele>
        <time>2022-03-06T13:48:29Z</time>
      </trkpt>
      <trkpt lat="45.34105" lon="5.87462">
        <ele>1789</ele>
        <time>2022-03-06T13:48:33Z</time>
      </trkpt>
      <trkpt lat="45.34107" lon="5.87462">
        <ele>1789</ele>
        <time>2022-03-06T13:48:37Z</time>
      </trkpt>
      <trkpt lat="45.34107" lon="5.87462">
        <ele>1789</ele>
        <time>2022-03-06T13:48:38Z</time>
      </trkpt>
      <trkpt lat="45.34107" lon="5.87462">
        <ele>1789</ele>
        <time>2022-03-06T13:48:42Z</time>
      </trkpt>
      <trkpt lat="45.34107" lon="5.87462">
        <ele>1789</ele>
        <time>2022-03-06T13:48:46Z</time>
      </trkpt>
      <trkpt lat="45.34107" lon="5.87462">
        <ele>1789</ele>
        <time>2022-03-06T13:48:50Z</time>
      </trkpt>
      <trkpt lat="45.34107" lon="5.87462">
        <ele>1788</ele>
        <time>2022-03-06T13:48:54Z</time>
      </trkpt>
      <trkpt lat="45.34107" lon="5.87462">
        <ele>1789</ele>
        <time>2022-03-06T13:48:58Z</time>
      </trkpt>
      <trkpt lat="45.34109" lon="5.8746">
        <ele>1789</ele>
        <time>2022-03-06T13:49:00Z</time>
      </trkpt>
      <trkpt lat="45.3411" lon="5.87457">
        <ele>1789</ele>
        <time>2022-03-06T13:49:01Z</time>
      </trkpt>
      <trkpt lat="45.34112" lon="5.87453">
        <ele>1789</ele>
        <time>2022-03-06T13:49:02Z</time>
      </trkpt>
      <trkpt lat="45.34115" lon="5.87448">
        <ele>1787</ele>
        <time>2022-03-06T13:49:03Z</time>
      </trkpt>
      <trkpt lat="45.34118" lon="5.87442">
        <ele>1786</ele>
        <time>2022-03-06T13:49:04Z</time>
      </trkpt>
      <trkpt lat="45.34121" lon="5.87435">
        <ele>1785</ele>
        <time>2022-03-06T13:49:05Z</time>
      </trkpt>
      <trkpt lat="45.34123" lon="5.87429">
        <ele>1784</ele>
        <time>2022-03-06T13:49:06Z</time>
      </trkpt>
      <trkpt lat="45.34125" lon="5.87423">
        <ele>1783</ele>
        <time>2022-03-06T13:49:07Z</time>
      </trkpt>
      <trkpt lat="45.34122" lon="5.87417">
        <ele>1781</ele>
        <time>2022-03-06T13:49:08Z</time>
      </trkpt>
      <trkpt lat="45.34123" lon="5.87394">
        <ele>1776</ele>
        <time>2022-03-06T13:49:10Z</time>
      </trkpt>
      <trkpt lat="45.34124" lon="5.8739">
        <ele>1774</ele>
        <time>2022-03-06T13:49:11Z</time>
      </trkpt>
      <trkpt lat="45.34125" lon="5.87383">
        <ele>1773</ele>
        <time>2022-03-06T13:49:12Z</time>
      </trkpt>
      <trkpt lat="45.34119" lon="5.87363">
        <ele>1768</ele>
        <time>2022-03-06T13:49:14Z</time>
      </trkpt>
      <trkpt lat="45.34119" lon="5.87359">
        <ele>1766</ele>
        <time>2022-03-06T13:49:15Z</time>
      </trkpt>
      <trkpt lat="45.34117" lon="5.87348">
        <ele>1764</ele>
        <time>2022-03-06T13:49:16Z</time>
      </trkpt>
      <trkpt lat="45.34116" lon="5.87345">
        <ele>1762</ele>
        <time>2022-03-06T13:49:17Z</time>
      </trkpt>
      <trkpt lat="45.34113" lon="5.87334">
        <ele>1759</ele>
        <time>2022-03-06T13:49:18Z</time>
      </trkpt>
      <trkpt lat="45.34114" lon="5.8733">
        <ele>1755</ele>
        <time>2022-03-06T13:49:19Z</time>
      </trkpt>
      <trkpt lat="45.34114" lon="5.8732">
        <ele>1752</ele>
        <time>2022-03-06T13:49:20Z</time>
      </trkpt>
      <trkpt lat="45.34113" lon="5.87319">
        <ele>1749</ele>
        <time>2022-03-06T13:49:21Z</time>
      </trkpt>
      <trkpt lat="45.34113" lon="5.87316">
        <ele>1748</ele>
        <time>2022-03-06T13:49:22Z</time>
      </trkpt>
      <trkpt lat="45.34105" lon="5.8731">
        <ele>1745</ele>
        <time>2022-03-06T13:49:23Z</time>
      </trkpt>
      <trkpt lat="45.3411" lon="5.87298">
        <ele>1742</ele>
        <time>2022-03-06T13:49:25Z</time>
      </trkpt>
      <trkpt lat="45.34113" lon="5.87289">
        <ele>1740</ele>
        <time>2022-03-06T13:49:27Z</time>
      </trkpt>
      <trkpt lat="45.34112" lon="5.87287">
        <ele>1739</ele>
        <time>2022-03-06T13:49:28Z</time>
      </trkpt>
      <trkpt lat="45.3411" lon="5.87286">
        <ele>1737</ele>
        <time>2022-03-06T13:49:29Z</time>
      </trkpt>
      <trkpt lat="45.34108" lon="5.87281">
        <ele>1735</ele>
        <time>2022-03-06T13:49:31Z</time>
      </trkpt>
      <trkpt lat="45.34106" lon="5.87275">
        <ele>1734</ele>
        <time>2022-03-06T13:49:32Z</time>
      </trkpt>
      <trkpt lat="45.34104" lon="5.87269">
        <ele>1732</ele>
        <time>2022-03-06T13:49:33Z</time>
      </trkpt>
      <trkpt lat="45.34108" lon="5.87258">
        <ele>1730</ele>
        <time>2022-03-06T13:49:34Z</time>
      </trkpt>
      <trkpt lat="45.3411" lon="5.87255">
        <ele>1729</ele>
        <time>2022-03-06T13:49:35Z</time>
      </trkpt>
      <trkpt lat="45.34113" lon="5.87248">
        <ele>1729</ele>
        <time>2022-03-06T13:49:36Z</time>
      </trkpt>
      <trkpt lat="45.34109" lon="5.87244">
        <ele>1728</ele>
        <time>2022-03-06T13:49:38Z</time>
      </trkpt>
      <trkpt lat="45.34106" lon="5.8724">
        <ele>1725</ele>
        <time>2022-03-06T13:49:39Z</time>
      </trkpt>
      <trkpt lat="45.34103" lon="5.87236">
        <ele>1724</ele>
        <time>2022-03-06T13:49:40Z</time>
      </trkpt>
      <trkpt lat="45.34103" lon="5.87236">
        <ele>1720</ele>
        <time>2022-03-06T13:49:44Z</time>
      </trkpt>
      <trkpt lat="45.34103" lon="5.87236">
        <ele>1720</ele>
        <time>2022-03-06T13:49:48Z</time>
      </trkpt>
      <trkpt lat="45.34103" lon="5.87236">
        <ele>1720</ele>
        <time>2022-03-06T13:49:52Z</time>
      </trkpt>
      <trkpt lat="45.34103" lon="5.87236">
        <ele>1720</ele>
        <time>2022-03-06T13:49:56Z</time>
      </trkpt>
      <trkpt lat="45.34105" lon="5.87234">
        <ele>1719</ele>
        <time>2022-03-06T13:49:59Z</time>
      </trkpt>
      <trkpt lat="45.34105" lon="5.87234">
        <ele>1719</ele>
        <time>2022-03-06T13:50:01Z</time>
      </trkpt>
      <trkpt lat="45.34107" lon="5.87237">
        <ele>1720</ele>
        <time>2022-03-06T13:50:04Z</time>
      </trkpt>
      <trkpt lat="45.34109" lon="5.87239">
        <ele>1721</ele>
        <time>2022-03-06T13:50:06Z</time>
      </trkpt>
      <trkpt lat="45.34108" lon="5.87241">
        <ele>1720</ele>
        <time>2022-03-06T13:50:09Z</time>
      </trkpt>
      <trkpt lat="45.34105" lon="5.87244">
        <ele>1719</ele>
        <time>2022-03-06T13:50:10Z</time>
      </trkpt>
      <trkpt lat="45.34101" lon="5.87247">
        <ele>1719</ele>
        <time>2022-03-06T13:50:11Z</time>
      </trkpt>
      <trkpt lat="45.34098" lon="5.87245">
        <ele>1717</ele>
        <time>2022-03-06T13:50:12Z</time>
      </trkpt>
      <trkpt lat="45.34095" lon="5.87239">
        <ele>1715</ele>
        <time>2022-03-06T13:50:13Z</time>
      </trkpt>
      <trkpt lat="45.3409" lon="5.87235">
        <ele>1714</ele>
        <time>2022-03-06T13:50:14Z</time>
      </trkpt>
      <trkpt lat="45.34085" lon="5.87236">
        <ele>1713</ele>
        <time>2022-03-06T13:50:15Z</time>
      </trkpt>
      <trkpt lat="45.34081" lon="5.87239">
        <ele>1711</ele>
        <time>2022-03-06T13:50:16Z</time>
      </trkpt>
      <trkpt lat="45.34079" lon="5.87243">
        <ele>1710</ele>
        <time>2022-03-06T13:50:17Z</time>
      </trkpt>
      <trkpt lat="45.34076" lon="5.87245">
        <ele>1709</ele>
        <time>2022-03-06T13:50:18Z</time>
      </trkpt>
      <trkpt lat="45.34073" lon="5.87247">
        <ele>1708</ele>
        <time>2022-03-06T13:50:19Z</time>
      </trkpt>
      <trkpt lat="45.34069" lon="5.87245">
        <ele>1707</ele>
        <time>2022-03-06T13:50:20Z</time>
      </trkpt>
      <trkpt lat="45.34067" lon="5.8724">
        <ele>1705</ele>
        <time>2022-03-06T13:50:21Z</time>
      </trkpt>
      <trkpt lat="45.34068" lon="5.87235">
        <ele>1703</ele>
        <time>2022-03-06T13:50:22Z</time>
      </trkpt>
      <trkpt lat="45.34068" lon="5.8723">
        <ele>1702</ele>
        <time>2022-03-06T13:50:23Z</time>
      </trkpt>
      <trkpt lat="45.34066" lon="5.87228">
        <ele>1700</ele>
        <time>2022-03-06T13:50:24Z</time>
      </trkpt>
      <trkpt lat="45.34065" lon="5.87219">
        <ele>1697</ele>
        <time>2022-03-06T13:50:26Z</time>
      </trkpt>
      <trkpt lat="45.34063" lon="5.87211">
        <ele>1696</ele>
        <time>2022-03-06T13:50:27Z</time>
      </trkpt>
      <trkpt lat="45.34061" lon="5.87202">
        <ele>1696</ele>
        <time>2022-03-06T13:50:28Z</time>
      </trkpt>
      <trkpt lat="45.34062" lon="5.87191">
        <ele>1696</ele>
        <time>2022-03-06T13:50:29Z</time>
      </trkpt>
      <trkpt lat="45.34063" lon="5.87188">
        <ele>1689</ele>
        <time>2022-03-06T13:50:30Z</time>
      </trkpt>
      <trkpt lat="45.34064" lon="5.87182">
        <ele>1686</ele>
        <time>2022-03-06T13:50:31Z</time>
      </trkpt>
      <trkpt lat="45.34067" lon="5.87179">
        <ele>1686</ele>
        <time>2022-03-06T13:50:32Z</time>
      </trkpt>
      <trkpt lat="45.34069" lon="5.87178">
        <ele>1687</ele>
        <time>2022-03-06T13:50:33Z</time>
      </trkpt>
      <trkpt lat="45.3407" lon="5.87176">
        <ele>1687</ele>
        <time>2022-03-06T13:50:34Z</time>
      </trkpt>
      <trkpt lat="45.34072" lon="5.87174">
        <ele>1687</ele>
        <time>2022-03-06T13:50:35Z</time>
      </trkpt>
      <trkpt lat="45.34075" lon="5.87174">
        <ele>1687</ele>
        <time>2022-03-06T13:50:37Z</time>
      </trkpt>
      <trkpt lat="45.34077" lon="5.87175">
        <ele>1685</ele>
        <time>2022-03-06T13:50:38Z</time>
      </trkpt>
      <trkpt lat="45.34077" lon="5.87175">
        <ele>1684</ele>
        <time>2022-03-06T13:50:42Z</time>
      </trkpt>
      <trkpt lat="45.34077" lon="5.87175">
        <ele>1684</ele>
        <time>2022-03-06T13:50:46Z</time>
      </trkpt>
      <trkpt lat="45.34079" lon="5.87177">
        <ele>1684</ele>
        <time>2022-03-06T13:50:47Z</time>
      </trkpt>
      <trkpt lat="45.34079" lon="5.87177">
        <ele>1684</ele>
        <time>2022-03-06T13:50:51Z</time>
      </trkpt>
      <trkpt lat="45.34079" lon="5.87177">
        <ele>1684</ele>
        <time>2022-03-06T13:50:55Z</time>
      </trkpt>
      <trkpt lat="45.34079" lon="5.87177">
        <ele>1684</ele>
        <time>2022-03-06T13:50:59Z</time>
      </trkpt>
      <trkpt lat="45.34079" lon="5.87177">
        <ele>1684</ele>
        <time>2022-03-06T13:51:03Z</time>
      </trkpt>
      <trkpt lat="45.34081" lon="5.87178">
        <ele>1684</ele>
        <time>2022-03-06T13:51:06Z</time>
      </trkpt>
      <trkpt lat="45.34081" lon="5.87178">
        <ele>1684</ele>
        <time>2022-03-06T13:51:08Z</time>
      </trkpt>
      <trkpt lat="45.34083" lon="5.8718">
        <ele>1684</ele>
        <time>2022-03-06T13:51:10Z</time>
      </trkpt>
      <trkpt lat="45.34083" lon="5.8718">
        <ele>1683</ele>
        <time>2022-03-06T13:51:13Z</time>
      </trkpt>
      <trkpt lat="45.34083" lon="5.8718">
        <ele>1683</ele>
        <time>2022-03-06T13:51:17Z</time>
      </trkpt>
      <trkpt lat="45.34083" lon="5.8718">
        <ele>1683</ele>
        <time>2022-03-06T13:51:21Z</time>
      </trkpt>
      <trkpt lat="45.34083" lon="5.8718">
        <ele>1683</ele>
        <time>2022-03-06T13:51:25Z</time>
      </trkpt>
      <trkpt lat="45.34083" lon="5.8718">
        <ele>1683</ele>
        <time>2022-03-06T13:51:29Z</time>
      </trkpt>
      <trkpt lat="45.34083" lon="5.8718">
        <ele>1683</ele>
        <time>2022-03-06T13:51:33Z</time>
      </trkpt>
      <trkpt lat="45.34083" lon="5.8718">
        <ele>1683</ele>
        <time>2022-03-06T13:51:37Z</time>
      </trkpt>
      <trkpt lat="45.34083" lon="5.8718">
        <ele>1683</ele>
        <time>2022-03-06T13:51:41Z</time>
      </trkpt>
      <trkpt lat="45.34083" lon="5.8718">
        <ele>1683</ele>
        <time>2022-03-06T13:51:45Z</time>
      </trkpt>
      <trkpt lat="45.34084" lon="5.87182">
        <ele>1684</ele>
        <time>2022-03-06T13:51:47Z</time>
      </trkpt>
      <trkpt lat="45.34084" lon="5.87182">
        <ele>1683</ele>
        <time>2022-03-06T13:51:50Z</time>
      </trkpt>
      <trkpt lat="45.34084" lon="5.87182">
        <ele>1683</ele>
        <time>2022-03-06T13:51:54Z</time>
      </trkpt>
      <trkpt lat="45.34085" lon="5.87184">
        <ele>1683</ele>
        <time>2022-03-06T13:51:55Z</time>
      </trkpt>
      <trkpt lat="45.34085" lon="5.87184">
        <ele>1684</ele>
        <time>2022-03-06T13:51:59Z</time>
      </trkpt>
      <trkpt lat="45.34085" lon="5.87184">
        <ele>1683</ele>
        <time>2022-03-06T13:52:03Z</time>
      </trkpt>
      <trkpt lat="45.34085" lon="5.87184">
        <ele>1683</ele>
        <time>2022-03-06T13:52:07Z</time>
      </trkpt>
      <trkpt lat="45.34085" lon="5.87184">
        <ele>1683</ele>
        <time>2022-03-06T13:52:11Z</time>
      </trkpt>
      <trkpt lat="45.34085" lon="5.87184">
        <ele>1683</ele>
        <time>2022-03-06T13:52:15Z</time>
      </trkpt>
      <trkpt lat="45.34087" lon="5.87185">
        <ele>1683</ele>
        <time>2022-03-06T13:52:16Z</time>
      </trkpt>
      <trkpt lat="45.34087" lon="5.87185">
        <ele>1683</ele>
        <time>2022-03-06T13:52:20Z</time>
      </trkpt>
      <trkpt lat="45.34088" lon="5.87187">
        <ele>1682</ele>
        <time>2022-03-06T13:52:24Z</time>
      </trkpt>
      <trkpt lat="45.34088" lon="5.87187">
        <ele>1682</ele>
        <time>2022-03-06T13:52:25Z</time>
      </trkpt>
      <trkpt lat="45.34088" lon="5.87187">
        <ele>1682</ele>
        <time>2022-03-06T13:52:29Z</time>
      </trkpt>
      <trkpt lat="45.3409" lon="5.87189">
        <ele>1682</ele>
        <time>2022-03-06T13:52:31Z</time>
      </trkpt>
      <trkpt lat="45.3409" lon="5.87189">
        <ele>1682</ele>
        <time>2022-03-06T13:52:34Z</time>
      </trkpt>
      <trkpt lat="45.3409" lon="5.87189">
        <ele>1681</ele>
        <time>2022-03-06T13:52:38Z</time>
      </trkpt>
      <trkpt lat="45.34092" lon="5.87189">
        <ele>1681</ele>
        <time>2022-03-06T13:52:41Z</time>
      </trkpt>
      <trkpt lat="45.34092" lon="5.87189">
        <ele>1681</ele>
        <time>2022-03-06T13:52:43Z</time>
      </trkpt>
      <trkpt lat="45.34094" lon="5.8719">
        <ele>1681</ele>
        <time>2022-03-06T13:52:45Z</time>
      </trkpt>
      <trkpt lat="45.34094" lon="5.8719">
        <ele>1681</ele>
        <time>2022-03-06T13:52:48Z</time>
      </trkpt>
      <trkpt lat="45.34094" lon="5.8719">
        <ele>1681</ele>
        <time>2022-03-06T13:52:52Z</time>
      </trkpt>
      <trkpt lat="45.34094" lon="5.8719">
        <ele>1681</ele>
        <time>2022-03-06T13:52:56Z</time>
      </trkpt>
      <trkpt lat="45.34094" lon="5.8719">
        <ele>1681</ele>
        <time>2022-03-06T13:53:00Z</time>
      </trkpt>
      <trkpt lat="45.34095" lon="5.87188">
        <ele>1681</ele>
        <time>2022-03-06T13:53:01Z</time>
      </trkpt>
      <trkpt lat="45.34095" lon="5.87188">
        <ele>1681</ele>
        <time>2022-03-06T13:53:05Z</time>
      </trkpt>
      <trkpt lat="45.34096" lon="5.87186">
        <ele>1681</ele>
        <time>2022-03-06T13:53:06Z</time>
      </trkpt>
      <trkpt lat="45.34096" lon="5.87186">
        <ele>1680</ele>
        <time>2022-03-06T13:53:10Z</time>
      </trkpt>
      <trkpt lat="45.34096" lon="5.87186">
        <ele>1680</ele>
        <time>2022-03-06T13:53:14Z</time>
      </trkpt>
      <trkpt lat="45.34096" lon="5.87186">
        <ele>1680</ele>
        <time>2022-03-06T13:53:18Z</time>
      </trkpt>
      <trkpt lat="45.34096" lon="5.87186">
        <ele>1681</ele>
        <time>2022-03-06T13:53:22Z</time>
      </trkpt>
      <trkpt lat="45.34096" lon="5.87186">
        <ele>1680</ele>
        <time>2022-03-06T13:53:26Z</time>
      </trkpt>
      <trkpt lat="45.34096" lon="5.87186">
        <ele>1680</ele>
        <time>2022-03-06T13:53:30Z</time>
      </trkpt>
      <trkpt lat="45.34096" lon="5.87186">
        <ele>1680</ele>
        <time>2022-03-06T13:53:34Z</time>
      </trkpt>
      <trkpt lat="45.34096" lon="5.87186">
        <ele>1680</ele>
        <time>2022-03-06T13:53:38Z</time>
      </trkpt>
      <trkpt lat="45.34098" lon="5.87186">
        <ele>1680</ele>
        <time>2022-03-06T13:53:40Z</time>
      </trkpt>
      <trkpt lat="45.34098" lon="5.87186">
        <ele>1680</ele>
        <time>2022-03-06T13:53:43Z</time>
      </trkpt>
      <trkpt lat="45.34098" lon="5.87186">
        <ele>1680</ele>
        <time>2022-03-06T13:53:47Z</time>
      </trkpt>
      <trkpt lat="45.34098" lon="5.87186">
        <ele>1681</ele>
        <time>2022-03-06T13:53:51Z</time>
      </trkpt>
      <trkpt lat="45.34098" lon="5.87186">
        <ele>1681</ele>
        <time>2022-03-06T13:53:55Z</time>
      </trkpt>
      <trkpt lat="45.341" lon="5.87188">
        <ele>1680</ele>
        <time>2022-03-06T13:53:57Z</time>
      </trkpt>
      <trkpt lat="45.341" lon="5.87188">
        <ele>1680</ele>
        <time>2022-03-06T13:54:00Z</time>
      </trkpt>
      <trkpt lat="45.34102" lon="5.87188">
        <ele>1681</ele>
        <time>2022-03-06T13:54:03Z</time>
      </trkpt>
      <trkpt lat="45.34102" lon="5.87188">
        <ele>1681</ele>
        <time>2022-03-06T13:54:05Z</time>
      </trkpt>
      <trkpt lat="45.34104" lon="5.87189">
        <ele>1681</ele>
        <time>2022-03-06T13:54:07Z</time>
      </trkpt>
      <trkpt lat="45.34104" lon="5.87189">
        <ele>1681</ele>
        <time>2022-03-06T13:54:10Z</time>
      </trkpt>
      <trkpt lat="45.34104" lon="5.87189">
        <ele>1681</ele>
        <time>2022-03-06T13:54:14Z</time>
      </trkpt>
      <trkpt lat="45.34106" lon="5.8719">
        <ele>1681</ele>
        <time>2022-03-06T13:54:16Z</time>
      </trkpt>
      <trkpt lat="45.34106" lon="5.8719">
        <ele>1681</ele>
        <time>2022-03-06T13:54:19Z</time>
      </trkpt>
      <trkpt lat="45.34107" lon="5.87191">
        <ele>1680</ele>
        <time>2022-03-06T13:54:21Z</time>
      </trkpt>
      <trkpt lat="45.34109" lon="5.87194">
        <ele>1680</ele>
        <time>2022-03-06T13:54:22Z</time>
      </trkpt>
      <trkpt lat="45.34112" lon="5.87195">
        <ele>1679</ele>
        <time>2022-03-06T13:54:23Z</time>
      </trkpt>
      <trkpt lat="45.34116" lon="5.87195">
        <ele>1679</ele>
        <time>2022-03-06T13:54:24Z</time>
      </trkpt>
      <trkpt lat="45.34119" lon="5.87194">
        <ele>1679</ele>
        <time>2022-03-06T13:54:25Z</time>
      </trkpt>
      <trkpt lat="45.34122" lon="5.87193">
        <ele>1679</ele>
        <time>2022-03-06T13:54:26Z</time>
      </trkpt>
      <trkpt lat="45.34124" lon="5.87191">
        <ele>1679</ele>
        <time>2022-03-06T13:54:27Z</time>
      </trkpt>
      <trkpt lat="45.34126" lon="5.87189">
        <ele>1679</ele>
        <time>2022-03-06T13:54:28Z</time>
      </trkpt>
      <trkpt lat="45.34128" lon="5.87187">
        <ele>1679</ele>
        <time>2022-03-06T13:54:29Z</time>
      </trkpt>
      <trkpt lat="45.34129" lon="5.87186">
        <ele>1679</ele>
        <time>2022-03-06T13:54:31Z</time>
      </trkpt>
      <trkpt lat="45.3413" lon="5.87186">
        <ele>1679</ele>
        <time>2022-03-06T13:54:32Z</time>
      </trkpt>
      <trkpt lat="45.34131" lon="5.87185">
        <ele>1679</ele>
        <time>2022-03-06T13:54:33Z</time>
      </trkpt>
      <trkpt lat="45.34132" lon="5.87185">
        <ele>1679</ele>
        <time>2022-03-06T13:54:34Z</time>
      </trkpt>
      <trkpt lat="45.34133" lon="5.87185">
        <ele>1679</ele>
        <time>2022-03-06T13:54:35Z</time>
      </trkpt>
      <trkpt lat="45.34134" lon="5.87183">
        <ele>1679</ele>
        <time>2022-03-06T13:54:36Z</time>
      </trkpt>
      <trkpt lat="45.34136" lon="5.87182">
        <ele>1679</ele>
        <time>2022-03-06T13:54:37Z</time>
      </trkpt>
      <trkpt lat="45.34139" lon="5.87179">
        <ele>1679</ele>
        <time>2022-03-06T13:54:39Z</time>
      </trkpt>
      <trkpt lat="45.34141" lon="5.87178">
        <ele>1679</ele>
        <time>2022-03-06T13:54:40Z</time>
      </trkpt>
      <trkpt lat="45.34143" lon="5.87175">
        <ele>1679</ele>
        <time>2022-03-06T13:54:42Z</time>
      </trkpt>
      <trkpt lat="45.34145" lon="5.87172">
        <ele>1679</ele>
        <time>2022-03-06T13:54:43Z</time>
      </trkpt>
      <trkpt lat="45.34146" lon="5.8717">
        <ele>1679</ele>
        <time>2022-03-06T13:54:44Z</time>
      </trkpt>
      <trkpt lat="45.34148" lon="5.87168">
        <ele>1679</ele>
        <time>2022-03-06T13:54:45Z</time>
      </trkpt>
      <trkpt lat="45.34149" lon="5.87166">
        <ele>1679</ele>
        <time>2022-03-06T13:54:46Z</time>
      </trkpt>
      <trkpt lat="45.34151" lon="5.87164">
        <ele>1679</ele>
        <time>2022-03-06T13:54:47Z</time>
      </trkpt>
      <trkpt lat="45.34152" lon="5.87162">
        <ele>1679</ele>
        <time>2022-03-06T13:54:48Z</time>
      </trkpt>
      <trkpt lat="45.34155" lon="5.87159">
        <ele>1678</ele>
        <time>2022-03-06T13:54:50Z</time>
      </trkpt>
      <trkpt lat="45.34158" lon="5.87157">
        <ele>1678</ele>
        <time>2022-03-06T13:54:52Z</time>
      </trkpt>
      <trkpt lat="45.34159" lon="5.87156">
        <ele>1678</ele>
        <time>2022-03-06T13:54:54Z</time>
      </trkpt>
      <trkpt lat="45.34162" lon="5.87153">
        <ele>1678</ele>
        <time>2022-03-06T13:54:56Z</time>
      </trkpt>
      <trkpt lat="45.34164" lon="5.87151">
        <ele>1678</ele>
        <time>2022-03-06T13:54:57Z</time>
      </trkpt>
      <trkpt lat="45.34167" lon="5.87149">
        <ele>1678</ele>
        <time>2022-03-06T13:54:58Z</time>
      </trkpt>
      <trkpt lat="45.34169" lon="5.87147">
        <ele>1678</ele>
        <time>2022-03-06T13:54:59Z</time>
      </trkpt>
      <trkpt lat="45.34171" lon="5.87144">
        <ele>1679</ele>
        <time>2022-03-06T13:55:00Z</time>
      </trkpt>
      <trkpt lat="45.34174" lon="5.87141">
        <ele>1679</ele>
        <time>2022-03-06T13:55:01Z</time>
      </trkpt>
      <trkpt lat="45.34175" lon="5.8714">
        <ele>1678</ele>
        <time>2022-03-06T13:55:02Z</time>
      </trkpt>
      <trkpt lat="45.34178" lon="5.87137">
        <ele>1677</ele>
        <time>2022-03-06T13:55:04Z</time>
      </trkpt>
      <trkpt lat="45.3418" lon="5.87134">
        <ele>1677</ele>
        <time>2022-03-06T13:55:06Z</time>
      </trkpt>
      <trkpt lat="45.34182" lon="5.87132">
        <ele>1677</ele>
        <time>2022-03-06T13:55:08Z</time>
      </trkpt>
      <trkpt lat="45.34184" lon="5.8713">
        <ele>1678</ele>
        <time>2022-03-06T13:55:09Z</time>
      </trkpt>
      <trkpt lat="45.34186" lon="5.87129">
        <ele>1678</ele>
        <time>2022-03-06T13:55:10Z</time>
      </trkpt>
      <trkpt lat="45.34188" lon="5.87126">
        <ele>1678</ele>
        <time>2022-03-06T13:55:11Z</time>
      </trkpt>
      <trkpt lat="45.3419" lon="5.87124">
        <ele>1678</ele>
        <time>2022-03-06T13:55:12Z</time>
      </trkpt>
      <trkpt lat="45.34192" lon="5.87123">
        <ele>1678</ele>
        <time>2022-03-06T13:55:14Z</time>
      </trkpt>
      <trkpt lat="45.34192" lon="5.87123">
        <ele>1678</ele>
        <time>2022-03-06T13:55:17Z</time>
      </trkpt>
      <trkpt lat="45.34194" lon="5.87123">
        <ele>1678</ele>
        <time>2022-03-06T13:55:18Z</time>
      </trkpt>
      <trkpt lat="45.34194" lon="5.87123">
        <ele>1678</ele>
        <time>2022-03-06T13:55:22Z</time>
      </trkpt>
      <trkpt lat="45.34196" lon="5.87121">
        <ele>1679</ele>
        <time>2022-03-06T13:55:23Z</time>
      </trkpt>
      <trkpt lat="45.34196" lon="5.87121">
        <ele>1678</ele>
        <time>2022-03-06T13:55:27Z</time>
      </trkpt>
      <trkpt lat="45.34198" lon="5.8712">
        <ele>1679</ele>
        <time>2022-03-06T13:55:30Z</time>
      </trkpt>
      <trkpt lat="45.34198" lon="5.8712">
        <ele>1679</ele>
        <time>2022-03-06T13:55:32Z</time>
      </trkpt>
      <trkpt lat="45.34198" lon="5.8712">
        <ele>1679</ele>
        <time>2022-03-06T13:55:36Z</time>
      </trkpt>
      <trkpt lat="45.34198" lon="5.8712">
        <ele>1679</ele>
        <time>2022-03-06T13:55:40Z</time>
      </trkpt>
      <trkpt lat="45.34198" lon="5.8712">
        <ele>1679</ele>
        <time>2022-03-06T13:55:44Z</time>
      </trkpt>
      <trkpt lat="45.34198" lon="5.8712">
        <ele>1679</ele>
        <time>2022-03-06T13:55:48Z</time>
      </trkpt>
      <trkpt lat="45.34198" lon="5.8712">
        <ele>1679</ele>
        <time>2022-03-06T13:55:52Z</time>
      </trkpt>
      <trkpt lat="45.34198" lon="5.8712">
        <ele>1679</ele>
        <time>2022-03-06T13:55:56Z</time>
      </trkpt>
      <trkpt lat="45.342" lon="5.87118">
        <ele>1679</ele>
        <time>2022-03-06T13:55:57Z</time>
      </trkpt>
      <trkpt lat="45.342" lon="5.87118">
        <ele>1679</ele>
        <time>2022-03-06T13:56:01Z</time>
      </trkpt>
      <trkpt lat="45.342" lon="5.87118">
        <ele>1679</ele>
        <time>2022-03-06T13:56:05Z</time>
      </trkpt>
      <trkpt lat="45.342" lon="5.87118">
        <ele>1679</ele>
        <time>2022-03-06T13:56:09Z</time>
      </trkpt>
      <trkpt lat="45.342" lon="5.87118">
        <ele>1679</ele>
        <time>2022-03-06T13:56:13Z</time>
      </trkpt>
      <trkpt lat="45.342" lon="5.87118">
        <ele>1679</ele>
        <time>2022-03-06T13:56:17Z</time>
      </trkpt>
      <trkpt lat="45.342" lon="5.87118">
        <ele>1679</ele>
        <time>2022-03-06T13:56:21Z</time>
      </trkpt>
      <trkpt lat="45.342" lon="5.87118">
        <ele>1679</ele>
        <time>2022-03-06T13:56:25Z</time>
      </trkpt>
      <trkpt lat="45.342" lon="5.87118">
        <ele>1679</ele>
        <time>2022-03-06T13:56:29Z</time>
      </trkpt>
      <trkpt lat="45.342" lon="5.87118">
        <ele>1679</ele>
        <time>2022-03-06T13:56:33Z</time>
      </trkpt>
      <trkpt lat="45.342" lon="5.87118">
        <ele>1679</ele>
        <time>2022-03-06T13:56:37Z</time>
      </trkpt>
      <trkpt lat="45.342" lon="5.87118">
        <ele>1679</ele>
        <time>2022-03-06T13:56:41Z</time>
      </trkpt>
      <trkpt lat="45.342" lon="5.87118">
        <ele>1679</ele>
        <time>2022-03-06T13:56:45Z</time>
      </trkpt>
      <trkpt lat="45.342" lon="5.87118">
        <ele>1679</ele>
        <time>2022-03-06T13:56:49Z</time>
      </trkpt>
      <trkpt lat="45.342" lon="5.87118">
        <ele>1679</ele>
        <time>2022-03-06T13:56:53Z</time>
      </trkpt>
      <trkpt lat="45.342" lon="5.87118">
        <ele>1679</ele>
        <time>2022-03-06T13:56:57Z</time>
      </trkpt>
      <trkpt lat="45.342" lon="5.87118">
        <ele>1679</ele>
        <time>2022-03-06T13:57:01Z</time>
      </trkpt>
      <trkpt lat="45.342" lon="5.87118">
        <ele>1679</ele>
        <time>2022-03-06T13:57:05Z</time>
      </trkpt>
      <trkpt lat="45.34201" lon="5.87115">
        <ele>1679</ele>
        <time>2022-03-06T13:57:07Z</time>
      </trkpt>
      <trkpt lat="45.34202" lon="5.87112">
        <ele>1679</ele>
        <time>2022-03-06T13:57:09Z</time>
      </trkpt>
      <trkpt lat="45.34202" lon="5.87108">
        <ele>1679</ele>
        <time>2022-03-06T13:57:11Z</time>
      </trkpt>
      <trkpt lat="45.34203" lon="5.87103">
        <ele>1679</ele>
        <time>2022-03-06T13:57:13Z</time>
      </trkpt>
      <trkpt lat="45.34204" lon="5.871">
        <ele>1679</ele>
        <time>2022-03-06T13:57:14Z</time>
      </trkpt>
      <trkpt lat="45.34204" lon="5.87096">
        <ele>1679</ele>
        <time>2022-03-06T13:57:15Z</time>
      </trkpt>
      <trkpt lat="45.34205" lon="5.87092">
        <ele>1679</ele>
        <time>2022-03-06T13:57:16Z</time>
      </trkpt>
      <trkpt lat="45.34205" lon="5.87087">
        <ele>1679</ele>
        <time>2022-03-06T13:57:17Z</time>
      </trkpt>
      <trkpt lat="45.34206" lon="5.87083">
        <ele>1678</ele>
        <time>2022-03-06T13:57:18Z</time>
      </trkpt>
      <trkpt lat="45.34206" lon="5.8708">
        <ele>1678</ele>
        <time>2022-03-06T13:57:19Z</time>
      </trkpt>
      <trkpt lat="45.34206" lon="5.8708">
        <ele>1677</ele>
        <time>2022-03-06T13:57:23Z</time>
      </trkpt>
      <trkpt lat="45.34206" lon="5.8708">
        <ele>1677</ele>
        <time>2022-03-06T13:57:27Z</time>
      </trkpt>
      <trkpt lat="45.34206" lon="5.8708">
        <ele>1677</ele>
        <time>2022-03-06T13:57:31Z</time>
      </trkpt>
      <trkpt lat="45.34206" lon="5.8708">
        <ele>1678</ele>
        <time>2022-03-06T13:57:35Z</time>
      </trkpt>
      <trkpt lat="45.34206" lon="5.8708">
        <ele>1677</ele>
        <time>2022-03-06T13:57:39Z</time>
      </trkpt>
      <trkpt lat="45.34206" lon="5.8708">
        <ele>1677</ele>
        <time>2022-03-06T13:57:43Z</time>
      </trkpt>
      <trkpt lat="45.34206" lon="5.8708">
        <ele>1678</ele>
        <time>2022-03-06T13:57:47Z</time>
      </trkpt>
      <trkpt lat="45.34206" lon="5.8708">
        <ele>1678</ele>
        <time>2022-03-06T13:57:51Z</time>
      </trkpt>
      <trkpt lat="45.34206" lon="5.8708">
        <ele>1677</ele>
        <time>2022-03-06T13:57:55Z</time>
      </trkpt>
      <trkpt lat="45.34206" lon="5.8708">
        <ele>1676</ele>
        <time>2022-03-06T13:57:59Z</time>
      </trkpt>
      <trkpt lat="45.34206" lon="5.87077">
        <ele>1676</ele>
        <time>2022-03-06T13:58:00Z</time>
      </trkpt>
      <trkpt lat="45.34206" lon="5.87077">
        <ele>1677</ele>
        <time>2022-03-06T13:58:04Z</time>
      </trkpt>
      <trkpt lat="45.34206" lon="5.87077">
        <ele>1677</ele>
        <time>2022-03-06T13:58:08Z</time>
      </trkpt>
      <trkpt lat="45.34206" lon="5.87077">
        <ele>1677</ele>
        <time>2022-03-06T13:58:12Z</time>
      </trkpt>
      <trkpt lat="45.34206" lon="5.87077">
        <ele>1677</ele>
        <time>2022-03-06T13:58:16Z</time>
      </trkpt>
      <trkpt lat="45.34206" lon="5.87077">
        <ele>1677</ele>
        <time>2022-03-06T13:58:20Z</time>
      </trkpt>
      <trkpt lat="45.34206" lon="5.87077">
        <ele>1677</ele>
        <time>2022-03-06T13:58:24Z</time>
      </trkpt>
      <trkpt lat="45.34206" lon="5.87077">
        <ele>1677</ele>
        <time>2022-03-06T13:58:28Z</time>
      </trkpt>
      <trkpt lat="45.34206" lon="5.87077">
        <ele>1677</ele>
        <time>2022-03-06T13:58:32Z</time>
      </trkpt>
      <trkpt lat="45.34206" lon="5.87077">
        <ele>1677</ele>
        <time>2022-03-06T13:58:36Z</time>
      </trkpt>
      <trkpt lat="45.34206" lon="5.87077">
        <ele>1677</ele>
        <time>2022-03-06T13:58:40Z</time>
      </trkpt>
      <trkpt lat="45.34206" lon="5.87077">
        <ele>1677</ele>
        <time>2022-03-06T13:58:44Z</time>
      </trkpt>
      <trkpt lat="45.34206" lon="5.87077">
        <ele>1677</ele>
        <time>2022-03-06T13:58:48Z</time>
      </trkpt>
      <trkpt lat="45.34206" lon="5.87077">
        <ele>1678</ele>
        <time>2022-03-06T13:58:52Z</time>
      </trkpt>
      <trkpt lat="45.34206" lon="5.87077">
        <ele>1677</ele>
        <time>2022-03-06T13:58:56Z</time>
      </trkpt>
      <trkpt lat="45.34206" lon="5.87077">
        <ele>1677</ele>
        <time>2022-03-06T13:59:00Z</time>
      </trkpt>
      <trkpt lat="45.34206" lon="5.87077">
        <ele>1678</ele>
        <time>2022-03-06T13:59:04Z</time>
      </trkpt>
      <trkpt lat="45.34206" lon="5.87077">
        <ele>1678</ele>
        <time>2022-03-06T13:59:08Z</time>
      </trkpt>
      <trkpt lat="45.34207" lon="5.87081">
        <ele>1677</ele>
        <time>2022-03-06T13:59:12Z</time>
      </trkpt>
      <trkpt lat="45.34207" lon="5.87081">
        <ele>1676</ele>
        <time>2022-03-06T13:59:13Z</time>
      </trkpt>
      <trkpt lat="45.34206" lon="5.87083">
        <ele>1677</ele>
        <time>2022-03-06T13:59:15Z</time>
      </trkpt>
      <trkpt lat="45.34206" lon="5.87083">
        <ele>1678</ele>
        <time>2022-03-06T13:59:18Z</time>
      </trkpt>
      <trkpt lat="45.34209" lon="5.87083">
        <ele>1678</ele>
        <time>2022-03-06T13:59:20Z</time>
      </trkpt>
      <trkpt lat="45.34209" lon="5.87083">
        <ele>1678</ele>
        <time>2022-03-06T13:59:23Z</time>
      </trkpt>
      <trkpt lat="45.34209" lon="5.87083">
        <ele>1678</ele>
        <time>2022-03-06T13:59:27Z</time>
      </trkpt>
      <trkpt lat="45.34209" lon="5.87083">
        <ele>1678</ele>
        <time>2022-03-06T13:59:31Z</time>
      </trkpt>
      <trkpt lat="45.34208" lon="5.8708">
        <ele>1678</ele>
        <time>2022-03-06T13:59:32Z</time>
      </trkpt>
      <trkpt lat="45.34208" lon="5.8708">
        <ele>1678</ele>
        <time>2022-03-06T13:59:36Z</time>
      </trkpt>
      <trkpt lat="45.34208" lon="5.8708">
        <ele>1677</ele>
        <time>2022-03-06T13:59:40Z</time>
      </trkpt>
      <trkpt lat="45.34208" lon="5.8708">
        <ele>1677</ele>
        <time>2022-03-06T13:59:44Z</time>
      </trkpt>
      <trkpt lat="45.34208" lon="5.8708">
        <ele>1677</ele>
        <time>2022-03-06T13:59:48Z</time>
      </trkpt>
      <trkpt lat="45.34208" lon="5.8708">
        <ele>1677</ele>
        <time>2022-03-06T13:59:52Z</time>
      </trkpt>
      <trkpt lat="45.34208" lon="5.8708">
        <ele>1677</ele>
        <time>2022-03-06T13:59:56Z</time>
      </trkpt>
      <trkpt lat="45.34208" lon="5.8708">
        <ele>1677</ele>
        <time>2022-03-06T14:00:00Z</time>
      </trkpt>
      <trkpt lat="45.34205" lon="5.87082">
        <ele>1677</ele>
        <time>2022-03-06T14:00:03Z</time>
      </trkpt>
      <trkpt lat="45.34205" lon="5.87082">
        <ele>1678</ele>
        <time>2022-03-06T14:00:05Z</time>
      </trkpt>
      <trkpt lat="45.34205" lon="5.87082">
        <ele>1678</ele>
        <time>2022-03-06T14:00:09Z</time>
      </trkpt>
      <trkpt lat="45.34207" lon="5.87081">
        <ele>1678</ele>
        <time>2022-03-06T14:00:11Z</time>
      </trkpt>
      <trkpt lat="45.34208" lon="5.87079">
        <ele>1677</ele>
        <time>2022-03-06T14:00:14Z</time>
      </trkpt>
      <trkpt lat="45.34208" lon="5.87079">
        <ele>1677</ele>
        <time>2022-03-06T14:00:15Z</time>
      </trkpt>
      <trkpt lat="45.34208" lon="5.87079">
        <ele>1677</ele>
        <time>2022-03-06T14:00:19Z</time>
      </trkpt>
      <trkpt lat="45.34208" lon="5.87079">
        <ele>1677</ele>
        <time>2022-03-06T14:00:23Z</time>
      </trkpt>
      <trkpt lat="45.3421" lon="5.87081">
        <ele>1677</ele>
        <time>2022-03-06T14:00:25Z</time>
      </trkpt>
      <trkpt lat="45.3421" lon="5.87081">
        <ele>1678</ele>
        <time>2022-03-06T14:00:28Z</time>
      </trkpt>
      <trkpt lat="45.3421" lon="5.87081">
        <ele>1678</ele>
        <time>2022-03-06T14:00:32Z</time>
      </trkpt>
      <trkpt lat="45.3421" lon="5.87081">
        <ele>1678</ele>
        <time>2022-03-06T14:00:36Z</time>
      </trkpt>
      <trkpt lat="45.3421" lon="5.87081">
        <ele>1677</ele>
        <time>2022-03-06T14:00:40Z</time>
      </trkpt>
      <trkpt lat="45.3421" lon="5.87081">
        <ele>1677</ele>
        <time>2022-03-06T14:00:44Z</time>
      </trkpt>
      <trkpt lat="45.3421" lon="5.87081">
        <ele>1677</ele>
        <time>2022-03-06T14:00:48Z</time>
      </trkpt>
      <trkpt lat="45.34211" lon="5.8708">
        <ele>1678</ele>
        <time>2022-03-06T14:00:50Z</time>
      </trkpt>
      <trkpt lat="45.34211" lon="5.8708">
        <ele>1677</ele>
        <time>2022-03-06T14:00:53Z</time>
      </trkpt>
      <trkpt lat="45.34209" lon="5.8708">
        <ele>1677</ele>
        <time>2022-03-06T14:00:55Z</time>
      </trkpt>
      <trkpt lat="45.34209" lon="5.8708">
        <ele>1678</ele>
        <time>2022-03-06T14:00:58Z</time>
      </trkpt>
      <trkpt lat="45.34209" lon="5.8708">
        <ele>1679</ele>
        <time>2022-03-06T14:01:02Z</time>
      </trkpt>
      <trkpt lat="45.34209" lon="5.8708">
        <ele>1679</ele>
        <time>2022-03-06T14:01:06Z</time>
      </trkpt>
      <trkpt lat="45.34209" lon="5.8708">
        <ele>1678</ele>
        <time>2022-03-06T14:01:10Z</time>
      </trkpt>
      <trkpt lat="45.34209" lon="5.8708">
        <ele>1678</ele>
        <time>2022-03-06T14:01:14Z</time>
      </trkpt>
      <trkpt lat="45.34209" lon="5.8708">
        <ele>1678</ele>
        <time>2022-03-06T14:01:18Z</time>
      </trkpt>
      <trkpt lat="45.34209" lon="5.8708">
        <ele>1678</ele>
        <time>2022-03-06T14:01:22Z</time>
      </trkpt>
      <trkpt lat="45.34209" lon="5.8708">
        <ele>1678</ele>
        <time>2022-03-06T14:01:26Z</time>
      </trkpt>
      <trkpt lat="45.34209" lon="5.8708">
        <ele>1677</ele>
        <time>2022-03-06T14:01:30Z</time>
      </trkpt>
      <trkpt lat="45.34209" lon="5.8708">
        <ele>1677</ele>
        <time>2022-03-06T14:01:34Z</time>
      </trkpt>
      <trkpt lat="45.34209" lon="5.8708">
        <ele>1677</ele>
        <time>2022-03-06T14:01:38Z</time>
      </trkpt>
      <trkpt lat="45.34209" lon="5.8708">
        <ele>1678</ele>
        <time>2022-03-06T14:01:42Z</time>
      </trkpt>
      <trkpt lat="45.34209" lon="5.8708">
        <ele>1678</ele>
        <time>2022-03-06T14:01:46Z</time>
      </trkpt>
      <trkpt lat="45.34209" lon="5.8708">
        <ele>1678</ele>
        <time>2022-03-06T14:01:50Z</time>
      </trkpt>
      <trkpt lat="45.34209" lon="5.8708">
        <ele>1678</ele>
        <time>2022-03-06T14:01:54Z</time>
      </trkpt>
      <trkpt lat="45.34209" lon="5.8708">
        <ele>1677</ele>
        <time>2022-03-06T14:01:58Z</time>
      </trkpt>
      <trkpt lat="45.34209" lon="5.8708">
        <ele>1677</ele>
        <time>2022-03-06T14:02:02Z</time>
      </trkpt>
      <trkpt lat="45.34211" lon="5.87081">
        <ele>1678</ele>
        <time>2022-03-06T14:02:06Z</time>
      </trkpt>
      <trkpt lat="45.34211" lon="5.87081">
        <ele>1678</ele>
        <time>2022-03-06T14:02:07Z</time>
      </trkpt>
      <trkpt lat="45.34211" lon="5.87081">
        <ele>1678</ele>
        <time>2022-03-06T14:02:11Z</time>
      </trkpt>
      <trkpt lat="45.34211" lon="5.87081">
        <ele>1678</ele>
        <time>2022-03-06T14:02:15Z</time>
      </trkpt>
      <trkpt lat="45.34211" lon="5.87081">
        <ele>1678</ele>
        <time>2022-03-06T14:02:19Z</time>
      </trkpt>
      <trkpt lat="45.34211" lon="5.87081">
        <ele>1678</ele>
        <time>2022-03-06T14:02:23Z</time>
      </trkpt>
      <trkpt lat="45.34211" lon="5.87081">
        <ele>1677</ele>
        <time>2022-03-06T14:02:27Z</time>
      </trkpt>
      <trkpt lat="45.34211" lon="5.87081">
        <ele>1678</ele>
        <time>2022-03-06T14:02:31Z</time>
      </trkpt>
      <trkpt lat="45.34211" lon="5.87081">
        <ele>1679</ele>
        <time>2022-03-06T14:02:35Z</time>
      </trkpt>
      <trkpt lat="45.34211" lon="5.87081">
        <ele>1677</ele>
        <time>2022-03-06T14:02:39Z</time>
      </trkpt>
      <trkpt lat="45.34211" lon="5.87081">
        <ele>1677</ele>
        <time>2022-03-06T14:02:43Z</time>
      </trkpt>
      <trkpt lat="45.34211" lon="5.87081">
        <ele>1677</ele>
        <time>2022-03-06T14:02:47Z</time>
      </trkpt>
      <trkpt lat="45.34213" lon="5.87083">
        <ele>1677</ele>
        <time>2022-03-06T14:02:50Z</time>
      </trkpt>
      <trkpt lat="45.34213" lon="5.87083">
        <ele>1677</ele>
        <time>2022-03-06T14:02:52Z</time>
      </trkpt>
      <trkpt lat="45.34213" lon="5.87083">
        <ele>1678</ele>
        <time>2022-03-06T14:02:56Z</time>
      </trkpt>
      <trkpt lat="45.34213" lon="5.87086">
        <ele>1678</ele>
        <time>2022-03-06T14:02:58Z</time>
      </trkpt>
      <trkpt lat="45.34213" lon="5.87086">
        <ele>1679</ele>
        <time>2022-03-06T14:03:01Z</time>
      </trkpt>
      <trkpt lat="45.34213" lon="5.87089">
        <ele>1679</ele>
        <time>2022-03-06T14:03:02Z</time>
      </trkpt>
      <trkpt lat="45.34213" lon="5.87092">
        <ele>1679</ele>
        <time>2022-03-06T14:03:05Z</time>
      </trkpt>
      <trkpt lat="45.34213" lon="5.87092">
        <ele>1680</ele>
        <time>2022-03-06T14:03:07Z</time>
      </trkpt>
      <trkpt lat="45.34214" lon="5.87094">
        <ele>1680</ele>
        <time>2022-03-06T14:03:08Z</time>
      </trkpt>
      <trkpt lat="45.34215" lon="5.87097">
        <ele>1681</ele>
        <time>2022-03-06T14:03:11Z</time>
      </trkpt>
      <trkpt lat="45.34215" lon="5.87097">
        <ele>1682</ele>
        <time>2022-03-06T14:03:13Z</time>
      </trkpt>
      <trkpt lat="45.34215" lon="5.871">
        <ele>1682</ele>
        <time>2022-03-06T14:03:14Z</time>
      </trkpt>
      <trkpt lat="45.34215" lon="5.87103">
        <ele>1682</ele>
        <time>2022-03-06T14:03:18Z</time>
      </trkpt>
      <trkpt lat="45.34215" lon="5.87103">
        <ele>1683</ele>
        <time>2022-03-06T14:03:19Z</time>
      </trkpt>
      <trkpt lat="45.34216" lon="5.87106">
        <ele>1684</ele>
        <time>2022-03-06T14:03:22Z</time>
      </trkpt>
      <trkpt lat="45.34216" lon="5.87106">
        <ele>1684</ele>
        <time>2022-03-06T14:03:24Z</time>
      </trkpt>
      <trkpt lat="45.34215" lon="5.87109">
        <ele>1685</ele>
        <time>2022-03-06T14:03:26Z</time>
      </trkpt>
      <trkpt lat="45.34215" lon="5.87112">
        <ele>1686</ele>
        <time>2022-03-06T14:03:29Z</time>
      </trkpt>
      <trkpt lat="45.34215" lon="5.87112">
        <ele>1686</ele>
        <time>2022-03-06T14:03:30Z</time>
      </trkpt>
      <trkpt lat="45.34215" lon="5.87115">
        <ele>1686</ele>
        <time>2022-03-06T14:03:32Z</time>
      </trkpt>
      <trkpt lat="45.34215" lon="5.87118">
        <ele>1686</ele>
        <time>2022-03-06T14:03:35Z</time>
      </trkpt>
      <trkpt lat="45.34215" lon="5.87118">
        <ele>1686</ele>
        <time>2022-03-06T14:03:36Z</time>
      </trkpt>
      <trkpt lat="45.34215" lon="5.87122">
        <ele>1687</ele>
        <time>2022-03-06T14:03:38Z</time>
      </trkpt>
      <trkpt lat="45.34215" lon="5.87125">
        <ele>1687</ele>
        <time>2022-03-06T14:03:41Z</time>
      </trkpt>
      <trkpt lat="45.34215" lon="5.87125">
        <ele>1687</ele>
        <time>2022-03-06T14:03:42Z</time>
      </trkpt>
      <trkpt lat="45.34215" lon="5.87128">
        <ele>1688</ele>
        <time>2022-03-06T14:03:44Z</time>
      </trkpt>
      <trkpt lat="45.34215" lon="5.87131">
        <ele>1689</ele>
        <time>2022-03-06T14:03:47Z</time>
      </trkpt>
      <trkpt lat="45.34215" lon="5.87131">
        <ele>1689</ele>
        <time>2022-03-06T14:03:48Z</time>
      </trkpt>
      <trkpt lat="45.34215" lon="5.87131">
        <ele>1688</ele>
        <time>2022-03-06T14:03:52Z</time>
      </trkpt>
      <trkpt lat="45.34216" lon="5.87127">
        <ele>1689</ele>
        <time>2022-03-06T14:03:55Z</time>
      </trkpt>
      <trkpt lat="45.34216" lon="5.87127">
        <ele>1689</ele>
        <time>2022-03-06T14:03:57Z</time>
      </trkpt>
      <trkpt lat="45.34218" lon="5.87125">
        <ele>1689</ele>
        <time>2022-03-06T14:03:58Z</time>
      </trkpt>
      <trkpt lat="45.34219" lon="5.87122">
        <ele>1689</ele>
        <time>2022-03-06T14:04:01Z</time>
      </trkpt>
      <trkpt lat="45.34219" lon="5.87122">
        <ele>1691</ele>
        <time>2022-03-06T14:04:03Z</time>
      </trkpt>
      <trkpt lat="45.34221" lon="5.8712">
        <ele>1691</ele>
        <time>2022-03-06T14:04:04Z</time>
      </trkpt>
      <trkpt lat="45.34222" lon="5.87117">
        <ele>1691</ele>
        <time>2022-03-06T14:04:07Z</time>
      </trkpt>
      <trkpt lat="45.34223" lon="5.87115">
        <ele>1691</ele>
        <time>2022-03-06T14:04:09Z</time>
      </trkpt>
      <trkpt lat="45.34225" lon="5.87112">
        <ele>1691</ele>
        <time>2022-03-06T14:04:12Z</time>
      </trkpt>
      <trkpt lat="45.34225" lon="5.87112">
        <ele>1691</ele>
        <time>2022-03-06T14:04:13Z</time>
      </trkpt>
      <trkpt lat="45.34227" lon="5.8711">
        <ele>1692</ele>
        <time>2022-03-06T14:04:15Z</time>
      </trkpt>
      <trkpt lat="45.34229" lon="5.87108">
        <ele>1693</ele>
        <time>2022-03-06T14:04:18Z</time>
      </trkpt>
      <trkpt lat="45.34229" lon="5.87108">
        <ele>1693</ele>
        <time>2022-03-06T14:04:19Z</time>
      </trkpt>
      <trkpt lat="45.3423" lon="5.87105">
        <ele>1693</ele>
        <time>2022-03-06T14:04:21Z</time>
      </trkpt>
      <trkpt lat="45.34232" lon="5.87103">
        <ele>1694</ele>
        <time>2022-03-06T14:04:24Z</time>
      </trkpt>
      <trkpt lat="45.34232" lon="5.87103">
        <ele>1694</ele>
        <time>2022-03-06T14:04:25Z</time>
      </trkpt>
      <trkpt lat="45.34234" lon="5.87101">
        <ele>1695</ele>
        <time>2022-03-06T14:04:27Z</time>
      </trkpt>
      <trkpt lat="45.34236" lon="5.87099">
        <ele>1696</ele>
        <time>2022-03-06T14:04:30Z</time>
      </trkpt>
      <trkpt lat="45.34236" lon="5.87099">
        <ele>1696</ele>
        <time>2022-03-06T14:04:31Z</time>
      </trkpt>
      <trkpt lat="45.34238" lon="5.87097">
        <ele>1696</ele>
        <time>2022-03-06T14:04:33Z</time>
      </trkpt>
      <trkpt lat="45.3424" lon="5.87094">
        <ele>1697</ele>
        <time>2022-03-06T14:04:36Z</time>
      </trkpt>
      <trkpt lat="45.3424" lon="5.87094">
        <ele>1697</ele>
        <time>2022-03-06T14:04:37Z</time>
      </trkpt>
      <trkpt lat="45.34241" lon="5.87092">
        <ele>1697</ele>
        <time>2022-03-06T14:04:39Z</time>
      </trkpt>
      <trkpt lat="45.34243" lon="5.87089">
        <ele>1697</ele>
        <time>2022-03-06T14:04:42Z</time>
      </trkpt>
      <trkpt lat="45.34243" lon="5.87089">
        <ele>1698</ele>
        <time>2022-03-06T14:04:43Z</time>
      </trkpt>
      <trkpt lat="45.34245" lon="5.87088">
        <ele>1699</ele>
        <time>2022-03-06T14:04:45Z</time>
      </trkpt>
      <trkpt lat="45.34245" lon="5.87088">
        <ele>1700</ele>
        <time>2022-03-06T14:04:48Z</time>
      </trkpt>
      <trkpt lat="45.34247" lon="5.8709">
        <ele>1701</ele>
        <time>2022-03-06T14:04:50Z</time>
      </trkpt>
      <trkpt lat="45.34247" lon="5.87092">
        <ele>1700</ele>
        <time>2022-03-06T14:04:52Z</time>
      </trkpt>
      <trkpt lat="45.34247" lon="5.87092">
        <ele>1701</ele>
        <time>2022-03-06T14:04:54Z</time>
      </trkpt>
      <trkpt lat="45.34247" lon="5.87096">
        <ele>1701</ele>
        <time>2022-03-06T14:04:55Z</time>
      </trkpt>
      <trkpt lat="45.34248" lon="5.871">
        <ele>1702</ele>
        <time>2022-03-06T14:04:58Z</time>
      </trkpt>
      <trkpt lat="45.34248" lon="5.87102">
        <ele>1702</ele>
        <time>2022-03-06T14:05:00Z</time>
      </trkpt>
      <trkpt lat="45.34248" lon="5.87105">
        <ele>1703</ele>
        <time>2022-03-06T14:05:02Z</time>
      </trkpt>
      <trkpt lat="45.34248" lon="5.87108">
        <ele>1703</ele>
        <time>2022-03-06T14:05:04Z</time>
      </trkpt>
      <trkpt lat="45.34248" lon="5.87111">
        <ele>1704</ele>
        <time>2022-03-06T14:05:06Z</time>
      </trkpt>
      <trkpt lat="45.34248" lon="5.87111">
        <ele>1704</ele>
        <time>2022-03-06T14:05:08Z</time>
      </trkpt>
      <trkpt lat="45.34247" lon="5.87114">
        <ele>1704</ele>
        <time>2022-03-06T14:05:09Z</time>
      </trkpt>
      <trkpt lat="45.34246" lon="5.87118">
        <ele>1704</ele>
        <time>2022-03-06T14:05:12Z</time>
      </trkpt>
      <trkpt lat="45.34246" lon="5.87118">
        <ele>1705</ele>
        <time>2022-03-06T14:05:14Z</time>
      </trkpt>
      <trkpt lat="45.34246" lon="5.87118">
        <ele>1705</ele>
        <time>2022-03-06T14:05:18Z</time>
      </trkpt>
      <trkpt lat="45.34248" lon="5.87116">
        <ele>1706</ele>
        <time>2022-03-06T14:05:20Z</time>
      </trkpt>
      <trkpt lat="45.3425" lon="5.87114">
        <ele>1706</ele>
        <time>2022-03-06T14:05:22Z</time>
      </trkpt>
      <trkpt lat="45.3425" lon="5.87114">
        <ele>1706</ele>
        <time>2022-03-06T14:05:24Z</time>
      </trkpt>
      <trkpt lat="45.34251" lon="5.87111">
        <ele>1706</ele>
        <time>2022-03-06T14:05:25Z</time>
      </trkpt>
      <trkpt lat="45.34254" lon="5.87109">
        <ele>1707</ele>
        <time>2022-03-06T14:05:28Z</time>
      </trkpt>
      <trkpt lat="45.34255" lon="5.87107">
        <ele>1707</ele>
        <time>2022-03-06T14:05:30Z</time>
      </trkpt>
      <trkpt lat="45.34257" lon="5.87105">
        <ele>1707</ele>
        <time>2022-03-06T14:05:33Z</time>
      </trkpt>
      <trkpt lat="45.34257" lon="5.87105">
        <ele>1708</ele>
        <time>2022-03-06T14:05:34Z</time>
      </trkpt>
      <trkpt lat="45.34259" lon="5.87102">
        <ele>1708</ele>
        <time>2022-03-06T14:05:36Z</time>
      </trkpt>
      <trkpt lat="45.3426" lon="5.871">
        <ele>1709</ele>
        <time>2022-03-06T14:05:39Z</time>
      </trkpt>
      <trkpt lat="45.3426" lon="5.871">
        <ele>1710</ele>
        <time>2022-03-06T14:05:40Z</time>
      </trkpt>
      <trkpt lat="45.34262" lon="5.87097">
        <ele>1710</ele>
        <time>2022-03-06T14:05:42Z</time>
      </trkpt>
      <trkpt lat="45.34264" lon="5.87096">
        <ele>1711</ele>
        <time>2022-03-06T14:05:45Z</time>
      </trkpt>
      <trkpt lat="45.34264" lon="5.87096">
        <ele>1711</ele>
        <time>2022-03-06T14:05:46Z</time>
      </trkpt>
      <trkpt lat="45.34264" lon="5.87096">
        <ele>1712</ele>
        <time>2022-03-06T14:05:50Z</time>
      </trkpt>
      <trkpt lat="45.34263" lon="5.87099">
        <ele>1712</ele>
        <time>2022-03-06T14:05:51Z</time>
      </trkpt>
      <trkpt lat="45.34264" lon="5.87102">
        <ele>1712</ele>
        <time>2022-03-06T14:05:54Z</time>
      </trkpt>
      <trkpt lat="45.34264" lon="5.87105">
        <ele>1712</ele>
        <time>2022-03-06T14:05:56Z</time>
      </trkpt>
      <trkpt lat="45.34265" lon="5.87108">
        <ele>1713</ele>
        <time>2022-03-06T14:05:59Z</time>
      </trkpt>
      <trkpt lat="45.34265" lon="5.87108">
        <ele>1713</ele>
        <time>2022-03-06T14:06:00Z</time>
      </trkpt>
      <trkpt lat="45.34264" lon="5.87112">
        <ele>1714</ele>
        <time>2022-03-06T14:06:03Z</time>
      </trkpt>
      <trkpt lat="45.34263" lon="5.87114">
        <ele>1714</ele>
        <time>2022-03-06T14:06:05Z</time>
      </trkpt>
      <trkpt lat="45.34262" lon="5.87117">
        <ele>1715</ele>
        <time>2022-03-06T14:06:08Z</time>
      </trkpt>
      <trkpt lat="45.34262" lon="5.87117">
        <ele>1715</ele>
        <time>2022-03-06T14:06:09Z</time>
      </trkpt>
      <trkpt lat="45.34262" lon="5.87121">
        <ele>1715</ele>
        <time>2022-03-06T14:06:11Z</time>
      </trkpt>
      <trkpt lat="45.34261" lon="5.87124">
        <ele>1716</ele>
        <time>2022-03-06T14:06:14Z</time>
      </trkpt>
      <trkpt lat="45.34261" lon="5.87124">
        <ele>1716</ele>
        <time>2022-03-06T14:06:15Z</time>
      </trkpt>
      <trkpt lat="45.3426" lon="5.87126">
        <ele>1716</ele>
        <time>2022-03-06T14:06:17Z</time>
      </trkpt>
      <trkpt lat="45.3426" lon="5.87126">
        <ele>1717</ele>
        <time>2022-03-06T14:06:20Z</time>
      </trkpt>
      <trkpt lat="45.3426" lon="5.8713">
        <ele>1718</ele>
        <time>2022-03-06T14:06:21Z</time>
      </trkpt>
      <trkpt lat="45.3426" lon="5.8713">
        <ele>1718</ele>
        <time>2022-03-06T14:06:25Z</time>
      </trkpt>
      <trkpt lat="45.34259" lon="5.87127">
        <ele>1718</ele>
        <time>2022-03-06T14:06:28Z</time>
      </trkpt>
      <trkpt lat="45.34259" lon="5.87127">
        <ele>1718</ele>
        <time>2022-03-06T14:06:30Z</time>
      </trkpt>
      <trkpt lat="45.34261" lon="5.87124">
        <ele>1718</ele>
        <time>2022-03-06T14:06:31Z</time>
      </trkpt>
      <trkpt lat="45.34263" lon="5.87123">
        <ele>1718</ele>
        <time>2022-03-06T14:06:33Z</time>
      </trkpt>
      <trkpt lat="45.34264" lon="5.87121">
        <ele>1718</ele>
        <time>2022-03-06T14:06:35Z</time>
      </trkpt>
      <trkpt lat="45.34264" lon="5.87121">
        <ele>1719</ele>
        <time>2022-03-06T14:06:37Z</time>
      </trkpt>
      <trkpt lat="45.34265" lon="5.87119">
        <ele>1719</ele>
        <time>2022-03-06T14:06:38Z</time>
      </trkpt>
      <trkpt lat="45.34267" lon="5.87116">
        <ele>1720</ele>
        <time>2022-03-06T14:06:41Z</time>
      </trkpt>
      <trkpt lat="45.34267" lon="5.87116">
        <ele>1720</ele>
        <time>2022-03-06T14:06:43Z</time>
      </trkpt>
      <trkpt lat="45.34269" lon="5.87114">
        <ele>1721</ele>
        <time>2022-03-06T14:06:44Z</time>
      </trkpt>
      <trkpt lat="45.3427" lon="5.87111">
        <ele>1721</ele>
        <time>2022-03-06T14:06:47Z</time>
      </trkpt>
      <trkpt lat="45.3427" lon="5.87111">
        <ele>1721</ele>
        <time>2022-03-06T14:06:49Z</time>
      </trkpt>
      <trkpt lat="45.34272" lon="5.87109">
        <ele>1722</ele>
        <time>2022-03-06T14:06:50Z</time>
      </trkpt>
      <trkpt lat="45.34273" lon="5.87107">
        <ele>1722</ele>
        <time>2022-03-06T14:06:53Z</time>
      </trkpt>
      <trkpt lat="45.34273" lon="5.87107">
        <ele>1722</ele>
        <time>2022-03-06T14:06:55Z</time>
      </trkpt>
      <trkpt lat="45.34275" lon="5.87105">
        <ele>1722</ele>
        <time>2022-03-06T14:06:56Z</time>
      </trkpt>
      <trkpt lat="45.34277" lon="5.87103">
        <ele>1723</ele>
        <time>2022-03-06T14:06:59Z</time>
      </trkpt>
      <trkpt lat="45.34277" lon="5.87103">
        <ele>1724</ele>
        <time>2022-03-06T14:07:01Z</time>
      </trkpt>
      <trkpt lat="45.34278" lon="5.871">
        <ele>1724</ele>
        <time>2022-03-06T14:07:02Z</time>
      </trkpt>
      <trkpt lat="45.3428" lon="5.87098">
        <ele>1724</ele>
        <time>2022-03-06T14:07:05Z</time>
      </trkpt>
      <trkpt lat="45.3428" lon="5.87098">
        <ele>1725</ele>
        <time>2022-03-06T14:07:07Z</time>
      </trkpt>
      <trkpt lat="45.34281" lon="5.87095">
        <ele>1725</ele>
        <time>2022-03-06T14:07:08Z</time>
      </trkpt>
      <trkpt lat="45.34283" lon="5.87092">
        <ele>1726</ele>
        <time>2022-03-06T14:07:11Z</time>
      </trkpt>
      <trkpt lat="45.34283" lon="5.87092">
        <ele>1726</ele>
        <time>2022-03-06T14:07:13Z</time>
      </trkpt>
      <trkpt lat="45.34284" lon="5.87092">
        <ele>1727</ele>
        <time>2022-03-06T14:07:15Z</time>
      </trkpt>
      <trkpt lat="45.34284" lon="5.87092">
        <ele>1727</ele>
        <time>2022-03-06T14:07:18Z</time>
      </trkpt>
      <trkpt lat="45.34285" lon="5.87095">
        <ele>1727</ele>
        <time>2022-03-06T14:07:19Z</time>
      </trkpt>
      <trkpt lat="45.34285" lon="5.87098">
        <ele>1727</ele>
        <time>2022-03-06T14:07:22Z</time>
      </trkpt>
      <trkpt lat="45.34285" lon="5.87098">
        <ele>1728</ele>
        <time>2022-03-06T14:07:24Z</time>
      </trkpt>
      <trkpt lat="45.34286" lon="5.87102">
        <ele>1728</ele>
        <time>2022-03-06T14:07:25Z</time>
      </trkpt>
      <trkpt lat="45.34286" lon="5.87105">
        <ele>1728</ele>
        <time>2022-03-06T14:07:28Z</time>
      </trkpt>
      <trkpt lat="45.34286" lon="5.87105">
        <ele>1729</ele>
        <time>2022-03-06T14:07:30Z</time>
      </trkpt>
      <trkpt lat="45.34286" lon="5.87109">
        <ele>1729</ele>
        <time>2022-03-06T14:07:31Z</time>
      </trkpt>
      <trkpt lat="45.34285" lon="5.87112">
        <ele>1729</ele>
        <time>2022-03-06T14:07:34Z</time>
      </trkpt>
      <trkpt lat="45.34285" lon="5.87112">
        <ele>1729</ele>
        <time>2022-03-06T14:07:36Z</time>
      </trkpt>
      <trkpt lat="45.34285" lon="5.87116">
        <ele>1730</ele>
        <time>2022-03-06T14:07:37Z</time>
      </trkpt>
      <trkpt lat="45.34284" lon="5.87119">
        <ele>1730</ele>
        <time>2022-03-06T14:07:40Z</time>
      </trkpt>
      <trkpt lat="45.34284" lon="5.87119">
        <ele>1731</ele>
        <time>2022-03-06T14:07:42Z</time>
      </trkpt>
      <trkpt lat="45.34283" lon="5.87122">
        <ele>1731</ele>
        <time>2022-03-06T14:07:43Z</time>
      </trkpt>
      <trkpt lat="45.34282" lon="5.87125">
        <ele>1731</ele>
        <time>2022-03-06T14:07:46Z</time>
      </trkpt>
      <trkpt lat="45.34282" lon="5.87125">
        <ele>1732</ele>
        <time>2022-03-06T14:07:48Z</time>
      </trkpt>
      <trkpt lat="45.34282" lon="5.87128">
        <ele>1732</ele>
        <time>2022-03-06T14:07:49Z</time>
      </trkpt>
      <trkpt lat="45.34281" lon="5.87132">
        <ele>1733</ele>
        <time>2022-03-06T14:07:52Z</time>
      </trkpt>
      <trkpt lat="45.34281" lon="5.87132">
        <ele>1733</ele>
        <time>2022-03-06T14:07:54Z</time>
      </trkpt>
      <trkpt lat="45.34281" lon="5.87134">
        <ele>1733</ele>
        <time>2022-03-06T14:07:55Z</time>
      </trkpt>
      <trkpt lat="45.34281" lon="5.87138">
        <ele>1733</ele>
        <time>2022-03-06T14:07:59Z</time>
      </trkpt>
      <trkpt lat="45.34281" lon="5.87138">
        <ele>1734</ele>
        <time>2022-03-06T14:08:00Z</time>
      </trkpt>
      <trkpt lat="45.3428" lon="5.87141">
        <ele>1734</ele>
        <time>2022-03-06T14:08:02Z</time>
      </trkpt>
      <trkpt lat="45.3428" lon="5.87141">
        <ele>1734</ele>
        <time>2022-03-06T14:08:05Z</time>
      </trkpt>
      <trkpt lat="45.3428" lon="5.87141">
        <ele>1735</ele>
        <time>2022-03-06T14:08:09Z</time>
      </trkpt>
      <trkpt lat="45.34282" lon="5.87138">
        <ele>1735</ele>
        <time>2022-03-06T14:08:13Z</time>
      </trkpt>
      <trkpt lat="45.34282" lon="5.87138">
        <ele>1735</ele>
        <time>2022-03-06T14:08:14Z</time>
      </trkpt>
      <trkpt lat="45.34284" lon="5.87135">
        <ele>1735</ele>
        <time>2022-03-06T14:08:16Z</time>
      </trkpt>
      <trkpt lat="45.34285" lon="5.87133">
        <ele>1736</ele>
        <time>2022-03-06T14:08:19Z</time>
      </trkpt>
      <trkpt lat="45.34285" lon="5.87133">
        <ele>1736</ele>
        <time>2022-03-06T14:08:20Z</time>
      </trkpt>
      <trkpt lat="45.34287" lon="5.8713">
        <ele>1736</ele>
        <time>2022-03-06T14:08:22Z</time>
      </trkpt>
      <trkpt lat="45.34289" lon="5.87128">
        <ele>1737</ele>
        <time>2022-03-06T14:08:25Z</time>
      </trkpt>
      <trkpt lat="45.34289" lon="5.87128">
        <ele>1737</ele>
        <time>2022-03-06T14:08:26Z</time>
      </trkpt>
      <trkpt lat="45.3429" lon="5.87126">
        <ele>1737</ele>
        <time>2022-03-06T14:08:28Z</time>
      </trkpt>
      <trkpt lat="45.34292" lon="5.87124">
        <ele>1738</ele>
        <time>2022-03-06T14:08:31Z</time>
      </trkpt>
      <trkpt lat="45.34292" lon="5.87124">
        <ele>1738</ele>
        <time>2022-03-06T14:08:32Z</time>
      </trkpt>
      <trkpt lat="45.34294" lon="5.87122">
        <ele>1738</ele>
        <time>2022-03-06T14:08:34Z</time>
      </trkpt>
      <trkpt lat="45.34296" lon="5.87119">
        <ele>1739</ele>
        <time>2022-03-06T14:08:37Z</time>
      </trkpt>
      <trkpt lat="45.34296" lon="5.87119">
        <ele>1740</ele>
        <time>2022-03-06T14:08:38Z</time>
      </trkpt>
      <trkpt lat="45.34297" lon="5.87117">
        <ele>1740</ele>
        <time>2022-03-06T14:08:40Z</time>
      </trkpt>
      <trkpt lat="45.34299" lon="5.87114">
        <ele>1740</ele>
        <time>2022-03-06T14:08:43Z</time>
      </trkpt>
      <trkpt lat="45.34299" lon="5.87114">
        <ele>1740</ele>
        <time>2022-03-06T14:08:44Z</time>
      </trkpt>
      <trkpt lat="45.343" lon="5.87111">
        <ele>1740</ele>
        <time>2022-03-06T14:08:46Z</time>
      </trkpt>
      <trkpt lat="45.34301" lon="5.87108">
        <ele>1740</ele>
        <time>2022-03-06T14:08:49Z</time>
      </trkpt>
      <trkpt lat="45.34301" lon="5.87108">
        <ele>1741</ele>
        <time>2022-03-06T14:08:50Z</time>
      </trkpt>
      <trkpt lat="45.34302" lon="5.87105">
        <ele>1741</ele>
        <time>2022-03-06T14:08:52Z</time>
      </trkpt>
      <trkpt lat="45.34302" lon="5.87105">
        <ele>1742</ele>
        <time>2022-03-06T14:08:55Z</time>
      </trkpt>
      <trkpt lat="45.34304" lon="5.87102">
        <ele>1742</ele>
        <time>2022-03-06T14:08:56Z</time>
      </trkpt>
      <trkpt lat="45.34305" lon="5.871">
        <ele>1742</ele>
        <time>2022-03-06T14:08:59Z</time>
      </trkpt>
      <trkpt lat="45.34305" lon="5.871">
        <ele>1743</ele>
        <time>2022-03-06T14:09:01Z</time>
      </trkpt>
      <trkpt lat="45.34306" lon="5.87097">
        <ele>1744</ele>
        <time>2022-03-06T14:09:02Z</time>
      </trkpt>
      <trkpt lat="45.34307" lon="5.87094">
        <ele>1744</ele>
        <time>2022-03-06T14:09:05Z</time>
      </trkpt>
      <trkpt lat="45.34307" lon="5.87094">
        <ele>1744</ele>
        <time>2022-03-06T14:09:07Z</time>
      </trkpt>
      <trkpt lat="45.34308" lon="5.87091">
        <ele>1744</ele>
        <time>2022-03-06T14:09:08Z</time>
      </trkpt>
      <trkpt lat="45.3431" lon="5.87089">
        <ele>1745</ele>
        <time>2022-03-06T14:09:11Z</time>
      </trkpt>
      <trkpt lat="45.3431" lon="5.87089">
        <ele>1746</ele>
        <time>2022-03-06T14:09:13Z</time>
      </trkpt>
      <trkpt lat="45.34311" lon="5.87086">
        <ele>1746</ele>
        <time>2022-03-06T14:09:14Z</time>
      </trkpt>
      <trkpt lat="45.34312" lon="5.87084">
        <ele>1747</ele>
        <time>2022-03-06T14:09:17Z</time>
      </trkpt>
      <trkpt lat="45.34312" lon="5.87084">
        <ele>1747</ele>
        <time>2022-03-06T14:09:19Z</time>
      </trkpt>
      <trkpt lat="45.34314" lon="5.87081">
        <ele>1747</ele>
        <time>2022-03-06T14:09:20Z</time>
      </trkpt>
      <trkpt lat="45.34314" lon="5.87079">
        <ele>1747</ele>
        <time>2022-03-06T14:09:23Z</time>
      </trkpt>
      <trkpt lat="45.34314" lon="5.87079">
        <ele>1748</ele>
        <time>2022-03-06T14:09:25Z</time>
      </trkpt>
      <trkpt lat="45.34315" lon="5.87076">
        <ele>1749</ele>
        <time>2022-03-06T14:09:29Z</time>
      </trkpt>
      <trkpt lat="45.34315" lon="5.87076">
        <ele>1749</ele>
        <time>2022-03-06T14:09:30Z</time>
      </trkpt>
      <trkpt lat="45.34316" lon="5.87073">
        <ele>1750</ele>
        <time>2022-03-06T14:09:32Z</time>
      </trkpt>
      <trkpt lat="45.34316" lon="5.8707">
        <ele>1751</ele>
        <time>2022-03-06T14:09:35Z</time>
      </trkpt>
      <trkpt lat="45.34316" lon="5.8707">
        <ele>1751</ele>
        <time>2022-03-06T14:09:36Z</time>
      </trkpt>
      <trkpt lat="45.34316" lon="5.87067">
        <ele>1751</ele>
        <time>2022-03-06T14:09:38Z</time>
      </trkpt>
      <trkpt lat="45.34315" lon="5.87064">
        <ele>1751</ele>
        <time>2022-03-06T14:09:41Z</time>
      </trkpt>
      <trkpt lat="45.34315" lon="5.87064">
        <ele>1752</ele>
        <time>2022-03-06T14:09:42Z</time>
      </trkpt>
      <trkpt lat="45.34316" lon="5.87061">
        <ele>1753</ele>
        <time>2022-03-06T14:09:44Z</time>
      </trkpt>
      <trkpt lat="45.34316" lon="5.87061">
        <ele>1753</ele>
        <time>2022-03-06T14:09:47Z</time>
      </trkpt>
      <trkpt lat="45.34318" lon="5.87062">
        <ele>1754</ele>
        <time>2022-03-06T14:09:50Z</time>
      </trkpt>
      <trkpt lat="45.34318" lon="5.87062">
        <ele>1754</ele>
        <time>2022-03-06T14:09:52Z</time>
      </trkpt>
      <trkpt lat="45.3432" lon="5.87064">
        <ele>1754</ele>
        <time>2022-03-06T14:09:54Z</time>
      </trkpt>
      <trkpt lat="45.34322" lon="5.87065">
        <ele>1755</ele>
        <time>2022-03-06T14:09:57Z</time>
      </trkpt>
      <trkpt lat="45.34322" lon="5.87065">
        <ele>1755</ele>
        <time>2022-03-06T14:09:58Z</time>
      </trkpt>
      <trkpt lat="45.34324" lon="5.87065">
        <ele>1757</ele>
        <time>2022-03-06T14:10:01Z</time>
      </trkpt>
      <trkpt lat="45.34326" lon="5.87065">
        <ele>1757</ele>
        <time>2022-03-06T14:10:03Z</time>
      </trkpt>
      <trkpt lat="45.34326" lon="5.87065">
        <ele>1757</ele>
        <time>2022-03-06T14:10:06Z</time>
      </trkpt>
      <trkpt lat="45.34326" lon="5.87062">
        <ele>1757</ele>
        <time>2022-03-06T14:10:09Z</time>
      </trkpt>
      <trkpt lat="45.34326" lon="5.87062">
        <ele>1757</ele>
        <time>2022-03-06T14:10:11Z</time>
      </trkpt>
      <trkpt lat="45.34325" lon="5.87059">
        <ele>1757</ele>
        <time>2022-03-06T14:10:12Z</time>
      </trkpt>
      <trkpt lat="45.34323" lon="5.87057">
        <ele>1758</ele>
        <time>2022-03-06T14:10:15Z</time>
      </trkpt>
      <trkpt lat="45.34323" lon="5.87057">
        <ele>1759</ele>
        <time>2022-03-06T14:10:17Z</time>
      </trkpt>
      <trkpt lat="45.34322" lon="5.87054">
        <ele>1760</ele>
        <time>2022-03-06T14:10:20Z</time>
      </trkpt>
      <trkpt lat="45.34322" lon="5.87054">
        <ele>1760</ele>
        <time>2022-03-06T14:10:22Z</time>
      </trkpt>
      <trkpt lat="45.34322" lon="5.87054">
        <ele>1761</ele>
        <time>2022-03-06T14:10:26Z</time>
      </trkpt>
      <trkpt lat="45.34324" lon="5.87055">
        <ele>1761</ele>
        <time>2022-03-06T14:10:30Z</time>
      </trkpt>
      <trkpt lat="45.34324" lon="5.87055">
        <ele>1761</ele>
        <time>2022-03-06T14:10:31Z</time>
      </trkpt>
      <trkpt lat="45.34326" lon="5.87055">
        <ele>1761</ele>
        <time>2022-03-06T14:10:33Z</time>
      </trkpt>
      <trkpt lat="45.34328" lon="5.87055">
        <ele>1762</ele>
        <time>2022-03-06T14:10:36Z</time>
      </trkpt>
      <trkpt lat="45.34328" lon="5.87055">
        <ele>1762</ele>
        <time>2022-03-06T14:10:37Z</time>
      </trkpt>
      <trkpt lat="45.3433" lon="5.87055">
        <ele>1763</ele>
        <time>2022-03-06T14:10:40Z</time>
      </trkpt>
      <trkpt lat="45.3433" lon="5.87055">
        <ele>1764</ele>
        <time>2022-03-06T14:10:42Z</time>
      </trkpt>
      <trkpt lat="45.34332" lon="5.87055">
        <ele>1764</ele>
        <time>2022-03-06T14:10:43Z</time>
      </trkpt>
      <trkpt lat="45.34334" lon="5.87055">
        <ele>1764</ele>
        <time>2022-03-06T14:10:46Z</time>
      </trkpt>
      <trkpt lat="45.34334" lon="5.87055">
        <ele>1765</ele>
        <time>2022-03-06T14:10:48Z</time>
      </trkpt>
      <trkpt lat="45.34334" lon="5.87055">
        <ele>1764</ele>
        <time>2022-03-06T14:10:52Z</time>
      </trkpt>
      <trkpt lat="45.34333" lon="5.87053">
        <ele>1765</ele>
        <time>2022-03-06T14:10:56Z</time>
      </trkpt>
      <trkpt lat="45.34333" lon="5.87053">
        <ele>1765</ele>
        <time>2022-03-06T14:10:57Z</time>
      </trkpt>
      <trkpt lat="45.34332" lon="5.87051">
        <ele>1765</ele>
        <time>2022-03-06T14:10:58Z</time>
      </trkpt>
      <trkpt lat="45.3433" lon="5.8705">
        <ele>1766</ele>
        <time>2022-03-06T14:11:00Z</time>
      </trkpt>
      <trkpt lat="45.34329" lon="5.87047">
        <ele>1767</ele>
        <time>2022-03-06T14:11:03Z</time>
      </trkpt>
      <trkpt lat="45.34329" lon="5.87047">
        <ele>1767</ele>
        <time>2022-03-06T14:11:04Z</time>
      </trkpt>
      <trkpt lat="45.34329" lon="5.87045">
        <ele>1767</ele>
        <time>2022-03-06T14:11:06Z</time>
      </trkpt>
      <trkpt lat="45.34329" lon="5.87045">
        <ele>1767</ele>
        <time>2022-03-06T14:11:09Z</time>
      </trkpt>
      <trkpt lat="45.34329" lon="5.87042">
        <ele>1768</ele>
        <time>2022-03-06T14:11:10Z</time>
      </trkpt>
      <trkpt lat="45.34331" lon="5.87041">
        <ele>1769</ele>
        <time>2022-03-06T14:11:13Z</time>
      </trkpt>
      <trkpt lat="45.34331" lon="5.87041">
        <ele>1769</ele>
        <time>2022-03-06T14:11:15Z</time>
      </trkpt>
      <trkpt lat="45.34333" lon="5.87039">
        <ele>1769</ele>
        <time>2022-03-06T14:11:16Z</time>
      </trkpt>
      <trkpt lat="45.34335" lon="5.87037">
        <ele>1770</ele>
        <time>2022-03-06T14:11:19Z</time>
      </trkpt>
      <trkpt lat="45.34335" lon="5.87037">
        <ele>1770</ele>
        <time>2022-03-06T14:11:21Z</time>
      </trkpt>
      <trkpt lat="45.34336" lon="5.87035">
        <ele>1770</ele>
        <time>2022-03-06T14:11:22Z</time>
      </trkpt>
      <trkpt lat="45.34338" lon="5.87033">
        <ele>1771</ele>
        <time>2022-03-06T14:11:25Z</time>
      </trkpt>
      <trkpt lat="45.34338" lon="5.87033">
        <ele>1772</ele>
        <time>2022-03-06T14:11:27Z</time>
      </trkpt>
      <trkpt lat="45.3434" lon="5.87031">
        <ele>1772</ele>
        <time>2022-03-06T14:11:28Z</time>
      </trkpt>
      <trkpt lat="45.34341" lon="5.87029">
        <ele>1772</ele>
        <time>2022-03-06T14:11:31Z</time>
      </trkpt>
      <trkpt lat="45.34343" lon="5.87027">
        <ele>1772</ele>
        <time>2022-03-06T14:11:33Z</time>
      </trkpt>
      <trkpt lat="45.34344" lon="5.87024">
        <ele>1773</ele>
        <time>2022-03-06T14:11:36Z</time>
      </trkpt>
      <trkpt lat="45.34344" lon="5.87024">
        <ele>1773</ele>
        <time>2022-03-06T14:11:37Z</time>
      </trkpt>
      <trkpt lat="45.34346" lon="5.87023">
        <ele>1774</ele>
        <time>2022-03-06T14:11:39Z</time>
      </trkpt>
      <trkpt lat="45.34348" lon="5.87021">
        <ele>1775</ele>
        <time>2022-03-06T14:11:42Z</time>
      </trkpt>
      <trkpt lat="45.34348" lon="5.87021">
        <ele>1775</ele>
        <time>2022-03-06T14:11:43Z</time>
      </trkpt>
      <trkpt lat="45.3435" lon="5.87019">
        <ele>1775</ele>
        <time>2022-03-06T14:11:45Z</time>
      </trkpt>
      <trkpt lat="45.34351" lon="5.87017">
        <ele>1776</ele>
        <time>2022-03-06T14:11:48Z</time>
      </trkpt>
      <trkpt lat="45.34351" lon="5.87017">
        <ele>1776</ele>
        <time>2022-03-06T14:11:49Z</time>
      </trkpt>
      <trkpt lat="45.34353" lon="5.87016">
        <ele>1776</ele>
        <time>2022-03-06T14:11:51Z</time>
      </trkpt>
      <trkpt lat="45.34355" lon="5.87014">
        <ele>1777</ele>
        <time>2022-03-06T14:11:54Z</time>
      </trkpt>
      <trkpt lat="45.34355" lon="5.87014">
        <ele>1777</ele>
        <time>2022-03-06T14:11:55Z</time>
      </trkpt>
      <trkpt lat="45.34356" lon="5.87012">
        <ele>1777</ele>
        <time>2022-03-06T14:11:57Z</time>
      </trkpt>
      <trkpt lat="45.34358" lon="5.87011">
        <ele>1777</ele>
        <time>2022-03-06T14:12:00Z</time>
      </trkpt>
      <trkpt lat="45.34358" lon="5.87011">
        <ele>1777</ele>
        <time>2022-03-06T14:12:01Z</time>
      </trkpt>
      <trkpt lat="45.34359" lon="5.87008">
        <ele>1778</ele>
        <time>2022-03-06T14:12:03Z</time>
      </trkpt>
      <trkpt lat="45.3436" lon="5.87006">
        <ele>1778</ele>
        <time>2022-03-06T14:12:05Z</time>
      </trkpt>
      <trkpt lat="45.3436" lon="5.87006">
        <ele>1778</ele>
        <time>2022-03-06T14:12:07Z</time>
      </trkpt>
      <trkpt lat="45.34361" lon="5.87003">
        <ele>1778</ele>
        <time>2022-03-06T14:12:08Z</time>
      </trkpt>
      <trkpt lat="45.34362" lon="5.87">
        <ele>1778</ele>
        <time>2022-03-06T14:12:11Z</time>
      </trkpt>
      <trkpt lat="45.34362" lon="5.87">
        <ele>1779</ele>
        <time>2022-03-06T14:12:13Z</time>
      </trkpt>
      <trkpt lat="45.34363" lon="5.86997">
        <ele>1779</ele>
        <time>2022-03-06T14:12:14Z</time>
      </trkpt>
      <trkpt lat="45.34364" lon="5.86994">
        <ele>1779</ele>
        <time>2022-03-06T14:12:17Z</time>
      </trkpt>
      <trkpt lat="45.34364" lon="5.86994">
        <ele>1780</ele>
        <time>2022-03-06T14:12:19Z</time>
      </trkpt>
      <trkpt lat="45.34365" lon="5.86992">
        <ele>1780</ele>
        <time>2022-03-06T14:12:21Z</time>
      </trkpt>
      <trkpt lat="45.34365" lon="5.86992">
        <ele>1780</ele>
        <time>2022-03-06T14:12:24Z</time>
      </trkpt>
      <trkpt lat="45.34366" lon="5.86988">
        <ele>1780</ele>
        <time>2022-03-06T14:12:28Z</time>
      </trkpt>
      <trkpt lat="45.34366" lon="5.86988">
        <ele>1780</ele>
        <time>2022-03-06T14:12:29Z</time>
      </trkpt>
      <trkpt lat="45.34366" lon="5.86988">
        <ele>1780</ele>
        <time>2022-03-06T14:12:33Z</time>
      </trkpt>
      <trkpt lat="45.34365" lon="5.86986">
        <ele>1780</ele>
        <time>2022-03-06T14:12:34Z</time>
      </trkpt>
      <trkpt lat="45.34365" lon="5.86982">
        <ele>1780</ele>
        <time>2022-03-06T14:12:37Z</time>
      </trkpt>
      <trkpt lat="45.34364" lon="5.86979">
        <ele>1780</ele>
        <time>2022-03-06T14:12:39Z</time>
      </trkpt>
      <trkpt lat="45.34363" lon="5.86976">
        <ele>1780</ele>
        <time>2022-03-06T14:12:42Z</time>
      </trkpt>
      <trkpt lat="45.34363" lon="5.86976">
        <ele>1780</ele>
        <time>2022-03-06T14:12:43Z</time>
      </trkpt>
      <trkpt lat="45.34362" lon="5.86974">
        <ele>1781</ele>
        <time>2022-03-06T14:12:46Z</time>
      </trkpt>
      <trkpt lat="45.34362" lon="5.86974">
        <ele>1781</ele>
        <time>2022-03-06T14:12:48Z</time>
      </trkpt>
      <trkpt lat="45.34361" lon="5.86971">
        <ele>1781</ele>
        <time>2022-03-06T14:12:50Z</time>
      </trkpt>
      <trkpt lat="45.34361" lon="5.86971">
        <ele>1781</ele>
        <time>2022-03-06T14:12:53Z</time>
      </trkpt>
      <trkpt lat="45.34361" lon="5.86971">
        <ele>1781</ele>
        <time>2022-03-06T14:12:57Z</time>
      </trkpt>
      <trkpt lat="45.34361" lon="5.86971">
        <ele>1781</ele>
        <time>2022-03-06T14:13:01Z</time>
      </trkpt>
      <trkpt lat="45.34361" lon="5.86971">
        <ele>1781</ele>
        <time>2022-03-06T14:13:05Z</time>
      </trkpt>
      <trkpt lat="45.34361" lon="5.86971">
        <ele>1781</ele>
        <time>2022-03-06T14:13:09Z</time>
      </trkpt>
      <trkpt lat="45.34361" lon="5.86971">
        <ele>1781</ele>
        <time>2022-03-06T14:13:13Z</time>
      </trkpt>
      <trkpt lat="45.34361" lon="5.86971">
        <ele>1781</ele>
        <time>2022-03-06T14:13:17Z</time>
      </trkpt>
      <trkpt lat="45.34361" lon="5.86971">
        <ele>1780</ele>
        <time>2022-03-06T14:13:21Z</time>
      </trkpt>
      <trkpt lat="45.34361" lon="5.86971">
        <ele>1781</ele>
        <time>2022-03-06T14:13:25Z</time>
      </trkpt>
      <trkpt lat="45.34361" lon="5.86971">
        <ele>1781</ele>
        <time>2022-03-06T14:13:29Z</time>
      </trkpt>
      <trkpt lat="45.34361" lon="5.86971">
        <ele>1781</ele>
        <time>2022-03-06T14:13:33Z</time>
      </trkpt>
      <trkpt lat="45.34361" lon="5.86971">
        <ele>1781</ele>
        <time>2022-03-06T14:13:37Z</time>
      </trkpt>
      <trkpt lat="45.34361" lon="5.86971">
        <ele>1781</ele>
        <time>2022-03-06T14:13:41Z</time>
      </trkpt>
      <trkpt lat="45.34361" lon="5.86971">
        <ele>1781</ele>
        <time>2022-03-06T14:13:45Z</time>
      </trkpt>
      <trkpt lat="45.34361" lon="5.86971">
        <ele>1781</ele>
        <time>2022-03-06T14:13:49Z</time>
      </trkpt>
      <trkpt lat="45.34361" lon="5.86971">
        <ele>1782</ele>
        <time>2022-03-06T14:13:53Z</time>
      </trkpt>
      <trkpt lat="45.34361" lon="5.86971">
        <ele>1782</ele>
        <time>2022-03-06T14:13:57Z</time>
      </trkpt>
      <trkpt lat="45.34361" lon="5.86971">
        <ele>1781</ele>
        <time>2022-03-06T14:14:01Z</time>
      </trkpt>
      <trkpt lat="45.34361" lon="5.86971">
        <ele>1781</ele>
        <time>2022-03-06T14:14:05Z</time>
      </trkpt>
      <trkpt lat="45.3436" lon="5.86969">
        <ele>1781</ele>
        <time>2022-03-06T14:14:09Z</time>
      </trkpt>
      <trkpt lat="45.3436" lon="5.86969">
        <ele>1780</ele>
        <time>2022-03-06T14:14:10Z</time>
      </trkpt>
      <trkpt lat="45.3436" lon="5.86969">
        <ele>1780</ele>
        <time>2022-03-06T14:14:14Z</time>
      </trkpt>
      <trkpt lat="45.3436" lon="5.86969">
        <ele>1780</ele>
        <time>2022-03-06T14:14:18Z</time>
      </trkpt>
      <trkpt lat="45.3436" lon="5.86969">
        <ele>1781</ele>
        <time>2022-03-06T14:14:22Z</time>
      </trkpt>
      <trkpt lat="45.3436" lon="5.86969">
        <ele>1781</ele>
        <time>2022-03-06T14:14:26Z</time>
      </trkpt>
      <trkpt lat="45.3436" lon="5.86969">
        <ele>1781</ele>
        <time>2022-03-06T14:14:30Z</time>
      </trkpt>
      <trkpt lat="45.3436" lon="5.86969">
        <ele>1781</ele>
        <time>2022-03-06T14:14:34Z</time>
      </trkpt>
      <trkpt lat="45.3436" lon="5.86969">
        <ele>1781</ele>
        <time>2022-03-06T14:14:38Z</time>
      </trkpt>
      <trkpt lat="45.3436" lon="5.86969">
        <ele>1780</ele>
        <time>2022-03-06T14:14:42Z</time>
      </trkpt>
      <trkpt lat="45.3436" lon="5.86969">
        <ele>1780</ele>
        <time>2022-03-06T14:14:46Z</time>
      </trkpt>
      <trkpt lat="45.3436" lon="5.86969">
        <ele>1780</ele>
        <time>2022-03-06T14:14:50Z</time>
      </trkpt>
      <trkpt lat="45.3436" lon="5.86969">
        <ele>1780</ele>
        <time>2022-03-06T14:14:54Z</time>
      </trkpt>
      <trkpt lat="45.3436" lon="5.86969">
        <ele>1780</ele>
        <time>2022-03-06T14:14:58Z</time>
      </trkpt>
      <trkpt lat="45.3436" lon="5.86969">
        <ele>1780</ele>
        <time>2022-03-06T14:15:02Z</time>
      </trkpt>
      <trkpt lat="45.3436" lon="5.86969">
        <ele>1780</ele>
        <time>2022-03-06T14:15:06Z</time>
      </trkpt>
      <trkpt lat="45.3436" lon="5.86969">
        <ele>1780</ele>
        <time>2022-03-06T14:15:10Z</time>
      </trkpt>
      <trkpt lat="45.3436" lon="5.86969">
        <ele>1780</ele>
        <time>2022-03-06T14:15:14Z</time>
      </trkpt>
      <trkpt lat="45.3436" lon="5.86969">
        <ele>1780</ele>
        <time>2022-03-06T14:15:18Z</time>
      </trkpt>
      <trkpt lat="45.3436" lon="5.86969">
        <ele>1780</ele>
        <time>2022-03-06T14:15:22Z</time>
      </trkpt>
      <trkpt lat="45.3436" lon="5.86969">
        <ele>1780</ele>
        <time>2022-03-06T14:15:26Z</time>
      </trkpt>
      <trkpt lat="45.3436" lon="5.86969">
        <ele>1780</ele>
        <time>2022-03-06T14:15:30Z</time>
      </trkpt>
      <trkpt lat="45.3436" lon="5.86969">
        <ele>1780</ele>
        <time>2022-03-06T14:15:34Z</time>
      </trkpt>
      <trkpt lat="45.3436" lon="5.86969">
        <ele>1780</ele>
        <time>2022-03-06T14:15:38Z</time>
      </trkpt>
      <trkpt lat="45.3436" lon="5.86969">
        <ele>1780</ele>
        <time>2022-03-06T14:15:42Z</time>
      </trkpt>
      <trkpt lat="45.3436" lon="5.86969">
        <ele>1781</ele>
        <time>2022-03-06T14:15:46Z</time>
      </trkpt>
      <trkpt lat="45.3436" lon="5.86969">
        <ele>1781</ele>
        <time>2022-03-06T14:15:50Z</time>
      </trkpt>
      <trkpt lat="45.3436" lon="5.86969">
        <ele>1781</ele>
        <time>2022-03-06T14:15:54Z</time>
      </trkpt>
      <trkpt lat="45.3436" lon="5.86969">
        <ele>1781</ele>
        <time>2022-03-06T14:15:58Z</time>
      </trkpt>
      <trkpt lat="45.3436" lon="5.86969">
        <ele>1781</ele>
        <time>2022-03-06T14:16:02Z</time>
      </trkpt>
      <trkpt lat="45.3436" lon="5.86969">
        <ele>1780</ele>
        <time>2022-03-06T14:16:06Z</time>
      </trkpt>
      <trkpt lat="45.3436" lon="5.86969">
        <ele>1779</ele>
        <time>2022-03-06T14:16:10Z</time>
      </trkpt>
      <trkpt lat="45.3436" lon="5.86969">
        <ele>1780</ele>
        <time>2022-03-06T14:16:14Z</time>
      </trkpt>
      <trkpt lat="45.3436" lon="5.86969">
        <ele>1781</ele>
        <time>2022-03-06T14:16:18Z</time>
      </trkpt>
      <trkpt lat="45.3436" lon="5.86969">
        <ele>1779</ele>
        <time>2022-03-06T14:16:22Z</time>
      </trkpt>
      <trkpt lat="45.3436" lon="5.86969">
        <ele>1779</ele>
        <time>2022-03-06T14:16:26Z</time>
      </trkpt>
      <trkpt lat="45.3436" lon="5.86969">
        <ele>1780</ele>
        <time>2022-03-06T14:16:30Z</time>
      </trkpt>
      <trkpt lat="45.3436" lon="5.86969">
        <ele>1780</ele>
        <time>2022-03-06T14:16:34Z</time>
      </trkpt>
      <trkpt lat="45.3436" lon="5.86969">
        <ele>1780</ele>
        <time>2022-03-06T14:16:38Z</time>
      </trkpt>
      <trkpt lat="45.3436" lon="5.86969">
        <ele>1779</ele>
        <time>2022-03-06T14:16:42Z</time>
      </trkpt>
      <trkpt lat="45.3436" lon="5.86969">
        <ele>1779</ele>
        <time>2022-03-06T14:16:46Z</time>
      </trkpt>
      <trkpt lat="45.3436" lon="5.86969">
        <ele>1779</ele>
        <time>2022-03-06T14:16:50Z</time>
      </trkpt>
      <trkpt lat="45.3436" lon="5.86969">
        <ele>1779</ele>
        <time>2022-03-06T14:16:54Z</time>
      </trkpt>
      <trkpt lat="45.3436" lon="5.86969">
        <ele>1779</ele>
        <time>2022-03-06T14:16:58Z</time>
      </trkpt>
      <trkpt lat="45.3436" lon="5.86969">
        <ele>1778</ele>
        <time>2022-03-06T14:17:02Z</time>
      </trkpt>
      <trkpt lat="45.3436" lon="5.86969">
        <ele>1779</ele>
        <time>2022-03-06T14:17:06Z</time>
      </trkpt>
      <trkpt lat="45.3436" lon="5.86969">
        <ele>1779</ele>
        <time>2022-03-06T14:17:10Z</time>
      </trkpt>
      <trkpt lat="45.3436" lon="5.86969">
        <ele>1779</ele>
        <time>2022-03-06T14:17:14Z</time>
      </trkpt>
      <trkpt lat="45.3436" lon="5.86969">
        <ele>1780</ele>
        <time>2022-03-06T14:17:18Z</time>
      </trkpt>
      <trkpt lat="45.3436" lon="5.86969">
        <ele>1780</ele>
        <time>2022-03-06T14:17:22Z</time>
      </trkpt>
      <trkpt lat="45.3436" lon="5.86969">
        <ele>1780</ele>
        <time>2022-03-06T14:17:26Z</time>
      </trkpt>
      <trkpt lat="45.3436" lon="5.86969">
        <ele>1780</ele>
        <time>2022-03-06T14:17:30Z</time>
      </trkpt>
      <trkpt lat="45.3436" lon="5.86969">
        <ele>1781</ele>
        <time>2022-03-06T14:17:34Z</time>
      </trkpt>
      <trkpt lat="45.3436" lon="5.86969">
        <ele>1778</ele>
        <time>2022-03-06T14:17:38Z</time>
      </trkpt>
      <trkpt lat="45.3436" lon="5.86969">
        <ele>1781</ele>
        <time>2022-03-06T14:17:42Z</time>
      </trkpt>
      <trkpt lat="45.3436" lon="5.86966">
        <ele>1781</ele>
        <time>2022-03-06T14:17:43Z</time>
      </trkpt>
      <trkpt lat="45.34361" lon="5.86962">
        <ele>1780</ele>
        <time>2022-03-06T14:17:45Z</time>
      </trkpt>
      <trkpt lat="45.34362" lon="5.86959">
        <ele>1778</ele>
        <time>2022-03-06T14:17:47Z</time>
      </trkpt>
      <trkpt lat="45.34364" lon="5.86956">
        <ele>1779</ele>
        <time>2022-03-06T14:17:49Z</time>
      </trkpt>
      <trkpt lat="45.34365" lon="5.86953">
        <ele>1779</ele>
        <time>2022-03-06T14:17:51Z</time>
      </trkpt>
      <trkpt lat="45.34366" lon="5.8695">
        <ele>1778</ele>
        <time>2022-03-06T14:17:52Z</time>
      </trkpt>
      <trkpt lat="45.34367" lon="5.86947">
        <ele>1778</ele>
        <time>2022-03-06T14:17:53Z</time>
      </trkpt>
      <trkpt lat="45.34369" lon="5.86944">
        <ele>1779</ele>
        <time>2022-03-06T14:17:54Z</time>
      </trkpt>
      <trkpt lat="45.34371" lon="5.8694">
        <ele>1779</ele>
        <time>2022-03-06T14:17:55Z</time>
      </trkpt>
      <trkpt lat="45.34373" lon="5.86937">
        <ele>1778</ele>
        <time>2022-03-06T14:17:56Z</time>
      </trkpt>
      <trkpt lat="45.34375" lon="5.86935">
        <ele>1778</ele>
        <time>2022-03-06T14:17:57Z</time>
      </trkpt>
      <trkpt lat="45.34377" lon="5.86932">
        <ele>1777</ele>
        <time>2022-03-06T14:17:58Z</time>
      </trkpt>
      <trkpt lat="45.34379" lon="5.8693">
        <ele>1777</ele>
        <time>2022-03-06T14:17:59Z</time>
      </trkpt>
      <trkpt lat="45.34381" lon="5.86927">
        <ele>1777</ele>
        <time>2022-03-06T14:18:00Z</time>
      </trkpt>
      <trkpt lat="45.34382" lon="5.86926">
        <ele>1777</ele>
        <time>2022-03-06T14:18:01Z</time>
      </trkpt>
      <trkpt lat="45.34382" lon="5.86926">
        <ele>1777</ele>
        <time>2022-03-06T14:18:05Z</time>
      </trkpt>
      <trkpt lat="45.34382" lon="5.86926">
        <ele>1777</ele>
        <time>2022-03-06T14:18:09Z</time>
      </trkpt>
      <trkpt lat="45.34382" lon="5.86926">
        <ele>1777</ele>
        <time>2022-03-06T14:18:13Z</time>
      </trkpt>
      <trkpt lat="45.34382" lon="5.86926">
        <ele>1777</ele>
        <time>2022-03-06T14:18:17Z</time>
      </trkpt>
      <trkpt lat="45.34382" lon="5.86926">
        <ele>1777</ele>
        <time>2022-03-06T14:18:21Z</time>
      </trkpt>
      <trkpt lat="45.34382" lon="5.86926">
        <ele>1776</ele>
        <time>2022-03-06T14:18:25Z</time>
      </trkpt>
      <trkpt lat="45.34382" lon="5.86926">
        <ele>1776</ele>
        <time>2022-03-06T14:18:29Z</time>
      </trkpt>
      <trkpt lat="45.34382" lon="5.86926">
        <ele>1777</ele>
        <time>2022-03-06T14:18:33Z</time>
      </trkpt>
      <trkpt lat="45.34385" lon="5.86923">
        <ele>1777</ele>
        <time>2022-03-06T14:18:34Z</time>
      </trkpt>
      <trkpt lat="45.34386" lon="5.8692">
        <ele>1776</ele>
        <time>2022-03-06T14:18:36Z</time>
      </trkpt>
      <trkpt lat="45.34386" lon="5.8692">
        <ele>1776</ele>
        <time>2022-03-06T14:18:39Z</time>
      </trkpt>
      <trkpt lat="45.34386" lon="5.8692">
        <ele>1776</ele>
        <time>2022-03-06T14:18:43Z</time>
      </trkpt>
      <trkpt lat="45.34386" lon="5.8692">
        <ele>1775</ele>
        <time>2022-03-06T14:18:47Z</time>
      </trkpt>
      <trkpt lat="45.34386" lon="5.8692">
        <ele>1775</ele>
        <time>2022-03-06T14:18:51Z</time>
      </trkpt>
      <trkpt lat="45.34386" lon="5.8692">
        <ele>1775</ele>
        <time>2022-03-06T14:18:55Z</time>
      </trkpt>
      <trkpt lat="45.34386" lon="5.8692">
        <ele>1774</ele>
        <time>2022-03-06T14:18:59Z</time>
      </trkpt>
      <trkpt lat="45.34386" lon="5.8692">
        <ele>1775</ele>
        <time>2022-03-06T14:19:03Z</time>
      </trkpt>
      <trkpt lat="45.34386" lon="5.8692">
        <ele>1776</ele>
        <time>2022-03-06T14:19:07Z</time>
      </trkpt>
      <trkpt lat="45.34386" lon="5.8692">
        <ele>1776</ele>
        <time>2022-03-06T14:19:11Z</time>
      </trkpt>
      <trkpt lat="45.34386" lon="5.8692">
        <ele>1776</ele>
        <time>2022-03-06T14:19:15Z</time>
      </trkpt>
      <trkpt lat="45.34386" lon="5.8692">
        <ele>1775</ele>
        <time>2022-03-06T14:19:19Z</time>
      </trkpt>
      <trkpt lat="45.34386" lon="5.8692">
        <ele>1776</ele>
        <time>2022-03-06T14:19:23Z</time>
      </trkpt>
      <trkpt lat="45.34386" lon="5.8692">
        <ele>1775</ele>
        <time>2022-03-06T14:19:27Z</time>
      </trkpt>
      <trkpt lat="45.34388" lon="5.86917">
        <ele>1774</ele>
        <time>2022-03-06T14:19:28Z</time>
      </trkpt>
      <trkpt lat="45.34389" lon="5.86914">
        <ele>1773</ele>
        <time>2022-03-06T14:19:29Z</time>
      </trkpt>
      <trkpt lat="45.34389" lon="5.86911">
        <ele>1773</ele>
        <time>2022-03-06T14:19:30Z</time>
      </trkpt>
      <trkpt lat="45.34388" lon="5.86907">
        <ele>1773</ele>
        <time>2022-03-06T14:19:31Z</time>
      </trkpt>
      <trkpt lat="45.34384" lon="5.86905">
        <ele>1772</ele>
        <time>2022-03-06T14:19:32Z</time>
      </trkpt>
      <trkpt lat="45.34381" lon="5.86902">
        <ele>1771</ele>
        <time>2022-03-06T14:19:33Z</time>
      </trkpt>
      <trkpt lat="45.3438" lon="5.86897">
        <ele>1769</ele>
        <time>2022-03-06T14:19:34Z</time>
      </trkpt>
      <trkpt lat="45.34381" lon="5.86891">
        <ele>1767</ele>
        <time>2022-03-06T14:19:35Z</time>
      </trkpt>
      <trkpt lat="45.34382" lon="5.86886">
        <ele>1764</ele>
        <time>2022-03-06T14:19:36Z</time>
      </trkpt>
      <trkpt lat="45.34381" lon="5.86882">
        <ele>1763</ele>
        <time>2022-03-06T14:19:37Z</time>
      </trkpt>
      <trkpt lat="45.34376" lon="5.86878">
        <ele>1761</ele>
        <time>2022-03-06T14:19:38Z</time>
      </trkpt>
      <trkpt lat="45.34374" lon="5.86872">
        <ele>1758</ele>
        <time>2022-03-06T14:19:39Z</time>
      </trkpt>
      <trkpt lat="45.34374" lon="5.86866">
        <ele>1756</ele>
        <time>2022-03-06T14:19:40Z</time>
      </trkpt>
      <trkpt lat="45.34372" lon="5.8686">
        <ele>1755</ele>
        <time>2022-03-06T14:19:41Z</time>
      </trkpt>
      <trkpt lat="45.34369" lon="5.86854">
        <ele>1753</ele>
        <time>2022-03-06T14:19:42Z</time>
      </trkpt>
      <trkpt lat="45.34368" lon="5.86848">
        <ele>1750</ele>
        <time>2022-03-06T14:19:43Z</time>
      </trkpt>
      <trkpt lat="45.34366" lon="5.86843">
        <ele>1748</ele>
        <time>2022-03-06T14:19:44Z</time>
      </trkpt>
      <trkpt lat="45.34361" lon="5.8684">
        <ele>1746</ele>
        <time>2022-03-06T14:19:45Z</time>
      </trkpt>
      <trkpt lat="45.34359" lon="5.86835">
        <ele>1745</ele>
        <time>2022-03-06T14:19:46Z</time>
      </trkpt>
      <trkpt lat="45.3436" lon="5.86827">
        <ele>1742</ele>
        <time>2022-03-06T14:19:47Z</time>
      </trkpt>
      <trkpt lat="45.34363" lon="5.8682">
        <ele>1739</ele>
        <time>2022-03-06T14:19:48Z</time>
      </trkpt>
      <trkpt lat="45.34362" lon="5.86813">
        <ele>1736</ele>
        <time>2022-03-06T14:19:49Z</time>
      </trkpt>
      <trkpt lat="45.34358" lon="5.86807">
        <ele>1733</ele>
        <time>2022-03-06T14:19:50Z</time>
      </trkpt>
      <trkpt lat="45.34356" lon="5.86801">
        <ele>1730</ele>
        <time>2022-03-06T14:19:51Z</time>
      </trkpt>
      <trkpt lat="45.34356" lon="5.86794">
        <ele>1728</ele>
        <time>2022-03-06T14:19:52Z</time>
      </trkpt>
      <trkpt lat="45.34351" lon="5.86777">
        <ele>1725</ele>
        <time>2022-03-06T14:19:54Z</time>
      </trkpt>
      <trkpt lat="45.34351" lon="5.86773">
        <ele>1721</ele>
        <time>2022-03-06T14:19:55Z</time>
      </trkpt>
      <trkpt lat="45.34353" lon="5.86765">
        <ele>1718</ele>
        <time>2022-03-06T14:19:56Z</time>
      </trkpt>
      <trkpt lat="45.3435" lon="5.86747">
        <ele>1711</ele>
        <time>2022-03-06T14:19:59Z</time>
      </trkpt>
      <trkpt lat="45.34351" lon="5.86744">
        <ele>1706</ele>
        <time>2022-03-06T14:20:00Z</time>
      </trkpt>
      <trkpt lat="45.34352" lon="5.86737">
        <ele>1704</ele>
        <time>2022-03-06T14:20:01Z</time>
      </trkpt>
      <trkpt lat="45.34368" lon="5.86726">
        <ele>1699</ele>
        <time>2022-03-06T14:20:03Z</time>
      </trkpt>
      <trkpt lat="45.34371" lon="5.86725">
        <ele>1697</ele>
        <time>2022-03-06T14:20:04Z</time>
      </trkpt>
      <trkpt lat="45.34376" lon="5.86722">
        <ele>1696</ele>
        <time>2022-03-06T14:20:05Z</time>
      </trkpt>
      <trkpt lat="45.34375" lon="5.86719">
        <ele>1695</ele>
        <time>2022-03-06T14:20:07Z</time>
      </trkpt>
      <trkpt lat="45.34373" lon="5.86716">
        <ele>1694</ele>
        <time>2022-03-06T14:20:08Z</time>
      </trkpt>
      <trkpt lat="45.34372" lon="5.86712">
        <ele>1692</ele>
        <time>2022-03-06T14:20:09Z</time>
      </trkpt>
      <trkpt lat="45.34371" lon="5.86709">
        <ele>1689</ele>
        <time>2022-03-06T14:20:10Z</time>
      </trkpt>
      <trkpt lat="45.34378" lon="5.86699">
        <ele>1686</ele>
        <time>2022-03-06T14:20:11Z</time>
      </trkpt>
      <trkpt lat="45.34377" lon="5.86692">
        <ele>1683</ele>
        <time>2022-03-06T14:20:13Z</time>
      </trkpt>
      <trkpt lat="45.34377" lon="5.86685">
        <ele>1681</ele>
        <time>2022-03-06T14:20:14Z</time>
      </trkpt>
      <trkpt lat="45.34377" lon="5.86678">
        <ele>1680</ele>
        <time>2022-03-06T14:20:15Z</time>
      </trkpt>
      <trkpt lat="45.34376" lon="5.86672">
        <ele>1678</ele>
        <time>2022-03-06T14:20:16Z</time>
      </trkpt>
      <trkpt lat="45.34381" lon="5.86659">
        <ele>1676</ele>
        <time>2022-03-06T14:20:17Z</time>
      </trkpt>
      <trkpt lat="45.34383" lon="5.86656">
        <ele>1675</ele>
        <time>2022-03-06T14:20:18Z</time>
      </trkpt>
      <trkpt lat="45.34389" lon="5.86648">
        <ele>1672</ele>
        <time>2022-03-06T14:20:19Z</time>
      </trkpt>
      <trkpt lat="45.34391" lon="5.86646">
        <ele>1670</ele>
        <time>2022-03-06T14:20:20Z</time>
      </trkpt>
      <trkpt lat="45.34396" lon="5.86643">
        <ele>1669</ele>
        <time>2022-03-06T14:20:21Z</time>
      </trkpt>
      <trkpt lat="45.34398" lon="5.8664">
        <ele>1667</ele>
        <time>2022-03-06T14:20:23Z</time>
      </trkpt>
      <trkpt lat="45.34401" lon="5.86637">
        <ele>1666</ele>
        <time>2022-03-06T14:20:24Z</time>
      </trkpt>
      <trkpt lat="45.34404" lon="5.86634">
        <ele>1665</ele>
        <time>2022-03-06T14:20:25Z</time>
      </trkpt>
      <trkpt lat="45.34408" lon="5.86631">
        <ele>1664</ele>
        <time>2022-03-06T14:20:26Z</time>
      </trkpt>
      <trkpt lat="45.34411" lon="5.86627">
        <ele>1663</ele>
        <time>2022-03-06T14:20:27Z</time>
      </trkpt>
      <trkpt lat="45.34414" lon="5.86624">
        <ele>1662</ele>
        <time>2022-03-06T14:20:28Z</time>
      </trkpt>
      <trkpt lat="45.34415" lon="5.86623">
        <ele>1661</ele>
        <time>2022-03-06T14:20:29Z</time>
      </trkpt>
      <trkpt lat="45.34417" lon="5.8662">
        <ele>1661</ele>
        <time>2022-03-06T14:20:30Z</time>
      </trkpt>
      <trkpt lat="45.34419" lon="5.86617">
        <ele>1660</ele>
        <time>2022-03-06T14:20:31Z</time>
      </trkpt>
      <trkpt lat="45.34421" lon="5.86614">
        <ele>1659</ele>
        <time>2022-03-06T14:20:32Z</time>
      </trkpt>
      <trkpt lat="45.34423" lon="5.86611">
        <ele>1658</ele>
        <time>2022-03-06T14:20:33Z</time>
      </trkpt>
      <trkpt lat="45.34425" lon="5.86609">
        <ele>1657</ele>
        <time>2022-03-06T14:20:34Z</time>
      </trkpt>
      <trkpt lat="45.34428" lon="5.86607">
        <ele>1656</ele>
        <time>2022-03-06T14:20:35Z</time>
      </trkpt>
      <trkpt lat="45.34431" lon="5.86605">
        <ele>1656</ele>
        <time>2022-03-06T14:20:36Z</time>
      </trkpt>
      <trkpt lat="45.34434" lon="5.86603">
        <ele>1655</ele>
        <time>2022-03-06T14:20:37Z</time>
      </trkpt>
      <trkpt lat="45.34437" lon="5.86602">
        <ele>1655</ele>
        <time>2022-03-06T14:20:38Z</time>
      </trkpt>
      <trkpt lat="45.34441" lon="5.86602">
        <ele>1654</ele>
        <time>2022-03-06T14:20:39Z</time>
      </trkpt>
      <trkpt lat="45.34444" lon="5.86602">
        <ele>1653</ele>
        <time>2022-03-06T14:20:40Z</time>
      </trkpt>
      <trkpt lat="45.34445" lon="5.86602">
        <ele>1653</ele>
        <time>2022-03-06T14:20:41Z</time>
      </trkpt>
      <trkpt lat="45.34448" lon="5.86604">
        <ele>1653</ele>
        <time>2022-03-06T14:20:43Z</time>
      </trkpt>
      <trkpt lat="45.3445" lon="5.86605">
        <ele>1652</ele>
        <time>2022-03-06T14:20:45Z</time>
      </trkpt>
      <trkpt lat="45.3445" lon="5.86605">
        <ele>1652</ele>
        <time>2022-03-06T14:20:47Z</time>
      </trkpt>
      <trkpt lat="45.3445" lon="5.86605">
        <ele>1652</ele>
        <time>2022-03-06T14:20:51Z</time>
      </trkpt>
      <trkpt lat="45.3445" lon="5.86605">
        <ele>1653</ele>
        <time>2022-03-06T14:20:55Z</time>
      </trkpt>
      <trkpt lat="45.34452" lon="5.86608">
        <ele>1653</ele>
        <time>2022-03-06T14:20:58Z</time>
      </trkpt>
      <trkpt lat="45.34452" lon="5.86608">
        <ele>1653</ele>
        <time>2022-03-06T14:21:00Z</time>
      </trkpt>
      <trkpt lat="45.34449" lon="5.86606">
        <ele>1653</ele>
        <time>2022-03-06T14:21:02Z</time>
      </trkpt>
      <trkpt lat="45.34446" lon="5.86606">
        <ele>1652</ele>
        <time>2022-03-06T14:21:03Z</time>
      </trkpt>
      <trkpt lat="45.34442" lon="5.86606">
        <ele>1652</ele>
        <time>2022-03-06T14:21:04Z</time>
      </trkpt>
      <trkpt lat="45.34439" lon="5.86603">
        <ele>1652</ele>
        <time>2022-03-06T14:21:05Z</time>
      </trkpt>
      <trkpt lat="45.34438" lon="5.86598">
        <ele>1650</ele>
        <time>2022-03-06T14:21:06Z</time>
      </trkpt>
      <trkpt lat="45.34435" lon="5.86592">
        <ele>1649</ele>
        <time>2022-03-06T14:21:07Z</time>
      </trkpt>
      <trkpt lat="45.3443" lon="5.86588">
        <ele>1646</ele>
        <time>2022-03-06T14:21:08Z</time>
      </trkpt>
      <trkpt lat="45.34427" lon="5.86583">
        <ele>1644</ele>
        <time>2022-03-06T14:21:09Z</time>
      </trkpt>
      <trkpt lat="45.34427" lon="5.86576">
        <ele>1641</ele>
        <time>2022-03-06T14:21:10Z</time>
      </trkpt>
      <trkpt lat="45.34426" lon="5.86569">
        <ele>1639</ele>
        <time>2022-03-06T14:21:11Z</time>
      </trkpt>
      <trkpt lat="45.34423" lon="5.86564">
        <ele>1637</ele>
        <time>2022-03-06T14:21:12Z</time>
      </trkpt>
      <trkpt lat="45.3442" lon="5.8656">
        <ele>1632</ele>
        <time>2022-03-06T14:21:14Z</time>
      </trkpt>
      <trkpt lat="45.34418" lon="5.86555">
        <ele>1630</ele>
        <time>2022-03-06T14:21:15Z</time>
      </trkpt>
      <trkpt lat="45.34415" lon="5.86551">
        <ele>1629</ele>
        <time>2022-03-06T14:21:16Z</time>
      </trkpt>
      <trkpt lat="45.34416" lon="5.86545">
        <ele>1627</ele>
        <time>2022-03-06T14:21:17Z</time>
      </trkpt>
      <trkpt lat="45.34412" lon="5.86543">
        <ele>1624</ele>
        <time>2022-03-06T14:21:19Z</time>
      </trkpt>
      <trkpt lat="45.34409" lon="5.86541">
        <ele>1623</ele>
        <time>2022-03-06T14:21:20Z</time>
      </trkpt>
      <trkpt lat="45.34405" lon="5.86539">
        <ele>1622</ele>
        <time>2022-03-06T14:21:21Z</time>
      </trkpt>
      <trkpt lat="45.34401" lon="5.86539">
        <ele>1620</ele>
        <time>2022-03-06T14:21:22Z</time>
      </trkpt>
      <trkpt lat="45.34397" lon="5.86538">
        <ele>1619</ele>
        <time>2022-03-06T14:21:23Z</time>
      </trkpt>
      <trkpt lat="45.34393" lon="5.86538">
        <ele>1617</ele>
        <time>2022-03-06T14:21:24Z</time>
      </trkpt>
      <trkpt lat="45.34393" lon="5.86533">
        <ele>1615</ele>
        <time>2022-03-06T14:21:25Z</time>
      </trkpt>
      <trkpt lat="45.34393" lon="5.86528">
        <ele>1614</ele>
        <time>2022-03-06T14:21:26Z</time>
      </trkpt>
      <trkpt lat="45.34393" lon="5.86523">
        <ele>1613</ele>
        <time>2022-03-06T14:21:27Z</time>
      </trkpt>
      <trkpt lat="45.34396" lon="5.8652">
        <ele>1612</ele>
        <time>2022-03-06T14:21:28Z</time>
      </trkpt>
      <trkpt lat="45.344" lon="5.86517">
        <ele>1611</ele>
        <time>2022-03-06T14:21:29Z</time>
      </trkpt>
      <trkpt lat="45.34403" lon="5.86514">
        <ele>1611</ele>
        <time>2022-03-06T14:21:30Z</time>
      </trkpt>
      <trkpt lat="45.34405" lon="5.86511">
        <ele>1610</ele>
        <time>2022-03-06T14:21:31Z</time>
      </trkpt>
      <trkpt lat="45.34408" lon="5.86509">
        <ele>1609</ele>
        <time>2022-03-06T14:21:32Z</time>
      </trkpt>
      <trkpt lat="45.34411" lon="5.86506">
        <ele>1609</ele>
        <time>2022-03-06T14:21:33Z</time>
      </trkpt>
      <trkpt lat="45.34414" lon="5.86503">
        <ele>1608</ele>
        <time>2022-03-06T14:21:34Z</time>
      </trkpt>
      <trkpt lat="45.34415" lon="5.865">
        <ele>1608</ele>
        <time>2022-03-06T14:21:35Z</time>
      </trkpt>
      <trkpt lat="45.34416" lon="5.86498">
        <ele>1607</ele>
        <time>2022-03-06T14:21:36Z</time>
      </trkpt>
      <trkpt lat="45.34416" lon="5.86499">
        <ele>1606</ele>
        <time>2022-03-06T14:21:39Z</time>
      </trkpt>
      <trkpt lat="45.34417" lon="5.86499">
        <ele>1606</ele>
        <time>2022-03-06T14:21:40Z</time>
      </trkpt>
      <trkpt lat="45.34417" lon="5.865">
        <ele>1606</ele>
        <time>2022-03-06T14:21:43Z</time>
      </trkpt>
      <trkpt lat="45.34417" lon="5.865">
        <ele>1605</ele>
        <time>2022-03-06T14:21:45Z</time>
      </trkpt>
      <trkpt lat="45.34418" lon="5.865">
        <ele>1605</ele>
        <time>2022-03-06T14:21:46Z</time>
      </trkpt>
      <trkpt lat="45.34418" lon="5.86501">
        <ele>1605</ele>
        <time>2022-03-06T14:21:47Z</time>
      </trkpt>
      <trkpt lat="45.34418" lon="5.86502">
        <ele>1605</ele>
        <time>2022-03-06T14:21:51Z</time>
      </trkpt>
      <trkpt lat="45.34418" lon="5.86502">
        <ele>1605</ele>
        <time>2022-03-06T14:21:52Z</time>
      </trkpt>
      <trkpt lat="45.34419" lon="5.86502">
        <ele>1605</ele>
        <time>2022-03-06T14:21:53Z</time>
      </trkpt>
      <trkpt lat="45.34419" lon="5.86503">
        <ele>1607</ele>
        <time>2022-03-06T14:21:55Z</time>
      </trkpt>
      <trkpt lat="45.34419" lon="5.86503">
        <ele>1607</ele>
        <time>2022-03-06T14:21:58Z</time>
      </trkpt>
      <trkpt lat="45.3442" lon="5.86504">
        <ele>1607</ele>
        <time>2022-03-06T14:22:00Z</time>
      </trkpt>
      <trkpt lat="45.3442" lon="5.86504">
        <ele>1607</ele>
        <time>2022-03-06T14:22:03Z</time>
      </trkpt>
      <trkpt lat="45.3442" lon="5.86505">
        <ele>1607</ele>
        <time>2022-03-06T14:22:04Z</time>
      </trkpt>
      <trkpt lat="45.3442" lon="5.86505">
        <ele>1606</ele>
        <time>2022-03-06T14:22:08Z</time>
      </trkpt>
      <trkpt lat="45.34421" lon="5.86505">
        <ele>1606</ele>
        <time>2022-03-06T14:22:09Z</time>
      </trkpt>
      <trkpt lat="45.34421" lon="5.86506">
        <ele>1606</ele>
        <time>2022-03-06T14:22:10Z</time>
      </trkpt>
      <trkpt lat="45.34421" lon="5.86506">
        <ele>1606</ele>
        <time>2022-03-06T14:22:14Z</time>
      </trkpt>
      <trkpt lat="45.34421" lon="5.86506">
        <ele>1606</ele>
        <time>2022-03-06T14:22:18Z</time>
      </trkpt>
      <trkpt lat="45.34421" lon="5.86507">
        <ele>1606</ele>
        <time>2022-03-06T14:22:19Z</time>
      </trkpt>
      <trkpt lat="45.34421" lon="5.86507">
        <ele>1606</ele>
        <time>2022-03-06T14:22:25Z</time>
      </trkpt>
      <trkpt lat="45.34422" lon="5.86508">
        <ele>1606</ele>
        <time>2022-03-06T14:22:29Z</time>
      </trkpt>
      <trkpt lat="45.34422" lon="5.86508">
        <ele>1606</ele>
        <time>2022-03-06T14:22:30Z</time>
      </trkpt>
      <trkpt lat="45.34422" lon="5.86508">
        <ele>1606</ele>
        <time>2022-03-06T14:22:34Z</time>
      </trkpt>
      <trkpt lat="45.34422" lon="5.86509">
        <ele>1606</ele>
        <time>2022-03-06T14:22:38Z</time>
      </trkpt>
      <trkpt lat="45.34422" lon="5.86509">
        <ele>1606</ele>
        <time>2022-03-06T14:22:39Z</time>
      </trkpt>
      <trkpt lat="45.34422" lon="5.86509">
        <ele>1606</ele>
        <time>2022-03-06T14:22:43Z</time>
      </trkpt>
      <trkpt lat="45.34423" lon="5.8651">
        <ele>1606</ele>
        <time>2022-03-06T14:22:46Z</time>
      </trkpt>
      <trkpt lat="45.34423" lon="5.8651">
        <ele>1606</ele>
        <time>2022-03-06T14:22:48Z</time>
      </trkpt>
      <trkpt lat="45.34423" lon="5.8651">
        <ele>1606</ele>
        <time>2022-03-06T14:22:52Z</time>
      </trkpt>
      <trkpt lat="45.34423" lon="5.86511">
        <ele>1606</ele>
        <time>2022-03-06T14:22:54Z</time>
      </trkpt>
      <trkpt lat="45.34423" lon="5.86511">
        <ele>1606</ele>
        <time>2022-03-06T14:22:57Z</time>
      </trkpt>
      <trkpt lat="45.34423" lon="5.86511">
        <ele>1606</ele>
        <time>2022-03-06T14:23:01Z</time>
      </trkpt>
      <trkpt lat="45.34423" lon="5.86512">
        <ele>1606</ele>
        <time>2022-03-06T14:23:03Z</time>
      </trkpt>
      <trkpt lat="45.34424" lon="5.86512">
        <ele>1606</ele>
        <time>2022-03-06T14:23:04Z</time>
      </trkpt>
      <trkpt lat="45.34424" lon="5.86512">
        <ele>1606</ele>
        <time>2022-03-06T14:23:08Z</time>
      </trkpt>
      <trkpt lat="45.34424" lon="5.86513">
        <ele>1606</ele>
        <time>2022-03-06T14:23:11Z</time>
      </trkpt>
      <trkpt lat="45.34424" lon="5.86513">
        <ele>1606</ele>
        <time>2022-03-06T14:23:13Z</time>
      </trkpt>
      <trkpt lat="45.34424" lon="5.86513">
        <ele>1606</ele>
        <time>2022-03-06T14:23:17Z</time>
      </trkpt>
      <trkpt lat="45.34424" lon="5.86514">
        <ele>1606</ele>
        <time>2022-03-06T14:23:20Z</time>
      </trkpt>
      <trkpt lat="45.34425" lon="5.86514">
        <ele>1606</ele>
        <time>2022-03-06T14:23:21Z</time>
      </trkpt>
      <trkpt lat="45.34425" lon="5.86514">
        <ele>1606</ele>
        <time>2022-03-06T14:23:25Z</time>
      </trkpt>
      <trkpt lat="45.34425" lon="5.86515">
        <ele>1606</ele>
        <time>2022-03-06T14:23:28Z</time>
      </trkpt>
      <trkpt lat="45.34425" lon="5.86515">
        <ele>1606</ele>
        <time>2022-03-06T14:23:30Z</time>
      </trkpt>
      <trkpt lat="45.34425" lon="5.86515">
        <ele>1606</ele>
        <time>2022-03-06T14:23:34Z</time>
      </trkpt>
      <trkpt lat="45.34425" lon="5.86516">
        <ele>1606</ele>
        <time>2022-03-06T14:23:36Z</time>
      </trkpt>
      <trkpt lat="45.34426" lon="5.86516">
        <ele>1606</ele>
        <time>2022-03-06T14:23:40Z</time>
      </trkpt>
      <trkpt lat="45.34426" lon="5.86516">
        <ele>1606</ele>
        <time>2022-03-06T14:23:41Z</time>
      </trkpt>
      <trkpt lat="45.34425" lon="5.86515">
        <ele>1606</ele>
        <time>2022-03-06T14:23:42Z</time>
      </trkpt>
      <trkpt lat="45.34425" lon="5.86514">
        <ele>1606</ele>
        <time>2022-03-06T14:23:43Z</time>
      </trkpt>
      <trkpt lat="45.34425" lon="5.86513">
        <ele>1606</ele>
        <time>2022-03-06T14:23:44Z</time>
      </trkpt>
      <trkpt lat="45.34425" lon="5.86512">
        <ele>1606</ele>
        <time>2022-03-06T14:23:45Z</time>
      </trkpt>
      <trkpt lat="45.34425" lon="5.8651">
        <ele>1606</ele>
        <time>2022-03-06T14:23:46Z</time>
      </trkpt>
      <trkpt lat="45.34424" lon="5.86509">
        <ele>1606</ele>
        <time>2022-03-06T14:23:47Z</time>
      </trkpt>
      <trkpt lat="45.34424" lon="5.86508">
        <ele>1606</ele>
        <time>2022-03-06T14:23:48Z</time>
      </trkpt>
      <trkpt lat="45.34424" lon="5.86507">
        <ele>1606</ele>
        <time>2022-03-06T14:23:49Z</time>
      </trkpt>
      <trkpt lat="45.34424" lon="5.86506">
        <ele>1606</ele>
        <time>2022-03-06T14:23:50Z</time>
      </trkpt>
      <trkpt lat="45.34424" lon="5.86505">
        <ele>1606</ele>
        <time>2022-03-06T14:23:51Z</time>
      </trkpt>
      <trkpt lat="45.34423" lon="5.86504">
        <ele>1605</ele>
        <time>2022-03-06T14:23:52Z</time>
      </trkpt>
      <trkpt lat="45.34423" lon="5.86503">
        <ele>1605</ele>
        <time>2022-03-06T14:23:53Z</time>
      </trkpt>
      <trkpt lat="45.34423" lon="5.86502">
        <ele>1604</ele>
        <time>2022-03-06T14:23:54Z</time>
      </trkpt>
      <trkpt lat="45.34423" lon="5.86497">
        <ele>1602</ele>
        <time>2022-03-06T14:23:56Z</time>
      </trkpt>
      <trkpt lat="45.34422" lon="5.86493">
        <ele>1602</ele>
        <time>2022-03-06T14:23:57Z</time>
      </trkpt>
      <trkpt lat="45.34422" lon="5.86489">
        <ele>1602</ele>
        <time>2022-03-06T14:23:58Z</time>
      </trkpt>
      <trkpt lat="45.34422" lon="5.86484">
        <ele>1599</ele>
        <time>2022-03-06T14:23:59Z</time>
      </trkpt>
      <trkpt lat="45.34419" lon="5.86482">
        <ele>1599</ele>
        <time>2022-03-06T14:24:00Z</time>
      </trkpt>
      <trkpt lat="45.34417" lon="5.86481">
        <ele>1595</ele>
        <time>2022-03-06T14:24:01Z</time>
      </trkpt>
      <trkpt lat="45.34414" lon="5.86481">
        <ele>1595</ele>
        <time>2022-03-06T14:24:02Z</time>
      </trkpt>
      <trkpt lat="45.34411" lon="5.8648">
        <ele>1593</ele>
        <time>2022-03-06T14:24:03Z</time>
      </trkpt>
      <trkpt lat="45.3441" lon="5.86477">
        <ele>1593</ele>
        <time>2022-03-06T14:24:04Z</time>
      </trkpt>
      <trkpt lat="45.34411" lon="5.86476">
        <ele>1590</ele>
        <time>2022-03-06T14:24:06Z</time>
      </trkpt>
      <trkpt lat="45.34411" lon="5.86474">
        <ele>1589</ele>
        <time>2022-03-06T14:24:07Z</time>
      </trkpt>
      <trkpt lat="45.34412" lon="5.86472">
        <ele>1588</ele>
        <time>2022-03-06T14:24:08Z</time>
      </trkpt>
      <trkpt lat="45.34413" lon="5.86471">
        <ele>1587</ele>
        <time>2022-03-06T14:24:09Z</time>
      </trkpt>
      <trkpt lat="45.34418" lon="5.86463">
        <ele>1586</ele>
        <time>2022-03-06T14:24:10Z</time>
      </trkpt>
      <trkpt lat="45.34419" lon="5.86462">
        <ele>1586</ele>
        <time>2022-03-06T14:24:11Z</time>
      </trkpt>
      <trkpt lat="45.34421" lon="5.8646">
        <ele>1586</ele>
        <time>2022-03-06T14:24:12Z</time>
      </trkpt>
      <trkpt lat="45.34423" lon="5.86459">
        <ele>1586</ele>
        <time>2022-03-06T14:24:13Z</time>
      </trkpt>
      <trkpt lat="45.34424" lon="5.86457">
        <ele>1586</ele>
        <time>2022-03-06T14:24:14Z</time>
      </trkpt>
      <trkpt lat="45.34428" lon="5.86455">
        <ele>1583</ele>
        <time>2022-03-06T14:24:15Z</time>
      </trkpt>
      <trkpt lat="45.34431" lon="5.86453">
        <ele>1582</ele>
        <time>2022-03-06T14:24:16Z</time>
      </trkpt>
      <trkpt lat="45.34435" lon="5.8645">
        <ele>1582</ele>
        <time>2022-03-06T14:24:17Z</time>
      </trkpt>
      <trkpt lat="45.34436" lon="5.8645">
        <ele>1581</ele>
        <time>2022-03-06T14:24:18Z</time>
      </trkpt>
      <trkpt lat="45.34437" lon="5.86449">
        <ele>1581</ele>
        <time>2022-03-06T14:24:19Z</time>
      </trkpt>
      <trkpt lat="45.34438" lon="5.86449">
        <ele>1581</ele>
        <time>2022-03-06T14:24:20Z</time>
      </trkpt>
      <trkpt lat="45.34439" lon="5.86449">
        <ele>1581</ele>
        <time>2022-03-06T14:24:21Z</time>
      </trkpt>
      <trkpt lat="45.3444" lon="5.86448">
        <ele>1581</ele>
        <time>2022-03-06T14:24:22Z</time>
      </trkpt>
      <trkpt lat="45.34446" lon="5.86445">
        <ele>1581</ele>
        <time>2022-03-06T14:24:23Z</time>
      </trkpt>
      <trkpt lat="45.34448" lon="5.86444">
        <ele>1580</ele>
        <time>2022-03-06T14:24:24Z</time>
      </trkpt>
      <trkpt lat="45.3445" lon="5.86443">
        <ele>1580</ele>
        <time>2022-03-06T14:24:25Z</time>
      </trkpt>
      <trkpt lat="45.34452" lon="5.86442">
        <ele>1579</ele>
        <time>2022-03-06T14:24:26Z</time>
      </trkpt>
      <trkpt lat="45.34454" lon="5.86441">
        <ele>1577</ele>
        <time>2022-03-06T14:24:27Z</time>
      </trkpt>
      <trkpt lat="45.34464" lon="5.86436">
        <ele>1577</ele>
        <time>2022-03-06T14:24:28Z</time>
      </trkpt>
      <trkpt lat="45.34468" lon="5.86435">
        <ele>1575</ele>
        <time>2022-03-06T14:24:30Z</time>
      </trkpt>
      <trkpt lat="45.34471" lon="5.86434">
        <ele>1575</ele>
        <time>2022-03-06T14:24:31Z</time>
      </trkpt>
      <trkpt lat="45.34475" lon="5.86434">
        <ele>1574</ele>
        <time>2022-03-06T14:24:32Z</time>
      </trkpt>
      <trkpt lat="45.34478" lon="5.86433">
        <ele>1572</ele>
        <time>2022-03-06T14:24:33Z</time>
      </trkpt>
      <trkpt lat="45.34481" lon="5.86432">
        <ele>1571</ele>
        <time>2022-03-06T14:24:34Z</time>
      </trkpt>
      <trkpt lat="45.34482" lon="5.86432">
        <ele>1571</ele>
        <time>2022-03-06T14:24:35Z</time>
      </trkpt>
      <trkpt lat="45.34484" lon="5.86432">
        <ele>1570</ele>
        <time>2022-03-06T14:24:36Z</time>
      </trkpt>
      <trkpt lat="45.34485" lon="5.86432">
        <ele>1570</ele>
        <time>2022-03-06T14:24:37Z</time>
      </trkpt>
      <trkpt lat="45.34486" lon="5.86432">
        <ele>1570</ele>
        <time>2022-03-06T14:24:38Z</time>
      </trkpt>
      <trkpt lat="45.34487" lon="5.86432">
        <ele>1570</ele>
        <time>2022-03-06T14:24:39Z</time>
      </trkpt>
      <trkpt lat="45.34489" lon="5.86432">
        <ele>1567</ele>
        <time>2022-03-06T14:24:40Z</time>
      </trkpt>
      <trkpt lat="45.3449" lon="5.86432">
        <ele>1567</ele>
        <time>2022-03-06T14:24:41Z</time>
      </trkpt>
      <trkpt lat="45.34491" lon="5.86432">
        <ele>1567</ele>
        <time>2022-03-06T14:24:42Z</time>
      </trkpt>
      <trkpt lat="45.34493" lon="5.86433">
        <ele>1567</ele>
        <time>2022-03-06T14:24:43Z</time>
      </trkpt>
      <trkpt lat="45.34494" lon="5.86435">
        <ele>1565</ele>
        <time>2022-03-06T14:24:44Z</time>
      </trkpt>
      <trkpt lat="45.34495" lon="5.86436">
        <ele>1565</ele>
        <time>2022-03-06T14:24:45Z</time>
      </trkpt>
      <trkpt lat="45.34496" lon="5.86438">
        <ele>1565</ele>
        <time>2022-03-06T14:24:46Z</time>
      </trkpt>
      <trkpt lat="45.34497" lon="5.8644">
        <ele>1562</ele>
        <time>2022-03-06T14:24:47Z</time>
      </trkpt>
      <trkpt lat="45.34499" lon="5.86441">
        <ele>1562</ele>
        <time>2022-03-06T14:24:48Z</time>
      </trkpt>
      <trkpt lat="45.345" lon="5.86443">
        <ele>1559</ele>
        <time>2022-03-06T14:24:49Z</time>
      </trkpt>
      <trkpt lat="45.34501" lon="5.86444">
        <ele>1559</ele>
        <time>2022-03-06T14:24:50Z</time>
      </trkpt>
      <trkpt lat="45.34502" lon="5.86445">
        <ele>1559</ele>
        <time>2022-03-06T14:24:51Z</time>
      </trkpt>
      <trkpt lat="45.34503" lon="5.86446">
        <ele>1556</ele>
        <time>2022-03-06T14:24:52Z</time>
      </trkpt>
      <trkpt lat="45.3451" lon="5.86454">
        <ele>1556</ele>
        <time>2022-03-06T14:24:53Z</time>
      </trkpt>
      <trkpt lat="45.34512" lon="5.86457">
        <ele>1553</ele>
        <time>2022-03-06T14:24:54Z</time>
      </trkpt>
      <trkpt lat="45.34515" lon="5.86459">
        <ele>1553</ele>
        <time>2022-03-06T14:24:55Z</time>
      </trkpt>
      <trkpt lat="45.34516" lon="5.86462">
        <ele>1552</ele>
        <time>2022-03-06T14:24:56Z</time>
      </trkpt>
      <trkpt lat="45.34518" lon="5.86464">
        <ele>1552</ele>
        <time>2022-03-06T14:24:57Z</time>
      </trkpt>
      <trkpt lat="45.34519" lon="5.86467">
        <ele>1550</ele>
        <time>2022-03-06T14:24:58Z</time>
      </trkpt>
      <trkpt lat="45.34521" lon="5.86469">
        <ele>1549</ele>
        <time>2022-03-06T14:24:59Z</time>
      </trkpt>
      <trkpt lat="45.34526" lon="5.86473">
        <ele>1549</ele>
        <time>2022-03-06T14:25:00Z</time>
      </trkpt>
      <trkpt lat="45.34531" lon="5.86476">
        <ele>1548</ele>
        <time>2022-03-06T14:25:01Z</time>
      </trkpt>
      <trkpt lat="45.34536" lon="5.8648">
        <ele>1548</ele>
        <time>2022-03-06T14:25:02Z</time>
      </trkpt>
      <trkpt lat="45.34541" lon="5.86481">
        <ele>1546</ele>
        <time>2022-03-06T14:25:03Z</time>
      </trkpt>
      <trkpt lat="45.34557" lon="5.86485">
        <ele>1546</ele>
        <time>2022-03-06T14:25:04Z</time>
      </trkpt>
      <trkpt lat="45.3456" lon="5.86484">
        <ele>1545</ele>
        <time>2022-03-06T14:25:05Z</time>
      </trkpt>
      <trkpt lat="45.34566" lon="5.86484">
        <ele>1545</ele>
        <time>2022-03-06T14:25:06Z</time>
      </trkpt>
      <trkpt lat="45.34571" lon="5.86485">
        <ele>1545</ele>
        <time>2022-03-06T14:25:08Z</time>
      </trkpt>
      <trkpt lat="45.34576" lon="5.86486">
        <ele>1542</ele>
        <time>2022-03-06T14:25:09Z</time>
      </trkpt>
      <trkpt lat="45.34577" lon="5.86486">
        <ele>1541</ele>
        <time>2022-03-06T14:25:11Z</time>
      </trkpt>
      <trkpt lat="45.34578" lon="5.86486">
        <ele>1541</ele>
        <time>2022-03-06T14:25:12Z</time>
      </trkpt>
      <trkpt lat="45.34579" lon="5.86486">
        <ele>1541</ele>
        <time>2022-03-06T14:25:14Z</time>
      </trkpt>
      <trkpt lat="45.3458" lon="5.86487">
        <ele>1541</ele>
        <time>2022-03-06T14:25:16Z</time>
      </trkpt>
      <trkpt lat="45.34581" lon="5.86487">
        <ele>1541</ele>
        <time>2022-03-06T14:25:17Z</time>
      </trkpt>
      <trkpt lat="45.34582" lon="5.86487">
        <ele>1541</ele>
        <time>2022-03-06T14:25:19Z</time>
      </trkpt>
      <trkpt lat="45.34582" lon="5.86487">
        <ele>1540</ele>
        <time>2022-03-06T14:25:22Z</time>
      </trkpt>
      <trkpt lat="45.34582" lon="5.8649">
        <ele>1539</ele>
        <time>2022-03-06T14:25:23Z</time>
      </trkpt>
      <trkpt lat="45.34582" lon="5.8649">
        <ele>1540</ele>
        <time>2022-03-06T14:25:27Z</time>
      </trkpt>
      <trkpt lat="45.34582" lon="5.86493">
        <ele>1540</ele>
        <time>2022-03-06T14:25:30Z</time>
      </trkpt>
      <trkpt lat="45.34582" lon="5.86493">
        <ele>1539</ele>
        <time>2022-03-06T14:25:32Z</time>
      </trkpt>
      <trkpt lat="45.34582" lon="5.86493">
        <ele>1539</ele>
        <time>2022-03-06T14:25:36Z</time>
      </trkpt>
      <trkpt lat="45.34582" lon="5.86493">
        <ele>1539</ele>
        <time>2022-03-06T14:25:40Z</time>
      </trkpt>
      <trkpt lat="45.34582" lon="5.86493">
        <ele>1539</ele>
        <time>2022-03-06T14:25:44Z</time>
      </trkpt>
      <trkpt lat="45.34582" lon="5.86493">
        <ele>1539</ele>
        <time>2022-03-06T14:25:48Z</time>
      </trkpt>
      <trkpt lat="45.34582" lon="5.86493">
        <ele>1539</ele>
        <time>2022-03-06T14:25:52Z</time>
      </trkpt>
      <trkpt lat="45.34582" lon="5.86493">
        <ele>1539</ele>
        <time>2022-03-06T14:25:56Z</time>
      </trkpt>
      <trkpt lat="45.34584" lon="5.86494">
        <ele>1539</ele>
        <time>2022-03-06T14:25:58Z</time>
      </trkpt>
      <trkpt lat="45.34584" lon="5.86494">
        <ele>1539</ele>
        <time>2022-03-06T14:26:01Z</time>
      </trkpt>
      <trkpt lat="45.34583" lon="5.86491">
        <ele>1539</ele>
        <time>2022-03-06T14:26:02Z</time>
      </trkpt>
      <trkpt lat="45.34584" lon="5.86488">
        <ele>1539</ele>
        <time>2022-03-06T14:26:03Z</time>
      </trkpt>
      <trkpt lat="45.34584" lon="5.86488">
        <ele>1537</ele>
        <time>2022-03-06T14:26:07Z</time>
      </trkpt>
      <trkpt lat="45.34585" lon="5.86485">
        <ele>1537</ele>
        <time>2022-03-06T14:26:10Z</time>
      </trkpt>
      <trkpt lat="45.34583" lon="5.86475">
        <ele>1537</ele>
        <time>2022-03-06T14:26:11Z</time>
      </trkpt>
      <trkpt lat="45.34581" lon="5.8647">
        <ele>1535</ele>
        <time>2022-03-06T14:26:13Z</time>
      </trkpt>
      <trkpt lat="45.34579" lon="5.86459">
        <ele>1533</ele>
        <time>2022-03-06T14:26:14Z</time>
      </trkpt>
      <trkpt lat="45.3458" lon="5.86454">
        <ele>1529</ele>
        <time>2022-03-06T14:26:16Z</time>
      </trkpt>
      <trkpt lat="45.34581" lon="5.86445">
        <ele>1529</ele>
        <time>2022-03-06T14:26:17Z</time>
      </trkpt>
      <trkpt lat="45.34586" lon="5.86437">
        <ele>1526</ele>
        <time>2022-03-06T14:26:19Z</time>
      </trkpt>
      <trkpt lat="45.34588" lon="5.86433">
        <ele>1521</ele>
        <time>2022-03-06T14:26:20Z</time>
      </trkpt>
      <trkpt lat="45.34586" lon="5.86424">
        <ele>1518</ele>
        <time>2022-03-06T14:26:22Z</time>
      </trkpt>
      <trkpt lat="45.34585" lon="5.86419">
        <ele>1518</ele>
        <time>2022-03-06T14:26:23Z</time>
      </trkpt>
      <trkpt lat="45.34587" lon="5.86415">
        <ele>1514</ele>
        <time>2022-03-06T14:26:25Z</time>
      </trkpt>
      <trkpt lat="45.34596" lon="5.86411">
        <ele>1511</ele>
        <time>2022-03-06T14:26:26Z</time>
      </trkpt>
      <trkpt lat="45.34601" lon="5.86408">
        <ele>1510</ele>
        <time>2022-03-06T14:26:28Z</time>
      </trkpt>
      <trkpt lat="45.34601" lon="5.86405">
        <ele>1509</ele>
        <time>2022-03-06T14:26:29Z</time>
      </trkpt>
      <trkpt lat="45.346" lon="5.86397">
        <ele>1508</ele>
        <time>2022-03-06T14:26:31Z</time>
      </trkpt>
      <trkpt lat="45.34601" lon="5.86395">
        <ele>1506</ele>
        <time>2022-03-06T14:26:32Z</time>
      </trkpt>
      <trkpt lat="45.34606" lon="5.8639">
        <ele>1505</ele>
        <time>2022-03-06T14:26:34Z</time>
      </trkpt>
      <trkpt lat="45.3461" lon="5.86386">
        <ele>1505</ele>
        <time>2022-03-06T14:26:35Z</time>
      </trkpt>
      <trkpt lat="45.34617" lon="5.86386">
        <ele>1502</ele>
        <time>2022-03-06T14:26:37Z</time>
      </trkpt>
      <trkpt lat="45.34621" lon="5.86389">
        <ele>1499</ele>
        <time>2022-03-06T14:26:38Z</time>
      </trkpt>
      <trkpt lat="45.34623" lon="5.8639">
        <ele>1498</ele>
        <time>2022-03-06T14:26:40Z</time>
      </trkpt>
      <trkpt lat="45.34626" lon="5.86392">
        <ele>1498</ele>
        <time>2022-03-06T14:26:41Z</time>
      </trkpt>
      <trkpt lat="45.34628" lon="5.86393">
        <ele>1498</ele>
        <time>2022-03-06T14:26:42Z</time>
      </trkpt>
      <trkpt lat="45.34628" lon="5.86393">
        <ele>1498</ele>
        <time>2022-03-06T14:26:46Z</time>
      </trkpt>
      <trkpt lat="45.34626" lon="5.86392">
        <ele>1497</ele>
        <time>2022-03-06T14:26:48Z</time>
      </trkpt>
      <trkpt lat="45.34626" lon="5.86392">
        <ele>1497</ele>
        <time>2022-03-06T14:26:51Z</time>
      </trkpt>
      <trkpt lat="45.34626" lon="5.86392">
        <ele>1497</ele>
        <time>2022-03-06T14:26:55Z</time>
      </trkpt>
      <trkpt lat="45.34626" lon="5.86392">
        <ele>1497</ele>
        <time>2022-03-06T14:26:59Z</time>
      </trkpt>
      <trkpt lat="45.34628" lon="5.86394">
        <ele>1497</ele>
        <time>2022-03-06T14:27:00Z</time>
      </trkpt>
      <trkpt lat="45.34628" lon="5.86394">
        <ele>1497</ele>
        <time>2022-03-06T14:27:04Z</time>
      </trkpt>
      <trkpt lat="45.34628" lon="5.86394">
        <ele>1496</ele>
        <time>2022-03-06T14:27:08Z</time>
      </trkpt>
      <trkpt lat="45.34628" lon="5.86394">
        <ele>1497</ele>
        <time>2022-03-06T14:27:12Z</time>
      </trkpt>
      <trkpt lat="45.34628" lon="5.86397">
        <ele>1497</ele>
        <time>2022-03-06T14:27:14Z</time>
      </trkpt>
      <trkpt lat="45.34628" lon="5.86397">
        <ele>1498</ele>
        <time>2022-03-06T14:27:17Z</time>
      </trkpt>
      <trkpt lat="45.34628" lon="5.86397">
        <ele>1498</ele>
        <time>2022-03-06T14:27:21Z</time>
      </trkpt>
      <trkpt lat="45.34628" lon="5.86397">
        <ele>1498</ele>
        <time>2022-03-06T14:27:25Z</time>
      </trkpt>
      <trkpt lat="45.34629" lon="5.86395">
        <ele>1497</ele>
        <time>2022-03-06T14:27:29Z</time>
      </trkpt>
      <trkpt lat="45.34629" lon="5.86395">
        <ele>1497</ele>
        <time>2022-03-06T14:27:30Z</time>
      </trkpt>
      <trkpt lat="45.34629" lon="5.86395">
        <ele>1498</ele>
        <time>2022-03-06T14:27:34Z</time>
      </trkpt>
      <trkpt lat="45.34629" lon="5.86395">
        <ele>1498</ele>
        <time>2022-03-06T14:27:38Z</time>
      </trkpt>
      <trkpt lat="45.34629" lon="5.86395">
        <ele>1497</ele>
        <time>2022-03-06T14:27:42Z</time>
      </trkpt>
      <trkpt lat="45.34629" lon="5.86395">
        <ele>1497</ele>
        <time>2022-03-06T14:27:46Z</time>
      </trkpt>
      <trkpt lat="45.34629" lon="5.86395">
        <ele>1497</ele>
        <time>2022-03-06T14:27:50Z</time>
      </trkpt>
      <trkpt lat="45.34629" lon="5.86395">
        <ele>1497</ele>
        <time>2022-03-06T14:27:54Z</time>
      </trkpt>
      <trkpt lat="45.34631" lon="5.86395">
        <ele>1496</ele>
        <time>2022-03-06T14:27:58Z</time>
      </trkpt>
      <trkpt lat="45.34631" lon="5.86395">
        <ele>1496</ele>
        <time>2022-03-06T14:27:59Z</time>
      </trkpt>
      <trkpt lat="45.34631" lon="5.86395">
        <ele>1496</ele>
        <time>2022-03-06T14:28:03Z</time>
      </trkpt>
      <trkpt lat="45.34633" lon="5.86395">
        <ele>1498</ele>
        <time>2022-03-06T14:28:07Z</time>
      </trkpt>
      <trkpt lat="45.34633" lon="5.86395">
        <ele>1498</ele>
        <time>2022-03-06T14:28:08Z</time>
      </trkpt>
      <trkpt lat="45.34633" lon="5.86395">
        <ele>1498</ele>
        <time>2022-03-06T14:28:12Z</time>
      </trkpt>
      <trkpt lat="45.34633" lon="5.86395">
        <ele>1498</ele>
        <time>2022-03-06T14:28:16Z</time>
      </trkpt>
      <trkpt lat="45.34633" lon="5.86395">
        <ele>1497</ele>
        <time>2022-03-06T14:28:20Z</time>
      </trkpt>
      <trkpt lat="45.34633" lon="5.86395">
        <ele>1497</ele>
        <time>2022-03-06T14:28:24Z</time>
      </trkpt>
      <trkpt lat="45.34633" lon="5.86395">
        <ele>1497</ele>
        <time>2022-03-06T14:28:28Z</time>
      </trkpt>
      <trkpt lat="45.34633" lon="5.86395">
        <ele>1497</ele>
        <time>2022-03-06T14:28:32Z</time>
      </trkpt>
      <trkpt lat="45.34633" lon="5.86395">
        <ele>1496</ele>
        <time>2022-03-06T14:28:36Z</time>
      </trkpt>
      <trkpt lat="45.34633" lon="5.86395">
        <ele>1498</ele>
        <time>2022-03-06T14:28:40Z</time>
      </trkpt>
      <trkpt lat="45.34632" lon="5.86397">
        <ele>1498</ele>
        <time>2022-03-06T14:28:41Z</time>
      </trkpt>
      <trkpt lat="45.34632" lon="5.86397">
        <ele>1498</ele>
        <time>2022-03-06T14:28:45Z</time>
      </trkpt>
      <trkpt lat="45.34633" lon="5.864">
        <ele>1498</ele>
        <time>2022-03-06T14:28:46Z</time>
      </trkpt>
      <trkpt lat="45.34633" lon="5.864">
        <ele>1498</ele>
        <time>2022-03-06T14:28:50Z</time>
      </trkpt>
      <trkpt lat="45.34633" lon="5.864">
        <ele>1498</ele>
        <time>2022-03-06T14:28:54Z</time>
      </trkpt>
      <trkpt lat="45.34633" lon="5.864">
        <ele>1498</ele>
        <time>2022-03-06T14:28:58Z</time>
      </trkpt>
      <trkpt lat="45.34633" lon="5.864">
        <ele>1498</ele>
        <time>2022-03-06T14:29:02Z</time>
      </trkpt>
      <trkpt lat="45.34633" lon="5.864">
        <ele>1498</ele>
        <time>2022-03-06T14:29:06Z</time>
      </trkpt>
      <trkpt lat="45.34633" lon="5.864">
        <ele>1498</ele>
        <time>2022-03-06T14:29:10Z</time>
      </trkpt>
      <trkpt lat="45.34633" lon="5.864">
        <ele>1498</ele>
        <time>2022-03-06T14:29:14Z</time>
      </trkpt>
      <trkpt lat="45.34633" lon="5.864">
        <ele>1499</ele>
        <time>2022-03-06T14:29:18Z</time>
      </trkpt>
      <trkpt lat="45.34633" lon="5.864">
        <ele>1499</ele>
        <time>2022-03-06T14:29:22Z</time>
      </trkpt>
      <trkpt lat="45.34633" lon="5.864">
        <ele>1497</ele>
        <time>2022-03-06T14:29:26Z</time>
      </trkpt>
      <trkpt lat="45.34633" lon="5.864">
        <ele>1497</ele>
        <time>2022-03-06T14:29:30Z</time>
      </trkpt>
      <trkpt lat="45.34633" lon="5.864">
        <ele>1497</ele>
        <time>2022-03-06T14:29:34Z</time>
      </trkpt>
      <trkpt lat="45.34633" lon="5.864">
        <ele>1497</ele>
        <time>2022-03-06T14:29:38Z</time>
      </trkpt>
      <trkpt lat="45.34633" lon="5.864">
        <ele>1497</ele>
        <time>2022-03-06T14:29:42Z</time>
      </trkpt>
      <trkpt lat="45.34633" lon="5.864">
        <ele>1497</ele>
        <time>2022-03-06T14:29:46Z</time>
      </trkpt>
      <trkpt lat="45.34633" lon="5.864">
        <ele>1497</ele>
        <time>2022-03-06T14:29:50Z</time>
      </trkpt>
      <trkpt lat="45.34633" lon="5.86397">
        <ele>1496</ele>
        <time>2022-03-06T14:29:54Z</time>
      </trkpt>
      <trkpt lat="45.34633" lon="5.86397">
        <ele>1496</ele>
        <time>2022-03-06T14:29:55Z</time>
      </trkpt>
      <trkpt lat="45.34633" lon="5.86397">
        <ele>1497</ele>
        <time>2022-03-06T14:29:59Z</time>
      </trkpt>
      <trkpt lat="45.34633" lon="5.86397">
        <ele>1497</ele>
        <time>2022-03-06T14:30:03Z</time>
      </trkpt>
      <trkpt lat="45.34633" lon="5.86397">
        <ele>1497</ele>
        <time>2022-03-06T14:30:07Z</time>
      </trkpt>
      <trkpt lat="45.34633" lon="5.86397">
        <ele>1497</ele>
        <time>2022-03-06T14:30:11Z</time>
      </trkpt>
      <trkpt lat="45.34633" lon="5.86397">
        <ele>1497</ele>
        <time>2022-03-06T14:30:15Z</time>
      </trkpt>
      <trkpt lat="45.34631" lon="5.86396">
        <ele>1497</ele>
        <time>2022-03-06T14:30:18Z</time>
      </trkpt>
      <trkpt lat="45.34631" lon="5.86396">
        <ele>1498</ele>
        <time>2022-03-06T14:30:20Z</time>
      </trkpt>
      <trkpt lat="45.34629" lon="5.86395">
        <ele>1498</ele>
        <time>2022-03-06T14:30:21Z</time>
      </trkpt>
      <trkpt lat="45.34629" lon="5.86395">
        <ele>1498</ele>
        <time>2022-03-06T14:30:25Z</time>
      </trkpt>
      <trkpt lat="45.34629" lon="5.86395">
        <ele>1497</ele>
        <time>2022-03-06T14:30:29Z</time>
      </trkpt>
      <trkpt lat="45.34629" lon="5.86395">
        <ele>1497</ele>
        <time>2022-03-06T14:30:33Z</time>
      </trkpt>
      <trkpt lat="45.34629" lon="5.86395">
        <ele>1498</ele>
        <time>2022-03-06T14:30:37Z</time>
      </trkpt>
      <trkpt lat="45.34629" lon="5.86399">
        <ele>1498</ele>
        <time>2022-03-06T14:30:38Z</time>
      </trkpt>
      <trkpt lat="45.3463" lon="5.86399">
        <ele>1498</ele>
        <time>2022-03-06T14:30:40Z</time>
      </trkpt>
      <trkpt lat="45.3463" lon="5.864">
        <ele>1498</ele>
        <time>2022-03-06T14:30:41Z</time>
      </trkpt>
      <trkpt lat="45.34631" lon="5.86401">
        <ele>1498</ele>
        <time>2022-03-06T14:30:44Z</time>
      </trkpt>
      <trkpt lat="45.34631" lon="5.86401">
        <ele>1497</ele>
        <time>2022-03-06T14:30:46Z</time>
      </trkpt>
      <trkpt lat="45.34631" lon="5.86402">
        <ele>1497</ele>
        <time>2022-03-06T14:30:47Z</time>
      </trkpt>
      <trkpt lat="45.34632" lon="5.86402">
        <ele>1497</ele>
        <time>2022-03-06T14:30:48Z</time>
      </trkpt>
      <trkpt lat="45.34632" lon="5.86403">
        <ele>1498</ele>
        <time>2022-03-06T14:30:50Z</time>
      </trkpt>
      <trkpt lat="45.34633" lon="5.86403">
        <ele>1498</ele>
        <time>2022-03-06T14:30:51Z</time>
      </trkpt>
      <trkpt lat="45.34633" lon="5.86404">
        <ele>1496</ele>
        <time>2022-03-06T14:30:54Z</time>
      </trkpt>
      <trkpt lat="45.34634" lon="5.86404">
        <ele>1496</ele>
        <time>2022-03-06T14:30:55Z</time>
      </trkpt>
      <trkpt lat="45.34634" lon="5.86405">
        <ele>1496</ele>
        <time>2022-03-06T14:30:57Z</time>
      </trkpt>
      <trkpt lat="45.34634" lon="5.86404">
        <ele>1497</ele>
        <time>2022-03-06T14:31:00Z</time>
      </trkpt>
      <trkpt lat="45.34634" lon="5.86404">
        <ele>1497</ele>
        <time>2022-03-06T14:31:01Z</time>
      </trkpt>
      <trkpt lat="45.34634" lon="5.86403">
        <ele>1497</ele>
        <time>2022-03-06T14:31:03Z</time>
      </trkpt>
      <trkpt lat="45.34634" lon="5.86402">
        <ele>1497</ele>
        <time>2022-03-06T14:31:05Z</time>
      </trkpt>
      <trkpt lat="45.34633" lon="5.86402">
        <ele>1497</ele>
        <time>2022-03-06T14:31:07Z</time>
      </trkpt>
      <trkpt lat="45.34633" lon="5.86401">
        <ele>1496</ele>
        <time>2022-03-06T14:31:08Z</time>
      </trkpt>
      <trkpt lat="45.34633" lon="5.864">
        <ele>1497</ele>
        <time>2022-03-06T14:31:11Z</time>
      </trkpt>
      <trkpt lat="45.34633" lon="5.864">
        <ele>1497</ele>
        <time>2022-03-06T14:31:13Z</time>
      </trkpt>
      <trkpt lat="45.34633" lon="5.86399">
        <ele>1497</ele>
        <time>2022-03-06T14:31:14Z</time>
      </trkpt>
      <trkpt lat="45.34633" lon="5.86398">
        <ele>1498</ele>
        <time>2022-03-06T14:31:16Z</time>
      </trkpt>
      <trkpt lat="45.34632" lon="5.86398">
        <ele>1498</ele>
        <time>2022-03-06T14:31:17Z</time>
      </trkpt>
      <trkpt lat="45.34632" lon="5.86397">
        <ele>1498</ele>
        <time>2022-03-06T14:31:19Z</time>
      </trkpt>
      <trkpt lat="45.34632" lon="5.86396">
        <ele>1497</ele>
        <time>2022-03-06T14:31:22Z</time>
      </trkpt>
      <trkpt lat="45.34632" lon="5.86396">
        <ele>1497</ele>
        <time>2022-03-06T14:31:23Z</time>
      </trkpt>
      <trkpt lat="45.34632" lon="5.86397">
        <ele>1497</ele>
        <time>2022-03-06T14:31:25Z</time>
      </trkpt>
      <trkpt lat="45.34632" lon="5.86398">
        <ele>1497</ele>
        <time>2022-03-06T14:31:26Z</time>
      </trkpt>
      <trkpt lat="45.34632" lon="5.86399">
        <ele>1497</ele>
        <time>2022-03-06T14:31:28Z</time>
      </trkpt>
      <trkpt lat="45.34632" lon="5.864">
        <ele>1497</ele>
        <time>2022-03-06T14:31:30Z</time>
      </trkpt>
      <trkpt lat="45.34632" lon="5.86401">
        <ele>1497</ele>
        <time>2022-03-06T14:31:31Z</time>
      </trkpt>
      <trkpt lat="45.34632" lon="5.86402">
        <ele>1497</ele>
        <time>2022-03-06T14:31:33Z</time>
      </trkpt>
      <trkpt lat="45.34633" lon="5.86403">
        <ele>1497</ele>
        <time>2022-03-06T14:31:35Z</time>
      </trkpt>
      <trkpt lat="45.34633" lon="5.86403">
        <ele>1497</ele>
        <time>2022-03-06T14:31:37Z</time>
      </trkpt>
      <trkpt lat="45.34633" lon="5.86403">
        <ele>1497</ele>
        <time>2022-03-06T14:31:41Z</time>
      </trkpt>
      <trkpt lat="45.34633" lon="5.86403">
        <ele>1497</ele>
        <time>2022-03-06T14:31:45Z</time>
      </trkpt>
      <trkpt lat="45.34633" lon="5.86403">
        <ele>1497</ele>
        <time>2022-03-06T14:31:49Z</time>
      </trkpt>
      <trkpt lat="45.34633" lon="5.86403">
        <ele>1496</ele>
        <time>2022-03-06T14:31:53Z</time>
      </trkpt>
      <trkpt lat="45.34633" lon="5.86403">
        <ele>1495</ele>
        <time>2022-03-06T14:31:57Z</time>
      </trkpt>
      <trkpt lat="45.34633" lon="5.86403">
        <ele>1496</ele>
        <time>2022-03-06T14:32:01Z</time>
      </trkpt>
      <trkpt lat="45.34633" lon="5.86403">
        <ele>1496</ele>
        <time>2022-03-06T14:32:05Z</time>
      </trkpt>
      <trkpt lat="45.34633" lon="5.86403">
        <ele>1496</ele>
        <time>2022-03-06T14:32:09Z</time>
      </trkpt>
      <trkpt lat="45.34633" lon="5.86403">
        <ele>1496</ele>
        <time>2022-03-06T14:32:13Z</time>
      </trkpt>
      <trkpt lat="45.34633" lon="5.86403">
        <ele>1497</ele>
        <time>2022-03-06T14:32:17Z</time>
      </trkpt>
      <trkpt lat="45.34633" lon="5.86399">
        <ele>1499</ele>
        <time>2022-03-06T14:32:18Z</time>
      </trkpt>
      <trkpt lat="45.34633" lon="5.86399">
        <ele>1499</ele>
        <time>2022-03-06T14:32:22Z</time>
      </trkpt>
      <trkpt lat="45.34633" lon="5.86399">
        <ele>1498</ele>
        <time>2022-03-06T14:32:26Z</time>
      </trkpt>
      <trkpt lat="45.34633" lon="5.86399">
        <ele>1498</ele>
        <time>2022-03-06T14:32:30Z</time>
      </trkpt>
      <trkpt lat="45.34633" lon="5.86399">
        <ele>1498</ele>
        <time>2022-03-06T14:32:34Z</time>
      </trkpt>
      <trkpt lat="45.34633" lon="5.86399">
        <ele>1497</ele>
        <time>2022-03-06T14:32:38Z</time>
      </trkpt>
      <trkpt lat="45.34633" lon="5.86399">
        <ele>1498</ele>
        <time>2022-03-06T14:32:42Z</time>
      </trkpt>
      <trkpt lat="45.34635" lon="5.86401">
        <ele>1498</ele>
        <time>2022-03-06T14:32:43Z</time>
      </trkpt>
      <trkpt lat="45.34635" lon="5.86401">
        <ele>1499</ele>
        <time>2022-03-06T14:32:47Z</time>
      </trkpt>
      <trkpt lat="45.34638" lon="5.86399">
        <ele>1499</ele>
        <time>2022-03-06T14:32:48Z</time>
      </trkpt>
      <trkpt lat="45.34638" lon="5.86396">
        <ele>1499</ele>
        <time>2022-03-06T14:32:50Z</time>
      </trkpt>
      <trkpt lat="45.3464" lon="5.86393">
        <ele>1499</ele>
        <time>2022-03-06T14:32:53Z</time>
      </trkpt>
      <trkpt lat="45.3464" lon="5.86393">
        <ele>1499</ele>
        <time>2022-03-06T14:32:54Z</time>
      </trkpt>
      <trkpt lat="45.34641" lon="5.86391">
        <ele>1499</ele>
        <time>2022-03-06T14:32:56Z</time>
      </trkpt>
      <trkpt lat="45.34643" lon="5.86388">
        <ele>1500</ele>
        <time>2022-03-06T14:32:59Z</time>
      </trkpt>
      <trkpt lat="45.34643" lon="5.86388">
        <ele>1500</ele>
        <time>2022-03-06T14:33:00Z</time>
      </trkpt>
      <trkpt lat="45.34644" lon="5.86386">
        <ele>1500</ele>
        <time>2022-03-06T14:33:02Z</time>
      </trkpt>
      <trkpt lat="45.34645" lon="5.86383">
        <ele>1500</ele>
        <time>2022-03-06T14:33:05Z</time>
      </trkpt>
      <trkpt lat="45.34645" lon="5.86383">
        <ele>1501</ele>
        <time>2022-03-06T14:33:06Z</time>
      </trkpt>
      <trkpt lat="45.34647" lon="5.8638">
        <ele>1501</ele>
        <time>2022-03-06T14:33:08Z</time>
      </trkpt>
      <trkpt lat="45.34647" lon="5.8638">
        <ele>1501</ele>
        <time>2022-03-06T14:33:11Z</time>
      </trkpt>
      <trkpt lat="45.34648" lon="5.86378">
        <ele>1501</ele>
        <time>2022-03-06T14:33:12Z</time>
      </trkpt>
      <trkpt lat="45.34649" lon="5.86377">
        <ele>1501</ele>
        <time>2022-03-06T14:33:13Z</time>
      </trkpt>
      <trkpt lat="45.34649" lon="5.86376">
        <ele>1501</ele>
        <time>2022-03-06T14:33:14Z</time>
      </trkpt>
      <trkpt lat="45.3465" lon="5.86375">
        <ele>1502</ele>
        <time>2022-03-06T14:33:16Z</time>
      </trkpt>
      <trkpt lat="45.3465" lon="5.86374">
        <ele>1502</ele>
        <time>2022-03-06T14:33:17Z</time>
      </trkpt>
      <trkpt lat="45.34651" lon="5.86373">
        <ele>1502</ele>
        <time>2022-03-06T14:33:19Z</time>
      </trkpt>
      <trkpt lat="45.34651" lon="5.86372">
        <ele>1502</ele>
        <time>2022-03-06T14:33:20Z</time>
      </trkpt>
      <trkpt lat="45.34651" lon="5.86372">
        <ele>1502</ele>
        <time>2022-03-06T14:33:24Z</time>
      </trkpt>
      <trkpt lat="45.34653" lon="5.86368">
        <ele>1502</ele>
        <time>2022-03-06T14:33:26Z</time>
      </trkpt>
      <trkpt lat="45.34653" lon="5.86367">
        <ele>1503</ele>
        <time>2022-03-06T14:33:28Z</time>
      </trkpt>
      <trkpt lat="45.34653" lon="5.86366">
        <ele>1503</ele>
        <time>2022-03-06T14:33:29Z</time>
      </trkpt>
      <trkpt lat="45.34653" lon="5.86365">
        <ele>1503</ele>
        <time>2022-03-06T14:33:32Z</time>
      </trkpt>
      <trkpt lat="45.34653" lon="5.86364">
        <ele>1503</ele>
        <time>2022-03-06T14:33:33Z</time>
      </trkpt>
      <trkpt lat="45.34653" lon="5.86363">
        <ele>1503</ele>
        <time>2022-03-06T14:33:35Z</time>
      </trkpt>
      <trkpt lat="45.34653" lon="5.86362">
        <ele>1503</ele>
        <time>2022-03-06T14:33:36Z</time>
      </trkpt>
      <trkpt lat="45.34653" lon="5.86361">
        <ele>1503</ele>
        <time>2022-03-06T14:33:38Z</time>
      </trkpt>
      <trkpt lat="45.34653" lon="5.8636">
        <ele>1503</ele>
        <time>2022-03-06T14:33:39Z</time>
      </trkpt>
      <trkpt lat="45.34653" lon="5.86359">
        <ele>1504</ele>
        <time>2022-03-06T14:33:40Z</time>
      </trkpt>
      <trkpt lat="45.34654" lon="5.86359">
        <ele>1504</ele>
        <time>2022-03-06T14:33:41Z</time>
      </trkpt>
      <trkpt lat="45.34654" lon="5.86358">
        <ele>1504</ele>
        <time>2022-03-06T14:33:42Z</time>
      </trkpt>
      <trkpt lat="45.34654" lon="5.86357">
        <ele>1504</ele>
        <time>2022-03-06T14:33:43Z</time>
      </trkpt>
      <trkpt lat="45.34654" lon="5.86356">
        <ele>1504</ele>
        <time>2022-03-06T14:33:45Z</time>
      </trkpt>
      <trkpt lat="45.34654" lon="5.86355">
        <ele>1504</ele>
        <time>2022-03-06T14:33:46Z</time>
      </trkpt>
      <trkpt lat="45.34653" lon="5.86354">
        <ele>1504</ele>
        <time>2022-03-06T14:33:48Z</time>
      </trkpt>
      <trkpt lat="45.34653" lon="5.86352">
        <ele>1504</ele>
        <time>2022-03-06T14:33:49Z</time>
      </trkpt>
      <trkpt lat="45.34653" lon="5.86351">
        <ele>1504</ele>
        <time>2022-03-06T14:33:50Z</time>
      </trkpt>
      <trkpt lat="45.34652" lon="5.8635">
        <ele>1504</ele>
        <time>2022-03-06T14:33:51Z</time>
      </trkpt>
      <trkpt lat="45.34652" lon="5.86349">
        <ele>1504</ele>
        <time>2022-03-06T14:33:52Z</time>
      </trkpt>
      <trkpt lat="45.34652" lon="5.86348">
        <ele>1505</ele>
        <time>2022-03-06T14:33:53Z</time>
      </trkpt>
      <trkpt lat="45.34651" lon="5.86347">
        <ele>1505</ele>
        <time>2022-03-06T14:33:54Z</time>
      </trkpt>
      <trkpt lat="45.34651" lon="5.86345">
        <ele>1505</ele>
        <time>2022-03-06T14:33:55Z</time>
      </trkpt>
      <trkpt lat="45.3465" lon="5.86344">
        <ele>1505</ele>
        <time>2022-03-06T14:33:56Z</time>
      </trkpt>
      <trkpt lat="45.3465" lon="5.86343">
        <ele>1505</ele>
        <time>2022-03-06T14:33:57Z</time>
      </trkpt>
      <trkpt lat="45.3465" lon="5.86342">
        <ele>1505</ele>
        <time>2022-03-06T14:33:58Z</time>
      </trkpt>
      <trkpt lat="45.34649" lon="5.86341">
        <ele>1505</ele>
        <time>2022-03-06T14:33:59Z</time>
      </trkpt>
      <trkpt lat="45.34649" lon="5.86339">
        <ele>1505</ele>
        <time>2022-03-06T14:34:00Z</time>
      </trkpt>
      <trkpt lat="45.34649" lon="5.86338">
        <ele>1505</ele>
        <time>2022-03-06T14:34:01Z</time>
      </trkpt>
      <trkpt lat="45.34648" lon="5.86337">
        <ele>1505</ele>
        <time>2022-03-06T14:34:02Z</time>
      </trkpt>
      <trkpt lat="45.34648" lon="5.86336">
        <ele>1505</ele>
        <time>2022-03-06T14:34:03Z</time>
      </trkpt>
      <trkpt lat="45.34647" lon="5.86334">
        <ele>1505</ele>
        <time>2022-03-06T14:34:04Z</time>
      </trkpt>
      <trkpt lat="45.34647" lon="5.86333">
        <ele>1505</ele>
        <time>2022-03-06T14:34:05Z</time>
      </trkpt>
      <trkpt lat="45.34647" lon="5.86332">
        <ele>1505</ele>
        <time>2022-03-06T14:34:06Z</time>
      </trkpt>
      <trkpt lat="45.34646" lon="5.86331">
        <ele>1505</ele>
        <time>2022-03-06T14:34:07Z</time>
      </trkpt>
      <trkpt lat="45.34646" lon="5.86329">
        <ele>1505</ele>
        <time>2022-03-06T14:34:08Z</time>
      </trkpt>
      <trkpt lat="45.34645" lon="5.86326">
        <ele>1505</ele>
        <time>2022-03-06T14:34:12Z</time>
      </trkpt>
      <trkpt lat="45.34645" lon="5.86326">
        <ele>1506</ele>
        <time>2022-03-06T14:34:13Z</time>
      </trkpt>
      <trkpt lat="45.34643" lon="5.86321">
        <ele>1506</ele>
        <time>2022-03-06T14:34:17Z</time>
      </trkpt>
      <trkpt lat="45.34643" lon="5.86321">
        <ele>1506</ele>
        <time>2022-03-06T14:34:18Z</time>
      </trkpt>
      <trkpt lat="45.34642" lon="5.86318">
        <ele>1506</ele>
        <time>2022-03-06T14:34:19Z</time>
      </trkpt>
      <trkpt lat="45.34642" lon="5.86315">
        <ele>1506</ele>
        <time>2022-03-06T14:34:22Z</time>
      </trkpt>
      <trkpt lat="45.34642" lon="5.86315">
        <ele>1506</ele>
        <time>2022-03-06T14:34:24Z</time>
      </trkpt>
      <trkpt lat="45.34642" lon="5.86312">
        <ele>1506</ele>
        <time>2022-03-06T14:34:25Z</time>
      </trkpt>
      <trkpt lat="45.34642" lon="5.86309">
        <ele>1505</ele>
        <time>2022-03-06T14:34:28Z</time>
      </trkpt>
      <trkpt lat="45.34642" lon="5.86309">
        <ele>1505</ele>
        <time>2022-03-06T14:34:30Z</time>
      </trkpt>
      <trkpt lat="45.34642" lon="5.86304">
        <ele>1506</ele>
        <time>2022-03-06T14:34:33Z</time>
      </trkpt>
      <trkpt lat="45.34642" lon="5.86304">
        <ele>1506</ele>
        <time>2022-03-06T14:34:35Z</time>
      </trkpt>
      <trkpt lat="45.34643" lon="5.86301">
        <ele>1506</ele>
        <time>2022-03-06T14:34:36Z</time>
      </trkpt>
      <trkpt lat="45.34644" lon="5.86298">
        <ele>1506</ele>
        <time>2022-03-06T14:34:38Z</time>
      </trkpt>
      <trkpt lat="45.34644" lon="5.86297">
        <ele>1506</ele>
        <time>2022-03-06T14:34:40Z</time>
      </trkpt>
      <trkpt lat="45.34643" lon="5.86296">
        <ele>1506</ele>
        <time>2022-03-06T14:34:41Z</time>
      </trkpt>
      <trkpt lat="45.34643" lon="5.86295">
        <ele>1506</ele>
        <time>2022-03-06T14:34:42Z</time>
      </trkpt>
      <trkpt lat="45.34643" lon="5.86294">
        <ele>1506</ele>
        <time>2022-03-06T14:34:43Z</time>
      </trkpt>
      <trkpt lat="45.34642" lon="5.86293">
        <ele>1506</ele>
        <time>2022-03-06T14:34:44Z</time>
      </trkpt>
      <trkpt lat="45.34642" lon="5.86292">
        <ele>1506</ele>
        <time>2022-03-06T14:34:45Z</time>
      </trkpt>
      <trkpt lat="45.34642" lon="5.86289">
        <ele>1506</ele>
        <time>2022-03-06T14:34:48Z</time>
      </trkpt>
      <trkpt lat="45.34642" lon="5.86289">
        <ele>1506</ele>
        <time>2022-03-06T14:34:50Z</time>
      </trkpt>
      <trkpt lat="45.3464" lon="5.86285">
        <ele>1506</ele>
        <time>2022-03-06T14:34:51Z</time>
      </trkpt>
      <trkpt lat="45.3464" lon="5.86281">
        <ele>1506</ele>
        <time>2022-03-06T14:34:54Z</time>
      </trkpt>
      <trkpt lat="45.3464" lon="5.86281">
        <ele>1506</ele>
        <time>2022-03-06T14:34:56Z</time>
      </trkpt>
      <trkpt lat="45.34639" lon="5.86278">
        <ele>1506</ele>
        <time>2022-03-06T14:34:57Z</time>
      </trkpt>
      <trkpt lat="45.34639" lon="5.86278">
        <ele>1506</ele>
        <time>2022-03-06T14:35:01Z</time>
      </trkpt>
      <trkpt lat="45.34638" lon="5.86276">
        <ele>1506</ele>
        <time>2022-03-06T14:35:02Z</time>
      </trkpt>
      <trkpt lat="45.34637" lon="5.86272">
        <ele>1506</ele>
        <time>2022-03-06T14:35:06Z</time>
      </trkpt>
      <trkpt lat="45.34637" lon="5.86272">
        <ele>1506</ele>
        <time>2022-03-06T14:35:07Z</time>
      </trkpt>
      <trkpt lat="45.34636" lon="5.8627">
        <ele>1506</ele>
        <time>2022-03-06T14:35:09Z</time>
      </trkpt>
      <trkpt lat="45.34635" lon="5.86269">
        <ele>1507</ele>
        <time>2022-03-06T14:35:11Z</time>
      </trkpt>
      <trkpt lat="45.34635" lon="5.86267">
        <ele>1507</ele>
        <time>2022-03-06T14:35:12Z</time>
      </trkpt>
      <trkpt lat="45.34634" lon="5.86266">
        <ele>1507</ele>
        <time>2022-03-06T14:35:13Z</time>
      </trkpt>
      <trkpt lat="45.34633" lon="5.86265">
        <ele>1507</ele>
        <time>2022-03-06T14:35:14Z</time>
      </trkpt>
      <trkpt lat="45.34633" lon="5.86264">
        <ele>1506</ele>
        <time>2022-03-06T14:35:15Z</time>
      </trkpt>
      <trkpt lat="45.34632" lon="5.86263">
        <ele>1506</ele>
        <time>2022-03-06T14:35:16Z</time>
      </trkpt>
      <trkpt lat="45.34631" lon="5.86262">
        <ele>1506</ele>
        <time>2022-03-06T14:35:17Z</time>
      </trkpt>
      <trkpt lat="45.34631" lon="5.8626">
        <ele>1506</ele>
        <time>2022-03-06T14:35:18Z</time>
      </trkpt>
      <trkpt lat="45.3463" lon="5.86259">
        <ele>1506</ele>
        <time>2022-03-06T14:35:19Z</time>
      </trkpt>
      <trkpt lat="45.34629" lon="5.86258">
        <ele>1505</ele>
        <time>2022-03-06T14:35:21Z</time>
      </trkpt>
      <trkpt lat="45.34627" lon="5.86256">
        <ele>1506</ele>
        <time>2022-03-06T14:35:24Z</time>
      </trkpt>
      <trkpt lat="45.34627" lon="5.86256">
        <ele>1506</ele>
        <time>2022-03-06T14:35:25Z</time>
      </trkpt>
      <trkpt lat="45.34627" lon="5.86253">
        <ele>1506</ele>
        <time>2022-03-06T14:35:27Z</time>
      </trkpt>
      <trkpt lat="45.34627" lon="5.8625">
        <ele>1507</ele>
        <time>2022-03-06T14:35:30Z</time>
      </trkpt>
      <trkpt lat="45.34627" lon="5.8625">
        <ele>1507</ele>
        <time>2022-03-06T14:35:31Z</time>
      </trkpt>
      <trkpt lat="45.34626" lon="5.86249">
        <ele>1507</ele>
        <time>2022-03-06T14:35:32Z</time>
      </trkpt>
      <trkpt lat="45.34626" lon="5.86248">
        <ele>1508</ele>
        <time>2022-03-06T14:35:33Z</time>
      </trkpt>
      <trkpt lat="45.34625" lon="5.86247">
        <ele>1508</ele>
        <time>2022-03-06T14:35:34Z</time>
      </trkpt>
      <trkpt lat="45.34625" lon="5.86245">
        <ele>1508</ele>
        <time>2022-03-06T14:35:35Z</time>
      </trkpt>
      <trkpt lat="45.34625" lon="5.86244">
        <ele>1508</ele>
        <time>2022-03-06T14:35:36Z</time>
      </trkpt>
      <trkpt lat="45.34624" lon="5.86243">
        <ele>1508</ele>
        <time>2022-03-06T14:35:37Z</time>
      </trkpt>
      <trkpt lat="45.34624" lon="5.86242">
        <ele>1508</ele>
        <time>2022-03-06T14:35:38Z</time>
      </trkpt>
      <trkpt lat="45.34623" lon="5.86242">
        <ele>1508</ele>
        <time>2022-03-06T14:35:39Z</time>
      </trkpt>
      <trkpt lat="45.34623" lon="5.86241">
        <ele>1508</ele>
        <time>2022-03-06T14:35:40Z</time>
      </trkpt>
      <trkpt lat="45.34622" lon="5.8624">
        <ele>1509</ele>
        <time>2022-03-06T14:35:41Z</time>
      </trkpt>
      <trkpt lat="45.34622" lon="5.86239">
        <ele>1509</ele>
        <time>2022-03-06T14:35:42Z</time>
      </trkpt>
      <trkpt lat="45.34621" lon="5.86238">
        <ele>1510</ele>
        <time>2022-03-06T14:35:43Z</time>
      </trkpt>
      <trkpt lat="45.34621" lon="5.86237">
        <ele>1510</ele>
        <time>2022-03-06T14:35:44Z</time>
      </trkpt>
      <trkpt lat="45.34621" lon="5.86234">
        <ele>1510</ele>
        <time>2022-03-06T14:35:46Z</time>
      </trkpt>
      <trkpt lat="45.34619" lon="5.86231">
        <ele>1510</ele>
        <time>2022-03-06T14:35:49Z</time>
      </trkpt>
      <trkpt lat="45.34619" lon="5.86231">
        <ele>1510</ele>
        <time>2022-03-06T14:35:50Z</time>
      </trkpt>
      <trkpt lat="45.34619" lon="5.86228">
        <ele>1510</ele>
        <time>2022-03-06T14:35:52Z</time>
      </trkpt>
      <trkpt lat="45.34619" lon="5.86226">
        <ele>1510</ele>
        <time>2022-03-06T14:35:53Z</time>
      </trkpt>
      <trkpt lat="45.34619" lon="5.86224">
        <ele>1510</ele>
        <time>2022-03-06T14:35:54Z</time>
      </trkpt>
      <trkpt lat="45.34619" lon="5.86222">
        <ele>1510</ele>
        <time>2022-03-06T14:35:55Z</time>
      </trkpt>
      <trkpt lat="45.34619" lon="5.86221">
        <ele>1509</ele>
        <time>2022-03-06T14:35:56Z</time>
      </trkpt>
      <trkpt lat="45.34619" lon="5.86219">
        <ele>1509</ele>
        <time>2022-03-06T14:35:57Z</time>
      </trkpt>
      <trkpt lat="45.34619" lon="5.86217">
        <ele>1510</ele>
        <time>2022-03-06T14:35:58Z</time>
      </trkpt>
      <trkpt lat="45.34619" lon="5.86215">
        <ele>1510</ele>
        <time>2022-03-06T14:35:59Z</time>
      </trkpt>
      <trkpt lat="45.34619" lon="5.86214">
        <ele>1511</ele>
        <time>2022-03-06T14:36:00Z</time>
      </trkpt>
      <trkpt lat="45.34619" lon="5.86208">
        <ele>1511</ele>
        <time>2022-03-06T14:36:03Z</time>
      </trkpt>
      <trkpt lat="45.34619" lon="5.86208">
        <ele>1510</ele>
        <time>2022-03-06T14:36:05Z</time>
      </trkpt>
      <trkpt lat="45.3462" lon="5.86203">
        <ele>1510</ele>
        <time>2022-03-06T14:36:06Z</time>
      </trkpt>
      <trkpt lat="45.34621" lon="5.86202">
        <ele>1510</ele>
        <time>2022-03-06T14:36:08Z</time>
      </trkpt>
      <trkpt lat="45.34622" lon="5.862">
        <ele>1510</ele>
        <time>2022-03-06T14:36:09Z</time>
      </trkpt>
      <trkpt lat="45.34623" lon="5.86199">
        <ele>1510</ele>
        <time>2022-03-06T14:36:10Z</time>
      </trkpt>
      <trkpt lat="45.34624" lon="5.86196">
        <ele>1510</ele>
        <time>2022-03-06T14:36:11Z</time>
      </trkpt>
      <trkpt lat="45.34624" lon="5.86192">
        <ele>1510</ele>
        <time>2022-03-06T14:36:14Z</time>
      </trkpt>
      <trkpt lat="45.34624" lon="5.8619">
        <ele>1509</ele>
        <time>2022-03-06T14:36:16Z</time>
      </trkpt>
      <trkpt lat="45.34624" lon="5.8619">
        <ele>1509</ele>
        <time>2022-03-06T14:36:19Z</time>
      </trkpt>
      <trkpt lat="45.34624" lon="5.8619">
        <ele>1509</ele>
        <time>2022-03-06T14:36:23Z</time>
      </trkpt>
      <trkpt lat="45.34623" lon="5.86186">
        <ele>1509</ele>
        <time>2022-03-06T14:36:25Z</time>
      </trkpt>
      <trkpt lat="45.34624" lon="5.86185">
        <ele>1508</ele>
        <time>2022-03-06T14:36:26Z</time>
      </trkpt>
      <trkpt lat="45.34624" lon="5.86184">
        <ele>1508</ele>
        <time>2022-03-06T14:36:27Z</time>
      </trkpt>
      <trkpt lat="45.34624" lon="5.86183">
        <ele>1508</ele>
        <time>2022-03-06T14:36:28Z</time>
      </trkpt>
      <trkpt lat="45.34624" lon="5.86182">
        <ele>1508</ele>
        <time>2022-03-06T14:36:29Z</time>
      </trkpt>
      <trkpt lat="45.34624" lon="5.86181">
        <ele>1508</ele>
        <time>2022-03-06T14:36:30Z</time>
      </trkpt>
      <trkpt lat="45.34624" lon="5.86179">
        <ele>1508</ele>
        <time>2022-03-06T14:36:31Z</time>
      </trkpt>
      <trkpt lat="45.34624" lon="5.86177">
        <ele>1508</ele>
        <time>2022-03-06T14:36:32Z</time>
      </trkpt>
      <trkpt lat="45.34624" lon="5.86174">
        <ele>1508</ele>
        <time>2022-03-06T14:36:34Z</time>
      </trkpt>
      <trkpt lat="45.34625" lon="5.86171">
        <ele>1508</ele>
        <time>2022-03-06T14:36:36Z</time>
      </trkpt>
      <trkpt lat="45.34625" lon="5.86171">
        <ele>1508</ele>
        <time>2022-03-06T14:36:38Z</time>
      </trkpt>
      <trkpt lat="45.34626" lon="5.86168">
        <ele>1508</ele>
        <time>2022-03-06T14:36:39Z</time>
      </trkpt>
      <trkpt lat="45.34626" lon="5.86166">
        <ele>1508</ele>
        <time>2022-03-06T14:36:42Z</time>
      </trkpt>
      <trkpt lat="45.34627" lon="5.86162">
        <ele>1508</ele>
        <time>2022-03-06T14:36:44Z</time>
      </trkpt>
      <trkpt lat="45.34627" lon="5.86159">
        <ele>1508</ele>
        <time>2022-03-06T14:36:46Z</time>
      </trkpt>
      <trkpt lat="45.34627" lon="5.86159">
        <ele>1508</ele>
        <time>2022-03-06T14:36:48Z</time>
      </trkpt>
      <trkpt lat="45.34627" lon="5.86155">
        <ele>1507</ele>
        <time>2022-03-06T14:36:50Z</time>
      </trkpt>
      <trkpt lat="45.34627" lon="5.86154">
        <ele>1507</ele>
        <time>2022-03-06T14:36:52Z</time>
      </trkpt>
      <trkpt lat="45.34627" lon="5.86153">
        <ele>1507</ele>
        <time>2022-03-06T14:36:53Z</time>
      </trkpt>
      <trkpt lat="45.34627" lon="5.86151">
        <ele>1507</ele>
        <time>2022-03-06T14:36:54Z</time>
      </trkpt>
      <trkpt lat="45.34627" lon="5.8615">
        <ele>1507</ele>
        <time>2022-03-06T14:36:55Z</time>
      </trkpt>
      <trkpt lat="45.34627" lon="5.86149">
        <ele>1506</ele>
        <time>2022-03-06T14:36:56Z</time>
      </trkpt>
      <trkpt lat="45.34627" lon="5.86148">
        <ele>1506</ele>
        <time>2022-03-06T14:36:57Z</time>
      </trkpt>
      <trkpt lat="45.34627" lon="5.86146">
        <ele>1506</ele>
        <time>2022-03-06T14:36:58Z</time>
      </trkpt>
      <trkpt lat="45.34627" lon="5.86145">
        <ele>1506</ele>
        <time>2022-03-06T14:36:59Z</time>
      </trkpt>
      <trkpt lat="45.34627" lon="5.86144">
        <ele>1506</ele>
        <time>2022-03-06T14:37:00Z</time>
      </trkpt>
      <trkpt lat="45.34628" lon="5.86143">
        <ele>1506</ele>
        <time>2022-03-06T14:37:01Z</time>
      </trkpt>
      <trkpt lat="45.34628" lon="5.86142">
        <ele>1506</ele>
        <time>2022-03-06T14:37:02Z</time>
      </trkpt>
      <trkpt lat="45.34628" lon="5.8614">
        <ele>1507</ele>
        <time>2022-03-06T14:37:03Z</time>
      </trkpt>
      <trkpt lat="45.34628" lon="5.86139">
        <ele>1507</ele>
        <time>2022-03-06T14:37:04Z</time>
      </trkpt>
      <trkpt lat="45.34628" lon="5.86138">
        <ele>1507</ele>
        <time>2022-03-06T14:37:06Z</time>
      </trkpt>
      <trkpt lat="45.34628" lon="5.86137">
        <ele>1507</ele>
        <time>2022-03-06T14:37:07Z</time>
      </trkpt>
      <trkpt lat="45.34628" lon="5.86136">
        <ele>1508</ele>
        <time>2022-03-06T14:37:08Z</time>
      </trkpt>
      <trkpt lat="45.34628" lon="5.86135">
        <ele>1508</ele>
        <time>2022-03-06T14:37:09Z</time>
      </trkpt>
      <trkpt lat="45.34628" lon="5.86134">
        <ele>1508</ele>
        <time>2022-03-06T14:37:10Z</time>
      </trkpt>
      <trkpt lat="45.34628" lon="5.86133">
        <ele>1508</ele>
        <time>2022-03-06T14:37:11Z</time>
      </trkpt>
      <trkpt lat="45.34628" lon="5.86132">
        <ele>1508</ele>
        <time>2022-03-06T14:37:12Z</time>
      </trkpt>
      <trkpt lat="45.34628" lon="5.86131">
        <ele>1510</ele>
        <time>2022-03-06T14:37:13Z</time>
      </trkpt>
      <trkpt lat="45.34629" lon="5.86131">
        <ele>1510</ele>
        <time>2022-03-06T14:37:15Z</time>
      </trkpt>
      <trkpt lat="45.3463" lon="5.8613">
        <ele>1510</ele>
        <time>2022-03-06T14:37:16Z</time>
      </trkpt>
      <trkpt lat="45.34631" lon="5.8613">
        <ele>1509</ele>
        <time>2022-03-06T14:37:17Z</time>
      </trkpt>
      <trkpt lat="45.34632" lon="5.86129">
        <ele>1509</ele>
        <time>2022-03-06T14:37:19Z</time>
      </trkpt>
      <trkpt lat="45.3463" lon="5.86128">
        <ele>1509</ele>
        <time>2022-03-06T14:37:22Z</time>
      </trkpt>
      <trkpt lat="45.3463" lon="5.86128">
        <ele>1509</ele>
        <time>2022-03-06T14:37:23Z</time>
      </trkpt>
      <trkpt lat="45.34629" lon="5.86126">
        <ele>1509</ele>
        <time>2022-03-06T14:37:24Z</time>
      </trkpt>
      <trkpt lat="45.34628" lon="5.86125">
        <ele>1509</ele>
        <time>2022-03-06T14:37:27Z</time>
      </trkpt>
      <trkpt lat="45.34628" lon="5.86124">
        <ele>1509</ele>
        <time>2022-03-06T14:37:28Z</time>
      </trkpt>
      <trkpt lat="45.34628" lon="5.86123">
        <ele>1509</ele>
        <time>2022-03-06T14:37:29Z</time>
      </trkpt>
      <trkpt lat="45.34628" lon="5.86122">
        <ele>1509</ele>
        <time>2022-03-06T14:37:30Z</time>
      </trkpt>
      <trkpt lat="45.34627" lon="5.86121">
        <ele>1509</ele>
        <time>2022-03-06T14:37:31Z</time>
      </trkpt>
      <trkpt lat="45.34627" lon="5.8612">
        <ele>1510</ele>
        <time>2022-03-06T14:37:33Z</time>
      </trkpt>
      <trkpt lat="45.34627" lon="5.86119">
        <ele>1510</ele>
        <time>2022-03-06T14:37:34Z</time>
      </trkpt>
      <trkpt lat="45.34626" lon="5.86118">
        <ele>1510</ele>
        <time>2022-03-06T14:37:35Z</time>
      </trkpt>
      <trkpt lat="45.34626" lon="5.86117">
        <ele>1510</ele>
        <time>2022-03-06T14:37:36Z</time>
      </trkpt>
      <trkpt lat="45.34626" lon="5.86116">
        <ele>1510</ele>
        <time>2022-03-06T14:37:37Z</time>
      </trkpt>
      <trkpt lat="45.34625" lon="5.86115">
        <ele>1510</ele>
        <time>2022-03-06T14:37:39Z</time>
      </trkpt>
      <trkpt lat="45.34625" lon="5.86114">
        <ele>1510</ele>
        <time>2022-03-06T14:37:40Z</time>
      </trkpt>
      <trkpt lat="45.34623" lon="5.86111">
        <ele>1512</ele>
        <time>2022-03-06T14:37:44Z</time>
      </trkpt>
      <trkpt lat="45.34622" lon="5.86109">
        <ele>1512</ele>
        <time>2022-03-06T14:37:45Z</time>
      </trkpt>
      <trkpt lat="45.34621" lon="5.86107">
        <ele>1511</ele>
        <time>2022-03-06T14:37:47Z</time>
      </trkpt>
      <trkpt lat="45.34621" lon="5.86106">
        <ele>1511</ele>
        <time>2022-03-06T14:37:48Z</time>
      </trkpt>
      <trkpt lat="45.34621" lon="5.86104">
        <ele>1511</ele>
        <time>2022-03-06T14:37:49Z</time>
      </trkpt>
      <trkpt lat="45.3462" lon="5.86103">
        <ele>1511</ele>
        <time>2022-03-06T14:37:50Z</time>
      </trkpt>
      <trkpt lat="45.3462" lon="5.86102">
        <ele>1513</ele>
        <time>2022-03-06T14:37:51Z</time>
      </trkpt>
      <trkpt lat="45.3462" lon="5.861">
        <ele>1513</ele>
        <time>2022-03-06T14:37:52Z</time>
      </trkpt>
      <trkpt lat="45.3462" lon="5.86099">
        <ele>1513</ele>
        <time>2022-03-06T14:37:53Z</time>
      </trkpt>
      <trkpt lat="45.34619" lon="5.86097">
        <ele>1513</ele>
        <time>2022-03-06T14:37:54Z</time>
      </trkpt>
      <trkpt lat="45.34619" lon="5.86096">
        <ele>1513</ele>
        <time>2022-03-06T14:37:55Z</time>
      </trkpt>
      <trkpt lat="45.34619" lon="5.86092">
        <ele>1513</ele>
        <time>2022-03-06T14:37:56Z</time>
      </trkpt>
      <trkpt lat="45.34618" lon="5.86089">
        <ele>1513</ele>
        <time>2022-03-06T14:37:59Z</time>
      </trkpt>
      <trkpt lat="45.34616" lon="5.86086">
        <ele>1512</ele>
        <time>2022-03-06T14:38:01Z</time>
      </trkpt>
      <trkpt lat="45.34616" lon="5.86081">
        <ele>1514</ele>
        <time>2022-03-06T14:38:04Z</time>
      </trkpt>
      <trkpt lat="45.34616" lon="5.86081">
        <ele>1514</ele>
        <time>2022-03-06T14:38:05Z</time>
      </trkpt>
      <trkpt lat="45.34618" lon="5.86079">
        <ele>1514</ele>
        <time>2022-03-06T14:38:06Z</time>
      </trkpt>
      <trkpt lat="45.3462" lon="5.86076">
        <ele>1514</ele>
        <time>2022-03-06T14:38:08Z</time>
      </trkpt>
      <trkpt lat="45.34621" lon="5.86074">
        <ele>1515</ele>
        <time>2022-03-06T14:38:10Z</time>
      </trkpt>
      <trkpt lat="45.34621" lon="5.86073">
        <ele>1515</ele>
        <time>2022-03-06T14:38:12Z</time>
      </trkpt>
      <trkpt lat="45.34621" lon="5.86072">
        <ele>1515</ele>
        <time>2022-03-06T14:38:13Z</time>
      </trkpt>
      <trkpt lat="45.34621" lon="5.86071">
        <ele>1515</ele>
        <time>2022-03-06T14:38:14Z</time>
      </trkpt>
      <trkpt lat="45.34621" lon="5.8607">
        <ele>1515</ele>
        <time>2022-03-06T14:38:16Z</time>
      </trkpt>
      <trkpt lat="45.34621" lon="5.86069">
        <ele>1515</ele>
        <time>2022-03-06T14:38:17Z</time>
      </trkpt>
      <trkpt lat="45.34621" lon="5.86068">
        <ele>1515</ele>
        <time>2022-03-06T14:38:18Z</time>
      </trkpt>
      <trkpt lat="45.34621" lon="5.86067">
        <ele>1515</ele>
        <time>2022-03-06T14:38:19Z</time>
      </trkpt>
      <trkpt lat="45.34621" lon="5.86066">
        <ele>1516</ele>
        <time>2022-03-06T14:38:21Z</time>
      </trkpt>
      <trkpt lat="45.34621" lon="5.86065">
        <ele>1516</ele>
        <time>2022-03-06T14:38:22Z</time>
      </trkpt>
      <trkpt lat="45.34623" lon="5.86063">
        <ele>1516</ele>
        <time>2022-03-06T14:38:23Z</time>
      </trkpt>
      <trkpt lat="45.34623" lon="5.86062">
        <ele>1516</ele>
        <time>2022-03-06T14:38:25Z</time>
      </trkpt>
      <trkpt lat="45.34623" lon="5.8606">
        <ele>1516</ele>
        <time>2022-03-06T14:38:26Z</time>
      </trkpt>
      <trkpt lat="45.34623" lon="5.86059">
        <ele>1516</ele>
        <time>2022-03-06T14:38:27Z</time>
      </trkpt>
      <trkpt lat="45.34622" lon="5.86058">
        <ele>1516</ele>
        <time>2022-03-06T14:38:28Z</time>
      </trkpt>
      <trkpt lat="45.34622" lon="5.86056">
        <ele>1516</ele>
        <time>2022-03-06T14:38:29Z</time>
      </trkpt>
      <trkpt lat="45.34622" lon="5.86055">
        <ele>1516</ele>
        <time>2022-03-06T14:38:30Z</time>
      </trkpt>
      <trkpt lat="45.34622" lon="5.86053">
        <ele>1516</ele>
        <time>2022-03-06T14:38:31Z</time>
      </trkpt>
      <trkpt lat="45.34622" lon="5.86052">
        <ele>1515</ele>
        <time>2022-03-06T14:38:32Z</time>
      </trkpt>
      <trkpt lat="45.34622" lon="5.86051">
        <ele>1515</ele>
        <time>2022-03-06T14:38:33Z</time>
      </trkpt>
      <trkpt lat="45.34622" lon="5.86048">
        <ele>1515</ele>
        <time>2022-03-06T14:38:34Z</time>
      </trkpt>
      <trkpt lat="45.34622" lon="5.86046">
        <ele>1515</ele>
        <time>2022-03-06T14:38:36Z</time>
      </trkpt>
      <trkpt lat="45.34621" lon="5.86044">
        <ele>1515</ele>
        <time>2022-03-06T14:38:37Z</time>
      </trkpt>
      <trkpt lat="45.34621" lon="5.86042">
        <ele>1515</ele>
        <time>2022-03-06T14:38:38Z</time>
      </trkpt>
      <trkpt lat="45.34621" lon="5.8604">
        <ele>1515</ele>
        <time>2022-03-06T14:38:39Z</time>
      </trkpt>
      <trkpt lat="45.3462" lon="5.86038">
        <ele>1515</ele>
        <time>2022-03-06T14:38:40Z</time>
      </trkpt>
      <trkpt lat="45.3462" lon="5.86037">
        <ele>1516</ele>
        <time>2022-03-06T14:38:41Z</time>
      </trkpt>
      <trkpt lat="45.34619" lon="5.86035">
        <ele>1516</ele>
        <time>2022-03-06T14:38:42Z</time>
      </trkpt>
      <trkpt lat="45.3462" lon="5.86034">
        <ele>1516</ele>
        <time>2022-03-06T14:38:43Z</time>
      </trkpt>
      <trkpt lat="45.3462" lon="5.86032">
        <ele>1516</ele>
        <time>2022-03-06T14:38:44Z</time>
      </trkpt>
      <trkpt lat="45.3462" lon="5.86031">
        <ele>1516</ele>
        <time>2022-03-06T14:38:45Z</time>
      </trkpt>
      <trkpt lat="45.34621" lon="5.8603">
        <ele>1516</ele>
        <time>2022-03-06T14:38:46Z</time>
      </trkpt>
      <trkpt lat="45.34621" lon="5.86029">
        <ele>1516</ele>
        <time>2022-03-06T14:38:47Z</time>
      </trkpt>
      <trkpt lat="45.34621" lon="5.86027">
        <ele>1516</ele>
        <time>2022-03-06T14:38:48Z</time>
      </trkpt>
      <trkpt lat="45.34621" lon="5.86026">
        <ele>1516</ele>
        <time>2022-03-06T14:38:49Z</time>
      </trkpt>
      <trkpt lat="45.34622" lon="5.86025">
        <ele>1517</ele>
        <time>2022-03-06T14:38:50Z</time>
      </trkpt>
      <trkpt lat="45.34623" lon="5.86024">
        <ele>1517</ele>
        <time>2022-03-06T14:38:51Z</time>
      </trkpt>
      <trkpt lat="45.34624" lon="5.86023">
        <ele>1517</ele>
        <time>2022-03-06T14:38:52Z</time>
      </trkpt>
      <trkpt lat="45.34625" lon="5.86022">
        <ele>1517</ele>
        <time>2022-03-06T14:38:53Z</time>
      </trkpt>
      <trkpt lat="45.34626" lon="5.86021">
        <ele>1517</ele>
        <time>2022-03-06T14:38:54Z</time>
      </trkpt>
      <trkpt lat="45.34627" lon="5.8602">
        <ele>1517</ele>
        <time>2022-03-06T14:38:55Z</time>
      </trkpt>
      <trkpt lat="45.34628" lon="5.86019">
        <ele>1517</ele>
        <time>2022-03-06T14:38:56Z</time>
      </trkpt>
      <trkpt lat="45.34629" lon="5.86018">
        <ele>1517</ele>
        <time>2022-03-06T14:38:57Z</time>
      </trkpt>
      <trkpt lat="45.3463" lon="5.86017">
        <ele>1516</ele>
        <time>2022-03-06T14:38:58Z</time>
      </trkpt>
      <trkpt lat="45.34631" lon="5.86015">
        <ele>1516</ele>
        <time>2022-03-06T14:38:59Z</time>
      </trkpt>
      <trkpt lat="45.34631" lon="5.86014">
        <ele>1517</ele>
        <time>2022-03-06T14:39:00Z</time>
      </trkpt>
      <trkpt lat="45.34632" lon="5.86013">
        <ele>1517</ele>
        <time>2022-03-06T14:39:01Z</time>
      </trkpt>
      <trkpt lat="45.34633" lon="5.86011">
        <ele>1517</ele>
        <time>2022-03-06T14:39:02Z</time>
      </trkpt>
      <trkpt lat="45.34633" lon="5.8601">
        <ele>1517</ele>
        <time>2022-03-06T14:39:03Z</time>
      </trkpt>
      <trkpt lat="45.34634" lon="5.86009">
        <ele>1516</ele>
        <time>2022-03-06T14:39:04Z</time>
      </trkpt>
      <trkpt lat="45.34635" lon="5.86007">
        <ele>1516</ele>
        <time>2022-03-06T14:39:05Z</time>
      </trkpt>
      <trkpt lat="45.34637" lon="5.86005">
        <ele>1516</ele>
        <time>2022-03-06T14:39:07Z</time>
      </trkpt>
      <trkpt lat="45.34639" lon="5.86001">
        <ele>1516</ele>
        <time>2022-03-06T14:39:10Z</time>
      </trkpt>
      <trkpt lat="45.34639" lon="5.86001">
        <ele>1516</ele>
        <time>2022-03-06T14:39:11Z</time>
      </trkpt>
      <trkpt lat="45.3464" lon="5.85998">
        <ele>1515</ele>
        <time>2022-03-06T14:39:12Z</time>
      </trkpt>
      <trkpt lat="45.34643" lon="5.85996">
        <ele>1516</ele>
        <time>2022-03-06T14:39:15Z</time>
      </trkpt>
      <trkpt lat="45.34643" lon="5.85996">
        <ele>1516</ele>
        <time>2022-03-06T14:39:17Z</time>
      </trkpt>
      <trkpt lat="45.34645" lon="5.85996">
        <ele>1516</ele>
        <time>2022-03-06T14:39:18Z</time>
      </trkpt>
      <trkpt lat="45.34645" lon="5.85996">
        <ele>1517</ele>
        <time>2022-03-06T14:39:22Z</time>
      </trkpt>
      <trkpt lat="45.34645" lon="5.85996">
        <ele>1517</ele>
        <time>2022-03-06T14:39:26Z</time>
      </trkpt>
      <trkpt lat="45.34648" lon="5.85995">
        <ele>1517</ele>
        <time>2022-03-06T14:39:27Z</time>
      </trkpt>
      <trkpt lat="45.3465" lon="5.85995">
        <ele>1517</ele>
        <time>2022-03-06T14:39:31Z</time>
      </trkpt>
      <trkpt lat="45.3465" lon="5.85995">
        <ele>1517</ele>
        <time>2022-03-06T14:39:32Z</time>
      </trkpt>
      <trkpt lat="45.3465" lon="5.85995">
        <ele>1517</ele>
        <time>2022-03-06T14:39:36Z</time>
      </trkpt>
      <trkpt lat="45.34654" lon="5.85994">
        <ele>1517</ele>
        <time>2022-03-06T14:39:39Z</time>
      </trkpt>
      <trkpt lat="45.34655" lon="5.85991">
        <ele>1518</ele>
        <time>2022-03-06T14:39:40Z</time>
      </trkpt>
      <trkpt lat="45.34657" lon="5.85988">
        <ele>1518</ele>
        <time>2022-03-06T14:39:42Z</time>
      </trkpt>
      <trkpt lat="45.34658" lon="5.85986">
        <ele>1518</ele>
        <time>2022-03-06T14:39:44Z</time>
      </trkpt>
      <trkpt lat="45.34658" lon="5.85986">
        <ele>1518</ele>
        <time>2022-03-06T14:39:46Z</time>
      </trkpt>
      <trkpt lat="45.34661" lon="5.85981">
        <ele>1518</ele>
        <time>2022-03-06T14:39:50Z</time>
      </trkpt>
      <trkpt lat="45.34663" lon="5.85979">
        <ele>1518</ele>
        <time>2022-03-06T14:39:52Z</time>
      </trkpt>
      <trkpt lat="45.34664" lon="5.85976">
        <ele>1518</ele>
        <time>2022-03-06T14:39:55Z</time>
      </trkpt>
      <trkpt lat="45.34665" lon="5.85972">
        <ele>1518</ele>
        <time>2022-03-06T14:39:56Z</time>
      </trkpt>
      <trkpt lat="45.34666" lon="5.85969">
        <ele>1518</ele>
        <time>2022-03-06T14:39:57Z</time>
      </trkpt>
      <trkpt lat="45.34668" lon="5.85967">
        <ele>1517</ele>
        <time>2022-03-06T14:40:00Z</time>
      </trkpt>
      <trkpt lat="45.34668" lon="5.85967">
        <ele>1517</ele>
        <time>2022-03-06T14:40:02Z</time>
      </trkpt>
      <trkpt lat="45.34671" lon="5.85967">
        <ele>1517</ele>
        <time>2022-03-06T14:40:03Z</time>
      </trkpt>
      <trkpt lat="45.34674" lon="5.85967">
        <ele>1517</ele>
        <time>2022-03-06T14:40:05Z</time>
      </trkpt>
      <trkpt lat="45.34675" lon="5.85966">
        <ele>1517</ele>
        <time>2022-03-06T14:40:07Z</time>
      </trkpt>
      <trkpt lat="45.34675" lon="5.85965">
        <ele>1517</ele>
        <time>2022-03-06T14:40:08Z</time>
      </trkpt>
      <trkpt lat="45.34676" lon="5.85964">
        <ele>1518</ele>
        <time>2022-03-06T14:40:09Z</time>
      </trkpt>
      <trkpt lat="45.34677" lon="5.85964">
        <ele>1518</ele>
        <time>2022-03-06T14:40:10Z</time>
      </trkpt>
      <trkpt lat="45.34678" lon="5.85963">
        <ele>1518</ele>
        <time>2022-03-06T14:40:11Z</time>
      </trkpt>
      <trkpt lat="45.34678" lon="5.85962">
        <ele>1518</ele>
        <time>2022-03-06T14:40:12Z</time>
      </trkpt>
      <trkpt lat="45.34679" lon="5.85961">
        <ele>1518</ele>
        <time>2022-03-06T14:40:13Z</time>
      </trkpt>
      <trkpt lat="45.3468" lon="5.8596">
        <ele>1518</ele>
        <time>2022-03-06T14:40:14Z</time>
      </trkpt>
      <trkpt lat="45.34681" lon="5.85959">
        <ele>1518</ele>
        <time>2022-03-06T14:40:16Z</time>
      </trkpt>
      <trkpt lat="45.34681" lon="5.85958">
        <ele>1518</ele>
        <time>2022-03-06T14:40:17Z</time>
      </trkpt>
      <trkpt lat="45.34682" lon="5.85957">
        <ele>1518</ele>
        <time>2022-03-06T14:40:18Z</time>
      </trkpt>
      <trkpt lat="45.34683" lon="5.85956">
        <ele>1518</ele>
        <time>2022-03-06T14:40:19Z</time>
      </trkpt>
      <trkpt lat="45.34683" lon="5.85955">
        <ele>1518</ele>
        <time>2022-03-06T14:40:20Z</time>
      </trkpt>
      <trkpt lat="45.34684" lon="5.85955">
        <ele>1518</ele>
        <time>2022-03-06T14:40:21Z</time>
      </trkpt>
      <trkpt lat="45.34684" lon="5.85954">
        <ele>1518</ele>
        <time>2022-03-06T14:40:22Z</time>
      </trkpt>
      <trkpt lat="45.34685" lon="5.85953">
        <ele>1518</ele>
        <time>2022-03-06T14:40:23Z</time>
      </trkpt>
      <trkpt lat="45.34685" lon="5.85952">
        <ele>1518</ele>
        <time>2022-03-06T14:40:24Z</time>
      </trkpt>
      <trkpt lat="45.34686" lon="5.8595">
        <ele>1517</ele>
        <time>2022-03-06T14:40:25Z</time>
      </trkpt>
      <trkpt lat="45.34686" lon="5.85949">
        <ele>1517</ele>
        <time>2022-03-06T14:40:26Z</time>
      </trkpt>
      <trkpt lat="45.34687" lon="5.85948">
        <ele>1517</ele>
        <time>2022-03-06T14:40:27Z</time>
      </trkpt>
      <trkpt lat="45.34687" lon="5.85947">
        <ele>1517</ele>
        <time>2022-03-06T14:40:28Z</time>
      </trkpt>
      <trkpt lat="45.34688" lon="5.85946">
        <ele>1517</ele>
        <time>2022-03-06T14:40:29Z</time>
      </trkpt>
      <trkpt lat="45.34688" lon="5.85945">
        <ele>1517</ele>
        <time>2022-03-06T14:40:30Z</time>
      </trkpt>
      <trkpt lat="45.34689" lon="5.85944">
        <ele>1517</ele>
        <time>2022-03-06T14:40:31Z</time>
      </trkpt>
      <trkpt lat="45.34689" lon="5.85943">
        <ele>1517</ele>
        <time>2022-03-06T14:40:32Z</time>
      </trkpt>
      <trkpt lat="45.3469" lon="5.85942">
        <ele>1517</ele>
        <time>2022-03-06T14:40:33Z</time>
      </trkpt>
      <trkpt lat="45.3469" lon="5.8594">
        <ele>1518</ele>
        <time>2022-03-06T14:40:34Z</time>
      </trkpt>
      <trkpt lat="45.34691" lon="5.85939">
        <ele>1518</ele>
        <time>2022-03-06T14:40:35Z</time>
      </trkpt>
      <trkpt lat="45.34691" lon="5.85937">
        <ele>1518</ele>
        <time>2022-03-06T14:40:36Z</time>
      </trkpt>
      <trkpt lat="45.34692" lon="5.85936">
        <ele>1518</ele>
        <time>2022-03-06T14:40:37Z</time>
      </trkpt>
      <trkpt lat="45.34692" lon="5.85934">
        <ele>1518</ele>
        <time>2022-03-06T14:40:38Z</time>
      </trkpt>
      <trkpt lat="45.34693" lon="5.85932">
        <ele>1518</ele>
        <time>2022-03-06T14:40:39Z</time>
      </trkpt>
      <trkpt lat="45.34694" lon="5.85931">
        <ele>1518</ele>
        <time>2022-03-06T14:40:40Z</time>
      </trkpt>
      <trkpt lat="45.34694" lon="5.8593">
        <ele>1518</ele>
        <time>2022-03-06T14:40:41Z</time>
      </trkpt>
      <trkpt lat="45.34695" lon="5.85929">
        <ele>1518</ele>
        <time>2022-03-06T14:40:42Z</time>
      </trkpt>
      <trkpt lat="45.34696" lon="5.85928">
        <ele>1518</ele>
        <time>2022-03-06T14:40:43Z</time>
      </trkpt>
      <trkpt lat="45.34696" lon="5.85927">
        <ele>1518</ele>
        <time>2022-03-06T14:40:44Z</time>
      </trkpt>
      <trkpt lat="45.34697" lon="5.85926">
        <ele>1518</ele>
        <time>2022-03-06T14:40:45Z</time>
      </trkpt>
      <trkpt lat="45.34698" lon="5.85925">
        <ele>1518</ele>
        <time>2022-03-06T14:40:46Z</time>
      </trkpt>
      <trkpt lat="45.34699" lon="5.85924">
        <ele>1518</ele>
        <time>2022-03-06T14:40:47Z</time>
      </trkpt>
      <trkpt lat="45.34699" lon="5.85923">
        <ele>1517</ele>
        <time>2022-03-06T14:40:49Z</time>
      </trkpt>
      <trkpt lat="45.347" lon="5.85922">
        <ele>1517</ele>
        <time>2022-03-06T14:40:50Z</time>
      </trkpt>
      <trkpt lat="45.34701" lon="5.8592">
        <ele>1517</ele>
        <time>2022-03-06T14:40:51Z</time>
      </trkpt>
      <trkpt lat="45.34701" lon="5.85917">
        <ele>1517</ele>
        <time>2022-03-06T14:40:52Z</time>
      </trkpt>
      <trkpt lat="45.34702" lon="5.85915">
        <ele>1517</ele>
        <time>2022-03-06T14:40:53Z</time>
      </trkpt>
      <trkpt lat="45.34702" lon="5.85913">
        <ele>1517</ele>
        <time>2022-03-06T14:40:54Z</time>
      </trkpt>
      <trkpt lat="45.34703" lon="5.85911">
        <ele>1517</ele>
        <time>2022-03-06T14:40:55Z</time>
      </trkpt>
      <trkpt lat="45.34703" lon="5.85909">
        <ele>1517</ele>
        <time>2022-03-06T14:40:56Z</time>
      </trkpt>
      <trkpt lat="45.34704" lon="5.85908">
        <ele>1517</ele>
        <time>2022-03-06T14:40:57Z</time>
      </trkpt>
      <trkpt lat="45.34705" lon="5.85907">
        <ele>1517</ele>
        <time>2022-03-06T14:40:58Z</time>
      </trkpt>
      <trkpt lat="45.34705" lon="5.85906">
        <ele>1517</ele>
        <time>2022-03-06T14:40:59Z</time>
      </trkpt>
      <trkpt lat="45.34706" lon="5.85904">
        <ele>1517</ele>
        <time>2022-03-06T14:41:00Z</time>
      </trkpt>
      <trkpt lat="45.34707" lon="5.85903">
        <ele>1517</ele>
        <time>2022-03-06T14:41:01Z</time>
      </trkpt>
      <trkpt lat="45.34707" lon="5.85902">
        <ele>1517</ele>
        <time>2022-03-06T14:41:02Z</time>
      </trkpt>
      <trkpt lat="45.34708" lon="5.85901">
        <ele>1517</ele>
        <time>2022-03-06T14:41:03Z</time>
      </trkpt>
      <trkpt lat="45.34709" lon="5.859">
        <ele>1517</ele>
        <time>2022-03-06T14:41:04Z</time>
      </trkpt>
      <trkpt lat="45.34709" lon="5.85899">
        <ele>1517</ele>
        <time>2022-03-06T14:41:05Z</time>
      </trkpt>
      <trkpt lat="45.3471" lon="5.85898">
        <ele>1518</ele>
        <time>2022-03-06T14:41:06Z</time>
      </trkpt>
      <trkpt lat="45.34711" lon="5.85896">
        <ele>1518</ele>
        <time>2022-03-06T14:41:07Z</time>
      </trkpt>
      <trkpt lat="45.34711" lon="5.85894">
        <ele>1518</ele>
        <time>2022-03-06T14:41:08Z</time>
      </trkpt>
      <trkpt lat="45.34712" lon="5.85892">
        <ele>1518</ele>
        <time>2022-03-06T14:41:09Z</time>
      </trkpt>
      <trkpt lat="45.34713" lon="5.8589">
        <ele>1518</ele>
        <time>2022-03-06T14:41:10Z</time>
      </trkpt>
      <trkpt lat="45.34713" lon="5.85889">
        <ele>1518</ele>
        <time>2022-03-06T14:41:11Z</time>
      </trkpt>
      <trkpt lat="45.34714" lon="5.85887">
        <ele>1518</ele>
        <time>2022-03-06T14:41:12Z</time>
      </trkpt>
      <trkpt lat="45.34715" lon="5.85885">
        <ele>1518</ele>
        <time>2022-03-06T14:41:13Z</time>
      </trkpt>
      <trkpt lat="45.34716" lon="5.85884">
        <ele>1518</ele>
        <time>2022-03-06T14:41:14Z</time>
      </trkpt>
      <trkpt lat="45.34717" lon="5.85884">
        <ele>1518</ele>
        <time>2022-03-06T14:41:15Z</time>
      </trkpt>
      <trkpt lat="45.34719" lon="5.85883">
        <ele>1518</ele>
        <time>2022-03-06T14:41:16Z</time>
      </trkpt>
      <trkpt lat="45.3472" lon="5.85882">
        <ele>1518</ele>
        <time>2022-03-06T14:41:17Z</time>
      </trkpt>
      <trkpt lat="45.34721" lon="5.85881">
        <ele>1518</ele>
        <time>2022-03-06T14:41:18Z</time>
      </trkpt>
      <trkpt lat="45.34722" lon="5.85881">
        <ele>1518</ele>
        <time>2022-03-06T14:41:19Z</time>
      </trkpt>
      <trkpt lat="45.34724" lon="5.8588">
        <ele>1517</ele>
        <time>2022-03-06T14:41:20Z</time>
      </trkpt>
      <trkpt lat="45.34724" lon="5.85879">
        <ele>1517</ele>
        <time>2022-03-06T14:41:21Z</time>
      </trkpt>
      <trkpt lat="45.34725" lon="5.85878">
        <ele>1517</ele>
        <time>2022-03-06T14:41:22Z</time>
      </trkpt>
      <trkpt lat="45.34726" lon="5.85877">
        <ele>1517</ele>
        <time>2022-03-06T14:41:23Z</time>
      </trkpt>
      <trkpt lat="45.34726" lon="5.85876">
        <ele>1517</ele>
        <time>2022-03-06T14:41:24Z</time>
      </trkpt>
      <trkpt lat="45.34727" lon="5.85875">
        <ele>1517</ele>
        <time>2022-03-06T14:41:25Z</time>
      </trkpt>
      <trkpt lat="45.34728" lon="5.85874">
        <ele>1517</ele>
        <time>2022-03-06T14:41:26Z</time>
      </trkpt>
      <trkpt lat="45.34729" lon="5.85873">
        <ele>1517</ele>
        <time>2022-03-06T14:41:28Z</time>
      </trkpt>
      <trkpt lat="45.3473" lon="5.85872">
        <ele>1517</ele>
        <time>2022-03-06T14:41:29Z</time>
      </trkpt>
      <trkpt lat="45.3473" lon="5.85871">
        <ele>1517</ele>
        <time>2022-03-06T14:41:30Z</time>
      </trkpt>
      <trkpt lat="45.34731" lon="5.8587">
        <ele>1517</ele>
        <time>2022-03-06T14:41:31Z</time>
      </trkpt>
      <trkpt lat="45.34732" lon="5.85869">
        <ele>1517</ele>
        <time>2022-03-06T14:41:32Z</time>
      </trkpt>
      <trkpt lat="45.34733" lon="5.85868">
        <ele>1517</ele>
        <time>2022-03-06T14:41:34Z</time>
      </trkpt>
      <trkpt lat="45.34734" lon="5.85867">
        <ele>1517</ele>
        <time>2022-03-06T14:41:35Z</time>
      </trkpt>
      <trkpt lat="45.34735" lon="5.85866">
        <ele>1517</ele>
        <time>2022-03-06T14:41:36Z</time>
      </trkpt>
      <trkpt lat="45.34736" lon="5.85865">
        <ele>1517</ele>
        <time>2022-03-06T14:41:38Z</time>
      </trkpt>
      <trkpt lat="45.34737" lon="5.85864">
        <ele>1517</ele>
        <time>2022-03-06T14:41:39Z</time>
      </trkpt>
      <trkpt lat="45.34738" lon="5.85863">
        <ele>1517</ele>
        <time>2022-03-06T14:41:40Z</time>
      </trkpt>
      <trkpt lat="45.34739" lon="5.85863">
        <ele>1517</ele>
        <time>2022-03-06T14:41:41Z</time>
      </trkpt>
      <trkpt lat="45.3474" lon="5.85862">
        <ele>1517</ele>
        <time>2022-03-06T14:41:42Z</time>
      </trkpt>
      <trkpt lat="45.34741" lon="5.85862">
        <ele>1517</ele>
        <time>2022-03-06T14:41:43Z</time>
      </trkpt>
      <trkpt lat="45.34742" lon="5.85861">
        <ele>1518</ele>
        <time>2022-03-06T14:41:44Z</time>
      </trkpt>
      <trkpt lat="45.34743" lon="5.85861">
        <ele>1518</ele>
        <time>2022-03-06T14:41:46Z</time>
      </trkpt>
      <trkpt lat="45.34744" lon="5.85861">
        <ele>1518</ele>
        <time>2022-03-06T14:41:47Z</time>
      </trkpt>
      <trkpt lat="45.34746" lon="5.8586">
        <ele>1518</ele>
        <time>2022-03-06T14:41:48Z</time>
      </trkpt>
      <trkpt lat="45.34747" lon="5.8586">
        <ele>1519</ele>
        <time>2022-03-06T14:41:49Z</time>
      </trkpt>
      <trkpt lat="45.34747" lon="5.85859">
        <ele>1519</ele>
        <time>2022-03-06T14:41:50Z</time>
      </trkpt>
      <trkpt lat="45.34748" lon="5.85858">
        <ele>1519</ele>
        <time>2022-03-06T14:41:51Z</time>
      </trkpt>
      <trkpt lat="45.34749" lon="5.85857">
        <ele>1519</ele>
        <time>2022-03-06T14:41:52Z</time>
      </trkpt>
      <trkpt lat="45.34749" lon="5.85856">
        <ele>1519</ele>
        <time>2022-03-06T14:41:53Z</time>
      </trkpt>
      <trkpt lat="45.3475" lon="5.85855">
        <ele>1519</ele>
        <time>2022-03-06T14:41:54Z</time>
      </trkpt>
      <trkpt lat="45.34751" lon="5.85855">
        <ele>1519</ele>
        <time>2022-03-06T14:41:55Z</time>
      </trkpt>
      <trkpt lat="45.34751" lon="5.85854">
        <ele>1519</ele>
        <time>2022-03-06T14:41:56Z</time>
      </trkpt>
      <trkpt lat="45.34752" lon="5.85853">
        <ele>1519</ele>
        <time>2022-03-06T14:41:57Z</time>
      </trkpt>
      <trkpt lat="45.34753" lon="5.85852">
        <ele>1519</ele>
        <time>2022-03-06T14:41:59Z</time>
      </trkpt>
      <trkpt lat="45.34754" lon="5.85851">
        <ele>1519</ele>
        <time>2022-03-06T14:42:00Z</time>
      </trkpt>
      <trkpt lat="45.34755" lon="5.8585">
        <ele>1518</ele>
        <time>2022-03-06T14:42:02Z</time>
      </trkpt>
      <trkpt lat="45.34756" lon="5.85849">
        <ele>1518</ele>
        <time>2022-03-06T14:42:05Z</time>
      </trkpt>
      <trkpt lat="45.34756" lon="5.85848">
        <ele>1518</ele>
        <time>2022-03-06T14:42:06Z</time>
      </trkpt>
      <trkpt lat="45.34757" lon="5.85848">
        <ele>1518</ele>
        <time>2022-03-06T14:42:07Z</time>
      </trkpt>
      <trkpt lat="45.34758" lon="5.85847">
        <ele>1518</ele>
        <time>2022-03-06T14:42:08Z</time>
      </trkpt>
      <trkpt lat="45.34758" lon="5.85846">
        <ele>1518</ele>
        <time>2022-03-06T14:42:09Z</time>
      </trkpt>
      <trkpt lat="45.34759" lon="5.85846">
        <ele>1518</ele>
        <time>2022-03-06T14:42:10Z</time>
      </trkpt>
      <trkpt lat="45.3476" lon="5.85845">
        <ele>1518</ele>
        <time>2022-03-06T14:42:11Z</time>
      </trkpt>
      <trkpt lat="45.34761" lon="5.85844">
        <ele>1518</ele>
        <time>2022-03-06T14:42:12Z</time>
      </trkpt>
      <trkpt lat="45.34762" lon="5.85843">
        <ele>1518</ele>
        <time>2022-03-06T14:42:13Z</time>
      </trkpt>
      <trkpt lat="45.34763" lon="5.85842">
        <ele>1517</ele>
        <time>2022-03-06T14:42:14Z</time>
      </trkpt>
      <trkpt lat="45.34764" lon="5.85842">
        <ele>1517</ele>
        <time>2022-03-06T14:42:15Z</time>
      </trkpt>
      <trkpt lat="45.34765" lon="5.85841">
        <ele>1517</ele>
        <time>2022-03-06T14:42:16Z</time>
      </trkpt>
      <trkpt lat="45.34766" lon="5.8584">
        <ele>1517</ele>
        <time>2022-03-06T14:42:17Z</time>
      </trkpt>
      <trkpt lat="45.34767" lon="5.85839">
        <ele>1517</ele>
        <time>2022-03-06T14:42:18Z</time>
      </trkpt>
      <trkpt lat="45.34768" lon="5.85838">
        <ele>1518</ele>
        <time>2022-03-06T14:42:19Z</time>
      </trkpt>
      <trkpt lat="45.34769" lon="5.85837">
        <ele>1518</ele>
        <time>2022-03-06T14:42:20Z</time>
      </trkpt>
      <trkpt lat="45.3477" lon="5.85836">
        <ele>1518</ele>
        <time>2022-03-06T14:42:21Z</time>
      </trkpt>
      <trkpt lat="45.34771" lon="5.85835">
        <ele>1518</ele>
        <time>2022-03-06T14:42:22Z</time>
      </trkpt>
      <trkpt lat="45.34773" lon="5.85833">
        <ele>1518</ele>
        <time>2022-03-06T14:42:23Z</time>
      </trkpt>
      <trkpt lat="45.34774" lon="5.85832">
        <ele>1518</ele>
        <time>2022-03-06T14:42:24Z</time>
      </trkpt>
      <trkpt lat="45.34775" lon="5.85831">
        <ele>1518</ele>
        <time>2022-03-06T14:42:25Z</time>
      </trkpt>
      <trkpt lat="45.34776" lon="5.85831">
        <ele>1518</ele>
        <time>2022-03-06T14:42:26Z</time>
      </trkpt>
      <trkpt lat="45.34777" lon="5.8583">
        <ele>1518</ele>
        <time>2022-03-06T14:42:27Z</time>
      </trkpt>
      <trkpt lat="45.34778" lon="5.8583">
        <ele>1518</ele>
        <time>2022-03-06T14:42:28Z</time>
      </trkpt>
      <trkpt lat="45.34779" lon="5.8583">
        <ele>1518</ele>
        <time>2022-03-06T14:42:29Z</time>
      </trkpt>
      <trkpt lat="45.34779" lon="5.85829">
        <ele>1518</ele>
        <time>2022-03-06T14:42:30Z</time>
      </trkpt>
      <trkpt lat="45.3478" lon="5.85829">
        <ele>1517</ele>
        <time>2022-03-06T14:42:31Z</time>
      </trkpt>
      <trkpt lat="45.34781" lon="5.85828">
        <ele>1517</ele>
        <time>2022-03-06T14:42:32Z</time>
      </trkpt>
      <trkpt lat="45.34782" lon="5.85828">
        <ele>1518</ele>
        <time>2022-03-06T14:42:33Z</time>
      </trkpt>
      <trkpt lat="45.34783" lon="5.85827">
        <ele>1518</ele>
        <time>2022-03-06T14:42:34Z</time>
      </trkpt>
      <trkpt lat="45.34784" lon="5.85827">
        <ele>1518</ele>
        <time>2022-03-06T14:42:35Z</time>
      </trkpt>
      <trkpt lat="45.34784" lon="5.85825">
        <ele>1518</ele>
        <time>2022-03-06T14:42:36Z</time>
      </trkpt>
      <trkpt lat="45.34785" lon="5.85824">
        <ele>1518</ele>
        <time>2022-03-06T14:42:37Z</time>
      </trkpt>
      <trkpt lat="45.34786" lon="5.85822">
        <ele>1518</ele>
        <time>2022-03-06T14:42:38Z</time>
      </trkpt>
      <trkpt lat="45.34786" lon="5.8582">
        <ele>1518</ele>
        <time>2022-03-06T14:42:39Z</time>
      </trkpt>
      <trkpt lat="45.34787" lon="5.85818">
        <ele>1518</ele>
        <time>2022-03-06T14:42:40Z</time>
      </trkpt>
      <trkpt lat="45.34788" lon="5.85817">
        <ele>1518</ele>
        <time>2022-03-06T14:42:41Z</time>
      </trkpt>
      <trkpt lat="45.34788" lon="5.85815">
        <ele>1518</ele>
        <time>2022-03-06T14:42:42Z</time>
      </trkpt>
      <trkpt lat="45.34789" lon="5.85814">
        <ele>1518</ele>
        <time>2022-03-06T14:42:43Z</time>
      </trkpt>
      <trkpt lat="45.3479" lon="5.85812">
        <ele>1518</ele>
        <time>2022-03-06T14:42:44Z</time>
      </trkpt>
      <trkpt lat="45.34791" lon="5.85811">
        <ele>1518</ele>
        <time>2022-03-06T14:42:45Z</time>
      </trkpt>
      <trkpt lat="45.34792" lon="5.8581">
        <ele>1518</ele>
        <time>2022-03-06T14:42:46Z</time>
      </trkpt>
      <trkpt lat="45.34793" lon="5.85809">
        <ele>1518</ele>
        <time>2022-03-06T14:42:47Z</time>
      </trkpt>
      <trkpt lat="45.34793" lon="5.85808">
        <ele>1518</ele>
        <time>2022-03-06T14:42:48Z</time>
      </trkpt>
      <trkpt lat="45.34794" lon="5.85806">
        <ele>1518</ele>
        <time>2022-03-06T14:42:49Z</time>
      </trkpt>
      <trkpt lat="45.34795" lon="5.85805">
        <ele>1518</ele>
        <time>2022-03-06T14:42:50Z</time>
      </trkpt>
      <trkpt lat="45.34796" lon="5.85804">
        <ele>1518</ele>
        <time>2022-03-06T14:42:51Z</time>
      </trkpt>
      <trkpt lat="45.34797" lon="5.85803">
        <ele>1518</ele>
        <time>2022-03-06T14:42:53Z</time>
      </trkpt>
      <trkpt lat="45.34798" lon="5.85802">
        <ele>1518</ele>
        <time>2022-03-06T14:42:55Z</time>
      </trkpt>
      <trkpt lat="45.34798" lon="5.85801">
        <ele>1518</ele>
        <time>2022-03-06T14:42:56Z</time>
      </trkpt>
      <trkpt lat="45.34799" lon="5.85801">
        <ele>1518</ele>
        <time>2022-03-06T14:42:57Z</time>
      </trkpt>
      <trkpt lat="45.34799" lon="5.858">
        <ele>1518</ele>
        <time>2022-03-06T14:42:58Z</time>
      </trkpt>
      <trkpt lat="45.348" lon="5.858">
        <ele>1518</ele>
        <time>2022-03-06T14:42:59Z</time>
      </trkpt>
      <trkpt lat="45.348" lon="5.85799">
        <ele>1518</ele>
        <time>2022-03-06T14:43:00Z</time>
      </trkpt>
      <trkpt lat="45.34801" lon="5.85798">
        <ele>1518</ele>
        <time>2022-03-06T14:43:01Z</time>
      </trkpt>
      <trkpt lat="45.34801" lon="5.85797">
        <ele>1519</ele>
        <time>2022-03-06T14:43:03Z</time>
      </trkpt>
      <trkpt lat="45.34802" lon="5.85796">
        <ele>1519</ele>
        <time>2022-03-06T14:43:04Z</time>
      </trkpt>
      <trkpt lat="45.34802" lon="5.85796">
        <ele>1519</ele>
        <time>2022-03-06T14:43:08Z</time>
      </trkpt>
      <trkpt lat="45.34802" lon="5.85796">
        <ele>1520</ele>
        <time>2022-03-06T14:43:12Z</time>
      </trkpt>
      <trkpt lat="45.34802" lon="5.85796">
        <ele>1520</ele>
        <time>2022-03-06T14:43:16Z</time>
      </trkpt>
      <trkpt lat="45.34802" lon="5.85796">
        <ele>1519</ele>
        <time>2022-03-06T14:43:20Z</time>
      </trkpt>
      <trkpt lat="45.34802" lon="5.85796">
        <ele>1520</ele>
        <time>2022-03-06T14:43:24Z</time>
      </trkpt>
      <trkpt lat="45.34802" lon="5.85796">
        <ele>1520</ele>
        <time>2022-03-06T14:43:28Z</time>
      </trkpt>
      <trkpt lat="45.34802" lon="5.85796">
        <ele>1520</ele>
        <time>2022-03-06T14:43:32Z</time>
      </trkpt>
      <trkpt lat="45.34802" lon="5.85796">
        <ele>1519</ele>
        <time>2022-03-06T14:43:36Z</time>
      </trkpt>
      <trkpt lat="45.34802" lon="5.85796">
        <ele>1519</ele>
        <time>2022-03-06T14:43:40Z</time>
      </trkpt>
      <trkpt lat="45.34802" lon="5.85796">
        <ele>1520</ele>
        <time>2022-03-06T14:43:44Z</time>
      </trkpt>
      <trkpt lat="45.348" lon="5.85795">
        <ele>1520</ele>
        <time>2022-03-06T14:43:46Z</time>
      </trkpt>
      <trkpt lat="45.34801" lon="5.85794">
        <ele>1520</ele>
        <time>2022-03-06T14:43:49Z</time>
      </trkpt>
      <trkpt lat="45.34802" lon="5.85794">
        <ele>1520</ele>
        <time>2022-03-06T14:43:50Z</time>
      </trkpt>
      <trkpt lat="45.34803" lon="5.85794">
        <ele>1520</ele>
        <time>2022-03-06T14:43:52Z</time>
      </trkpt>
      <trkpt lat="45.34804" lon="5.85794">
        <ele>1520</ele>
        <time>2022-03-06T14:43:54Z</time>
      </trkpt>
      <trkpt lat="45.34805" lon="5.85793">
        <ele>1520</ele>
        <time>2022-03-06T14:43:55Z</time>
      </trkpt>
      <trkpt lat="45.34807" lon="5.85792">
        <ele>1520</ele>
        <time>2022-03-06T14:43:59Z</time>
      </trkpt>
      <trkpt lat="45.34807" lon="5.85792">
        <ele>1521</ele>
        <time>2022-03-06T14:44:00Z</time>
      </trkpt>
      <trkpt lat="45.34808" lon="5.85791">
        <ele>1521</ele>
        <time>2022-03-06T14:44:02Z</time>
      </trkpt>
      <trkpt lat="45.34809" lon="5.85791">
        <ele>1521</ele>
        <time>2022-03-06T14:44:04Z</time>
      </trkpt>
      <trkpt lat="45.3481" lon="5.8579">
        <ele>1521</ele>
        <time>2022-03-06T14:44:06Z</time>
      </trkpt>
      <trkpt lat="45.34811" lon="5.8579">
        <ele>1522</ele>
        <time>2022-03-06T14:44:08Z</time>
      </trkpt>
      <trkpt lat="45.34812" lon="5.85789">
        <ele>1522</ele>
        <time>2022-03-06T14:44:10Z</time>
      </trkpt>
      <trkpt lat="45.34813" lon="5.85789">
        <ele>1524</ele>
        <time>2022-03-06T14:44:11Z</time>
      </trkpt>
      <trkpt lat="45.34814" lon="5.85789">
        <ele>1524</ele>
        <time>2022-03-06T14:44:12Z</time>
      </trkpt>
      <trkpt lat="45.34815" lon="5.85788">
        <ele>1525</ele>
        <time>2022-03-06T14:44:14Z</time>
      </trkpt>
      <trkpt lat="45.34816" lon="5.85788">
        <ele>1525</ele>
        <time>2022-03-06T14:44:15Z</time>
      </trkpt>
      <trkpt lat="45.34817" lon="5.85787">
        <ele>1525</ele>
        <time>2022-03-06T14:44:18Z</time>
      </trkpt>
      <trkpt lat="45.34818" lon="5.85787">
        <ele>1525</ele>
        <time>2022-03-06T14:44:19Z</time>
      </trkpt>
      <trkpt lat="45.34819" lon="5.85787">
        <ele>1526</ele>
        <time>2022-03-06T14:44:20Z</time>
      </trkpt>
      <trkpt lat="45.3482" lon="5.85786">
        <ele>1526</ele>
        <time>2022-03-06T14:44:22Z</time>
      </trkpt>
      <trkpt lat="45.34821" lon="5.85786">
        <ele>1526</ele>
        <time>2022-03-06T14:44:23Z</time>
      </trkpt>
      <trkpt lat="45.34822" lon="5.85786">
        <ele>1527</ele>
        <time>2022-03-06T14:44:25Z</time>
      </trkpt>
      <trkpt lat="45.34823" lon="5.85786">
        <ele>1527</ele>
        <time>2022-03-06T14:44:26Z</time>
      </trkpt>
      <trkpt lat="45.34824" lon="5.85786">
        <ele>1528</ele>
        <time>2022-03-06T14:44:27Z</time>
      </trkpt>
      <trkpt lat="45.34825" lon="5.85786">
        <ele>1528</ele>
        <time>2022-03-06T14:44:29Z</time>
      </trkpt>
      <trkpt lat="45.34826" lon="5.85786">
        <ele>1528</ele>
        <time>2022-03-06T14:44:30Z</time>
      </trkpt>
      <trkpt lat="45.34826" lon="5.85785">
        <ele>1529</ele>
        <time>2022-03-06T14:44:31Z</time>
      </trkpt>
      <trkpt lat="45.34827" lon="5.85785">
        <ele>1529</ele>
        <time>2022-03-06T14:44:32Z</time>
      </trkpt>
      <trkpt lat="45.34828" lon="5.85785">
        <ele>1529</ele>
        <time>2022-03-06T14:44:33Z</time>
      </trkpt>
      <trkpt lat="45.34829" lon="5.85785">
        <ele>1529</ele>
        <time>2022-03-06T14:44:34Z</time>
      </trkpt>
      <trkpt lat="45.3483" lon="5.85785">
        <ele>1530</ele>
        <time>2022-03-06T14:44:36Z</time>
      </trkpt>
      <trkpt lat="45.34832" lon="5.85783">
        <ele>1530</ele>
        <time>2022-03-06T14:44:38Z</time>
      </trkpt>
      <trkpt lat="45.34832" lon="5.85783">
        <ele>1530</ele>
        <time>2022-03-06T14:44:40Z</time>
      </trkpt>
      <trkpt lat="45.34835" lon="5.85783">
        <ele>1531</ele>
        <time>2022-03-06T14:44:42Z</time>
      </trkpt>
      <trkpt lat="45.34837" lon="5.85783">
        <ele>1531</ele>
        <time>2022-03-06T14:44:45Z</time>
      </trkpt>
      <trkpt lat="45.34837" lon="5.85783">
        <ele>1532</ele>
        <time>2022-03-06T14:44:46Z</time>
      </trkpt>
      <trkpt lat="45.34839" lon="5.85782">
        <ele>1532</ele>
        <time>2022-03-06T14:44:48Z</time>
      </trkpt>
      <trkpt lat="45.3484" lon="5.8578">
        <ele>1533</ele>
        <time>2022-03-06T14:44:51Z</time>
      </trkpt>
      <trkpt lat="45.3484" lon="5.8578">
        <ele>1533</ele>
        <time>2022-03-06T14:44:52Z</time>
      </trkpt>
      <trkpt lat="45.34842" lon="5.85776">
        <ele>1533</ele>
        <time>2022-03-06T14:44:55Z</time>
      </trkpt>
      <trkpt lat="45.34842" lon="5.85775">
        <ele>1534</ele>
        <time>2022-03-06T14:44:57Z</time>
      </trkpt>
      <trkpt lat="45.34842" lon="5.85774">
        <ele>1534</ele>
        <time>2022-03-06T14:44:58Z</time>
      </trkpt>
      <trkpt lat="45.34842" lon="5.85773">
        <ele>1534</ele>
        <time>2022-03-06T14:44:59Z</time>
      </trkpt>
      <trkpt lat="45.34842" lon="5.85772">
        <ele>1534</ele>
        <time>2022-03-06T14:45:01Z</time>
      </trkpt>
      <trkpt lat="45.34842" lon="5.85771">
        <ele>1535</ele>
        <time>2022-03-06T14:45:02Z</time>
      </trkpt>
      <trkpt lat="45.34842" lon="5.8577">
        <ele>1535</ele>
        <time>2022-03-06T14:45:03Z</time>
      </trkpt>
      <trkpt lat="45.34842" lon="5.85769">
        <ele>1535</ele>
        <time>2022-03-06T14:45:05Z</time>
      </trkpt>
      <trkpt lat="45.34842" lon="5.85768">
        <ele>1535</ele>
        <time>2022-03-06T14:45:06Z</time>
      </trkpt>
      <trkpt lat="45.34843" lon="5.85768">
        <ele>1535</ele>
        <time>2022-03-06T14:45:07Z</time>
      </trkpt>
      <trkpt lat="45.34843" lon="5.85767">
        <ele>1536</ele>
        <time>2022-03-06T14:45:08Z</time>
      </trkpt>
      <trkpt lat="45.34844" lon="5.85767">
        <ele>1536</ele>
        <time>2022-03-06T14:45:09Z</time>
      </trkpt>
      <trkpt lat="45.34844" lon="5.85766">
        <ele>1536</ele>
        <time>2022-03-06T14:45:10Z</time>
      </trkpt>
      <trkpt lat="45.34845" lon="5.85766">
        <ele>1536</ele>
        <time>2022-03-06T14:45:11Z</time>
      </trkpt>
      <trkpt lat="45.34845" lon="5.85765">
        <ele>1536</ele>
        <time>2022-03-06T14:45:12Z</time>
      </trkpt>
      <trkpt lat="45.34846" lon="5.85765">
        <ele>1536</ele>
        <time>2022-03-06T14:45:13Z</time>
      </trkpt>
      <trkpt lat="45.34846" lon="5.85764">
        <ele>1537</ele>
        <time>2022-03-06T14:45:14Z</time>
      </trkpt>
      <trkpt lat="45.34847" lon="5.85763">
        <ele>1537</ele>
        <time>2022-03-06T14:45:15Z</time>
      </trkpt>
      <trkpt lat="45.34848" lon="5.85762">
        <ele>1538</ele>
        <time>2022-03-06T14:45:17Z</time>
      </trkpt>
      <trkpt lat="45.34849" lon="5.85761">
        <ele>1539</ele>
        <time>2022-03-06T14:45:19Z</time>
      </trkpt>
      <trkpt lat="45.34849" lon="5.85761">
        <ele>1539</ele>
        <time>2022-03-06T14:45:21Z</time>
      </trkpt>
      <trkpt lat="45.34852" lon="5.8576">
        <ele>1539</ele>
        <time>2022-03-06T14:45:24Z</time>
      </trkpt>
      <trkpt lat="45.34852" lon="5.8576">
        <ele>1539</ele>
        <time>2022-03-06T14:45:26Z</time>
      </trkpt>
      <trkpt lat="45.34853" lon="5.85758">
        <ele>1539</ele>
        <time>2022-03-06T14:45:27Z</time>
      </trkpt>
      <trkpt lat="45.34855" lon="5.85755">
        <ele>1541</ele>
        <time>2022-03-06T14:45:31Z</time>
      </trkpt>
      <trkpt lat="45.34855" lon="5.85755">
        <ele>1541</ele>
        <time>2022-03-06T14:45:32Z</time>
      </trkpt>
      <trkpt lat="45.34857" lon="5.85755">
        <ele>1542</ele>
        <time>2022-03-06T14:45:34Z</time>
      </trkpt>
      <trkpt lat="45.34857" lon="5.85755">
        <ele>1542</ele>
        <time>2022-03-06T14:45:37Z</time>
      </trkpt>
      <trkpt lat="45.34859" lon="5.85753">
        <ele>1542</ele>
        <time>2022-03-06T14:45:38Z</time>
      </trkpt>
      <trkpt lat="45.3486" lon="5.85753">
        <ele>1542</ele>
        <time>2022-03-06T14:45:39Z</time>
      </trkpt>
      <trkpt lat="45.34861" lon="5.85752">
        <ele>1543</ele>
        <time>2022-03-06T14:45:41Z</time>
      </trkpt>
      <trkpt lat="45.34862" lon="5.85752">
        <ele>1543</ele>
        <time>2022-03-06T14:45:43Z</time>
      </trkpt>
      <trkpt lat="45.34863" lon="5.85752">
        <ele>1544</ele>
        <time>2022-03-06T14:45:44Z</time>
      </trkpt>
      <trkpt lat="45.34863" lon="5.85751">
        <ele>1544</ele>
        <time>2022-03-06T14:45:45Z</time>
      </trkpt>
      <trkpt lat="45.34863" lon="5.85749">
        <ele>1544</ele>
        <time>2022-03-06T14:45:48Z</time>
      </trkpt>
      <trkpt lat="45.34863" lon="5.85749">
        <ele>1544</ele>
        <time>2022-03-06T14:45:50Z</time>
      </trkpt>
      <trkpt lat="45.34865" lon="5.85746">
        <ele>1544</ele>
        <time>2022-03-06T14:45:51Z</time>
      </trkpt>
      <trkpt lat="45.34865" lon="5.85745">
        <ele>1545</ele>
        <time>2022-03-06T14:45:52Z</time>
      </trkpt>
      <trkpt lat="45.34866" lon="5.85744">
        <ele>1545</ele>
        <time>2022-03-06T14:45:53Z</time>
      </trkpt>
      <trkpt lat="45.34866" lon="5.85743">
        <ele>1545</ele>
        <time>2022-03-06T14:45:54Z</time>
      </trkpt>
      <trkpt lat="45.34867" lon="5.85742">
        <ele>1546</ele>
        <time>2022-03-06T14:45:55Z</time>
      </trkpt>
      <trkpt lat="45.34867" lon="5.85741">
        <ele>1546</ele>
        <time>2022-03-06T14:45:56Z</time>
      </trkpt>
      <trkpt lat="45.34868" lon="5.8574">
        <ele>1546</ele>
        <time>2022-03-06T14:45:57Z</time>
      </trkpt>
      <trkpt lat="45.34869" lon="5.85739">
        <ele>1547</ele>
        <time>2022-03-06T14:45:59Z</time>
      </trkpt>
      <trkpt lat="45.34869" lon="5.85738">
        <ele>1547</ele>
        <time>2022-03-06T14:46:00Z</time>
      </trkpt>
      <trkpt lat="45.3487" lon="5.85737">
        <ele>1548</ele>
        <time>2022-03-06T14:46:01Z</time>
      </trkpt>
      <trkpt lat="45.3487" lon="5.85736">
        <ele>1548</ele>
        <time>2022-03-06T14:46:02Z</time>
      </trkpt>
      <trkpt lat="45.34871" lon="5.85735">
        <ele>1548</ele>
        <time>2022-03-06T14:46:03Z</time>
      </trkpt>
      <trkpt lat="45.34872" lon="5.85735">
        <ele>1548</ele>
        <time>2022-03-06T14:46:05Z</time>
      </trkpt>
      <trkpt lat="45.34872" lon="5.85734">
        <ele>1548</ele>
        <time>2022-03-06T14:46:06Z</time>
      </trkpt>
      <trkpt lat="45.34873" lon="5.85734">
        <ele>1549</ele>
        <time>2022-03-06T14:46:07Z</time>
      </trkpt>
      <trkpt lat="45.34874" lon="5.85734">
        <ele>1549</ele>
        <time>2022-03-06T14:46:09Z</time>
      </trkpt>
      <trkpt lat="45.34874" lon="5.85733">
        <ele>1549</ele>
        <time>2022-03-06T14:46:10Z</time>
      </trkpt>
      <trkpt lat="45.34875" lon="5.85733">
        <ele>1550</ele>
        <time>2022-03-06T14:46:11Z</time>
      </trkpt>
      <trkpt lat="45.34876" lon="5.85732">
        <ele>1551</ele>
        <time>2022-03-06T14:46:14Z</time>
      </trkpt>
      <trkpt lat="45.34877" lon="5.85732">
        <ele>1552</ele>
        <time>2022-03-06T14:46:16Z</time>
      </trkpt>
      <trkpt lat="45.34878" lon="5.85731">
        <ele>1552</ele>
        <time>2022-03-06T14:46:18Z</time>
      </trkpt>
      <trkpt lat="45.34878" lon="5.85731">
        <ele>1552</ele>
        <time>2022-03-06T14:46:20Z</time>
      </trkpt>
      <trkpt lat="45.3488" lon="5.8573">
        <ele>1552</ele>
        <time>2022-03-06T14:46:22Z</time>
      </trkpt>
      <trkpt lat="45.34883" lon="5.8573">
        <ele>1553</ele>
        <time>2022-03-06T14:46:25Z</time>
      </trkpt>
      <trkpt lat="45.34883" lon="5.8573">
        <ele>1553</ele>
        <time>2022-03-06T14:46:26Z</time>
      </trkpt>
      <trkpt lat="45.34885" lon="5.85729">
        <ele>1553</ele>
        <time>2022-03-06T14:46:27Z</time>
      </trkpt>
      <trkpt lat="45.34888" lon="5.85729">
        <ele>1553</ele>
        <time>2022-03-06T14:46:29Z</time>
      </trkpt>
      <trkpt lat="45.34889" lon="5.85728">
        <ele>1554</ele>
        <time>2022-03-06T14:46:32Z</time>
      </trkpt>
      <trkpt lat="45.34889" lon="5.85728">
        <ele>1554</ele>
        <time>2022-03-06T14:46:33Z</time>
      </trkpt>
      <trkpt lat="45.3489" lon="5.85726">
        <ele>1554</ele>
        <time>2022-03-06T14:46:35Z</time>
      </trkpt>
      <trkpt lat="45.34894" lon="5.85726">
        <ele>1555</ele>
        <time>2022-03-06T14:46:38Z</time>
      </trkpt>
      <trkpt lat="45.34894" lon="5.85726">
        <ele>1555</ele>
        <time>2022-03-06T14:46:39Z</time>
      </trkpt>
      <trkpt lat="45.34896" lon="5.85725">
        <ele>1555</ele>
        <time>2022-03-06T14:46:41Z</time>
      </trkpt>
      <trkpt lat="45.34898" lon="5.85725">
        <ele>1556</ele>
        <time>2022-03-06T14:46:42Z</time>
      </trkpt>
      <trkpt lat="45.349" lon="5.85724">
        <ele>1556</ele>
        <time>2022-03-06T14:46:46Z</time>
      </trkpt>
      <trkpt lat="45.349" lon="5.85724">
        <ele>1556</ele>
        <time>2022-03-06T14:46:47Z</time>
      </trkpt>
      <trkpt lat="45.349" lon="5.85724">
        <ele>1557</ele>
        <time>2022-03-06T14:46:51Z</time>
      </trkpt>
      <trkpt lat="45.34901" lon="5.85722">
        <ele>1557</ele>
        <time>2022-03-06T14:46:52Z</time>
      </trkpt>
      <trkpt lat="45.34901" lon="5.85718">
        <ele>1558</ele>
        <time>2022-03-06T14:46:55Z</time>
      </trkpt>
      <trkpt lat="45.349" lon="5.85716">
        <ele>1559</ele>
        <time>2022-03-06T14:46:57Z</time>
      </trkpt>
      <trkpt lat="45.349" lon="5.85716">
        <ele>1560</ele>
        <time>2022-03-06T14:47:00Z</time>
      </trkpt>
      <trkpt lat="45.349" lon="5.85713">
        <ele>1560</ele>
        <time>2022-03-06T14:47:01Z</time>
      </trkpt>
      <trkpt lat="45.349" lon="5.8571">
        <ele>1560</ele>
        <time>2022-03-06T14:47:03Z</time>
      </trkpt>
      <trkpt lat="45.34899" lon="5.85708">
        <ele>1561</ele>
        <time>2022-03-06T14:47:06Z</time>
      </trkpt>
      <trkpt lat="45.34899" lon="5.85708">
        <ele>1561</ele>
        <time>2022-03-06T14:47:07Z</time>
      </trkpt>
      <trkpt lat="45.34898" lon="5.85705">
        <ele>1562</ele>
        <time>2022-03-06T14:47:09Z</time>
      </trkpt>
      <trkpt lat="45.34898" lon="5.85705">
        <ele>1562</ele>
        <time>2022-03-06T14:47:12Z</time>
      </trkpt>
      <trkpt lat="45.34898" lon="5.85702">
        <ele>1563</ele>
        <time>2022-03-06T14:47:13Z</time>
      </trkpt>
      <trkpt lat="45.34899" lon="5.85699">
        <ele>1563</ele>
        <time>2022-03-06T14:47:14Z</time>
      </trkpt>
      <trkpt lat="45.34899" lon="5.85699">
        <ele>1564</ele>
        <time>2022-03-06T14:47:18Z</time>
      </trkpt>
      <trkpt lat="45.34902" lon="5.85698">
        <ele>1564</ele>
        <time>2022-03-06T14:47:22Z</time>
      </trkpt>
      <trkpt lat="45.34902" lon="5.85698">
        <ele>1565</ele>
        <time>2022-03-06T14:47:23Z</time>
      </trkpt>
      <trkpt lat="45.34904" lon="5.85697">
        <ele>1565</ele>
        <time>2022-03-06T14:47:27Z</time>
      </trkpt>
      <trkpt lat="45.34904" lon="5.85697">
        <ele>1567</ele>
        <time>2022-03-06T14:47:28Z</time>
      </trkpt>
      <trkpt lat="45.34906" lon="5.85696">
        <ele>1567</ele>
        <time>2022-03-06T14:47:31Z</time>
      </trkpt>
      <trkpt lat="45.34908" lon="5.85695">
        <ele>1567</ele>
        <time>2022-03-06T14:47:33Z</time>
      </trkpt>
      <trkpt lat="45.34908" lon="5.85695">
        <ele>1568</ele>
        <time>2022-03-06T14:47:36Z</time>
      </trkpt>
      <trkpt lat="45.3491" lon="5.85693">
        <ele>1568</ele>
        <time>2022-03-06T14:47:37Z</time>
      </trkpt>
      <trkpt lat="45.34912" lon="5.85691">
        <ele>1568</ele>
        <time>2022-03-06T14:47:39Z</time>
      </trkpt>
      <trkpt lat="45.34913" lon="5.85689">
        <ele>1569</ele>
        <time>2022-03-06T14:47:42Z</time>
      </trkpt>
      <trkpt lat="45.34913" lon="5.85689">
        <ele>1569</ele>
        <time>2022-03-06T14:47:43Z</time>
      </trkpt>
      <trkpt lat="45.34915" lon="5.85688">
        <ele>1570</ele>
        <time>2022-03-06T14:47:45Z</time>
      </trkpt>
      <trkpt lat="45.34917" lon="5.85686">
        <ele>1571</ele>
        <time>2022-03-06T14:47:48Z</time>
      </trkpt>
      <trkpt lat="45.34917" lon="5.85686">
        <ele>1571</ele>
        <time>2022-03-06T14:47:50Z</time>
      </trkpt>
      <trkpt lat="45.34918" lon="5.85684">
        <ele>1572</ele>
        <time>2022-03-06T14:47:53Z</time>
      </trkpt>
      <trkpt lat="45.34918" lon="5.85684">
        <ele>1573</ele>
        <time>2022-03-06T14:47:55Z</time>
      </trkpt>
      <trkpt lat="45.34918" lon="5.85681">
        <ele>1573</ele>
        <time>2022-03-06T14:47:57Z</time>
      </trkpt>
      <trkpt lat="45.34918" lon="5.85678">
        <ele>1573</ele>
        <time>2022-03-06T14:47:59Z</time>
      </trkpt>
      <trkpt lat="45.34918" lon="5.85678">
        <ele>1573</ele>
        <time>2022-03-06T14:48:01Z</time>
      </trkpt>
      <trkpt lat="45.34918" lon="5.85675">
        <ele>1574</ele>
        <time>2022-03-06T14:48:03Z</time>
      </trkpt>
      <trkpt lat="45.34918" lon="5.85672">
        <ele>1575</ele>
        <time>2022-03-06T14:48:06Z</time>
      </trkpt>
      <trkpt lat="45.34918" lon="5.85672">
        <ele>1575</ele>
        <time>2022-03-06T14:48:08Z</time>
      </trkpt>
      <trkpt lat="45.3492" lon="5.8567">
        <ele>1576</ele>
        <time>2022-03-06T14:48:09Z</time>
      </trkpt>
      <trkpt lat="45.3492" lon="5.8567">
        <ele>1576</ele>
        <time>2022-03-06T14:48:13Z</time>
      </trkpt>
      <trkpt lat="45.34921" lon="5.85668">
        <ele>1578</ele>
        <time>2022-03-06T14:48:17Z</time>
      </trkpt>
      <trkpt lat="45.34921" lon="5.85668">
        <ele>1578</ele>
        <time>2022-03-06T14:48:18Z</time>
      </trkpt>
      <trkpt lat="45.34923" lon="5.85667">
        <ele>1578</ele>
        <time>2022-03-06T14:48:21Z</time>
      </trkpt>
      <trkpt lat="45.34923" lon="5.85667">
        <ele>1579</ele>
        <time>2022-03-06T14:48:23Z</time>
      </trkpt>
      <trkpt lat="45.34924" lon="5.85665">
        <ele>1579</ele>
        <time>2022-03-06T14:48:25Z</time>
      </trkpt>
      <trkpt lat="45.34924" lon="5.85665">
        <ele>1579</ele>
        <time>2022-03-06T14:48:28Z</time>
      </trkpt>
      <trkpt lat="45.34924" lon="5.85665">
        <ele>1580</ele>
        <time>2022-03-06T14:48:32Z</time>
      </trkpt>
      <trkpt lat="45.34923" lon="5.85663">
        <ele>1581</ele>
        <time>2022-03-06T14:48:34Z</time>
      </trkpt>
      <trkpt lat="45.34923" lon="5.85663">
        <ele>1581</ele>
        <time>2022-03-06T14:48:37Z</time>
      </trkpt>
      <trkpt lat="45.34922" lon="5.85661">
        <ele>1581</ele>
        <time>2022-03-06T14:48:39Z</time>
      </trkpt>
      <trkpt lat="45.34922" lon="5.85661">
        <ele>1581</ele>
        <time>2022-03-06T14:48:42Z</time>
      </trkpt>
      <trkpt lat="45.34921" lon="5.85658">
        <ele>1581</ele>
        <time>2022-03-06T14:48:43Z</time>
      </trkpt>
      <trkpt lat="45.3492" lon="5.85656">
        <ele>1581</ele>
        <time>2022-03-06T14:48:47Z</time>
      </trkpt>
      <trkpt lat="45.3492" lon="5.85656">
        <ele>1581</ele>
        <time>2022-03-06T14:48:48Z</time>
      </trkpt>
      <trkpt lat="45.34922" lon="5.85653">
        <ele>1581</ele>
        <time>2022-03-06T14:48:49Z</time>
      </trkpt>
      <trkpt lat="45.34922" lon="5.8565">
        <ele>1583</ele>
        <time>2022-03-06T14:48:53Z</time>
      </trkpt>
      <trkpt lat="45.34922" lon="5.8565">
        <ele>1583</ele>
        <time>2022-03-06T14:48:54Z</time>
      </trkpt>
      <trkpt lat="45.34924" lon="5.85648">
        <ele>1583</ele>
        <time>2022-03-06T14:48:55Z</time>
      </trkpt>
      <trkpt lat="45.34926" lon="5.85646">
        <ele>1583</ele>
        <time>2022-03-06T14:48:56Z</time>
      </trkpt>
      <trkpt lat="45.34928" lon="5.85645">
        <ele>1584</ele>
        <time>2022-03-06T14:48:59Z</time>
      </trkpt>
      <trkpt lat="45.3493" lon="5.85644">
        <ele>1584</ele>
        <time>2022-03-06T14:49:01Z</time>
      </trkpt>
      <trkpt lat="45.34932" lon="5.85643">
        <ele>1585</ele>
        <time>2022-03-06T14:49:04Z</time>
      </trkpt>
      <trkpt lat="45.34932" lon="5.85643">
        <ele>1585</ele>
        <time>2022-03-06T14:49:05Z</time>
      </trkpt>
      <trkpt lat="45.34934" lon="5.85644">
        <ele>1585</ele>
        <time>2022-03-06T14:49:06Z</time>
      </trkpt>
      <trkpt lat="45.34934" lon="5.85644">
        <ele>1586</ele>
        <time>2022-03-06T14:49:10Z</time>
      </trkpt>
      <trkpt lat="45.34936" lon="5.85643">
        <ele>1586</ele>
        <time>2022-03-06T14:49:12Z</time>
      </trkpt>
      <trkpt lat="45.34936" lon="5.85643">
        <ele>1587</ele>
        <time>2022-03-06T14:49:15Z</time>
      </trkpt>
      <trkpt lat="45.34938" lon="5.85641">
        <ele>1587</ele>
        <time>2022-03-06T14:49:16Z</time>
      </trkpt>
      <trkpt lat="45.3494" lon="5.85641">
        <ele>1588</ele>
        <time>2022-03-06T14:49:19Z</time>
      </trkpt>
      <trkpt lat="45.3494" lon="5.85641">
        <ele>1588</ele>
        <time>2022-03-06T14:49:21Z</time>
      </trkpt>
      <trkpt lat="45.34942" lon="5.8564">
        <ele>1588</ele>
        <time>2022-03-06T14:49:22Z</time>
      </trkpt>
      <trkpt lat="45.34943" lon="5.85639">
        <ele>1589</ele>
        <time>2022-03-06T14:49:24Z</time>
      </trkpt>
      <trkpt lat="45.34943" lon="5.85639">
        <ele>1590</ele>
        <time>2022-03-06T14:49:27Z</time>
      </trkpt>
      <trkpt lat="45.34945" lon="5.85638">
        <ele>1590</ele>
        <time>2022-03-06T14:49:29Z</time>
      </trkpt>
      <trkpt lat="45.34947" lon="5.85637">
        <ele>1590</ele>
        <time>2022-03-06T14:49:31Z</time>
      </trkpt>
      <trkpt lat="45.34947" lon="5.85637">
        <ele>1591</ele>
        <time>2022-03-06T14:49:33Z</time>
      </trkpt>
      <trkpt lat="45.34949" lon="5.85636">
        <ele>1591</ele>
        <time>2022-03-06T14:49:34Z</time>
      </trkpt>
      <trkpt lat="45.34949" lon="5.85636">
        <ele>1592</ele>
        <time>2022-03-06T14:49:38Z</time>
      </trkpt>
      <trkpt lat="45.3495" lon="5.85634">
        <ele>1592</ele>
        <time>2022-03-06T14:49:39Z</time>
      </trkpt>
      <trkpt lat="45.34952" lon="5.85631">
        <ele>1593</ele>
        <time>2022-03-06T14:49:42Z</time>
      </trkpt>
      <trkpt lat="45.34952" lon="5.85631">
        <ele>1593</ele>
        <time>2022-03-06T14:49:44Z</time>
      </trkpt>
      <trkpt lat="45.34954" lon="5.8563">
        <ele>1593</ele>
        <time>2022-03-06T14:49:47Z</time>
      </trkpt>
      <trkpt lat="45.34954" lon="5.8563">
        <ele>1593</ele>
        <time>2022-03-06T14:49:49Z</time>
      </trkpt>
      <trkpt lat="45.34956" lon="5.85629">
        <ele>1594</ele>
        <time>2022-03-06T14:49:52Z</time>
      </trkpt>
      <trkpt lat="45.34956" lon="5.85629">
        <ele>1594</ele>
        <time>2022-03-06T14:49:54Z</time>
      </trkpt>
      <trkpt lat="45.34958" lon="5.85629">
        <ele>1596</ele>
        <time>2022-03-06T14:49:57Z</time>
      </trkpt>
      <trkpt lat="45.34958" lon="5.85629">
        <ele>1596</ele>
        <time>2022-03-06T14:50:00Z</time>
      </trkpt>
      <trkpt lat="45.3496" lon="5.85628">
        <ele>1596</ele>
        <time>2022-03-06T14:50:01Z</time>
      </trkpt>
      <trkpt lat="45.3496" lon="5.85628">
        <ele>1597</ele>
        <time>2022-03-06T14:50:05Z</time>
      </trkpt>
      <trkpt lat="45.3496" lon="5.85625">
        <ele>1597</ele>
        <time>2022-03-06T14:50:07Z</time>
      </trkpt>
      <trkpt lat="45.34961" lon="5.85623">
        <ele>1597</ele>
        <time>2022-03-06T14:50:09Z</time>
      </trkpt>
      <trkpt lat="45.34961" lon="5.85623">
        <ele>1597</ele>
        <time>2022-03-06T14:50:11Z</time>
      </trkpt>
      <trkpt lat="45.34963" lon="5.85621">
        <ele>1598</ele>
        <time>2022-03-06T14:50:12Z</time>
      </trkpt>
      <trkpt lat="45.34964" lon="5.8562">
        <ele>1599</ele>
        <time>2022-03-06T14:50:16Z</time>
      </trkpt>
      <trkpt lat="45.34964" lon="5.8562">
        <ele>1599</ele>
        <time>2022-03-06T14:50:17Z</time>
      </trkpt>
      <trkpt lat="45.34966" lon="5.85618">
        <ele>1599</ele>
        <time>2022-03-06T14:50:19Z</time>
      </trkpt>
      <trkpt lat="45.34966" lon="5.85618">
        <ele>1599</ele>
        <time>2022-03-06T14:50:22Z</time>
      </trkpt>
      <trkpt lat="45.34966" lon="5.85618">
        <ele>1600</ele>
        <time>2022-03-06T14:50:26Z</time>
      </trkpt>
      <trkpt lat="45.34966" lon="5.85618">
        <ele>1600</ele>
        <time>2022-03-06T14:50:30Z</time>
      </trkpt>
      <trkpt lat="45.34966" lon="5.85618">
        <ele>1601</ele>
        <time>2022-03-06T14:50:34Z</time>
      </trkpt>
      <trkpt lat="45.34964" lon="5.85618">
        <ele>1601</ele>
        <time>2022-03-06T14:50:35Z</time>
      </trkpt>
      <trkpt lat="45.34962" lon="5.85617">
        <ele>1601</ele>
        <time>2022-03-06T14:50:39Z</time>
      </trkpt>
      <trkpt lat="45.34962" lon="5.85617">
        <ele>1601</ele>
        <time>2022-03-06T14:50:40Z</time>
      </trkpt>
      <trkpt lat="45.34962" lon="5.85617">
        <ele>1602</ele>
        <time>2022-03-06T14:50:44Z</time>
      </trkpt>
      <trkpt lat="45.34962" lon="5.85617">
        <ele>1602</ele>
        <time>2022-03-06T14:50:48Z</time>
      </trkpt>
      <trkpt lat="45.3496" lon="5.85614">
        <ele>1602</ele>
        <time>2022-03-06T14:50:49Z</time>
      </trkpt>
      <trkpt lat="45.3496" lon="5.85614">
        <ele>1603</ele>
        <time>2022-03-06T14:50:53Z</time>
      </trkpt>
      <trkpt lat="45.34958" lon="5.8561">
        <ele>1603</ele>
        <time>2022-03-06T14:50:54Z</time>
      </trkpt>
      <trkpt lat="45.34958" lon="5.85606">
        <ele>1604</ele>
        <time>2022-03-06T14:50:58Z</time>
      </trkpt>
      <trkpt lat="45.34957" lon="5.85604">
        <ele>1604</ele>
        <time>2022-03-06T14:50:59Z</time>
      </trkpt>
      <trkpt lat="45.34956" lon="5.85601">
        <ele>1606</ele>
        <time>2022-03-06T14:51:02Z</time>
      </trkpt>
      <trkpt lat="45.34956" lon="5.85601">
        <ele>1606</ele>
        <time>2022-03-06T14:51:04Z</time>
      </trkpt>
      <trkpt lat="45.34955" lon="5.85599">
        <ele>1607</ele>
        <time>2022-03-06T14:51:06Z</time>
      </trkpt>
      <trkpt lat="45.34954" lon="5.85596">
        <ele>1607</ele>
        <time>2022-03-06T14:51:08Z</time>
      </trkpt>
      <trkpt lat="45.34954" lon="5.85596">
        <ele>1608</ele>
        <time>2022-03-06T14:51:10Z</time>
      </trkpt>
      <trkpt lat="45.34953" lon="5.85593">
        <ele>1608</ele>
        <time>2022-03-06T14:51:11Z</time>
      </trkpt>
      <trkpt lat="45.34954" lon="5.85591">
        <ele>1608</ele>
        <time>2022-03-06T14:51:15Z</time>
      </trkpt>
      <trkpt lat="45.34954" lon="5.85591">
        <ele>1608</ele>
        <time>2022-03-06T14:51:16Z</time>
      </trkpt>
      <trkpt lat="45.34956" lon="5.8559">
        <ele>1609</ele>
        <time>2022-03-06T14:51:17Z</time>
      </trkpt>
      <trkpt lat="45.34956" lon="5.8559">
        <ele>1610</ele>
        <time>2022-03-06T14:51:21Z</time>
      </trkpt>
      <trkpt lat="45.34956" lon="5.8559">
        <ele>1611</ele>
        <time>2022-03-06T14:51:25Z</time>
      </trkpt>
      <trkpt lat="45.34956" lon="5.85585">
        <ele>1611</ele>
        <time>2022-03-06T14:51:27Z</time>
      </trkpt>
      <trkpt lat="45.34956" lon="5.85585">
        <ele>1612</ele>
        <time>2022-03-06T14:51:30Z</time>
      </trkpt>
      <trkpt lat="45.34955" lon="5.85583">
        <ele>1612</ele>
        <time>2022-03-06T14:51:32Z</time>
      </trkpt>
      <trkpt lat="45.34955" lon="5.85583">
        <ele>1613</ele>
        <time>2022-03-06T14:51:35Z</time>
      </trkpt>
      <trkpt lat="45.34956" lon="5.85581">
        <ele>1613</ele>
        <time>2022-03-06T14:51:36Z</time>
      </trkpt>
      <trkpt lat="45.34956" lon="5.85581">
        <ele>1614</ele>
        <time>2022-03-06T14:51:40Z</time>
      </trkpt>
      <trkpt lat="45.34957" lon="5.85577">
        <ele>1614</ele>
        <time>2022-03-06T14:51:41Z</time>
      </trkpt>
      <trkpt lat="45.34957" lon="5.85577">
        <ele>1616</ele>
        <time>2022-03-06T14:51:45Z</time>
      </trkpt>
      <trkpt lat="45.34956" lon="5.85574">
        <ele>1616</ele>
        <time>2022-03-06T14:51:47Z</time>
      </trkpt>
      <trkpt lat="45.34955" lon="5.85571">
        <ele>1616</ele>
        <time>2022-03-06T14:51:50Z</time>
      </trkpt>
      <trkpt lat="45.34955" lon="5.85571">
        <ele>1618</ele>
        <time>2022-03-06T14:51:51Z</time>
      </trkpt>
      <trkpt lat="45.34954" lon="5.85568">
        <ele>1618</ele>
        <time>2022-03-06T14:51:53Z</time>
      </trkpt>
      <trkpt lat="45.34954" lon="5.85568">
        <ele>1618</ele>
        <time>2022-03-06T14:51:56Z</time>
      </trkpt>
      <trkpt lat="45.34951" lon="5.85567">
        <ele>1618</ele>
        <time>2022-03-06T14:51:58Z</time>
      </trkpt>
      <trkpt lat="45.3495" lon="5.85566">
        <ele>1618</ele>
        <time>2022-03-06T14:52:01Z</time>
      </trkpt>
      <trkpt lat="45.3495" lon="5.85566">
        <ele>1618</ele>
        <time>2022-03-06T14:52:02Z</time>
      </trkpt>
      <trkpt lat="45.34949" lon="5.85563">
        <ele>1618</ele>
        <time>2022-03-06T14:52:03Z</time>
      </trkpt>
      <trkpt lat="45.34947" lon="5.85561">
        <ele>1619</ele>
        <time>2022-03-06T14:52:05Z</time>
      </trkpt>
      <trkpt lat="45.34947" lon="5.85561">
        <ele>1619</ele>
        <time>2022-03-06T14:52:08Z</time>
      </trkpt>
      <trkpt lat="45.34946" lon="5.85559">
        <ele>1619</ele>
        <time>2022-03-06T14:52:09Z</time>
      </trkpt>
      <trkpt lat="45.34944" lon="5.85557">
        <ele>1620</ele>
        <time>2022-03-06T14:52:12Z</time>
      </trkpt>
      <trkpt lat="45.34944" lon="5.85557">
        <ele>1620</ele>
        <time>2022-03-06T14:52:14Z</time>
      </trkpt>
      <trkpt lat="45.34943" lon="5.85555">
        <ele>1620</ele>
        <time>2022-03-06T14:52:16Z</time>
      </trkpt>
      <trkpt lat="45.34941" lon="5.85554">
        <ele>1622</ele>
        <time>2022-03-06T14:52:19Z</time>
      </trkpt>
      <trkpt lat="45.34941" lon="5.85554">
        <ele>1622</ele>
        <time>2022-03-06T14:52:20Z</time>
      </trkpt>
      <trkpt lat="45.3494" lon="5.85552">
        <ele>1622</ele>
        <time>2022-03-06T14:52:22Z</time>
      </trkpt>
      <trkpt lat="45.34939" lon="5.85548">
        <ele>1623</ele>
        <time>2022-03-06T14:52:25Z</time>
      </trkpt>
      <trkpt lat="45.34939" lon="5.85548">
        <ele>1623</ele>
        <time>2022-03-06T14:52:26Z</time>
      </trkpt>
      <trkpt lat="45.34938" lon="5.85546">
        <ele>1624</ele>
        <time>2022-03-06T14:52:28Z</time>
      </trkpt>
      <trkpt lat="45.34938" lon="5.85543">
        <ele>1625</ele>
        <time>2022-03-06T14:52:31Z</time>
      </trkpt>
      <trkpt lat="45.34938" lon="5.85543">
        <ele>1625</ele>
        <time>2022-03-06T14:52:32Z</time>
      </trkpt>
      <trkpt lat="45.34938" lon="5.85539">
        <ele>1625</ele>
        <time>2022-03-06T14:52:33Z</time>
      </trkpt>
      <trkpt lat="45.34939" lon="5.85536">
        <ele>1625</ele>
        <time>2022-03-06T14:52:37Z</time>
      </trkpt>
      <trkpt lat="45.34939" lon="5.85536">
        <ele>1627</ele>
        <time>2022-03-06T14:52:39Z</time>
      </trkpt>
      <trkpt lat="45.3494" lon="5.85534">
        <ele>1627</ele>
        <time>2022-03-06T14:52:40Z</time>
      </trkpt>
      <trkpt lat="45.34942" lon="5.85532">
        <ele>1628</ele>
        <time>2022-03-06T14:52:43Z</time>
      </trkpt>
      <trkpt lat="45.34942" lon="5.85532">
        <ele>1628</ele>
        <time>2022-03-06T14:52:45Z</time>
      </trkpt>
      <trkpt lat="45.34944" lon="5.85531">
        <ele>1629</ele>
        <time>2022-03-06T14:52:47Z</time>
      </trkpt>
      <trkpt lat="45.34946" lon="5.85529">
        <ele>1630</ele>
        <time>2022-03-06T14:52:50Z</time>
      </trkpt>
      <trkpt lat="45.34946" lon="5.85529">
        <ele>1630</ele>
        <time>2022-03-06T14:52:51Z</time>
      </trkpt>
      <trkpt lat="45.34946" lon="5.85529">
        <ele>1630</ele>
        <time>2022-03-06T14:52:55Z</time>
      </trkpt>
      <trkpt lat="45.34944" lon="5.85527">
        <ele>1630</ele>
        <time>2022-03-06T14:52:57Z</time>
      </trkpt>
      <trkpt lat="45.34944" lon="5.85527">
        <ele>1631</ele>
        <time>2022-03-06T14:53:00Z</time>
      </trkpt>
      <trkpt lat="45.34943" lon="5.85524">
        <ele>1631</ele>
        <time>2022-03-06T14:53:02Z</time>
      </trkpt>
      <trkpt lat="45.34942" lon="5.85523">
        <ele>1631</ele>
        <time>2022-03-06T14:53:05Z</time>
      </trkpt>
      <trkpt lat="45.34942" lon="5.85523">
        <ele>1632</ele>
        <time>2022-03-06T14:53:06Z</time>
      </trkpt>
      <trkpt lat="45.3494" lon="5.8552">
        <ele>1632</ele>
        <time>2022-03-06T14:53:09Z</time>
      </trkpt>
      <trkpt lat="45.3494" lon="5.8552">
        <ele>1632</ele>
        <time>2022-03-06T14:53:11Z</time>
      </trkpt>
      <trkpt lat="45.3494" lon="5.85517">
        <ele>1633</ele>
        <time>2022-03-06T14:53:14Z</time>
      </trkpt>
      <trkpt lat="45.3494" lon="5.85517">
        <ele>1634</ele>
        <time>2022-03-06T14:53:16Z</time>
      </trkpt>
      <trkpt lat="45.34941" lon="5.85515">
        <ele>1635</ele>
        <time>2022-03-06T14:53:19Z</time>
      </trkpt>
      <trkpt lat="45.34941" lon="5.85515">
        <ele>1635</ele>
        <time>2022-03-06T14:53:21Z</time>
      </trkpt>
      <trkpt lat="45.34941" lon="5.85515">
        <ele>1636</ele>
        <time>2022-03-06T14:53:25Z</time>
      </trkpt>
      <trkpt lat="45.34943" lon="5.85514">
        <ele>1636</ele>
        <time>2022-03-06T14:53:26Z</time>
      </trkpt>
      <trkpt lat="45.34944" lon="5.85512">
        <ele>1637</ele>
        <time>2022-03-06T14:53:28Z</time>
      </trkpt>
      <trkpt lat="45.34945" lon="5.85509">
        <ele>1637</ele>
        <time>2022-03-06T14:53:31Z</time>
      </trkpt>
      <trkpt lat="45.34945" lon="5.85509">
        <ele>1637</ele>
        <time>2022-03-06T14:53:32Z</time>
      </trkpt>
      <trkpt lat="45.34946" lon="5.85507">
        <ele>1638</ele>
        <time>2022-03-06T14:53:35Z</time>
      </trkpt>
      <trkpt lat="45.34946" lon="5.85507">
        <ele>1638</ele>
        <time>2022-03-06T14:53:37Z</time>
      </trkpt>
      <trkpt lat="45.34946" lon="5.85504">
        <ele>1638</ele>
        <time>2022-03-06T14:53:38Z</time>
      </trkpt>
      <trkpt lat="45.34945" lon="5.85502">
        <ele>1639</ele>
        <time>2022-03-06T14:53:42Z</time>
      </trkpt>
      <trkpt lat="45.34945" lon="5.85502">
        <ele>1639</ele>
        <time>2022-03-06T14:53:43Z</time>
      </trkpt>
      <trkpt lat="45.34944" lon="5.85499">
        <ele>1640</ele>
        <time>2022-03-06T14:53:47Z</time>
      </trkpt>
      <trkpt lat="45.34944" lon="5.85499">
        <ele>1640</ele>
        <time>2022-03-06T14:53:48Z</time>
      </trkpt>
      <trkpt lat="45.34946" lon="5.85496">
        <ele>1641</ele>
        <time>2022-03-06T14:53:50Z</time>
      </trkpt>
      <trkpt lat="45.34946" lon="5.85496">
        <ele>1642</ele>
        <time>2022-03-06T14:53:53Z</time>
      </trkpt>
      <trkpt lat="45.34947" lon="5.85495">
        <ele>1642</ele>
        <time>2022-03-06T14:53:54Z</time>
      </trkpt>
      <trkpt lat="45.3495" lon="5.85494">
        <ele>1642</ele>
        <time>2022-03-06T14:53:58Z</time>
      </trkpt>
      <trkpt lat="45.3495" lon="5.85494">
        <ele>1643</ele>
        <time>2022-03-06T14:53:59Z</time>
      </trkpt>
      <trkpt lat="45.3495" lon="5.85494">
        <ele>1643</ele>
        <time>2022-03-06T14:54:03Z</time>
      </trkpt>
      <trkpt lat="45.3495" lon="5.85491">
        <ele>1644</ele>
        <time>2022-03-06T14:54:07Z</time>
      </trkpt>
      <trkpt lat="45.3495" lon="5.85491">
        <ele>1644</ele>
        <time>2022-03-06T14:54:09Z</time>
      </trkpt>
      <trkpt lat="45.34949" lon="5.85488">
        <ele>1644</ele>
        <time>2022-03-06T14:54:11Z</time>
      </trkpt>
      <trkpt lat="45.34948" lon="5.85486">
        <ele>1645</ele>
        <time>2022-03-06T14:54:15Z</time>
      </trkpt>
      <trkpt lat="45.34948" lon="5.85486">
        <ele>1645</ele>
        <time>2022-03-06T14:54:16Z</time>
      </trkpt>
      <trkpt lat="45.34946" lon="5.85484">
        <ele>1647</ele>
        <time>2022-03-06T14:54:19Z</time>
      </trkpt>
      <trkpt lat="45.34946" lon="5.85484">
        <ele>1647</ele>
        <time>2022-03-06T14:54:21Z</time>
      </trkpt>
      <trkpt lat="45.34944" lon="5.85482">
        <ele>1647</ele>
        <time>2022-03-06T14:54:22Z</time>
      </trkpt>
      <trkpt lat="45.34943" lon="5.85479">
        <ele>1648</ele>
        <time>2022-03-06T14:54:26Z</time>
      </trkpt>
      <trkpt lat="45.34943" lon="5.85479">
        <ele>1648</ele>
        <time>2022-03-06T14:54:28Z</time>
      </trkpt>
      <trkpt lat="45.34943" lon="5.85479">
        <ele>1649</ele>
        <time>2022-03-06T14:54:32Z</time>
      </trkpt>
      <trkpt lat="45.34945" lon="5.85477">
        <ele>1649</ele>
        <time>2022-03-06T14:54:33Z</time>
      </trkpt>
      <trkpt lat="45.34947" lon="5.85476">
        <ele>1650</ele>
        <time>2022-03-06T14:54:37Z</time>
      </trkpt>
      <trkpt lat="45.34947" lon="5.85476">
        <ele>1650</ele>
        <time>2022-03-06T14:54:38Z</time>
      </trkpt>
      <trkpt lat="45.34949" lon="5.85475">
        <ele>1650</ele>
        <time>2022-03-06T14:54:40Z</time>
      </trkpt>
      <trkpt lat="45.34952" lon="5.85475">
        <ele>1651</ele>
        <time>2022-03-06T14:54:43Z</time>
      </trkpt>
      <trkpt lat="45.34952" lon="5.85475">
        <ele>1651</ele>
        <time>2022-03-06T14:54:44Z</time>
      </trkpt>
      <trkpt lat="45.34953" lon="5.85474">
        <ele>1651</ele>
        <time>2022-03-06T14:54:46Z</time>
      </trkpt>
      <trkpt lat="45.34955" lon="5.85473">
        <ele>1651</ele>
        <time>2022-03-06T14:54:48Z</time>
      </trkpt>
      <trkpt lat="45.34955" lon="5.85473">
        <ele>1653</ele>
        <time>2022-03-06T14:54:50Z</time>
      </trkpt>
      <trkpt lat="45.34957" lon="5.85473">
        <ele>1653</ele>
        <time>2022-03-06T14:54:51Z</time>
      </trkpt>
      <trkpt lat="45.3496" lon="5.85472">
        <ele>1653</ele>
        <time>2022-03-06T14:54:54Z</time>
      </trkpt>
      <trkpt lat="45.3496" lon="5.85472">
        <ele>1653</ele>
        <time>2022-03-06T14:54:56Z</time>
      </trkpt>
      <trkpt lat="45.34962" lon="5.8547">
        <ele>1653</ele>
        <time>2022-03-06T14:54:57Z</time>
      </trkpt>
      <trkpt lat="45.34964" lon="5.85469">
        <ele>1654</ele>
        <time>2022-03-06T14:55:01Z</time>
      </trkpt>
      <trkpt lat="45.34964" lon="5.85469">
        <ele>1655</ele>
        <time>2022-03-06T14:55:02Z</time>
      </trkpt>
      <trkpt lat="45.34966" lon="5.85469">
        <ele>1655</ele>
        <time>2022-03-06T14:55:04Z</time>
      </trkpt>
      <trkpt lat="45.34966" lon="5.85469">
        <ele>1655</ele>
        <time>2022-03-06T14:55:07Z</time>
      </trkpt>
      <trkpt lat="45.34967" lon="5.85467">
        <ele>1655</ele>
        <time>2022-03-06T14:55:09Z</time>
      </trkpt>
      <trkpt lat="45.34969" lon="5.85466">
        <ele>1656</ele>
        <time>2022-03-06T14:55:12Z</time>
      </trkpt>
      <trkpt lat="45.34969" lon="5.85466">
        <ele>1656</ele>
        <time>2022-03-06T14:55:13Z</time>
      </trkpt>
      <trkpt lat="45.34971" lon="5.85465">
        <ele>1657</ele>
        <time>2022-03-06T14:55:15Z</time>
      </trkpt>
      <trkpt lat="45.34972" lon="5.85464">
        <ele>1657</ele>
        <time>2022-03-06T14:55:18Z</time>
      </trkpt>
      <trkpt lat="45.34972" lon="5.85464">
        <ele>1657</ele>
        <time>2022-03-06T14:55:19Z</time>
      </trkpt>
      <trkpt lat="45.34974" lon="5.85463">
        <ele>1658</ele>
        <time>2022-03-06T14:55:21Z</time>
      </trkpt>
      <trkpt lat="45.34976" lon="5.85461">
        <ele>1659</ele>
        <time>2022-03-06T14:55:24Z</time>
      </trkpt>
      <trkpt lat="45.34976" lon="5.85461">
        <ele>1659</ele>
        <time>2022-03-06T14:55:25Z</time>
      </trkpt>
      <trkpt lat="45.34978" lon="5.85459">
        <ele>1660</ele>
        <time>2022-03-06T14:55:27Z</time>
      </trkpt>
      <trkpt lat="45.34978" lon="5.85459">
        <ele>1660</ele>
        <time>2022-03-06T14:55:30Z</time>
      </trkpt>
      <trkpt lat="45.34978" lon="5.85459">
        <ele>1659</ele>
        <time>2022-03-06T14:55:34Z</time>
      </trkpt>
      <trkpt lat="45.34978" lon="5.85459">
        <ele>1660</ele>
        <time>2022-03-06T14:55:38Z</time>
      </trkpt>
      <trkpt lat="45.34976" lon="5.85458">
        <ele>1661</ele>
        <time>2022-03-06T14:55:39Z</time>
      </trkpt>
      <trkpt lat="45.34974" lon="5.85456">
        <ele>1661</ele>
        <time>2022-03-06T14:55:42Z</time>
      </trkpt>
      <trkpt lat="45.34973" lon="5.85455">
        <ele>1662</ele>
        <time>2022-03-06T14:55:45Z</time>
      </trkpt>
      <trkpt lat="45.34973" lon="5.85455">
        <ele>1663</ele>
        <time>2022-03-06T14:55:46Z</time>
      </trkpt>
      <trkpt lat="45.34971" lon="5.85454">
        <ele>1663</ele>
        <time>2022-03-06T14:55:48Z</time>
      </trkpt>
      <trkpt lat="45.34969" lon="5.85452">
        <ele>1663</ele>
        <time>2022-03-06T14:55:51Z</time>
      </trkpt>
      <trkpt lat="45.34969" lon="5.85452">
        <ele>1664</ele>
        <time>2022-03-06T14:55:52Z</time>
      </trkpt>
      <trkpt lat="45.34967" lon="5.85451">
        <ele>1664</ele>
        <time>2022-03-06T14:55:54Z</time>
      </trkpt>
      <trkpt lat="45.34965" lon="5.85449">
        <ele>1664</ele>
        <time>2022-03-06T14:55:57Z</time>
      </trkpt>
      <trkpt lat="45.34965" lon="5.85449">
        <ele>1665</ele>
        <time>2022-03-06T14:55:58Z</time>
      </trkpt>
      <trkpt lat="45.34963" lon="5.85448">
        <ele>1665</ele>
        <time>2022-03-06T14:56:00Z</time>
      </trkpt>
      <trkpt lat="45.34961" lon="5.85446">
        <ele>1665</ele>
        <time>2022-03-06T14:56:02Z</time>
      </trkpt>
      <trkpt lat="45.34961" lon="5.85446">
        <ele>1665</ele>
        <time>2022-03-06T14:56:04Z</time>
      </trkpt>
      <trkpt lat="45.34959" lon="5.85445">
        <ele>1666</ele>
        <time>2022-03-06T14:56:06Z</time>
      </trkpt>
      <trkpt lat="45.34957" lon="5.85443">
        <ele>1666</ele>
        <time>2022-03-06T14:56:08Z</time>
      </trkpt>
      <trkpt lat="45.34957" lon="5.85443">
        <ele>1667</ele>
        <time>2022-03-06T14:56:10Z</time>
      </trkpt>
      <trkpt lat="45.34955" lon="5.85442">
        <ele>1667</ele>
        <time>2022-03-06T14:56:11Z</time>
      </trkpt>
      <trkpt lat="45.34954" lon="5.8544">
        <ele>1668</ele>
        <time>2022-03-06T14:56:15Z</time>
      </trkpt>
      <trkpt lat="45.34954" lon="5.8544">
        <ele>1668</ele>
        <time>2022-03-06T14:56:16Z</time>
      </trkpt>
      <trkpt lat="45.34952" lon="5.85438">
        <ele>1668</ele>
        <time>2022-03-06T14:56:18Z</time>
      </trkpt>
      <trkpt lat="45.3495" lon="5.85437">
        <ele>1668</ele>
        <time>2022-03-06T14:56:20Z</time>
      </trkpt>
      <trkpt lat="45.3495" lon="5.85437">
        <ele>1670</ele>
        <time>2022-03-06T14:56:22Z</time>
      </trkpt>
      <trkpt lat="45.34948" lon="5.85435">
        <ele>1670</ele>
        <time>2022-03-06T14:56:23Z</time>
      </trkpt>
      <trkpt lat="45.34945" lon="5.85434">
        <ele>1671</ele>
        <time>2022-03-06T14:56:27Z</time>
      </trkpt>
      <trkpt lat="45.34945" lon="5.85434">
        <ele>1672</ele>
        <time>2022-03-06T14:56:28Z</time>
      </trkpt>
      <trkpt lat="45.34943" lon="5.85432">
        <ele>1672</ele>
        <time>2022-03-06T14:56:30Z</time>
      </trkpt>
      <trkpt lat="45.34941" lon="5.85431">
        <ele>1672</ele>
        <time>2022-03-06T14:56:33Z</time>
      </trkpt>
      <trkpt lat="45.34941" lon="5.85431">
        <ele>1673</ele>
        <time>2022-03-06T14:56:34Z</time>
      </trkpt>
      <trkpt lat="45.3494" lon="5.85429">
        <ele>1673</ele>
        <time>2022-03-06T14:56:38Z</time>
      </trkpt>
      <trkpt lat="45.3494" lon="5.85429">
        <ele>1673</ele>
        <time>2022-03-06T14:56:39Z</time>
      </trkpt>
      <trkpt lat="45.34938" lon="5.85428">
        <ele>1674</ele>
        <time>2022-03-06T14:56:41Z</time>
      </trkpt>
      <trkpt lat="45.34936" lon="5.85426">
        <ele>1674</ele>
        <time>2022-03-06T14:56:43Z</time>
      </trkpt>
      <trkpt lat="45.34936" lon="5.85426">
        <ele>1674</ele>
        <time>2022-03-06T14:56:45Z</time>
      </trkpt>
      <trkpt lat="45.34934" lon="5.85424">
        <ele>1674</ele>
        <time>2022-03-06T14:56:47Z</time>
      </trkpt>
      <trkpt lat="45.34932" lon="5.85423">
        <ele>1676</ele>
        <time>2022-03-06T14:56:50Z</time>
      </trkpt>
      <trkpt lat="45.34932" lon="5.85423">
        <ele>1676</ele>
        <time>2022-03-06T14:56:51Z</time>
      </trkpt>
      <trkpt lat="45.34932" lon="5.85423">
        <ele>1676</ele>
        <time>2022-03-06T14:56:55Z</time>
      </trkpt>
      <trkpt lat="45.34934" lon="5.85421">
        <ele>1677</ele>
        <time>2022-03-06T14:56:59Z</time>
      </trkpt>
      <trkpt lat="45.34934" lon="5.85421">
        <ele>1677</ele>
        <time>2022-03-06T14:57:00Z</time>
      </trkpt>
      <trkpt lat="45.34936" lon="5.8542">
        <ele>1677</ele>
        <time>2022-03-06T14:57:02Z</time>
      </trkpt>
      <trkpt lat="45.34936" lon="5.8542">
        <ele>1678</ele>
        <time>2022-03-06T14:57:05Z</time>
      </trkpt>
      <trkpt lat="45.34939" lon="5.85419">
        <ele>1678</ele>
        <time>2022-03-06T14:57:06Z</time>
      </trkpt>
      <trkpt lat="45.34941" lon="5.85419">
        <ele>1679</ele>
        <time>2022-03-06T14:57:09Z</time>
      </trkpt>
      <trkpt lat="45.34943" lon="5.85419">
        <ele>1679</ele>
        <time>2022-03-06T14:57:11Z</time>
      </trkpt>
      <trkpt lat="45.34946" lon="5.85419">
        <ele>1679</ele>
        <time>2022-03-06T14:57:14Z</time>
      </trkpt>
      <trkpt lat="45.34946" lon="5.85419">
        <ele>1679</ele>
        <time>2022-03-06T14:57:15Z</time>
      </trkpt>
      <trkpt lat="45.34948" lon="5.85418">
        <ele>1679</ele>
        <time>2022-03-06T14:57:18Z</time>
      </trkpt>
      <trkpt lat="45.3495" lon="5.85417">
        <ele>1679</ele>
        <time>2022-03-06T14:57:21Z</time>
      </trkpt>
      <trkpt lat="45.3495" lon="5.85417">
        <ele>1680</ele>
        <time>2022-03-06T14:57:22Z</time>
      </trkpt>
      <trkpt lat="45.34952" lon="5.85415">
        <ele>1681</ele>
        <time>2022-03-06T14:57:25Z</time>
      </trkpt>
      <trkpt lat="45.34952" lon="5.85415">
        <ele>1681</ele>
        <time>2022-03-06T14:57:27Z</time>
      </trkpt>
      <trkpt lat="45.34954" lon="5.85414">
        <ele>1681</ele>
        <time>2022-03-06T14:57:28Z</time>
      </trkpt>
      <trkpt lat="45.34956" lon="5.85414">
        <ele>1681</ele>
        <time>2022-03-06T14:57:31Z</time>
      </trkpt>
      <trkpt lat="45.34956" lon="5.85414">
        <ele>1681</ele>
        <time>2022-03-06T14:57:33Z</time>
      </trkpt>
      <trkpt lat="45.34958" lon="5.85413">
        <ele>1682</ele>
        <time>2022-03-06T14:57:34Z</time>
      </trkpt>
      <trkpt lat="45.3496" lon="5.85413">
        <ele>1683</ele>
        <time>2022-03-06T14:57:37Z</time>
      </trkpt>
      <trkpt lat="45.3496" lon="5.85413">
        <ele>1683</ele>
        <time>2022-03-06T14:57:39Z</time>
      </trkpt>
      <trkpt lat="45.34962" lon="5.85412">
        <ele>1683</ele>
        <time>2022-03-06T14:57:40Z</time>
      </trkpt>
      <trkpt lat="45.34964" lon="5.85411">
        <ele>1683</ele>
        <time>2022-03-06T14:57:44Z</time>
      </trkpt>
      <trkpt lat="45.34964" lon="5.85411">
        <ele>1683</ele>
        <time>2022-03-06T14:57:45Z</time>
      </trkpt>
      <trkpt lat="45.34966" lon="5.8541">
        <ele>1684</ele>
        <time>2022-03-06T14:57:47Z</time>
      </trkpt>
      <trkpt lat="45.34968" lon="5.8541">
        <ele>1684</ele>
        <time>2022-03-06T14:57:50Z</time>
      </trkpt>
      <trkpt lat="45.34968" lon="5.8541">
        <ele>1684</ele>
        <time>2022-03-06T14:57:51Z</time>
      </trkpt>
      <trkpt lat="45.34969" lon="5.85409">
        <ele>1685</ele>
        <time>2022-03-06T14:57:53Z</time>
      </trkpt>
      <trkpt lat="45.34971" lon="5.85408">
        <ele>1686</ele>
        <time>2022-03-06T14:57:56Z</time>
      </trkpt>
      <trkpt lat="45.34971" lon="5.85408">
        <ele>1686</ele>
        <time>2022-03-06T14:57:58Z</time>
      </trkpt>
      <trkpt lat="45.34973" lon="5.85407">
        <ele>1687</ele>
        <time>2022-03-06T14:58:00Z</time>
      </trkpt>
      <trkpt lat="45.34975" lon="5.85406">
        <ele>1687</ele>
        <time>2022-03-06T14:58:03Z</time>
      </trkpt>
      <trkpt lat="45.34975" lon="5.85406">
        <ele>1687</ele>
        <time>2022-03-06T14:58:04Z</time>
      </trkpt>
      <trkpt lat="45.34975" lon="5.85406">
        <ele>1688</ele>
        <time>2022-03-06T14:58:08Z</time>
      </trkpt>
      <trkpt lat="45.34975" lon="5.85406">
        <ele>1688</ele>
        <time>2022-03-06T14:58:12Z</time>
      </trkpt>
      <trkpt lat="45.34973" lon="5.85405">
        <ele>1688</ele>
        <time>2022-03-06T14:58:15Z</time>
      </trkpt>
      <trkpt lat="45.34971" lon="5.85404">
        <ele>1688</ele>
        <time>2022-03-06T14:58:18Z</time>
      </trkpt>
      <trkpt lat="45.34971" lon="5.85404">
        <ele>1688</ele>
        <time>2022-03-06T14:58:19Z</time>
      </trkpt>
      <trkpt lat="45.34969" lon="5.85403">
        <ele>1689</ele>
        <time>2022-03-06T14:58:21Z</time>
      </trkpt>
      <trkpt lat="45.34969" lon="5.85403">
        <ele>1689</ele>
        <time>2022-03-06T14:58:24Z</time>
      </trkpt>
      <trkpt lat="45.34968" lon="5.85401">
        <ele>1690</ele>
        <time>2022-03-06T14:58:26Z</time>
      </trkpt>
      <trkpt lat="45.34966" lon="5.85399">
        <ele>1691</ele>
        <time>2022-03-06T14:58:29Z</time>
      </trkpt>
      <trkpt lat="45.34966" lon="5.85399">
        <ele>1691</ele>
        <time>2022-03-06T14:58:30Z</time>
      </trkpt>
      <trkpt lat="45.34965" lon="5.85396">
        <ele>1691</ele>
        <time>2022-03-06T14:58:33Z</time>
      </trkpt>
      <trkpt lat="45.34965" lon="5.85396">
        <ele>1691</ele>
        <time>2022-03-06T14:58:35Z</time>
      </trkpt>
      <trkpt lat="45.34963" lon="5.85395">
        <ele>1692</ele>
        <time>2022-03-06T14:58:38Z</time>
      </trkpt>
      <trkpt lat="45.34963" lon="5.85395">
        <ele>1692</ele>
        <time>2022-03-06T14:58:40Z</time>
      </trkpt>
      <trkpt lat="45.34963" lon="5.85395">
        <ele>1693</ele>
        <time>2022-03-06T14:58:44Z</time>
      </trkpt>
      <trkpt lat="45.34963" lon="5.85395">
        <ele>1693</ele>
        <time>2022-03-06T14:58:48Z</time>
      </trkpt>
      <trkpt lat="45.34961" lon="5.85393">
        <ele>1693</ele>
        <time>2022-03-06T14:58:52Z</time>
      </trkpt>
      <trkpt lat="45.34961" lon="5.85393">
        <ele>1693</ele>
        <time>2022-03-06T14:58:53Z</time>
      </trkpt>
      <trkpt lat="45.34961" lon="5.85393">
        <ele>1695</ele>
        <time>2022-03-06T14:58:57Z</time>
      </trkpt>
      <trkpt lat="45.34962" lon="5.85391">
        <ele>1695</ele>
        <time>2022-03-06T14:59:01Z</time>
      </trkpt>
      <trkpt lat="45.34962" lon="5.85391">
        <ele>1695</ele>
        <time>2022-03-06T14:59:02Z</time>
      </trkpt>
      <trkpt lat="45.34963" lon="5.8539">
        <ele>1695</ele>
        <time>2022-03-06T14:59:04Z</time>
      </trkpt>
      <trkpt lat="45.34965" lon="5.85389">
        <ele>1695</ele>
        <time>2022-03-06T14:59:07Z</time>
      </trkpt>
      <trkpt lat="45.34965" lon="5.85389">
        <ele>1695</ele>
        <time>2022-03-06T14:59:08Z</time>
      </trkpt>
      <trkpt lat="45.34967" lon="5.85388">
        <ele>1696</ele>
        <time>2022-03-06T14:59:10Z</time>
      </trkpt>
      <trkpt lat="45.34967" lon="5.85388">
        <ele>1696</ele>
        <time>2022-03-06T14:59:13Z</time>
      </trkpt>
      <trkpt lat="45.34969" lon="5.85388">
        <ele>1697</ele>
        <time>2022-03-06T14:59:14Z</time>
      </trkpt>
      <trkpt lat="45.34971" lon="5.85387">
        <ele>1697</ele>
        <time>2022-03-06T14:59:17Z</time>
      </trkpt>
      <trkpt lat="45.34971" lon="5.85387">
        <ele>1697</ele>
        <time>2022-03-06T14:59:19Z</time>
      </trkpt>
      <trkpt lat="45.34972" lon="5.85386">
        <ele>1699</ele>
        <time>2022-03-06T14:59:20Z</time>
      </trkpt>
      <trkpt lat="45.34974" lon="5.85386">
        <ele>1699</ele>
        <time>2022-03-06T14:59:23Z</time>
      </trkpt>
      <trkpt lat="45.34974" lon="5.85386">
        <ele>1699</ele>
        <time>2022-03-06T14:59:25Z</time>
      </trkpt>
      <trkpt lat="45.34976" lon="5.85384">
        <ele>1700</ele>
        <time>2022-03-06T14:59:27Z</time>
      </trkpt>
      <trkpt lat="45.34978" lon="5.85384">
        <ele>1700</ele>
        <time>2022-03-06T14:59:29Z</time>
      </trkpt>
      <trkpt lat="45.34978" lon="5.85384">
        <ele>1700</ele>
        <time>2022-03-06T14:59:31Z</time>
      </trkpt>
      <trkpt lat="45.3498" lon="5.85383">
        <ele>1700</ele>
        <time>2022-03-06T14:59:34Z</time>
      </trkpt>
      <trkpt lat="45.3498" lon="5.85383">
        <ele>1701</ele>
        <time>2022-03-06T14:59:36Z</time>
      </trkpt>
      <trkpt lat="45.34982" lon="5.85382">
        <ele>1701</ele>
        <time>2022-03-06T14:59:38Z</time>
      </trkpt>
      <trkpt lat="45.34982" lon="5.85382">
        <ele>1701</ele>
        <time>2022-03-06T14:59:41Z</time>
      </trkpt>
      <trkpt lat="45.34985" lon="5.85381">
        <ele>1702</ele>
        <time>2022-03-06T14:59:42Z</time>
      </trkpt>
      <trkpt lat="45.34987" lon="5.8538">
        <ele>1702</ele>
        <time>2022-03-06T14:59:45Z</time>
      </trkpt>
      <trkpt lat="45.34987" lon="5.8538">
        <ele>1702</ele>
        <time>2022-03-06T14:59:47Z</time>
      </trkpt>
      <trkpt lat="45.34989" lon="5.85379">
        <ele>1703</ele>
        <time>2022-03-06T14:59:49Z</time>
      </trkpt>
      <trkpt lat="45.34989" lon="5.85379">
        <ele>1704</ele>
        <time>2022-03-06T14:59:52Z</time>
      </trkpt>
      <trkpt lat="45.34991" lon="5.85378">
        <ele>1704</ele>
        <time>2022-03-06T14:59:53Z</time>
      </trkpt>
      <trkpt lat="45.34993" lon="5.85377">
        <ele>1705</ele>
        <time>2022-03-06T14:59:57Z</time>
      </trkpt>
      <trkpt lat="45.34993" lon="5.85377">
        <ele>1705</ele>
        <time>2022-03-06T14:59:58Z</time>
      </trkpt>
      <trkpt lat="45.34995" lon="5.85376">
        <ele>1705</ele>
        <time>2022-03-06T15:00:00Z</time>
      </trkpt>
      <trkpt lat="45.34995" lon="5.85376">
        <ele>1705</ele>
        <time>2022-03-06T15:00:03Z</time>
      </trkpt>
      <trkpt lat="45.34997" lon="5.85375">
        <ele>1705</ele>
        <time>2022-03-06T15:00:04Z</time>
      </trkpt>
      <trkpt lat="45.34999" lon="5.85375">
        <ele>1705</ele>
        <time>2022-03-06T15:00:08Z</time>
      </trkpt>
      <trkpt lat="45.34999" lon="5.85375">
        <ele>1705</ele>
        <time>2022-03-06T15:00:09Z</time>
      </trkpt>
      <trkpt lat="45.35001" lon="5.85374">
        <ele>1706</ele>
        <time>2022-03-06T15:00:11Z</time>
      </trkpt>
      <trkpt lat="45.35003" lon="5.85374">
        <ele>1707</ele>
        <time>2022-03-06T15:00:14Z</time>
      </trkpt>
      <trkpt lat="45.35003" lon="5.85374">
        <ele>1707</ele>
        <time>2022-03-06T15:00:15Z</time>
      </trkpt>
      <trkpt lat="45.35005" lon="5.85374">
        <ele>1708</ele>
        <time>2022-03-06T15:00:17Z</time>
      </trkpt>
      <trkpt lat="45.35005" lon="5.85374">
        <ele>1708</ele>
        <time>2022-03-06T15:00:20Z</time>
      </trkpt>
      <trkpt lat="45.35007" lon="5.85374">
        <ele>1708</ele>
        <time>2022-03-06T15:00:22Z</time>
      </trkpt>
      <trkpt lat="45.35009" lon="5.85374">
        <ele>1709</ele>
        <time>2022-03-06T15:00:25Z</time>
      </trkpt>
      <trkpt lat="45.35009" lon="5.85374">
        <ele>1709</ele>
        <time>2022-03-06T15:00:27Z</time>
      </trkpt>
      <trkpt lat="45.35011" lon="5.85374">
        <ele>1710</ele>
        <time>2022-03-06T15:00:29Z</time>
      </trkpt>
      <trkpt lat="45.35011" lon="5.85374">
        <ele>1710</ele>
        <time>2022-03-06T15:00:32Z</time>
      </trkpt>
      <trkpt lat="45.35013" lon="5.85374">
        <ele>1711</ele>
        <time>2022-03-06T15:00:34Z</time>
      </trkpt>
      <trkpt lat="45.35016" lon="5.85373">
        <ele>1711</ele>
        <time>2022-03-06T15:00:37Z</time>
      </trkpt>
      <trkpt lat="45.35016" lon="5.85373">
        <ele>1711</ele>
        <time>2022-03-06T15:00:38Z</time>
      </trkpt>
      <trkpt lat="45.35016" lon="5.85373">
        <ele>1711</ele>
        <time>2022-03-06T15:00:42Z</time>
      </trkpt>
      <trkpt lat="45.35016" lon="5.85373">
        <ele>1711</ele>
        <time>2022-03-06T15:00:47Z</time>
      </trkpt>
      <trkpt lat="45.35016" lon="5.85373">
        <ele>1711</ele>
        <time>2022-03-06T15:00:51Z</time>
      </trkpt>
      <trkpt lat="45.35014" lon="5.85372">
        <ele>1711</ele>
        <time>2022-03-06T15:00:54Z</time>
      </trkpt>
      <trkpt lat="45.35014" lon="5.85372">
        <ele>1712</ele>
        <time>2022-03-06T15:00:56Z</time>
      </trkpt>
      <trkpt lat="45.35013" lon="5.8537">
        <ele>1712</ele>
        <time>2022-03-06T15:00:57Z</time>
      </trkpt>
      <trkpt lat="45.35011" lon="5.85368">
        <ele>1713</ele>
        <time>2022-03-06T15:01:00Z</time>
      </trkpt>
      <trkpt lat="45.35011" lon="5.85368">
        <ele>1713</ele>
        <time>2022-03-06T15:01:02Z</time>
      </trkpt>
      <trkpt lat="45.35011" lon="5.85368">
        <ele>1715</ele>
        <time>2022-03-06T15:01:06Z</time>
      </trkpt>
      <trkpt lat="45.35011" lon="5.85366">
        <ele>1715</ele>
        <time>2022-03-06T15:01:07Z</time>
      </trkpt>
      <trkpt lat="45.35014" lon="5.85365">
        <ele>1715</ele>
        <time>2022-03-06T15:01:11Z</time>
      </trkpt>
      <trkpt lat="45.35014" lon="5.85365">
        <ele>1715</ele>
        <time>2022-03-06T15:01:12Z</time>
      </trkpt>
      <trkpt lat="45.35016" lon="5.85364">
        <ele>1715</ele>
        <time>2022-03-06T15:01:15Z</time>
      </trkpt>
      <trkpt lat="45.35018" lon="5.85364">
        <ele>1715</ele>
        <time>2022-03-06T15:01:17Z</time>
      </trkpt>
      <trkpt lat="45.3502" lon="5.85363">
        <ele>1716</ele>
        <time>2022-03-06T15:01:21Z</time>
      </trkpt>
      <trkpt lat="45.3502" lon="5.85363">
        <ele>1716</ele>
        <time>2022-03-06T15:01:22Z</time>
      </trkpt>
      <trkpt lat="45.35022" lon="5.85362">
        <ele>1717</ele>
        <time>2022-03-06T15:01:23Z</time>
      </trkpt>
      <trkpt lat="45.35024" lon="5.85361">
        <ele>1717</ele>
        <time>2022-03-06T15:01:26Z</time>
      </trkpt>
      <trkpt lat="45.35024" lon="5.85361">
        <ele>1718</ele>
        <time>2022-03-06T15:01:28Z</time>
      </trkpt>
      <trkpt lat="45.35026" lon="5.85361">
        <ele>1718</ele>
        <time>2022-03-06T15:01:30Z</time>
      </trkpt>
      <trkpt lat="45.35029" lon="5.8536">
        <ele>1719</ele>
        <time>2022-03-06T15:01:34Z</time>
      </trkpt>
      <trkpt lat="45.35029" lon="5.8536">
        <ele>1719</ele>
        <time>2022-03-06T15:01:35Z</time>
      </trkpt>
      <trkpt lat="45.3503" lon="5.85358">
        <ele>1720</ele>
        <time>2022-03-06T15:01:37Z</time>
      </trkpt>
      <trkpt lat="45.35033" lon="5.85357">
        <ele>1720</ele>
        <time>2022-03-06T15:01:40Z</time>
      </trkpt>
      <trkpt lat="45.35033" lon="5.85357">
        <ele>1720</ele>
        <time>2022-03-06T15:01:41Z</time>
      </trkpt>
      <trkpt lat="45.35035" lon="5.85356">
        <ele>1720</ele>
        <time>2022-03-06T15:01:43Z</time>
      </trkpt>
      <trkpt lat="45.35036" lon="5.85355">
        <ele>1721</ele>
        <time>2022-03-06T15:01:46Z</time>
      </trkpt>
      <trkpt lat="45.35036" lon="5.85355">
        <ele>1721</ele>
        <time>2022-03-06T15:01:47Z</time>
      </trkpt>
      <trkpt lat="45.35039" lon="5.85355">
        <ele>1722</ele>
        <time>2022-03-06T15:01:50Z</time>
      </trkpt>
      <trkpt lat="45.35039" lon="5.85355">
        <ele>1722</ele>
        <time>2022-03-06T15:01:52Z</time>
      </trkpt>
      <trkpt lat="45.35039" lon="5.85355">
        <ele>1722</ele>
        <time>2022-03-06T15:01:56Z</time>
      </trkpt>
      <trkpt lat="45.35039" lon="5.85355">
        <ele>1722</ele>
        <time>2022-03-06T15:02:00Z</time>
      </trkpt>
      <trkpt lat="45.35039" lon="5.85355">
        <ele>1722</ele>
        <time>2022-03-06T15:02:04Z</time>
      </trkpt>
      <trkpt lat="45.35036" lon="5.85354">
        <ele>1722</ele>
        <time>2022-03-06T15:02:05Z</time>
      </trkpt>
      <trkpt lat="45.35035" lon="5.85352">
        <ele>1723</ele>
        <time>2022-03-06T15:02:07Z</time>
      </trkpt>
      <trkpt lat="45.35035" lon="5.85352">
        <ele>1723</ele>
        <time>2022-03-06T15:02:10Z</time>
      </trkpt>
      <trkpt lat="45.35033" lon="5.85351">
        <ele>1724</ele>
        <time>2022-03-06T15:02:11Z</time>
      </trkpt>
      <trkpt lat="45.35031" lon="5.8535">
        <ele>1724</ele>
        <time>2022-03-06T15:02:13Z</time>
      </trkpt>
      <trkpt lat="45.35031" lon="5.8535">
        <ele>1724</ele>
        <time>2022-03-06T15:02:16Z</time>
      </trkpt>
      <trkpt lat="45.35029" lon="5.85348">
        <ele>1725</ele>
        <time>2022-03-06T15:02:18Z</time>
      </trkpt>
      <trkpt lat="45.35027" lon="5.85347">
        <ele>1725</ele>
        <time>2022-03-06T15:02:20Z</time>
      </trkpt>
      <trkpt lat="45.35027" lon="5.85347">
        <ele>1726</ele>
        <time>2022-03-06T15:02:22Z</time>
      </trkpt>
      <trkpt lat="45.35025" lon="5.85345">
        <ele>1726</ele>
        <time>2022-03-06T15:02:24Z</time>
      </trkpt>
      <trkpt lat="45.35025" lon="5.85345">
        <ele>1726</ele>
        <time>2022-03-06T15:02:27Z</time>
      </trkpt>
      <trkpt lat="45.35023" lon="5.85343">
        <ele>1726</ele>
        <time>2022-03-06T15:02:29Z</time>
      </trkpt>
      <trkpt lat="45.35021" lon="5.85341">
        <ele>1727</ele>
        <time>2022-03-06T15:02:31Z</time>
      </trkpt>
      <trkpt lat="45.35021" lon="5.85341">
        <ele>1727</ele>
        <time>2022-03-06T15:02:33Z</time>
      </trkpt>
      <trkpt lat="45.3502" lon="5.8534">
        <ele>1727</ele>
        <time>2022-03-06T15:02:34Z</time>
      </trkpt>
      <trkpt lat="45.3502" lon="5.8534">
        <ele>1728</ele>
        <time>2022-03-06T15:02:38Z</time>
      </trkpt>
      <trkpt lat="45.3502" lon="5.8534">
        <ele>1728</ele>
        <time>2022-03-06T15:02:42Z</time>
      </trkpt>
      <trkpt lat="45.3502" lon="5.8534">
        <ele>1728</ele>
        <time>2022-03-06T15:02:46Z</time>
      </trkpt>
      <trkpt lat="45.3502" lon="5.8534">
        <ele>1728</ele>
        <time>2022-03-06T15:02:50Z</time>
      </trkpt>
      <trkpt lat="45.3502" lon="5.8534">
        <ele>1728</ele>
        <time>2022-03-06T15:02:54Z</time>
      </trkpt>
      <trkpt lat="45.3502" lon="5.8534">
        <ele>1728</ele>
        <time>2022-03-06T15:02:58Z</time>
      </trkpt>
      <trkpt lat="45.3502" lon="5.8534">
        <ele>1728</ele>
        <time>2022-03-06T15:03:02Z</time>
      </trkpt>
      <trkpt lat="45.3502" lon="5.8534">
        <ele>1728</ele>
        <time>2022-03-06T15:03:06Z</time>
      </trkpt>
      <trkpt lat="45.3502" lon="5.8534">
        <ele>1728</ele>
        <time>2022-03-06T15:03:10Z</time>
      </trkpt>
      <trkpt lat="45.3502" lon="5.8534">
        <ele>1728</ele>
        <time>2022-03-06T15:03:14Z</time>
      </trkpt>
      <trkpt lat="45.3502" lon="5.8534">
        <ele>1728</ele>
        <time>2022-03-06T15:03:18Z</time>
      </trkpt>
      <trkpt lat="45.35018" lon="5.85339">
        <ele>1728</ele>
        <time>2022-03-06T15:03:20Z</time>
      </trkpt>
      <trkpt lat="45.35018" lon="5.85339">
        <ele>1728</ele>
        <time>2022-03-06T15:03:23Z</time>
      </trkpt>
      <trkpt lat="45.35016" lon="5.85337">
        <ele>1728</ele>
        <time>2022-03-06T15:03:24Z</time>
      </trkpt>
      <trkpt lat="45.35014" lon="5.85335">
        <ele>1729</ele>
        <time>2022-03-06T15:03:26Z</time>
      </trkpt>
      <trkpt lat="45.35014" lon="5.85335">
        <ele>1729</ele>
        <time>2022-03-06T15:03:29Z</time>
      </trkpt>
      <trkpt lat="45.35014" lon="5.85335">
        <ele>1730</ele>
        <time>2022-03-06T15:03:33Z</time>
      </trkpt>
      <trkpt lat="45.35014" lon="5.85335">
        <ele>1730</ele>
        <time>2022-03-06T15:03:37Z</time>
      </trkpt>
      <trkpt lat="45.35016" lon="5.85334">
        <ele>1730</ele>
        <time>2022-03-06T15:03:38Z</time>
      </trkpt>
      <trkpt lat="45.35018" lon="5.85333">
        <ele>1730</ele>
        <time>2022-03-06T15:03:40Z</time>
      </trkpt>
      <trkpt lat="45.35018" lon="5.85333">
        <ele>1731</ele>
        <time>2022-03-06T15:03:43Z</time>
      </trkpt>
      <trkpt lat="45.3502" lon="5.85333">
        <ele>1731</ele>
        <time>2022-03-06T15:03:44Z</time>
      </trkpt>
      <trkpt lat="45.35022" lon="5.85333">
        <ele>1731</ele>
        <time>2022-03-06T15:03:46Z</time>
      </trkpt>
      <trkpt lat="45.35022" lon="5.85333">
        <ele>1731</ele>
        <time>2022-03-06T15:03:49Z</time>
      </trkpt>
      <trkpt lat="45.35025" lon="5.85332">
        <ele>1732</ele>
        <time>2022-03-06T15:03:50Z</time>
      </trkpt>
      <trkpt lat="45.35027" lon="5.85332">
        <ele>1732</ele>
        <time>2022-03-06T15:03:52Z</time>
      </trkpt>
      <trkpt lat="45.35029" lon="5.85331">
        <ele>1732</ele>
        <time>2022-03-06T15:03:55Z</time>
      </trkpt>
      <trkpt lat="45.35029" lon="5.85331">
        <ele>1732</ele>
        <time>2022-03-06T15:03:56Z</time>
      </trkpt>
      <trkpt lat="45.35032" lon="5.85331">
        <ele>1733</ele>
        <time>2022-03-06T15:03:59Z</time>
      </trkpt>
      <trkpt lat="45.35032" lon="5.85331">
        <ele>1734</ele>
        <time>2022-03-06T15:04:01Z</time>
      </trkpt>
      <trkpt lat="45.35034" lon="5.85331">
        <ele>1734</ele>
        <time>2022-03-06T15:04:02Z</time>
      </trkpt>
      <trkpt lat="45.35036" lon="5.85331">
        <ele>1735</ele>
        <time>2022-03-06T15:04:05Z</time>
      </trkpt>
      <trkpt lat="45.35036" lon="5.85331">
        <ele>1735</ele>
        <time>2022-03-06T15:04:07Z</time>
      </trkpt>
      <trkpt lat="45.35039" lon="5.85331">
        <ele>1735</ele>
        <time>2022-03-06T15:04:08Z</time>
      </trkpt>
      <trkpt lat="45.35041" lon="5.8533">
        <ele>1735</ele>
        <time>2022-03-06T15:04:11Z</time>
      </trkpt>
      <trkpt lat="45.35041" lon="5.8533">
        <ele>1735</ele>
        <time>2022-03-06T15:04:13Z</time>
      </trkpt>
      <trkpt lat="45.35043" lon="5.85329">
        <ele>1735</ele>
        <time>2022-03-06T15:04:14Z</time>
      </trkpt>
      <trkpt lat="45.35045" lon="5.85328">
        <ele>1736</ele>
        <time>2022-03-06T15:04:17Z</time>
      </trkpt>
      <trkpt lat="45.35045" lon="5.85328">
        <ele>1736</ele>
        <time>2022-03-06T15:04:19Z</time>
      </trkpt>
      <trkpt lat="45.35047" lon="5.85327">
        <ele>1736</ele>
        <time>2022-03-06T15:04:20Z</time>
      </trkpt>
      <trkpt lat="45.35049" lon="5.85326">
        <ele>1737</ele>
        <time>2022-03-06T15:04:23Z</time>
      </trkpt>
      <trkpt lat="45.35049" lon="5.85326">
        <ele>1737</ele>
        <time>2022-03-06T15:04:25Z</time>
      </trkpt>
      <trkpt lat="45.35051" lon="5.85326">
        <ele>1737</ele>
        <time>2022-03-06T15:04:26Z</time>
      </trkpt>
      <trkpt lat="45.35053" lon="5.85326">
        <ele>1738</ele>
        <time>2022-03-06T15:04:29Z</time>
      </trkpt>
      <trkpt lat="45.35053" lon="5.85326">
        <ele>1739</ele>
        <time>2022-03-06T15:04:31Z</time>
      </trkpt>
      <trkpt lat="45.35056" lon="5.85325">
        <ele>1739</ele>
        <time>2022-03-06T15:04:32Z</time>
      </trkpt>
      <trkpt lat="45.35058" lon="5.85325">
        <ele>1739</ele>
        <time>2022-03-06T15:04:34Z</time>
      </trkpt>
      <trkpt lat="45.3506" lon="5.85324">
        <ele>1740</ele>
        <time>2022-03-06T15:04:37Z</time>
      </trkpt>
      <trkpt lat="45.3506" lon="5.85324">
        <ele>1740</ele>
        <time>2022-03-06T15:04:38Z</time>
      </trkpt>
      <trkpt lat="45.35062" lon="5.85323">
        <ele>1741</ele>
        <time>2022-03-06T15:04:40Z</time>
      </trkpt>
      <trkpt lat="45.35062" lon="5.85323">
        <ele>1741</ele>
        <time>2022-03-06T15:04:43Z</time>
      </trkpt>
      <trkpt lat="45.35064" lon="5.85322">
        <ele>1741</ele>
        <time>2022-03-06T15:04:44Z</time>
      </trkpt>
      <trkpt lat="45.35065" lon="5.8532">
        <ele>1742</ele>
        <time>2022-03-06T15:04:47Z</time>
      </trkpt>
      <trkpt lat="45.35065" lon="5.8532">
        <ele>1742</ele>
        <time>2022-03-06T15:04:49Z</time>
      </trkpt>
      <trkpt lat="45.35067" lon="5.85319">
        <ele>1742</ele>
        <time>2022-03-06T15:04:50Z</time>
      </trkpt>
      <trkpt lat="45.35069" lon="5.85318">
        <ele>1743</ele>
        <time>2022-03-06T15:04:52Z</time>
      </trkpt>
      <trkpt lat="45.35069" lon="5.85318">
        <ele>1743</ele>
        <time>2022-03-06T15:04:55Z</time>
      </trkpt>
      <trkpt lat="45.35071" lon="5.85317">
        <ele>1744</ele>
        <time>2022-03-06T15:04:56Z</time>
      </trkpt>
      <trkpt lat="45.35073" lon="5.85315">
        <ele>1744</ele>
        <time>2022-03-06T15:04:59Z</time>
      </trkpt>
      <trkpt lat="45.35073" lon="5.85315">
        <ele>1743</ele>
        <time>2022-03-06T15:05:01Z</time>
      </trkpt>
      <trkpt lat="45.35075" lon="5.85313">
        <ele>1744</ele>
        <time>2022-03-06T15:05:03Z</time>
      </trkpt>
      <trkpt lat="45.35076" lon="5.85312">
        <ele>1745</ele>
        <time>2022-03-06T15:05:06Z</time>
      </trkpt>
      <trkpt lat="45.35076" lon="5.85312">
        <ele>1745</ele>
        <time>2022-03-06T15:05:07Z</time>
      </trkpt>
      <trkpt lat="45.35078" lon="5.85311">
        <ele>1745</ele>
        <time>2022-03-06T15:05:09Z</time>
      </trkpt>
      <trkpt lat="45.3508" lon="5.8531">
        <ele>1745</ele>
        <time>2022-03-06T15:05:12Z</time>
      </trkpt>
      <trkpt lat="45.3508" lon="5.8531">
        <ele>1745</ele>
        <time>2022-03-06T15:05:13Z</time>
      </trkpt>
      <trkpt lat="45.35082" lon="5.85309">
        <ele>1746</ele>
        <time>2022-03-06T15:05:15Z</time>
      </trkpt>
      <trkpt lat="45.35084" lon="5.85308">
        <ele>1747</ele>
        <time>2022-03-06T15:05:18Z</time>
      </trkpt>
      <trkpt lat="45.35084" lon="5.85308">
        <ele>1747</ele>
        <time>2022-03-06T15:05:19Z</time>
      </trkpt>
      <trkpt lat="45.35086" lon="5.85307">
        <ele>1747</ele>
        <time>2022-03-06T15:05:21Z</time>
      </trkpt>
      <trkpt lat="45.35086" lon="5.85307">
        <ele>1747</ele>
        <time>2022-03-06T15:05:24Z</time>
      </trkpt>
      <trkpt lat="45.35088" lon="5.85306">
        <ele>1747</ele>
        <time>2022-03-06T15:05:25Z</time>
      </trkpt>
      <trkpt lat="45.3509" lon="5.85305">
        <ele>1748</ele>
        <time>2022-03-06T15:05:28Z</time>
      </trkpt>
      <trkpt lat="45.3509" lon="5.85305">
        <ele>1750</ele>
        <time>2022-03-06T15:05:30Z</time>
      </trkpt>
      <trkpt lat="45.35092" lon="5.85304">
        <ele>1750</ele>
        <time>2022-03-06T15:05:32Z</time>
      </trkpt>
      <trkpt lat="45.35094" lon="5.85303">
        <ele>1750</ele>
        <time>2022-03-06T15:05:34Z</time>
      </trkpt>
      <trkpt lat="45.35094" lon="5.85303">
        <ele>1750</ele>
        <time>2022-03-06T15:05:36Z</time>
      </trkpt>
      <trkpt lat="45.35096" lon="5.85303">
        <ele>1750</ele>
        <time>2022-03-06T15:05:37Z</time>
      </trkpt>
      <trkpt lat="45.35097" lon="5.85301">
        <ele>1750</ele>
        <time>2022-03-06T15:05:40Z</time>
      </trkpt>
      <trkpt lat="45.35097" lon="5.85301">
        <ele>1751</ele>
        <time>2022-03-06T15:05:42Z</time>
      </trkpt>
      <trkpt lat="45.351" lon="5.853">
        <ele>1751</ele>
        <time>2022-03-06T15:05:44Z</time>
      </trkpt>
      <trkpt lat="45.35102" lon="5.85299">
        <ele>1752</ele>
        <time>2022-03-06T15:05:47Z</time>
      </trkpt>
      <trkpt lat="45.35102" lon="5.85299">
        <ele>1752</ele>
        <time>2022-03-06T15:05:48Z</time>
      </trkpt>
      <trkpt lat="45.35103" lon="5.85298">
        <ele>1752</ele>
        <time>2022-03-06T15:05:50Z</time>
      </trkpt>
      <trkpt lat="45.35105" lon="5.85297">
        <ele>1753</ele>
        <time>2022-03-06T15:05:53Z</time>
      </trkpt>
      <trkpt lat="45.35105" lon="5.85297">
        <ele>1754</ele>
        <time>2022-03-06T15:05:54Z</time>
      </trkpt>
      <trkpt lat="45.35107" lon="5.85295">
        <ele>1754</ele>
        <time>2022-03-06T15:05:56Z</time>
      </trkpt>
      <trkpt lat="45.35108" lon="5.85294">
        <ele>1754</ele>
        <time>2022-03-06T15:05:59Z</time>
      </trkpt>
      <trkpt lat="45.35108" lon="5.85294">
        <ele>1755</ele>
        <time>2022-03-06T15:06:00Z</time>
      </trkpt>
      <trkpt lat="45.35111" lon="5.85292">
        <ele>1755</ele>
        <time>2022-03-06T15:06:03Z</time>
      </trkpt>
      <trkpt lat="45.35111" lon="5.85292">
        <ele>1755</ele>
        <time>2022-03-06T15:06:05Z</time>
      </trkpt>
      <trkpt lat="45.35112" lon="5.85291">
        <ele>1756</ele>
        <time>2022-03-06T15:06:06Z</time>
      </trkpt>
      <trkpt lat="45.35114" lon="5.8529">
        <ele>1757</ele>
        <time>2022-03-06T15:06:09Z</time>
      </trkpt>
      <trkpt lat="45.35114" lon="5.8529">
        <ele>1757</ele>
        <time>2022-03-06T15:06:11Z</time>
      </trkpt>
      <trkpt lat="45.35116" lon="5.85289">
        <ele>1757</ele>
        <time>2022-03-06T15:06:12Z</time>
      </trkpt>
      <trkpt lat="45.35118" lon="5.85287">
        <ele>1758</ele>
        <time>2022-03-06T15:06:15Z</time>
      </trkpt>
      <trkpt lat="45.35118" lon="5.85287">
        <ele>1759</ele>
        <time>2022-03-06T15:06:17Z</time>
      </trkpt>
      <trkpt lat="45.3512" lon="5.85286">
        <ele>1759</ele>
        <time>2022-03-06T15:06:18Z</time>
      </trkpt>
      <trkpt lat="45.35122" lon="5.85284">
        <ele>1760</ele>
        <time>2022-03-06T15:06:22Z</time>
      </trkpt>
      <trkpt lat="45.35122" lon="5.85284">
        <ele>1760</ele>
        <time>2022-03-06T15:06:23Z</time>
      </trkpt>
      <trkpt lat="45.35123" lon="5.85283">
        <ele>1760</ele>
        <time>2022-03-06T15:06:25Z</time>
      </trkpt>
      <trkpt lat="45.35123" lon="5.85283">
        <ele>1760</ele>
        <time>2022-03-06T15:06:28Z</time>
      </trkpt>
      <trkpt lat="45.35125" lon="5.85281">
        <ele>1760</ele>
        <time>2022-03-06T15:06:30Z</time>
      </trkpt>
      <trkpt lat="45.35125" lon="5.85281">
        <ele>1761</ele>
        <time>2022-03-06T15:06:33Z</time>
      </trkpt>
      <trkpt lat="45.35127" lon="5.85279">
        <ele>1761</ele>
        <time>2022-03-06T15:06:34Z</time>
      </trkpt>
      <trkpt lat="45.35128" lon="5.85277">
        <ele>1762</ele>
        <time>2022-03-06T15:06:37Z</time>
      </trkpt>
      <trkpt lat="45.35128" lon="5.85277">
        <ele>1762</ele>
        <time>2022-03-06T15:06:39Z</time>
      </trkpt>
      <trkpt lat="45.3513" lon="5.85276">
        <ele>1762</ele>
        <time>2022-03-06T15:06:40Z</time>
      </trkpt>
      <trkpt lat="45.35132" lon="5.85274">
        <ele>1763</ele>
        <time>2022-03-06T15:06:43Z</time>
      </trkpt>
      <trkpt lat="45.35132" lon="5.85274">
        <ele>1764</ele>
        <time>2022-03-06T15:06:45Z</time>
      </trkpt>
      <trkpt lat="45.35133" lon="5.85272">
        <ele>1764</ele>
        <time>2022-03-06T15:06:47Z</time>
      </trkpt>
      <trkpt lat="45.35135" lon="5.8527">
        <ele>1765</ele>
        <time>2022-03-06T15:06:50Z</time>
      </trkpt>
      <trkpt lat="45.35135" lon="5.8527">
        <ele>1765</ele>
        <time>2022-03-06T15:06:51Z</time>
      </trkpt>
      <trkpt lat="45.35136" lon="5.85268">
        <ele>1765</ele>
        <time>2022-03-06T15:06:53Z</time>
      </trkpt>
      <trkpt lat="45.35137" lon="5.85266">
        <ele>1765</ele>
        <time>2022-03-06T15:06:56Z</time>
      </trkpt>
      <trkpt lat="45.35137" lon="5.85266">
        <ele>1765</ele>
        <time>2022-03-06T15:06:57Z</time>
      </trkpt>
      <trkpt lat="45.35137" lon="5.85266">
        <ele>1766</ele>
        <time>2022-03-06T15:07:01Z</time>
      </trkpt>
      <trkpt lat="45.35134" lon="5.85264">
        <ele>1766</ele>
        <time>2022-03-06T15:07:05Z</time>
      </trkpt>
      <trkpt lat="45.35134" lon="5.85264">
        <ele>1766</ele>
        <time>2022-03-06T15:07:06Z</time>
      </trkpt>
      <trkpt lat="45.35133" lon="5.85263">
        <ele>1767</ele>
        <time>2022-03-06T15:07:09Z</time>
      </trkpt>
      <trkpt lat="45.35133" lon="5.85263">
        <ele>1768</ele>
        <time>2022-03-06T15:07:11Z</time>
      </trkpt>
      <trkpt lat="45.35131" lon="5.85262">
        <ele>1768</ele>
        <time>2022-03-06T15:07:12Z</time>
      </trkpt>
      <trkpt lat="45.35129" lon="5.85261">
        <ele>1768</ele>
        <time>2022-03-06T15:07:15Z</time>
      </trkpt>
      <trkpt lat="45.35129" lon="5.85261">
        <ele>1769</ele>
        <time>2022-03-06T15:07:17Z</time>
      </trkpt>
      <trkpt lat="45.35127" lon="5.8526">
        <ele>1769</ele>
        <time>2022-03-06T15:07:18Z</time>
      </trkpt>
      <trkpt lat="45.35125" lon="5.85258">
        <ele>1770</ele>
        <time>2022-03-06T15:07:21Z</time>
      </trkpt>
      <trkpt lat="45.35125" lon="5.85258">
        <ele>1770</ele>
        <time>2022-03-06T15:07:23Z</time>
      </trkpt>
      <trkpt lat="45.35123" lon="5.85257">
        <ele>1770</ele>
        <time>2022-03-06T15:07:24Z</time>
      </trkpt>
      <trkpt lat="45.35121" lon="5.85257">
        <ele>1771</ele>
        <time>2022-03-06T15:07:27Z</time>
      </trkpt>
      <trkpt lat="45.35121" lon="5.85257">
        <ele>1771</ele>
        <time>2022-03-06T15:07:29Z</time>
      </trkpt>
      <trkpt lat="45.35119" lon="5.85256">
        <ele>1772</ele>
        <time>2022-03-06T15:07:30Z</time>
      </trkpt>
      <trkpt lat="45.35119" lon="5.85253">
        <ele>1772</ele>
        <time>2022-03-06T15:07:33Z</time>
      </trkpt>
      <trkpt lat="45.3512" lon="5.85251">
        <ele>1773</ele>
        <time>2022-03-06T15:07:35Z</time>
      </trkpt>
      <trkpt lat="45.35122" lon="5.8525">
        <ele>1773</ele>
        <time>2022-03-06T15:07:38Z</time>
      </trkpt>
      <trkpt lat="45.35122" lon="5.8525">
        <ele>1773</ele>
        <time>2022-03-06T15:07:39Z</time>
      </trkpt>
      <trkpt lat="45.35124" lon="5.85249">
        <ele>1774</ele>
        <time>2022-03-06T15:07:41Z</time>
      </trkpt>
      <trkpt lat="45.35125" lon="5.85248">
        <ele>1774</ele>
        <time>2022-03-06T15:07:44Z</time>
      </trkpt>
      <trkpt lat="45.35125" lon="5.85248">
        <ele>1774</ele>
        <time>2022-03-06T15:07:45Z</time>
      </trkpt>
      <trkpt lat="45.35127" lon="5.85246">
        <ele>1775</ele>
        <time>2022-03-06T15:07:48Z</time>
      </trkpt>
      <trkpt lat="45.35127" lon="5.85246">
        <ele>1775</ele>
        <time>2022-03-06T15:07:50Z</time>
      </trkpt>
      <trkpt lat="45.35127" lon="5.85246">
        <ele>1775</ele>
        <time>2022-03-06T15:07:54Z</time>
      </trkpt>
      <trkpt lat="45.35125" lon="5.85246">
        <ele>1775</ele>
        <time>2022-03-06T15:07:55Z</time>
      </trkpt>
      <trkpt lat="45.35123" lon="5.85247">
        <ele>1775</ele>
        <time>2022-03-06T15:07:58Z</time>
      </trkpt>
      <trkpt lat="45.35123" lon="5.85247">
        <ele>1776</ele>
        <time>2022-03-06T15:08:00Z</time>
      </trkpt>
      <trkpt lat="45.35121" lon="5.85246">
        <ele>1776</ele>
        <time>2022-03-06T15:08:01Z</time>
      </trkpt>
      <trkpt lat="45.35121" lon="5.85246">
        <ele>1776</ele>
        <time>2022-03-06T15:08:05Z</time>
      </trkpt>
      <trkpt lat="45.35122" lon="5.85243">
        <ele>1776</ele>
        <time>2022-03-06T15:08:06Z</time>
      </trkpt>
      <trkpt lat="45.35123" lon="5.85241">
        <ele>1777</ele>
        <time>2022-03-06T15:08:08Z</time>
      </trkpt>
      <trkpt lat="45.35125" lon="5.85239">
        <ele>1777</ele>
        <time>2022-03-06T15:08:11Z</time>
      </trkpt>
      <trkpt lat="45.35125" lon="5.85239">
        <ele>1777</ele>
        <time>2022-03-06T15:08:12Z</time>
      </trkpt>
      <trkpt lat="45.35126" lon="5.85237">
        <ele>1778</ele>
        <time>2022-03-06T15:08:15Z</time>
      </trkpt>
      <trkpt lat="45.35126" lon="5.85237">
        <ele>1779</ele>
        <time>2022-03-06T15:08:17Z</time>
      </trkpt>
      <trkpt lat="45.35128" lon="5.85235">
        <ele>1779</ele>
        <time>2022-03-06T15:08:18Z</time>
      </trkpt>
      <trkpt lat="45.35129" lon="5.85232">
        <ele>1779</ele>
        <time>2022-03-06T15:08:21Z</time>
      </trkpt>
      <trkpt lat="45.35129" lon="5.85232">
        <ele>1779</ele>
        <time>2022-03-06T15:08:23Z</time>
      </trkpt>
      <trkpt lat="45.3513" lon="5.85229">
        <ele>1780</ele>
        <time>2022-03-06T15:08:24Z</time>
      </trkpt>
      <trkpt lat="45.3513" lon="5.85229">
        <ele>1781</ele>
        <time>2022-03-06T15:08:28Z</time>
      </trkpt>
      <trkpt lat="45.35132" lon="5.85227">
        <ele>1781</ele>
        <time>2022-03-06T15:08:30Z</time>
      </trkpt>
      <trkpt lat="45.35133" lon="5.85224">
        <ele>1781</ele>
        <time>2022-03-06T15:08:32Z</time>
      </trkpt>
      <trkpt lat="45.35133" lon="5.85224">
        <ele>1781</ele>
        <time>2022-03-06T15:08:34Z</time>
      </trkpt>
      <trkpt lat="45.35135" lon="5.85221">
        <ele>1781</ele>
        <time>2022-03-06T15:08:36Z</time>
      </trkpt>
      <trkpt lat="45.35136" lon="5.85219">
        <ele>1782</ele>
        <time>2022-03-06T15:08:38Z</time>
      </trkpt>
      <trkpt lat="45.35137" lon="5.85216">
        <ele>1782</ele>
        <time>2022-03-06T15:08:40Z</time>
      </trkpt>
      <trkpt lat="45.35139" lon="5.85214">
        <ele>1782</ele>
        <time>2022-03-06T15:08:43Z</time>
      </trkpt>
      <trkpt lat="45.3514" lon="5.85212">
        <ele>1783</ele>
        <time>2022-03-06T15:08:44Z</time>
      </trkpt>
      <trkpt lat="45.35142" lon="5.8521">
        <ele>1784</ele>
        <time>2022-03-06T15:08:47Z</time>
      </trkpt>
      <trkpt lat="45.35142" lon="5.8521">
        <ele>1784</ele>
        <time>2022-03-06T15:08:49Z</time>
      </trkpt>
      <trkpt lat="45.35144" lon="5.85209">
        <ele>1785</ele>
        <time>2022-03-06T15:08:50Z</time>
      </trkpt>
      <trkpt lat="45.35146" lon="5.85208">
        <ele>1785</ele>
        <time>2022-03-06T15:08:54Z</time>
      </trkpt>
      <trkpt lat="45.35146" lon="5.85208">
        <ele>1785</ele>
        <time>2022-03-06T15:08:55Z</time>
      </trkpt>
      <trkpt lat="45.35149" lon="5.85207">
        <ele>1785</ele>
        <time>2022-03-06T15:08:56Z</time>
      </trkpt>
      <trkpt lat="45.35151" lon="5.85206">
        <ele>1785</ele>
        <time>2022-03-06T15:08:59Z</time>
      </trkpt>
      <trkpt lat="45.35151" lon="5.85206">
        <ele>1785</ele>
        <time>2022-03-06T15:09:01Z</time>
      </trkpt>
      <trkpt lat="45.35153" lon="5.85205">
        <ele>1785</ele>
        <time>2022-03-06T15:09:02Z</time>
      </trkpt>
      <trkpt lat="45.35155" lon="5.85204">
        <ele>1785</ele>
        <time>2022-03-06T15:09:05Z</time>
      </trkpt>
      <trkpt lat="45.35155" lon="5.85204">
        <ele>1786</ele>
        <time>2022-03-06T15:09:07Z</time>
      </trkpt>
      <trkpt lat="45.35158" lon="5.85202">
        <ele>1786</ele>
        <time>2022-03-06T15:09:08Z</time>
      </trkpt>
      <trkpt lat="45.3516" lon="5.85201">
        <ele>1787</ele>
        <time>2022-03-06T15:09:11Z</time>
      </trkpt>
      <trkpt lat="45.3516" lon="5.85201">
        <ele>1788</ele>
        <time>2022-03-06T15:09:13Z</time>
      </trkpt>
      <trkpt lat="45.35162" lon="5.852">
        <ele>1788</ele>
        <time>2022-03-06T15:09:14Z</time>
      </trkpt>
      <trkpt lat="45.35163" lon="5.85197">
        <ele>1788</ele>
        <time>2022-03-06T15:09:17Z</time>
      </trkpt>
      <trkpt lat="45.35163" lon="5.85197">
        <ele>1788</ele>
        <time>2022-03-06T15:09:19Z</time>
      </trkpt>
      <trkpt lat="45.35163" lon="5.85194">
        <ele>1788</ele>
        <time>2022-03-06T15:09:20Z</time>
      </trkpt>
      <trkpt lat="45.35164" lon="5.85191">
        <ele>1790</ele>
        <time>2022-03-06T15:09:24Z</time>
      </trkpt>
      <trkpt lat="45.35164" lon="5.85191">
        <ele>1790</ele>
        <time>2022-03-06T15:09:25Z</time>
      </trkpt>
      <trkpt lat="45.35163" lon="5.85188">
        <ele>1790</ele>
        <time>2022-03-06T15:09:26Z</time>
      </trkpt>
      <trkpt lat="45.35162" lon="5.85186">
        <ele>1790</ele>
        <time>2022-03-06T15:09:29Z</time>
      </trkpt>
      <trkpt lat="45.35162" lon="5.85186">
        <ele>1791</ele>
        <time>2022-03-06T15:09:31Z</time>
      </trkpt>
      <trkpt lat="45.3516" lon="5.85184">
        <ele>1791</ele>
        <time>2022-03-06T15:09:34Z</time>
      </trkpt>
      <trkpt lat="45.35159" lon="5.85182">
        <ele>1792</ele>
        <time>2022-03-06T15:09:36Z</time>
      </trkpt>
      <trkpt lat="45.35159" lon="5.85182">
        <ele>1793</ele>
        <time>2022-03-06T15:09:39Z</time>
      </trkpt>
      <trkpt lat="45.35156" lon="5.85181">
        <ele>1793</ele>
        <time>2022-03-06T15:09:40Z</time>
      </trkpt>
      <trkpt lat="45.35154" lon="5.85179">
        <ele>1793</ele>
        <time>2022-03-06T15:09:42Z</time>
      </trkpt>
      <trkpt lat="45.35152" lon="5.85179">
        <ele>1794</ele>
        <time>2022-03-06T15:09:45Z</time>
      </trkpt>
      <trkpt lat="45.3515" lon="5.85178">
        <ele>1794</ele>
        <time>2022-03-06T15:09:46Z</time>
      </trkpt>
      <trkpt lat="45.35149" lon="5.85177">
        <ele>1794</ele>
        <time>2022-03-06T15:09:48Z</time>
      </trkpt>
      <trkpt lat="45.35147" lon="5.85176">
        <ele>1795</ele>
        <time>2022-03-06T15:09:51Z</time>
      </trkpt>
      <trkpt lat="45.35147" lon="5.85176">
        <ele>1795</ele>
        <time>2022-03-06T15:09:52Z</time>
      </trkpt>
      <trkpt lat="45.35145" lon="5.85175">
        <ele>1795</ele>
        <time>2022-03-06T15:09:54Z</time>
      </trkpt>
      <trkpt lat="45.35143" lon="5.85174">
        <ele>1796</ele>
        <time>2022-03-06T15:09:57Z</time>
      </trkpt>
      <trkpt lat="45.35143" lon="5.85174">
        <ele>1796</ele>
        <time>2022-03-06T15:09:58Z</time>
      </trkpt>
      <trkpt lat="45.35141" lon="5.85174">
        <ele>1796</ele>
        <time>2022-03-06T15:10:00Z</time>
      </trkpt>
      <trkpt lat="45.35138" lon="5.85173">
        <ele>1797</ele>
        <time>2022-03-06T15:10:03Z</time>
      </trkpt>
      <trkpt lat="45.35138" lon="5.85173">
        <ele>1797</ele>
        <time>2022-03-06T15:10:04Z</time>
      </trkpt>
      <trkpt lat="45.35136" lon="5.85173">
        <ele>1797</ele>
        <time>2022-03-06T15:10:06Z</time>
      </trkpt>
      <trkpt lat="45.35134" lon="5.85174">
        <ele>1798</ele>
        <time>2022-03-06T15:10:09Z</time>
      </trkpt>
      <trkpt lat="45.35134" lon="5.85174">
        <ele>1798</ele>
        <time>2022-03-06T15:10:10Z</time>
      </trkpt>
      <trkpt lat="45.35132" lon="5.85174">
        <ele>1798</ele>
        <time>2022-03-06T15:10:12Z</time>
      </trkpt>
      <trkpt lat="45.35129" lon="5.85174">
        <ele>1799</ele>
        <time>2022-03-06T15:10:15Z</time>
      </trkpt>
      <trkpt lat="45.35129" lon="5.85174">
        <ele>1799</ele>
        <time>2022-03-06T15:10:16Z</time>
      </trkpt>
      <trkpt lat="45.35127" lon="5.85174">
        <ele>1800</ele>
        <time>2022-03-06T15:10:18Z</time>
      </trkpt>
      <trkpt lat="45.35124" lon="5.85174">
        <ele>1801</ele>
        <time>2022-03-06T15:10:21Z</time>
      </trkpt>
      <trkpt lat="45.35124" lon="5.85174">
        <ele>1801</ele>
        <time>2022-03-06T15:10:22Z</time>
      </trkpt>
      <trkpt lat="45.35122" lon="5.85174">
        <ele>1801</ele>
        <time>2022-03-06T15:10:24Z</time>
      </trkpt>
      <trkpt lat="45.35121" lon="5.85171">
        <ele>1802</ele>
        <time>2022-03-06T15:10:27Z</time>
      </trkpt>
      <trkpt lat="45.35121" lon="5.85171">
        <ele>1802</ele>
        <time>2022-03-06T15:10:28Z</time>
      </trkpt>
      <trkpt lat="45.35121" lon="5.85168">
        <ele>1803</ele>
        <time>2022-03-06T15:10:30Z</time>
      </trkpt>
      <trkpt lat="45.35122" lon="5.85165">
        <ele>1803</ele>
        <time>2022-03-06T15:10:31Z</time>
      </trkpt>
      <trkpt lat="45.35123" lon="5.85162">
        <ele>1803</ele>
        <time>2022-03-06T15:10:34Z</time>
      </trkpt>
      <trkpt lat="45.35124" lon="5.85159">
        <ele>1803</ele>
        <time>2022-03-06T15:10:36Z</time>
      </trkpt>
      <trkpt lat="45.35126" lon="5.85156">
        <ele>1803</ele>
        <time>2022-03-06T15:10:39Z</time>
      </trkpt>
      <trkpt lat="45.35126" lon="5.85156">
        <ele>1803</ele>
        <time>2022-03-06T15:10:40Z</time>
      </trkpt>
      <trkpt lat="45.35126" lon="5.85154">
        <ele>1804</ele>
        <time>2022-03-06T15:10:44Z</time>
      </trkpt>
      <trkpt lat="45.35126" lon="5.85154">
        <ele>1804</ele>
        <time>2022-03-06T15:10:45Z</time>
      </trkpt>
      <trkpt lat="45.35126" lon="5.85151">
        <ele>1804</ele>
        <time>2022-03-06T15:10:48Z</time>
      </trkpt>
      <trkpt lat="45.35126" lon="5.85151">
        <ele>1805</ele>
        <time>2022-03-06T15:10:50Z</time>
      </trkpt>
      <trkpt lat="45.35124" lon="5.8515">
        <ele>1805</ele>
        <time>2022-03-06T15:10:52Z</time>
      </trkpt>
      <trkpt lat="45.35122" lon="5.8515">
        <ele>1806</ele>
        <time>2022-03-06T15:10:55Z</time>
      </trkpt>
      <trkpt lat="45.35122" lon="5.8515">
        <ele>1806</ele>
        <time>2022-03-06T15:10:56Z</time>
      </trkpt>
      <trkpt lat="45.3512" lon="5.8515">
        <ele>1806</ele>
        <time>2022-03-06T15:10:57Z</time>
      </trkpt>
      <trkpt lat="45.35118" lon="5.8515">
        <ele>1807</ele>
        <time>2022-03-06T15:10:59Z</time>
      </trkpt>
      <trkpt lat="45.35115" lon="5.85151">
        <ele>1807</ele>
        <time>2022-03-06T15:11:02Z</time>
      </trkpt>
      <trkpt lat="45.35115" lon="5.85151">
        <ele>1807</ele>
        <time>2022-03-06T15:11:03Z</time>
      </trkpt>
      <trkpt lat="45.35113" lon="5.85152">
        <ele>1808</ele>
        <time>2022-03-06T15:11:05Z</time>
      </trkpt>
      <trkpt lat="45.3511" lon="5.85152">
        <ele>1809</ele>
        <time>2022-03-06T15:11:08Z</time>
      </trkpt>
      <trkpt lat="45.3511" lon="5.85152">
        <ele>1809</ele>
        <time>2022-03-06T15:11:09Z</time>
      </trkpt>
      <trkpt lat="45.35108" lon="5.85152">
        <ele>1809</ele>
        <time>2022-03-06T15:11:11Z</time>
      </trkpt>
      <trkpt lat="45.35106" lon="5.85151">
        <ele>1809</ele>
        <time>2022-03-06T15:11:12Z</time>
      </trkpt>
      <trkpt lat="45.35104" lon="5.85149">
        <ele>1810</ele>
        <time>2022-03-06T15:11:15Z</time>
      </trkpt>
      <trkpt lat="45.35104" lon="5.85149">
        <ele>1810</ele>
        <time>2022-03-06T15:11:17Z</time>
      </trkpt>
      <trkpt lat="45.35101" lon="5.85148">
        <ele>1810</ele>
        <time>2022-03-06T15:11:18Z</time>
      </trkpt>
      <trkpt lat="45.351" lon="5.85146">
        <ele>1811</ele>
        <time>2022-03-06T15:11:21Z</time>
      </trkpt>
      <trkpt lat="45.351" lon="5.85146">
        <ele>1811</ele>
        <time>2022-03-06T15:11:23Z</time>
      </trkpt>
      <trkpt lat="45.35099" lon="5.85144">
        <ele>1811</ele>
        <time>2022-03-06T15:11:24Z</time>
      </trkpt>
      <trkpt lat="45.35098" lon="5.85141">
        <ele>1813</ele>
        <time>2022-03-06T15:11:27Z</time>
      </trkpt>
      <trkpt lat="45.35098" lon="5.85141">
        <ele>1813</ele>
        <time>2022-03-06T15:11:29Z</time>
      </trkpt>
      <trkpt lat="45.35097" lon="5.85138">
        <ele>1813</ele>
        <time>2022-03-06T15:11:30Z</time>
      </trkpt>
      <trkpt lat="45.35096" lon="5.85136">
        <ele>1813</ele>
        <time>2022-03-06T15:11:33Z</time>
      </trkpt>
      <trkpt lat="45.35096" lon="5.85136">
        <ele>1814</ele>
        <time>2022-03-06T15:11:35Z</time>
      </trkpt>
      <trkpt lat="45.35093" lon="5.85135">
        <ele>1814</ele>
        <time>2022-03-06T15:11:36Z</time>
      </trkpt>
      <trkpt lat="45.35091" lon="5.85134">
        <ele>1814</ele>
        <time>2022-03-06T15:11:39Z</time>
      </trkpt>
      <trkpt lat="45.35091" lon="5.85134">
        <ele>1815</ele>
        <time>2022-03-06T15:11:41Z</time>
      </trkpt>
      <trkpt lat="45.35089" lon="5.85133">
        <ele>1815</ele>
        <time>2022-03-06T15:11:42Z</time>
      </trkpt>
      <trkpt lat="45.35087" lon="5.85131">
        <ele>1815</ele>
        <time>2022-03-06T15:11:45Z</time>
      </trkpt>
      <trkpt lat="45.35087" lon="5.85131">
        <ele>1816</ele>
        <time>2022-03-06T15:11:47Z</time>
      </trkpt>
      <trkpt lat="45.35085" lon="5.8513">
        <ele>1816</ele>
        <time>2022-03-06T15:11:48Z</time>
      </trkpt>
      <trkpt lat="45.35083" lon="5.85129">
        <ele>1816</ele>
        <time>2022-03-06T15:11:51Z</time>
      </trkpt>
      <trkpt lat="45.35083" lon="5.85129">
        <ele>1816</ele>
        <time>2022-03-06T15:11:53Z</time>
      </trkpt>
      <trkpt lat="45.3508" lon="5.85129">
        <ele>1816</ele>
        <time>2022-03-06T15:11:54Z</time>
      </trkpt>
      <trkpt lat="45.35078" lon="5.85128">
        <ele>1817</ele>
        <time>2022-03-06T15:11:57Z</time>
      </trkpt>
      <trkpt lat="45.35078" lon="5.85128">
        <ele>1818</ele>
        <time>2022-03-06T15:11:59Z</time>
      </trkpt>
      <trkpt lat="45.35076" lon="5.85129">
        <ele>1818</ele>
        <time>2022-03-06T15:12:00Z</time>
      </trkpt>
      <trkpt lat="45.35073" lon="5.85128">
        <ele>1818</ele>
        <time>2022-03-06T15:12:03Z</time>
      </trkpt>
      <trkpt lat="45.35073" lon="5.85128">
        <ele>1819</ele>
        <time>2022-03-06T15:12:05Z</time>
      </trkpt>
      <trkpt lat="45.3507" lon="5.85128">
        <ele>1819</ele>
        <time>2022-03-06T15:12:06Z</time>
      </trkpt>
      <trkpt lat="45.35069" lon="5.85128">
        <ele>1820</ele>
        <time>2022-03-06T15:12:09Z</time>
      </trkpt>
      <trkpt lat="45.35069" lon="5.85128">
        <ele>1820</ele>
        <time>2022-03-06T15:12:11Z</time>
      </trkpt>
      <trkpt lat="45.35066" lon="5.85128">
        <ele>1821</ele>
        <time>2022-03-06T15:12:12Z</time>
      </trkpt>
      <trkpt lat="45.35063" lon="5.85128">
        <ele>1821</ele>
        <time>2022-03-06T15:12:15Z</time>
      </trkpt>
      <trkpt lat="45.35063" lon="5.85128">
        <ele>1821</ele>
        <time>2022-03-06T15:12:17Z</time>
      </trkpt>
      <trkpt lat="45.35061" lon="5.85129">
        <ele>1821</ele>
        <time>2022-03-06T15:12:18Z</time>
      </trkpt>
      <trkpt lat="45.35059" lon="5.85129">
        <ele>1821</ele>
        <time>2022-03-06T15:12:19Z</time>
      </trkpt>
      <trkpt lat="45.35056" lon="5.85128">
        <ele>1821</ele>
        <time>2022-03-06T15:12:21Z</time>
      </trkpt>
      <trkpt lat="45.35054" lon="5.85128">
        <ele>1822</ele>
        <time>2022-03-06T15:12:24Z</time>
      </trkpt>
      <trkpt lat="45.35052" lon="5.85128">
        <ele>1822</ele>
        <time>2022-03-06T15:12:25Z</time>
      </trkpt>
      <trkpt lat="45.3505" lon="5.85127">
        <ele>1822</ele>
        <time>2022-03-06T15:12:28Z</time>
      </trkpt>
      <trkpt lat="45.35048" lon="5.85127">
        <ele>1822</ele>
        <time>2022-03-06T15:12:30Z</time>
      </trkpt>
      <trkpt lat="45.35046" lon="5.85127">
        <ele>1822</ele>
        <time>2022-03-06T15:12:32Z</time>
      </trkpt>
      <trkpt lat="45.35046" lon="5.85127">
        <ele>1823</ele>
        <time>2022-03-06T15:12:34Z</time>
      </trkpt>
      <trkpt lat="45.35043" lon="5.85127">
        <ele>1823</ele>
        <time>2022-03-06T15:12:35Z</time>
      </trkpt>
      <trkpt lat="45.35041" lon="5.85127">
        <ele>1823</ele>
        <time>2022-03-06T15:12:37Z</time>
      </trkpt>
      <trkpt lat="45.35039" lon="5.85126">
        <ele>1824</ele>
        <time>2022-03-06T15:12:39Z</time>
      </trkpt>
      <trkpt lat="45.35039" lon="5.85126">
        <ele>1824</ele>
        <time>2022-03-06T15:12:41Z</time>
      </trkpt>
      <trkpt lat="45.35036" lon="5.85125">
        <ele>1824</ele>
        <time>2022-03-06T15:12:43Z</time>
      </trkpt>
      <trkpt lat="45.35034" lon="5.85124">
        <ele>1824</ele>
        <time>2022-03-06T15:12:45Z</time>
      </trkpt>
      <trkpt lat="45.35034" lon="5.85124">
        <ele>1825</ele>
        <time>2022-03-06T15:12:47Z</time>
      </trkpt>
      <trkpt lat="45.35032" lon="5.85122">
        <ele>1825</ele>
        <time>2022-03-06T15:12:48Z</time>
      </trkpt>
      <trkpt lat="45.35029" lon="5.8512">
        <ele>1825</ele>
        <time>2022-03-06T15:12:51Z</time>
      </trkpt>
      <trkpt lat="45.35029" lon="5.8512">
        <ele>1826</ele>
        <time>2022-03-06T15:12:53Z</time>
      </trkpt>
      <trkpt lat="45.35027" lon="5.85119">
        <ele>1826</ele>
        <time>2022-03-06T15:12:54Z</time>
      </trkpt>
      <trkpt lat="45.35025" lon="5.85117">
        <ele>1826</ele>
        <time>2022-03-06T15:12:58Z</time>
      </trkpt>
      <trkpt lat="45.35025" lon="5.85117">
        <ele>1826</ele>
        <time>2022-03-06T15:12:59Z</time>
      </trkpt>
      <trkpt lat="45.35023" lon="5.85115">
        <ele>1826</ele>
        <time>2022-03-06T15:13:00Z</time>
      </trkpt>
      <trkpt lat="45.35021" lon="5.85115">
        <ele>1826</ele>
        <time>2022-03-06T15:13:02Z</time>
      </trkpt>
      <trkpt lat="45.35019" lon="5.85114">
        <ele>1826</ele>
        <time>2022-03-06T15:13:04Z</time>
      </trkpt>
      <trkpt lat="45.35019" lon="5.85114">
        <ele>1826</ele>
        <time>2022-03-06T15:13:06Z</time>
      </trkpt>
      <trkpt lat="45.35017" lon="5.85113">
        <ele>1826</ele>
        <time>2022-03-06T15:13:07Z</time>
      </trkpt>
      <trkpt lat="45.35015" lon="5.85112">
        <ele>1827</ele>
        <time>2022-03-06T15:13:09Z</time>
      </trkpt>
      <trkpt lat="45.35013" lon="5.85111">
        <ele>1827</ele>
        <time>2022-03-06T15:13:10Z</time>
      </trkpt>
      <trkpt lat="45.35011" lon="5.8511">
        <ele>1827</ele>
        <time>2022-03-06T15:13:13Z</time>
      </trkpt>
      <trkpt lat="45.35009" lon="5.8511">
        <ele>1828</ele>
        <time>2022-03-06T15:13:15Z</time>
      </trkpt>
      <trkpt lat="45.35006" lon="5.8511">
        <ele>1828</ele>
        <time>2022-03-06T15:13:16Z</time>
      </trkpt>
      <trkpt lat="45.35004" lon="5.85109">
        <ele>1828</ele>
        <time>2022-03-06T15:13:18Z</time>
      </trkpt>
      <trkpt lat="45.35002" lon="5.85109">
        <ele>1828</ele>
        <time>2022-03-06T15:13:21Z</time>
      </trkpt>
      <trkpt lat="45.35002" lon="5.85109">
        <ele>1828</ele>
        <time>2022-03-06T15:13:22Z</time>
      </trkpt>
      <trkpt lat="45.35" lon="5.85108">
        <ele>1828</ele>
        <time>2022-03-06T15:13:23Z</time>
      </trkpt>
      <trkpt lat="45.34998" lon="5.85107">
        <ele>1828</ele>
        <time>2022-03-06T15:13:25Z</time>
      </trkpt>
      <trkpt lat="45.34997" lon="5.85106">
        <ele>1828</ele>
        <time>2022-03-06T15:13:27Z</time>
      </trkpt>
      <trkpt lat="45.34994" lon="5.85106">
        <ele>1829</ele>
        <time>2022-03-06T15:13:29Z</time>
      </trkpt>
      <trkpt lat="45.34993" lon="5.85105">
        <ele>1829</ele>
        <time>2022-03-06T15:13:31Z</time>
      </trkpt>
      <trkpt lat="45.34991" lon="5.85105">
        <ele>1829</ele>
        <time>2022-03-06T15:13:33Z</time>
      </trkpt>
      <trkpt lat="45.34989" lon="5.85104">
        <ele>1829</ele>
        <time>2022-03-06T15:13:35Z</time>
      </trkpt>
      <trkpt lat="45.34987" lon="5.85104">
        <ele>1829</ele>
        <time>2022-03-06T15:13:37Z</time>
      </trkpt>
      <trkpt lat="45.34985" lon="5.85103">
        <ele>1829</ele>
        <time>2022-03-06T15:13:39Z</time>
      </trkpt>
      <trkpt lat="45.34982" lon="5.85101">
        <ele>1829</ele>
        <time>2022-03-06T15:13:41Z</time>
      </trkpt>
      <trkpt lat="45.3498" lon="5.85101">
        <ele>1829</ele>
        <time>2022-03-06T15:13:43Z</time>
      </trkpt>
      <trkpt lat="45.3498" lon="5.85101">
        <ele>1830</ele>
        <time>2022-03-06T15:13:45Z</time>
      </trkpt>
      <trkpt lat="45.34977" lon="5.85101">
        <ele>1830</ele>
        <time>2022-03-06T15:13:46Z</time>
      </trkpt>
      <trkpt lat="45.34975" lon="5.85101">
        <ele>1829</ele>
        <time>2022-03-06T15:13:49Z</time>
      </trkpt>
      <trkpt lat="45.34975" lon="5.85101">
        <ele>1829</ele>
        <time>2022-03-06T15:13:51Z</time>
      </trkpt>
      <trkpt lat="45.34972" lon="5.85102">
        <ele>1830</ele>
        <time>2022-03-06T15:13:52Z</time>
      </trkpt>
      <trkpt lat="45.3497" lon="5.85102">
        <ele>1831</ele>
        <time>2022-03-06T15:13:54Z</time>
      </trkpt>
      <trkpt lat="45.34968" lon="5.85102">
        <ele>1831</ele>
        <time>2022-03-06T15:13:56Z</time>
      </trkpt>
      <trkpt lat="45.34966" lon="5.85102">
        <ele>1831</ele>
        <time>2022-03-06T15:13:58Z</time>
      </trkpt>
      <trkpt lat="45.34964" lon="5.85102">
        <ele>1832</ele>
        <time>2022-03-06T15:14:00Z</time>
      </trkpt>
      <trkpt lat="45.34962" lon="5.85102">
        <ele>1832</ele>
        <time>2022-03-06T15:14:02Z</time>
      </trkpt>
      <trkpt lat="45.34959" lon="5.85103">
        <ele>1832</ele>
        <time>2022-03-06T15:14:05Z</time>
      </trkpt>
      <trkpt lat="45.34959" lon="5.85103">
        <ele>1832</ele>
        <time>2022-03-06T15:14:06Z</time>
      </trkpt>
      <trkpt lat="45.34957" lon="5.85103">
        <ele>1832</ele>
        <time>2022-03-06T15:14:07Z</time>
      </trkpt>
      <trkpt lat="45.34956" lon="5.85103">
        <ele>1832</ele>
        <time>2022-03-06T15:14:09Z</time>
      </trkpt>
      <trkpt lat="45.34953" lon="5.85102">
        <ele>1832</ele>
        <time>2022-03-06T15:14:11Z</time>
      </trkpt>
      <trkpt lat="45.34951" lon="5.85101">
        <ele>1832</ele>
        <time>2022-03-06T15:14:13Z</time>
      </trkpt>
      <trkpt lat="45.34949" lon="5.851">
        <ele>1833</ele>
        <time>2022-03-06T15:14:15Z</time>
      </trkpt>
      <trkpt lat="45.34947" lon="5.85099">
        <ele>1833</ele>
        <time>2022-03-06T15:14:17Z</time>
      </trkpt>
      <trkpt lat="45.34945" lon="5.85097">
        <ele>1833</ele>
        <time>2022-03-06T15:14:19Z</time>
      </trkpt>
      <trkpt lat="45.34944" lon="5.85096">
        <ele>1833</ele>
        <time>2022-03-06T15:14:21Z</time>
      </trkpt>
      <trkpt lat="45.34942" lon="5.85095">
        <ele>1833</ele>
        <time>2022-03-06T15:14:24Z</time>
      </trkpt>
      <trkpt lat="45.34942" lon="5.85095">
        <ele>1833</ele>
        <time>2022-03-06T15:14:25Z</time>
      </trkpt>
      <trkpt lat="45.3494" lon="5.85094">
        <ele>1833</ele>
        <time>2022-03-06T15:14:26Z</time>
      </trkpt>
      <trkpt lat="45.34938" lon="5.85092">
        <ele>1833</ele>
        <time>2022-03-06T15:14:28Z</time>
      </trkpt>
      <trkpt lat="45.34937" lon="5.85091">
        <ele>1833</ele>
        <time>2022-03-06T15:14:30Z</time>
      </trkpt>
      <trkpt lat="45.34935" lon="5.85089">
        <ele>1834</ele>
        <time>2022-03-06T15:14:32Z</time>
      </trkpt>
      <trkpt lat="45.34934" lon="5.85087">
        <ele>1834</ele>
        <time>2022-03-06T15:14:34Z</time>
      </trkpt>
      <trkpt lat="45.34933" lon="5.85085">
        <ele>1834</ele>
        <time>2022-03-06T15:14:36Z</time>
      </trkpt>
      <trkpt lat="45.34931" lon="5.85083">
        <ele>1834</ele>
        <time>2022-03-06T15:14:38Z</time>
      </trkpt>
      <trkpt lat="45.3493" lon="5.85081">
        <ele>1834</ele>
        <time>2022-03-06T15:14:40Z</time>
      </trkpt>
      <trkpt lat="45.34928" lon="5.85079">
        <ele>1834</ele>
        <time>2022-03-06T15:14:41Z</time>
      </trkpt>
      <trkpt lat="45.34926" lon="5.85077">
        <ele>1834</ele>
        <time>2022-03-06T15:14:43Z</time>
      </trkpt>
      <trkpt lat="45.34924" lon="5.85076">
        <ele>1834</ele>
        <time>2022-03-06T15:14:45Z</time>
      </trkpt>
      <trkpt lat="45.34922" lon="5.85075">
        <ele>1834</ele>
        <time>2022-03-06T15:14:47Z</time>
      </trkpt>
      <trkpt lat="45.3492" lon="5.85075">
        <ele>1834</ele>
        <time>2022-03-06T15:14:50Z</time>
      </trkpt>
      <trkpt lat="45.3492" lon="5.85075">
        <ele>1834</ele>
        <time>2022-03-06T15:14:51Z</time>
      </trkpt>
      <trkpt lat="45.34918" lon="5.85075">
        <ele>1834</ele>
        <time>2022-03-06T15:14:53Z</time>
      </trkpt>
      <trkpt lat="45.34915" lon="5.85075">
        <ele>1835</ele>
        <time>2022-03-06T15:14:56Z</time>
      </trkpt>
      <trkpt lat="45.34915" lon="5.85075">
        <ele>1835</ele>
        <time>2022-03-06T15:14:57Z</time>
      </trkpt>
      <trkpt lat="45.34912" lon="5.85074">
        <ele>1835</ele>
        <time>2022-03-06T15:14:59Z</time>
      </trkpt>
      <trkpt lat="45.3491" lon="5.85074">
        <ele>1835</ele>
        <time>2022-03-06T15:15:02Z</time>
      </trkpt>
      <trkpt lat="45.3491" lon="5.85074">
        <ele>1835</ele>
        <time>2022-03-06T15:15:03Z</time>
      </trkpt>
      <trkpt lat="45.34907" lon="5.85075">
        <ele>1835</ele>
        <time>2022-03-06T15:15:05Z</time>
      </trkpt>
      <trkpt lat="45.34905" lon="5.85075">
        <ele>1835</ele>
        <time>2022-03-06T15:15:07Z</time>
      </trkpt>
      <trkpt lat="45.34905" lon="5.85075">
        <ele>1835</ele>
        <time>2022-03-06T15:15:09Z</time>
      </trkpt>
      <trkpt lat="45.34903" lon="5.85076">
        <ele>1836</ele>
        <time>2022-03-06T15:15:10Z</time>
      </trkpt>
      <trkpt lat="45.349" lon="5.85076">
        <ele>1836</ele>
        <time>2022-03-06T15:15:13Z</time>
      </trkpt>
      <trkpt lat="45.349" lon="5.85076">
        <ele>1837</ele>
        <time>2022-03-06T15:15:15Z</time>
      </trkpt>
      <trkpt lat="45.34898" lon="5.85077">
        <ele>1837</ele>
        <time>2022-03-06T15:15:16Z</time>
      </trkpt>
      <trkpt lat="45.34895" lon="5.85077">
        <ele>1837</ele>
        <time>2022-03-06T15:15:19Z</time>
      </trkpt>
      <trkpt lat="45.34895" lon="5.85077">
        <ele>1837</ele>
        <time>2022-03-06T15:15:21Z</time>
      </trkpt>
      <trkpt lat="45.34894" lon="5.85077">
        <ele>1837</ele>
        <time>2022-03-06T15:15:22Z</time>
      </trkpt>
      <trkpt lat="45.34894" lon="5.85077">
        <ele>1836</ele>
        <time>2022-03-06T15:15:26Z</time>
      </trkpt>
      <trkpt lat="45.34894" lon="5.85077">
        <ele>1837</ele>
        <time>2022-03-06T15:15:30Z</time>
      </trkpt>
      <trkpt lat="45.34894" lon="5.85077">
        <ele>1837</ele>
        <time>2022-03-06T15:15:34Z</time>
      </trkpt>
      <trkpt lat="45.34894" lon="5.85077">
        <ele>1837</ele>
        <time>2022-03-06T15:15:38Z</time>
      </trkpt>
      <trkpt lat="45.34894" lon="5.85077">
        <ele>1837</ele>
        <time>2022-03-06T15:15:42Z</time>
      </trkpt>
      <trkpt lat="45.34894" lon="5.85077">
        <ele>1836</ele>
        <time>2022-03-06T15:15:46Z</time>
      </trkpt>
      <trkpt lat="45.34894" lon="5.85077">
        <ele>1836</ele>
        <time>2022-03-06T15:15:50Z</time>
      </trkpt>
      <trkpt lat="45.34894" lon="5.85077">
        <ele>1836</ele>
        <time>2022-03-06T15:15:54Z</time>
      </trkpt>
      <trkpt lat="45.34894" lon="5.85077">
        <ele>1837</ele>
        <time>2022-03-06T15:15:58Z</time>
      </trkpt>
      <trkpt lat="45.34894" lon="5.85077">
        <ele>1836</ele>
        <time>2022-03-06T15:16:02Z</time>
      </trkpt>
      <trkpt lat="45.34894" lon="5.85077">
        <ele>1837</ele>
        <time>2022-03-06T15:16:06Z</time>
      </trkpt>
      <trkpt lat="45.34894" lon="5.85077">
        <ele>1837</ele>
        <time>2022-03-06T15:16:10Z</time>
      </trkpt>
      <trkpt lat="45.34894" lon="5.85077">
        <ele>1837</ele>
        <time>2022-03-06T15:16:14Z</time>
      </trkpt>
      <trkpt lat="45.34894" lon="5.85077">
        <ele>1837</ele>
        <time>2022-03-06T15:16:18Z</time>
      </trkpt>
      <trkpt lat="45.34894" lon="5.85077">
        <ele>1837</ele>
        <time>2022-03-06T15:16:22Z</time>
      </trkpt>
      <trkpt lat="45.34894" lon="5.85077">
        <ele>1837</ele>
        <time>2022-03-06T15:16:26Z</time>
      </trkpt>
      <trkpt lat="45.34894" lon="5.85077">
        <ele>1838</ele>
        <time>2022-03-06T15:16:30Z</time>
      </trkpt>
      <trkpt lat="45.34894" lon="5.85077">
        <ele>1838</ele>
        <time>2022-03-06T15:16:34Z</time>
      </trkpt>
      <trkpt lat="45.34894" lon="5.85077">
        <ele>1838</ele>
        <time>2022-03-06T15:16:38Z</time>
      </trkpt>
      <trkpt lat="45.34894" lon="5.85077">
        <ele>1838</ele>
        <time>2022-03-06T15:16:42Z</time>
      </trkpt>
      <trkpt lat="45.34894" lon="5.85077">
        <ele>1837</ele>
        <time>2022-03-06T15:16:46Z</time>
      </trkpt>
      <trkpt lat="45.34894" lon="5.85077">
        <ele>1837</ele>
        <time>2022-03-06T15:16:50Z</time>
      </trkpt>
      <trkpt lat="45.34894" lon="5.85077">
        <ele>1837</ele>
        <time>2022-03-06T15:16:54Z</time>
      </trkpt>
      <trkpt lat="45.34894" lon="5.85077">
        <ele>1837</ele>
        <time>2022-03-06T15:16:58Z</time>
      </trkpt>
      <trkpt lat="45.34894" lon="5.85077">
        <ele>1837</ele>
        <time>2022-03-06T15:17:02Z</time>
      </trkpt>
      <trkpt lat="45.34894" lon="5.85077">
        <ele>1838</ele>
        <time>2022-03-06T15:17:06Z</time>
      </trkpt>
      <trkpt lat="45.34894" lon="5.85077">
        <ele>1837</ele>
        <time>2022-03-06T15:17:10Z</time>
      </trkpt>
      <trkpt lat="45.34894" lon="5.85077">
        <ele>1837</ele>
        <time>2022-03-06T15:17:14Z</time>
      </trkpt>
      <trkpt lat="45.34894" lon="5.85077">
        <ele>1837</ele>
        <time>2022-03-06T15:17:18Z</time>
      </trkpt>
      <trkpt lat="45.34894" lon="5.85077">
        <ele>1837</ele>
        <time>2022-03-06T15:17:22Z</time>
      </trkpt>
      <trkpt lat="45.34894" lon="5.85077">
        <ele>1837</ele>
        <time>2022-03-06T15:17:26Z</time>
      </trkpt>
      <trkpt lat="45.34894" lon="5.85077">
        <ele>1837</ele>
        <time>2022-03-06T15:17:30Z</time>
      </trkpt>
      <trkpt lat="45.34894" lon="5.85077">
        <ele>1837</ele>
        <time>2022-03-06T15:17:34Z</time>
      </trkpt>
      <trkpt lat="45.34894" lon="5.85077">
        <ele>1837</ele>
        <time>2022-03-06T15:17:38Z</time>
      </trkpt>
      <trkpt lat="45.34894" lon="5.85077">
        <ele>1837</ele>
        <time>2022-03-06T15:17:42Z</time>
      </trkpt>
      <trkpt lat="45.34894" lon="5.85077">
        <ele>1837</ele>
        <time>2022-03-06T15:17:46Z</time>
      </trkpt>
      <trkpt lat="45.34894" lon="5.85077">
        <ele>1837</ele>
        <time>2022-03-06T15:17:50Z</time>
      </trkpt>
      <trkpt lat="45.34894" lon="5.85077">
        <ele>1837</ele>
        <time>2022-03-06T15:17:54Z</time>
      </trkpt>
      <trkpt lat="45.34894" lon="5.85077">
        <ele>1837</ele>
        <time>2022-03-06T15:17:58Z</time>
      </trkpt>
      <trkpt lat="45.34894" lon="5.85077">
        <ele>1837</ele>
        <time>2022-03-06T15:18:02Z</time>
      </trkpt>
      <trkpt lat="45.34894" lon="5.85077">
        <ele>1837</ele>
        <time>2022-03-06T15:18:06Z</time>
      </trkpt>
      <trkpt lat="45.34894" lon="5.85077">
        <ele>1837</ele>
        <time>2022-03-06T15:18:10Z</time>
      </trkpt>
      <trkpt lat="45.34894" lon="5.85077">
        <ele>1837</ele>
        <time>2022-03-06T15:18:14Z</time>
      </trkpt>
      <trkpt lat="45.34894" lon="5.85077">
        <ele>1837</ele>
        <time>2022-03-06T15:18:18Z</time>
      </trkpt>
      <trkpt lat="45.34894" lon="5.85077">
        <ele>1837</ele>
        <time>2022-03-06T15:18:22Z</time>
      </trkpt>
      <trkpt lat="45.34894" lon="5.85077">
        <ele>1837</ele>
        <time>2022-03-06T15:18:26Z</time>
      </trkpt>
      <trkpt lat="45.34894" lon="5.85077">
        <ele>1837</ele>
        <time>2022-03-06T15:18:30Z</time>
      </trkpt>
      <trkpt lat="45.34894" lon="5.85077">
        <ele>1837</ele>
        <time>2022-03-06T15:18:34Z</time>
      </trkpt>
      <trkpt lat="45.34894" lon="5.85077">
        <ele>1838</ele>
        <time>2022-03-06T15:18:38Z</time>
      </trkpt>
      <trkpt lat="45.34894" lon="5.85077">
        <ele>1837</ele>
        <time>2022-03-06T15:18:42Z</time>
      </trkpt>
      <trkpt lat="45.34894" lon="5.85077">
        <ele>1837</ele>
        <time>2022-03-06T15:18:46Z</time>
      </trkpt>
      <trkpt lat="45.34894" lon="5.85077">
        <ele>1837</ele>
        <time>2022-03-06T15:18:50Z</time>
      </trkpt>
      <trkpt lat="45.34894" lon="5.85077">
        <ele>1837</ele>
        <time>2022-03-06T15:18:54Z</time>
      </trkpt>
      <trkpt lat="45.34894" lon="5.85077">
        <ele>1837</ele>
        <time>2022-03-06T15:18:58Z</time>
      </trkpt>
      <trkpt lat="45.34894" lon="5.85077">
        <ele>1837</ele>
        <time>2022-03-06T15:19:02Z</time>
      </trkpt>
      <trkpt lat="45.34894" lon="5.85077">
        <ele>1837</ele>
        <time>2022-03-06T15:19:06Z</time>
      </trkpt>
      <trkpt lat="45.34894" lon="5.85077">
        <ele>1837</ele>
        <time>2022-03-06T15:19:10Z</time>
      </trkpt>
      <trkpt lat="45.34894" lon="5.85077">
        <ele>1837</ele>
        <time>2022-03-06T15:19:14Z</time>
      </trkpt>
      <trkpt lat="45.34894" lon="5.85077">
        <ele>1837</ele>
        <time>2022-03-06T15:19:18Z</time>
      </trkpt>
      <trkpt lat="45.34894" lon="5.85077">
        <ele>1837</ele>
        <time>2022-03-06T15:19:22Z</time>
      </trkpt>
      <trkpt lat="45.34894" lon="5.85077">
        <ele>1837</ele>
        <time>2022-03-06T15:19:26Z</time>
      </trkpt>
      <trkpt lat="45.34894" lon="5.85077">
        <ele>1837</ele>
        <time>2022-03-06T15:19:30Z</time>
      </trkpt>
      <trkpt lat="45.34894" lon="5.85077">
        <ele>1837</ele>
        <time>2022-03-06T15:19:34Z</time>
      </trkpt>
      <trkpt lat="45.34894" lon="5.85077">
        <ele>1837</ele>
        <time>2022-03-06T15:19:38Z</time>
      </trkpt>
      <trkpt lat="45.34894" lon="5.85077">
        <ele>1837</ele>
        <time>2022-03-06T15:19:42Z</time>
      </trkpt>
      <trkpt lat="45.34894" lon="5.85077">
        <ele>1837</ele>
        <time>2022-03-06T15:19:46Z</time>
      </trkpt>
      <trkpt lat="45.34894" lon="5.85077">
        <ele>1837</ele>
        <time>2022-03-06T15:19:50Z</time>
      </trkpt>
      <trkpt lat="45.34894" lon="5.85077">
        <ele>1837</ele>
        <time>2022-03-06T15:19:54Z</time>
      </trkpt>
      <trkpt lat="45.34894" lon="5.85077">
        <ele>1837</ele>
        <time>2022-03-06T15:19:58Z</time>
      </trkpt>
      <trkpt lat="45.34894" lon="5.85077">
        <ele>1837</ele>
        <time>2022-03-06T15:20:02Z</time>
      </trkpt>
      <trkpt lat="45.34894" lon="5.85077">
        <ele>1837</ele>
        <time>2022-03-06T15:20:06Z</time>
      </trkpt>
      <trkpt lat="45.34894" lon="5.85077">
        <ele>1837</ele>
        <time>2022-03-06T15:20:10Z</time>
      </trkpt>
      <trkpt lat="45.34894" lon="5.85077">
        <ele>1837</ele>
        <time>2022-03-06T15:20:14Z</time>
      </trkpt>
      <trkpt lat="45.34894" lon="5.85077">
        <ele>1837</ele>
        <time>2022-03-06T15:20:18Z</time>
      </trkpt>
      <trkpt lat="45.34894" lon="5.85077">
        <ele>1838</ele>
        <time>2022-03-06T15:20:22Z</time>
      </trkpt>
      <trkpt lat="45.34894" lon="5.85077">
        <ele>1838</ele>
        <time>2022-03-06T15:20:26Z</time>
      </trkpt>
      <trkpt lat="45.34894" lon="5.85077">
        <ele>1837</ele>
        <time>2022-03-06T15:20:30Z</time>
      </trkpt>
      <trkpt lat="45.34894" lon="5.85077">
        <ele>1837</ele>
        <time>2022-03-06T15:20:34Z</time>
      </trkpt>
      <trkpt lat="45.34894" lon="5.85077">
        <ele>1837</ele>
        <time>2022-03-06T15:20:38Z</time>
      </trkpt>
      <trkpt lat="45.34894" lon="5.85077">
        <ele>1837</ele>
        <time>2022-03-06T15:20:42Z</time>
      </trkpt>
      <trkpt lat="45.34894" lon="5.85077">
        <ele>1837</ele>
        <time>2022-03-06T15:20:46Z</time>
      </trkpt>
      <trkpt lat="45.34894" lon="5.85077">
        <ele>1837</ele>
        <time>2022-03-06T15:20:50Z</time>
      </trkpt>
      <trkpt lat="45.34894" lon="5.85077">
        <ele>1837</ele>
        <time>2022-03-06T15:20:54Z</time>
      </trkpt>
      <trkpt lat="45.34894" lon="5.85077">
        <ele>1837</ele>
        <time>2022-03-06T15:20:58Z</time>
      </trkpt>
      <trkpt lat="45.34894" lon="5.85077">
        <ele>1837</ele>
        <time>2022-03-06T15:21:02Z</time>
      </trkpt>
      <trkpt lat="45.34894" lon="5.85077">
        <ele>1837</ele>
        <time>2022-03-06T15:21:06Z</time>
      </trkpt>
      <trkpt lat="45.34894" lon="5.85077">
        <ele>1838</ele>
        <time>2022-03-06T15:21:10Z</time>
      </trkpt>
      <trkpt lat="45.34894" lon="5.85077">
        <ele>1838</ele>
        <time>2022-03-06T15:21:14Z</time>
      </trkpt>
      <trkpt lat="45.34894" lon="5.85077">
        <ele>1837</ele>
        <time>2022-03-06T15:21:18Z</time>
      </trkpt>
      <trkpt lat="45.34894" lon="5.85077">
        <ele>1837</ele>
        <time>2022-03-06T15:21:22Z</time>
      </trkpt>
      <trkpt lat="45.34894" lon="5.85077">
        <ele>1837</ele>
        <time>2022-03-06T15:21:26Z</time>
      </trkpt>
      <trkpt lat="45.34894" lon="5.85077">
        <ele>1837</ele>
        <time>2022-03-06T15:21:30Z</time>
      </trkpt>
      <trkpt lat="45.34894" lon="5.85077">
        <ele>1838</ele>
        <time>2022-03-06T15:21:34Z</time>
      </trkpt>
      <trkpt lat="45.34894" lon="5.85077">
        <ele>1837</ele>
        <time>2022-03-06T15:21:38Z</time>
      </trkpt>
      <trkpt lat="45.34894" lon="5.85077">
        <ele>1836</ele>
        <time>2022-03-06T15:21:42Z</time>
      </trkpt>
      <trkpt lat="45.34894" lon="5.85077">
        <ele>1837</ele>
        <time>2022-03-06T15:21:46Z</time>
      </trkpt>
      <trkpt lat="45.34894" lon="5.85077">
        <ele>1838</ele>
        <time>2022-03-06T15:21:50Z</time>
      </trkpt>
      <trkpt lat="45.34894" lon="5.85077">
        <ele>1838</ele>
        <time>2022-03-06T15:21:54Z</time>
      </trkpt>
      <trkpt lat="45.34894" lon="5.85077">
        <ele>1838</ele>
        <time>2022-03-06T15:21:58Z</time>
      </trkpt>
      <trkpt lat="45.34894" lon="5.85077">
        <ele>1838</ele>
        <time>2022-03-06T15:22:02Z</time>
      </trkpt>
      <trkpt lat="45.34894" lon="5.85077">
        <ele>1838</ele>
        <time>2022-03-06T15:22:06Z</time>
      </trkpt>
      <trkpt lat="45.34894" lon="5.85077">
        <ele>1838</ele>
        <time>2022-03-06T15:22:10Z</time>
      </trkpt>
      <trkpt lat="45.34894" lon="5.85077">
        <ele>1838</ele>
        <time>2022-03-06T15:22:14Z</time>
      </trkpt>
      <trkpt lat="45.34894" lon="5.85077">
        <ele>1838</ele>
        <time>2022-03-06T15:22:18Z</time>
      </trkpt>
      <trkpt lat="45.34894" lon="5.85077">
        <ele>1835</ele>
        <time>2022-03-06T15:22:23Z</time>
      </trkpt>
      <trkpt lat="45.34894" lon="5.85077">
        <ele>1838</ele>
        <time>2022-03-06T15:22:27Z</time>
      </trkpt>
      <trkpt lat="45.34894" lon="5.85077">
        <ele>1837</ele>
        <time>2022-03-06T15:22:31Z</time>
      </trkpt>
      <trkpt lat="45.34894" lon="5.85077">
        <ele>1837</ele>
        <time>2022-03-06T15:22:35Z</time>
      </trkpt>
      <trkpt lat="45.34894" lon="5.85077">
        <ele>1837</ele>
        <time>2022-03-06T15:22:39Z</time>
      </trkpt>
      <trkpt lat="45.34894" lon="5.85077">
        <ele>1837</ele>
        <time>2022-03-06T15:22:43Z</time>
      </trkpt>
      <trkpt lat="45.34894" lon="5.85077">
        <ele>1837</ele>
        <time>2022-03-06T15:22:47Z</time>
      </trkpt>
      <trkpt lat="45.34894" lon="5.85077">
        <ele>1837</ele>
        <time>2022-03-06T15:22:51Z</time>
      </trkpt>
      <trkpt lat="45.34894" lon="5.85077">
        <ele>1837</ele>
        <time>2022-03-06T15:22:55Z</time>
      </trkpt>
      <trkpt lat="45.34894" lon="5.85077">
        <ele>1838</ele>
        <time>2022-03-06T15:22:59Z</time>
      </trkpt>
      <trkpt lat="45.34894" lon="5.85077">
        <ele>1837</ele>
        <time>2022-03-06T15:23:03Z</time>
      </trkpt>
      <trkpt lat="45.34894" lon="5.85077">
        <ele>1837</ele>
        <time>2022-03-06T15:23:07Z</time>
      </trkpt>
      <trkpt lat="45.34894" lon="5.85077">
        <ele>1838</ele>
        <time>2022-03-06T15:23:11Z</time>
      </trkpt>
      <trkpt lat="45.34894" lon="5.85077">
        <ele>1838</ele>
        <time>2022-03-06T15:23:15Z</time>
      </trkpt>
      <trkpt lat="45.34894" lon="5.85077">
        <ele>1837</ele>
        <time>2022-03-06T15:23:19Z</time>
      </trkpt>
      <trkpt lat="45.34894" lon="5.85077">
        <ele>1838</ele>
        <time>2022-03-06T15:23:23Z</time>
      </trkpt>
      <trkpt lat="45.34894" lon="5.85077">
        <ele>1837</ele>
        <time>2022-03-06T15:23:27Z</time>
      </trkpt>
      <trkpt lat="45.34894" lon="5.85077">
        <ele>1838</ele>
        <time>2022-03-06T15:23:31Z</time>
      </trkpt>
      <trkpt lat="45.34894" lon="5.85077">
        <ele>1839</ele>
        <time>2022-03-06T15:23:35Z</time>
      </trkpt>
      <trkpt lat="45.34894" lon="5.85077">
        <ele>1839</ele>
        <time>2022-03-06T15:23:39Z</time>
      </trkpt>
      <trkpt lat="45.34894" lon="5.85077">
        <ele>1839</ele>
        <time>2022-03-06T15:23:43Z</time>
      </trkpt>
      <trkpt lat="45.34894" lon="5.85077">
        <ele>1837</ele>
        <time>2022-03-06T15:23:47Z</time>
      </trkpt>
      <trkpt lat="45.34894" lon="5.85077">
        <ele>1838</ele>
        <time>2022-03-06T15:23:51Z</time>
      </trkpt>
      <trkpt lat="45.34894" lon="5.85077">
        <ele>1838</ele>
        <time>2022-03-06T15:23:55Z</time>
      </trkpt>
      <trkpt lat="45.34894" lon="5.85077">
        <ele>1837</ele>
        <time>2022-03-06T15:23:59Z</time>
      </trkpt>
      <trkpt lat="45.34894" lon="5.85077">
        <ele>1838</ele>
        <time>2022-03-06T15:24:03Z</time>
      </trkpt>
      <trkpt lat="45.34894" lon="5.85077">
        <ele>1837</ele>
        <time>2022-03-06T15:24:07Z</time>
      </trkpt>
      <trkpt lat="45.34894" lon="5.85077">
        <ele>1837</ele>
        <time>2022-03-06T15:24:11Z</time>
      </trkpt>
      <trkpt lat="45.34894" lon="5.85077">
        <ele>1838</ele>
        <time>2022-03-06T15:24:15Z</time>
      </trkpt>
      <trkpt lat="45.34894" lon="5.85077">
        <ele>1837</ele>
        <time>2022-03-06T15:24:19Z</time>
      </trkpt>
      <trkpt lat="45.34894" lon="5.85077">
        <ele>1837</ele>
        <time>2022-03-06T15:24:23Z</time>
      </trkpt>
      <trkpt lat="45.34894" lon="5.85077">
        <ele>1837</ele>
        <time>2022-03-06T15:24:27Z</time>
      </trkpt>
      <trkpt lat="45.34894" lon="5.85077">
        <ele>1837</ele>
        <time>2022-03-06T15:24:31Z</time>
      </trkpt>
      <trkpt lat="45.34894" lon="5.85077">
        <ele>1837</ele>
        <time>2022-03-06T15:24:35Z</time>
      </trkpt>
      <trkpt lat="45.34894" lon="5.85077">
        <ele>1838</ele>
        <time>2022-03-06T15:24:39Z</time>
      </trkpt>
      <trkpt lat="45.34894" lon="5.85077">
        <ele>1838</ele>
        <time>2022-03-06T15:24:43Z</time>
      </trkpt>
      <trkpt lat="45.34894" lon="5.85077">
        <ele>1838</ele>
        <time>2022-03-06T15:24:47Z</time>
      </trkpt>
      <trkpt lat="45.34894" lon="5.85077">
        <ele>1837</ele>
        <time>2022-03-06T15:24:51Z</time>
      </trkpt>
      <trkpt lat="45.34894" lon="5.85077">
        <ele>1837</ele>
        <time>2022-03-06T15:24:55Z</time>
      </trkpt>
      <trkpt lat="45.34894" lon="5.85077">
        <ele>1839</ele>
        <time>2022-03-06T15:24:59Z</time>
      </trkpt>
      <trkpt lat="45.34894" lon="5.85077">
        <ele>1838</ele>
        <time>2022-03-06T15:25:03Z</time>
      </trkpt>
      <trkpt lat="45.34894" lon="5.85077">
        <ele>1838</ele>
        <time>2022-03-06T15:25:07Z</time>
      </trkpt>
      <trkpt lat="45.34894" lon="5.85077">
        <ele>1838</ele>
        <time>2022-03-06T15:25:11Z</time>
      </trkpt>
      <trkpt lat="45.34894" lon="5.85077">
        <ele>1838</ele>
        <time>2022-03-06T15:25:15Z</time>
      </trkpt>
      <trkpt lat="45.34894" lon="5.85077">
        <ele>1837</ele>
        <time>2022-03-06T15:25:19Z</time>
      </trkpt>
      <trkpt lat="45.34894" lon="5.85077">
        <ele>1838</ele>
        <time>2022-03-06T15:25:23Z</time>
      </trkpt>
      <trkpt lat="45.34894" lon="5.85077">
        <ele>1838</ele>
        <time>2022-03-06T15:25:27Z</time>
      </trkpt>
      <trkpt lat="45.34894" lon="5.85077">
        <ele>1838</ele>
        <time>2022-03-06T15:25:31Z</time>
      </trkpt>
      <trkpt lat="45.34894" lon="5.85077">
        <ele>1838</ele>
        <time>2022-03-06T15:25:35Z</time>
      </trkpt>
      <trkpt lat="45.34894" lon="5.85077">
        <ele>1838</ele>
        <time>2022-03-06T15:25:39Z</time>
      </trkpt>
      <trkpt lat="45.34894" lon="5.85077">
        <ele>1837</ele>
        <time>2022-03-06T15:25:43Z</time>
      </trkpt>
      <trkpt lat="45.34894" lon="5.85077">
        <ele>1837</ele>
        <time>2022-03-06T15:25:47Z</time>
      </trkpt>
      <trkpt lat="45.34894" lon="5.85077">
        <ele>1837</ele>
        <time>2022-03-06T15:25:51Z</time>
      </trkpt>
      <trkpt lat="45.34894" lon="5.85077">
        <ele>1837</ele>
        <time>2022-03-06T15:25:55Z</time>
      </trkpt>
      <trkpt lat="45.34894" lon="5.85077">
        <ele>1837</ele>
        <time>2022-03-06T15:25:59Z</time>
      </trkpt>
      <trkpt lat="45.34894" lon="5.85077">
        <ele>1837</ele>
        <time>2022-03-06T15:26:03Z</time>
      </trkpt>
      <trkpt lat="45.34894" lon="5.85077">
        <ele>1837</ele>
        <time>2022-03-06T15:26:07Z</time>
      </trkpt>
      <trkpt lat="45.34894" lon="5.85077">
        <ele>1838</ele>
        <time>2022-03-06T15:26:11Z</time>
      </trkpt>
      <trkpt lat="45.34894" lon="5.85077">
        <ele>1838</ele>
        <time>2022-03-06T15:26:15Z</time>
      </trkpt>
      <trkpt lat="45.34894" lon="5.85077">
        <ele>1838</ele>
        <time>2022-03-06T15:26:19Z</time>
      </trkpt>
      <trkpt lat="45.34894" lon="5.85077">
        <ele>1838</ele>
        <time>2022-03-06T15:26:23Z</time>
      </trkpt>
      <trkpt lat="45.34894" lon="5.85077">
        <ele>1838</ele>
        <time>2022-03-06T15:26:27Z</time>
      </trkpt>
      <trkpt lat="45.34894" lon="5.85077">
        <ele>1838</ele>
        <time>2022-03-06T15:26:31Z</time>
      </trkpt>
      <trkpt lat="45.34894" lon="5.85077">
        <ele>1837</ele>
        <time>2022-03-06T15:26:35Z</time>
      </trkpt>
      <trkpt lat="45.34894" lon="5.85077">
        <ele>1838</ele>
        <time>2022-03-06T15:26:39Z</time>
      </trkpt>
      <trkpt lat="45.34894" lon="5.85077">
        <ele>1837</ele>
        <time>2022-03-06T15:26:43Z</time>
      </trkpt>
      <trkpt lat="45.34894" lon="5.85077">
        <ele>1837</ele>
        <time>2022-03-06T15:26:47Z</time>
      </trkpt>
      <trkpt lat="45.34894" lon="5.85077">
        <ele>1837</ele>
        <time>2022-03-06T15:26:51Z</time>
      </trkpt>
      <trkpt lat="45.34894" lon="5.85077">
        <ele>1836</ele>
        <time>2022-03-06T15:26:55Z</time>
      </trkpt>
      <trkpt lat="45.34894" lon="5.85077">
        <ele>1836</ele>
        <time>2022-03-06T15:26:59Z</time>
      </trkpt>
      <trkpt lat="45.34894" lon="5.85077">
        <ele>1836</ele>
        <time>2022-03-06T15:27:03Z</time>
      </trkpt>
      <trkpt lat="45.34894" lon="5.85077">
        <ele>1837</ele>
        <time>2022-03-06T15:27:07Z</time>
      </trkpt>
      <trkpt lat="45.34894" lon="5.85077">
        <ele>1837</ele>
        <time>2022-03-06T15:27:11Z</time>
      </trkpt>
      <trkpt lat="45.34894" lon="5.85077">
        <ele>1837</ele>
        <time>2022-03-06T15:27:15Z</time>
      </trkpt>
      <trkpt lat="45.34894" lon="5.85077">
        <ele>1838</ele>
        <time>2022-03-06T15:27:19Z</time>
      </trkpt>
      <trkpt lat="45.34894" lon="5.85077">
        <ele>1838</ele>
        <time>2022-03-06T15:27:23Z</time>
      </trkpt>
      <trkpt lat="45.34894" lon="5.85077">
        <ele>1838</ele>
        <time>2022-03-06T15:27:27Z</time>
      </trkpt>
      <trkpt lat="45.34894" lon="5.85077">
        <ele>1838</ele>
        <time>2022-03-06T15:27:31Z</time>
      </trkpt>
      <trkpt lat="45.34894" lon="5.85077">
        <ele>1838</ele>
        <time>2022-03-06T15:27:35Z</time>
      </trkpt>
      <trkpt lat="45.34894" lon="5.85077">
        <ele>1837</ele>
        <time>2022-03-06T15:27:39Z</time>
      </trkpt>
      <trkpt lat="45.34894" lon="5.85077">
        <ele>1837</ele>
        <time>2022-03-06T15:27:43Z</time>
      </trkpt>
      <trkpt lat="45.34894" lon="5.85077">
        <ele>1837</ele>
        <time>2022-03-06T15:27:47Z</time>
      </trkpt>
      <trkpt lat="45.34894" lon="5.85077">
        <ele>1838</ele>
        <time>2022-03-06T15:27:51Z</time>
      </trkpt>
      <trkpt lat="45.34892" lon="5.85078">
        <ele>1838</ele>
        <time>2022-03-06T15:27:52Z</time>
      </trkpt>
      <trkpt lat="45.34892" lon="5.85078">
        <ele>1838</ele>
        <time>2022-03-06T15:27:56Z</time>
      </trkpt>
      <trkpt lat="45.34892" lon="5.85078">
        <ele>1838</ele>
        <time>2022-03-06T15:28:00Z</time>
      </trkpt>
      <trkpt lat="45.34892" lon="5.85078">
        <ele>1838</ele>
        <time>2022-03-06T15:28:04Z</time>
      </trkpt>
      <trkpt lat="45.34891" lon="5.85075">
        <ele>1838</ele>
        <time>2022-03-06T15:28:06Z</time>
      </trkpt>
      <trkpt lat="45.34894" lon="5.85074">
        <ele>1838</ele>
        <time>2022-03-06T15:28:09Z</time>
      </trkpt>
      <trkpt lat="45.34894" lon="5.85074">
        <ele>1838</ele>
        <time>2022-03-06T15:28:10Z</time>
      </trkpt>
      <trkpt lat="45.34895" lon="5.85074">
        <ele>1838</ele>
        <time>2022-03-06T15:28:11Z</time>
      </trkpt>
      <trkpt lat="45.34897" lon="5.85075">
        <ele>1838</ele>
        <time>2022-03-06T15:28:13Z</time>
      </trkpt>
      <trkpt lat="45.349" lon="5.85075">
        <ele>1838</ele>
        <time>2022-03-06T15:28:15Z</time>
      </trkpt>
      <trkpt lat="45.34904" lon="5.85074">
        <ele>1837</ele>
        <time>2022-03-06T15:28:17Z</time>
      </trkpt>
      <trkpt lat="45.34907" lon="5.85073">
        <ele>1837</ele>
        <time>2022-03-06T15:28:18Z</time>
      </trkpt>
      <trkpt lat="45.3491" lon="5.85073">
        <ele>1837</ele>
        <time>2022-03-06T15:28:19Z</time>
      </trkpt>
      <trkpt lat="45.34914" lon="5.85074">
        <ele>1837</ele>
        <time>2022-03-06T15:28:20Z</time>
      </trkpt>
      <trkpt lat="45.34919" lon="5.85074">
        <ele>1836</ele>
        <time>2022-03-06T15:28:22Z</time>
      </trkpt>
      <trkpt lat="45.34924" lon="5.85075">
        <ele>1835</ele>
        <time>2022-03-06T15:28:23Z</time>
      </trkpt>
      <trkpt lat="45.34928" lon="5.85077">
        <ele>1834</ele>
        <time>2022-03-06T15:28:24Z</time>
      </trkpt>
      <trkpt lat="45.34932" lon="5.85079">
        <ele>1834</ele>
        <time>2022-03-06T15:28:25Z</time>
      </trkpt>
      <trkpt lat="45.34937" lon="5.85081">
        <ele>1834</ele>
        <time>2022-03-06T15:28:26Z</time>
      </trkpt>
      <trkpt lat="45.34942" lon="5.85083">
        <ele>1834</ele>
        <time>2022-03-06T15:28:27Z</time>
      </trkpt>
      <trkpt lat="45.34948" lon="5.85084">
        <ele>1833</ele>
        <time>2022-03-06T15:28:28Z</time>
      </trkpt>
      <trkpt lat="45.34955" lon="5.85086">
        <ele>1832</ele>
        <time>2022-03-06T15:28:29Z</time>
      </trkpt>
      <trkpt lat="45.3497" lon="5.85087">
        <ele>1831</ele>
        <time>2022-03-06T15:28:30Z</time>
      </trkpt>
      <trkpt lat="45.34977" lon="5.85086">
        <ele>1830</ele>
        <time>2022-03-06T15:28:31Z</time>
      </trkpt>
      <trkpt lat="45.34984" lon="5.85086">
        <ele>1829</ele>
        <time>2022-03-06T15:28:32Z</time>
      </trkpt>
      <trkpt lat="45.34991" lon="5.85086">
        <ele>1829</ele>
        <time>2022-03-06T15:28:33Z</time>
      </trkpt>
      <trkpt lat="45.34998" lon="5.85086">
        <ele>1829</ele>
        <time>2022-03-06T15:28:34Z</time>
      </trkpt>
      <trkpt lat="45.35005" lon="5.85087">
        <ele>1828</ele>
        <time>2022-03-06T15:28:35Z</time>
      </trkpt>
      <trkpt lat="45.35011" lon="5.85089">
        <ele>1828</ele>
        <time>2022-03-06T15:28:36Z</time>
      </trkpt>
      <trkpt lat="45.35017" lon="5.8509">
        <ele>1827</ele>
        <time>2022-03-06T15:28:38Z</time>
      </trkpt>
      <trkpt lat="45.35024" lon="5.8509">
        <ele>1826</ele>
        <time>2022-03-06T15:28:39Z</time>
      </trkpt>
      <trkpt lat="45.3503" lon="5.85089">
        <ele>1826</ele>
        <time>2022-03-06T15:28:40Z</time>
      </trkpt>
      <trkpt lat="45.35036" lon="5.85088">
        <ele>1826</ele>
        <time>2022-03-06T15:28:41Z</time>
      </trkpt>
      <trkpt lat="45.35042" lon="5.85087">
        <ele>1826</ele>
        <time>2022-03-06T15:28:42Z</time>
      </trkpt>
      <trkpt lat="45.35048" lon="5.85085">
        <ele>1825</ele>
        <time>2022-03-06T15:28:43Z</time>
      </trkpt>
      <trkpt lat="45.35054" lon="5.85084">
        <ele>1824</ele>
        <time>2022-03-06T15:28:44Z</time>
      </trkpt>
      <trkpt lat="45.35065" lon="5.85085">
        <ele>1823</ele>
        <time>2022-03-06T15:28:45Z</time>
      </trkpt>
      <trkpt lat="45.35069" lon="5.85082">
        <ele>1822</ele>
        <time>2022-03-06T15:28:46Z</time>
      </trkpt>
      <trkpt lat="45.35073" lon="5.85077">
        <ele>1822</ele>
        <time>2022-03-06T15:28:47Z</time>
      </trkpt>
      <trkpt lat="45.35078" lon="5.85073">
        <ele>1822</ele>
        <time>2022-03-06T15:28:48Z</time>
      </trkpt>
      <trkpt lat="45.35083" lon="5.85074">
        <ele>1821</ele>
        <time>2022-03-06T15:28:49Z</time>
      </trkpt>
      <trkpt lat="45.35088" lon="5.85076">
        <ele>1820</ele>
        <time>2022-03-06T15:28:50Z</time>
      </trkpt>
      <trkpt lat="45.35093" lon="5.85078">
        <ele>1819</ele>
        <time>2022-03-06T15:28:51Z</time>
      </trkpt>
      <trkpt lat="45.35097" lon="5.85082">
        <ele>1818</ele>
        <time>2022-03-06T15:28:52Z</time>
      </trkpt>
      <trkpt lat="45.35101" lon="5.85087">
        <ele>1818</ele>
        <time>2022-03-06T15:28:53Z</time>
      </trkpt>
      <trkpt lat="45.35105" lon="5.8509">
        <ele>1817</ele>
        <time>2022-03-06T15:28:54Z</time>
      </trkpt>
      <trkpt lat="45.35114" lon="5.85092">
        <ele>1815</ele>
        <time>2022-03-06T15:28:56Z</time>
      </trkpt>
      <trkpt lat="45.35118" lon="5.85094">
        <ele>1813</ele>
        <time>2022-03-06T15:28:58Z</time>
      </trkpt>
      <trkpt lat="45.35122" lon="5.85096">
        <ele>1813</ele>
        <time>2022-03-06T15:28:59Z</time>
      </trkpt>
      <trkpt lat="45.35126" lon="5.85101">
        <ele>1811</ele>
        <time>2022-03-06T15:29:00Z</time>
      </trkpt>
      <trkpt lat="45.35128" lon="5.85104">
        <ele>1810</ele>
        <time>2022-03-06T15:29:01Z</time>
      </trkpt>
      <trkpt lat="45.35131" lon="5.85105">
        <ele>1809</ele>
        <time>2022-03-06T15:29:02Z</time>
      </trkpt>
      <trkpt lat="45.35135" lon="5.85104">
        <ele>1807</ele>
        <time>2022-03-06T15:29:03Z</time>
      </trkpt>
      <trkpt lat="45.3514" lon="5.85103">
        <ele>1804</ele>
        <time>2022-03-06T15:29:04Z</time>
      </trkpt>
      <trkpt lat="45.35145" lon="5.85105">
        <ele>1802</ele>
        <time>2022-03-06T15:29:05Z</time>
      </trkpt>
      <trkpt lat="45.35155" lon="5.85106">
        <ele>1801</ele>
        <time>2022-03-06T15:29:06Z</time>
      </trkpt>
      <trkpt lat="45.35161" lon="5.85103">
        <ele>1800</ele>
        <time>2022-03-06T15:29:07Z</time>
      </trkpt>
      <trkpt lat="45.35165" lon="5.85101">
        <ele>1799</ele>
        <time>2022-03-06T15:29:08Z</time>
      </trkpt>
      <trkpt lat="45.35167" lon="5.85099">
        <ele>1797</ele>
        <time>2022-03-06T15:29:10Z</time>
      </trkpt>
      <trkpt lat="45.35169" lon="5.85096">
        <ele>1797</ele>
        <time>2022-03-06T15:29:11Z</time>
      </trkpt>
      <trkpt lat="45.35171" lon="5.85091">
        <ele>1797</ele>
        <time>2022-03-06T15:29:12Z</time>
      </trkpt>
      <trkpt lat="45.35172" lon="5.85083">
        <ele>1796</ele>
        <time>2022-03-06T15:29:13Z</time>
      </trkpt>
      <trkpt lat="45.3517" lon="5.85076">
        <ele>1795</ele>
        <time>2022-03-06T15:29:14Z</time>
      </trkpt>
      <trkpt lat="45.35168" lon="5.85069">
        <ele>1794</ele>
        <time>2022-03-06T15:29:15Z</time>
      </trkpt>
      <trkpt lat="45.35166" lon="5.85061">
        <ele>1794</ele>
        <time>2022-03-06T15:29:16Z</time>
      </trkpt>
      <trkpt lat="45.35166" lon="5.85052">
        <ele>1793</ele>
        <time>2022-03-06T15:29:17Z</time>
      </trkpt>
      <trkpt lat="45.35167" lon="5.85042">
        <ele>1789</ele>
        <time>2022-03-06T15:29:19Z</time>
      </trkpt>
      <trkpt lat="45.35166" lon="5.85032">
        <ele>1787</ele>
        <time>2022-03-06T15:29:20Z</time>
      </trkpt>
      <trkpt lat="45.35162" lon="5.85021">
        <ele>1785</ele>
        <time>2022-03-06T15:29:21Z</time>
      </trkpt>
      <trkpt lat="45.35158" lon="5.8501">
        <ele>1782</ele>
        <time>2022-03-06T15:29:22Z</time>
      </trkpt>
      <trkpt lat="45.35158" lon="5.84997">
        <ele>1778</ele>
        <time>2022-03-06T15:29:23Z</time>
      </trkpt>
      <trkpt lat="45.3516" lon="5.84968">
        <ele>1776</ele>
        <time>2022-03-06T15:29:24Z</time>
      </trkpt>
      <trkpt lat="45.35157" lon="5.84952">
        <ele>1772</ele>
        <time>2022-03-06T15:29:25Z</time>
      </trkpt>
      <trkpt lat="45.35154" lon="5.84937">
        <ele>1768</ele>
        <time>2022-03-06T15:29:26Z</time>
      </trkpt>
      <trkpt lat="45.35156" lon="5.84922">
        <ele>1764</ele>
        <time>2022-03-06T15:29:27Z</time>
      </trkpt>
      <trkpt lat="45.35158" lon="5.84908">
        <ele>1760</ele>
        <time>2022-03-06T15:29:28Z</time>
      </trkpt>
      <trkpt lat="45.35156" lon="5.84897">
        <ele>1752</ele>
        <time>2022-03-06T15:29:30Z</time>
      </trkpt>
      <trkpt lat="45.35151" lon="5.84887">
        <ele>1750</ele>
        <time>2022-03-06T15:29:31Z</time>
      </trkpt>
      <trkpt lat="45.35144" lon="5.84876">
        <ele>1746</ele>
        <time>2022-03-06T15:29:32Z</time>
      </trkpt>
      <trkpt lat="45.35142" lon="5.84862">
        <ele>1742</ele>
        <time>2022-03-06T15:29:33Z</time>
      </trkpt>
      <trkpt lat="45.35137" lon="5.84839">
        <ele>1742</ele>
        <time>2022-03-06T15:29:34Z</time>
      </trkpt>
      <trkpt lat="45.35134" lon="5.84829">
        <ele>1738</ele>
        <time>2022-03-06T15:29:35Z</time>
      </trkpt>
      <trkpt lat="45.35127" lon="5.84809">
        <ele>1734</ele>
        <time>2022-03-06T15:29:36Z</time>
      </trkpt>
      <trkpt lat="45.35126" lon="5.84794">
        <ele>1728</ele>
        <time>2022-03-06T15:29:37Z</time>
      </trkpt>
      <trkpt lat="45.35126" lon="5.8478">
        <ele>1723</ele>
        <time>2022-03-06T15:29:38Z</time>
      </trkpt>
      <trkpt lat="45.35121" lon="5.84766">
        <ele>1712</ele>
        <time>2022-03-06T15:29:40Z</time>
      </trkpt>
      <trkpt lat="45.35116" lon="5.84753">
        <ele>1708</ele>
        <time>2022-03-06T15:29:41Z</time>
      </trkpt>
      <trkpt lat="45.35114" lon="5.8474">
        <ele>1704</ele>
        <time>2022-03-06T15:29:42Z</time>
      </trkpt>
      <trkpt lat="45.35118" lon="5.84712">
        <ele>1700</ele>
        <time>2022-03-06T15:29:43Z</time>
      </trkpt>
      <trkpt lat="45.35114" lon="5.84699">
        <ele>1696</ele>
        <time>2022-03-06T15:29:44Z</time>
      </trkpt>
      <trkpt lat="45.35107" lon="5.84688">
        <ele>1692</ele>
        <time>2022-03-06T15:29:45Z</time>
      </trkpt>
      <trkpt lat="45.35099" lon="5.84677">
        <ele>1689</ele>
        <time>2022-03-06T15:29:46Z</time>
      </trkpt>
      <trkpt lat="45.35098" lon="5.84658">
        <ele>1685</ele>
        <time>2022-03-06T15:29:47Z</time>
      </trkpt>
      <trkpt lat="45.35099" lon="5.84642">
        <ele>1679</ele>
        <time>2022-03-06T15:29:48Z</time>
      </trkpt>
      <trkpt lat="45.35104" lon="5.84629">
        <ele>1672</ele>
        <time>2022-03-06T15:29:50Z</time>
      </trkpt>
      <trkpt lat="45.35105" lon="5.84619">
        <ele>1670</ele>
        <time>2022-03-06T15:29:51Z</time>
      </trkpt>
      <trkpt lat="45.35104" lon="5.84609">
        <ele>1668</ele>
        <time>2022-03-06T15:29:52Z</time>
      </trkpt>
      <trkpt lat="45.35096" lon="5.8459">
        <ele>1666</ele>
        <time>2022-03-06T15:29:53Z</time>
      </trkpt>
      <trkpt lat="45.35093" lon="5.84579">
        <ele>1662</ele>
        <time>2022-03-06T15:29:54Z</time>
      </trkpt>
      <trkpt lat="45.35094" lon="5.84569">
        <ele>1658</ele>
        <time>2022-03-06T15:29:55Z</time>
      </trkpt>
      <trkpt lat="45.35089" lon="5.84561">
        <ele>1655</ele>
        <time>2022-03-06T15:29:57Z</time>
      </trkpt>
      <trkpt lat="45.35085" lon="5.84553">
        <ele>1653</ele>
        <time>2022-03-06T15:29:58Z</time>
      </trkpt>
      <trkpt lat="45.35081" lon="5.84545">
        <ele>1651</ele>
        <time>2022-03-06T15:29:59Z</time>
      </trkpt>
      <trkpt lat="45.35077" lon="5.84535">
        <ele>1651</ele>
        <time>2022-03-06T15:30:00Z</time>
      </trkpt>
      <trkpt lat="45.35077" lon="5.84526">
        <ele>1648</ele>
        <time>2022-03-06T15:30:01Z</time>
      </trkpt>
      <trkpt lat="45.35076" lon="5.8452">
        <ele>1645</ele>
        <time>2022-03-06T15:30:03Z</time>
      </trkpt>
      <trkpt lat="45.35075" lon="5.84521">
        <ele>1644</ele>
        <time>2022-03-06T15:30:04Z</time>
      </trkpt>
      <trkpt lat="45.35074" lon="5.84522">
        <ele>1643</ele>
        <time>2022-03-06T15:30:05Z</time>
      </trkpt>
      <trkpt lat="45.35072" lon="5.84523">
        <ele>1643</ele>
        <time>2022-03-06T15:30:06Z</time>
      </trkpt>
      <trkpt lat="45.35071" lon="5.84524">
        <ele>1642</ele>
        <time>2022-03-06T15:30:07Z</time>
      </trkpt>
      <trkpt lat="45.35065" lon="5.8453">
        <ele>1642</ele>
        <time>2022-03-06T15:30:08Z</time>
      </trkpt>
      <trkpt lat="45.35063" lon="5.84533">
        <ele>1642</ele>
        <time>2022-03-06T15:30:09Z</time>
      </trkpt>
      <trkpt lat="45.35062" lon="5.84535">
        <ele>1642</ele>
        <time>2022-03-06T15:30:10Z</time>
      </trkpt>
      <trkpt lat="45.3506" lon="5.84538">
        <ele>1642</ele>
        <time>2022-03-06T15:30:11Z</time>
      </trkpt>
      <trkpt lat="45.35058" lon="5.84541">
        <ele>1642</ele>
        <time>2022-03-06T15:30:12Z</time>
      </trkpt>
      <trkpt lat="45.35056" lon="5.84542">
        <ele>1643</ele>
        <time>2022-03-06T15:30:15Z</time>
      </trkpt>
      <trkpt lat="45.35056" lon="5.84542">
        <ele>1643</ele>
        <time>2022-03-06T15:30:17Z</time>
      </trkpt>
      <trkpt lat="45.35056" lon="5.84542">
        <ele>1643</ele>
        <time>2022-03-06T15:30:21Z</time>
      </trkpt>
      <trkpt lat="45.35056" lon="5.84542">
        <ele>1641</ele>
        <time>2022-03-06T15:30:25Z</time>
      </trkpt>
      <trkpt lat="45.35056" lon="5.84542">
        <ele>1641</ele>
        <time>2022-03-06T15:30:29Z</time>
      </trkpt>
      <trkpt lat="45.35056" lon="5.84542">
        <ele>1643</ele>
        <time>2022-03-06T15:30:33Z</time>
      </trkpt>
      <trkpt lat="45.35054" lon="5.84544">
        <ele>1643</ele>
        <time>2022-03-06T15:30:34Z</time>
      </trkpt>
      <trkpt lat="45.35054" lon="5.84544">
        <ele>1642</ele>
        <time>2022-03-06T15:30:38Z</time>
      </trkpt>
      <trkpt lat="45.35054" lon="5.84544">
        <ele>1642</ele>
        <time>2022-03-06T15:30:42Z</time>
      </trkpt>
      <trkpt lat="45.35054" lon="5.84544">
        <ele>1643</ele>
        <time>2022-03-06T15:30:46Z</time>
      </trkpt>
      <trkpt lat="45.35054" lon="5.84544">
        <ele>1643</ele>
        <time>2022-03-06T15:30:50Z</time>
      </trkpt>
      <trkpt lat="45.35054" lon="5.84544">
        <ele>1643</ele>
        <time>2022-03-06T15:30:54Z</time>
      </trkpt>
      <trkpt lat="45.35054" lon="5.84544">
        <ele>1643</ele>
        <time>2022-03-06T15:30:58Z</time>
      </trkpt>
      <trkpt lat="45.35054" lon="5.84544">
        <ele>1642</ele>
        <time>2022-03-06T15:31:02Z</time>
      </trkpt>
      <trkpt lat="45.35054" lon="5.84544">
        <ele>1644</ele>
        <time>2022-03-06T15:31:06Z</time>
      </trkpt>
      <trkpt lat="45.35054" lon="5.84544">
        <ele>1643</ele>
        <time>2022-03-06T15:31:10Z</time>
      </trkpt>
      <trkpt lat="45.35054" lon="5.84544">
        <ele>1643</ele>
        <time>2022-03-06T15:31:14Z</time>
      </trkpt>
      <trkpt lat="45.35054" lon="5.84544">
        <ele>1644</ele>
        <time>2022-03-06T15:31:18Z</time>
      </trkpt>
      <trkpt lat="45.35054" lon="5.84544">
        <ele>1644</ele>
        <time>2022-03-06T15:31:22Z</time>
      </trkpt>
      <trkpt lat="45.35054" lon="5.84544">
        <ele>1644</ele>
        <time>2022-03-06T15:31:26Z</time>
      </trkpt>
      <trkpt lat="45.35054" lon="5.84544">
        <ele>1644</ele>
        <time>2022-03-06T15:31:30Z</time>
      </trkpt>
      <trkpt lat="45.35053" lon="5.84546">
        <ele>1643</ele>
        <time>2022-03-06T15:31:34Z</time>
      </trkpt>
      <trkpt lat="45.35053" lon="5.84546">
        <ele>1643</ele>
        <time>2022-03-06T15:31:35Z</time>
      </trkpt>
      <trkpt lat="45.35053" lon="5.84546">
        <ele>1643</ele>
        <time>2022-03-06T15:31:39Z</time>
      </trkpt>
      <trkpt lat="45.35053" lon="5.84546">
        <ele>1644</ele>
        <time>2022-03-06T15:31:43Z</time>
      </trkpt>
      <trkpt lat="45.35053" lon="5.84546">
        <ele>1645</ele>
        <time>2022-03-06T15:31:47Z</time>
      </trkpt>
      <trkpt lat="45.35053" lon="5.84546">
        <ele>1644</ele>
        <time>2022-03-06T15:31:51Z</time>
      </trkpt>
      <trkpt lat="45.35053" lon="5.84546">
        <ele>1644</ele>
        <time>2022-03-06T15:31:55Z</time>
      </trkpt>
      <trkpt lat="45.35053" lon="5.84546">
        <ele>1644</ele>
        <time>2022-03-06T15:31:59Z</time>
      </trkpt>
      <trkpt lat="45.35053" lon="5.84546">
        <ele>1644</ele>
        <time>2022-03-06T15:32:03Z</time>
      </trkpt>
      <trkpt lat="45.35053" lon="5.84546">
        <ele>1643</ele>
        <time>2022-03-06T15:32:07Z</time>
      </trkpt>
      <trkpt lat="45.35053" lon="5.84546">
        <ele>1643</ele>
        <time>2022-03-06T15:32:11Z</time>
      </trkpt>
      <trkpt lat="45.35052" lon="5.84549">
        <ele>1641</ele>
        <time>2022-03-06T15:32:15Z</time>
      </trkpt>
      <trkpt lat="45.35052" lon="5.84549">
        <ele>1641</ele>
        <time>2022-03-06T15:32:16Z</time>
      </trkpt>
      <trkpt lat="45.35052" lon="5.84549">
        <ele>1643</ele>
        <time>2022-03-06T15:32:20Z</time>
      </trkpt>
      <trkpt lat="45.35052" lon="5.84549">
        <ele>1643</ele>
        <time>2022-03-06T15:32:24Z</time>
      </trkpt>
      <trkpt lat="45.35052" lon="5.84549">
        <ele>1643</ele>
        <time>2022-03-06T15:32:28Z</time>
      </trkpt>
      <trkpt lat="45.35052" lon="5.84549">
        <ele>1643</ele>
        <time>2022-03-06T15:32:32Z</time>
      </trkpt>
      <trkpt lat="45.3505" lon="5.84548">
        <ele>1642</ele>
        <time>2022-03-06T15:32:35Z</time>
      </trkpt>
      <trkpt lat="45.3505" lon="5.84548">
        <ele>1643</ele>
        <time>2022-03-06T15:32:37Z</time>
      </trkpt>
      <trkpt lat="45.3505" lon="5.84548">
        <ele>1643</ele>
        <time>2022-03-06T15:32:41Z</time>
      </trkpt>
      <trkpt lat="45.3505" lon="5.84548">
        <ele>1643</ele>
        <time>2022-03-06T15:32:45Z</time>
      </trkpt>
      <trkpt lat="45.3505" lon="5.84548">
        <ele>1644</ele>
        <time>2022-03-06T15:32:49Z</time>
      </trkpt>
      <trkpt lat="45.35048" lon="5.84549">
        <ele>1644</ele>
        <time>2022-03-06T15:32:51Z</time>
      </trkpt>
      <trkpt lat="45.35046" lon="5.84551">
        <ele>1644</ele>
        <time>2022-03-06T15:32:53Z</time>
      </trkpt>
      <trkpt lat="45.35046" lon="5.84551">
        <ele>1644</ele>
        <time>2022-03-06T15:32:55Z</time>
      </trkpt>
      <trkpt lat="45.35043" lon="5.84551">
        <ele>1644</ele>
        <time>2022-03-06T15:32:56Z</time>
      </trkpt>
      <trkpt lat="45.35041" lon="5.84552">
        <ele>1644</ele>
        <time>2022-03-06T15:32:58Z</time>
      </trkpt>
      <trkpt lat="45.35038" lon="5.84552">
        <ele>1643</ele>
        <time>2022-03-06T15:33:00Z</time>
      </trkpt>
      <trkpt lat="45.35036" lon="5.84552">
        <ele>1643</ele>
        <time>2022-03-06T15:33:02Z</time>
      </trkpt>
      <trkpt lat="45.35033" lon="5.84552">
        <ele>1643</ele>
        <time>2022-03-06T15:33:03Z</time>
      </trkpt>
      <trkpt lat="45.3503" lon="5.84552">
        <ele>1643</ele>
        <time>2022-03-06T15:33:06Z</time>
      </trkpt>
      <trkpt lat="45.35028" lon="5.84552">
        <ele>1643</ele>
        <time>2022-03-06T15:33:08Z</time>
      </trkpt>
      <trkpt lat="45.35025" lon="5.84551">
        <ele>1643</ele>
        <time>2022-03-06T15:33:10Z</time>
      </trkpt>
      <trkpt lat="45.35022" lon="5.84551">
        <ele>1644</ele>
        <time>2022-03-06T15:33:12Z</time>
      </trkpt>
      <trkpt lat="45.3502" lon="5.84552">
        <ele>1644</ele>
        <time>2022-03-06T15:33:14Z</time>
      </trkpt>
      <trkpt lat="45.35017" lon="5.84552">
        <ele>1645</ele>
        <time>2022-03-06T15:33:16Z</time>
      </trkpt>
      <trkpt lat="45.35015" lon="5.84553">
        <ele>1644</ele>
        <time>2022-03-06T15:33:18Z</time>
      </trkpt>
      <trkpt lat="45.35012" lon="5.84553">
        <ele>1645</ele>
        <time>2022-03-06T15:33:20Z</time>
      </trkpt>
      <trkpt lat="45.3501" lon="5.84554">
        <ele>1645</ele>
        <time>2022-03-06T15:33:22Z</time>
      </trkpt>
      <trkpt lat="45.35008" lon="5.84554">
        <ele>1645</ele>
        <time>2022-03-06T15:33:24Z</time>
      </trkpt>
      <trkpt lat="45.35006" lon="5.84556">
        <ele>1646</ele>
        <time>2022-03-06T15:33:26Z</time>
      </trkpt>
      <trkpt lat="45.35004" lon="5.84558">
        <ele>1646</ele>
        <time>2022-03-06T15:33:28Z</time>
      </trkpt>
      <trkpt lat="45.35002" lon="5.84559">
        <ele>1645</ele>
        <time>2022-03-06T15:33:30Z</time>
      </trkpt>
      <trkpt lat="45.35002" lon="5.84559">
        <ele>1647</ele>
        <time>2022-03-06T15:33:32Z</time>
      </trkpt>
      <trkpt lat="45.35" lon="5.8456">
        <ele>1647</ele>
        <time>2022-03-06T15:33:34Z</time>
      </trkpt>
      <trkpt lat="45.34998" lon="5.84563">
        <ele>1647</ele>
        <time>2022-03-06T15:33:37Z</time>
      </trkpt>
      <trkpt lat="45.34998" lon="5.84563">
        <ele>1647</ele>
        <time>2022-03-06T15:33:38Z</time>
      </trkpt>
      <trkpt lat="45.34996" lon="5.84564">
        <ele>1647</ele>
        <time>2022-03-06T15:33:39Z</time>
      </trkpt>
      <trkpt lat="45.34994" lon="5.84565">
        <ele>1647</ele>
        <time>2022-03-06T15:33:41Z</time>
      </trkpt>
      <trkpt lat="45.34992" lon="5.84566">
        <ele>1648</ele>
        <time>2022-03-06T15:33:43Z</time>
      </trkpt>
      <trkpt lat="45.3499" lon="5.84568">
        <ele>1648</ele>
        <time>2022-03-06T15:33:45Z</time>
      </trkpt>
      <trkpt lat="45.34988" lon="5.8457">
        <ele>1649</ele>
        <time>2022-03-06T15:33:48Z</time>
      </trkpt>
      <trkpt lat="45.34988" lon="5.8457">
        <ele>1649</ele>
        <time>2022-03-06T15:33:49Z</time>
      </trkpt>
      <trkpt lat="45.34986" lon="5.84572">
        <ele>1649</ele>
        <time>2022-03-06T15:33:50Z</time>
      </trkpt>
      <trkpt lat="45.34984" lon="5.84574">
        <ele>1650</ele>
        <time>2022-03-06T15:33:53Z</time>
      </trkpt>
      <trkpt lat="45.34982" lon="5.84575">
        <ele>1650</ele>
        <time>2022-03-06T15:33:55Z</time>
      </trkpt>
      <trkpt lat="45.3498" lon="5.84577">
        <ele>1650</ele>
        <time>2022-03-06T15:33:58Z</time>
      </trkpt>
      <trkpt lat="45.3498" lon="5.84577">
        <ele>1650</ele>
        <time>2022-03-06T15:33:59Z</time>
      </trkpt>
      <trkpt lat="45.34978" lon="5.84579">
        <ele>1651</ele>
        <time>2022-03-06T15:34:00Z</time>
      </trkpt>
      <trkpt lat="45.34977" lon="5.8458">
        <ele>1652</ele>
        <time>2022-03-06T15:34:02Z</time>
      </trkpt>
      <trkpt lat="45.34975" lon="5.84582">
        <ele>1652</ele>
        <time>2022-03-06T15:34:04Z</time>
      </trkpt>
      <trkpt lat="45.34975" lon="5.84582">
        <ele>1652</ele>
        <time>2022-03-06T15:34:06Z</time>
      </trkpt>
      <trkpt lat="45.34973" lon="5.84585">
        <ele>1652</ele>
        <time>2022-03-06T15:34:07Z</time>
      </trkpt>
      <trkpt lat="45.34972" lon="5.84586">
        <ele>1652</ele>
        <time>2022-03-06T15:34:09Z</time>
      </trkpt>
      <trkpt lat="45.3497" lon="5.84589">
        <ele>1653</ele>
        <time>2022-03-06T15:34:12Z</time>
      </trkpt>
      <trkpt lat="45.3497" lon="5.84589">
        <ele>1654</ele>
        <time>2022-03-06T15:34:13Z</time>
      </trkpt>
      <trkpt lat="45.34969" lon="5.84591">
        <ele>1654</ele>
        <time>2022-03-06T15:34:14Z</time>
      </trkpt>
      <trkpt lat="45.34967" lon="5.84594">
        <ele>1654</ele>
        <time>2022-03-06T15:34:16Z</time>
      </trkpt>
      <trkpt lat="45.34966" lon="5.84596">
        <ele>1654</ele>
        <time>2022-03-06T15:34:18Z</time>
      </trkpt>
      <trkpt lat="45.34964" lon="5.84598">
        <ele>1654</ele>
        <time>2022-03-06T15:34:19Z</time>
      </trkpt>
      <trkpt lat="45.34963" lon="5.846">
        <ele>1654</ele>
        <time>2022-03-06T15:34:22Z</time>
      </trkpt>
      <trkpt lat="45.34963" lon="5.846">
        <ele>1654</ele>
        <time>2022-03-06T15:34:24Z</time>
      </trkpt>
      <trkpt lat="45.34961" lon="5.84602">
        <ele>1654</ele>
        <time>2022-03-06T15:34:25Z</time>
      </trkpt>
      <trkpt lat="45.34959" lon="5.84604">
        <ele>1654</ele>
        <time>2022-03-06T15:34:27Z</time>
      </trkpt>
      <trkpt lat="45.34959" lon="5.84605">
        <ele>1654</ele>
        <time>2022-03-06T15:34:28Z</time>
      </trkpt>
      <trkpt lat="45.34958" lon="5.84606">
        <ele>1654</ele>
        <time>2022-03-06T15:34:29Z</time>
      </trkpt>
      <trkpt lat="45.34957" lon="5.84607">
        <ele>1655</ele>
        <time>2022-03-06T15:34:30Z</time>
      </trkpt>
      <trkpt lat="45.34956" lon="5.84608">
        <ele>1655</ele>
        <time>2022-03-06T15:34:31Z</time>
      </trkpt>
      <trkpt lat="45.34955" lon="5.84609">
        <ele>1655</ele>
        <time>2022-03-06T15:34:33Z</time>
      </trkpt>
      <trkpt lat="45.34954" lon="5.84612">
        <ele>1655</ele>
        <time>2022-03-06T15:34:34Z</time>
      </trkpt>
      <trkpt lat="45.34953" lon="5.84616">
        <ele>1655</ele>
        <time>2022-03-06T15:34:36Z</time>
      </trkpt>
      <trkpt lat="45.34953" lon="5.84619">
        <ele>1655</ele>
        <time>2022-03-06T15:34:38Z</time>
      </trkpt>
      <trkpt lat="45.34951" lon="5.84621">
        <ele>1655</ele>
        <time>2022-03-06T15:34:40Z</time>
      </trkpt>
      <trkpt lat="45.3495" lon="5.84624">
        <ele>1656</ele>
        <time>2022-03-06T15:34:42Z</time>
      </trkpt>
      <trkpt lat="45.34948" lon="5.84627">
        <ele>1657</ele>
        <time>2022-03-06T15:34:44Z</time>
      </trkpt>
      <trkpt lat="45.34947" lon="5.84629">
        <ele>1657</ele>
        <time>2022-03-06T15:34:46Z</time>
      </trkpt>
      <trkpt lat="45.34945" lon="5.8463">
        <ele>1657</ele>
        <time>2022-03-06T15:34:48Z</time>
      </trkpt>
      <trkpt lat="45.34943" lon="5.84632">
        <ele>1657</ele>
        <time>2022-03-06T15:34:50Z</time>
      </trkpt>
      <trkpt lat="45.34941" lon="5.84634">
        <ele>1657</ele>
        <time>2022-03-06T15:34:52Z</time>
      </trkpt>
      <trkpt lat="45.34939" lon="5.84636">
        <ele>1657</ele>
        <time>2022-03-06T15:34:54Z</time>
      </trkpt>
      <trkpt lat="45.34939" lon="5.84636">
        <ele>1657</ele>
        <time>2022-03-06T15:34:56Z</time>
      </trkpt>
      <trkpt lat="45.34938" lon="5.84638">
        <ele>1658</ele>
        <time>2022-03-06T15:34:57Z</time>
      </trkpt>
      <trkpt lat="45.34936" lon="5.8464">
        <ele>1658</ele>
        <time>2022-03-06T15:34:59Z</time>
      </trkpt>
      <trkpt lat="45.34934" lon="5.84642">
        <ele>1658</ele>
        <time>2022-03-06T15:35:01Z</time>
      </trkpt>
      <trkpt lat="45.34933" lon="5.84645">
        <ele>1659</ele>
        <time>2022-03-06T15:35:03Z</time>
      </trkpt>
      <trkpt lat="45.34931" lon="5.84648">
        <ele>1659</ele>
        <time>2022-03-06T15:35:06Z</time>
      </trkpt>
      <trkpt lat="45.34931" lon="5.84648">
        <ele>1659</ele>
        <time>2022-03-06T15:35:07Z</time>
      </trkpt>
      <trkpt lat="45.34931" lon="5.84648">
        <ele>1659</ele>
        <time>2022-03-06T15:35:11Z</time>
      </trkpt>
      <trkpt lat="45.34926" lon="5.84659">
        <ele>1660</ele>
        <time>2022-03-06T15:35:15Z</time>
      </trkpt>
      <trkpt lat="45.34926" lon="5.84659">
        <ele>1660</ele>
        <time>2022-03-06T15:35:17Z</time>
      </trkpt>
      <trkpt lat="45.34923" lon="5.84659">
        <ele>1660</ele>
        <time>2022-03-06T15:35:18Z</time>
      </trkpt>
      <trkpt lat="45.34922" lon="5.84662">
        <ele>1661</ele>
        <time>2022-03-06T15:35:20Z</time>
      </trkpt>
      <trkpt lat="45.34921" lon="5.84664">
        <ele>1660</ele>
        <time>2022-03-06T15:35:22Z</time>
      </trkpt>
      <trkpt lat="45.3492" lon="5.84667">
        <ele>1661</ele>
        <time>2022-03-06T15:35:24Z</time>
      </trkpt>
      <trkpt lat="45.34919" lon="5.8467">
        <ele>1661</ele>
        <time>2022-03-06T15:35:26Z</time>
      </trkpt>
      <trkpt lat="45.34919" lon="5.8467">
        <ele>1662</ele>
        <time>2022-03-06T15:35:28Z</time>
      </trkpt>
      <trkpt lat="45.34917" lon="5.84674">
        <ele>1661</ele>
        <time>2022-03-06T15:35:30Z</time>
      </trkpt>
      <trkpt lat="45.34916" lon="5.84674">
        <ele>1661</ele>
        <time>2022-03-06T15:35:31Z</time>
      </trkpt>
      <trkpt lat="45.34915" lon="5.84675">
        <ele>1662</ele>
        <time>2022-03-06T15:35:32Z</time>
      </trkpt>
      <trkpt lat="45.34914" lon="5.84676">
        <ele>1662</ele>
        <time>2022-03-06T15:35:33Z</time>
      </trkpt>
      <trkpt lat="45.34913" lon="5.84677">
        <ele>1662</ele>
        <time>2022-03-06T15:35:34Z</time>
      </trkpt>
      <trkpt lat="45.34911" lon="5.84679">
        <ele>1662</ele>
        <time>2022-03-06T15:35:37Z</time>
      </trkpt>
      <trkpt lat="45.34909" lon="5.84681">
        <ele>1662</ele>
        <time>2022-03-06T15:35:39Z</time>
      </trkpt>
      <trkpt lat="45.34909" lon="5.84682">
        <ele>1662</ele>
        <time>2022-03-06T15:35:40Z</time>
      </trkpt>
      <trkpt lat="45.34908" lon="5.84683">
        <ele>1662</ele>
        <time>2022-03-06T15:35:41Z</time>
      </trkpt>
      <trkpt lat="45.34907" lon="5.84684">
        <ele>1662</ele>
        <time>2022-03-06T15:35:42Z</time>
      </trkpt>
      <trkpt lat="45.34907" lon="5.84686">
        <ele>1662</ele>
        <time>2022-03-06T15:35:43Z</time>
      </trkpt>
      <trkpt lat="45.34904" lon="5.84688">
        <ele>1664</ele>
        <time>2022-03-06T15:35:46Z</time>
      </trkpt>
      <trkpt lat="45.34904" lon="5.84688">
        <ele>1664</ele>
        <time>2022-03-06T15:35:48Z</time>
      </trkpt>
      <trkpt lat="45.34902" lon="5.8469">
        <ele>1663</ele>
        <time>2022-03-06T15:35:49Z</time>
      </trkpt>
      <trkpt lat="45.349" lon="5.84692">
        <ele>1664</ele>
        <time>2022-03-06T15:35:51Z</time>
      </trkpt>
      <trkpt lat="45.34898" lon="5.84694">
        <ele>1664</ele>
        <time>2022-03-06T15:35:53Z</time>
      </trkpt>
      <trkpt lat="45.34896" lon="5.84696">
        <ele>1665</ele>
        <time>2022-03-06T15:35:54Z</time>
      </trkpt>
      <trkpt lat="45.34895" lon="5.84698">
        <ele>1665</ele>
        <time>2022-03-06T15:35:57Z</time>
      </trkpt>
      <trkpt lat="45.34892" lon="5.84699">
        <ele>1666</ele>
        <time>2022-03-06T15:35:59Z</time>
      </trkpt>
      <trkpt lat="45.3489" lon="5.84701">
        <ele>1666</ele>
        <time>2022-03-06T15:36:01Z</time>
      </trkpt>
      <trkpt lat="45.34889" lon="5.84703">
        <ele>1666</ele>
        <time>2022-03-06T15:36:02Z</time>
      </trkpt>
      <trkpt lat="45.34888" lon="5.84704">
        <ele>1667</ele>
        <time>2022-03-06T15:36:04Z</time>
      </trkpt>
      <trkpt lat="45.34887" lon="5.84706">
        <ele>1667</ele>
        <time>2022-03-06T15:36:05Z</time>
      </trkpt>
      <trkpt lat="45.34887" lon="5.84707">
        <ele>1667</ele>
        <time>2022-03-06T15:36:06Z</time>
      </trkpt>
      <trkpt lat="45.34886" lon="5.84708">
        <ele>1666</ele>
        <time>2022-03-06T15:36:07Z</time>
      </trkpt>
      <trkpt lat="45.34885" lon="5.84709">
        <ele>1666</ele>
        <time>2022-03-06T15:36:08Z</time>
      </trkpt>
      <trkpt lat="45.34885" lon="5.8471">
        <ele>1667</ele>
        <time>2022-03-06T15:36:09Z</time>
      </trkpt>
      <trkpt lat="45.34884" lon="5.84711">
        <ele>1667</ele>
        <time>2022-03-06T15:36:10Z</time>
      </trkpt>
      <trkpt lat="45.34883" lon="5.84712">
        <ele>1667</ele>
        <time>2022-03-06T15:36:11Z</time>
      </trkpt>
      <trkpt lat="45.34883" lon="5.84714">
        <ele>1667</ele>
        <time>2022-03-06T15:36:12Z</time>
      </trkpt>
      <trkpt lat="45.34882" lon="5.84714">
        <ele>1668</ele>
        <time>2022-03-06T15:36:13Z</time>
      </trkpt>
      <trkpt lat="45.34881" lon="5.84715">
        <ele>1668</ele>
        <time>2022-03-06T15:36:14Z</time>
      </trkpt>
      <trkpt lat="45.3488" lon="5.84716">
        <ele>1668</ele>
        <time>2022-03-06T15:36:15Z</time>
      </trkpt>
      <trkpt lat="45.34879" lon="5.84717">
        <ele>1668</ele>
        <time>2022-03-06T15:36:16Z</time>
      </trkpt>
      <trkpt lat="45.34878" lon="5.84717">
        <ele>1668</ele>
        <time>2022-03-06T15:36:17Z</time>
      </trkpt>
      <trkpt lat="45.34877" lon="5.84718">
        <ele>1668</ele>
        <time>2022-03-06T15:36:18Z</time>
      </trkpt>
      <trkpt lat="45.34876" lon="5.84719">
        <ele>1668</ele>
        <time>2022-03-06T15:36:19Z</time>
      </trkpt>
      <trkpt lat="45.34875" lon="5.8472">
        <ele>1668</ele>
        <time>2022-03-06T15:36:20Z</time>
      </trkpt>
      <trkpt lat="45.34874" lon="5.8472">
        <ele>1668</ele>
        <time>2022-03-06T15:36:21Z</time>
      </trkpt>
      <trkpt lat="45.34872" lon="5.84723">
        <ele>1668</ele>
        <time>2022-03-06T15:36:24Z</time>
      </trkpt>
      <trkpt lat="45.34871" lon="5.84725">
        <ele>1669</ele>
        <time>2022-03-06T15:36:26Z</time>
      </trkpt>
      <trkpt lat="45.34869" lon="5.84726">
        <ele>1669</ele>
        <time>2022-03-06T15:36:28Z</time>
      </trkpt>
      <trkpt lat="45.34867" lon="5.84728">
        <ele>1669</ele>
        <time>2022-03-06T15:36:30Z</time>
      </trkpt>
      <trkpt lat="45.34866" lon="5.84729">
        <ele>1669</ele>
        <time>2022-03-06T15:36:32Z</time>
      </trkpt>
      <trkpt lat="45.34866" lon="5.84729">
        <ele>1670</ele>
        <time>2022-03-06T15:36:34Z</time>
      </trkpt>
      <trkpt lat="45.34863" lon="5.84731">
        <ele>1670</ele>
        <time>2022-03-06T15:36:35Z</time>
      </trkpt>
      <trkpt lat="45.34861" lon="5.84732">
        <ele>1670</ele>
        <time>2022-03-06T15:36:37Z</time>
      </trkpt>
      <trkpt lat="45.34859" lon="5.84734">
        <ele>1671</ele>
        <time>2022-03-06T15:36:39Z</time>
      </trkpt>
      <trkpt lat="45.34858" lon="5.84736">
        <ele>1671</ele>
        <time>2022-03-06T15:36:41Z</time>
      </trkpt>
      <trkpt lat="45.34856" lon="5.84737">
        <ele>1671</ele>
        <time>2022-03-06T15:36:43Z</time>
      </trkpt>
      <trkpt lat="45.34855" lon="5.84738">
        <ele>1671</ele>
        <time>2022-03-06T15:36:44Z</time>
      </trkpt>
      <trkpt lat="45.34854" lon="5.84738">
        <ele>1671</ele>
        <time>2022-03-06T15:36:45Z</time>
      </trkpt>
      <trkpt lat="45.34853" lon="5.84739">
        <ele>1671</ele>
        <time>2022-03-06T15:36:46Z</time>
      </trkpt>
      <trkpt lat="45.34852" lon="5.8474">
        <ele>1671</ele>
        <time>2022-03-06T15:36:47Z</time>
      </trkpt>
      <trkpt lat="45.34851" lon="5.8474">
        <ele>1671</ele>
        <time>2022-03-06T15:36:48Z</time>
      </trkpt>
      <trkpt lat="45.3485" lon="5.84741">
        <ele>1671</ele>
        <time>2022-03-06T15:36:49Z</time>
      </trkpt>
      <trkpt lat="45.34849" lon="5.84741">
        <ele>1672</ele>
        <time>2022-03-06T15:36:50Z</time>
      </trkpt>
      <trkpt lat="45.34848" lon="5.84742">
        <ele>1672</ele>
        <time>2022-03-06T15:36:51Z</time>
      </trkpt>
      <trkpt lat="45.34847" lon="5.84743">
        <ele>1672</ele>
        <time>2022-03-06T15:36:52Z</time>
      </trkpt>
      <trkpt lat="45.34846" lon="5.84743">
        <ele>1672</ele>
        <time>2022-03-06T15:36:53Z</time>
      </trkpt>
      <trkpt lat="45.34845" lon="5.84744">
        <ele>1672</ele>
        <time>2022-03-06T15:36:54Z</time>
      </trkpt>
      <trkpt lat="45.34843" lon="5.84745">
        <ele>1672</ele>
        <time>2022-03-06T15:36:55Z</time>
      </trkpt>
      <trkpt lat="45.34842" lon="5.84745">
        <ele>1673</ele>
        <time>2022-03-06T15:36:56Z</time>
      </trkpt>
      <trkpt lat="45.34841" lon="5.84747">
        <ele>1673</ele>
        <time>2022-03-06T15:36:57Z</time>
      </trkpt>
      <trkpt lat="45.3484" lon="5.84748">
        <ele>1673</ele>
        <time>2022-03-06T15:36:59Z</time>
      </trkpt>
      <trkpt lat="45.34839" lon="5.84748">
        <ele>1673</ele>
        <time>2022-03-06T15:37:00Z</time>
      </trkpt>
      <trkpt lat="45.34838" lon="5.84749">
        <ele>1673</ele>
        <time>2022-03-06T15:37:01Z</time>
      </trkpt>
      <trkpt lat="45.34838" lon="5.8475">
        <ele>1673</ele>
        <time>2022-03-06T15:37:02Z</time>
      </trkpt>
      <trkpt lat="45.34837" lon="5.8475">
        <ele>1673</ele>
        <time>2022-03-06T15:37:03Z</time>
      </trkpt>
      <trkpt lat="45.34836" lon="5.84751">
        <ele>1673</ele>
        <time>2022-03-06T15:37:04Z</time>
      </trkpt>
      <trkpt lat="45.34835" lon="5.84752">
        <ele>1673</ele>
        <time>2022-03-06T15:37:05Z</time>
      </trkpt>
      <trkpt lat="45.34834" lon="5.84752">
        <ele>1673</ele>
        <time>2022-03-06T15:37:06Z</time>
      </trkpt>
      <trkpt lat="45.34834" lon="5.84753">
        <ele>1674</ele>
        <time>2022-03-06T15:37:07Z</time>
      </trkpt>
      <trkpt lat="45.34833" lon="5.84754">
        <ele>1674</ele>
        <time>2022-03-06T15:37:08Z</time>
      </trkpt>
      <trkpt lat="45.34832" lon="5.84755">
        <ele>1674</ele>
        <time>2022-03-06T15:37:09Z</time>
      </trkpt>
      <trkpt lat="45.34831" lon="5.84755">
        <ele>1673</ele>
        <time>2022-03-06T15:37:10Z</time>
      </trkpt>
      <trkpt lat="45.3483" lon="5.84756">
        <ele>1673</ele>
        <time>2022-03-06T15:37:11Z</time>
      </trkpt>
      <trkpt lat="45.34829" lon="5.84756">
        <ele>1674</ele>
        <time>2022-03-06T15:37:12Z</time>
      </trkpt>
      <trkpt lat="45.34828" lon="5.84757">
        <ele>1674</ele>
        <time>2022-03-06T15:37:13Z</time>
      </trkpt>
      <trkpt lat="45.34827" lon="5.84757">
        <ele>1674</ele>
        <time>2022-03-06T15:37:14Z</time>
      </trkpt>
      <trkpt lat="45.34826" lon="5.84758">
        <ele>1674</ele>
        <time>2022-03-06T15:37:15Z</time>
      </trkpt>
      <trkpt lat="45.34825" lon="5.84758">
        <ele>1675</ele>
        <time>2022-03-06T15:37:16Z</time>
      </trkpt>
      <trkpt lat="45.34824" lon="5.84759">
        <ele>1675</ele>
        <time>2022-03-06T15:37:17Z</time>
      </trkpt>
      <trkpt lat="45.34823" lon="5.8476">
        <ele>1675</ele>
        <time>2022-03-06T15:37:18Z</time>
      </trkpt>
      <trkpt lat="45.34822" lon="5.8476">
        <ele>1675</ele>
        <time>2022-03-06T15:37:19Z</time>
      </trkpt>
      <trkpt lat="45.34821" lon="5.84761">
        <ele>1676</ele>
        <time>2022-03-06T15:37:20Z</time>
      </trkpt>
      <trkpt lat="45.3482" lon="5.84762">
        <ele>1676</ele>
        <time>2022-03-06T15:37:21Z</time>
      </trkpt>
      <trkpt lat="45.34819" lon="5.84763">
        <ele>1676</ele>
        <time>2022-03-06T15:37:22Z</time>
      </trkpt>
      <trkpt lat="45.34818" lon="5.84763">
        <ele>1676</ele>
        <time>2022-03-06T15:37:23Z</time>
      </trkpt>
      <trkpt lat="45.34817" lon="5.84764">
        <ele>1675</ele>
        <time>2022-03-06T15:37:24Z</time>
      </trkpt>
      <trkpt lat="45.34817" lon="5.84765">
        <ele>1675</ele>
        <time>2022-03-06T15:37:25Z</time>
      </trkpt>
      <trkpt lat="45.34816" lon="5.84766">
        <ele>1676</ele>
        <time>2022-03-06T15:37:26Z</time>
      </trkpt>
      <trkpt lat="45.34815" lon="5.84766">
        <ele>1676</ele>
        <time>2022-03-06T15:37:27Z</time>
      </trkpt>
      <trkpt lat="45.34814" lon="5.84767">
        <ele>1676</ele>
        <time>2022-03-06T15:37:28Z</time>
      </trkpt>
      <trkpt lat="45.34813" lon="5.84768">
        <ele>1676</ele>
        <time>2022-03-06T15:37:29Z</time>
      </trkpt>
      <trkpt lat="45.34812" lon="5.84769">
        <ele>1676</ele>
        <time>2022-03-06T15:37:30Z</time>
      </trkpt>
      <trkpt lat="45.34811" lon="5.8477">
        <ele>1676</ele>
        <time>2022-03-06T15:37:31Z</time>
      </trkpt>
      <trkpt lat="45.3481" lon="5.84771">
        <ele>1676</ele>
        <time>2022-03-06T15:37:32Z</time>
      </trkpt>
      <trkpt lat="45.34809" lon="5.84772">
        <ele>1676</ele>
        <time>2022-03-06T15:37:33Z</time>
      </trkpt>
      <trkpt lat="45.34808" lon="5.84773">
        <ele>1677</ele>
        <time>2022-03-06T15:37:34Z</time>
      </trkpt>
      <trkpt lat="45.34807" lon="5.84774">
        <ele>1677</ele>
        <time>2022-03-06T15:37:35Z</time>
      </trkpt>
      <trkpt lat="45.34806" lon="5.84774">
        <ele>1677</ele>
        <time>2022-03-06T15:37:36Z</time>
      </trkpt>
      <trkpt lat="45.34805" lon="5.84775">
        <ele>1677</ele>
        <time>2022-03-06T15:37:37Z</time>
      </trkpt>
      <trkpt lat="45.34804" lon="5.84776">
        <ele>1677</ele>
        <time>2022-03-06T15:37:38Z</time>
      </trkpt>
      <trkpt lat="45.34804" lon="5.84777">
        <ele>1677</ele>
        <time>2022-03-06T15:37:39Z</time>
      </trkpt>
      <trkpt lat="45.34803" lon="5.84777">
        <ele>1677</ele>
        <time>2022-03-06T15:37:40Z</time>
      </trkpt>
      <trkpt lat="45.34802" lon="5.84778">
        <ele>1677</ele>
        <time>2022-03-06T15:37:41Z</time>
      </trkpt>
      <trkpt lat="45.34801" lon="5.84779">
        <ele>1678</ele>
        <time>2022-03-06T15:37:42Z</time>
      </trkpt>
      <trkpt lat="45.348" lon="5.84779">
        <ele>1678</ele>
        <time>2022-03-06T15:37:43Z</time>
      </trkpt>
      <trkpt lat="45.34799" lon="5.8478">
        <ele>1678</ele>
        <time>2022-03-06T15:37:44Z</time>
      </trkpt>
      <trkpt lat="45.34798" lon="5.84781">
        <ele>1678</ele>
        <time>2022-03-06T15:37:45Z</time>
      </trkpt>
      <trkpt lat="45.34797" lon="5.84782">
        <ele>1678</ele>
        <time>2022-03-06T15:37:46Z</time>
      </trkpt>
      <trkpt lat="45.34796" lon="5.84782">
        <ele>1678</ele>
        <time>2022-03-06T15:37:47Z</time>
      </trkpt>
      <trkpt lat="45.34795" lon="5.84783">
        <ele>1678</ele>
        <time>2022-03-06T15:37:48Z</time>
      </trkpt>
      <trkpt lat="45.34795" lon="5.84784">
        <ele>1678</ele>
        <time>2022-03-06T15:37:49Z</time>
      </trkpt>
      <trkpt lat="45.34793" lon="5.84786">
        <ele>1679</ele>
        <time>2022-03-06T15:37:51Z</time>
      </trkpt>
      <trkpt lat="45.34791" lon="5.84788">
        <ele>1679</ele>
        <time>2022-03-06T15:37:53Z</time>
      </trkpt>
      <trkpt lat="45.34791" lon="5.84788">
        <ele>1679</ele>
        <time>2022-03-06T15:37:55Z</time>
      </trkpt>
      <trkpt lat="45.3479" lon="5.84791">
        <ele>1679</ele>
        <time>2022-03-06T15:37:56Z</time>
      </trkpt>
      <trkpt lat="45.34789" lon="5.84791">
        <ele>1679</ele>
        <time>2022-03-06T15:37:57Z</time>
      </trkpt>
      <trkpt lat="45.34788" lon="5.84791">
        <ele>1679</ele>
        <time>2022-03-06T15:37:58Z</time>
      </trkpt>
      <trkpt lat="45.34787" lon="5.84792">
        <ele>1679</ele>
        <time>2022-03-06T15:37:59Z</time>
      </trkpt>
      <trkpt lat="45.34786" lon="5.84792">
        <ele>1679</ele>
        <time>2022-03-06T15:38:00Z</time>
      </trkpt>
      <trkpt lat="45.34785" lon="5.84793">
        <ele>1679</ele>
        <time>2022-03-06T15:38:01Z</time>
      </trkpt>
      <trkpt lat="45.34783" lon="5.84793">
        <ele>1679</ele>
        <time>2022-03-06T15:38:02Z</time>
      </trkpt>
      <trkpt lat="45.34782" lon="5.84793">
        <ele>1679</ele>
        <time>2022-03-06T15:38:03Z</time>
      </trkpt>
      <trkpt lat="45.34781" lon="5.84794">
        <ele>1679</ele>
        <time>2022-03-06T15:38:04Z</time>
      </trkpt>
      <trkpt lat="45.3478" lon="5.84794">
        <ele>1679</ele>
        <time>2022-03-06T15:38:05Z</time>
      </trkpt>
      <trkpt lat="45.34779" lon="5.84795">
        <ele>1679</ele>
        <time>2022-03-06T15:38:06Z</time>
      </trkpt>
      <trkpt lat="45.34778" lon="5.84795">
        <ele>1680</ele>
        <time>2022-03-06T15:38:07Z</time>
      </trkpt>
      <trkpt lat="45.34777" lon="5.84796">
        <ele>1680</ele>
        <time>2022-03-06T15:38:08Z</time>
      </trkpt>
      <trkpt lat="45.34776" lon="5.84797">
        <ele>1681</ele>
        <time>2022-03-06T15:38:09Z</time>
      </trkpt>
      <trkpt lat="45.34775" lon="5.84797">
        <ele>1681</ele>
        <time>2022-03-06T15:38:10Z</time>
      </trkpt>
      <trkpt lat="45.34774" lon="5.84798">
        <ele>1681</ele>
        <time>2022-03-06T15:38:11Z</time>
      </trkpt>
      <trkpt lat="45.34773" lon="5.84799">
        <ele>1681</ele>
        <time>2022-03-06T15:38:12Z</time>
      </trkpt>
      <trkpt lat="45.34772" lon="5.84799">
        <ele>1681</ele>
        <time>2022-03-06T15:38:13Z</time>
      </trkpt>
      <trkpt lat="45.34771" lon="5.848">
        <ele>1681</ele>
        <time>2022-03-06T15:38:14Z</time>
      </trkpt>
      <trkpt lat="45.3477" lon="5.84801">
        <ele>1681</ele>
        <time>2022-03-06T15:38:15Z</time>
      </trkpt>
      <trkpt lat="45.34769" lon="5.84801">
        <ele>1681</ele>
        <time>2022-03-06T15:38:16Z</time>
      </trkpt>
      <trkpt lat="45.34767" lon="5.84802">
        <ele>1681</ele>
        <time>2022-03-06T15:38:17Z</time>
      </trkpt>
      <trkpt lat="45.34766" lon="5.84803">
        <ele>1681</ele>
        <time>2022-03-06T15:38:18Z</time>
      </trkpt>
      <trkpt lat="45.34765" lon="5.84804">
        <ele>1681</ele>
        <time>2022-03-06T15:38:19Z</time>
      </trkpt>
      <trkpt lat="45.34764" lon="5.84805">
        <ele>1681</ele>
        <time>2022-03-06T15:38:20Z</time>
      </trkpt>
      <trkpt lat="45.34762" lon="5.84805">
        <ele>1681</ele>
        <time>2022-03-06T15:38:21Z</time>
      </trkpt>
      <trkpt lat="45.34761" lon="5.84806">
        <ele>1681</ele>
        <time>2022-03-06T15:38:22Z</time>
      </trkpt>
      <trkpt lat="45.3476" lon="5.84806">
        <ele>1681</ele>
        <time>2022-03-06T15:38:23Z</time>
      </trkpt>
      <trkpt lat="45.34759" lon="5.84807">
        <ele>1681</ele>
        <time>2022-03-06T15:38:24Z</time>
      </trkpt>
      <trkpt lat="45.34758" lon="5.84807">
        <ele>1682</ele>
        <time>2022-03-06T15:38:26Z</time>
      </trkpt>
      <trkpt lat="45.34757" lon="5.84807">
        <ele>1682</ele>
        <time>2022-03-06T15:38:27Z</time>
      </trkpt>
      <trkpt lat="45.34756" lon="5.84808">
        <ele>1682</ele>
        <time>2022-03-06T15:38:28Z</time>
      </trkpt>
      <trkpt lat="45.34755" lon="5.84808">
        <ele>1683</ele>
        <time>2022-03-06T15:38:29Z</time>
      </trkpt>
      <trkpt lat="45.34754" lon="5.84808">
        <ele>1683</ele>
        <time>2022-03-06T15:38:31Z</time>
      </trkpt>
      <trkpt lat="45.34753" lon="5.84809">
        <ele>1683</ele>
        <time>2022-03-06T15:38:32Z</time>
      </trkpt>
      <trkpt lat="45.34752" lon="5.84809">
        <ele>1684</ele>
        <time>2022-03-06T15:38:33Z</time>
      </trkpt>
      <trkpt lat="45.34751" lon="5.84809">
        <ele>1684</ele>
        <time>2022-03-06T15:38:34Z</time>
      </trkpt>
      <trkpt lat="45.3475" lon="5.84811">
        <ele>1684</ele>
        <time>2022-03-06T15:38:35Z</time>
      </trkpt>
      <trkpt lat="45.34749" lon="5.84811">
        <ele>1683</ele>
        <time>2022-03-06T15:38:37Z</time>
      </trkpt>
      <trkpt lat="45.34748" lon="5.84812">
        <ele>1684</ele>
        <time>2022-03-06T15:38:38Z</time>
      </trkpt>
      <trkpt lat="45.34747" lon="5.84812">
        <ele>1684</ele>
        <time>2022-03-06T15:38:39Z</time>
      </trkpt>
      <trkpt lat="45.34746" lon="5.84813">
        <ele>1684</ele>
        <time>2022-03-06T15:38:40Z</time>
      </trkpt>
      <trkpt lat="45.34745" lon="5.84813">
        <ele>1684</ele>
        <time>2022-03-06T15:38:41Z</time>
      </trkpt>
      <trkpt lat="45.34744" lon="5.84813">
        <ele>1685</ele>
        <time>2022-03-06T15:38:42Z</time>
      </trkpt>
      <trkpt lat="45.34744" lon="5.84814">
        <ele>1685</ele>
        <time>2022-03-06T15:38:43Z</time>
      </trkpt>
      <trkpt lat="45.34743" lon="5.84814">
        <ele>1685</ele>
        <time>2022-03-06T15:38:44Z</time>
      </trkpt>
      <trkpt lat="45.34742" lon="5.84815">
        <ele>1686</ele>
        <time>2022-03-06T15:38:45Z</time>
      </trkpt>
      <trkpt lat="45.34741" lon="5.84815">
        <ele>1686</ele>
        <time>2022-03-06T15:38:46Z</time>
      </trkpt>
      <trkpt lat="45.34738" lon="5.84814">
        <ele>1686</ele>
        <time>2022-03-06T15:38:49Z</time>
      </trkpt>
      <trkpt lat="45.34737" lon="5.84814">
        <ele>1686</ele>
        <time>2022-03-06T15:38:50Z</time>
      </trkpt>
      <trkpt lat="45.34736" lon="5.84814">
        <ele>1686</ele>
        <time>2022-03-06T15:38:52Z</time>
      </trkpt>
      <trkpt lat="45.34735" lon="5.84814">
        <ele>1686</ele>
        <time>2022-03-06T15:38:53Z</time>
      </trkpt>
      <trkpt lat="45.34734" lon="5.84815">
        <ele>1686</ele>
        <time>2022-03-06T15:38:54Z</time>
      </trkpt>
      <trkpt lat="45.34733" lon="5.84815">
        <ele>1687</ele>
        <time>2022-03-06T15:38:55Z</time>
      </trkpt>
      <trkpt lat="45.34732" lon="5.84815">
        <ele>1687</ele>
        <time>2022-03-06T15:38:56Z</time>
      </trkpt>
      <trkpt lat="45.34731" lon="5.84815">
        <ele>1687</ele>
        <time>2022-03-06T15:38:58Z</time>
      </trkpt>
      <trkpt lat="45.3473" lon="5.84815">
        <ele>1687</ele>
        <time>2022-03-06T15:38:59Z</time>
      </trkpt>
      <trkpt lat="45.34729" lon="5.84815">
        <ele>1688</ele>
        <time>2022-03-06T15:39:00Z</time>
      </trkpt>
      <trkpt lat="45.34725" lon="5.84817">
        <ele>1688</ele>
        <time>2022-03-06T15:39:03Z</time>
      </trkpt>
      <trkpt lat="45.34723" lon="5.84818">
        <ele>1689</ele>
        <time>2022-03-06T15:39:04Z</time>
      </trkpt>
      <trkpt lat="45.34721" lon="5.84818">
        <ele>1690</ele>
        <time>2022-03-06T15:39:08Z</time>
      </trkpt>
      <trkpt lat="45.34721" lon="5.84818">
        <ele>1690</ele>
        <time>2022-03-06T15:39:09Z</time>
      </trkpt>
      <trkpt lat="45.34719" lon="5.84819">
        <ele>1690</ele>
        <time>2022-03-06T15:39:11Z</time>
      </trkpt>
      <trkpt lat="45.34718" lon="5.84819">
        <ele>1690</ele>
        <time>2022-03-06T15:39:12Z</time>
      </trkpt>
      <trkpt lat="45.34717" lon="5.84819">
        <ele>1690</ele>
        <time>2022-03-06T15:39:13Z</time>
      </trkpt>
      <trkpt lat="45.34716" lon="5.8482">
        <ele>1690</ele>
        <time>2022-03-06T15:39:14Z</time>
      </trkpt>
      <trkpt lat="45.34714" lon="5.8482">
        <ele>1690</ele>
        <time>2022-03-06T15:39:15Z</time>
      </trkpt>
      <trkpt lat="45.34713" lon="5.8482">
        <ele>1690</ele>
        <time>2022-03-06T15:39:16Z</time>
      </trkpt>
      <trkpt lat="45.34712" lon="5.8482">
        <ele>1690</ele>
        <time>2022-03-06T15:39:17Z</time>
      </trkpt>
      <trkpt lat="45.34711" lon="5.84821">
        <ele>1691</ele>
        <time>2022-03-06T15:39:18Z</time>
      </trkpt>
      <trkpt lat="45.3471" lon="5.84821">
        <ele>1691</ele>
        <time>2022-03-06T15:39:19Z</time>
      </trkpt>
      <trkpt lat="45.34709" lon="5.84821">
        <ele>1691</ele>
        <time>2022-03-06T15:39:20Z</time>
      </trkpt>
      <trkpt lat="45.34708" lon="5.84821">
        <ele>1691</ele>
        <time>2022-03-06T15:39:21Z</time>
      </trkpt>
      <trkpt lat="45.34707" lon="5.84821">
        <ele>1691</ele>
        <time>2022-03-06T15:39:22Z</time>
      </trkpt>
      <trkpt lat="45.34706" lon="5.84821">
        <ele>1691</ele>
        <time>2022-03-06T15:39:23Z</time>
      </trkpt>
      <trkpt lat="45.34705" lon="5.84822">
        <ele>1691</ele>
        <time>2022-03-06T15:39:24Z</time>
      </trkpt>
      <trkpt lat="45.34701" lon="5.84823">
        <ele>1691</ele>
        <time>2022-03-06T15:39:26Z</time>
      </trkpt>
      <trkpt lat="45.34699" lon="5.84823">
        <ele>1691</ele>
        <time>2022-03-06T15:39:28Z</time>
      </trkpt>
      <trkpt lat="45.34697" lon="5.84823">
        <ele>1692</ele>
        <time>2022-03-06T15:39:30Z</time>
      </trkpt>
      <trkpt lat="45.34695" lon="5.84823">
        <ele>1693</ele>
        <time>2022-03-06T15:39:32Z</time>
      </trkpt>
      <trkpt lat="45.34695" lon="5.84823">
        <ele>1693</ele>
        <time>2022-03-06T15:39:34Z</time>
      </trkpt>
      <trkpt lat="45.34693" lon="5.84823">
        <ele>1693</ele>
        <time>2022-03-06T15:39:35Z</time>
      </trkpt>
      <trkpt lat="45.34691" lon="5.84824">
        <ele>1694</ele>
        <time>2022-03-06T15:39:38Z</time>
      </trkpt>
      <trkpt lat="45.3469" lon="5.84824">
        <ele>1694</ele>
        <time>2022-03-06T15:39:40Z</time>
      </trkpt>
      <trkpt lat="45.3469" lon="5.84825">
        <ele>1694</ele>
        <time>2022-03-06T15:39:41Z</time>
      </trkpt>
      <trkpt lat="45.34689" lon="5.84825">
        <ele>1694</ele>
        <time>2022-03-06T15:39:42Z</time>
      </trkpt>
      <trkpt lat="45.34689" lon="5.84826">
        <ele>1694</ele>
        <time>2022-03-06T15:39:43Z</time>
      </trkpt>
      <trkpt lat="45.34688" lon="5.84826">
        <ele>1694</ele>
        <time>2022-03-06T15:39:44Z</time>
      </trkpt>
      <trkpt lat="45.34688" lon="5.84827">
        <ele>1694</ele>
        <time>2022-03-06T15:39:45Z</time>
      </trkpt>
      <trkpt lat="45.34687" lon="5.84828">
        <ele>1694</ele>
        <time>2022-03-06T15:39:46Z</time>
      </trkpt>
      <trkpt lat="45.34686" lon="5.84829">
        <ele>1694</ele>
        <time>2022-03-06T15:39:48Z</time>
      </trkpt>
      <trkpt lat="45.34686" lon="5.84829">
        <ele>1695</ele>
        <time>2022-03-06T15:39:51Z</time>
      </trkpt>
      <trkpt lat="45.34682" lon="5.84831">
        <ele>1695</ele>
        <time>2022-03-06T15:39:52Z</time>
      </trkpt>
      <trkpt lat="45.34679" lon="5.84833">
        <ele>1696</ele>
        <time>2022-03-06T15:39:54Z</time>
      </trkpt>
      <trkpt lat="45.34677" lon="5.84834">
        <ele>1696</ele>
        <time>2022-03-06T15:39:56Z</time>
      </trkpt>
      <trkpt lat="45.34675" lon="5.84835">
        <ele>1696</ele>
        <time>2022-03-06T15:39:58Z</time>
      </trkpt>
      <trkpt lat="45.34673" lon="5.84836">
        <ele>1696</ele>
        <time>2022-03-06T15:40:00Z</time>
      </trkpt>
      <trkpt lat="45.34673" lon="5.84836">
        <ele>1696</ele>
        <time>2022-03-06T15:40:02Z</time>
      </trkpt>
      <trkpt lat="45.3467" lon="5.84837">
        <ele>1696</ele>
        <time>2022-03-06T15:40:03Z</time>
      </trkpt>
      <trkpt lat="45.34668" lon="5.84837">
        <ele>1697</ele>
        <time>2022-03-06T15:40:05Z</time>
      </trkpt>
      <trkpt lat="45.34666" lon="5.84837">
        <ele>1698</ele>
        <time>2022-03-06T15:40:07Z</time>
      </trkpt>
      <trkpt lat="45.34666" lon="5.84837">
        <ele>1698</ele>
        <time>2022-03-06T15:40:09Z</time>
      </trkpt>
      <trkpt lat="45.34664" lon="5.84838">
        <ele>1699</ele>
        <time>2022-03-06T15:40:10Z</time>
      </trkpt>
      <trkpt lat="45.34662" lon="5.84837">
        <ele>1699</ele>
        <time>2022-03-06T15:40:12Z</time>
      </trkpt>
      <trkpt lat="45.34659" lon="5.84837">
        <ele>1700</ele>
        <time>2022-03-06T15:40:15Z</time>
      </trkpt>
      <trkpt lat="45.34659" lon="5.84837">
        <ele>1700</ele>
        <time>2022-03-06T15:40:16Z</time>
      </trkpt>
      <trkpt lat="45.34657" lon="5.84837">
        <ele>1700</ele>
        <time>2022-03-06T15:40:18Z</time>
      </trkpt>
      <trkpt lat="45.34654" lon="5.84837">
        <ele>1700</ele>
        <time>2022-03-06T15:40:20Z</time>
      </trkpt>
      <trkpt lat="45.34652" lon="5.84837">
        <ele>1700</ele>
        <time>2022-03-06T15:40:22Z</time>
      </trkpt>
      <trkpt lat="45.3465" lon="5.84837">
        <ele>1701</ele>
        <time>2022-03-06T15:40:24Z</time>
      </trkpt>
      <trkpt lat="45.3465" lon="5.84837">
        <ele>1701</ele>
        <time>2022-03-06T15:40:26Z</time>
      </trkpt>
      <trkpt lat="45.34648" lon="5.84836">
        <ele>1701</ele>
        <time>2022-03-06T15:40:27Z</time>
      </trkpt>
      <trkpt lat="45.34646" lon="5.84837">
        <ele>1702</ele>
        <time>2022-03-06T15:40:29Z</time>
      </trkpt>
      <trkpt lat="45.34644" lon="5.84837">
        <ele>1702</ele>
        <time>2022-03-06T15:40:31Z</time>
      </trkpt>
      <trkpt lat="45.34644" lon="5.84837">
        <ele>1702</ele>
        <time>2022-03-06T15:40:33Z</time>
      </trkpt>
      <trkpt lat="45.34642" lon="5.84837">
        <ele>1702</ele>
        <time>2022-03-06T15:40:34Z</time>
      </trkpt>
      <trkpt lat="45.3464" lon="5.84836">
        <ele>1704</ele>
        <time>2022-03-06T15:40:38Z</time>
      </trkpt>
      <trkpt lat="45.3464" lon="5.84836">
        <ele>1704</ele>
        <time>2022-03-06T15:40:39Z</time>
      </trkpt>
      <trkpt lat="45.34638" lon="5.84835">
        <ele>1704</ele>
        <time>2022-03-06T15:40:40Z</time>
      </trkpt>
      <trkpt lat="45.34636" lon="5.84835">
        <ele>1703</ele>
        <time>2022-03-06T15:40:42Z</time>
      </trkpt>
      <trkpt lat="45.34633" lon="5.84834">
        <ele>1704</ele>
        <time>2022-03-06T15:40:44Z</time>
      </trkpt>
      <trkpt lat="45.34631" lon="5.84834">
        <ele>1704</ele>
        <time>2022-03-06T15:40:46Z</time>
      </trkpt>
      <trkpt lat="45.34629" lon="5.84833">
        <ele>1705</ele>
        <time>2022-03-06T15:40:48Z</time>
      </trkpt>
      <trkpt lat="45.34629" lon="5.84833">
        <ele>1705</ele>
        <time>2022-03-06T15:40:50Z</time>
      </trkpt>
      <trkpt lat="45.34626" lon="5.84833">
        <ele>1705</ele>
        <time>2022-03-06T15:40:51Z</time>
      </trkpt>
      <trkpt lat="45.34624" lon="5.84832">
        <ele>1705</ele>
        <time>2022-03-06T15:40:52Z</time>
      </trkpt>
      <trkpt lat="45.34622" lon="5.84832">
        <ele>1706</ele>
        <time>2022-03-06T15:40:54Z</time>
      </trkpt>
      <trkpt lat="45.3462" lon="5.84831">
        <ele>1706</ele>
        <time>2022-03-06T15:40:57Z</time>
      </trkpt>
      <trkpt lat="45.3462" lon="5.84831">
        <ele>1706</ele>
        <time>2022-03-06T15:40:58Z</time>
      </trkpt>
      <trkpt lat="45.34618" lon="5.8483">
        <ele>1707</ele>
        <time>2022-03-06T15:40:59Z</time>
      </trkpt>
      <trkpt lat="45.34616" lon="5.8483">
        <ele>1706</ele>
        <time>2022-03-06T15:41:02Z</time>
      </trkpt>
      <trkpt lat="45.34614" lon="5.84829">
        <ele>1707</ele>
        <time>2022-03-06T15:41:04Z</time>
      </trkpt>
      <trkpt lat="45.34612" lon="5.84827">
        <ele>1709</ele>
        <time>2022-03-06T15:41:07Z</time>
      </trkpt>
      <trkpt lat="45.34612" lon="5.84827">
        <ele>1709</ele>
        <time>2022-03-06T15:41:08Z</time>
      </trkpt>
      <trkpt lat="45.3461" lon="5.84826">
        <ele>1709</ele>
        <time>2022-03-06T15:41:09Z</time>
      </trkpt>
      <trkpt lat="45.34608" lon="5.84825">
        <ele>1709</ele>
        <time>2022-03-06T15:41:11Z</time>
      </trkpt>
      <trkpt lat="45.34606" lon="5.84825">
        <ele>1709</ele>
        <time>2022-03-06T15:41:13Z</time>
      </trkpt>
      <trkpt lat="45.34606" lon="5.84825">
        <ele>1709</ele>
        <time>2022-03-06T15:41:15Z</time>
      </trkpt>
      <trkpt lat="45.34603" lon="5.84823">
        <ele>1709</ele>
        <time>2022-03-06T15:41:16Z</time>
      </trkpt>
      <trkpt lat="45.34601" lon="5.84823">
        <ele>1710</ele>
        <time>2022-03-06T15:41:17Z</time>
      </trkpt>
      <trkpt lat="45.34599" lon="5.84822">
        <ele>1710</ele>
        <time>2022-03-06T15:41:20Z</time>
      </trkpt>
      <trkpt lat="45.34598" lon="5.8482">
        <ele>1711</ele>
        <time>2022-03-06T15:41:22Z</time>
      </trkpt>
      <trkpt lat="45.34596" lon="5.84818">
        <ele>1712</ele>
        <time>2022-03-06T15:41:25Z</time>
      </trkpt>
      <trkpt lat="45.34596" lon="5.84818">
        <ele>1712</ele>
        <time>2022-03-06T15:41:26Z</time>
      </trkpt>
      <trkpt lat="45.34594" lon="5.84818">
        <ele>1712</ele>
        <time>2022-03-06T15:41:27Z</time>
      </trkpt>
      <trkpt lat="45.34592" lon="5.84817">
        <ele>1712</ele>
        <time>2022-03-06T15:41:29Z</time>
      </trkpt>
      <trkpt lat="45.3459" lon="5.84816">
        <ele>1712</ele>
        <time>2022-03-06T15:41:31Z</time>
      </trkpt>
      <trkpt lat="45.34587" lon="5.84815">
        <ele>1712</ele>
        <time>2022-03-06T15:41:33Z</time>
      </trkpt>
      <trkpt lat="45.34585" lon="5.84814">
        <ele>1712</ele>
        <time>2022-03-06T15:41:35Z</time>
      </trkpt>
      <trkpt lat="45.34583" lon="5.84813">
        <ele>1712</ele>
        <time>2022-03-06T15:41:36Z</time>
      </trkpt>
      <trkpt lat="45.34581" lon="5.84812">
        <ele>1713</ele>
        <time>2022-03-06T15:41:39Z</time>
      </trkpt>
      <trkpt lat="45.34581" lon="5.84812">
        <ele>1714</ele>
        <time>2022-03-06T15:41:41Z</time>
      </trkpt>
      <trkpt lat="45.34579" lon="5.8481">
        <ele>1715</ele>
        <time>2022-03-06T15:41:42Z</time>
      </trkpt>
      <trkpt lat="45.34576" lon="5.84808">
        <ele>1715</ele>
        <time>2022-03-06T15:41:45Z</time>
      </trkpt>
      <trkpt lat="45.34576" lon="5.84808">
        <ele>1715</ele>
        <time>2022-03-06T15:41:47Z</time>
      </trkpt>
      <trkpt lat="45.34574" lon="5.84807">
        <ele>1715</ele>
        <time>2022-03-06T15:41:48Z</time>
      </trkpt>
      <trkpt lat="45.34571" lon="5.84806">
        <ele>1716</ele>
        <time>2022-03-06T15:41:50Z</time>
      </trkpt>
      <trkpt lat="45.34569" lon="5.84804">
        <ele>1716</ele>
        <time>2022-03-06T15:41:52Z</time>
      </trkpt>
      <trkpt lat="45.34567" lon="5.84803">
        <ele>1716</ele>
        <time>2022-03-06T15:41:54Z</time>
      </trkpt>
      <trkpt lat="45.34565" lon="5.84802">
        <ele>1716</ele>
        <time>2022-03-06T15:41:56Z</time>
      </trkpt>
      <trkpt lat="45.34564" lon="5.84801">
        <ele>1716</ele>
        <time>2022-03-06T15:41:58Z</time>
      </trkpt>
      <trkpt lat="45.34562" lon="5.84799">
        <ele>1718</ele>
        <time>2022-03-06T15:42:01Z</time>
      </trkpt>
      <trkpt lat="45.34562" lon="5.84799">
        <ele>1718</ele>
        <time>2022-03-06T15:42:02Z</time>
      </trkpt>
      <trkpt lat="45.3456" lon="5.84797">
        <ele>1718</ele>
        <time>2022-03-06T15:42:03Z</time>
      </trkpt>
      <trkpt lat="45.34558" lon="5.84796">
        <ele>1718</ele>
        <time>2022-03-06T15:42:05Z</time>
      </trkpt>
      <trkpt lat="45.34557" lon="5.84795">
        <ele>1719</ele>
        <time>2022-03-06T15:42:07Z</time>
      </trkpt>
      <trkpt lat="45.34555" lon="5.84793">
        <ele>1719</ele>
        <time>2022-03-06T15:42:09Z</time>
      </trkpt>
      <trkpt lat="45.34554" lon="5.84791">
        <ele>1719</ele>
        <time>2022-03-06T15:42:11Z</time>
      </trkpt>
      <trkpt lat="45.34553" lon="5.8479">
        <ele>1719</ele>
        <time>2022-03-06T15:42:13Z</time>
      </trkpt>
      <trkpt lat="45.34551" lon="5.84788">
        <ele>1720</ele>
        <time>2022-03-06T15:42:15Z</time>
      </trkpt>
      <trkpt lat="45.3455" lon="5.84786">
        <ele>1720</ele>
        <time>2022-03-06T15:42:17Z</time>
      </trkpt>
      <trkpt lat="45.34548" lon="5.84783">
        <ele>1720</ele>
        <time>2022-03-06T15:42:20Z</time>
      </trkpt>
      <trkpt lat="45.34548" lon="5.84783">
        <ele>1721</ele>
        <time>2022-03-06T15:42:21Z</time>
      </trkpt>
      <trkpt lat="45.34546" lon="5.84782">
        <ele>1721</ele>
        <time>2022-03-06T15:42:22Z</time>
      </trkpt>
      <trkpt lat="45.34544" lon="5.8478">
        <ele>1721</ele>
        <time>2022-03-06T15:42:24Z</time>
      </trkpt>
      <trkpt lat="45.34542" lon="5.84778">
        <ele>1721</ele>
        <time>2022-03-06T15:42:27Z</time>
      </trkpt>
      <trkpt lat="45.34542" lon="5.84778">
        <ele>1722</ele>
        <time>2022-03-06T15:42:28Z</time>
      </trkpt>
      <trkpt lat="45.34541" lon="5.84776">
        <ele>1722</ele>
        <time>2022-03-06T15:42:29Z</time>
      </trkpt>
      <trkpt lat="45.34539" lon="5.84775">
        <ele>1723</ele>
        <time>2022-03-06T15:42:31Z</time>
      </trkpt>
      <trkpt lat="45.34537" lon="5.84772">
        <ele>1723</ele>
        <time>2022-03-06T15:42:34Z</time>
      </trkpt>
      <trkpt lat="45.34537" lon="5.84772">
        <ele>1723</ele>
        <time>2022-03-06T15:42:35Z</time>
      </trkpt>
      <trkpt lat="45.34535" lon="5.8477">
        <ele>1723</ele>
        <time>2022-03-06T15:42:36Z</time>
      </trkpt>
      <trkpt lat="45.34534" lon="5.84769">
        <ele>1723</ele>
        <time>2022-03-06T15:42:38Z</time>
      </trkpt>
      <trkpt lat="45.34532" lon="5.84767">
        <ele>1723</ele>
        <time>2022-03-06T15:42:40Z</time>
      </trkpt>
      <trkpt lat="45.3453" lon="5.84766">
        <ele>1724</ele>
        <time>2022-03-06T15:42:42Z</time>
      </trkpt>
      <trkpt lat="45.34529" lon="5.84765">
        <ele>1724</ele>
        <time>2022-03-06T15:42:45Z</time>
      </trkpt>
      <trkpt lat="45.34529" lon="5.84765">
        <ele>1724</ele>
        <time>2022-03-06T15:42:46Z</time>
      </trkpt>
      <trkpt lat="45.34526" lon="5.84763">
        <ele>1724</ele>
        <time>2022-03-06T15:42:47Z</time>
      </trkpt>
      <trkpt lat="45.34525" lon="5.84762">
        <ele>1725</ele>
        <time>2022-03-06T15:42:49Z</time>
      </trkpt>
      <trkpt lat="45.34523" lon="5.8476">
        <ele>1725</ele>
        <time>2022-03-06T15:42:51Z</time>
      </trkpt>
      <trkpt lat="45.34521" lon="5.84759">
        <ele>1724</ele>
        <time>2022-03-06T15:42:52Z</time>
      </trkpt>
      <trkpt lat="45.34519" lon="5.84757">
        <ele>1725</ele>
        <time>2022-03-06T15:42:55Z</time>
      </trkpt>
      <trkpt lat="45.34517" lon="5.84755">
        <ele>1726</ele>
        <time>2022-03-06T15:42:57Z</time>
      </trkpt>
      <trkpt lat="45.34515" lon="5.84754">
        <ele>1726</ele>
        <time>2022-03-06T15:42:59Z</time>
      </trkpt>
      <trkpt lat="45.34514" lon="5.84751">
        <ele>1726</ele>
        <time>2022-03-06T15:43:01Z</time>
      </trkpt>
      <trkpt lat="45.34513" lon="5.84749">
        <ele>1727</ele>
        <time>2022-03-06T15:43:03Z</time>
      </trkpt>
      <trkpt lat="45.34512" lon="5.84746">
        <ele>1727</ele>
        <time>2022-03-06T15:43:04Z</time>
      </trkpt>
      <trkpt lat="45.3451" lon="5.84744">
        <ele>1727</ele>
        <time>2022-03-06T15:43:06Z</time>
      </trkpt>
      <trkpt lat="45.34509" lon="5.84742">
        <ele>1727</ele>
        <time>2022-03-06T15:43:08Z</time>
      </trkpt>
      <trkpt lat="45.34507" lon="5.84739">
        <ele>1727</ele>
        <time>2022-03-06T15:43:10Z</time>
      </trkpt>
      <trkpt lat="45.34506" lon="5.84737">
        <ele>1727</ele>
        <time>2022-03-06T15:43:12Z</time>
      </trkpt>
      <trkpt lat="45.34505" lon="5.84734">
        <ele>1727</ele>
        <time>2022-03-06T15:43:14Z</time>
      </trkpt>
      <trkpt lat="45.34504" lon="5.84732">
        <ele>1728</ele>
        <time>2022-03-06T15:43:16Z</time>
      </trkpt>
      <trkpt lat="45.34502" lon="5.8473">
        <ele>1728</ele>
        <time>2022-03-06T15:43:18Z</time>
      </trkpt>
      <trkpt lat="45.34501" lon="5.84727">
        <ele>1728</ele>
        <time>2022-03-06T15:43:20Z</time>
      </trkpt>
      <trkpt lat="45.345" lon="5.84725">
        <ele>1728</ele>
        <time>2022-03-06T15:43:22Z</time>
      </trkpt>
      <trkpt lat="45.34498" lon="5.84722">
        <ele>1728</ele>
        <time>2022-03-06T15:43:24Z</time>
      </trkpt>
      <trkpt lat="45.34497" lon="5.8472">
        <ele>1728</ele>
        <time>2022-03-06T15:43:26Z</time>
      </trkpt>
      <trkpt lat="45.34496" lon="5.84717">
        <ele>1728</ele>
        <time>2022-03-06T15:43:28Z</time>
      </trkpt>
      <trkpt lat="45.34495" lon="5.84714">
        <ele>1728</ele>
        <time>2022-03-06T15:43:30Z</time>
      </trkpt>
      <trkpt lat="45.34494" lon="5.84712">
        <ele>1728</ele>
        <time>2022-03-06T15:43:33Z</time>
      </trkpt>
      <trkpt lat="45.34494" lon="5.84712">
        <ele>1728</ele>
        <time>2022-03-06T15:43:34Z</time>
      </trkpt>
      <trkpt lat="45.34492" lon="5.84709">
        <ele>1728</ele>
        <time>2022-03-06T15:43:35Z</time>
      </trkpt>
      <trkpt lat="45.34491" lon="5.84707">
        <ele>1728</ele>
        <time>2022-03-06T15:43:37Z</time>
      </trkpt>
      <trkpt lat="45.3449" lon="5.84704">
        <ele>1728</ele>
        <time>2022-03-06T15:43:40Z</time>
      </trkpt>
      <trkpt lat="45.3449" lon="5.84704">
        <ele>1728</ele>
        <time>2022-03-06T15:43:41Z</time>
      </trkpt>
      <trkpt lat="45.34488" lon="5.847">
        <ele>1728</ele>
        <time>2022-03-06T15:43:43Z</time>
      </trkpt>
      <trkpt lat="45.34487" lon="5.84697">
        <ele>1729</ele>
        <time>2022-03-06T15:43:46Z</time>
      </trkpt>
      <trkpt lat="45.34487" lon="5.84697">
        <ele>1729</ele>
        <time>2022-03-06T15:43:47Z</time>
      </trkpt>
      <trkpt lat="45.34486" lon="5.84694">
        <ele>1729</ele>
        <time>2022-03-06T15:43:49Z</time>
      </trkpt>
      <trkpt lat="45.34485" lon="5.84691">
        <ele>1730</ele>
        <time>2022-03-06T15:43:52Z</time>
      </trkpt>
      <trkpt lat="45.34485" lon="5.84691">
        <ele>1730</ele>
        <time>2022-03-06T15:43:53Z</time>
      </trkpt>
      <trkpt lat="45.34485" lon="5.84691">
        <ele>1730</ele>
        <time>2022-03-06T15:43:57Z</time>
      </trkpt>
      <trkpt lat="45.34485" lon="5.84691">
        <ele>1730</ele>
        <time>2022-03-06T15:44:01Z</time>
      </trkpt>
      <trkpt lat="45.34485" lon="5.84691">
        <ele>1730</ele>
        <time>2022-03-06T15:44:05Z</time>
      </trkpt>
      <trkpt lat="45.34485" lon="5.84691">
        <ele>1731</ele>
        <time>2022-03-06T15:44:09Z</time>
      </trkpt>
      <trkpt lat="45.34485" lon="5.84691">
        <ele>1730</ele>
        <time>2022-03-06T15:44:13Z</time>
      </trkpt>
      <trkpt lat="45.34485" lon="5.84691">
        <ele>1730</ele>
        <time>2022-03-06T15:44:17Z</time>
      </trkpt>
      <trkpt lat="45.34485" lon="5.84691">
        <ele>1730</ele>
        <time>2022-03-06T15:44:21Z</time>
      </trkpt>
      <trkpt lat="45.34485" lon="5.84691">
        <ele>1731</ele>
        <time>2022-03-06T15:44:25Z</time>
      </trkpt>
      <trkpt lat="45.34485" lon="5.84691">
        <ele>1730</ele>
        <time>2022-03-06T15:44:29Z</time>
      </trkpt>
      <trkpt lat="45.34485" lon="5.84691">
        <ele>1731</ele>
        <time>2022-03-06T15:44:33Z</time>
      </trkpt>
      <trkpt lat="45.34485" lon="5.84691">
        <ele>1731</ele>
        <time>2022-03-06T15:44:37Z</time>
      </trkpt>
      <trkpt lat="45.34485" lon="5.84691">
        <ele>1731</ele>
        <time>2022-03-06T15:44:41Z</time>
      </trkpt>
      <trkpt lat="45.34485" lon="5.84691">
        <ele>1731</ele>
        <time>2022-03-06T15:44:45Z</time>
      </trkpt>
      <trkpt lat="45.34485" lon="5.84691">
        <ele>1731</ele>
        <time>2022-03-06T15:44:49Z</time>
      </trkpt>
      <trkpt lat="45.34485" lon="5.84691">
        <ele>1731</ele>
        <time>2022-03-06T15:44:53Z</time>
      </trkpt>
      <trkpt lat="45.34485" lon="5.84691">
        <ele>1730</ele>
        <time>2022-03-06T15:44:57Z</time>
      </trkpt>
      <trkpt lat="45.34485" lon="5.84691">
        <ele>1731</ele>
        <time>2022-03-06T15:45:01Z</time>
      </trkpt>
      <trkpt lat="45.34485" lon="5.84691">
        <ele>1731</ele>
        <time>2022-03-06T15:45:05Z</time>
      </trkpt>
      <trkpt lat="45.34485" lon="5.84691">
        <ele>1731</ele>
        <time>2022-03-06T15:45:09Z</time>
      </trkpt>
      <trkpt lat="45.34485" lon="5.84691">
        <ele>1731</ele>
        <time>2022-03-06T15:45:13Z</time>
      </trkpt>
      <trkpt lat="45.34485" lon="5.84691">
        <ele>1731</ele>
        <time>2022-03-06T15:45:17Z</time>
      </trkpt>
      <trkpt lat="45.34485" lon="5.84691">
        <ele>1731</ele>
        <time>2022-03-06T15:45:21Z</time>
      </trkpt>
      <trkpt lat="45.34485" lon="5.84691">
        <ele>1730</ele>
        <time>2022-03-06T15:45:25Z</time>
      </trkpt>
      <trkpt lat="45.34485" lon="5.84691">
        <ele>1731</ele>
        <time>2022-03-06T15:45:29Z</time>
      </trkpt>
      <trkpt lat="45.34485" lon="5.84691">
        <ele>1731</ele>
        <time>2022-03-06T15:45:33Z</time>
      </trkpt>
      <trkpt lat="45.34485" lon="5.84691">
        <ele>1731</ele>
        <time>2022-03-06T15:45:37Z</time>
      </trkpt>
      <trkpt lat="45.34485" lon="5.84691">
        <ele>1731</ele>
        <time>2022-03-06T15:45:41Z</time>
      </trkpt>
      <trkpt lat="45.34485" lon="5.84691">
        <ele>1731</ele>
        <time>2022-03-06T15:45:45Z</time>
      </trkpt>
      <trkpt lat="45.34485" lon="5.84691">
        <ele>1731</ele>
        <time>2022-03-06T15:45:49Z</time>
      </trkpt>
      <trkpt lat="45.34485" lon="5.84691">
        <ele>1730</ele>
        <time>2022-03-06T15:45:53Z</time>
      </trkpt>
      <trkpt lat="45.34485" lon="5.84691">
        <ele>1730</ele>
        <time>2022-03-06T15:45:57Z</time>
      </trkpt>
      <trkpt lat="45.34485" lon="5.84691">
        <ele>1730</ele>
        <time>2022-03-06T15:46:01Z</time>
      </trkpt>
      <trkpt lat="45.34485" lon="5.84691">
        <ele>1730</ele>
        <time>2022-03-06T15:46:05Z</time>
      </trkpt>
      <trkpt lat="45.34485" lon="5.84691">
        <ele>1730</ele>
        <time>2022-03-06T15:46:09Z</time>
      </trkpt>
      <trkpt lat="45.34485" lon="5.84691">
        <ele>1730</ele>
        <time>2022-03-06T15:46:13Z</time>
      </trkpt>
      <trkpt lat="45.34485" lon="5.84691">
        <ele>1730</ele>
        <time>2022-03-06T15:46:17Z</time>
      </trkpt>
      <trkpt lat="45.34485" lon="5.84691">
        <ele>1731</ele>
        <time>2022-03-06T15:46:21Z</time>
      </trkpt>
      <trkpt lat="45.34485" lon="5.84691">
        <ele>1730</ele>
        <time>2022-03-06T15:46:25Z</time>
      </trkpt>
      <trkpt lat="45.34485" lon="5.84691">
        <ele>1730</ele>
        <time>2022-03-06T15:46:29Z</time>
      </trkpt>
      <trkpt lat="45.34485" lon="5.84691">
        <ele>1731</ele>
        <time>2022-03-06T15:46:33Z</time>
      </trkpt>
      <trkpt lat="45.34485" lon="5.84691">
        <ele>1730</ele>
        <time>2022-03-06T15:46:37Z</time>
      </trkpt>
      <trkpt lat="45.34485" lon="5.84691">
        <ele>1730</ele>
        <time>2022-03-06T15:46:41Z</time>
      </trkpt>
      <trkpt lat="45.34485" lon="5.84691">
        <ele>1730</ele>
        <time>2022-03-06T15:46:45Z</time>
      </trkpt>
      <trkpt lat="45.34485" lon="5.84691">
        <ele>1730</ele>
        <time>2022-03-06T15:46:49Z</time>
      </trkpt>
      <trkpt lat="45.34485" lon="5.84691">
        <ele>1730</ele>
        <time>2022-03-06T15:46:53Z</time>
      </trkpt>
      <trkpt lat="45.34485" lon="5.84691">
        <ele>1730</ele>
        <time>2022-03-06T15:46:57Z</time>
      </trkpt>
      <trkpt lat="45.34485" lon="5.84691">
        <ele>1730</ele>
        <time>2022-03-06T15:47:01Z</time>
      </trkpt>
      <trkpt lat="45.34485" lon="5.84691">
        <ele>1730</ele>
        <time>2022-03-06T15:47:05Z</time>
      </trkpt>
      <trkpt lat="45.34485" lon="5.84691">
        <ele>1730</ele>
        <time>2022-03-06T15:47:09Z</time>
      </trkpt>
      <trkpt lat="45.34485" lon="5.84691">
        <ele>1730</ele>
        <time>2022-03-06T15:47:13Z</time>
      </trkpt>
      <trkpt lat="45.34485" lon="5.84691">
        <ele>1730</ele>
        <time>2022-03-06T15:47:17Z</time>
      </trkpt>
      <trkpt lat="45.34485" lon="5.84691">
        <ele>1731</ele>
        <time>2022-03-06T15:47:21Z</time>
      </trkpt>
      <trkpt lat="45.34485" lon="5.84691">
        <ele>1730</ele>
        <time>2022-03-06T15:47:26Z</time>
      </trkpt>
      <trkpt lat="45.34485" lon="5.84691">
        <ele>1730</ele>
        <time>2022-03-06T15:47:30Z</time>
      </trkpt>
      <trkpt lat="45.34485" lon="5.84691">
        <ele>1730</ele>
        <time>2022-03-06T15:47:34Z</time>
      </trkpt>
      <trkpt lat="45.34485" lon="5.84691">
        <ele>1730</ele>
        <time>2022-03-06T15:47:38Z</time>
      </trkpt>
      <trkpt lat="45.34485" lon="5.84691">
        <ele>1730</ele>
        <time>2022-03-06T15:47:42Z</time>
      </trkpt>
      <trkpt lat="45.34485" lon="5.84691">
        <ele>1730</ele>
        <time>2022-03-06T15:47:46Z</time>
      </trkpt>
      <trkpt lat="45.34485" lon="5.84691">
        <ele>1730</ele>
        <time>2022-03-06T15:47:50Z</time>
      </trkpt>
      <trkpt lat="45.34485" lon="5.84691">
        <ele>1731</ele>
        <time>2022-03-06T15:47:54Z</time>
      </trkpt>
      <trkpt lat="45.34485" lon="5.84691">
        <ele>1730</ele>
        <time>2022-03-06T15:47:58Z</time>
      </trkpt>
      <trkpt lat="45.34485" lon="5.84691">
        <ele>1730</ele>
        <time>2022-03-06T15:48:02Z</time>
      </trkpt>
      <trkpt lat="45.34485" lon="5.84691">
        <ele>1729</ele>
        <time>2022-03-06T15:48:06Z</time>
      </trkpt>
      <trkpt lat="45.34485" lon="5.84691">
        <ele>1730</ele>
        <time>2022-03-06T15:48:10Z</time>
      </trkpt>
      <trkpt lat="45.34485" lon="5.84691">
        <ele>1730</ele>
        <time>2022-03-06T15:48:14Z</time>
      </trkpt>
      <trkpt lat="45.34485" lon="5.84691">
        <ele>1730</ele>
        <time>2022-03-06T15:48:18Z</time>
      </trkpt>
      <trkpt lat="45.34485" lon="5.84691">
        <ele>1730</ele>
        <time>2022-03-06T15:48:22Z</time>
      </trkpt>
      <trkpt lat="45.34483" lon="5.84692">
        <ele>1730</ele>
        <time>2022-03-06T15:48:25Z</time>
      </trkpt>
      <trkpt lat="45.34483" lon="5.84692">
        <ele>1730</ele>
        <time>2022-03-06T15:48:27Z</time>
      </trkpt>
      <trkpt lat="45.34483" lon="5.84692">
        <ele>1730</ele>
        <time>2022-03-06T15:48:31Z</time>
      </trkpt>
      <trkpt lat="45.34483" lon="5.84692">
        <ele>1729</ele>
        <time>2022-03-06T15:48:35Z</time>
      </trkpt>
      <trkpt lat="45.34483" lon="5.84692">
        <ele>1729</ele>
        <time>2022-03-06T15:48:39Z</time>
      </trkpt>
      <trkpt lat="45.34483" lon="5.84692">
        <ele>1730</ele>
        <time>2022-03-06T15:48:43Z</time>
      </trkpt>
      <trkpt lat="45.34483" lon="5.84692">
        <ele>1730</ele>
        <time>2022-03-06T15:48:47Z</time>
      </trkpt>
      <trkpt lat="45.34483" lon="5.84692">
        <ele>1730</ele>
        <time>2022-03-06T15:48:51Z</time>
      </trkpt>
      <trkpt lat="45.34483" lon="5.84692">
        <ele>1731</ele>
        <time>2022-03-06T15:48:55Z</time>
      </trkpt>
      <trkpt lat="45.34483" lon="5.84692">
        <ele>1731</ele>
        <time>2022-03-06T15:48:59Z</time>
      </trkpt>
      <trkpt lat="45.34483" lon="5.84692">
        <ele>1731</ele>
        <time>2022-03-06T15:49:03Z</time>
      </trkpt>
      <trkpt lat="45.34483" lon="5.84692">
        <ele>1729</ele>
        <time>2022-03-06T15:49:07Z</time>
      </trkpt>
      <trkpt lat="45.34483" lon="5.84692">
        <ele>1729</ele>
        <time>2022-03-06T15:49:11Z</time>
      </trkpt>
      <trkpt lat="45.34483" lon="5.84692">
        <ele>1730</ele>
        <time>2022-03-06T15:49:15Z</time>
      </trkpt>
      <trkpt lat="45.34483" lon="5.84692">
        <ele>1729</ele>
        <time>2022-03-06T15:49:19Z</time>
      </trkpt>
      <trkpt lat="45.34483" lon="5.84692">
        <ele>1729</ele>
        <time>2022-03-06T15:49:23Z</time>
      </trkpt>
      <trkpt lat="45.34483" lon="5.84692">
        <ele>1729</ele>
        <time>2022-03-06T15:49:27Z</time>
      </trkpt>
      <trkpt lat="45.34483" lon="5.84692">
        <ele>1729</ele>
        <time>2022-03-06T15:49:31Z</time>
      </trkpt>
      <trkpt lat="45.34483" lon="5.84692">
        <ele>1730</ele>
        <time>2022-03-06T15:49:35Z</time>
      </trkpt>
      <trkpt lat="45.34483" lon="5.84692">
        <ele>1730</ele>
        <time>2022-03-06T15:49:39Z</time>
      </trkpt>
      <trkpt lat="45.34483" lon="5.84692">
        <ele>1730</ele>
        <time>2022-03-06T15:49:43Z</time>
      </trkpt>
      <trkpt lat="45.34483" lon="5.84692">
        <ele>1729</ele>
        <time>2022-03-06T15:49:47Z</time>
      </trkpt>
      <trkpt lat="45.34483" lon="5.84692">
        <ele>1730</ele>
        <time>2022-03-06T15:49:51Z</time>
      </trkpt>
      <trkpt lat="45.34483" lon="5.84692">
        <ele>1729</ele>
        <time>2022-03-06T15:49:55Z</time>
      </trkpt>
      <trkpt lat="45.34483" lon="5.84692">
        <ele>1730</ele>
        <time>2022-03-06T15:49:59Z</time>
      </trkpt>
      <trkpt lat="45.34483" lon="5.84692">
        <ele>1730</ele>
        <time>2022-03-06T15:50:03Z</time>
      </trkpt>
      <trkpt lat="45.34483" lon="5.84692">
        <ele>1730</ele>
        <time>2022-03-06T15:50:07Z</time>
      </trkpt>
      <trkpt lat="45.34483" lon="5.84692">
        <ele>1730</ele>
        <time>2022-03-06T15:50:11Z</time>
      </trkpt>
      <trkpt lat="45.34483" lon="5.84692">
        <ele>1729</ele>
        <time>2022-03-06T15:50:15Z</time>
      </trkpt>
      <trkpt lat="45.34483" lon="5.84692">
        <ele>1730</ele>
        <time>2022-03-06T15:50:19Z</time>
      </trkpt>
      <trkpt lat="45.34483" lon="5.84692">
        <ele>1730</ele>
        <time>2022-03-06T15:50:23Z</time>
      </trkpt>
      <trkpt lat="45.34483" lon="5.84692">
        <ele>1730</ele>
        <time>2022-03-06T15:50:27Z</time>
      </trkpt>
      <trkpt lat="45.34484" lon="5.84695">
        <ele>1730</ele>
        <time>2022-03-06T15:50:31Z</time>
      </trkpt>
      <trkpt lat="45.34483" lon="5.84698">
        <ele>1729</ele>
        <time>2022-03-06T15:50:32Z</time>
      </trkpt>
      <trkpt lat="45.34482" lon="5.84701">
        <ele>1729</ele>
        <time>2022-03-06T15:50:33Z</time>
      </trkpt>
      <trkpt lat="45.34479" lon="5.84701">
        <ele>1728</ele>
        <time>2022-03-06T15:50:34Z</time>
      </trkpt>
      <trkpt lat="45.34477" lon="5.84699">
        <ele>1728</ele>
        <time>2022-03-06T15:50:35Z</time>
      </trkpt>
      <trkpt lat="45.34474" lon="5.84697">
        <ele>1728</ele>
        <time>2022-03-06T15:50:36Z</time>
      </trkpt>
      <trkpt lat="45.34472" lon="5.84695">
        <ele>1728</ele>
        <time>2022-03-06T15:50:37Z</time>
      </trkpt>
      <trkpt lat="45.34469" lon="5.84691">
        <ele>1728</ele>
        <time>2022-03-06T15:50:38Z</time>
      </trkpt>
      <trkpt lat="45.34467" lon="5.8468">
        <ele>1727</ele>
        <time>2022-03-06T15:50:39Z</time>
      </trkpt>
      <trkpt lat="45.34468" lon="5.84675">
        <ele>1727</ele>
        <time>2022-03-06T15:50:40Z</time>
      </trkpt>
      <trkpt lat="45.34471" lon="5.84669">
        <ele>1726</ele>
        <time>2022-03-06T15:50:41Z</time>
      </trkpt>
      <trkpt lat="45.34475" lon="5.84663">
        <ele>1725</ele>
        <time>2022-03-06T15:50:42Z</time>
      </trkpt>
      <trkpt lat="45.34479" lon="5.84658">
        <ele>1725</ele>
        <time>2022-03-06T15:50:43Z</time>
      </trkpt>
      <trkpt lat="45.34483" lon="5.84654">
        <ele>1724</ele>
        <time>2022-03-06T15:50:44Z</time>
      </trkpt>
      <trkpt lat="45.34488" lon="5.84652">
        <ele>1723</ele>
        <time>2022-03-06T15:50:45Z</time>
      </trkpt>
      <trkpt lat="45.34492" lon="5.8465">
        <ele>1723</ele>
        <time>2022-03-06T15:50:46Z</time>
      </trkpt>
      <trkpt lat="45.34496" lon="5.84645">
        <ele>1723</ele>
        <time>2022-03-06T15:50:47Z</time>
      </trkpt>
      <trkpt lat="45.34498" lon="5.84639">
        <ele>1723</ele>
        <time>2022-03-06T15:50:48Z</time>
      </trkpt>
      <trkpt lat="45.345" lon="5.84632">
        <ele>1722</ele>
        <time>2022-03-06T15:50:49Z</time>
      </trkpt>
      <trkpt lat="45.34501" lon="5.84624">
        <ele>1720</ele>
        <time>2022-03-06T15:50:50Z</time>
      </trkpt>
      <trkpt lat="45.34503" lon="5.84618">
        <ele>1716</ele>
        <time>2022-03-06T15:50:52Z</time>
      </trkpt>
      <trkpt lat="45.34504" lon="5.84616">
        <ele>1716</ele>
        <time>2022-03-06T15:50:53Z</time>
      </trkpt>
      <trkpt lat="45.34506" lon="5.84615">
        <ele>1715</ele>
        <time>2022-03-06T15:50:55Z</time>
      </trkpt>
      <trkpt lat="45.34507" lon="5.84612">
        <ele>1715</ele>
        <time>2022-03-06T15:50:56Z</time>
      </trkpt>
      <trkpt lat="45.34508" lon="5.84608">
        <ele>1714</ele>
        <time>2022-03-06T15:50:57Z</time>
      </trkpt>
      <trkpt lat="45.34509" lon="5.84602">
        <ele>1714</ele>
        <time>2022-03-06T15:50:58Z</time>
      </trkpt>
      <trkpt lat="45.3451" lon="5.84595">
        <ele>1713</ele>
        <time>2022-03-06T15:50:59Z</time>
      </trkpt>
      <trkpt lat="45.34512" lon="5.84587">
        <ele>1709</ele>
        <time>2022-03-06T15:51:00Z</time>
      </trkpt>
      <trkpt lat="45.34516" lon="5.84579">
        <ele>1708</ele>
        <time>2022-03-06T15:51:01Z</time>
      </trkpt>
      <trkpt lat="45.34521" lon="5.84559">
        <ele>1706</ele>
        <time>2022-03-06T15:51:02Z</time>
      </trkpt>
      <trkpt lat="45.3452" lon="5.84548">
        <ele>1704</ele>
        <time>2022-03-06T15:51:03Z</time>
      </trkpt>
      <trkpt lat="45.3452" lon="5.84536">
        <ele>1702</ele>
        <time>2022-03-06T15:51:04Z</time>
      </trkpt>
      <trkpt lat="45.34523" lon="5.84527">
        <ele>1699</ele>
        <time>2022-03-06T15:51:05Z</time>
      </trkpt>
      <trkpt lat="45.34528" lon="5.84519">
        <ele>1695</ele>
        <time>2022-03-06T15:51:06Z</time>
      </trkpt>
      <trkpt lat="45.34533" lon="5.8451">
        <ele>1695</ele>
        <time>2022-03-06T15:51:07Z</time>
      </trkpt>
      <trkpt lat="45.34535" lon="5.84499">
        <ele>1693</ele>
        <time>2022-03-06T15:51:08Z</time>
      </trkpt>
      <trkpt lat="45.34533" lon="5.84487">
        <ele>1690</ele>
        <time>2022-03-06T15:51:09Z</time>
      </trkpt>
      <trkpt lat="45.34532" lon="5.84475">
        <ele>1683</ele>
        <time>2022-03-06T15:51:11Z</time>
      </trkpt>
      <trkpt lat="45.34534" lon="5.84464">
        <ele>1679</ele>
        <time>2022-03-06T15:51:12Z</time>
      </trkpt>
      <trkpt lat="45.34537" lon="5.84453">
        <ele>1679</ele>
        <time>2022-03-06T15:51:13Z</time>
      </trkpt>
      <trkpt lat="45.34536" lon="5.8443">
        <ele>1676</ele>
        <time>2022-03-06T15:51:14Z</time>
      </trkpt>
      <trkpt lat="45.34534" lon="5.84418">
        <ele>1674</ele>
        <time>2022-03-06T15:51:15Z</time>
      </trkpt>
      <trkpt lat="45.34535" lon="5.84406">
        <ele>1671</ele>
        <time>2022-03-06T15:51:16Z</time>
      </trkpt>
      <trkpt lat="45.34538" lon="5.84396">
        <ele>1667</ele>
        <time>2022-03-06T15:51:17Z</time>
      </trkpt>
      <trkpt lat="45.34539" lon="5.84384">
        <ele>1664</ele>
        <time>2022-03-06T15:51:18Z</time>
      </trkpt>
      <trkpt lat="45.34538" lon="5.84372">
        <ele>1661</ele>
        <time>2022-03-06T15:51:19Z</time>
      </trkpt>
      <trkpt lat="45.34534" lon="5.8436">
        <ele>1657</ele>
        <time>2022-03-06T15:51:20Z</time>
      </trkpt>
      <trkpt lat="45.34532" lon="5.84347">
        <ele>1646</ele>
        <time>2022-03-06T15:51:22Z</time>
      </trkpt>
      <trkpt lat="45.34533" lon="5.84333">
        <ele>1642</ele>
        <time>2022-03-06T15:51:23Z</time>
      </trkpt>
      <trkpt lat="45.34534" lon="5.84319">
        <ele>1639</ele>
        <time>2022-03-06T15:51:24Z</time>
      </trkpt>
      <trkpt lat="45.34528" lon="5.8429">
        <ele>1635</ele>
        <time>2022-03-06T15:51:25Z</time>
      </trkpt>
      <trkpt lat="45.34525" lon="5.84276">
        <ele>1630</ele>
        <time>2022-03-06T15:51:26Z</time>
      </trkpt>
      <trkpt lat="45.34525" lon="5.84262">
        <ele>1626</ele>
        <time>2022-03-06T15:51:27Z</time>
      </trkpt>
      <trkpt lat="45.34523" lon="5.84248">
        <ele>1625</ele>
        <time>2022-03-06T15:51:28Z</time>
      </trkpt>
      <trkpt lat="45.34518" lon="5.84236">
        <ele>1622</ele>
        <time>2022-03-06T15:51:29Z</time>
      </trkpt>
      <trkpt lat="45.34512" lon="5.84224">
        <ele>1618</ele>
        <time>2022-03-06T15:51:30Z</time>
      </trkpt>
      <trkpt lat="45.34509" lon="5.8421">
        <ele>1608</ele>
        <time>2022-03-06T15:51:32Z</time>
      </trkpt>
      <trkpt lat="45.34508" lon="5.84196">
        <ele>1605</ele>
        <time>2022-03-06T15:51:33Z</time>
      </trkpt>
      <trkpt lat="45.34504" lon="5.84182">
        <ele>1603</ele>
        <time>2022-03-06T15:51:34Z</time>
      </trkpt>
      <trkpt lat="45.34496" lon="5.84155">
        <ele>1599</ele>
        <time>2022-03-06T15:51:35Z</time>
      </trkpt>
      <trkpt lat="45.34494" lon="5.8414">
        <ele>1595</ele>
        <time>2022-03-06T15:51:36Z</time>
      </trkpt>
      <trkpt lat="45.34489" lon="5.84126">
        <ele>1592</ele>
        <time>2022-03-06T15:51:37Z</time>
      </trkpt>
      <trkpt lat="45.34482" lon="5.84115">
        <ele>1589</ele>
        <time>2022-03-06T15:51:38Z</time>
      </trkpt>
      <trkpt lat="45.34477" lon="5.84102">
        <ele>1585</ele>
        <time>2022-03-06T15:51:39Z</time>
      </trkpt>
      <trkpt lat="45.34476" lon="5.8409">
        <ele>1582</ele>
        <time>2022-03-06T15:51:40Z</time>
      </trkpt>
      <trkpt lat="45.34475" lon="5.84077">
        <ele>1579</ele>
        <time>2022-03-06T15:51:42Z</time>
      </trkpt>
      <trkpt lat="45.34472" lon="5.84066">
        <ele>1577</ele>
        <time>2022-03-06T15:51:43Z</time>
      </trkpt>
      <trkpt lat="45.3446" lon="5.84048">
        <ele>1576</ele>
        <time>2022-03-06T15:51:44Z</time>
      </trkpt>
      <trkpt lat="45.34457" lon="5.84024">
        <ele>1568</ele>
        <time>2022-03-06T15:51:46Z</time>
      </trkpt>
      <trkpt lat="45.34452" lon="5.84012">
        <ele>1566</ele>
        <time>2022-03-06T15:51:47Z</time>
      </trkpt>
      <trkpt lat="45.34446" lon="5.84002">
        <ele>1564</ele>
        <time>2022-03-06T15:51:48Z</time>
      </trkpt>
      <trkpt lat="45.34442" lon="5.8399">
        <ele>1561</ele>
        <time>2022-03-06T15:51:49Z</time>
      </trkpt>
      <trkpt lat="45.34441" lon="5.83977">
        <ele>1556</ele>
        <time>2022-03-06T15:51:50Z</time>
      </trkpt>
      <trkpt lat="45.34441" lon="5.83964">
        <ele>1553</ele>
        <time>2022-03-06T15:51:51Z</time>
      </trkpt>
      <trkpt lat="45.34437" lon="5.83952">
        <ele>1545</ele>
        <time>2022-03-06T15:51:53Z</time>
      </trkpt>
      <trkpt lat="45.34432" lon="5.83939">
        <ele>1540</ele>
        <time>2022-03-06T15:51:54Z</time>
      </trkpt>
      <trkpt lat="45.34431" lon="5.83925">
        <ele>1535</ele>
        <time>2022-03-06T15:51:55Z</time>
      </trkpt>
      <trkpt lat="45.34432" lon="5.83898">
        <ele>1532</ele>
        <time>2022-03-06T15:51:56Z</time>
      </trkpt>
      <trkpt lat="45.34428" lon="5.83886">
        <ele>1530</ele>
        <time>2022-03-06T15:51:57Z</time>
      </trkpt>
      <trkpt lat="45.34424" lon="5.83876">
        <ele>1528</ele>
        <time>2022-03-06T15:51:58Z</time>
      </trkpt>
      <trkpt lat="45.34424" lon="5.83865">
        <ele>1525</ele>
        <time>2022-03-06T15:51:59Z</time>
      </trkpt>
      <trkpt lat="45.34428" lon="5.83856">
        <ele>1518</ele>
        <time>2022-03-06T15:52:00Z</time>
      </trkpt>
      <trkpt lat="45.34432" lon="5.83848">
        <ele>1516</ele>
        <time>2022-03-06T15:52:01Z</time>
      </trkpt>
      <trkpt lat="45.34435" lon="5.83838">
        <ele>1514</ele>
        <time>2022-03-06T15:52:02Z</time>
      </trkpt>
      <trkpt lat="45.34435" lon="5.83815">
        <ele>1511</ele>
        <time>2022-03-06T15:52:04Z</time>
      </trkpt>
      <trkpt lat="45.34439" lon="5.83806">
        <ele>1505</ele>
        <time>2022-03-06T15:52:05Z</time>
      </trkpt>
      <trkpt lat="45.34443" lon="5.83796">
        <ele>1500</ele>
        <time>2022-03-06T15:52:06Z</time>
      </trkpt>
      <trkpt lat="45.34444" lon="5.83784">
        <ele>1496</ele>
        <time>2022-03-06T15:52:07Z</time>
      </trkpt>
      <trkpt lat="45.34444" lon="5.83771">
        <ele>1492</ele>
        <time>2022-03-06T15:52:08Z</time>
      </trkpt>
      <trkpt lat="45.34447" lon="5.8376">
        <ele>1487</ele>
        <time>2022-03-06T15:52:09Z</time>
      </trkpt>
      <trkpt lat="45.34451" lon="5.83751">
        <ele>1480</ele>
        <time>2022-03-06T15:52:11Z</time>
      </trkpt>
      <trkpt lat="45.34453" lon="5.83739">
        <ele>1476</ele>
        <time>2022-03-06T15:52:12Z</time>
      </trkpt>
      <trkpt lat="45.34452" lon="5.83727">
        <ele>1472</ele>
        <time>2022-03-06T15:52:13Z</time>
      </trkpt>
      <trkpt lat="45.3445" lon="5.83713">
        <ele>1468</ele>
        <time>2022-03-06T15:52:14Z</time>
      </trkpt>
      <trkpt lat="45.34455" lon="5.83691">
        <ele>1462</ele>
        <time>2022-03-06T15:52:15Z</time>
      </trkpt>
      <trkpt lat="45.34461" lon="5.83682">
        <ele>1457</ele>
        <time>2022-03-06T15:52:16Z</time>
      </trkpt>
      <trkpt lat="45.34467" lon="5.8367">
        <ele>1455</ele>
        <time>2022-03-06T15:52:17Z</time>
      </trkpt>
      <trkpt lat="45.34468" lon="5.83656">
        <ele>1452</ele>
        <time>2022-03-06T15:52:18Z</time>
      </trkpt>
      <trkpt lat="45.34469" lon="5.83642">
        <ele>1449</ele>
        <time>2022-03-06T15:52:19Z</time>
      </trkpt>
      <trkpt lat="45.34473" lon="5.83628">
        <ele>1443</ele>
        <time>2022-03-06T15:52:20Z</time>
      </trkpt>
      <trkpt lat="45.34478" lon="5.83598">
        <ele>1434</ele>
        <time>2022-03-06T15:52:22Z</time>
      </trkpt>
      <trkpt lat="45.34481" lon="5.83589">
        <ele>1426</ele>
        <time>2022-03-06T15:52:24Z</time>
      </trkpt>
      <trkpt lat="45.34484" lon="5.8358">
        <ele>1423</ele>
        <time>2022-03-06T15:52:25Z</time>
      </trkpt>
      <trkpt lat="45.34491" lon="5.83559">
        <ele>1420</ele>
        <time>2022-03-06T15:52:26Z</time>
      </trkpt>
      <trkpt lat="45.34491" lon="5.83557">
        <ele>1419</ele>
        <time>2022-03-06T15:52:27Z</time>
      </trkpt>
      <trkpt lat="45.34492" lon="5.83552">
        <ele>1418</ele>
        <time>2022-03-06T15:52:28Z</time>
      </trkpt>
      <trkpt lat="45.34488" lon="5.83535">
        <ele>1416</ele>
        <time>2022-03-06T15:52:29Z</time>
      </trkpt>
      <trkpt lat="45.34488" lon="5.83532">
        <ele>1415</ele>
        <time>2022-03-06T15:52:30Z</time>
      </trkpt>
      <trkpt lat="45.3449" lon="5.83526">
        <ele>1414</ele>
        <time>2022-03-06T15:52:31Z</time>
      </trkpt>
      <trkpt lat="45.34492" lon="5.83525">
        <ele>1412</ele>
        <time>2022-03-06T15:52:32Z</time>
      </trkpt>
      <trkpt lat="45.34496" lon="5.83524">
        <ele>1410</ele>
        <time>2022-03-06T15:52:33Z</time>
      </trkpt>
      <trkpt lat="45.34499" lon="5.83521">
        <ele>1409</ele>
        <time>2022-03-06T15:52:34Z</time>
      </trkpt>
      <trkpt lat="45.345" lon="5.83515">
        <ele>1407</ele>
        <time>2022-03-06T15:52:36Z</time>
      </trkpt>
      <trkpt lat="45.34499" lon="5.8351">
        <ele>1406</ele>
        <time>2022-03-06T15:52:37Z</time>
      </trkpt>
      <trkpt lat="45.34498" lon="5.83504">
        <ele>1406</ele>
        <time>2022-03-06T15:52:38Z</time>
      </trkpt>
      <trkpt lat="45.34497" lon="5.83496">
        <ele>1405</ele>
        <time>2022-03-06T15:52:39Z</time>
      </trkpt>
      <trkpt lat="45.34497" lon="5.83488">
        <ele>1403</ele>
        <time>2022-03-06T15:52:40Z</time>
      </trkpt>
      <trkpt lat="45.34503" lon="5.83477">
        <ele>1402</ele>
        <time>2022-03-06T15:52:41Z</time>
      </trkpt>
      <trkpt lat="45.34503" lon="5.83471">
        <ele>1400</ele>
        <time>2022-03-06T15:52:43Z</time>
      </trkpt>
      <trkpt lat="45.34502" lon="5.83466">
        <ele>1400</ele>
        <time>2022-03-06T15:52:44Z</time>
      </trkpt>
      <trkpt lat="45.34501" lon="5.83453">
        <ele>1400</ele>
        <time>2022-03-06T15:52:45Z</time>
      </trkpt>
      <trkpt lat="45.34504" lon="5.83448">
        <ele>1398</ele>
        <time>2022-03-06T15:52:46Z</time>
      </trkpt>
      <trkpt lat="45.34507" lon="5.83445">
        <ele>1397</ele>
        <time>2022-03-06T15:52:47Z</time>
      </trkpt>
      <trkpt lat="45.3451" lon="5.83441">
        <ele>1395</ele>
        <time>2022-03-06T15:52:48Z</time>
      </trkpt>
      <trkpt lat="45.34511" lon="5.83435">
        <ele>1394</ele>
        <time>2022-03-06T15:52:49Z</time>
      </trkpt>
      <trkpt lat="45.3451" lon="5.83429">
        <ele>1394</ele>
        <time>2022-03-06T15:52:50Z</time>
      </trkpt>
      <trkpt lat="45.34509" lon="5.83423">
        <ele>1390</ele>
        <time>2022-03-06T15:52:52Z</time>
      </trkpt>
      <trkpt lat="45.3451" lon="5.83418">
        <ele>1388</ele>
        <time>2022-03-06T15:52:53Z</time>
      </trkpt>
      <trkpt lat="45.34513" lon="5.83414">
        <ele>1388</ele>
        <time>2022-03-06T15:52:54Z</time>
      </trkpt>
      <trkpt lat="45.34517" lon="5.83411">
        <ele>1387</ele>
        <time>2022-03-06T15:52:55Z</time>
      </trkpt>
      <trkpt lat="45.3452" lon="5.8341">
        <ele>1386</ele>
        <time>2022-03-06T15:52:56Z</time>
      </trkpt>
      <trkpt lat="45.34526" lon="5.83405">
        <ele>1385</ele>
        <time>2022-03-06T15:52:57Z</time>
      </trkpt>
      <trkpt lat="45.34526" lon="5.834">
        <ele>1385</ele>
        <time>2022-03-06T15:52:58Z</time>
      </trkpt>
      <trkpt lat="45.34526" lon="5.83394">
        <ele>1384</ele>
        <time>2022-03-06T15:52:59Z</time>
      </trkpt>
      <trkpt lat="45.34528" lon="5.83388">
        <ele>1381</ele>
        <time>2022-03-06T15:53:00Z</time>
      </trkpt>
      <trkpt lat="45.34531" lon="5.83384">
        <ele>1381</ele>
        <time>2022-03-06T15:53:01Z</time>
      </trkpt>
      <trkpt lat="45.34534" lon="5.83381">
        <ele>1381</ele>
        <time>2022-03-06T15:53:02Z</time>
      </trkpt>
      <trkpt lat="45.34537" lon="5.83378">
        <ele>1380</ele>
        <time>2022-03-06T15:53:03Z</time>
      </trkpt>
      <trkpt lat="45.3454" lon="5.83374">
        <ele>1379</ele>
        <time>2022-03-06T15:53:04Z</time>
      </trkpt>
      <trkpt lat="45.34541" lon="5.83368">
        <ele>1378</ele>
        <time>2022-03-06T15:53:05Z</time>
      </trkpt>
      <trkpt lat="45.34537" lon="5.83361">
        <ele>1377</ele>
        <time>2022-03-06T15:53:06Z</time>
      </trkpt>
      <trkpt lat="45.34534" lon="5.83353">
        <ele>1375</ele>
        <time>2022-03-06T15:53:07Z</time>
      </trkpt>
      <trkpt lat="45.34532" lon="5.83342">
        <ele>1373</ele>
        <time>2022-03-06T15:53:08Z</time>
      </trkpt>
      <trkpt lat="45.34533" lon="5.83331">
        <ele>1372</ele>
        <time>2022-03-06T15:53:09Z</time>
      </trkpt>
      <trkpt lat="45.34533" lon="5.83319">
        <ele>1369</ele>
        <time>2022-03-06T15:53:11Z</time>
      </trkpt>
      <trkpt lat="45.34533" lon="5.83307">
        <ele>1366</ele>
        <time>2022-03-06T15:53:12Z</time>
      </trkpt>
      <trkpt lat="45.34537" lon="5.83299">
        <ele>1364</ele>
        <time>2022-03-06T15:53:13Z</time>
      </trkpt>
      <trkpt lat="45.34541" lon="5.83291">
        <ele>1363</ele>
        <time>2022-03-06T15:53:14Z</time>
      </trkpt>
      <trkpt lat="45.34544" lon="5.83272">
        <ele>1362</ele>
        <time>2022-03-06T15:53:15Z</time>
      </trkpt>
      <trkpt lat="45.34545" lon="5.83262">
        <ele>1359</ele>
        <time>2022-03-06T15:53:16Z</time>
      </trkpt>
      <trkpt lat="45.34548" lon="5.83255">
        <ele>1357</ele>
        <time>2022-03-06T15:53:17Z</time>
      </trkpt>
      <trkpt lat="45.34552" lon="5.83248">
        <ele>1356</ele>
        <time>2022-03-06T15:53:18Z</time>
      </trkpt>
      <trkpt lat="45.34554" lon="5.83242">
        <ele>1356</ele>
        <time>2022-03-06T15:53:19Z</time>
      </trkpt>
      <trkpt lat="45.34554" lon="5.83238">
        <ele>1356</ele>
        <time>2022-03-06T15:53:20Z</time>
      </trkpt>
      <trkpt lat="45.34552" lon="5.83236">
        <ele>1355</ele>
        <time>2022-03-06T15:53:22Z</time>
      </trkpt>
      <trkpt lat="45.34552" lon="5.83236">
        <ele>1354</ele>
        <time>2022-03-06T15:53:25Z</time>
      </trkpt>
      <trkpt lat="45.34552" lon="5.83233">
        <ele>1354</ele>
        <time>2022-03-06T15:53:28Z</time>
      </trkpt>
      <trkpt lat="45.34554" lon="5.83228">
        <ele>1354</ele>
        <time>2022-03-06T15:53:29Z</time>
      </trkpt>
      <trkpt lat="45.34557" lon="5.83223">
        <ele>1352</ele>
        <time>2022-03-06T15:53:30Z</time>
      </trkpt>
      <trkpt lat="45.34559" lon="5.83217">
        <ele>1351</ele>
        <time>2022-03-06T15:53:31Z</time>
      </trkpt>
      <trkpt lat="45.3456" lon="5.8321">
        <ele>1350</ele>
        <time>2022-03-06T15:53:32Z</time>
      </trkpt>
      <trkpt lat="45.34561" lon="5.83203">
        <ele>1346</ele>
        <time>2022-03-06T15:53:34Z</time>
      </trkpt>
      <trkpt lat="45.34562" lon="5.83196">
        <ele>1345</ele>
        <time>2022-03-06T15:53:35Z</time>
      </trkpt>
      <trkpt lat="45.3456" lon="5.83191">
        <ele>1344</ele>
        <time>2022-03-06T15:53:36Z</time>
      </trkpt>
      <trkpt lat="45.34556" lon="5.83187">
        <ele>1342</ele>
        <time>2022-03-06T15:53:37Z</time>
      </trkpt>
      <trkpt lat="45.34552" lon="5.83176">
        <ele>1341</ele>
        <time>2022-03-06T15:53:38Z</time>
      </trkpt>
      <trkpt lat="45.3455" lon="5.8317">
        <ele>1339</ele>
        <time>2022-03-06T15:53:40Z</time>
      </trkpt>
      <trkpt lat="45.34547" lon="5.83167">
        <ele>1338</ele>
        <time>2022-03-06T15:53:41Z</time>
      </trkpt>
      <trkpt lat="45.34542" lon="5.83154">
        <ele>1335</ele>
        <time>2022-03-06T15:53:42Z</time>
      </trkpt>
      <trkpt lat="45.34541" lon="5.83148">
        <ele>1333</ele>
        <time>2022-03-06T15:53:43Z</time>
      </trkpt>
      <trkpt lat="45.34538" lon="5.83141">
        <ele>1332</ele>
        <time>2022-03-06T15:53:44Z</time>
      </trkpt>
      <trkpt lat="45.34538" lon="5.83133">
        <ele>1330</ele>
        <time>2022-03-06T15:53:45Z</time>
      </trkpt>
      <trkpt lat="45.34538" lon="5.83127">
        <ele>1329</ele>
        <time>2022-03-06T15:53:46Z</time>
      </trkpt>
      <trkpt lat="45.34536" lon="5.83119">
        <ele>1328</ele>
        <time>2022-03-06T15:53:47Z</time>
      </trkpt>
      <trkpt lat="45.34536" lon="5.83112">
        <ele>1327</ele>
        <time>2022-03-06T15:53:48Z</time>
      </trkpt>
      <trkpt lat="45.34537" lon="5.83104">
        <ele>1325</ele>
        <time>2022-03-06T15:53:49Z</time>
      </trkpt>
      <trkpt lat="45.34537" lon="5.83098">
        <ele>1324</ele>
        <time>2022-03-06T15:53:50Z</time>
      </trkpt>
      <trkpt lat="45.34536" lon="5.83091">
        <ele>1323</ele>
        <time>2022-03-06T15:53:51Z</time>
      </trkpt>
      <trkpt lat="45.34535" lon="5.83085">
        <ele>1321</ele>
        <time>2022-03-06T15:53:52Z</time>
      </trkpt>
      <trkpt lat="45.34537" lon="5.83084">
        <ele>1318</ele>
        <time>2022-03-06T15:53:54Z</time>
      </trkpt>
      <trkpt lat="45.3454" lon="5.83083">
        <ele>1317</ele>
        <time>2022-03-06T15:53:55Z</time>
      </trkpt>
      <trkpt lat="45.34546" lon="5.83077">
        <ele>1317</ele>
        <time>2022-03-06T15:53:56Z</time>
      </trkpt>
      <trkpt lat="45.34549" lon="5.83074">
        <ele>1316</ele>
        <time>2022-03-06T15:53:57Z</time>
      </trkpt>
      <trkpt lat="45.34552" lon="5.8307">
        <ele>1315</ele>
        <time>2022-03-06T15:53:59Z</time>
      </trkpt>
      <trkpt lat="45.34555" lon="5.83066">
        <ele>1315</ele>
        <time>2022-03-06T15:54:00Z</time>
      </trkpt>
      <trkpt lat="45.34557" lon="5.83063">
        <ele>1315</ele>
        <time>2022-03-06T15:54:01Z</time>
      </trkpt>
      <trkpt lat="45.34559" lon="5.8306">
        <ele>1315</ele>
        <time>2022-03-06T15:54:02Z</time>
      </trkpt>
      <trkpt lat="45.34559" lon="5.83055">
        <ele>1313</ele>
        <time>2022-03-06T15:54:03Z</time>
      </trkpt>
      <trkpt lat="45.34559" lon="5.8305">
        <ele>1311</ele>
        <time>2022-03-06T15:54:04Z</time>
      </trkpt>
      <trkpt lat="45.34559" lon="5.83045">
        <ele>1310</ele>
        <time>2022-03-06T15:54:05Z</time>
      </trkpt>
      <trkpt lat="45.34556" lon="5.83034">
        <ele>1309</ele>
        <time>2022-03-06T15:54:06Z</time>
      </trkpt>
      <trkpt lat="45.34557" lon="5.83029">
        <ele>1309</ele>
        <time>2022-03-06T15:54:07Z</time>
      </trkpt>
      <trkpt lat="45.34557" lon="5.83023">
        <ele>1308</ele>
        <time>2022-03-06T15:54:08Z</time>
      </trkpt>
      <trkpt lat="45.34557" lon="5.83016">
        <ele>1307</ele>
        <time>2022-03-06T15:54:09Z</time>
      </trkpt>
      <trkpt lat="45.34556" lon="5.83011">
        <ele>1305</ele>
        <time>2022-03-06T15:54:10Z</time>
      </trkpt>
      <trkpt lat="45.34557" lon="5.83005">
        <ele>1303</ele>
        <time>2022-03-06T15:54:11Z</time>
      </trkpt>
      <trkpt lat="45.34557" lon="5.82999">
        <ele>1302</ele>
        <time>2022-03-06T15:54:12Z</time>
      </trkpt>
      <trkpt lat="45.34555" lon="5.82995">
        <ele>1300</ele>
        <time>2022-03-06T15:54:13Z</time>
      </trkpt>
      <trkpt lat="45.34552" lon="5.8299">
        <ele>1299</ele>
        <time>2022-03-06T15:54:14Z</time>
      </trkpt>
      <trkpt lat="45.3455" lon="5.82985">
        <ele>1298</ele>
        <time>2022-03-06T15:54:15Z</time>
      </trkpt>
      <trkpt lat="45.34551" lon="5.82981">
        <ele>1296</ele>
        <time>2022-03-06T15:54:16Z</time>
      </trkpt>
      <trkpt lat="45.34554" lon="5.82978">
        <ele>1296</ele>
        <time>2022-03-06T15:54:17Z</time>
      </trkpt>
      <trkpt lat="45.34555" lon="5.82974">
        <ele>1294</ele>
        <time>2022-03-06T15:54:18Z</time>
      </trkpt>
      <trkpt lat="45.34555" lon="5.82969">
        <ele>1294</ele>
        <time>2022-03-06T15:54:19Z</time>
      </trkpt>
      <trkpt lat="45.34553" lon="5.82965">
        <ele>1292</ele>
        <time>2022-03-06T15:54:21Z</time>
      </trkpt>
      <trkpt lat="45.34552" lon="5.82962">
        <ele>1292</ele>
        <time>2022-03-06T15:54:22Z</time>
      </trkpt>
      <trkpt lat="45.34553" lon="5.82959">
        <ele>1290</ele>
        <time>2022-03-06T15:54:23Z</time>
      </trkpt>
      <trkpt lat="45.34554" lon="5.82955">
        <ele>1289</ele>
        <time>2022-03-06T15:54:24Z</time>
      </trkpt>
      <trkpt lat="45.34557" lon="5.82954">
        <ele>1288</ele>
        <time>2022-03-06T15:54:25Z</time>
      </trkpt>
      <trkpt lat="45.3456" lon="5.82952">
        <ele>1287</ele>
        <time>2022-03-06T15:54:26Z</time>
      </trkpt>
      <trkpt lat="45.34563" lon="5.82949">
        <ele>1286</ele>
        <time>2022-03-06T15:54:27Z</time>
      </trkpt>
      <trkpt lat="45.34564" lon="5.82945">
        <ele>1285</ele>
        <time>2022-03-06T15:54:28Z</time>
      </trkpt>
      <trkpt lat="45.34565" lon="5.82938">
        <ele>1284</ele>
        <time>2022-03-06T15:54:29Z</time>
      </trkpt>
      <trkpt lat="45.34566" lon="5.8293">
        <ele>1281</ele>
        <time>2022-03-06T15:54:30Z</time>
      </trkpt>
      <trkpt lat="45.34568" lon="5.82924">
        <ele>1279</ele>
        <time>2022-03-06T15:54:31Z</time>
      </trkpt>
      <trkpt lat="45.34576" lon="5.82915">
        <ele>1278</ele>
        <time>2022-03-06T15:54:32Z</time>
      </trkpt>
      <trkpt lat="45.34578" lon="5.82909">
        <ele>1278</ele>
        <time>2022-03-06T15:54:33Z</time>
      </trkpt>
      <trkpt lat="45.34578" lon="5.82901">
        <ele>1278</ele>
        <time>2022-03-06T15:54:34Z</time>
      </trkpt>
      <trkpt lat="45.34579" lon="5.82894">
        <ele>1276</ele>
        <time>2022-03-06T15:54:35Z</time>
      </trkpt>
      <trkpt lat="45.34582" lon="5.8289">
        <ele>1276</ele>
        <time>2022-03-06T15:54:36Z</time>
      </trkpt>
      <trkpt lat="45.34586" lon="5.82888">
        <ele>1274</ele>
        <time>2022-03-06T15:54:37Z</time>
      </trkpt>
      <trkpt lat="45.34587" lon="5.82884">
        <ele>1273</ele>
        <time>2022-03-06T15:54:38Z</time>
      </trkpt>
      <trkpt lat="45.34586" lon="5.8288">
        <ele>1272</ele>
        <time>2022-03-06T15:54:39Z</time>
      </trkpt>
      <trkpt lat="45.34584" lon="5.82874">
        <ele>1271</ele>
        <time>2022-03-06T15:54:40Z</time>
      </trkpt>
      <trkpt lat="45.34584" lon="5.82868">
        <ele>1271</ele>
        <time>2022-03-06T15:54:41Z</time>
      </trkpt>
      <trkpt lat="45.34586" lon="5.82864">
        <ele>1269</ele>
        <time>2022-03-06T15:54:42Z</time>
      </trkpt>
      <trkpt lat="45.34589" lon="5.82861">
        <ele>1268</ele>
        <time>2022-03-06T15:54:43Z</time>
      </trkpt>
      <trkpt lat="45.34589" lon="5.82857">
        <ele>1267</ele>
        <time>2022-03-06T15:54:44Z</time>
      </trkpt>
      <trkpt lat="45.34586" lon="5.82855">
        <ele>1264</ele>
        <time>2022-03-06T15:54:46Z</time>
      </trkpt>
      <trkpt lat="45.34583" lon="5.82852">
        <ele>1263</ele>
        <time>2022-03-06T15:54:47Z</time>
      </trkpt>
      <trkpt lat="45.3458" lon="5.8285">
        <ele>1263</ele>
        <time>2022-03-06T15:54:48Z</time>
      </trkpt>
      <trkpt lat="45.34579" lon="5.82847">
        <ele>1262</ele>
        <time>2022-03-06T15:54:49Z</time>
      </trkpt>
      <trkpt lat="45.34579" lon="5.82843">
        <ele>1262</ele>
        <time>2022-03-06T15:54:50Z</time>
      </trkpt>
      <trkpt lat="45.34577" lon="5.82841">
        <ele>1260</ele>
        <time>2022-03-06T15:54:52Z</time>
      </trkpt>
      <trkpt lat="45.34575" lon="5.82837">
        <ele>1259</ele>
        <time>2022-03-06T15:54:53Z</time>
      </trkpt>
      <trkpt lat="45.34574" lon="5.82832">
        <ele>1257</ele>
        <time>2022-03-06T15:54:54Z</time>
      </trkpt>
      <trkpt lat="45.34572" lon="5.82829">
        <ele>1254</ele>
        <time>2022-03-06T15:54:56Z</time>
      </trkpt>
      <trkpt lat="45.34569" lon="5.82829">
        <ele>1253</ele>
        <time>2022-03-06T15:54:57Z</time>
      </trkpt>
      <trkpt lat="45.34568" lon="5.82826">
        <ele>1252</ele>
        <time>2022-03-06T15:54:58Z</time>
      </trkpt>
      <trkpt lat="45.34567" lon="5.82821">
        <ele>1251</ele>
        <time>2022-03-06T15:54:59Z</time>
      </trkpt>
      <trkpt lat="45.34569" lon="5.82815">
        <ele>1248</ele>
        <time>2022-03-06T15:55:00Z</time>
      </trkpt>
      <trkpt lat="45.34571" lon="5.82811">
        <ele>1248</ele>
        <time>2022-03-06T15:55:01Z</time>
      </trkpt>
      <trkpt lat="45.34571" lon="5.82808">
        <ele>1247</ele>
        <time>2022-03-06T15:55:02Z</time>
      </trkpt>
      <trkpt lat="45.34567" lon="5.82804">
        <ele>1246</ele>
        <time>2022-03-06T15:55:03Z</time>
      </trkpt>
      <trkpt lat="45.34564" lon="5.828">
        <ele>1245</ele>
        <time>2022-03-06T15:55:04Z</time>
      </trkpt>
      <trkpt lat="45.34564" lon="5.82794">
        <ele>1243</ele>
        <time>2022-03-06T15:55:05Z</time>
      </trkpt>
      <trkpt lat="45.34566" lon="5.82789">
        <ele>1241</ele>
        <time>2022-03-06T15:55:06Z</time>
      </trkpt>
      <trkpt lat="45.34566" lon="5.82784">
        <ele>1239</ele>
        <time>2022-03-06T15:55:07Z</time>
      </trkpt>
      <trkpt lat="45.34564" lon="5.8278">
        <ele>1238</ele>
        <time>2022-03-06T15:55:08Z</time>
      </trkpt>
      <trkpt lat="45.34562" lon="5.82776">
        <ele>1236</ele>
        <time>2022-03-06T15:55:09Z</time>
      </trkpt>
      <trkpt lat="45.34563" lon="5.82772">
        <ele>1235</ele>
        <time>2022-03-06T15:55:10Z</time>
      </trkpt>
      <trkpt lat="45.34565" lon="5.82771">
        <ele>1234</ele>
        <time>2022-03-06T15:55:11Z</time>
      </trkpt>
      <trkpt lat="45.34567" lon="5.82769">
        <ele>1233</ele>
        <time>2022-03-06T15:55:12Z</time>
      </trkpt>
      <trkpt lat="45.34565" lon="5.82766">
        <ele>1233</ele>
        <time>2022-03-06T15:55:14Z</time>
      </trkpt>
      <trkpt lat="45.34563" lon="5.82765">
        <ele>1232</ele>
        <time>2022-03-06T15:55:15Z</time>
      </trkpt>
      <trkpt lat="45.34561" lon="5.82763">
        <ele>1231</ele>
        <time>2022-03-06T15:55:17Z</time>
      </trkpt>
      <trkpt lat="45.3456" lon="5.8276">
        <ele>1231</ele>
        <time>2022-03-06T15:55:18Z</time>
      </trkpt>
      <trkpt lat="45.3456" lon="5.82755">
        <ele>1231</ele>
        <time>2022-03-06T15:55:19Z</time>
      </trkpt>
      <trkpt lat="45.34561" lon="5.82749">
        <ele>1229</ele>
        <time>2022-03-06T15:55:20Z</time>
      </trkpt>
      <trkpt lat="45.34561" lon="5.82744">
        <ele>1228</ele>
        <time>2022-03-06T15:55:21Z</time>
      </trkpt>
      <trkpt lat="45.3456" lon="5.82739">
        <ele>1225</ele>
        <time>2022-03-06T15:55:23Z</time>
      </trkpt>
      <trkpt lat="45.3456" lon="5.82734">
        <ele>1224</ele>
        <time>2022-03-06T15:55:24Z</time>
      </trkpt>
      <trkpt lat="45.3456" lon="5.82729">
        <ele>1223</ele>
        <time>2022-03-06T15:55:25Z</time>
      </trkpt>
      <trkpt lat="45.34559" lon="5.82725">
        <ele>1222</ele>
        <time>2022-03-06T15:55:26Z</time>
      </trkpt>
      <trkpt lat="45.34556" lon="5.82719">
        <ele>1220</ele>
        <time>2022-03-06T15:55:27Z</time>
      </trkpt>
      <trkpt lat="45.34556" lon="5.82712">
        <ele>1218</ele>
        <time>2022-03-06T15:55:28Z</time>
      </trkpt>
      <trkpt lat="45.34558" lon="5.82708">
        <ele>1217</ele>
        <time>2022-03-06T15:55:29Z</time>
      </trkpt>
      <trkpt lat="45.3456" lon="5.82703">
        <ele>1215</ele>
        <time>2022-03-06T15:55:30Z</time>
      </trkpt>
      <trkpt lat="45.34559" lon="5.82695">
        <ele>1215</ele>
        <time>2022-03-06T15:55:31Z</time>
      </trkpt>
      <trkpt lat="45.34558" lon="5.82687">
        <ele>1215</ele>
        <time>2022-03-06T15:55:32Z</time>
      </trkpt>
      <trkpt lat="45.34557" lon="5.82677">
        <ele>1212</ele>
        <time>2022-03-06T15:55:34Z</time>
      </trkpt>
      <trkpt lat="45.34554" lon="5.82671">
        <ele>1211</ele>
        <time>2022-03-06T15:55:35Z</time>
      </trkpt>
      <trkpt lat="45.34553" lon="5.82665">
        <ele>1211</ele>
        <time>2022-03-06T15:55:36Z</time>
      </trkpt>
      <trkpt lat="45.34553" lon="5.82659">
        <ele>1210</ele>
        <time>2022-03-06T15:55:37Z</time>
      </trkpt>
      <trkpt lat="45.3455" lon="5.82654">
        <ele>1208</ele>
        <time>2022-03-06T15:55:38Z</time>
      </trkpt>
      <trkpt lat="45.34547" lon="5.82649">
        <ele>1206</ele>
        <time>2022-03-06T15:55:39Z</time>
      </trkpt>
      <trkpt lat="45.34546" lon="5.82644">
        <ele>1205</ele>
        <time>2022-03-06T15:55:40Z</time>
      </trkpt>
      <trkpt lat="45.34544" lon="5.82631">
        <ele>1203</ele>
        <time>2022-03-06T15:55:42Z</time>
      </trkpt>
      <trkpt lat="45.34543" lon="5.82629">
        <ele>1202</ele>
        <time>2022-03-06T15:55:43Z</time>
      </trkpt>
      <trkpt lat="45.34545" lon="5.82618">
        <ele>1200</ele>
        <time>2022-03-06T15:55:45Z</time>
      </trkpt>
      <trkpt lat="45.34546" lon="5.82616">
        <ele>1200</ele>
        <time>2022-03-06T15:55:46Z</time>
      </trkpt>
      <trkpt lat="45.34546" lon="5.82613">
        <ele>1198</ele>
        <time>2022-03-06T15:55:48Z</time>
      </trkpt>
      <trkpt lat="45.34544" lon="5.82607">
        <ele>1197</ele>
        <time>2022-03-06T15:55:49Z</time>
      </trkpt>
      <trkpt lat="45.34541" lon="5.82602">
        <ele>1196</ele>
        <time>2022-03-06T15:55:50Z</time>
      </trkpt>
      <trkpt lat="45.3454" lon="5.82591">
        <ele>1195</ele>
        <time>2022-03-06T15:55:51Z</time>
      </trkpt>
      <trkpt lat="45.34538" lon="5.8259">
        <ele>1194</ele>
        <time>2022-03-06T15:55:53Z</time>
      </trkpt>
      <trkpt lat="45.34535" lon="5.82588">
        <ele>1193</ele>
        <time>2022-03-06T15:55:54Z</time>
      </trkpt>
      <trkpt lat="45.34533" lon="5.82585">
        <ele>1192</ele>
        <time>2022-03-06T15:55:55Z</time>
      </trkpt>
      <trkpt lat="45.34532" lon="5.82582">
        <ele>1191</ele>
        <time>2022-03-06T15:55:56Z</time>
      </trkpt>
      <trkpt lat="45.3453" lon="5.8258">
        <ele>1191</ele>
        <time>2022-03-06T15:55:57Z</time>
      </trkpt>
      <trkpt lat="45.34526" lon="5.82579">
        <ele>1190</ele>
        <time>2022-03-06T15:55:58Z</time>
      </trkpt>
      <trkpt lat="45.34523" lon="5.82574">
        <ele>1188</ele>
        <time>2022-03-06T15:55:59Z</time>
      </trkpt>
      <trkpt lat="45.34522" lon="5.82569">
        <ele>1185</ele>
        <time>2022-03-06T15:56:00Z</time>
      </trkpt>
      <trkpt lat="45.3452" lon="5.82563">
        <ele>1184</ele>
        <time>2022-03-06T15:56:01Z</time>
      </trkpt>
      <trkpt lat="45.34517" lon="5.82563">
        <ele>1184</ele>
        <time>2022-03-06T15:56:02Z</time>
      </trkpt>
      <trkpt lat="45.34514" lon="5.82561">
        <ele>1183</ele>
        <time>2022-03-06T15:56:03Z</time>
      </trkpt>
      <trkpt lat="45.34513" lon="5.82555">
        <ele>1182</ele>
        <time>2022-03-06T15:56:04Z</time>
      </trkpt>
      <trkpt lat="45.34513" lon="5.8255">
        <ele>1181</ele>
        <time>2022-03-06T15:56:05Z</time>
      </trkpt>
      <trkpt lat="45.34514" lon="5.82545">
        <ele>1180</ele>
        <time>2022-03-06T15:56:06Z</time>
      </trkpt>
      <trkpt lat="45.34514" lon="5.82542">
        <ele>1179</ele>
        <time>2022-03-06T15:56:07Z</time>
      </trkpt>
      <trkpt lat="45.34511" lon="5.82541">
        <ele>1178</ele>
        <time>2022-03-06T15:56:08Z</time>
      </trkpt>
      <trkpt lat="45.34508" lon="5.82535">
        <ele>1176</ele>
        <time>2022-03-06T15:56:09Z</time>
      </trkpt>
      <trkpt lat="45.34508" lon="5.82529">
        <ele>1174</ele>
        <time>2022-03-06T15:56:10Z</time>
      </trkpt>
      <trkpt lat="45.34509" lon="5.82523">
        <ele>1174</ele>
        <time>2022-03-06T15:56:11Z</time>
      </trkpt>
      <trkpt lat="45.3451" lon="5.82519">
        <ele>1173</ele>
        <time>2022-03-06T15:56:12Z</time>
      </trkpt>
      <trkpt lat="45.3451" lon="5.82516">
        <ele>1172</ele>
        <time>2022-03-06T15:56:13Z</time>
      </trkpt>
      <trkpt lat="45.34505" lon="5.82509">
        <ele>1169</ele>
        <time>2022-03-06T15:56:15Z</time>
      </trkpt>
      <trkpt lat="45.34505" lon="5.82506">
        <ele>1168</ele>
        <time>2022-03-06T15:56:16Z</time>
      </trkpt>
      <trkpt lat="45.34506" lon="5.82495">
        <ele>1167</ele>
        <time>2022-03-06T15:56:18Z</time>
      </trkpt>
      <trkpt lat="45.34505" lon="5.8249">
        <ele>1166</ele>
        <time>2022-03-06T15:56:19Z</time>
      </trkpt>
      <trkpt lat="45.34505" lon="5.82485">
        <ele>1163</ele>
        <time>2022-03-06T15:56:20Z</time>
      </trkpt>
      <trkpt lat="45.34506" lon="5.82483">
        <ele>1162</ele>
        <time>2022-03-06T15:56:21Z</time>
      </trkpt>
      <trkpt lat="45.34503" lon="5.82476">
        <ele>1158</ele>
        <time>2022-03-06T15:56:23Z</time>
      </trkpt>
      <trkpt lat="45.34503" lon="5.82473">
        <ele>1157</ele>
        <time>2022-03-06T15:56:24Z</time>
      </trkpt>
      <trkpt lat="45.34504" lon="5.8247">
        <ele>1155</ele>
        <time>2022-03-06T15:56:25Z</time>
      </trkpt>
      <trkpt lat="45.34505" lon="5.82466">
        <ele>1153</ele>
        <time>2022-03-06T15:56:26Z</time>
      </trkpt>
      <trkpt lat="45.34503" lon="5.82462">
        <ele>1151</ele>
        <time>2022-03-06T15:56:28Z</time>
      </trkpt>
      <trkpt lat="45.34501" lon="5.82459">
        <ele>1150</ele>
        <time>2022-03-06T15:56:29Z</time>
      </trkpt>
      <trkpt lat="45.34501" lon="5.82448">
        <ele>1148</ele>
        <time>2022-03-06T15:56:31Z</time>
      </trkpt>
      <trkpt lat="45.34502" lon="5.82447">
        <ele>1147</ele>
        <time>2022-03-06T15:56:32Z</time>
      </trkpt>
      <trkpt lat="45.34502" lon="5.82444">
        <ele>1146</ele>
        <time>2022-03-06T15:56:33Z</time>
      </trkpt>
      <trkpt lat="45.34502" lon="5.8244">
        <ele>1145</ele>
        <time>2022-03-06T15:56:34Z</time>
      </trkpt>
      <trkpt lat="45.34501" lon="5.82436">
        <ele>1142</ele>
        <time>2022-03-06T15:56:36Z</time>
      </trkpt>
      <trkpt lat="45.34503" lon="5.82433">
        <ele>1140</ele>
        <time>2022-03-06T15:56:37Z</time>
      </trkpt>
      <trkpt lat="45.34504" lon="5.82428">
        <ele>1139</ele>
        <time>2022-03-06T15:56:38Z</time>
      </trkpt>
      <trkpt lat="45.34506" lon="5.82424">
        <ele>1138</ele>
        <time>2022-03-06T15:56:39Z</time>
      </trkpt>
      <trkpt lat="45.34508" lon="5.8242">
        <ele>1137</ele>
        <time>2022-03-06T15:56:40Z</time>
      </trkpt>
      <trkpt lat="45.34508" lon="5.82414">
        <ele>1136</ele>
        <time>2022-03-06T15:56:41Z</time>
      </trkpt>
      <trkpt lat="45.34507" lon="5.82411">
        <ele>1135</ele>
        <time>2022-03-06T15:56:42Z</time>
      </trkpt>
      <trkpt lat="45.34506" lon="5.82409">
        <ele>1133</ele>
        <time>2022-03-06T15:56:43Z</time>
      </trkpt>
      <trkpt lat="45.34505" lon="5.82406">
        <ele>1132</ele>
        <time>2022-03-06T15:56:44Z</time>
      </trkpt>
      <trkpt lat="45.34503" lon="5.82396">
        <ele>1132</ele>
        <time>2022-03-06T15:56:45Z</time>
      </trkpt>
      <trkpt lat="45.34504" lon="5.82393">
        <ele>1132</ele>
        <time>2022-03-06T15:56:46Z</time>
      </trkpt>
      <trkpt lat="45.34505" lon="5.8239">
        <ele>1131</ele>
        <time>2022-03-06T15:56:47Z</time>
      </trkpt>
      <trkpt lat="45.34506" lon="5.82388">
        <ele>1130</ele>
        <time>2022-03-06T15:56:48Z</time>
      </trkpt>
      <trkpt lat="45.34507" lon="5.82385">
        <ele>1129</ele>
        <time>2022-03-06T15:56:49Z</time>
      </trkpt>
      <trkpt lat="45.3451" lon="5.82382">
        <ele>1128</ele>
        <time>2022-03-06T15:56:50Z</time>
      </trkpt>
      <trkpt lat="45.34512" lon="5.8238">
        <ele>1127</ele>
        <time>2022-03-06T15:56:51Z</time>
      </trkpt>
      <trkpt lat="45.34515" lon="5.82377">
        <ele>1127</ele>
        <time>2022-03-06T15:56:52Z</time>
      </trkpt>
      <trkpt lat="45.34515" lon="5.82372">
        <ele>1125</ele>
        <time>2022-03-06T15:56:53Z</time>
      </trkpt>
      <trkpt lat="45.34517" lon="5.82367">
        <ele>1123</ele>
        <time>2022-03-06T15:56:54Z</time>
      </trkpt>
      <trkpt lat="45.34519" lon="5.82362">
        <ele>1121</ele>
        <time>2022-03-06T15:56:55Z</time>
      </trkpt>
      <trkpt lat="45.34522" lon="5.82359">
        <ele>1121</ele>
        <time>2022-03-06T15:56:56Z</time>
      </trkpt>
      <trkpt lat="45.34524" lon="5.82357">
        <ele>1120</ele>
        <time>2022-03-06T15:56:57Z</time>
      </trkpt>
      <trkpt lat="45.34526" lon="5.82354">
        <ele>1119</ele>
        <time>2022-03-06T15:56:58Z</time>
      </trkpt>
      <trkpt lat="45.34526" lon="5.8235">
        <ele>1116</ele>
        <time>2022-03-06T15:57:00Z</time>
      </trkpt>
      <trkpt lat="45.34528" lon="5.82346">
        <ele>1115</ele>
        <time>2022-03-06T15:57:02Z</time>
      </trkpt>
      <trkpt lat="45.34528" lon="5.82348">
        <ele>1113</ele>
        <time>2022-03-06T15:57:04Z</time>
      </trkpt>
      <trkpt lat="45.34528" lon="5.82349">
        <ele>1113</ele>
        <time>2022-03-06T15:57:05Z</time>
      </trkpt>
      <trkpt lat="45.34528" lon="5.8235">
        <ele>1112</ele>
        <time>2022-03-06T15:57:06Z</time>
      </trkpt>
      <trkpt lat="45.34527" lon="5.82352">
        <ele>1110</ele>
        <time>2022-03-06T15:57:07Z</time>
      </trkpt>
      <trkpt lat="45.34527" lon="5.82353">
        <ele>1110</ele>
        <time>2022-03-06T15:57:08Z</time>
      </trkpt>
      <trkpt lat="45.34527" lon="5.82354">
        <ele>1109</ele>
        <time>2022-03-06T15:57:09Z</time>
      </trkpt>
      <trkpt lat="45.34527" lon="5.82356">
        <ele>1109</ele>
        <time>2022-03-06T15:57:10Z</time>
      </trkpt>
      <trkpt lat="45.34527" lon="5.82357">
        <ele>1108</ele>
        <time>2022-03-06T15:57:11Z</time>
      </trkpt>
      <trkpt lat="45.34527" lon="5.82358">
        <ele>1108</ele>
        <time>2022-03-06T15:57:12Z</time>
      </trkpt>
      <trkpt lat="45.34526" lon="5.8236">
        <ele>1108</ele>
        <time>2022-03-06T15:57:13Z</time>
      </trkpt>
      <trkpt lat="45.34526" lon="5.8236">
        <ele>1108</ele>
        <time>2022-03-06T15:57:17Z</time>
      </trkpt>
      <trkpt lat="45.34526" lon="5.8236">
        <ele>1108</ele>
        <time>2022-03-06T15:57:21Z</time>
      </trkpt>
      <trkpt lat="45.34524" lon="5.82358">
        <ele>1108</ele>
        <time>2022-03-06T15:57:23Z</time>
      </trkpt>
      <trkpt lat="45.34522" lon="5.82355">
        <ele>1108</ele>
        <time>2022-03-06T15:57:24Z</time>
      </trkpt>
      <trkpt lat="45.34519" lon="5.8235">
        <ele>1108</ele>
        <time>2022-03-06T15:57:25Z</time>
      </trkpt>
      <trkpt lat="45.34513" lon="5.82341">
        <ele>1107</ele>
        <time>2022-03-06T15:57:27Z</time>
      </trkpt>
      <trkpt lat="45.3451" lon="5.82336">
        <ele>1106</ele>
        <time>2022-03-06T15:57:28Z</time>
      </trkpt>
      <trkpt lat="45.34508" lon="5.82334">
        <ele>1106</ele>
        <time>2022-03-06T15:57:29Z</time>
      </trkpt>
      <trkpt lat="45.34508" lon="5.82334">
        <ele>1104</ele>
        <time>2022-03-06T15:57:33Z</time>
      </trkpt>
      <trkpt lat="45.3451" lon="5.82331">
        <ele>1104</ele>
        <time>2022-03-06T15:57:34Z</time>
      </trkpt>
      <trkpt lat="45.3451" lon="5.82327">
        <ele>1103</ele>
        <time>2022-03-06T15:57:36Z</time>
      </trkpt>
      <trkpt lat="45.3451" lon="5.82324">
        <ele>1102</ele>
        <time>2022-03-06T15:57:37Z</time>
      </trkpt>
      <trkpt lat="45.34508" lon="5.82321">
        <ele>1102</ele>
        <time>2022-03-06T15:57:38Z</time>
      </trkpt>
      <trkpt lat="45.34506" lon="5.82319">
        <ele>1101</ele>
        <time>2022-03-06T15:57:39Z</time>
      </trkpt>
      <trkpt lat="45.34503" lon="5.82317">
        <ele>1100</ele>
        <time>2022-03-06T15:57:40Z</time>
      </trkpt>
      <trkpt lat="45.34502" lon="5.82316">
        <ele>1100</ele>
        <time>2022-03-06T15:57:43Z</time>
      </trkpt>
      <trkpt lat="45.34502" lon="5.82316">
        <ele>1100</ele>
        <time>2022-03-06T15:57:45Z</time>
      </trkpt>
      <trkpt lat="45.345" lon="5.82316">
        <ele>1100</ele>
        <time>2022-03-06T15:57:49Z</time>
      </trkpt>
      <trkpt lat="45.345" lon="5.82316">
        <ele>1099</ele>
        <time>2022-03-06T15:57:50Z</time>
      </trkpt>
      <trkpt lat="45.34498" lon="5.82314">
        <ele>1100</ele>
        <time>2022-03-06T15:57:53Z</time>
      </trkpt>
      <trkpt lat="45.34498" lon="5.82309">
        <ele>1099</ele>
        <time>2022-03-06T15:57:55Z</time>
      </trkpt>
      <trkpt lat="45.34498" lon="5.82305">
        <ele>1099</ele>
        <time>2022-03-06T15:57:56Z</time>
      </trkpt>
      <trkpt lat="45.34499" lon="5.823">
        <ele>1098</ele>
        <time>2022-03-06T15:57:57Z</time>
      </trkpt>
      <trkpt lat="45.345" lon="5.82294">
        <ele>1097</ele>
        <time>2022-03-06T15:57:58Z</time>
      </trkpt>
      <trkpt lat="45.34501" lon="5.82287">
        <ele>1093</ele>
        <time>2022-03-06T15:58:00Z</time>
      </trkpt>
      <trkpt lat="45.34499" lon="5.8228">
        <ele>1093</ele>
        <time>2022-03-06T15:58:01Z</time>
      </trkpt>
      <trkpt lat="45.345" lon="5.82274">
        <ele>1092</ele>
        <time>2022-03-06T15:58:02Z</time>
      </trkpt>
      <trkpt lat="45.34502" lon="5.82269">
        <ele>1091</ele>
        <time>2022-03-06T15:58:03Z</time>
      </trkpt>
      <trkpt lat="45.34502" lon="5.82261">
        <ele>1091</ele>
        <time>2022-03-06T15:58:04Z</time>
      </trkpt>
      <trkpt lat="45.345" lon="5.82256">
        <ele>1090</ele>
        <time>2022-03-06T15:58:06Z</time>
      </trkpt>
      <trkpt lat="45.34501" lon="5.8225">
        <ele>1090</ele>
        <time>2022-03-06T15:58:07Z</time>
      </trkpt>
      <trkpt lat="45.34503" lon="5.82246">
        <ele>1089</ele>
        <time>2022-03-06T15:58:08Z</time>
      </trkpt>
      <trkpt lat="45.34505" lon="5.82243">
        <ele>1088</ele>
        <time>2022-03-06T15:58:09Z</time>
      </trkpt>
      <trkpt lat="45.34505" lon="5.82238">
        <ele>1087</ele>
        <time>2022-03-06T15:58:10Z</time>
      </trkpt>
      <trkpt lat="45.34504" lon="5.8223">
        <ele>1086</ele>
        <time>2022-03-06T15:58:11Z</time>
      </trkpt>
      <trkpt lat="45.34504" lon="5.82227">
        <ele>1086</ele>
        <time>2022-03-06T15:58:12Z</time>
      </trkpt>
      <trkpt lat="45.34506" lon="5.82223">
        <ele>1085</ele>
        <time>2022-03-06T15:58:13Z</time>
      </trkpt>
      <trkpt lat="45.34506" lon="5.8222">
        <ele>1084</ele>
        <time>2022-03-06T15:58:14Z</time>
      </trkpt>
      <trkpt lat="45.34506" lon="5.82217">
        <ele>1083</ele>
        <time>2022-03-06T15:58:16Z</time>
      </trkpt>
      <trkpt lat="45.34506" lon="5.82217">
        <ele>1082</ele>
        <time>2022-03-06T15:58:19Z</time>
      </trkpt>
      <trkpt lat="45.34506" lon="5.82217">
        <ele>1081</ele>
        <time>2022-03-06T15:58:23Z</time>
      </trkpt>
      <trkpt lat="45.34504" lon="5.82219">
        <ele>1081</ele>
        <time>2022-03-06T15:58:25Z</time>
      </trkpt>
      <trkpt lat="45.34504" lon="5.82219">
        <ele>1080</ele>
        <time>2022-03-06T15:58:28Z</time>
      </trkpt>
      <trkpt lat="45.34501" lon="5.82218">
        <ele>1081</ele>
        <time>2022-03-06T15:58:30Z</time>
      </trkpt>
      <trkpt lat="45.34501" lon="5.82218">
        <ele>1080</ele>
        <time>2022-03-06T15:58:33Z</time>
      </trkpt>
      <trkpt lat="45.34499" lon="5.82218">
        <ele>1079</ele>
        <time>2022-03-06T15:58:35Z</time>
      </trkpt>
      <trkpt lat="45.34499" lon="5.82218">
        <ele>1080</ele>
        <time>2022-03-06T15:58:38Z</time>
      </trkpt>
      <trkpt lat="45.34498" lon="5.82217">
        <ele>1080</ele>
        <time>2022-03-06T15:58:39Z</time>
      </trkpt>
      <trkpt lat="45.34496" lon="5.82214">
        <ele>1079</ele>
        <time>2022-03-06T15:58:41Z</time>
      </trkpt>
      <trkpt lat="45.34493" lon="5.8221">
        <ele>1080</ele>
        <time>2022-03-06T15:58:42Z</time>
      </trkpt>
      <trkpt lat="45.34492" lon="5.82208">
        <ele>1078</ele>
        <time>2022-03-06T15:58:44Z</time>
      </trkpt>
      <trkpt lat="45.34491" lon="5.82205">
        <ele>1078</ele>
        <time>2022-03-06T15:58:45Z</time>
      </trkpt>
      <trkpt lat="45.34492" lon="5.82201">
        <ele>1078</ele>
        <time>2022-03-06T15:58:46Z</time>
      </trkpt>
      <trkpt lat="45.34493" lon="5.82198">
        <ele>1077</ele>
        <time>2022-03-06T15:58:47Z</time>
      </trkpt>
      <trkpt lat="45.34493" lon="5.82193">
        <ele>1076</ele>
        <time>2022-03-06T15:58:48Z</time>
      </trkpt>
      <trkpt lat="45.34492" lon="5.82188">
        <ele>1075</ele>
        <time>2022-03-06T15:58:49Z</time>
      </trkpt>
      <trkpt lat="45.34491" lon="5.82183">
        <ele>1074</ele>
        <time>2022-03-06T15:58:50Z</time>
      </trkpt>
      <trkpt lat="45.34494" lon="5.82173">
        <ele>1073</ele>
        <time>2022-03-06T15:58:51Z</time>
      </trkpt>
      <trkpt lat="45.34495" lon="5.82167">
        <ele>1071</ele>
        <time>2022-03-06T15:58:52Z</time>
      </trkpt>
      <trkpt lat="45.34494" lon="5.82163">
        <ele>1069</ele>
        <time>2022-03-06T15:58:53Z</time>
      </trkpt>
      <trkpt lat="45.34492" lon="5.8216">
        <ele>1068</ele>
        <time>2022-03-06T15:58:54Z</time>
      </trkpt>
      <trkpt lat="45.3449" lon="5.82157">
        <ele>1067</ele>
        <time>2022-03-06T15:58:55Z</time>
      </trkpt>
      <trkpt lat="45.34489" lon="5.82153">
        <ele>1066</ele>
        <time>2022-03-06T15:58:56Z</time>
      </trkpt>
      <trkpt lat="45.34488" lon="5.82149">
        <ele>1064</ele>
        <time>2022-03-06T15:58:57Z</time>
      </trkpt>
      <trkpt lat="45.34486" lon="5.82145">
        <ele>1063</ele>
        <time>2022-03-06T15:58:58Z</time>
      </trkpt>
      <trkpt lat="45.34484" lon="5.82143">
        <ele>1062</ele>
        <time>2022-03-06T15:58:59Z</time>
      </trkpt>
      <trkpt lat="45.34482" lon="5.82141">
        <ele>1060</ele>
        <time>2022-03-06T15:59:00Z</time>
      </trkpt>
      <trkpt lat="45.34479" lon="5.82139">
        <ele>1060</ele>
        <time>2022-03-06T15:59:01Z</time>
      </trkpt>
      <trkpt lat="45.34477" lon="5.82137">
        <ele>1060</ele>
        <time>2022-03-06T15:59:02Z</time>
      </trkpt>
      <trkpt lat="45.34475" lon="5.82135">
        <ele>1059</ele>
        <time>2022-03-06T15:59:03Z</time>
      </trkpt>
      <trkpt lat="45.34473" lon="5.82133">
        <ele>1059</ele>
        <time>2022-03-06T15:59:04Z</time>
      </trkpt>
      <trkpt lat="45.34471" lon="5.82132">
        <ele>1058</ele>
        <time>2022-03-06T15:59:05Z</time>
      </trkpt>
      <trkpt lat="45.34469" lon="5.82131">
        <ele>1058</ele>
        <time>2022-03-06T15:59:06Z</time>
      </trkpt>
      <trkpt lat="45.34467" lon="5.82129">
        <ele>1058</ele>
        <time>2022-03-06T15:59:07Z</time>
      </trkpt>
      <trkpt lat="45.34466" lon="5.82128">
        <ele>1058</ele>
        <time>2022-03-06T15:59:08Z</time>
      </trkpt>
      <trkpt lat="45.34463" lon="5.82126">
        <ele>1057</ele>
        <time>2022-03-06T15:59:11Z</time>
      </trkpt>
      <trkpt lat="45.3446" lon="5.82124">
        <ele>1056</ele>
        <time>2022-03-06T15:59:13Z</time>
      </trkpt>
      <trkpt lat="45.34458" lon="5.82122">
        <ele>1056</ele>
        <time>2022-03-06T15:59:14Z</time>
      </trkpt>
      <trkpt lat="45.34456" lon="5.82121">
        <ele>1056</ele>
        <time>2022-03-06T15:59:15Z</time>
      </trkpt>
      <trkpt lat="45.34454" lon="5.82119">
        <ele>1055</ele>
        <time>2022-03-06T15:59:16Z</time>
      </trkpt>
      <trkpt lat="45.34452" lon="5.82118">
        <ele>1055</ele>
        <time>2022-03-06T15:59:17Z</time>
      </trkpt>
      <trkpt lat="45.34451" lon="5.82117">
        <ele>1055</ele>
        <time>2022-03-06T15:59:18Z</time>
      </trkpt>
      <trkpt lat="45.34449" lon="5.82115">
        <ele>1055</ele>
        <time>2022-03-06T15:59:19Z</time>
      </trkpt>
      <trkpt lat="45.34447" lon="5.82114">
        <ele>1054</ele>
        <time>2022-03-06T15:59:20Z</time>
      </trkpt>
      <trkpt lat="45.34444" lon="5.82111">
        <ele>1053</ele>
        <time>2022-03-06T15:59:22Z</time>
      </trkpt>
      <trkpt lat="45.34443" lon="5.8211">
        <ele>1053</ele>
        <time>2022-03-06T15:59:23Z</time>
      </trkpt>
      <trkpt lat="45.34441" lon="5.82109">
        <ele>1053</ele>
        <time>2022-03-06T15:59:24Z</time>
      </trkpt>
      <trkpt lat="45.34439" lon="5.82108">
        <ele>1053</ele>
        <time>2022-03-06T15:59:25Z</time>
      </trkpt>
      <trkpt lat="45.34437" lon="5.82107">
        <ele>1053</ele>
        <time>2022-03-06T15:59:26Z</time>
      </trkpt>
      <trkpt lat="45.34435" lon="5.82106">
        <ele>1052</ele>
        <time>2022-03-06T15:59:27Z</time>
      </trkpt>
      <trkpt lat="45.34434" lon="5.82105">
        <ele>1052</ele>
        <time>2022-03-06T15:59:28Z</time>
      </trkpt>
      <trkpt lat="45.34432" lon="5.82104">
        <ele>1052</ele>
        <time>2022-03-06T15:59:29Z</time>
      </trkpt>
      <trkpt lat="45.3443" lon="5.82103">
        <ele>1051</ele>
        <time>2022-03-06T15:59:30Z</time>
      </trkpt>
      <trkpt lat="45.34427" lon="5.82101">
        <ele>1051</ele>
        <time>2022-03-06T15:59:31Z</time>
      </trkpt>
      <trkpt lat="45.34424" lon="5.82098">
        <ele>1050</ele>
        <time>2022-03-06T15:59:32Z</time>
      </trkpt>
      <trkpt lat="45.34417" lon="5.8209">
        <ele>1049</ele>
        <time>2022-03-06T15:59:33Z</time>
      </trkpt>
      <trkpt lat="45.34412" lon="5.82084">
        <ele>1048</ele>
        <time>2022-03-06T15:59:34Z</time>
      </trkpt>
      <trkpt lat="45.34406" lon="5.82078">
        <ele>1047</ele>
        <time>2022-03-06T15:59:35Z</time>
      </trkpt>
      <trkpt lat="45.344" lon="5.82073">
        <ele>1046</ele>
        <time>2022-03-06T15:59:36Z</time>
      </trkpt>
      <trkpt lat="45.34395" lon="5.82067">
        <ele>1044</ele>
        <time>2022-03-06T15:59:37Z</time>
      </trkpt>
      <trkpt lat="45.34391" lon="5.82061">
        <ele>1043</ele>
        <time>2022-03-06T15:59:38Z</time>
      </trkpt>
      <trkpt lat="45.34386" lon="5.82057">
        <ele>1043</ele>
        <time>2022-03-06T15:59:39Z</time>
      </trkpt>
      <trkpt lat="45.34381" lon="5.82052">
        <ele>1043</ele>
        <time>2022-03-06T15:59:40Z</time>
      </trkpt>
      <trkpt lat="45.34376" lon="5.82049">
        <ele>1042</ele>
        <time>2022-03-06T15:59:41Z</time>
      </trkpt>
      <trkpt lat="45.34373" lon="5.82045">
        <ele>1040</ele>
        <time>2022-03-06T15:59:43Z</time>
      </trkpt>
      <trkpt lat="45.3437" lon="5.82041">
        <ele>1040</ele>
        <time>2022-03-06T15:59:44Z</time>
      </trkpt>
      <trkpt lat="45.34366" lon="5.82038">
        <ele>1039</ele>
        <time>2022-03-06T15:59:45Z</time>
      </trkpt>
      <trkpt lat="45.34364" lon="5.82036">
        <ele>1039</ele>
        <time>2022-03-06T15:59:46Z</time>
      </trkpt>
      <trkpt lat="45.34361" lon="5.82035">
        <ele>1038</ele>
        <time>2022-03-06T15:59:47Z</time>
      </trkpt>
      <trkpt lat="45.34359" lon="5.82034">
        <ele>1038</ele>
        <time>2022-03-06T15:59:48Z</time>
      </trkpt>
      <trkpt lat="45.34356" lon="5.82033">
        <ele>1037</ele>
        <time>2022-03-06T15:59:50Z</time>
      </trkpt>
      <trkpt lat="45.34354" lon="5.82033">
        <ele>1037</ele>
        <time>2022-03-06T15:59:52Z</time>
      </trkpt>
      <trkpt lat="45.34354" lon="5.82033">
        <ele>1036</ele>
        <time>2022-03-06T15:59:54Z</time>
      </trkpt>
      <trkpt lat="45.34352" lon="5.82035">
        <ele>1036</ele>
        <time>2022-03-06T15:59:55Z</time>
      </trkpt>
      <trkpt lat="45.34351" lon="5.82037">
        <ele>1036</ele>
        <time>2022-03-06T15:59:58Z</time>
      </trkpt>
      <trkpt lat="45.34351" lon="5.82037">
        <ele>1037</ele>
        <time>2022-03-06T16:00:00Z</time>
      </trkpt>
      <trkpt lat="45.34349" lon="5.82038">
        <ele>1038</ele>
        <time>2022-03-06T16:00:03Z</time>
      </trkpt>
      <trkpt lat="45.34349" lon="5.82038">
        <ele>1037</ele>
        <time>2022-03-06T16:00:05Z</time>
      </trkpt>
      <trkpt lat="45.34347" lon="5.82038">
        <ele>1036</ele>
        <time>2022-03-06T16:00:09Z</time>
      </trkpt>
      <trkpt lat="45.34347" lon="5.82038">
        <ele>1036</ele>
        <time>2022-03-06T16:00:10Z</time>
      </trkpt>
      <trkpt lat="45.34345" lon="5.82039">
        <ele>1036</ele>
        <time>2022-03-06T16:00:14Z</time>
      </trkpt>
      <trkpt lat="45.34345" lon="5.82039">
        <ele>1036</ele>
        <time>2022-03-06T16:00:15Z</time>
      </trkpt>
      <trkpt lat="45.34343" lon="5.82038">
        <ele>1036</ele>
        <time>2022-03-06T16:00:16Z</time>
      </trkpt>
      <trkpt lat="45.3434" lon="5.82037">
        <ele>1036</ele>
        <time>2022-03-06T16:00:17Z</time>
      </trkpt>
      <trkpt lat="45.34338" lon="5.82036">
        <ele>1036</ele>
        <time>2022-03-06T16:00:18Z</time>
      </trkpt>
      <trkpt lat="45.34336" lon="5.82035">
        <ele>1036</ele>
        <time>2022-03-06T16:00:19Z</time>
      </trkpt>
      <trkpt lat="45.34333" lon="5.82033">
        <ele>1035</ele>
        <time>2022-03-06T16:00:21Z</time>
      </trkpt>
      <trkpt lat="45.34331" lon="5.82031">
        <ele>1035</ele>
        <time>2022-03-06T16:00:22Z</time>
      </trkpt>
      <trkpt lat="45.34329" lon="5.82029">
        <ele>1035</ele>
        <time>2022-03-06T16:00:23Z</time>
      </trkpt>
      <trkpt lat="45.34327" lon="5.82025">
        <ele>1034</ele>
        <time>2022-03-06T16:00:24Z</time>
      </trkpt>
      <trkpt lat="45.34325" lon="5.82022">
        <ele>1034</ele>
        <time>2022-03-06T16:00:25Z</time>
      </trkpt>
      <trkpt lat="45.34323" lon="5.82018">
        <ele>1034</ele>
        <time>2022-03-06T16:00:26Z</time>
      </trkpt>
      <trkpt lat="45.34324" lon="5.82014">
        <ele>1034</ele>
        <time>2022-03-06T16:00:27Z</time>
      </trkpt>
      <trkpt lat="45.34326" lon="5.82012">
        <ele>1033</ele>
        <time>2022-03-06T16:00:28Z</time>
      </trkpt>
      <trkpt lat="45.34328" lon="5.8201">
        <ele>1032</ele>
        <time>2022-03-06T16:00:29Z</time>
      </trkpt>
      <trkpt lat="45.3433" lon="5.82006">
        <ele>1032</ele>
        <time>2022-03-06T16:00:30Z</time>
      </trkpt>
      <trkpt lat="45.34331" lon="5.82">
        <ele>1031</ele>
        <time>2022-03-06T16:00:31Z</time>
      </trkpt>
      <trkpt lat="45.34333" lon="5.81995">
        <ele>1029</ele>
        <time>2022-03-06T16:00:32Z</time>
      </trkpt>
      <trkpt lat="45.34335" lon="5.81992">
        <ele>1028</ele>
        <time>2022-03-06T16:00:33Z</time>
      </trkpt>
      <trkpt lat="45.34338" lon="5.81992">
        <ele>1027</ele>
        <time>2022-03-06T16:00:34Z</time>
      </trkpt>
      <trkpt lat="45.34341" lon="5.81994">
        <ele>1027</ele>
        <time>2022-03-06T16:00:35Z</time>
      </trkpt>
      <trkpt lat="45.34346" lon="5.81989">
        <ele>1027</ele>
        <time>2022-03-06T16:00:36Z</time>
      </trkpt>
      <trkpt lat="45.34348" lon="5.81984">
        <ele>1026</ele>
        <time>2022-03-06T16:00:37Z</time>
      </trkpt>
      <trkpt lat="45.3435" lon="5.8198">
        <ele>1024</ele>
        <time>2022-03-06T16:00:38Z</time>
      </trkpt>
      <trkpt lat="45.34354" lon="5.81978">
        <ele>1022</ele>
        <time>2022-03-06T16:00:39Z</time>
      </trkpt>
      <trkpt lat="45.34357" lon="5.81981">
        <ele>1021</ele>
        <time>2022-03-06T16:00:40Z</time>
      </trkpt>
      <trkpt lat="45.34361" lon="5.81983">
        <ele>1020</ele>
        <time>2022-03-06T16:00:41Z</time>
      </trkpt>
      <trkpt lat="45.34364" lon="5.81983">
        <ele>1019</ele>
        <time>2022-03-06T16:00:42Z</time>
      </trkpt>
      <trkpt lat="45.34367" lon="5.8198">
        <ele>1018</ele>
        <time>2022-03-06T16:00:43Z</time>
      </trkpt>
      <trkpt lat="45.34369" lon="5.81975">
        <ele>1017</ele>
        <time>2022-03-06T16:00:44Z</time>
      </trkpt>
      <trkpt lat="45.34371" lon="5.81971">
        <ele>1016</ele>
        <time>2022-03-06T16:00:45Z</time>
      </trkpt>
      <trkpt lat="45.34375" lon="5.8197">
        <ele>1015</ele>
        <time>2022-03-06T16:00:46Z</time>
      </trkpt>
      <trkpt lat="45.34378" lon="5.81972">
        <ele>1013</ele>
        <time>2022-03-06T16:00:47Z</time>
      </trkpt>
      <trkpt lat="45.34381" lon="5.81976">
        <ele>1012</ele>
        <time>2022-03-06T16:00:48Z</time>
      </trkpt>
      <trkpt lat="45.34384" lon="5.81978">
        <ele>1012</ele>
        <time>2022-03-06T16:00:49Z</time>
      </trkpt>
      <trkpt lat="45.34386" lon="5.81977">
        <ele>1011</ele>
        <time>2022-03-06T16:00:51Z</time>
      </trkpt>
      <trkpt lat="45.34387" lon="5.81973">
        <ele>1010</ele>
        <time>2022-03-06T16:00:52Z</time>
      </trkpt>
      <trkpt lat="45.34388" lon="5.81968">
        <ele>1009</ele>
        <time>2022-03-06T16:00:53Z</time>
      </trkpt>
      <trkpt lat="45.3439" lon="5.81964">
        <ele>1009</ele>
        <time>2022-03-06T16:00:54Z</time>
      </trkpt>
      <trkpt lat="45.34396" lon="5.81966">
        <ele>1007</ele>
        <time>2022-03-06T16:00:55Z</time>
      </trkpt>
      <trkpt lat="45.34399" lon="5.81968">
        <ele>1005</ele>
        <time>2022-03-06T16:00:57Z</time>
      </trkpt>
      <trkpt lat="45.34402" lon="5.81969">
        <ele>1004</ele>
        <time>2022-03-06T16:00:58Z</time>
      </trkpt>
      <trkpt lat="45.34404" lon="5.81969">
        <ele>1003</ele>
        <time>2022-03-06T16:00:59Z</time>
      </trkpt>
      <trkpt lat="45.34406" lon="5.81967">
        <ele>1002</ele>
        <time>2022-03-06T16:01:00Z</time>
      </trkpt>
      <trkpt lat="45.34408" lon="5.81962">
        <ele>1002</ele>
        <time>2022-03-06T16:01:01Z</time>
      </trkpt>
      <trkpt lat="45.34411" lon="5.81958">
        <ele>1001</ele>
        <time>2022-03-06T16:01:02Z</time>
      </trkpt>
      <trkpt lat="45.34414" lon="5.81956">
        <ele>1000</ele>
        <time>2022-03-06T16:01:03Z</time>
      </trkpt>
      <trkpt lat="45.34415" lon="5.81952">
        <ele>998</ele>
        <time>2022-03-06T16:01:04Z</time>
      </trkpt>
      <trkpt lat="45.34415" lon="5.81947">
        <ele>997</ele>
        <time>2022-03-06T16:01:05Z</time>
      </trkpt>
      <trkpt lat="45.34412" lon="5.81938">
        <ele>997</ele>
        <time>2022-03-06T16:01:06Z</time>
      </trkpt>
      <trkpt lat="45.34413" lon="5.81934">
        <ele>996</ele>
        <time>2022-03-06T16:01:07Z</time>
      </trkpt>
      <trkpt lat="45.34416" lon="5.81932">
        <ele>995</ele>
        <time>2022-03-06T16:01:08Z</time>
      </trkpt>
      <trkpt lat="45.34418" lon="5.81932">
        <ele>994</ele>
        <time>2022-03-06T16:01:09Z</time>
      </trkpt>
      <trkpt lat="45.34421" lon="5.81932">
        <ele>993</ele>
        <time>2022-03-06T16:01:10Z</time>
      </trkpt>
      <trkpt lat="45.34426" lon="5.81934">
        <ele>991</ele>
        <time>2022-03-06T16:01:12Z</time>
      </trkpt>
      <trkpt lat="45.34429" lon="5.81929">
        <ele>990</ele>
        <time>2022-03-06T16:01:14Z</time>
      </trkpt>
      <trkpt lat="45.3443" lon="5.81925">
        <ele>990</ele>
        <time>2022-03-06T16:01:15Z</time>
      </trkpt>
      <trkpt lat="45.3443" lon="5.81921">
        <ele>990</ele>
        <time>2022-03-06T16:01:16Z</time>
      </trkpt>
      <trkpt lat="45.3443" lon="5.81916">
        <ele>989</ele>
        <time>2022-03-06T16:01:17Z</time>
      </trkpt>
      <trkpt lat="45.34425" lon="5.81901">
        <ele>987</ele>
        <time>2022-03-06T16:01:19Z</time>
      </trkpt>
      <trkpt lat="45.34424" lon="5.81898">
        <ele>986</ele>
        <time>2022-03-06T16:01:20Z</time>
      </trkpt>
      <trkpt lat="45.34425" lon="5.81894">
        <ele>985</ele>
        <time>2022-03-06T16:01:21Z</time>
      </trkpt>
      <trkpt lat="45.34428" lon="5.81893">
        <ele>983</ele>
        <time>2022-03-06T16:01:23Z</time>
      </trkpt>
      <trkpt lat="45.34431" lon="5.81892">
        <ele>983</ele>
        <time>2022-03-06T16:01:24Z</time>
      </trkpt>
      <trkpt lat="45.34434" lon="5.8189">
        <ele>983</ele>
        <time>2022-03-06T16:01:25Z</time>
      </trkpt>
      <trkpt lat="45.34435" lon="5.81888">
        <ele>980</ele>
        <time>2022-03-06T16:01:26Z</time>
      </trkpt>
      <trkpt lat="45.34437" lon="5.81886">
        <ele>977</ele>
        <time>2022-03-06T16:01:27Z</time>
      </trkpt>
      <trkpt lat="45.34438" lon="5.81884">
        <ele>976</ele>
        <time>2022-03-06T16:01:28Z</time>
      </trkpt>
      <trkpt lat="45.34444" lon="5.81881">
        <ele>976</ele>
        <time>2022-03-06T16:01:29Z</time>
      </trkpt>
      <trkpt lat="45.34446" lon="5.81884">
        <ele>975</ele>
        <time>2022-03-06T16:01:30Z</time>
      </trkpt>
      <trkpt lat="45.34455" lon="5.8189">
        <ele>975</ele>
        <time>2022-03-06T16:01:31Z</time>
      </trkpt>
      <trkpt lat="45.34458" lon="5.8189">
        <ele>974</ele>
        <time>2022-03-06T16:01:32Z</time>
      </trkpt>
      <trkpt lat="45.34461" lon="5.81891">
        <ele>972</ele>
        <time>2022-03-06T16:01:33Z</time>
      </trkpt>
      <trkpt lat="45.34463" lon="5.8189">
        <ele>971</ele>
        <time>2022-03-06T16:01:34Z</time>
      </trkpt>
      <trkpt lat="45.34466" lon="5.8189">
        <ele>970</ele>
        <time>2022-03-06T16:01:35Z</time>
      </trkpt>
      <trkpt lat="45.34468" lon="5.8189">
        <ele>969</ele>
        <time>2022-03-06T16:01:36Z</time>
      </trkpt>
      <trkpt lat="45.3447" lon="5.8189">
        <ele>969</ele>
        <time>2022-03-06T16:01:37Z</time>
      </trkpt>
      <trkpt lat="45.3447" lon="5.81885">
        <ele>968</ele>
        <time>2022-03-06T16:01:38Z</time>
      </trkpt>
      <trkpt lat="45.3447" lon="5.81879">
        <ele>967</ele>
        <time>2022-03-06T16:01:39Z</time>
      </trkpt>
      <trkpt lat="45.3447" lon="5.81874">
        <ele>966</ele>
        <time>2022-03-06T16:01:40Z</time>
      </trkpt>
      <trkpt lat="45.34471" lon="5.8187">
        <ele>965</ele>
        <time>2022-03-06T16:01:41Z</time>
      </trkpt>
      <trkpt lat="45.34473" lon="5.81865">
        <ele>964</ele>
        <time>2022-03-06T16:01:42Z</time>
      </trkpt>
      <trkpt lat="45.34475" lon="5.81861">
        <ele>962</ele>
        <time>2022-03-06T16:01:43Z</time>
      </trkpt>
      <trkpt lat="45.34479" lon="5.81858">
        <ele>961</ele>
        <time>2022-03-06T16:01:44Z</time>
      </trkpt>
      <trkpt lat="45.34483" lon="5.81855">
        <ele>960</ele>
        <time>2022-03-06T16:01:45Z</time>
      </trkpt>
      <trkpt lat="45.34487" lon="5.81852">
        <ele>959</ele>
        <time>2022-03-06T16:01:46Z</time>
      </trkpt>
      <trkpt lat="45.34488" lon="5.81847">
        <ele>958</ele>
        <time>2022-03-06T16:01:47Z</time>
      </trkpt>
      <trkpt lat="45.3449" lon="5.81844">
        <ele>956</ele>
        <time>2022-03-06T16:01:49Z</time>
      </trkpt>
      <trkpt lat="45.34493" lon="5.8184">
        <ele>955</ele>
        <time>2022-03-06T16:01:50Z</time>
      </trkpt>
      <trkpt lat="45.34495" lon="5.81837">
        <ele>954</ele>
        <time>2022-03-06T16:01:51Z</time>
      </trkpt>
      <trkpt lat="45.34495" lon="5.81835">
        <ele>953</ele>
        <time>2022-03-06T16:01:52Z</time>
      </trkpt>
      <trkpt lat="45.34495" lon="5.81833">
        <ele>952</ele>
        <time>2022-03-06T16:01:53Z</time>
      </trkpt>
      <trkpt lat="45.34495" lon="5.81831">
        <ele>951</ele>
        <time>2022-03-06T16:01:54Z</time>
      </trkpt>
      <trkpt lat="45.34495" lon="5.81829">
        <ele>950</ele>
        <time>2022-03-06T16:01:55Z</time>
      </trkpt>
      <trkpt lat="45.34495" lon="5.81814">
        <ele>949</ele>
        <time>2022-03-06T16:01:56Z</time>
      </trkpt>
      <trkpt lat="45.34496" lon="5.81808">
        <ele>948</ele>
        <time>2022-03-06T16:01:57Z</time>
      </trkpt>
      <trkpt lat="45.34496" lon="5.81806">
        <ele>947</ele>
        <time>2022-03-06T16:01:58Z</time>
      </trkpt>
      <trkpt lat="45.34496" lon="5.81804">
        <ele>946</ele>
        <time>2022-03-06T16:01:59Z</time>
      </trkpt>
      <trkpt lat="45.34495" lon="5.81802">
        <ele>943</ele>
        <time>2022-03-06T16:02:00Z</time>
      </trkpt>
      <trkpt lat="45.34495" lon="5.818">
        <ele>943</ele>
        <time>2022-03-06T16:02:01Z</time>
      </trkpt>
      <trkpt lat="45.34495" lon="5.81792">
        <ele>942</ele>
        <time>2022-03-06T16:02:02Z</time>
      </trkpt>
      <trkpt lat="45.34496" lon="5.81789">
        <ele>941</ele>
        <time>2022-03-06T16:02:03Z</time>
      </trkpt>
      <trkpt lat="45.34494" lon="5.81787">
        <ele>941</ele>
        <time>2022-03-06T16:02:04Z</time>
      </trkpt>
      <trkpt lat="45.34495" lon="5.81782">
        <ele>940</ele>
        <time>2022-03-06T16:02:05Z</time>
      </trkpt>
      <trkpt lat="45.34495" lon="5.81778">
        <ele>940</ele>
        <time>2022-03-06T16:02:06Z</time>
      </trkpt>
      <trkpt lat="45.34495" lon="5.81774">
        <ele>940</ele>
        <time>2022-03-06T16:02:07Z</time>
      </trkpt>
      <trkpt lat="45.34495" lon="5.81769">
        <ele>940</ele>
        <time>2022-03-06T16:02:08Z</time>
      </trkpt>
      <trkpt lat="45.3449" lon="5.81762">
        <ele>938</ele>
        <time>2022-03-06T16:02:10Z</time>
      </trkpt>
      <trkpt lat="45.34489" lon="5.8176">
        <ele>938</ele>
        <time>2022-03-06T16:02:11Z</time>
      </trkpt>
      <trkpt lat="45.34489" lon="5.81757">
        <ele>938</ele>
        <time>2022-03-06T16:02:12Z</time>
      </trkpt>
      <trkpt lat="45.34489" lon="5.81754">
        <ele>937</ele>
        <time>2022-03-06T16:02:13Z</time>
      </trkpt>
      <trkpt lat="45.34487" lon="5.81748">
        <ele>935</ele>
        <time>2022-03-06T16:02:15Z</time>
      </trkpt>
      <trkpt lat="45.34488" lon="5.81737">
        <ele>934</ele>
        <time>2022-03-06T16:02:17Z</time>
      </trkpt>
      <trkpt lat="45.34485" lon="5.81731">
        <ele>933</ele>
        <time>2022-03-06T16:02:19Z</time>
      </trkpt>
      <trkpt lat="45.34483" lon="5.81727">
        <ele>932</ele>
        <time>2022-03-06T16:02:20Z</time>
      </trkpt>
      <trkpt lat="45.34484" lon="5.81722">
        <ele>931</ele>
        <time>2022-03-06T16:02:21Z</time>
      </trkpt>
      <trkpt lat="45.34484" lon="5.81718">
        <ele>931</ele>
        <time>2022-03-06T16:02:22Z</time>
      </trkpt>
      <trkpt lat="45.34483" lon="5.81715">
        <ele>930</ele>
        <time>2022-03-06T16:02:23Z</time>
      </trkpt>
      <trkpt lat="45.34481" lon="5.81712">
        <ele>930</ele>
        <time>2022-03-06T16:02:24Z</time>
      </trkpt>
      <trkpt lat="45.34478" lon="5.81709">
        <ele>929</ele>
        <time>2022-03-06T16:02:26Z</time>
      </trkpt>
      <trkpt lat="45.34476" lon="5.81708">
        <ele>929</ele>
        <time>2022-03-06T16:02:27Z</time>
      </trkpt>
      <trkpt lat="45.34475" lon="5.81707">
        <ele>928</ele>
        <time>2022-03-06T16:02:28Z</time>
      </trkpt>
      <trkpt lat="45.34472" lon="5.81706">
        <ele>927</ele>
        <time>2022-03-06T16:02:30Z</time>
      </trkpt>
      <trkpt lat="45.34472" lon="5.81706">
        <ele>926</ele>
        <time>2022-03-06T16:02:33Z</time>
      </trkpt>
      <trkpt lat="45.34472" lon="5.81706">
        <ele>926</ele>
        <time>2022-03-06T16:02:37Z</time>
      </trkpt>
      <trkpt lat="45.34472" lon="5.81706">
        <ele>927</ele>
        <time>2022-03-06T16:02:41Z</time>
      </trkpt>
      <trkpt lat="45.34472" lon="5.81706">
        <ele>926</ele>
        <time>2022-03-06T16:02:45Z</time>
      </trkpt>
      <trkpt lat="45.34472" lon="5.81706">
        <ele>926</ele>
        <time>2022-03-06T16:02:49Z</time>
      </trkpt>
      <trkpt lat="45.34472" lon="5.81706">
        <ele>926</ele>
        <time>2022-03-06T16:02:53Z</time>
      </trkpt>
      <trkpt lat="45.34472" lon="5.81706">
        <ele>926</ele>
        <time>2022-03-06T16:02:57Z</time>
      </trkpt>
      <trkpt lat="45.34472" lon="5.81706">
        <ele>926</ele>
        <time>2022-03-06T16:03:01Z</time>
      </trkpt>
      <trkpt lat="45.34471" lon="5.81709">
        <ele>926</ele>
        <time>2022-03-06T16:03:02Z</time>
      </trkpt>
      <trkpt lat="45.34471" lon="5.81709">
        <ele>927</ele>
        <time>2022-03-06T16:03:06Z</time>
      </trkpt>
      <trkpt lat="45.3447" lon="5.81708">
        <ele>927</ele>
        <time>2022-03-06T16:03:10Z</time>
      </trkpt>
      <trkpt lat="45.3447" lon="5.81708">
        <ele>927</ele>
        <time>2022-03-06T16:03:11Z</time>
      </trkpt>
      <trkpt lat="45.34468" lon="5.81707">
        <ele>926</ele>
        <time>2022-03-06T16:03:13Z</time>
      </trkpt>
      <trkpt lat="45.34466" lon="5.81705">
        <ele>926</ele>
        <time>2022-03-06T16:03:15Z</time>
      </trkpt>
      <trkpt lat="45.34465" lon="5.81703">
        <ele>926</ele>
        <time>2022-03-06T16:03:17Z</time>
      </trkpt>
      <trkpt lat="45.34465" lon="5.81703">
        <ele>925</ele>
        <time>2022-03-06T16:03:20Z</time>
      </trkpt>
      <trkpt lat="45.34463" lon="5.817">
        <ele>925</ele>
        <time>2022-03-06T16:03:21Z</time>
      </trkpt>
      <trkpt lat="45.34461" lon="5.81697">
        <ele>924</ele>
        <time>2022-03-06T16:03:23Z</time>
      </trkpt>
      <trkpt lat="45.34459" lon="5.81696">
        <ele>925</ele>
        <time>2022-03-06T16:03:25Z</time>
      </trkpt>
      <trkpt lat="45.3446" lon="5.81692">
        <ele>924</ele>
        <time>2022-03-06T16:03:27Z</time>
      </trkpt>
      <trkpt lat="45.34462" lon="5.81691">
        <ele>923</ele>
        <time>2022-03-06T16:03:30Z</time>
      </trkpt>
      <trkpt lat="45.34462" lon="5.81691">
        <ele>922</ele>
        <time>2022-03-06T16:03:31Z</time>
      </trkpt>
      <trkpt lat="45.34464" lon="5.81689">
        <ele>922</ele>
        <time>2022-03-06T16:03:32Z</time>
      </trkpt>
      <trkpt lat="45.34467" lon="5.81688">
        <ele>922</ele>
        <time>2022-03-06T16:03:34Z</time>
      </trkpt>
      <trkpt lat="45.34469" lon="5.81688">
        <ele>922</ele>
        <time>2022-03-06T16:03:36Z</time>
      </trkpt>
      <trkpt lat="45.34471" lon="5.81686">
        <ele>922</ele>
        <time>2022-03-06T16:03:38Z</time>
      </trkpt>
      <trkpt lat="45.34473" lon="5.81683">
        <ele>922</ele>
        <time>2022-03-06T16:03:40Z</time>
      </trkpt>
      <trkpt lat="45.34476" lon="5.81682">
        <ele>922</ele>
        <time>2022-03-06T16:03:42Z</time>
      </trkpt>
      <trkpt lat="45.34478" lon="5.81681">
        <ele>922</ele>
        <time>2022-03-06T16:03:43Z</time>
      </trkpt>
      <trkpt lat="45.3448" lon="5.81681">
        <ele>922</ele>
        <time>2022-03-06T16:03:45Z</time>
      </trkpt>
      <trkpt lat="45.34483" lon="5.8168">
        <ele>922</ele>
        <time>2022-03-06T16:03:48Z</time>
      </trkpt>
      <trkpt lat="45.34483" lon="5.8168">
        <ele>922</ele>
        <time>2022-03-06T16:03:49Z</time>
      </trkpt>
    </trkseg>
  </trk>
</gpx>